<?xml version="1.0" encoding="UTF-8" standalone="no" ?>
<gpx xmlns="http://www.topografix.com/GPX/1/1" xmlns:xsi="http://www.w3.org/2001/XMLSchema-instance" xsi:schemaLocation="http://www.topografix.com/GPX/1/1 http://www.topografix.com/GPX/1/1/gpx.xsd" version="1.1" creator="VisuGPX - https://www.visugpx.com">
  <metadata>
    <name>83 - D - Roquebrune sur Argens</name>
    <desc><![CDATA[83 - D - Roquebrune sur Argens - Bouverie - meulières]]></desc>
  </metadata>
  <trk>
    <name><![CDATA[Roquebrune les meulières Dim 2025-10-26-01]]></name>
    <trkseg>
      <trkpt lat="43.48977" lon="6.65523">
        <ele>52</ele>
        <time>2025-10-26T07:41:26Z</time>
      </trkpt>
      <trkpt lat="43.48977" lon="6.65523">
        <ele>52</ele>
        <time>2025-10-26T07:41:27Z</time>
      </trkpt>
      <trkpt lat="43.48977" lon="6.65523">
        <ele>52</ele>
        <time>2025-10-26T07:41:28Z</time>
      </trkpt>
      <trkpt lat="43.48977" lon="6.65523">
        <ele>51.9</ele>
        <time>2025-10-26T07:41:29Z</time>
      </trkpt>
      <trkpt lat="43.48977" lon="6.65523">
        <ele>51.9</ele>
        <time>2025-10-26T07:41:30Z</time>
      </trkpt>
      <trkpt lat="43.48977" lon="6.65523">
        <ele>51.9</ele>
        <time>2025-10-26T07:41:31Z</time>
      </trkpt>
      <trkpt lat="43.48977" lon="6.65523">
        <ele>51.9</ele>
        <time>2025-10-26T07:41:32Z</time>
      </trkpt>
      <trkpt lat="43.48977" lon="6.65523">
        <ele>51.9</ele>
        <time>2025-10-26T07:41:33Z</time>
      </trkpt>
      <trkpt lat="43.48977" lon="6.65523">
        <ele>52</ele>
        <time>2025-10-26T07:41:34Z</time>
      </trkpt>
      <trkpt lat="43.48977" lon="6.65523">
        <ele>51.9</ele>
        <time>2025-10-26T07:41:35Z</time>
      </trkpt>
      <trkpt lat="43.48977" lon="6.65523">
        <ele>52</ele>
        <time>2025-10-26T07:41:36Z</time>
      </trkpt>
      <trkpt lat="43.48977" lon="6.65523">
        <ele>52</ele>
        <time>2025-10-26T07:41:37Z</time>
      </trkpt>
      <trkpt lat="43.48977" lon="6.65523">
        <ele>52</ele>
        <time>2025-10-26T07:41:38Z</time>
      </trkpt>
      <trkpt lat="43.48977" lon="6.65523">
        <ele>51.8</ele>
        <time>2025-10-26T07:41:39Z</time>
      </trkpt>
      <trkpt lat="43.48977" lon="6.65523">
        <ele>51.8</ele>
        <time>2025-10-26T07:41:40Z</time>
      </trkpt>
      <trkpt lat="43.48977" lon="6.65523">
        <ele>51.8</ele>
        <time>2025-10-26T07:41:41Z</time>
      </trkpt>
      <trkpt lat="43.48977" lon="6.65523">
        <ele>51.7</ele>
        <time>2025-10-26T07:41:42Z</time>
      </trkpt>
      <trkpt lat="43.48977" lon="6.65523">
        <ele>51.7</ele>
        <time>2025-10-26T07:41:43Z</time>
      </trkpt>
      <trkpt lat="43.48977" lon="6.65523">
        <ele>51.8</ele>
        <time>2025-10-26T07:41:44Z</time>
      </trkpt>
      <trkpt lat="43.48977" lon="6.65523">
        <ele>51.7</ele>
        <time>2025-10-26T07:41:45Z</time>
      </trkpt>
      <trkpt lat="43.48977" lon="6.65523">
        <ele>51.7</ele>
        <time>2025-10-26T07:41:46Z</time>
      </trkpt>
      <trkpt lat="43.48977" lon="6.65523">
        <ele>51.7</ele>
        <time>2025-10-26T07:41:47Z</time>
      </trkpt>
      <trkpt lat="43.48977" lon="6.65523">
        <ele>51.7</ele>
        <time>2025-10-26T07:41:48Z</time>
      </trkpt>
      <trkpt lat="43.48977" lon="6.65524">
        <ele>51.7</ele>
        <time>2025-10-26T07:41:49Z</time>
      </trkpt>
      <trkpt lat="43.48977" lon="6.65524">
        <ele>51.7</ele>
        <time>2025-10-26T07:41:50Z</time>
      </trkpt>
      <trkpt lat="43.48977" lon="6.65524">
        <ele>51.8</ele>
        <time>2025-10-26T07:41:51Z</time>
      </trkpt>
      <trkpt lat="43.48977" lon="6.65525">
        <ele>51.8</ele>
        <time>2025-10-26T07:41:52Z</time>
      </trkpt>
      <trkpt lat="43.48977" lon="6.65525">
        <ele>51.9</ele>
        <time>2025-10-26T07:41:53Z</time>
      </trkpt>
      <trkpt lat="43.48977" lon="6.65524">
        <ele>51.9</ele>
        <time>2025-10-26T07:41:54Z</time>
      </trkpt>
      <trkpt lat="43.48977" lon="6.65525">
        <ele>51.9</ele>
        <time>2025-10-26T07:41:55Z</time>
      </trkpt>
      <trkpt lat="43.48977" lon="6.65525">
        <ele>51.9</ele>
        <time>2025-10-26T07:41:56Z</time>
      </trkpt>
      <trkpt lat="43.48977" lon="6.65525">
        <ele>51.9</ele>
        <time>2025-10-26T07:41:57Z</time>
      </trkpt>
      <trkpt lat="43.48977" lon="6.65525">
        <ele>52</ele>
        <time>2025-10-26T07:41:58Z</time>
      </trkpt>
      <trkpt lat="43.48977" lon="6.65525">
        <ele>52</ele>
        <time>2025-10-26T07:41:59Z</time>
      </trkpt>
      <trkpt lat="43.48977" lon="6.65525">
        <ele>52</ele>
        <time>2025-10-26T07:42:00Z</time>
      </trkpt>
      <trkpt lat="43.48977" lon="6.65525">
        <ele>51.9</ele>
        <time>2025-10-26T07:42:01Z</time>
      </trkpt>
      <trkpt lat="43.48977" lon="6.65525">
        <ele>51.9</ele>
        <time>2025-10-26T07:42:02Z</time>
      </trkpt>
      <trkpt lat="43.48977" lon="6.65525">
        <ele>51.8</ele>
        <time>2025-10-26T07:42:03Z</time>
      </trkpt>
      <trkpt lat="43.48977" lon="6.65525">
        <ele>51.9</ele>
        <time>2025-10-26T07:42:04Z</time>
      </trkpt>
      <trkpt lat="43.48977" lon="6.65526">
        <ele>51.9</ele>
        <time>2025-10-26T07:42:05Z</time>
      </trkpt>
      <trkpt lat="43.48977" lon="6.65526">
        <ele>52</ele>
        <time>2025-10-26T07:42:06Z</time>
      </trkpt>
      <trkpt lat="43.48977" lon="6.65526">
        <ele>52.1</ele>
        <time>2025-10-26T07:42:07Z</time>
      </trkpt>
      <trkpt lat="43.48977" lon="6.65526">
        <ele>52.1</ele>
        <time>2025-10-26T07:42:08Z</time>
      </trkpt>
      <trkpt lat="43.48977" lon="6.65526">
        <ele>52.1</ele>
        <time>2025-10-26T07:42:09Z</time>
      </trkpt>
      <trkpt lat="43.48977" lon="6.65526">
        <ele>52.2</ele>
        <time>2025-10-26T07:42:10Z</time>
      </trkpt>
      <trkpt lat="43.48977" lon="6.65526">
        <ele>52.2</ele>
        <time>2025-10-26T07:42:11Z</time>
      </trkpt>
      <trkpt lat="43.48977" lon="6.65526">
        <ele>52.2</ele>
        <time>2025-10-26T07:42:12Z</time>
      </trkpt>
      <trkpt lat="43.48977" lon="6.65526">
        <ele>52.2</ele>
        <time>2025-10-26T07:42:13Z</time>
      </trkpt>
      <trkpt lat="43.48977" lon="6.65525">
        <ele>52.1</ele>
        <time>2025-10-26T07:42:14Z</time>
      </trkpt>
      <trkpt lat="43.48978" lon="6.65525">
        <ele>52.1</ele>
        <time>2025-10-26T07:42:15Z</time>
      </trkpt>
      <trkpt lat="43.48977" lon="6.65525">
        <ele>52</ele>
        <time>2025-10-26T07:42:16Z</time>
      </trkpt>
      <trkpt lat="43.48977" lon="6.65526">
        <ele>52</ele>
        <time>2025-10-26T07:42:17Z</time>
      </trkpt>
      <trkpt lat="43.48977" lon="6.65526">
        <ele>52</ele>
        <time>2025-10-26T07:42:18Z</time>
      </trkpt>
      <trkpt lat="43.48977" lon="6.65526">
        <ele>52</ele>
        <time>2025-10-26T07:42:19Z</time>
      </trkpt>
      <trkpt lat="43.48977" lon="6.65526">
        <ele>52.1</ele>
        <time>2025-10-26T07:42:20Z</time>
      </trkpt>
      <trkpt lat="43.48977" lon="6.65526">
        <ele>51.9</ele>
        <time>2025-10-26T07:42:21Z</time>
      </trkpt>
      <trkpt lat="43.48977" lon="6.65526">
        <ele>51.9</ele>
        <time>2025-10-26T07:42:22Z</time>
      </trkpt>
      <trkpt lat="43.48977" lon="6.65526">
        <ele>51.9</ele>
        <time>2025-10-26T07:42:23Z</time>
      </trkpt>
      <trkpt lat="43.48977" lon="6.65526">
        <ele>51.9</ele>
        <time>2025-10-26T07:42:24Z</time>
      </trkpt>
      <trkpt lat="43.48977" lon="6.65526">
        <ele>51.9</ele>
        <time>2025-10-26T07:42:25Z</time>
      </trkpt>
      <trkpt lat="43.48977" lon="6.65526">
        <ele>51.8</ele>
        <time>2025-10-26T07:42:26Z</time>
      </trkpt>
      <trkpt lat="43.48977" lon="6.65526">
        <ele>51.8</ele>
        <time>2025-10-26T07:42:27Z</time>
      </trkpt>
      <trkpt lat="43.48977" lon="6.65526">
        <ele>51.8</ele>
        <time>2025-10-26T07:42:28Z</time>
      </trkpt>
      <trkpt lat="43.48977" lon="6.65527">
        <ele>51.9</ele>
        <time>2025-10-26T07:42:29Z</time>
      </trkpt>
      <trkpt lat="43.48977" lon="6.65527">
        <ele>51.8</ele>
        <time>2025-10-26T07:42:30Z</time>
      </trkpt>
      <trkpt lat="43.48977" lon="6.65527">
        <ele>51.8</ele>
        <time>2025-10-26T07:42:31Z</time>
      </trkpt>
      <trkpt lat="43.48976" lon="6.65527">
        <ele>51.9</ele>
        <time>2025-10-26T07:42:32Z</time>
      </trkpt>
      <trkpt lat="43.48977" lon="6.65526">
        <ele>51.9</ele>
        <time>2025-10-26T07:42:33Z</time>
      </trkpt>
      <trkpt lat="43.48977" lon="6.65526">
        <ele>51.9</ele>
        <time>2025-10-26T07:42:34Z</time>
      </trkpt>
      <trkpt lat="43.48976" lon="6.65526">
        <ele>52</ele>
        <time>2025-10-26T07:42:35Z</time>
      </trkpt>
      <trkpt lat="43.48976" lon="6.65526">
        <ele>52.1</ele>
        <time>2025-10-26T07:42:36Z</time>
      </trkpt>
      <trkpt lat="43.48976" lon="6.65527">
        <ele>52.2</ele>
        <time>2025-10-26T07:42:37Z</time>
      </trkpt>
      <trkpt lat="43.48976" lon="6.65527">
        <ele>52.2</ele>
        <time>2025-10-26T07:42:38Z</time>
      </trkpt>
      <trkpt lat="43.48976" lon="6.65527">
        <ele>52.2</ele>
        <time>2025-10-26T07:42:39Z</time>
      </trkpt>
      <trkpt lat="43.48976" lon="6.65527">
        <ele>52.2</ele>
        <time>2025-10-26T07:42:40Z</time>
      </trkpt>
      <trkpt lat="43.48976" lon="6.65527">
        <ele>52.1</ele>
        <time>2025-10-26T07:42:41Z</time>
      </trkpt>
      <trkpt lat="43.48976" lon="6.65527">
        <ele>52.1</ele>
        <time>2025-10-26T07:42:42Z</time>
      </trkpt>
      <trkpt lat="43.48976" lon="6.65527">
        <ele>52.1</ele>
        <time>2025-10-26T07:42:43Z</time>
      </trkpt>
      <trkpt lat="43.48976" lon="6.65527">
        <ele>52</ele>
        <time>2025-10-26T07:42:44Z</time>
      </trkpt>
      <trkpt lat="43.48976" lon="6.65527">
        <ele>52</ele>
        <time>2025-10-26T07:42:45Z</time>
      </trkpt>
      <trkpt lat="43.48976" lon="6.65527">
        <ele>51.9</ele>
        <time>2025-10-26T07:42:46Z</time>
      </trkpt>
      <trkpt lat="43.48975" lon="6.65527">
        <ele>51.8</ele>
        <time>2025-10-26T07:42:47Z</time>
      </trkpt>
      <trkpt lat="43.48975" lon="6.65527">
        <ele>51.8</ele>
        <time>2025-10-26T07:42:48Z</time>
      </trkpt>
      <trkpt lat="43.48975" lon="6.65527">
        <ele>51.7</ele>
        <time>2025-10-26T07:42:49Z</time>
      </trkpt>
      <trkpt lat="43.48975" lon="6.65527">
        <ele>51.7</ele>
        <time>2025-10-26T07:42:50Z</time>
      </trkpt>
      <trkpt lat="43.48975" lon="6.65527">
        <ele>51.7</ele>
        <time>2025-10-26T07:42:51Z</time>
      </trkpt>
      <trkpt lat="43.48975" lon="6.65527">
        <ele>51.6</ele>
        <time>2025-10-26T07:42:52Z</time>
      </trkpt>
      <trkpt lat="43.48975" lon="6.65527">
        <ele>51.6</ele>
        <time>2025-10-26T07:42:53Z</time>
      </trkpt>
      <trkpt lat="43.48975" lon="6.65527">
        <ele>51.5</ele>
        <time>2025-10-26T07:42:54Z</time>
      </trkpt>
      <trkpt lat="43.48975" lon="6.65527">
        <ele>51.7</ele>
        <time>2025-10-26T07:42:55Z</time>
      </trkpt>
      <trkpt lat="43.48975" lon="6.65527">
        <ele>51.8</ele>
        <time>2025-10-26T07:42:56Z</time>
      </trkpt>
      <trkpt lat="43.48975" lon="6.65527">
        <ele>51.7</ele>
        <time>2025-10-26T07:42:57Z</time>
      </trkpt>
      <trkpt lat="43.48975" lon="6.65527">
        <ele>51.6</ele>
        <time>2025-10-26T07:42:58Z</time>
      </trkpt>
      <trkpt lat="43.48974" lon="6.65527">
        <ele>51.6</ele>
        <time>2025-10-26T07:42:59Z</time>
      </trkpt>
      <trkpt lat="43.48975" lon="6.65527">
        <ele>51.6</ele>
        <time>2025-10-26T07:43:00Z</time>
      </trkpt>
      <trkpt lat="43.48975" lon="6.65527">
        <ele>51.7</ele>
        <time>2025-10-26T07:43:01Z</time>
      </trkpt>
      <trkpt lat="43.48975" lon="6.65527">
        <ele>51.6</ele>
        <time>2025-10-26T07:43:02Z</time>
      </trkpt>
      <trkpt lat="43.48975" lon="6.65527">
        <ele>51.7</ele>
        <time>2025-10-26T07:43:03Z</time>
      </trkpt>
      <trkpt lat="43.48975" lon="6.65527">
        <ele>51.7</ele>
        <time>2025-10-26T07:43:04Z</time>
      </trkpt>
      <trkpt lat="43.48975" lon="6.65527">
        <ele>51.8</ele>
        <time>2025-10-26T07:43:05Z</time>
      </trkpt>
      <trkpt lat="43.48975" lon="6.65527">
        <ele>51.8</ele>
        <time>2025-10-26T07:43:06Z</time>
      </trkpt>
      <trkpt lat="43.48975" lon="6.65527">
        <ele>51.8</ele>
        <time>2025-10-26T07:43:07Z</time>
      </trkpt>
      <trkpt lat="43.48974" lon="6.65527">
        <ele>51.8</ele>
        <time>2025-10-26T07:43:08Z</time>
      </trkpt>
      <trkpt lat="43.48974" lon="6.65527">
        <ele>51.9</ele>
        <time>2025-10-26T07:43:09Z</time>
      </trkpt>
      <trkpt lat="43.48974" lon="6.65527">
        <ele>51.9</ele>
        <time>2025-10-26T07:43:10Z</time>
      </trkpt>
      <trkpt lat="43.48974" lon="6.65526">
        <ele>51.9</ele>
        <time>2025-10-26T07:43:11Z</time>
      </trkpt>
      <trkpt lat="43.48974" lon="6.65527">
        <ele>51.9</ele>
        <time>2025-10-26T07:43:12Z</time>
      </trkpt>
      <trkpt lat="43.48974" lon="6.65527">
        <ele>51.9</ele>
        <time>2025-10-26T07:43:13Z</time>
      </trkpt>
      <trkpt lat="43.48974" lon="6.65527">
        <ele>51.9</ele>
        <time>2025-10-26T07:43:14Z</time>
      </trkpt>
      <trkpt lat="43.48974" lon="6.65527">
        <ele>51.9</ele>
        <time>2025-10-26T07:43:15Z</time>
      </trkpt>
      <trkpt lat="43.48974" lon="6.65527">
        <ele>52</ele>
        <time>2025-10-26T07:43:16Z</time>
      </trkpt>
      <trkpt lat="43.48974" lon="6.65527">
        <ele>52.1</ele>
        <time>2025-10-26T07:43:17Z</time>
      </trkpt>
      <trkpt lat="43.48974" lon="6.65527">
        <ele>52.1</ele>
        <time>2025-10-26T07:43:18Z</time>
      </trkpt>
      <trkpt lat="43.48974" lon="6.65527">
        <ele>52.2</ele>
        <time>2025-10-26T07:43:19Z</time>
      </trkpt>
      <trkpt lat="43.48974" lon="6.65527">
        <ele>52.1</ele>
        <time>2025-10-26T07:43:20Z</time>
      </trkpt>
      <trkpt lat="43.48974" lon="6.65528">
        <ele>52</ele>
        <time>2025-10-26T07:43:21Z</time>
      </trkpt>
      <trkpt lat="43.48974" lon="6.65528">
        <ele>51.9</ele>
        <time>2025-10-26T07:43:22Z</time>
      </trkpt>
      <trkpt lat="43.48974" lon="6.65528">
        <ele>52</ele>
        <time>2025-10-26T07:43:23Z</time>
      </trkpt>
      <trkpt lat="43.48974" lon="6.65528">
        <ele>51.9</ele>
        <time>2025-10-26T07:43:24Z</time>
      </trkpt>
      <trkpt lat="43.48974" lon="6.65528">
        <ele>51.9</ele>
        <time>2025-10-26T07:43:25Z</time>
      </trkpt>
      <trkpt lat="43.48974" lon="6.65528">
        <ele>51.9</ele>
        <time>2025-10-26T07:43:26Z</time>
      </trkpt>
      <trkpt lat="43.48974" lon="6.65528">
        <ele>52.1</ele>
        <time>2025-10-26T07:43:27Z</time>
      </trkpt>
      <trkpt lat="43.48974" lon="6.65529">
        <ele>52.2</ele>
        <time>2025-10-26T07:43:28Z</time>
      </trkpt>
      <trkpt lat="43.48975" lon="6.65529">
        <ele>52.3</ele>
        <time>2025-10-26T07:43:29Z</time>
      </trkpt>
      <trkpt lat="43.48975" lon="6.65529">
        <ele>52.4</ele>
        <time>2025-10-26T07:43:30Z</time>
      </trkpt>
      <trkpt lat="43.48975" lon="6.65529">
        <ele>52.5</ele>
        <time>2025-10-26T07:43:31Z</time>
      </trkpt>
      <trkpt lat="43.48975" lon="6.65529">
        <ele>52.5</ele>
        <time>2025-10-26T07:43:32Z</time>
      </trkpt>
      <trkpt lat="43.48975" lon="6.65529">
        <ele>52.5</ele>
        <time>2025-10-26T07:43:33Z</time>
      </trkpt>
      <trkpt lat="43.48976" lon="6.65529">
        <ele>52.4</ele>
        <time>2025-10-26T07:43:34Z</time>
      </trkpt>
      <trkpt lat="43.48976" lon="6.65529">
        <ele>52.3</ele>
        <time>2025-10-26T07:43:35Z</time>
      </trkpt>
      <trkpt lat="43.48976" lon="6.65529">
        <ele>52.3</ele>
        <time>2025-10-26T07:43:36Z</time>
      </trkpt>
      <trkpt lat="43.48976" lon="6.65529">
        <ele>52.2</ele>
        <time>2025-10-26T07:43:37Z</time>
      </trkpt>
      <trkpt lat="43.48976" lon="6.65529">
        <ele>52.2</ele>
        <time>2025-10-26T07:43:38Z</time>
      </trkpt>
      <trkpt lat="43.48976" lon="6.65529">
        <ele>52.3</ele>
        <time>2025-10-26T07:43:39Z</time>
      </trkpt>
      <trkpt lat="43.48977" lon="6.65529">
        <ele>52.2</ele>
        <time>2025-10-26T07:43:40Z</time>
      </trkpt>
      <trkpt lat="43.48977" lon="6.65529">
        <ele>52.2</ele>
        <time>2025-10-26T07:43:41Z</time>
      </trkpt>
      <trkpt lat="43.48977" lon="6.65529">
        <ele>52.1</ele>
        <time>2025-10-26T07:43:42Z</time>
      </trkpt>
      <trkpt lat="43.48977" lon="6.65529">
        <ele>52.1</ele>
        <time>2025-10-26T07:43:43Z</time>
      </trkpt>
      <trkpt lat="43.48977" lon="6.65529">
        <ele>52</ele>
        <time>2025-10-26T07:43:44Z</time>
      </trkpt>
      <trkpt lat="43.48977" lon="6.65529">
        <ele>51.9</ele>
        <time>2025-10-26T07:43:45Z</time>
      </trkpt>
      <trkpt lat="43.48977" lon="6.65529">
        <ele>51.9</ele>
        <time>2025-10-26T07:43:46Z</time>
      </trkpt>
      <trkpt lat="43.48977" lon="6.65529">
        <ele>51.9</ele>
        <time>2025-10-26T07:43:47Z</time>
      </trkpt>
      <trkpt lat="43.48978" lon="6.65529">
        <ele>51.9</ele>
        <time>2025-10-26T07:43:48Z</time>
      </trkpt>
      <trkpt lat="43.48978" lon="6.65529">
        <ele>51.9</ele>
        <time>2025-10-26T07:43:49Z</time>
      </trkpt>
      <trkpt lat="43.48978" lon="6.65529">
        <ele>51.9</ele>
        <time>2025-10-26T07:43:50Z</time>
      </trkpt>
      <trkpt lat="43.48978" lon="6.65529">
        <ele>52</ele>
        <time>2025-10-26T07:43:51Z</time>
      </trkpt>
      <trkpt lat="43.48978" lon="6.65529">
        <ele>52</ele>
        <time>2025-10-26T07:43:52Z</time>
      </trkpt>
      <trkpt lat="43.48978" lon="6.65529">
        <ele>52.1</ele>
        <time>2025-10-26T07:43:53Z</time>
      </trkpt>
      <trkpt lat="43.48978" lon="6.65529">
        <ele>52.1</ele>
        <time>2025-10-26T07:43:54Z</time>
      </trkpt>
      <trkpt lat="43.48979" lon="6.65529">
        <ele>52.1</ele>
        <time>2025-10-26T07:43:55Z</time>
      </trkpt>
      <trkpt lat="43.48979" lon="6.65529">
        <ele>52.1</ele>
        <time>2025-10-26T07:43:56Z</time>
      </trkpt>
      <trkpt lat="43.48979" lon="6.65529">
        <ele>52.1</ele>
        <time>2025-10-26T07:43:57Z</time>
      </trkpt>
      <trkpt lat="43.48979" lon="6.65529">
        <ele>52.1</ele>
        <time>2025-10-26T07:43:58Z</time>
      </trkpt>
      <trkpt lat="43.48979" lon="6.65529">
        <ele>52.1</ele>
        <time>2025-10-26T07:43:59Z</time>
      </trkpt>
      <trkpt lat="43.48979" lon="6.65529">
        <ele>52.1</ele>
        <time>2025-10-26T07:44:00Z</time>
      </trkpt>
      <trkpt lat="43.48979" lon="6.65529">
        <ele>52.1</ele>
        <time>2025-10-26T07:44:01Z</time>
      </trkpt>
      <trkpt lat="43.48979" lon="6.65529">
        <ele>52.1</ele>
        <time>2025-10-26T07:44:02Z</time>
      </trkpt>
      <trkpt lat="43.48979" lon="6.65529">
        <ele>52.1</ele>
        <time>2025-10-26T07:44:03Z</time>
      </trkpt>
      <trkpt lat="43.48979" lon="6.65529">
        <ele>52.1</ele>
        <time>2025-10-26T07:44:04Z</time>
      </trkpt>
      <trkpt lat="43.48979" lon="6.65529">
        <ele>52</ele>
        <time>2025-10-26T07:44:05Z</time>
      </trkpt>
      <trkpt lat="43.48979" lon="6.65529">
        <ele>52</ele>
        <time>2025-10-26T07:44:06Z</time>
      </trkpt>
      <trkpt lat="43.48979" lon="6.65529">
        <ele>51.9</ele>
        <time>2025-10-26T07:44:07Z</time>
      </trkpt>
      <trkpt lat="43.48979" lon="6.65529">
        <ele>51.9</ele>
        <time>2025-10-26T07:44:08Z</time>
      </trkpt>
      <trkpt lat="43.48979" lon="6.65529">
        <ele>51.9</ele>
        <time>2025-10-26T07:44:09Z</time>
      </trkpt>
      <trkpt lat="43.48979" lon="6.65529">
        <ele>51.8</ele>
        <time>2025-10-26T07:44:10Z</time>
      </trkpt>
      <trkpt lat="43.48979" lon="6.65529">
        <ele>51.8</ele>
        <time>2025-10-26T07:44:11Z</time>
      </trkpt>
      <trkpt lat="43.48979" lon="6.65529">
        <ele>51.8</ele>
        <time>2025-10-26T07:44:12Z</time>
      </trkpt>
      <trkpt lat="43.48979" lon="6.65529">
        <ele>51.8</ele>
        <time>2025-10-26T07:44:13Z</time>
      </trkpt>
      <trkpt lat="43.48979" lon="6.6553">
        <ele>51.9</ele>
        <time>2025-10-26T07:44:14Z</time>
      </trkpt>
      <trkpt lat="43.48979" lon="6.6553">
        <ele>51.9</ele>
        <time>2025-10-26T07:44:15Z</time>
      </trkpt>
      <trkpt lat="43.48979" lon="6.6553">
        <ele>52</ele>
        <time>2025-10-26T07:44:16Z</time>
      </trkpt>
      <trkpt lat="43.48979" lon="6.6553">
        <ele>52</ele>
        <time>2025-10-26T07:44:17Z</time>
      </trkpt>
      <trkpt lat="43.48979" lon="6.6553">
        <ele>52</ele>
        <time>2025-10-26T07:44:18Z</time>
      </trkpt>
      <trkpt lat="43.48979" lon="6.6553">
        <ele>52.1</ele>
        <time>2025-10-26T07:44:19Z</time>
      </trkpt>
      <trkpt lat="43.48979" lon="6.6553">
        <ele>52.1</ele>
        <time>2025-10-26T07:44:20Z</time>
      </trkpt>
      <trkpt lat="43.48979" lon="6.6553">
        <ele>52.1</ele>
        <time>2025-10-26T07:44:21Z</time>
      </trkpt>
      <trkpt lat="43.48979" lon="6.6553">
        <ele>52.2</ele>
        <time>2025-10-26T07:44:22Z</time>
      </trkpt>
      <trkpt lat="43.48979" lon="6.65531">
        <ele>52.1</ele>
        <time>2025-10-26T07:44:23Z</time>
      </trkpt>
      <trkpt lat="43.48979" lon="6.65531">
        <ele>52.1</ele>
        <time>2025-10-26T07:44:24Z</time>
      </trkpt>
      <trkpt lat="43.48979" lon="6.65531">
        <ele>52</ele>
        <time>2025-10-26T07:44:25Z</time>
      </trkpt>
      <trkpt lat="43.48979" lon="6.65531">
        <ele>51.9</ele>
        <time>2025-10-26T07:44:26Z</time>
      </trkpt>
      <trkpt lat="43.48979" lon="6.65531">
        <ele>51.9</ele>
        <time>2025-10-26T07:44:27Z</time>
      </trkpt>
      <trkpt lat="43.4898" lon="6.65531">
        <ele>51.8</ele>
        <time>2025-10-26T07:44:28Z</time>
      </trkpt>
      <trkpt lat="43.48979" lon="6.65531">
        <ele>51.8</ele>
        <time>2025-10-26T07:44:29Z</time>
      </trkpt>
      <trkpt lat="43.48979" lon="6.65531">
        <ele>51.8</ele>
        <time>2025-10-26T07:44:30Z</time>
      </trkpt>
      <trkpt lat="43.48979" lon="6.65531">
        <ele>51.7</ele>
        <time>2025-10-26T07:44:31Z</time>
      </trkpt>
      <trkpt lat="43.4898" lon="6.65531">
        <ele>51.7</ele>
        <time>2025-10-26T07:44:32Z</time>
      </trkpt>
      <trkpt lat="43.4898" lon="6.65531">
        <ele>51.6</ele>
        <time>2025-10-26T07:44:33Z</time>
      </trkpt>
      <trkpt lat="43.4898" lon="6.65531">
        <ele>51.6</ele>
        <time>2025-10-26T07:44:34Z</time>
      </trkpt>
      <trkpt lat="43.4898" lon="6.6553">
        <ele>51.6</ele>
        <time>2025-10-26T07:44:35Z</time>
      </trkpt>
      <trkpt lat="43.4898" lon="6.6553">
        <ele>51.6</ele>
        <time>2025-10-26T07:44:36Z</time>
      </trkpt>
      <trkpt lat="43.4898" lon="6.6553">
        <ele>51.6</ele>
        <time>2025-10-26T07:44:37Z</time>
      </trkpt>
      <trkpt lat="43.4898" lon="6.6553">
        <ele>51.6</ele>
        <time>2025-10-26T07:44:38Z</time>
      </trkpt>
      <trkpt lat="43.4898" lon="6.6553">
        <ele>51.6</ele>
        <time>2025-10-26T07:44:39Z</time>
      </trkpt>
      <trkpt lat="43.4898" lon="6.6553">
        <ele>51.6</ele>
        <time>2025-10-26T07:44:40Z</time>
      </trkpt>
      <trkpt lat="43.4898" lon="6.6553">
        <ele>51.5</ele>
        <time>2025-10-26T07:44:41Z</time>
      </trkpt>
      <trkpt lat="43.4898" lon="6.6553">
        <ele>51.6</ele>
        <time>2025-10-26T07:44:42Z</time>
      </trkpt>
      <trkpt lat="43.4898" lon="6.6553">
        <ele>51.6</ele>
        <time>2025-10-26T07:44:43Z</time>
      </trkpt>
      <trkpt lat="43.4898" lon="6.6553">
        <ele>51.6</ele>
        <time>2025-10-26T07:44:44Z</time>
      </trkpt>
      <trkpt lat="43.4898" lon="6.6553">
        <ele>51.6</ele>
        <time>2025-10-26T07:44:45Z</time>
      </trkpt>
      <trkpt lat="43.4898" lon="6.6553">
        <ele>51.5</ele>
        <time>2025-10-26T07:44:46Z</time>
      </trkpt>
      <trkpt lat="43.4898" lon="6.6553">
        <ele>51.7</ele>
        <time>2025-10-26T07:44:47Z</time>
      </trkpt>
      <trkpt lat="43.4898" lon="6.6553">
        <ele>51.6</ele>
        <time>2025-10-26T07:44:48Z</time>
      </trkpt>
      <trkpt lat="43.4898" lon="6.6553">
        <ele>51.6</ele>
        <time>2025-10-26T07:44:49Z</time>
      </trkpt>
      <trkpt lat="43.4898" lon="6.6553">
        <ele>51.7</ele>
        <time>2025-10-26T07:44:50Z</time>
      </trkpt>
      <trkpt lat="43.4898" lon="6.6553">
        <ele>51.8</ele>
        <time>2025-10-26T07:44:51Z</time>
      </trkpt>
      <trkpt lat="43.4898" lon="6.6553">
        <ele>51.8</ele>
        <time>2025-10-26T07:44:52Z</time>
      </trkpt>
      <trkpt lat="43.4898" lon="6.6553">
        <ele>51.8</ele>
        <time>2025-10-26T07:44:53Z</time>
      </trkpt>
      <trkpt lat="43.4898" lon="6.6553">
        <ele>51.9</ele>
        <time>2025-10-26T07:44:54Z</time>
      </trkpt>
      <trkpt lat="43.4898" lon="6.6553">
        <ele>51.9</ele>
        <time>2025-10-26T07:44:55Z</time>
      </trkpt>
      <trkpt lat="43.4898" lon="6.6553">
        <ele>51.9</ele>
        <time>2025-10-26T07:44:56Z</time>
      </trkpt>
      <trkpt lat="43.4898" lon="6.6553">
        <ele>51.9</ele>
        <time>2025-10-26T07:44:57Z</time>
      </trkpt>
      <trkpt lat="43.4898" lon="6.65529">
        <ele>51.9</ele>
        <time>2025-10-26T07:44:58Z</time>
      </trkpt>
      <trkpt lat="43.4898" lon="6.6553">
        <ele>51.9</ele>
        <time>2025-10-26T07:44:59Z</time>
      </trkpt>
      <trkpt lat="43.4898" lon="6.6553">
        <ele>51.9</ele>
        <time>2025-10-26T07:45:00Z</time>
      </trkpt>
      <trkpt lat="43.4898" lon="6.65529">
        <ele>51.9</ele>
        <time>2025-10-26T07:45:01Z</time>
      </trkpt>
      <trkpt lat="43.4898" lon="6.65529">
        <ele>52</ele>
        <time>2025-10-26T07:45:02Z</time>
      </trkpt>
      <trkpt lat="43.4898" lon="6.65529">
        <ele>52.1</ele>
        <time>2025-10-26T07:45:03Z</time>
      </trkpt>
      <trkpt lat="43.4898" lon="6.65529">
        <ele>52.1</ele>
        <time>2025-10-26T07:45:04Z</time>
      </trkpt>
      <trkpt lat="43.4898" lon="6.6553">
        <ele>52</ele>
        <time>2025-10-26T07:45:05Z</time>
      </trkpt>
      <trkpt lat="43.4898" lon="6.6553">
        <ele>52</ele>
        <time>2025-10-26T07:45:06Z</time>
      </trkpt>
      <trkpt lat="43.4898" lon="6.6553">
        <ele>52</ele>
        <time>2025-10-26T07:45:07Z</time>
      </trkpt>
      <trkpt lat="43.4898" lon="6.6553">
        <ele>51.9</ele>
        <time>2025-10-26T07:45:08Z</time>
      </trkpt>
      <trkpt lat="43.4898" lon="6.6553">
        <ele>51.9</ele>
        <time>2025-10-26T07:45:09Z</time>
      </trkpt>
      <trkpt lat="43.4898" lon="6.6553">
        <ele>51.9</ele>
        <time>2025-10-26T07:45:10Z</time>
      </trkpt>
      <trkpt lat="43.4898" lon="6.6553">
        <ele>51.9</ele>
        <time>2025-10-26T07:45:11Z</time>
      </trkpt>
      <trkpt lat="43.4898" lon="6.6553">
        <ele>51.9</ele>
        <time>2025-10-26T07:45:12Z</time>
      </trkpt>
      <trkpt lat="43.4898" lon="6.6553">
        <ele>51.8</ele>
        <time>2025-10-26T07:45:13Z</time>
      </trkpt>
      <trkpt lat="43.4898" lon="6.6553">
        <ele>51.9</ele>
        <time>2025-10-26T07:45:14Z</time>
      </trkpt>
      <trkpt lat="43.4898" lon="6.6553">
        <ele>51.8</ele>
        <time>2025-10-26T07:45:15Z</time>
      </trkpt>
      <trkpt lat="43.4898" lon="6.65531">
        <ele>51.7</ele>
        <time>2025-10-26T07:45:16Z</time>
      </trkpt>
      <trkpt lat="43.4898" lon="6.65531">
        <ele>51.7</ele>
        <time>2025-10-26T07:45:17Z</time>
      </trkpt>
      <trkpt lat="43.4898" lon="6.65531">
        <ele>51.7</ele>
        <time>2025-10-26T07:45:18Z</time>
      </trkpt>
      <trkpt lat="43.4898" lon="6.65531">
        <ele>51.7</ele>
        <time>2025-10-26T07:45:19Z</time>
      </trkpt>
      <trkpt lat="43.4898" lon="6.65531">
        <ele>51.8</ele>
        <time>2025-10-26T07:45:20Z</time>
      </trkpt>
      <trkpt lat="43.48979" lon="6.65531">
        <ele>51.7</ele>
        <time>2025-10-26T07:45:21Z</time>
      </trkpt>
      <trkpt lat="43.48979" lon="6.65531">
        <ele>51.7</ele>
        <time>2025-10-26T07:45:22Z</time>
      </trkpt>
      <trkpt lat="43.48979" lon="6.65531">
        <ele>51.7</ele>
        <time>2025-10-26T07:45:23Z</time>
      </trkpt>
      <trkpt lat="43.48979" lon="6.65531">
        <ele>51.8</ele>
        <time>2025-10-26T07:45:24Z</time>
      </trkpt>
      <trkpt lat="43.48979" lon="6.65531">
        <ele>51.9</ele>
        <time>2025-10-26T07:45:25Z</time>
      </trkpt>
      <trkpt lat="43.48979" lon="6.65531">
        <ele>51.9</ele>
        <time>2025-10-26T07:45:26Z</time>
      </trkpt>
      <trkpt lat="43.48979" lon="6.65532">
        <ele>52</ele>
        <time>2025-10-26T07:45:27Z</time>
      </trkpt>
      <trkpt lat="43.4898" lon="6.65532">
        <ele>52</ele>
        <time>2025-10-26T07:45:28Z</time>
      </trkpt>
      <trkpt lat="43.4898" lon="6.65532">
        <ele>51.9</ele>
        <time>2025-10-26T07:45:29Z</time>
      </trkpt>
      <trkpt lat="43.4898" lon="6.65532">
        <ele>51.9</ele>
        <time>2025-10-26T07:45:30Z</time>
      </trkpt>
      <trkpt lat="43.4898" lon="6.65532">
        <ele>51.9</ele>
        <time>2025-10-26T07:45:31Z</time>
      </trkpt>
      <trkpt lat="43.4898" lon="6.65532">
        <ele>51.8</ele>
        <time>2025-10-26T07:45:32Z</time>
      </trkpt>
      <trkpt lat="43.4898" lon="6.65532">
        <ele>51.8</ele>
        <time>2025-10-26T07:45:33Z</time>
      </trkpt>
      <trkpt lat="43.4898" lon="6.65532">
        <ele>51.8</ele>
        <time>2025-10-26T07:45:34Z</time>
      </trkpt>
      <trkpt lat="43.4898" lon="6.65532">
        <ele>51.8</ele>
        <time>2025-10-26T07:45:35Z</time>
      </trkpt>
      <trkpt lat="43.4898" lon="6.65532">
        <ele>51.8</ele>
        <time>2025-10-26T07:45:36Z</time>
      </trkpt>
      <trkpt lat="43.4898" lon="6.65532">
        <ele>51.9</ele>
        <time>2025-10-26T07:45:37Z</time>
      </trkpt>
      <trkpt lat="43.48979" lon="6.65532">
        <ele>51.9</ele>
        <time>2025-10-26T07:45:38Z</time>
      </trkpt>
      <trkpt lat="43.48979" lon="6.65532">
        <ele>51.9</ele>
        <time>2025-10-26T07:45:39Z</time>
      </trkpt>
      <trkpt lat="43.48979" lon="6.65532">
        <ele>51.9</ele>
        <time>2025-10-26T07:45:40Z</time>
      </trkpt>
      <trkpt lat="43.48979" lon="6.65532">
        <ele>52</ele>
        <time>2025-10-26T07:45:41Z</time>
      </trkpt>
      <trkpt lat="43.48979" lon="6.65532">
        <ele>52</ele>
        <time>2025-10-26T07:45:42Z</time>
      </trkpt>
      <trkpt lat="43.48979" lon="6.65532">
        <ele>52</ele>
        <time>2025-10-26T07:45:43Z</time>
      </trkpt>
      <trkpt lat="43.48979" lon="6.65532">
        <ele>52</ele>
        <time>2025-10-26T07:45:44Z</time>
      </trkpt>
      <trkpt lat="43.48979" lon="6.65532">
        <ele>52</ele>
        <time>2025-10-26T07:45:45Z</time>
      </trkpt>
      <trkpt lat="43.48979" lon="6.65532">
        <ele>52</ele>
        <time>2025-10-26T07:45:46Z</time>
      </trkpt>
      <trkpt lat="43.4898" lon="6.65532">
        <ele>51.9</ele>
        <time>2025-10-26T07:45:47Z</time>
      </trkpt>
      <trkpt lat="43.48979" lon="6.65532">
        <ele>51.9</ele>
        <time>2025-10-26T07:45:48Z</time>
      </trkpt>
      <trkpt lat="43.48979" lon="6.65531">
        <ele>51.8</ele>
        <time>2025-10-26T07:45:49Z</time>
      </trkpt>
      <trkpt lat="43.48979" lon="6.65532">
        <ele>51.8</ele>
        <time>2025-10-26T07:45:50Z</time>
      </trkpt>
      <trkpt lat="43.48979" lon="6.65532">
        <ele>51.9</ele>
        <time>2025-10-26T07:45:51Z</time>
      </trkpt>
      <trkpt lat="43.48979" lon="6.65532">
        <ele>51.9</ele>
        <time>2025-10-26T07:45:52Z</time>
      </trkpt>
      <trkpt lat="43.48979" lon="6.65532">
        <ele>51.9</ele>
        <time>2025-10-26T07:45:53Z</time>
      </trkpt>
      <trkpt lat="43.48979" lon="6.65532">
        <ele>51.9</ele>
        <time>2025-10-26T07:45:54Z</time>
      </trkpt>
      <trkpt lat="43.48979" lon="6.65531">
        <ele>51.8</ele>
        <time>2025-10-26T07:45:55Z</time>
      </trkpt>
      <trkpt lat="43.48979" lon="6.65532">
        <ele>51.8</ele>
        <time>2025-10-26T07:45:56Z</time>
      </trkpt>
      <trkpt lat="43.48979" lon="6.65532">
        <ele>51.7</ele>
        <time>2025-10-26T07:45:57Z</time>
      </trkpt>
      <trkpt lat="43.48979" lon="6.65532">
        <ele>51.6</ele>
        <time>2025-10-26T07:45:58Z</time>
      </trkpt>
      <trkpt lat="43.48979" lon="6.65532">
        <ele>51.7</ele>
        <time>2025-10-26T07:45:59Z</time>
      </trkpt>
      <trkpt lat="43.48979" lon="6.65533">
        <ele>51.7</ele>
        <time>2025-10-26T07:46:00Z</time>
      </trkpt>
      <trkpt lat="43.48978" lon="6.65534">
        <ele>51.7</ele>
        <time>2025-10-26T07:46:01Z</time>
      </trkpt>
      <trkpt lat="43.48977" lon="6.65534">
        <ele>51.7</ele>
        <time>2025-10-26T07:46:02Z</time>
      </trkpt>
      <trkpt lat="43.48976" lon="6.65535">
        <ele>51.8</ele>
        <time>2025-10-26T07:46:03Z</time>
      </trkpt>
      <trkpt lat="43.48975" lon="6.65535">
        <ele>51.8</ele>
        <time>2025-10-26T07:46:04Z</time>
      </trkpt>
      <trkpt lat="43.48975" lon="6.65536">
        <ele>51.8</ele>
        <time>2025-10-26T07:46:05Z</time>
      </trkpt>
      <trkpt lat="43.48976" lon="6.65536">
        <ele>51.8</ele>
        <time>2025-10-26T07:46:06Z</time>
      </trkpt>
      <trkpt lat="43.48976" lon="6.65537">
        <ele>51.7</ele>
        <time>2025-10-26T07:46:07Z</time>
      </trkpt>
      <trkpt lat="43.48976" lon="6.65537">
        <ele>51.5</ele>
        <time>2025-10-26T07:46:08Z</time>
      </trkpt>
      <trkpt lat="43.48977" lon="6.65537">
        <ele>51.4</ele>
        <time>2025-10-26T07:46:09Z</time>
      </trkpt>
      <trkpt lat="43.48978" lon="6.65538">
        <ele>51.4</ele>
        <time>2025-10-26T07:46:10Z</time>
      </trkpt>
      <trkpt lat="43.48978" lon="6.65538">
        <ele>51.3</ele>
        <time>2025-10-26T07:46:11Z</time>
      </trkpt>
      <trkpt lat="43.48978" lon="6.65539">
        <ele>51.2</ele>
        <time>2025-10-26T07:46:12Z</time>
      </trkpt>
      <trkpt lat="43.48978" lon="6.6554">
        <ele>51.2</ele>
        <time>2025-10-26T07:46:13Z</time>
      </trkpt>
      <trkpt lat="43.48979" lon="6.65541">
        <ele>51.2</ele>
        <time>2025-10-26T07:46:14Z</time>
      </trkpt>
      <trkpt lat="43.48979" lon="6.65542">
        <ele>51</ele>
        <time>2025-10-26T07:46:15Z</time>
      </trkpt>
      <trkpt lat="43.48979" lon="6.65542">
        <ele>50.9</ele>
        <time>2025-10-26T07:46:16Z</time>
      </trkpt>
      <trkpt lat="43.4898" lon="6.65543">
        <ele>50.8</ele>
        <time>2025-10-26T07:46:17Z</time>
      </trkpt>
      <trkpt lat="43.4898" lon="6.65544">
        <ele>50.7</ele>
        <time>2025-10-26T07:46:18Z</time>
      </trkpt>
      <trkpt lat="43.48981" lon="6.65545">
        <ele>50.6</ele>
        <time>2025-10-26T07:46:19Z</time>
      </trkpt>
      <trkpt lat="43.48981" lon="6.65546">
        <ele>50.4</ele>
        <time>2025-10-26T07:46:20Z</time>
      </trkpt>
      <trkpt lat="43.48981" lon="6.65546">
        <ele>50.3</ele>
        <time>2025-10-26T07:46:21Z</time>
      </trkpt>
      <trkpt lat="43.48981" lon="6.65547">
        <ele>50</ele>
        <time>2025-10-26T07:46:22Z</time>
      </trkpt>
      <trkpt lat="43.48981" lon="6.65547">
        <ele>49.8</ele>
        <time>2025-10-26T07:46:23Z</time>
      </trkpt>
      <trkpt lat="43.48981" lon="6.65547">
        <ele>49.7</ele>
        <time>2025-10-26T07:46:24Z</time>
      </trkpt>
      <trkpt lat="43.48982" lon="6.65548">
        <ele>49.5</ele>
        <time>2025-10-26T07:46:25Z</time>
      </trkpt>
      <trkpt lat="43.48982" lon="6.65549">
        <ele>49.3</ele>
        <time>2025-10-26T07:46:26Z</time>
      </trkpt>
      <trkpt lat="43.48982" lon="6.6555">
        <ele>49.4</ele>
        <time>2025-10-26T07:46:27Z</time>
      </trkpt>
      <trkpt lat="43.48983" lon="6.65552">
        <ele>49.4</ele>
        <time>2025-10-26T07:46:28Z</time>
      </trkpt>
      <trkpt lat="43.48983" lon="6.65552">
        <ele>49.3</ele>
        <time>2025-10-26T07:46:29Z</time>
      </trkpt>
      <trkpt lat="43.48983" lon="6.65553">
        <ele>49.2</ele>
        <time>2025-10-26T07:46:30Z</time>
      </trkpt>
      <trkpt lat="43.48983" lon="6.65554">
        <ele>49.2</ele>
        <time>2025-10-26T07:46:31Z</time>
      </trkpt>
      <trkpt lat="43.48984" lon="6.65555">
        <ele>49.1</ele>
        <time>2025-10-26T07:46:32Z</time>
      </trkpt>
      <trkpt lat="43.48984" lon="6.65556">
        <ele>49</ele>
        <time>2025-10-26T07:46:33Z</time>
      </trkpt>
      <trkpt lat="43.48984" lon="6.65556">
        <ele>48.9</ele>
        <time>2025-10-26T07:46:34Z</time>
      </trkpt>
      <trkpt lat="43.48985" lon="6.65556">
        <ele>48.8</ele>
        <time>2025-10-26T07:46:35Z</time>
      </trkpt>
      <trkpt lat="43.48985" lon="6.65557">
        <ele>48.8</ele>
        <time>2025-10-26T07:46:36Z</time>
      </trkpt>
      <trkpt lat="43.48985" lon="6.65557">
        <ele>48.8</ele>
        <time>2025-10-26T07:46:37Z</time>
      </trkpt>
      <trkpt lat="43.48985" lon="6.65558">
        <ele>48.8</ele>
        <time>2025-10-26T07:46:38Z</time>
      </trkpt>
      <trkpt lat="43.48986" lon="6.65559">
        <ele>48.8</ele>
        <time>2025-10-26T07:46:39Z</time>
      </trkpt>
      <trkpt lat="43.48987" lon="6.6556">
        <ele>48.7</ele>
        <time>2025-10-26T07:46:40Z</time>
      </trkpt>
      <trkpt lat="43.48987" lon="6.6556">
        <ele>48.8</ele>
        <time>2025-10-26T07:46:41Z</time>
      </trkpt>
      <trkpt lat="43.48988" lon="6.6556">
        <ele>48.8</ele>
        <time>2025-10-26T07:46:42Z</time>
      </trkpt>
      <trkpt lat="43.48989" lon="6.6556">
        <ele>48.8</ele>
        <time>2025-10-26T07:46:43Z</time>
      </trkpt>
      <trkpt lat="43.4899" lon="6.65561">
        <ele>48.8</ele>
        <time>2025-10-26T07:46:44Z</time>
      </trkpt>
      <trkpt lat="43.48991" lon="6.65561">
        <ele>48.8</ele>
        <time>2025-10-26T07:46:45Z</time>
      </trkpt>
      <trkpt lat="43.48991" lon="6.65561">
        <ele>48.8</ele>
        <time>2025-10-26T07:46:46Z</time>
      </trkpt>
      <trkpt lat="43.48992" lon="6.65562">
        <ele>48.9</ele>
        <time>2025-10-26T07:46:47Z</time>
      </trkpt>
      <trkpt lat="43.48993" lon="6.65562">
        <ele>49</ele>
        <time>2025-10-26T07:46:48Z</time>
      </trkpt>
      <trkpt lat="43.48994" lon="6.6556">
        <ele>49.1</ele>
        <time>2025-10-26T07:46:49Z</time>
      </trkpt>
      <trkpt lat="43.48995" lon="6.6556">
        <ele>49.3</ele>
        <time>2025-10-26T07:46:50Z</time>
      </trkpt>
      <trkpt lat="43.48996" lon="6.6556">
        <ele>49.4</ele>
        <time>2025-10-26T07:46:51Z</time>
      </trkpt>
      <trkpt lat="43.48997" lon="6.65559">
        <ele>49.4</ele>
        <time>2025-10-26T07:46:52Z</time>
      </trkpt>
      <trkpt lat="43.48998" lon="6.65558">
        <ele>49.5</ele>
        <time>2025-10-26T07:46:53Z</time>
      </trkpt>
      <trkpt lat="43.48999" lon="6.65558">
        <ele>49.5</ele>
        <time>2025-10-26T07:46:54Z</time>
      </trkpt>
      <trkpt lat="43.48999" lon="6.65557">
        <ele>49.5</ele>
        <time>2025-10-26T07:46:55Z</time>
      </trkpt>
      <trkpt lat="43.49" lon="6.65557">
        <ele>49.5</ele>
        <time>2025-10-26T07:46:56Z</time>
      </trkpt>
      <trkpt lat="43.49" lon="6.65557">
        <ele>49.5</ele>
        <time>2025-10-26T07:46:57Z</time>
      </trkpt>
      <trkpt lat="43.49001" lon="6.65556">
        <ele>49.6</ele>
        <time>2025-10-26T07:46:58Z</time>
      </trkpt>
      <trkpt lat="43.49002" lon="6.65556">
        <ele>49.6</ele>
        <time>2025-10-26T07:46:59Z</time>
      </trkpt>
      <trkpt lat="43.49002" lon="6.65555">
        <ele>49.7</ele>
        <time>2025-10-26T07:47:00Z</time>
      </trkpt>
      <trkpt lat="43.49002" lon="6.65555">
        <ele>49.8</ele>
        <time>2025-10-26T07:47:01Z</time>
      </trkpt>
      <trkpt lat="43.49003" lon="6.65555">
        <ele>49.8</ele>
        <time>2025-10-26T07:47:02Z</time>
      </trkpt>
      <trkpt lat="43.49003" lon="6.65555">
        <ele>49.9</ele>
        <time>2025-10-26T07:47:03Z</time>
      </trkpt>
      <trkpt lat="43.49004" lon="6.65555">
        <ele>49.9</ele>
        <time>2025-10-26T07:47:04Z</time>
      </trkpt>
      <trkpt lat="43.49005" lon="6.65555">
        <ele>50.1</ele>
        <time>2025-10-26T07:47:05Z</time>
      </trkpt>
      <trkpt lat="43.49005" lon="6.65555">
        <ele>50</ele>
        <time>2025-10-26T07:47:06Z</time>
      </trkpt>
      <trkpt lat="43.49006" lon="6.65554">
        <ele>50</ele>
        <time>2025-10-26T07:47:07Z</time>
      </trkpt>
      <trkpt lat="43.49006" lon="6.65554">
        <ele>50.1</ele>
        <time>2025-10-26T07:47:08Z</time>
      </trkpt>
      <trkpt lat="43.49007" lon="6.65553">
        <ele>50.2</ele>
        <time>2025-10-26T07:47:09Z</time>
      </trkpt>
      <trkpt lat="43.49007" lon="6.65554">
        <ele>50.4</ele>
        <time>2025-10-26T07:47:10Z</time>
      </trkpt>
      <trkpt lat="43.49007" lon="6.65553">
        <ele>50.4</ele>
        <time>2025-10-26T07:47:11Z</time>
      </trkpt>
      <trkpt lat="43.49007" lon="6.65554">
        <ele>50.5</ele>
        <time>2025-10-26T07:47:12Z</time>
      </trkpt>
      <trkpt lat="43.49007" lon="6.65554">
        <ele>50.6</ele>
        <time>2025-10-26T07:47:13Z</time>
      </trkpt>
      <trkpt lat="43.49007" lon="6.65554">
        <ele>50.7</ele>
        <time>2025-10-26T07:47:14Z</time>
      </trkpt>
      <trkpt lat="43.49007" lon="6.65554">
        <ele>50.8</ele>
        <time>2025-10-26T07:47:15Z</time>
      </trkpt>
      <trkpt lat="43.49007" lon="6.65554">
        <ele>50.9</ele>
        <time>2025-10-26T07:47:16Z</time>
      </trkpt>
      <trkpt lat="43.49008" lon="6.65554">
        <ele>50.9</ele>
        <time>2025-10-26T07:47:17Z</time>
      </trkpt>
      <trkpt lat="43.49008" lon="6.65554">
        <ele>50.9</ele>
        <time>2025-10-26T07:47:18Z</time>
      </trkpt>
      <trkpt lat="43.49009" lon="6.65553">
        <ele>50.9</ele>
        <time>2025-10-26T07:47:19Z</time>
      </trkpt>
      <trkpt lat="43.4901" lon="6.65553">
        <ele>51</ele>
        <time>2025-10-26T07:47:20Z</time>
      </trkpt>
      <trkpt lat="43.49011" lon="6.65552">
        <ele>51.1</ele>
        <time>2025-10-26T07:47:21Z</time>
      </trkpt>
      <trkpt lat="43.49011" lon="6.65552">
        <ele>51.2</ele>
        <time>2025-10-26T07:47:22Z</time>
      </trkpt>
      <trkpt lat="43.49011" lon="6.65552">
        <ele>51.3</ele>
        <time>2025-10-26T07:47:23Z</time>
      </trkpt>
      <trkpt lat="43.49012" lon="6.65552">
        <ele>51.4</ele>
        <time>2025-10-26T07:47:24Z</time>
      </trkpt>
      <trkpt lat="43.49012" lon="6.65552">
        <ele>51.5</ele>
        <time>2025-10-26T07:47:25Z</time>
      </trkpt>
      <trkpt lat="43.49012" lon="6.65553">
        <ele>51.6</ele>
        <time>2025-10-26T07:47:26Z</time>
      </trkpt>
      <trkpt lat="43.49013" lon="6.65553">
        <ele>51.7</ele>
        <time>2025-10-26T07:47:27Z</time>
      </trkpt>
      <trkpt lat="43.49013" lon="6.65552">
        <ele>51.7</ele>
        <time>2025-10-26T07:47:28Z</time>
      </trkpt>
      <trkpt lat="43.49013" lon="6.65551">
        <ele>51.8</ele>
        <time>2025-10-26T07:47:29Z</time>
      </trkpt>
      <trkpt lat="43.49014" lon="6.65551">
        <ele>52</ele>
        <time>2025-10-26T07:47:30Z</time>
      </trkpt>
      <trkpt lat="43.49014" lon="6.6555">
        <ele>52</ele>
        <time>2025-10-26T07:47:31Z</time>
      </trkpt>
      <trkpt lat="43.49014" lon="6.65549">
        <ele>52.1</ele>
        <time>2025-10-26T07:47:32Z</time>
      </trkpt>
      <trkpt lat="43.49015" lon="6.65549">
        <ele>52.2</ele>
        <time>2025-10-26T07:47:33Z</time>
      </trkpt>
      <trkpt lat="43.49016" lon="6.65548">
        <ele>52.4</ele>
        <time>2025-10-26T07:47:34Z</time>
      </trkpt>
      <trkpt lat="43.49017" lon="6.65548">
        <ele>52.6</ele>
        <time>2025-10-26T07:47:35Z</time>
      </trkpt>
      <trkpt lat="43.49017" lon="6.65548">
        <ele>52.7</ele>
        <time>2025-10-26T07:47:36Z</time>
      </trkpt>
      <trkpt lat="43.49018" lon="6.65548">
        <ele>52.8</ele>
        <time>2025-10-26T07:47:37Z</time>
      </trkpt>
      <trkpt lat="43.49019" lon="6.65548">
        <ele>52.9</ele>
        <time>2025-10-26T07:47:38Z</time>
      </trkpt>
      <trkpt lat="43.4902" lon="6.65547">
        <ele>53.1</ele>
        <time>2025-10-26T07:47:39Z</time>
      </trkpt>
      <trkpt lat="43.49021" lon="6.65546">
        <ele>53.1</ele>
        <time>2025-10-26T07:47:40Z</time>
      </trkpt>
      <trkpt lat="43.49021" lon="6.65545">
        <ele>53.5</ele>
        <time>2025-10-26T07:47:41Z</time>
      </trkpt>
      <trkpt lat="43.49021" lon="6.65545">
        <ele>53.7</ele>
        <time>2025-10-26T07:47:42Z</time>
      </trkpt>
      <trkpt lat="43.49021" lon="6.65545">
        <ele>53.9</ele>
        <time>2025-10-26T07:47:43Z</time>
      </trkpt>
      <trkpt lat="43.49021" lon="6.65545">
        <ele>54.1</ele>
        <time>2025-10-26T07:47:44Z</time>
      </trkpt>
      <trkpt lat="43.49021" lon="6.65545">
        <ele>54.1</ele>
        <time>2025-10-26T07:47:45Z</time>
      </trkpt>
      <trkpt lat="43.49022" lon="6.65545">
        <ele>54.2</ele>
        <time>2025-10-26T07:47:46Z</time>
      </trkpt>
      <trkpt lat="43.49022" lon="6.65544">
        <ele>54.4</ele>
        <time>2025-10-26T07:47:47Z</time>
      </trkpt>
      <trkpt lat="43.49023" lon="6.65544">
        <ele>54.4</ele>
        <time>2025-10-26T07:47:48Z</time>
      </trkpt>
      <trkpt lat="43.49024" lon="6.65544">
        <ele>54.4</ele>
        <time>2025-10-26T07:47:49Z</time>
      </trkpt>
      <trkpt lat="43.49024" lon="6.65544">
        <ele>54.5</ele>
        <time>2025-10-26T07:47:50Z</time>
      </trkpt>
      <trkpt lat="43.49025" lon="6.65544">
        <ele>54.7</ele>
        <time>2025-10-26T07:47:51Z</time>
      </trkpt>
      <trkpt lat="43.49026" lon="6.65544">
        <ele>54.8</ele>
        <time>2025-10-26T07:47:52Z</time>
      </trkpt>
      <trkpt lat="43.49027" lon="6.65544">
        <ele>55</ele>
        <time>2025-10-26T07:47:53Z</time>
      </trkpt>
      <trkpt lat="43.49027" lon="6.65544">
        <ele>55.1</ele>
        <time>2025-10-26T07:47:54Z</time>
      </trkpt>
      <trkpt lat="43.49028" lon="6.65544">
        <ele>55.1</ele>
        <time>2025-10-26T07:47:55Z</time>
      </trkpt>
      <trkpt lat="43.49029" lon="6.65543">
        <ele>55.2</ele>
        <time>2025-10-26T07:47:56Z</time>
      </trkpt>
      <trkpt lat="43.49029" lon="6.65543">
        <ele>55.3</ele>
        <time>2025-10-26T07:47:57Z</time>
      </trkpt>
      <trkpt lat="43.4903" lon="6.65543">
        <ele>55.4</ele>
        <time>2025-10-26T07:47:58Z</time>
      </trkpt>
      <trkpt lat="43.49031" lon="6.65543">
        <ele>55.5</ele>
        <time>2025-10-26T07:47:59Z</time>
      </trkpt>
      <trkpt lat="43.49032" lon="6.65543">
        <ele>55.7</ele>
        <time>2025-10-26T07:48:00Z</time>
      </trkpt>
      <trkpt lat="43.49033" lon="6.65542">
        <ele>55.9</ele>
        <time>2025-10-26T07:48:01Z</time>
      </trkpt>
      <trkpt lat="43.49033" lon="6.65542">
        <ele>56</ele>
        <time>2025-10-26T07:48:02Z</time>
      </trkpt>
      <trkpt lat="43.49034" lon="6.65542">
        <ele>56.2</ele>
        <time>2025-10-26T07:48:03Z</time>
      </trkpt>
      <trkpt lat="43.49035" lon="6.65542">
        <ele>56.5</ele>
        <time>2025-10-26T07:48:04Z</time>
      </trkpt>
      <trkpt lat="43.49035" lon="6.65542">
        <ele>56.8</ele>
        <time>2025-10-26T07:48:05Z</time>
      </trkpt>
      <trkpt lat="43.49036" lon="6.65542">
        <ele>57</ele>
        <time>2025-10-26T07:48:06Z</time>
      </trkpt>
      <trkpt lat="43.49037" lon="6.65542">
        <ele>57.3</ele>
        <time>2025-10-26T07:48:07Z</time>
      </trkpt>
      <trkpt lat="43.49037" lon="6.65542">
        <ele>57.5</ele>
        <time>2025-10-26T07:48:08Z</time>
      </trkpt>
      <trkpt lat="43.49038" lon="6.65542">
        <ele>57.7</ele>
        <time>2025-10-26T07:48:09Z</time>
      </trkpt>
      <trkpt lat="43.49039" lon="6.65543">
        <ele>57.8</ele>
        <time>2025-10-26T07:48:10Z</time>
      </trkpt>
      <trkpt lat="43.4904" lon="6.65543">
        <ele>58</ele>
        <time>2025-10-26T07:48:11Z</time>
      </trkpt>
      <trkpt lat="43.4904" lon="6.65543">
        <ele>58.2</ele>
        <time>2025-10-26T07:48:12Z</time>
      </trkpt>
      <trkpt lat="43.49041" lon="6.65543">
        <ele>58.4</ele>
        <time>2025-10-26T07:48:13Z</time>
      </trkpt>
      <trkpt lat="43.49042" lon="6.65543">
        <ele>58.6</ele>
        <time>2025-10-26T07:48:14Z</time>
      </trkpt>
      <trkpt lat="43.49043" lon="6.65543">
        <ele>58.8</ele>
        <time>2025-10-26T07:48:15Z</time>
      </trkpt>
      <trkpt lat="43.49043" lon="6.65543">
        <ele>58.9</ele>
        <time>2025-10-26T07:48:16Z</time>
      </trkpt>
      <trkpt lat="43.49044" lon="6.65543">
        <ele>59</ele>
        <time>2025-10-26T07:48:17Z</time>
      </trkpt>
      <trkpt lat="43.49045" lon="6.65544">
        <ele>59</ele>
        <time>2025-10-26T07:48:18Z</time>
      </trkpt>
      <trkpt lat="43.49046" lon="6.65543">
        <ele>59.1</ele>
        <time>2025-10-26T07:48:19Z</time>
      </trkpt>
      <trkpt lat="43.49047" lon="6.65543">
        <ele>59.1</ele>
        <time>2025-10-26T07:48:20Z</time>
      </trkpt>
      <trkpt lat="43.49047" lon="6.65544">
        <ele>59.1</ele>
        <time>2025-10-26T07:48:21Z</time>
      </trkpt>
      <trkpt lat="43.49048" lon="6.65544">
        <ele>59.2</ele>
        <time>2025-10-26T07:48:22Z</time>
      </trkpt>
      <trkpt lat="43.49049" lon="6.65544">
        <ele>59.2</ele>
        <time>2025-10-26T07:48:23Z</time>
      </trkpt>
      <trkpt lat="43.49049" lon="6.65544">
        <ele>59.3</ele>
        <time>2025-10-26T07:48:24Z</time>
      </trkpt>
      <trkpt lat="43.4905" lon="6.65544">
        <ele>59.4</ele>
        <time>2025-10-26T07:48:25Z</time>
      </trkpt>
      <trkpt lat="43.49051" lon="6.65545">
        <ele>59.5</ele>
        <time>2025-10-26T07:48:26Z</time>
      </trkpt>
      <trkpt lat="43.49052" lon="6.65544">
        <ele>59.7</ele>
        <time>2025-10-26T07:48:27Z</time>
      </trkpt>
      <trkpt lat="43.49052" lon="6.65544">
        <ele>59.8</ele>
        <time>2025-10-26T07:48:28Z</time>
      </trkpt>
      <trkpt lat="43.49053" lon="6.65544">
        <ele>59.9</ele>
        <time>2025-10-26T07:48:29Z</time>
      </trkpt>
      <trkpt lat="43.49054" lon="6.65544">
        <ele>59.9</ele>
        <time>2025-10-26T07:48:30Z</time>
      </trkpt>
      <trkpt lat="43.49054" lon="6.65544">
        <ele>60</ele>
        <time>2025-10-26T07:48:31Z</time>
      </trkpt>
      <trkpt lat="43.49055" lon="6.65544">
        <ele>60</ele>
        <time>2025-10-26T07:48:32Z</time>
      </trkpt>
      <trkpt lat="43.49056" lon="6.65544">
        <ele>60.1</ele>
        <time>2025-10-26T07:48:33Z</time>
      </trkpt>
      <trkpt lat="43.49057" lon="6.65544">
        <ele>60.2</ele>
        <time>2025-10-26T07:48:34Z</time>
      </trkpt>
      <trkpt lat="43.49058" lon="6.65544">
        <ele>60.2</ele>
        <time>2025-10-26T07:48:35Z</time>
      </trkpt>
      <trkpt lat="43.49058" lon="6.65544">
        <ele>60.3</ele>
        <time>2025-10-26T07:48:36Z</time>
      </trkpt>
      <trkpt lat="43.49059" lon="6.65544">
        <ele>60.3</ele>
        <time>2025-10-26T07:48:37Z</time>
      </trkpt>
      <trkpt lat="43.4906" lon="6.65545">
        <ele>60.5</ele>
        <time>2025-10-26T07:48:38Z</time>
      </trkpt>
      <trkpt lat="43.49061" lon="6.65544">
        <ele>60.5</ele>
        <time>2025-10-26T07:48:39Z</time>
      </trkpt>
      <trkpt lat="43.49061" lon="6.65544">
        <ele>60.4</ele>
        <time>2025-10-26T07:48:40Z</time>
      </trkpt>
      <trkpt lat="43.49062" lon="6.65544">
        <ele>60.3</ele>
        <time>2025-10-26T07:48:41Z</time>
      </trkpt>
      <trkpt lat="43.49063" lon="6.65544">
        <ele>60.3</ele>
        <time>2025-10-26T07:48:42Z</time>
      </trkpt>
      <trkpt lat="43.49063" lon="6.65544">
        <ele>60.3</ele>
        <time>2025-10-26T07:48:43Z</time>
      </trkpt>
      <trkpt lat="43.49064" lon="6.65544">
        <ele>60.4</ele>
        <time>2025-10-26T07:48:44Z</time>
      </trkpt>
      <trkpt lat="43.49065" lon="6.65544">
        <ele>60.5</ele>
        <time>2025-10-26T07:48:45Z</time>
      </trkpt>
      <trkpt lat="43.49066" lon="6.65544">
        <ele>60.6</ele>
        <time>2025-10-26T07:48:46Z</time>
      </trkpt>
      <trkpt lat="43.49067" lon="6.65543">
        <ele>60.7</ele>
        <time>2025-10-26T07:48:47Z</time>
      </trkpt>
      <trkpt lat="43.49068" lon="6.65544">
        <ele>60.7</ele>
        <time>2025-10-26T07:48:48Z</time>
      </trkpt>
      <trkpt lat="43.49069" lon="6.65543">
        <ele>60.8</ele>
        <time>2025-10-26T07:48:49Z</time>
      </trkpt>
      <trkpt lat="43.4907" lon="6.65543">
        <ele>60.8</ele>
        <time>2025-10-26T07:48:50Z</time>
      </trkpt>
      <trkpt lat="43.49071" lon="6.65543">
        <ele>60.8</ele>
        <time>2025-10-26T07:48:51Z</time>
      </trkpt>
      <trkpt lat="43.49072" lon="6.65544">
        <ele>60.9</ele>
        <time>2025-10-26T07:48:52Z</time>
      </trkpt>
      <trkpt lat="43.49073" lon="6.65543">
        <ele>60.9</ele>
        <time>2025-10-26T07:48:53Z</time>
      </trkpt>
      <trkpt lat="43.49074" lon="6.65543">
        <ele>61.1</ele>
        <time>2025-10-26T07:48:54Z</time>
      </trkpt>
      <trkpt lat="43.49075" lon="6.65543">
        <ele>61.2</ele>
        <time>2025-10-26T07:48:55Z</time>
      </trkpt>
      <trkpt lat="43.49076" lon="6.65542">
        <ele>61.2</ele>
        <time>2025-10-26T07:48:56Z</time>
      </trkpt>
      <trkpt lat="43.49077" lon="6.65541">
        <ele>61.2</ele>
        <time>2025-10-26T07:48:57Z</time>
      </trkpt>
      <trkpt lat="43.49078" lon="6.65541">
        <ele>61.4</ele>
        <time>2025-10-26T07:48:58Z</time>
      </trkpt>
      <trkpt lat="43.49079" lon="6.65541">
        <ele>61.5</ele>
        <time>2025-10-26T07:48:59Z</time>
      </trkpt>
      <trkpt lat="43.4908" lon="6.65541">
        <ele>61.7</ele>
        <time>2025-10-26T07:49:00Z</time>
      </trkpt>
      <trkpt lat="43.4908" lon="6.65541">
        <ele>61.9</ele>
        <time>2025-10-26T07:49:01Z</time>
      </trkpt>
      <trkpt lat="43.49081" lon="6.65541">
        <ele>62</ele>
        <time>2025-10-26T07:49:02Z</time>
      </trkpt>
      <trkpt lat="43.49082" lon="6.65541">
        <ele>62</ele>
        <time>2025-10-26T07:49:03Z</time>
      </trkpt>
      <trkpt lat="43.49083" lon="6.65541">
        <ele>62.1</ele>
        <time>2025-10-26T07:49:04Z</time>
      </trkpt>
      <trkpt lat="43.49083" lon="6.65541">
        <ele>62</ele>
        <time>2025-10-26T07:49:05Z</time>
      </trkpt>
      <trkpt lat="43.49084" lon="6.65541">
        <ele>62</ele>
        <time>2025-10-26T07:49:06Z</time>
      </trkpt>
      <trkpt lat="43.49085" lon="6.65541">
        <ele>62</ele>
        <time>2025-10-26T07:49:07Z</time>
      </trkpt>
      <trkpt lat="43.49086" lon="6.65541">
        <ele>62</ele>
        <time>2025-10-26T07:49:08Z</time>
      </trkpt>
      <trkpt lat="43.49087" lon="6.65542">
        <ele>62.2</ele>
        <time>2025-10-26T07:49:09Z</time>
      </trkpt>
      <trkpt lat="43.49088" lon="6.65542">
        <ele>62.1</ele>
        <time>2025-10-26T07:49:10Z</time>
      </trkpt>
      <trkpt lat="43.49089" lon="6.65542">
        <ele>62.1</ele>
        <time>2025-10-26T07:49:11Z</time>
      </trkpt>
      <trkpt lat="43.4909" lon="6.65543">
        <ele>61.9</ele>
        <time>2025-10-26T07:49:12Z</time>
      </trkpt>
      <trkpt lat="43.49091" lon="6.65543">
        <ele>62</ele>
        <time>2025-10-26T07:49:13Z</time>
      </trkpt>
      <trkpt lat="43.49091" lon="6.65542">
        <ele>62.1</ele>
        <time>2025-10-26T07:49:14Z</time>
      </trkpt>
      <trkpt lat="43.49092" lon="6.65543">
        <ele>62.1</ele>
        <time>2025-10-26T07:49:15Z</time>
      </trkpt>
      <trkpt lat="43.49093" lon="6.65543">
        <ele>62.1</ele>
        <time>2025-10-26T07:49:16Z</time>
      </trkpt>
      <trkpt lat="43.49094" lon="6.65543">
        <ele>62.2</ele>
        <time>2025-10-26T07:49:17Z</time>
      </trkpt>
      <trkpt lat="43.49095" lon="6.65544">
        <ele>62.2</ele>
        <time>2025-10-26T07:49:18Z</time>
      </trkpt>
      <trkpt lat="43.49096" lon="6.65544">
        <ele>62.2</ele>
        <time>2025-10-26T07:49:19Z</time>
      </trkpt>
      <trkpt lat="43.49096" lon="6.65544">
        <ele>62.1</ele>
        <time>2025-10-26T07:49:20Z</time>
      </trkpt>
      <trkpt lat="43.49097" lon="6.65545">
        <ele>62.2</ele>
        <time>2025-10-26T07:49:21Z</time>
      </trkpt>
      <trkpt lat="43.49098" lon="6.65544">
        <ele>62.2</ele>
        <time>2025-10-26T07:49:22Z</time>
      </trkpt>
      <trkpt lat="43.49099" lon="6.65544">
        <ele>62.2</ele>
        <time>2025-10-26T07:49:23Z</time>
      </trkpt>
      <trkpt lat="43.491" lon="6.65544">
        <ele>62.4</ele>
        <time>2025-10-26T07:49:24Z</time>
      </trkpt>
      <trkpt lat="43.49101" lon="6.65545">
        <ele>62.5</ele>
        <time>2025-10-26T07:49:25Z</time>
      </trkpt>
      <trkpt lat="43.49102" lon="6.65544">
        <ele>62.6</ele>
        <time>2025-10-26T07:49:26Z</time>
      </trkpt>
      <trkpt lat="43.49102" lon="6.65544">
        <ele>62.6</ele>
        <time>2025-10-26T07:49:27Z</time>
      </trkpt>
      <trkpt lat="43.49104" lon="6.65544">
        <ele>62.7</ele>
        <time>2025-10-26T07:49:28Z</time>
      </trkpt>
      <trkpt lat="43.49104" lon="6.65544">
        <ele>62.7</ele>
        <time>2025-10-26T07:49:29Z</time>
      </trkpt>
      <trkpt lat="43.49105" lon="6.65545">
        <ele>62.7</ele>
        <time>2025-10-26T07:49:30Z</time>
      </trkpt>
      <trkpt lat="43.49106" lon="6.65545">
        <ele>62.8</ele>
        <time>2025-10-26T07:49:31Z</time>
      </trkpt>
      <trkpt lat="43.49107" lon="6.65545">
        <ele>62.9</ele>
        <time>2025-10-26T07:49:32Z</time>
      </trkpt>
      <trkpt lat="43.49108" lon="6.65545">
        <ele>63</ele>
        <time>2025-10-26T07:49:33Z</time>
      </trkpt>
      <trkpt lat="43.49109" lon="6.65545">
        <ele>63</ele>
        <time>2025-10-26T07:49:34Z</time>
      </trkpt>
      <trkpt lat="43.49111" lon="6.65544">
        <ele>63.1</ele>
        <time>2025-10-26T07:49:35Z</time>
      </trkpt>
      <trkpt lat="43.49112" lon="6.65544">
        <ele>63.1</ele>
        <time>2025-10-26T07:49:36Z</time>
      </trkpt>
      <trkpt lat="43.49113" lon="6.65544">
        <ele>63.1</ele>
        <time>2025-10-26T07:49:37Z</time>
      </trkpt>
      <trkpt lat="43.49115" lon="6.65544">
        <ele>63.1</ele>
        <time>2025-10-26T07:49:38Z</time>
      </trkpt>
      <trkpt lat="43.49116" lon="6.65543">
        <ele>63.1</ele>
        <time>2025-10-26T07:49:39Z</time>
      </trkpt>
      <trkpt lat="43.49117" lon="6.65543">
        <ele>63.1</ele>
        <time>2025-10-26T07:49:40Z</time>
      </trkpt>
      <trkpt lat="43.49118" lon="6.65543">
        <ele>63.2</ele>
        <time>2025-10-26T07:49:41Z</time>
      </trkpt>
      <trkpt lat="43.49119" lon="6.65541">
        <ele>63.3</ele>
        <time>2025-10-26T07:49:42Z</time>
      </trkpt>
      <trkpt lat="43.4912" lon="6.65541">
        <ele>63.4</ele>
        <time>2025-10-26T07:49:43Z</time>
      </trkpt>
      <trkpt lat="43.49121" lon="6.6554">
        <ele>63.5</ele>
        <time>2025-10-26T07:49:44Z</time>
      </trkpt>
      <trkpt lat="43.49122" lon="6.6554">
        <ele>63.5</ele>
        <time>2025-10-26T07:49:45Z</time>
      </trkpt>
      <trkpt lat="43.49123" lon="6.65539">
        <ele>63.5</ele>
        <time>2025-10-26T07:49:46Z</time>
      </trkpt>
      <trkpt lat="43.49123" lon="6.65539">
        <ele>63.6</ele>
        <time>2025-10-26T07:49:47Z</time>
      </trkpt>
      <trkpt lat="43.49124" lon="6.65538">
        <ele>63.6</ele>
        <time>2025-10-26T07:49:48Z</time>
      </trkpt>
      <trkpt lat="43.49125" lon="6.65538">
        <ele>63.7</ele>
        <time>2025-10-26T07:49:49Z</time>
      </trkpt>
      <trkpt lat="43.49125" lon="6.65538">
        <ele>63.7</ele>
        <time>2025-10-26T07:49:50Z</time>
      </trkpt>
      <trkpt lat="43.49127" lon="6.65538">
        <ele>63.7</ele>
        <time>2025-10-26T07:49:51Z</time>
      </trkpt>
      <trkpt lat="43.49128" lon="6.65537">
        <ele>63.6</ele>
        <time>2025-10-26T07:49:52Z</time>
      </trkpt>
      <trkpt lat="43.49129" lon="6.65537">
        <ele>63.7</ele>
        <time>2025-10-26T07:49:53Z</time>
      </trkpt>
      <trkpt lat="43.4913" lon="6.65537">
        <ele>63.7</ele>
        <time>2025-10-26T07:49:54Z</time>
      </trkpt>
      <trkpt lat="43.49131" lon="6.65536">
        <ele>63.7</ele>
        <time>2025-10-26T07:49:55Z</time>
      </trkpt>
      <trkpt lat="43.49132" lon="6.65536">
        <ele>63.7</ele>
        <time>2025-10-26T07:49:56Z</time>
      </trkpt>
      <trkpt lat="43.49133" lon="6.65536">
        <ele>63.7</ele>
        <time>2025-10-26T07:49:57Z</time>
      </trkpt>
      <trkpt lat="43.49134" lon="6.65535">
        <ele>63.7</ele>
        <time>2025-10-26T07:49:58Z</time>
      </trkpt>
      <trkpt lat="43.49135" lon="6.65535">
        <ele>63.8</ele>
        <time>2025-10-26T07:49:59Z</time>
      </trkpt>
      <trkpt lat="43.49136" lon="6.65535">
        <ele>63.8</ele>
        <time>2025-10-26T07:50:00Z</time>
      </trkpt>
      <trkpt lat="43.49137" lon="6.65534">
        <ele>63.9</ele>
        <time>2025-10-26T07:50:01Z</time>
      </trkpt>
      <trkpt lat="43.49138" lon="6.65534">
        <ele>63.9</ele>
        <time>2025-10-26T07:50:02Z</time>
      </trkpt>
      <trkpt lat="43.49139" lon="6.65534">
        <ele>63.8</ele>
        <time>2025-10-26T07:50:03Z</time>
      </trkpt>
      <trkpt lat="43.4914" lon="6.65534">
        <ele>63.8</ele>
        <time>2025-10-26T07:50:04Z</time>
      </trkpt>
      <trkpt lat="43.49141" lon="6.65534">
        <ele>63.8</ele>
        <time>2025-10-26T07:50:05Z</time>
      </trkpt>
      <trkpt lat="43.49142" lon="6.65534">
        <ele>63.9</ele>
        <time>2025-10-26T07:50:06Z</time>
      </trkpt>
      <trkpt lat="43.49144" lon="6.65533">
        <ele>63.9</ele>
        <time>2025-10-26T07:50:07Z</time>
      </trkpt>
      <trkpt lat="43.49145" lon="6.65532">
        <ele>63.9</ele>
        <time>2025-10-26T07:50:08Z</time>
      </trkpt>
      <trkpt lat="43.49146" lon="6.65532">
        <ele>63.9</ele>
        <time>2025-10-26T07:50:09Z</time>
      </trkpt>
      <trkpt lat="43.49147" lon="6.65532">
        <ele>63.9</ele>
        <time>2025-10-26T07:50:10Z</time>
      </trkpt>
      <trkpt lat="43.49149" lon="6.65532">
        <ele>63.9</ele>
        <time>2025-10-26T07:50:11Z</time>
      </trkpt>
      <trkpt lat="43.4915" lon="6.65532">
        <ele>63.9</ele>
        <time>2025-10-26T07:50:12Z</time>
      </trkpt>
      <trkpt lat="43.49151" lon="6.65532">
        <ele>63.9</ele>
        <time>2025-10-26T07:50:13Z</time>
      </trkpt>
      <trkpt lat="43.49153" lon="6.65532">
        <ele>64</ele>
        <time>2025-10-26T07:50:14Z</time>
      </trkpt>
      <trkpt lat="43.49154" lon="6.65532">
        <ele>64</ele>
        <time>2025-10-26T07:50:15Z</time>
      </trkpt>
      <trkpt lat="43.49155" lon="6.65532">
        <ele>64.1</ele>
        <time>2025-10-26T07:50:16Z</time>
      </trkpt>
      <trkpt lat="43.49156" lon="6.65531">
        <ele>64.2</ele>
        <time>2025-10-26T07:50:17Z</time>
      </trkpt>
      <trkpt lat="43.49157" lon="6.65531">
        <ele>64.2</ele>
        <time>2025-10-26T07:50:18Z</time>
      </trkpt>
      <trkpt lat="43.49158" lon="6.65531">
        <ele>64.4</ele>
        <time>2025-10-26T07:50:19Z</time>
      </trkpt>
      <trkpt lat="43.49159" lon="6.65531">
        <ele>64.6</ele>
        <time>2025-10-26T07:50:20Z</time>
      </trkpt>
      <trkpt lat="43.49159" lon="6.65531">
        <ele>64.7</ele>
        <time>2025-10-26T07:50:21Z</time>
      </trkpt>
      <trkpt lat="43.4916" lon="6.6553">
        <ele>64.8</ele>
        <time>2025-10-26T07:50:22Z</time>
      </trkpt>
      <trkpt lat="43.49162" lon="6.6553">
        <ele>64.9</ele>
        <time>2025-10-26T07:50:23Z</time>
      </trkpt>
      <trkpt lat="43.49163" lon="6.65529">
        <ele>65</ele>
        <time>2025-10-26T07:50:24Z</time>
      </trkpt>
      <trkpt lat="43.49164" lon="6.65528">
        <ele>65.1</ele>
        <time>2025-10-26T07:50:25Z</time>
      </trkpt>
      <trkpt lat="43.49165" lon="6.65528">
        <ele>65.2</ele>
        <time>2025-10-26T07:50:26Z</time>
      </trkpt>
      <trkpt lat="43.49166" lon="6.65528">
        <ele>65.3</ele>
        <time>2025-10-26T07:50:27Z</time>
      </trkpt>
      <trkpt lat="43.49167" lon="6.65528">
        <ele>65.5</ele>
        <time>2025-10-26T07:50:28Z</time>
      </trkpt>
      <trkpt lat="43.49168" lon="6.65527">
        <ele>65.6</ele>
        <time>2025-10-26T07:50:29Z</time>
      </trkpt>
      <trkpt lat="43.49169" lon="6.65527">
        <ele>65.7</ele>
        <time>2025-10-26T07:50:30Z</time>
      </trkpt>
      <trkpt lat="43.4917" lon="6.65527">
        <ele>65.8</ele>
        <time>2025-10-26T07:50:31Z</time>
      </trkpt>
      <trkpt lat="43.49171" lon="6.65527">
        <ele>65.9</ele>
        <time>2025-10-26T07:50:32Z</time>
      </trkpt>
      <trkpt lat="43.49172" lon="6.65527">
        <ele>65.9</ele>
        <time>2025-10-26T07:50:33Z</time>
      </trkpt>
      <trkpt lat="43.49173" lon="6.65527">
        <ele>66</ele>
        <time>2025-10-26T07:50:34Z</time>
      </trkpt>
      <trkpt lat="43.49174" lon="6.65527">
        <ele>66.1</ele>
        <time>2025-10-26T07:50:35Z</time>
      </trkpt>
      <trkpt lat="43.49175" lon="6.65527">
        <ele>66.1</ele>
        <time>2025-10-26T07:50:36Z</time>
      </trkpt>
      <trkpt lat="43.49176" lon="6.65527">
        <ele>66.1</ele>
        <time>2025-10-26T07:50:37Z</time>
      </trkpt>
      <trkpt lat="43.49177" lon="6.65527">
        <ele>66.1</ele>
        <time>2025-10-26T07:50:38Z</time>
      </trkpt>
      <trkpt lat="43.49179" lon="6.65527">
        <ele>66.2</ele>
        <time>2025-10-26T07:50:39Z</time>
      </trkpt>
      <trkpt lat="43.4918" lon="6.65527">
        <ele>66.3</ele>
        <time>2025-10-26T07:50:40Z</time>
      </trkpt>
      <trkpt lat="43.49181" lon="6.65527">
        <ele>66.3</ele>
        <time>2025-10-26T07:50:41Z</time>
      </trkpt>
      <trkpt lat="43.49182" lon="6.65527">
        <ele>66.4</ele>
        <time>2025-10-26T07:50:42Z</time>
      </trkpt>
      <trkpt lat="43.49184" lon="6.65527">
        <ele>66.4</ele>
        <time>2025-10-26T07:50:43Z</time>
      </trkpt>
      <trkpt lat="43.49185" lon="6.65527">
        <ele>66.4</ele>
        <time>2025-10-26T07:50:44Z</time>
      </trkpt>
      <trkpt lat="43.49186" lon="6.65527">
        <ele>66.5</ele>
        <time>2025-10-26T07:50:45Z</time>
      </trkpt>
      <trkpt lat="43.49187" lon="6.65527">
        <ele>66.5</ele>
        <time>2025-10-26T07:50:46Z</time>
      </trkpt>
      <trkpt lat="43.49188" lon="6.65527">
        <ele>66.6</ele>
        <time>2025-10-26T07:50:47Z</time>
      </trkpt>
      <trkpt lat="43.49189" lon="6.65528">
        <ele>66.5</ele>
        <time>2025-10-26T07:50:48Z</time>
      </trkpt>
      <trkpt lat="43.4919" lon="6.65528">
        <ele>66.5</ele>
        <time>2025-10-26T07:50:49Z</time>
      </trkpt>
      <trkpt lat="43.49191" lon="6.65527">
        <ele>66.5</ele>
        <time>2025-10-26T07:50:50Z</time>
      </trkpt>
      <trkpt lat="43.49192" lon="6.65527">
        <ele>66.7</ele>
        <time>2025-10-26T07:50:51Z</time>
      </trkpt>
      <trkpt lat="43.49193" lon="6.65527">
        <ele>66.9</ele>
        <time>2025-10-26T07:50:52Z</time>
      </trkpt>
      <trkpt lat="43.49194" lon="6.65527">
        <ele>67</ele>
        <time>2025-10-26T07:50:53Z</time>
      </trkpt>
      <trkpt lat="43.49196" lon="6.65527">
        <ele>67</ele>
        <time>2025-10-26T07:50:54Z</time>
      </trkpt>
      <trkpt lat="43.49197" lon="6.65526">
        <ele>67</ele>
        <time>2025-10-26T07:50:55Z</time>
      </trkpt>
      <trkpt lat="43.49198" lon="6.65526">
        <ele>67</ele>
        <time>2025-10-26T07:50:56Z</time>
      </trkpt>
      <trkpt lat="43.49199" lon="6.65526">
        <ele>67</ele>
        <time>2025-10-26T07:50:57Z</time>
      </trkpt>
      <trkpt lat="43.492" lon="6.65526">
        <ele>67</ele>
        <time>2025-10-26T07:50:58Z</time>
      </trkpt>
      <trkpt lat="43.49201" lon="6.65525">
        <ele>67</ele>
        <time>2025-10-26T07:50:59Z</time>
      </trkpt>
      <trkpt lat="43.49202" lon="6.65525">
        <ele>67.1</ele>
        <time>2025-10-26T07:51:00Z</time>
      </trkpt>
      <trkpt lat="43.49203" lon="6.65525">
        <ele>67.1</ele>
        <time>2025-10-26T07:51:01Z</time>
      </trkpt>
      <trkpt lat="43.49204" lon="6.65524">
        <ele>67.1</ele>
        <time>2025-10-26T07:51:02Z</time>
      </trkpt>
      <trkpt lat="43.49206" lon="6.65524">
        <ele>67.2</ele>
        <time>2025-10-26T07:51:03Z</time>
      </trkpt>
      <trkpt lat="43.49207" lon="6.65524">
        <ele>67.4</ele>
        <time>2025-10-26T07:51:04Z</time>
      </trkpt>
      <trkpt lat="43.49208" lon="6.65524">
        <ele>67.5</ele>
        <time>2025-10-26T07:51:05Z</time>
      </trkpt>
      <trkpt lat="43.49209" lon="6.65524">
        <ele>67.7</ele>
        <time>2025-10-26T07:51:06Z</time>
      </trkpt>
      <trkpt lat="43.4921" lon="6.65524">
        <ele>67.8</ele>
        <time>2025-10-26T07:51:07Z</time>
      </trkpt>
      <trkpt lat="43.49211" lon="6.65524">
        <ele>68</ele>
        <time>2025-10-26T07:51:08Z</time>
      </trkpt>
      <trkpt lat="43.49212" lon="6.65524">
        <ele>68.1</ele>
        <time>2025-10-26T07:51:09Z</time>
      </trkpt>
      <trkpt lat="43.49213" lon="6.65524">
        <ele>68.1</ele>
        <time>2025-10-26T07:51:10Z</time>
      </trkpt>
      <trkpt lat="43.49214" lon="6.65524">
        <ele>68.1</ele>
        <time>2025-10-26T07:51:11Z</time>
      </trkpt>
      <trkpt lat="43.49215" lon="6.65523">
        <ele>68.1</ele>
        <time>2025-10-26T07:51:12Z</time>
      </trkpt>
      <trkpt lat="43.49216" lon="6.65523">
        <ele>68.1</ele>
        <time>2025-10-26T07:51:13Z</time>
      </trkpt>
      <trkpt lat="43.49217" lon="6.65523">
        <ele>68.2</ele>
        <time>2025-10-26T07:51:14Z</time>
      </trkpt>
      <trkpt lat="43.49218" lon="6.65523">
        <ele>68.2</ele>
        <time>2025-10-26T07:51:15Z</time>
      </trkpt>
      <trkpt lat="43.49219" lon="6.65522">
        <ele>68.3</ele>
        <time>2025-10-26T07:51:16Z</time>
      </trkpt>
      <trkpt lat="43.4922" lon="6.65522">
        <ele>68.3</ele>
        <time>2025-10-26T07:51:17Z</time>
      </trkpt>
      <trkpt lat="43.49221" lon="6.65523">
        <ele>68.3</ele>
        <time>2025-10-26T07:51:18Z</time>
      </trkpt>
      <trkpt lat="43.49222" lon="6.65524">
        <ele>68.3</ele>
        <time>2025-10-26T07:51:19Z</time>
      </trkpt>
      <trkpt lat="43.49223" lon="6.65525">
        <ele>68.3</ele>
        <time>2025-10-26T07:51:20Z</time>
      </trkpt>
      <trkpt lat="43.49224" lon="6.65525">
        <ele>68.3</ele>
        <time>2025-10-26T07:51:21Z</time>
      </trkpt>
      <trkpt lat="43.49225" lon="6.65526">
        <ele>68.4</ele>
        <time>2025-10-26T07:51:22Z</time>
      </trkpt>
      <trkpt lat="43.49226" lon="6.65527">
        <ele>68.4</ele>
        <time>2025-10-26T07:51:23Z</time>
      </trkpt>
      <trkpt lat="43.49226" lon="6.65528">
        <ele>68.5</ele>
        <time>2025-10-26T07:51:24Z</time>
      </trkpt>
      <trkpt lat="43.49227" lon="6.65529">
        <ele>68.5</ele>
        <time>2025-10-26T07:51:25Z</time>
      </trkpt>
      <trkpt lat="43.49228" lon="6.6553">
        <ele>68.6</ele>
        <time>2025-10-26T07:51:26Z</time>
      </trkpt>
      <trkpt lat="43.49229" lon="6.65532">
        <ele>68.6</ele>
        <time>2025-10-26T07:51:27Z</time>
      </trkpt>
      <trkpt lat="43.49229" lon="6.65533">
        <ele>68.6</ele>
        <time>2025-10-26T07:51:28Z</time>
      </trkpt>
      <trkpt lat="43.4923" lon="6.65534">
        <ele>68.7</ele>
        <time>2025-10-26T07:51:29Z</time>
      </trkpt>
      <trkpt lat="43.49231" lon="6.65535">
        <ele>68.7</ele>
        <time>2025-10-26T07:51:30Z</time>
      </trkpt>
      <trkpt lat="43.49232" lon="6.65537">
        <ele>68.7</ele>
        <time>2025-10-26T07:51:31Z</time>
      </trkpt>
      <trkpt lat="43.49232" lon="6.65538">
        <ele>68.7</ele>
        <time>2025-10-26T07:51:32Z</time>
      </trkpt>
      <trkpt lat="43.49233" lon="6.65539">
        <ele>68.7</ele>
        <time>2025-10-26T07:51:33Z</time>
      </trkpt>
      <trkpt lat="43.49234" lon="6.65539">
        <ele>68.8</ele>
        <time>2025-10-26T07:51:34Z</time>
      </trkpt>
      <trkpt lat="43.49235" lon="6.6554">
        <ele>68.8</ele>
        <time>2025-10-26T07:51:35Z</time>
      </trkpt>
      <trkpt lat="43.49236" lon="6.65541">
        <ele>68.8</ele>
        <time>2025-10-26T07:51:36Z</time>
      </trkpt>
      <trkpt lat="43.49237" lon="6.65542">
        <ele>68.9</ele>
        <time>2025-10-26T07:51:37Z</time>
      </trkpt>
      <trkpt lat="43.49238" lon="6.65542">
        <ele>68.9</ele>
        <time>2025-10-26T07:51:38Z</time>
      </trkpt>
      <trkpt lat="43.49239" lon="6.65543">
        <ele>69</ele>
        <time>2025-10-26T07:51:39Z</time>
      </trkpt>
      <trkpt lat="43.4924" lon="6.65543">
        <ele>69</ele>
        <time>2025-10-26T07:51:40Z</time>
      </trkpt>
      <trkpt lat="43.49242" lon="6.65544">
        <ele>69.1</ele>
        <time>2025-10-26T07:51:41Z</time>
      </trkpt>
      <trkpt lat="43.49243" lon="6.65544">
        <ele>69.2</ele>
        <time>2025-10-26T07:51:42Z</time>
      </trkpt>
      <trkpt lat="43.49244" lon="6.65544">
        <ele>69.3</ele>
        <time>2025-10-26T07:51:43Z</time>
      </trkpt>
      <trkpt lat="43.49245" lon="6.65545">
        <ele>69.4</ele>
        <time>2025-10-26T07:51:44Z</time>
      </trkpt>
      <trkpt lat="43.49246" lon="6.65546">
        <ele>69.5</ele>
        <time>2025-10-26T07:51:45Z</time>
      </trkpt>
      <trkpt lat="43.49247" lon="6.65546">
        <ele>69.6</ele>
        <time>2025-10-26T07:51:46Z</time>
      </trkpt>
      <trkpt lat="43.49248" lon="6.65547">
        <ele>69.6</ele>
        <time>2025-10-26T07:51:47Z</time>
      </trkpt>
      <trkpt lat="43.49249" lon="6.65547">
        <ele>69.6</ele>
        <time>2025-10-26T07:51:48Z</time>
      </trkpt>
      <trkpt lat="43.4925" lon="6.65548">
        <ele>69.7</ele>
        <time>2025-10-26T07:51:49Z</time>
      </trkpt>
      <trkpt lat="43.49251" lon="6.65549">
        <ele>69.8</ele>
        <time>2025-10-26T07:51:50Z</time>
      </trkpt>
      <trkpt lat="43.49252" lon="6.6555">
        <ele>69.7</ele>
        <time>2025-10-26T07:51:51Z</time>
      </trkpt>
      <trkpt lat="43.49253" lon="6.6555">
        <ele>69.7</ele>
        <time>2025-10-26T07:51:52Z</time>
      </trkpt>
      <trkpt lat="43.49254" lon="6.65551">
        <ele>69.7</ele>
        <time>2025-10-26T07:51:53Z</time>
      </trkpt>
      <trkpt lat="43.49256" lon="6.65551">
        <ele>69.7</ele>
        <time>2025-10-26T07:51:54Z</time>
      </trkpt>
      <trkpt lat="43.49257" lon="6.65551">
        <ele>69.7</ele>
        <time>2025-10-26T07:51:55Z</time>
      </trkpt>
      <trkpt lat="43.49258" lon="6.65551">
        <ele>69.8</ele>
        <time>2025-10-26T07:51:56Z</time>
      </trkpt>
      <trkpt lat="43.49259" lon="6.65552">
        <ele>69.9</ele>
        <time>2025-10-26T07:51:57Z</time>
      </trkpt>
      <trkpt lat="43.4926" lon="6.65552">
        <ele>70</ele>
        <time>2025-10-26T07:51:58Z</time>
      </trkpt>
      <trkpt lat="43.49262" lon="6.65553">
        <ele>70.2</ele>
        <time>2025-10-26T07:51:59Z</time>
      </trkpt>
      <trkpt lat="43.49262" lon="6.65553">
        <ele>70.4</ele>
        <time>2025-10-26T07:52:00Z</time>
      </trkpt>
      <trkpt lat="43.49263" lon="6.65554">
        <ele>70.5</ele>
        <time>2025-10-26T07:52:01Z</time>
      </trkpt>
      <trkpt lat="43.49264" lon="6.65555">
        <ele>70.7</ele>
        <time>2025-10-26T07:52:02Z</time>
      </trkpt>
      <trkpt lat="43.49265" lon="6.65556">
        <ele>70.7</ele>
        <time>2025-10-26T07:52:03Z</time>
      </trkpt>
      <trkpt lat="43.49266" lon="6.65557">
        <ele>70.8</ele>
        <time>2025-10-26T07:52:04Z</time>
      </trkpt>
      <trkpt lat="43.49267" lon="6.65558">
        <ele>70.8</ele>
        <time>2025-10-26T07:52:05Z</time>
      </trkpt>
      <trkpt lat="43.49267" lon="6.65558">
        <ele>70.9</ele>
        <time>2025-10-26T07:52:06Z</time>
      </trkpt>
      <trkpt lat="43.49268" lon="6.65559">
        <ele>70.8</ele>
        <time>2025-10-26T07:52:07Z</time>
      </trkpt>
      <trkpt lat="43.49269" lon="6.6556">
        <ele>70.9</ele>
        <time>2025-10-26T07:52:08Z</time>
      </trkpt>
      <trkpt lat="43.49269" lon="6.65561">
        <ele>70.9</ele>
        <time>2025-10-26T07:52:09Z</time>
      </trkpt>
      <trkpt lat="43.4927" lon="6.65563">
        <ele>71</ele>
        <time>2025-10-26T07:52:10Z</time>
      </trkpt>
      <trkpt lat="43.49271" lon="6.65563">
        <ele>71</ele>
        <time>2025-10-26T07:52:11Z</time>
      </trkpt>
      <trkpt lat="43.49271" lon="6.65564">
        <ele>71</ele>
        <time>2025-10-26T07:52:12Z</time>
      </trkpt>
      <trkpt lat="43.49272" lon="6.65566">
        <ele>71.1</ele>
        <time>2025-10-26T07:52:13Z</time>
      </trkpt>
      <trkpt lat="43.49272" lon="6.65567">
        <ele>71.1</ele>
        <time>2025-10-26T07:52:14Z</time>
      </trkpt>
      <trkpt lat="43.49272" lon="6.65568">
        <ele>71.2</ele>
        <time>2025-10-26T07:52:15Z</time>
      </trkpt>
      <trkpt lat="43.49272" lon="6.6557">
        <ele>71.2</ele>
        <time>2025-10-26T07:52:16Z</time>
      </trkpt>
      <trkpt lat="43.49272" lon="6.65572">
        <ele>71.3</ele>
        <time>2025-10-26T07:52:17Z</time>
      </trkpt>
      <trkpt lat="43.49272" lon="6.65573">
        <ele>71.3</ele>
        <time>2025-10-26T07:52:18Z</time>
      </trkpt>
      <trkpt lat="43.49273" lon="6.65574">
        <ele>71.4</ele>
        <time>2025-10-26T07:52:19Z</time>
      </trkpt>
      <trkpt lat="43.49273" lon="6.65576">
        <ele>71.5</ele>
        <time>2025-10-26T07:52:20Z</time>
      </trkpt>
      <trkpt lat="43.49273" lon="6.65577">
        <ele>71.5</ele>
        <time>2025-10-26T07:52:21Z</time>
      </trkpt>
      <trkpt lat="43.49273" lon="6.65578">
        <ele>71.7</ele>
        <time>2025-10-26T07:52:22Z</time>
      </trkpt>
      <trkpt lat="43.49273" lon="6.6558">
        <ele>71.7</ele>
        <time>2025-10-26T07:52:23Z</time>
      </trkpt>
      <trkpt lat="43.49274" lon="6.65581">
        <ele>71.8</ele>
        <time>2025-10-26T07:52:24Z</time>
      </trkpt>
      <trkpt lat="43.49274" lon="6.65582">
        <ele>71.9</ele>
        <time>2025-10-26T07:52:25Z</time>
      </trkpt>
      <trkpt lat="43.49274" lon="6.65583">
        <ele>71.8</ele>
        <time>2025-10-26T07:52:26Z</time>
      </trkpt>
      <trkpt lat="43.49274" lon="6.65585">
        <ele>71.9</ele>
        <time>2025-10-26T07:52:27Z</time>
      </trkpt>
      <trkpt lat="43.49274" lon="6.65586">
        <ele>71.9</ele>
        <time>2025-10-26T07:52:28Z</time>
      </trkpt>
      <trkpt lat="43.49274" lon="6.65587">
        <ele>72</ele>
        <time>2025-10-26T07:52:29Z</time>
      </trkpt>
      <trkpt lat="43.49274" lon="6.65587">
        <ele>72.1</ele>
        <time>2025-10-26T07:52:30Z</time>
      </trkpt>
      <trkpt lat="43.49275" lon="6.65589">
        <ele>72.1</ele>
        <time>2025-10-26T07:52:31Z</time>
      </trkpt>
      <trkpt lat="43.49275" lon="6.6559">
        <ele>72.2</ele>
        <time>2025-10-26T07:52:32Z</time>
      </trkpt>
      <trkpt lat="43.49275" lon="6.65591">
        <ele>72.3</ele>
        <time>2025-10-26T07:52:33Z</time>
      </trkpt>
      <trkpt lat="43.49275" lon="6.65593">
        <ele>72.4</ele>
        <time>2025-10-26T07:52:34Z</time>
      </trkpt>
      <trkpt lat="43.49276" lon="6.65595">
        <ele>72.4</ele>
        <time>2025-10-26T07:52:35Z</time>
      </trkpt>
      <trkpt lat="43.49276" lon="6.65596">
        <ele>72.5</ele>
        <time>2025-10-26T07:52:36Z</time>
      </trkpt>
      <trkpt lat="43.49277" lon="6.65597">
        <ele>72.5</ele>
        <time>2025-10-26T07:52:37Z</time>
      </trkpt>
      <trkpt lat="43.49277" lon="6.65598">
        <ele>72.4</ele>
        <time>2025-10-26T07:52:38Z</time>
      </trkpt>
      <trkpt lat="43.49278" lon="6.656">
        <ele>72.4</ele>
        <time>2025-10-26T07:52:39Z</time>
      </trkpt>
      <trkpt lat="43.49279" lon="6.65601">
        <ele>72.5</ele>
        <time>2025-10-26T07:52:40Z</time>
      </trkpt>
      <trkpt lat="43.4928" lon="6.65602">
        <ele>72.4</ele>
        <time>2025-10-26T07:52:41Z</time>
      </trkpt>
      <trkpt lat="43.49281" lon="6.65603">
        <ele>72.4</ele>
        <time>2025-10-26T07:52:42Z</time>
      </trkpt>
      <trkpt lat="43.49282" lon="6.65604">
        <ele>72.4</ele>
        <time>2025-10-26T07:52:43Z</time>
      </trkpt>
      <trkpt lat="43.49283" lon="6.65605">
        <ele>72.5</ele>
        <time>2025-10-26T07:52:44Z</time>
      </trkpt>
      <trkpt lat="43.49284" lon="6.65606">
        <ele>72.5</ele>
        <time>2025-10-26T07:52:45Z</time>
      </trkpt>
      <trkpt lat="43.49285" lon="6.65607">
        <ele>72.6</ele>
        <time>2025-10-26T07:52:46Z</time>
      </trkpt>
      <trkpt lat="43.49285" lon="6.65609">
        <ele>72.5</ele>
        <time>2025-10-26T07:52:47Z</time>
      </trkpt>
      <trkpt lat="43.49286" lon="6.6561">
        <ele>72.6</ele>
        <time>2025-10-26T07:52:48Z</time>
      </trkpt>
      <trkpt lat="43.49287" lon="6.6561">
        <ele>72.6</ele>
        <time>2025-10-26T07:52:49Z</time>
      </trkpt>
      <trkpt lat="43.49288" lon="6.65611">
        <ele>72.8</ele>
        <time>2025-10-26T07:52:50Z</time>
      </trkpt>
      <trkpt lat="43.49289" lon="6.65612">
        <ele>72.8</ele>
        <time>2025-10-26T07:52:51Z</time>
      </trkpt>
      <trkpt lat="43.4929" lon="6.65613">
        <ele>72.9</ele>
        <time>2025-10-26T07:52:52Z</time>
      </trkpt>
      <trkpt lat="43.49291" lon="6.65614">
        <ele>72.9</ele>
        <time>2025-10-26T07:52:53Z</time>
      </trkpt>
      <trkpt lat="43.49292" lon="6.65615">
        <ele>72.8</ele>
        <time>2025-10-26T07:52:54Z</time>
      </trkpt>
      <trkpt lat="43.49293" lon="6.65615">
        <ele>72.8</ele>
        <time>2025-10-26T07:52:55Z</time>
      </trkpt>
      <trkpt lat="43.49293" lon="6.65616">
        <ele>72.6</ele>
        <time>2025-10-26T07:52:56Z</time>
      </trkpt>
      <trkpt lat="43.49294" lon="6.65617">
        <ele>72.6</ele>
        <time>2025-10-26T07:52:57Z</time>
      </trkpt>
      <trkpt lat="43.49295" lon="6.65617">
        <ele>72.5</ele>
        <time>2025-10-26T07:52:58Z</time>
      </trkpt>
      <trkpt lat="43.49296" lon="6.65618">
        <ele>72.4</ele>
        <time>2025-10-26T07:52:59Z</time>
      </trkpt>
      <trkpt lat="43.49298" lon="6.65618">
        <ele>72.5</ele>
        <time>2025-10-26T07:53:00Z</time>
      </trkpt>
      <trkpt lat="43.49298" lon="6.65619">
        <ele>72.6</ele>
        <time>2025-10-26T07:53:01Z</time>
      </trkpt>
      <trkpt lat="43.49299" lon="6.65619">
        <ele>72.7</ele>
        <time>2025-10-26T07:53:02Z</time>
      </trkpt>
      <trkpt lat="43.493" lon="6.6562">
        <ele>72.8</ele>
        <time>2025-10-26T07:53:03Z</time>
      </trkpt>
      <trkpt lat="43.49302" lon="6.65621">
        <ele>72.8</ele>
        <time>2025-10-26T07:53:04Z</time>
      </trkpt>
      <trkpt lat="43.49303" lon="6.65621">
        <ele>72.9</ele>
        <time>2025-10-26T07:53:05Z</time>
      </trkpt>
      <trkpt lat="43.49304" lon="6.65622">
        <ele>72.9</ele>
        <time>2025-10-26T07:53:06Z</time>
      </trkpt>
      <trkpt lat="43.49305" lon="6.65622">
        <ele>72.9</ele>
        <time>2025-10-26T07:53:07Z</time>
      </trkpt>
      <trkpt lat="43.49306" lon="6.65623">
        <ele>72.8</ele>
        <time>2025-10-26T07:53:08Z</time>
      </trkpt>
      <trkpt lat="43.49306" lon="6.65623">
        <ele>72.6</ele>
        <time>2025-10-26T07:53:09Z</time>
      </trkpt>
      <trkpt lat="43.49307" lon="6.65624">
        <ele>72.5</ele>
        <time>2025-10-26T07:53:10Z</time>
      </trkpt>
      <trkpt lat="43.49309" lon="6.65625">
        <ele>72.4</ele>
        <time>2025-10-26T07:53:11Z</time>
      </trkpt>
      <trkpt lat="43.4931" lon="6.65626">
        <ele>72.4</ele>
        <time>2025-10-26T07:53:12Z</time>
      </trkpt>
      <trkpt lat="43.49311" lon="6.65627">
        <ele>72.4</ele>
        <time>2025-10-26T07:53:13Z</time>
      </trkpt>
      <trkpt lat="43.49312" lon="6.65627">
        <ele>72.6</ele>
        <time>2025-10-26T07:53:14Z</time>
      </trkpt>
      <trkpt lat="43.49312" lon="6.65628">
        <ele>72.7</ele>
        <time>2025-10-26T07:53:15Z</time>
      </trkpt>
      <trkpt lat="43.49313" lon="6.65629">
        <ele>72.8</ele>
        <time>2025-10-26T07:53:16Z</time>
      </trkpt>
      <trkpt lat="43.49314" lon="6.6563">
        <ele>73</ele>
        <time>2025-10-26T07:53:17Z</time>
      </trkpt>
      <trkpt lat="43.49315" lon="6.6563">
        <ele>73.1</ele>
        <time>2025-10-26T07:53:18Z</time>
      </trkpt>
      <trkpt lat="43.49316" lon="6.65631">
        <ele>73.1</ele>
        <time>2025-10-26T07:53:19Z</time>
      </trkpt>
      <trkpt lat="43.49317" lon="6.65631">
        <ele>73.3</ele>
        <time>2025-10-26T07:53:20Z</time>
      </trkpt>
      <trkpt lat="43.49317" lon="6.65632">
        <ele>73.4</ele>
        <time>2025-10-26T07:53:21Z</time>
      </trkpt>
      <trkpt lat="43.49318" lon="6.65633">
        <ele>73.4</ele>
        <time>2025-10-26T07:53:22Z</time>
      </trkpt>
      <trkpt lat="43.49319" lon="6.65633">
        <ele>73.4</ele>
        <time>2025-10-26T07:53:23Z</time>
      </trkpt>
      <trkpt lat="43.49319" lon="6.65634">
        <ele>73.5</ele>
        <time>2025-10-26T07:53:24Z</time>
      </trkpt>
      <trkpt lat="43.4932" lon="6.65635">
        <ele>73.6</ele>
        <time>2025-10-26T07:53:25Z</time>
      </trkpt>
      <trkpt lat="43.49321" lon="6.65635">
        <ele>73.8</ele>
        <time>2025-10-26T07:53:26Z</time>
      </trkpt>
      <trkpt lat="43.49322" lon="6.65636">
        <ele>74</ele>
        <time>2025-10-26T07:53:27Z</time>
      </trkpt>
      <trkpt lat="43.49323" lon="6.65637">
        <ele>74.1</ele>
        <time>2025-10-26T07:53:28Z</time>
      </trkpt>
      <trkpt lat="43.49324" lon="6.65637">
        <ele>74.1</ele>
        <time>2025-10-26T07:53:29Z</time>
      </trkpt>
      <trkpt lat="43.49325" lon="6.65638">
        <ele>74.2</ele>
        <time>2025-10-26T07:53:30Z</time>
      </trkpt>
      <trkpt lat="43.49326" lon="6.65639">
        <ele>74.3</ele>
        <time>2025-10-26T07:53:31Z</time>
      </trkpt>
      <trkpt lat="43.49327" lon="6.65639">
        <ele>74.4</ele>
        <time>2025-10-26T07:53:32Z</time>
      </trkpt>
      <trkpt lat="43.49328" lon="6.65639">
        <ele>74.4</ele>
        <time>2025-10-26T07:53:33Z</time>
      </trkpt>
      <trkpt lat="43.49329" lon="6.6564">
        <ele>74.5</ele>
        <time>2025-10-26T07:53:34Z</time>
      </trkpt>
      <trkpt lat="43.4933" lon="6.6564">
        <ele>74.5</ele>
        <time>2025-10-26T07:53:35Z</time>
      </trkpt>
      <trkpt lat="43.49331" lon="6.65641">
        <ele>74.6</ele>
        <time>2025-10-26T07:53:36Z</time>
      </trkpt>
      <trkpt lat="43.49332" lon="6.65642">
        <ele>74.6</ele>
        <time>2025-10-26T07:53:37Z</time>
      </trkpt>
      <trkpt lat="43.49333" lon="6.65643">
        <ele>74.6</ele>
        <time>2025-10-26T07:53:38Z</time>
      </trkpt>
      <trkpt lat="43.49334" lon="6.65644">
        <ele>74.6</ele>
        <time>2025-10-26T07:53:39Z</time>
      </trkpt>
      <trkpt lat="43.49335" lon="6.65646">
        <ele>74.6</ele>
        <time>2025-10-26T07:53:40Z</time>
      </trkpt>
      <trkpt lat="43.49335" lon="6.65647">
        <ele>74.6</ele>
        <time>2025-10-26T07:53:41Z</time>
      </trkpt>
      <trkpt lat="43.49336" lon="6.65648">
        <ele>74.5</ele>
        <time>2025-10-26T07:53:42Z</time>
      </trkpt>
      <trkpt lat="43.49337" lon="6.6565">
        <ele>74.5</ele>
        <time>2025-10-26T07:53:43Z</time>
      </trkpt>
      <trkpt lat="43.49337" lon="6.65651">
        <ele>74.5</ele>
        <time>2025-10-26T07:53:44Z</time>
      </trkpt>
      <trkpt lat="43.49338" lon="6.65652">
        <ele>74.6</ele>
        <time>2025-10-26T07:53:45Z</time>
      </trkpt>
      <trkpt lat="43.49339" lon="6.65653">
        <ele>74.5</ele>
        <time>2025-10-26T07:53:46Z</time>
      </trkpt>
      <trkpt lat="43.49339" lon="6.65655">
        <ele>74.6</ele>
        <time>2025-10-26T07:53:47Z</time>
      </trkpt>
      <trkpt lat="43.4934" lon="6.65656">
        <ele>74.5</ele>
        <time>2025-10-26T07:53:48Z</time>
      </trkpt>
      <trkpt lat="43.4934" lon="6.65657">
        <ele>74.5</ele>
        <time>2025-10-26T07:53:49Z</time>
      </trkpt>
      <trkpt lat="43.49341" lon="6.65658">
        <ele>74.5</ele>
        <time>2025-10-26T07:53:50Z</time>
      </trkpt>
      <trkpt lat="43.49342" lon="6.6566">
        <ele>74.4</ele>
        <time>2025-10-26T07:53:51Z</time>
      </trkpt>
      <trkpt lat="43.49343" lon="6.65661">
        <ele>74.4</ele>
        <time>2025-10-26T07:53:52Z</time>
      </trkpt>
      <trkpt lat="43.49343" lon="6.65662">
        <ele>74.3</ele>
        <time>2025-10-26T07:53:53Z</time>
      </trkpt>
      <trkpt lat="43.49344" lon="6.65664">
        <ele>74.3</ele>
        <time>2025-10-26T07:53:54Z</time>
      </trkpt>
      <trkpt lat="43.49345" lon="6.65665">
        <ele>74.3</ele>
        <time>2025-10-26T07:53:55Z</time>
      </trkpt>
      <trkpt lat="43.49345" lon="6.65666">
        <ele>74.3</ele>
        <time>2025-10-26T07:53:56Z</time>
      </trkpt>
      <trkpt lat="43.49346" lon="6.65667">
        <ele>74.3</ele>
        <time>2025-10-26T07:53:57Z</time>
      </trkpt>
      <trkpt lat="43.49346" lon="6.65668">
        <ele>74.3</ele>
        <time>2025-10-26T07:53:58Z</time>
      </trkpt>
      <trkpt lat="43.49346" lon="6.65669">
        <ele>74.2</ele>
        <time>2025-10-26T07:53:59Z</time>
      </trkpt>
      <trkpt lat="43.49346" lon="6.65671">
        <ele>74.2</ele>
        <time>2025-10-26T07:54:00Z</time>
      </trkpt>
      <trkpt lat="43.49347" lon="6.65673">
        <ele>74.2</ele>
        <time>2025-10-26T07:54:01Z</time>
      </trkpt>
      <trkpt lat="43.49347" lon="6.65675">
        <ele>74.1</ele>
        <time>2025-10-26T07:54:02Z</time>
      </trkpt>
      <trkpt lat="43.49347" lon="6.65676">
        <ele>74.1</ele>
        <time>2025-10-26T07:54:03Z</time>
      </trkpt>
      <trkpt lat="43.49347" lon="6.65677">
        <ele>74.1</ele>
        <time>2025-10-26T07:54:04Z</time>
      </trkpt>
      <trkpt lat="43.49348" lon="6.65678">
        <ele>74</ele>
        <time>2025-10-26T07:54:05Z</time>
      </trkpt>
      <trkpt lat="43.49348" lon="6.6568">
        <ele>73.9</ele>
        <time>2025-10-26T07:54:06Z</time>
      </trkpt>
      <trkpt lat="43.49348" lon="6.65681">
        <ele>74</ele>
        <time>2025-10-26T07:54:07Z</time>
      </trkpt>
      <trkpt lat="43.49349" lon="6.65683">
        <ele>74.1</ele>
        <time>2025-10-26T07:54:08Z</time>
      </trkpt>
      <trkpt lat="43.49349" lon="6.65684">
        <ele>74</ele>
        <time>2025-10-26T07:54:09Z</time>
      </trkpt>
      <trkpt lat="43.4935" lon="6.65685">
        <ele>74</ele>
        <time>2025-10-26T07:54:10Z</time>
      </trkpt>
      <trkpt lat="43.4935" lon="6.65686">
        <ele>74</ele>
        <time>2025-10-26T07:54:11Z</time>
      </trkpt>
      <trkpt lat="43.49351" lon="6.65688">
        <ele>74</ele>
        <time>2025-10-26T07:54:12Z</time>
      </trkpt>
      <trkpt lat="43.49351" lon="6.65688">
        <ele>74.1</ele>
        <time>2025-10-26T07:54:13Z</time>
      </trkpt>
      <trkpt lat="43.49352" lon="6.65689">
        <ele>74.1</ele>
        <time>2025-10-26T07:54:14Z</time>
      </trkpt>
      <trkpt lat="43.49353" lon="6.65691">
        <ele>74.1</ele>
        <time>2025-10-26T07:54:15Z</time>
      </trkpt>
      <trkpt lat="43.49353" lon="6.65692">
        <ele>74.1</ele>
        <time>2025-10-26T07:54:16Z</time>
      </trkpt>
      <trkpt lat="43.49354" lon="6.65694">
        <ele>74.1</ele>
        <time>2025-10-26T07:54:17Z</time>
      </trkpt>
      <trkpt lat="43.49355" lon="6.65696">
        <ele>74</ele>
        <time>2025-10-26T07:54:18Z</time>
      </trkpt>
      <trkpt lat="43.49356" lon="6.65697">
        <ele>74.1</ele>
        <time>2025-10-26T07:54:19Z</time>
      </trkpt>
      <trkpt lat="43.49356" lon="6.65699">
        <ele>74.1</ele>
        <time>2025-10-26T07:54:20Z</time>
      </trkpt>
      <trkpt lat="43.49357" lon="6.657">
        <ele>74.1</ele>
        <time>2025-10-26T07:54:21Z</time>
      </trkpt>
      <trkpt lat="43.49358" lon="6.65702">
        <ele>74.2</ele>
        <time>2025-10-26T07:54:22Z</time>
      </trkpt>
      <trkpt lat="43.49359" lon="6.65703">
        <ele>74.2</ele>
        <time>2025-10-26T07:54:23Z</time>
      </trkpt>
      <trkpt lat="43.4936" lon="6.65704">
        <ele>74.2</ele>
        <time>2025-10-26T07:54:24Z</time>
      </trkpt>
      <trkpt lat="43.4936" lon="6.65705">
        <ele>74.1</ele>
        <time>2025-10-26T07:54:25Z</time>
      </trkpt>
      <trkpt lat="43.49361" lon="6.65707">
        <ele>74.1</ele>
        <time>2025-10-26T07:54:26Z</time>
      </trkpt>
      <trkpt lat="43.49361" lon="6.65708">
        <ele>74.1</ele>
        <time>2025-10-26T07:54:27Z</time>
      </trkpt>
      <trkpt lat="43.49362" lon="6.6571">
        <ele>74.1</ele>
        <time>2025-10-26T07:54:28Z</time>
      </trkpt>
      <trkpt lat="43.49363" lon="6.65711">
        <ele>74.2</ele>
        <time>2025-10-26T07:54:29Z</time>
      </trkpt>
      <trkpt lat="43.49363" lon="6.65712">
        <ele>74.4</ele>
        <time>2025-10-26T07:54:30Z</time>
      </trkpt>
      <trkpt lat="43.49364" lon="6.65714">
        <ele>74.4</ele>
        <time>2025-10-26T07:54:31Z</time>
      </trkpt>
      <trkpt lat="43.49365" lon="6.65715">
        <ele>74.4</ele>
        <time>2025-10-26T07:54:32Z</time>
      </trkpt>
      <trkpt lat="43.49366" lon="6.65716">
        <ele>74.4</ele>
        <time>2025-10-26T07:54:33Z</time>
      </trkpt>
      <trkpt lat="43.49367" lon="6.65718">
        <ele>74.4</ele>
        <time>2025-10-26T07:54:34Z</time>
      </trkpt>
      <trkpt lat="43.49367" lon="6.65719">
        <ele>74.5</ele>
        <time>2025-10-26T07:54:35Z</time>
      </trkpt>
      <trkpt lat="43.49368" lon="6.65721">
        <ele>74.5</ele>
        <time>2025-10-26T07:54:36Z</time>
      </trkpt>
      <trkpt lat="43.49369" lon="6.65722">
        <ele>74.5</ele>
        <time>2025-10-26T07:54:37Z</time>
      </trkpt>
      <trkpt lat="43.49369" lon="6.65724">
        <ele>74.3</ele>
        <time>2025-10-26T07:54:38Z</time>
      </trkpt>
      <trkpt lat="43.4937" lon="6.65725">
        <ele>74</ele>
        <time>2025-10-26T07:54:39Z</time>
      </trkpt>
      <trkpt lat="43.49371" lon="6.65726">
        <ele>73.8</ele>
        <time>2025-10-26T07:54:40Z</time>
      </trkpt>
      <trkpt lat="43.49372" lon="6.65727">
        <ele>73.7</ele>
        <time>2025-10-26T07:54:41Z</time>
      </trkpt>
      <trkpt lat="43.49373" lon="6.65729">
        <ele>73.5</ele>
        <time>2025-10-26T07:54:42Z</time>
      </trkpt>
      <trkpt lat="43.49374" lon="6.65729">
        <ele>73.4</ele>
        <time>2025-10-26T07:54:43Z</time>
      </trkpt>
      <trkpt lat="43.49374" lon="6.65731">
        <ele>73.3</ele>
        <time>2025-10-26T07:54:44Z</time>
      </trkpt>
      <trkpt lat="43.49375" lon="6.65733">
        <ele>73.3</ele>
        <time>2025-10-26T07:54:45Z</time>
      </trkpt>
      <trkpt lat="43.49376" lon="6.65735">
        <ele>73.2</ele>
        <time>2025-10-26T07:54:46Z</time>
      </trkpt>
      <trkpt lat="43.49376" lon="6.65736">
        <ele>73.2</ele>
        <time>2025-10-26T07:54:47Z</time>
      </trkpt>
      <trkpt lat="43.49377" lon="6.65738">
        <ele>73.2</ele>
        <time>2025-10-26T07:54:48Z</time>
      </trkpt>
      <trkpt lat="43.49377" lon="6.65739">
        <ele>73.2</ele>
        <time>2025-10-26T07:54:49Z</time>
      </trkpt>
      <trkpt lat="43.49378" lon="6.65741">
        <ele>73.2</ele>
        <time>2025-10-26T07:54:50Z</time>
      </trkpt>
      <trkpt lat="43.49378" lon="6.65742">
        <ele>73.2</ele>
        <time>2025-10-26T07:54:51Z</time>
      </trkpt>
      <trkpt lat="43.49379" lon="6.65744">
        <ele>73.3</ele>
        <time>2025-10-26T07:54:52Z</time>
      </trkpt>
      <trkpt lat="43.49379" lon="6.65745">
        <ele>73.3</ele>
        <time>2025-10-26T07:54:53Z</time>
      </trkpt>
      <trkpt lat="43.49379" lon="6.65746">
        <ele>73.4</ele>
        <time>2025-10-26T07:54:54Z</time>
      </trkpt>
      <trkpt lat="43.4938" lon="6.65748">
        <ele>73.4</ele>
        <time>2025-10-26T07:54:55Z</time>
      </trkpt>
      <trkpt lat="43.49381" lon="6.65749">
        <ele>73.5</ele>
        <time>2025-10-26T07:54:56Z</time>
      </trkpt>
      <trkpt lat="43.49381" lon="6.6575">
        <ele>73.5</ele>
        <time>2025-10-26T07:54:57Z</time>
      </trkpt>
      <trkpt lat="43.49381" lon="6.65751">
        <ele>73.6</ele>
        <time>2025-10-26T07:54:58Z</time>
      </trkpt>
      <trkpt lat="43.49382" lon="6.65753">
        <ele>73.6</ele>
        <time>2025-10-26T07:54:59Z</time>
      </trkpt>
      <trkpt lat="43.49382" lon="6.65755">
        <ele>73.6</ele>
        <time>2025-10-26T07:55:00Z</time>
      </trkpt>
      <trkpt lat="43.49382" lon="6.65756">
        <ele>73.6</ele>
        <time>2025-10-26T07:55:01Z</time>
      </trkpt>
      <trkpt lat="43.49383" lon="6.65758">
        <ele>73.6</ele>
        <time>2025-10-26T07:55:02Z</time>
      </trkpt>
      <trkpt lat="43.49383" lon="6.6576">
        <ele>73.7</ele>
        <time>2025-10-26T07:55:03Z</time>
      </trkpt>
      <trkpt lat="43.49384" lon="6.65761">
        <ele>73.7</ele>
        <time>2025-10-26T07:55:04Z</time>
      </trkpt>
      <trkpt lat="43.49384" lon="6.65764">
        <ele>73.8</ele>
        <time>2025-10-26T07:55:05Z</time>
      </trkpt>
      <trkpt lat="43.49384" lon="6.65765">
        <ele>73.8</ele>
        <time>2025-10-26T07:55:06Z</time>
      </trkpt>
      <trkpt lat="43.49385" lon="6.65767">
        <ele>73.9</ele>
        <time>2025-10-26T07:55:07Z</time>
      </trkpt>
      <trkpt lat="43.49386" lon="6.65768">
        <ele>73.8</ele>
        <time>2025-10-26T07:55:08Z</time>
      </trkpt>
      <trkpt lat="43.49386" lon="6.6577">
        <ele>73.7</ele>
        <time>2025-10-26T07:55:09Z</time>
      </trkpt>
      <trkpt lat="43.49386" lon="6.65771">
        <ele>73.8</ele>
        <time>2025-10-26T07:55:10Z</time>
      </trkpt>
      <trkpt lat="43.49387" lon="6.65772">
        <ele>73.9</ele>
        <time>2025-10-26T07:55:11Z</time>
      </trkpt>
      <trkpt lat="43.49387" lon="6.65772">
        <ele>74</ele>
        <time>2025-10-26T07:55:12Z</time>
      </trkpt>
      <trkpt lat="43.49388" lon="6.65774">
        <ele>74.1</ele>
        <time>2025-10-26T07:55:13Z</time>
      </trkpt>
      <trkpt lat="43.49388" lon="6.65775">
        <ele>74.2</ele>
        <time>2025-10-26T07:55:14Z</time>
      </trkpt>
      <trkpt lat="43.49388" lon="6.65777">
        <ele>74.2</ele>
        <time>2025-10-26T07:55:15Z</time>
      </trkpt>
      <trkpt lat="43.49389" lon="6.65778">
        <ele>74.4</ele>
        <time>2025-10-26T07:55:16Z</time>
      </trkpt>
      <trkpt lat="43.49389" lon="6.6578">
        <ele>74.5</ele>
        <time>2025-10-26T07:55:17Z</time>
      </trkpt>
      <trkpt lat="43.49389" lon="6.65781">
        <ele>74.6</ele>
        <time>2025-10-26T07:55:18Z</time>
      </trkpt>
      <trkpt lat="43.49389" lon="6.65782">
        <ele>74.6</ele>
        <time>2025-10-26T07:55:19Z</time>
      </trkpt>
      <trkpt lat="43.4939" lon="6.65783">
        <ele>74.7</ele>
        <time>2025-10-26T07:55:20Z</time>
      </trkpt>
      <trkpt lat="43.4939" lon="6.65784">
        <ele>74.7</ele>
        <time>2025-10-26T07:55:21Z</time>
      </trkpt>
      <trkpt lat="43.49391" lon="6.65785">
        <ele>74.8</ele>
        <time>2025-10-26T07:55:22Z</time>
      </trkpt>
      <trkpt lat="43.49391" lon="6.65786">
        <ele>74.8</ele>
        <time>2025-10-26T07:55:23Z</time>
      </trkpt>
      <trkpt lat="43.49392" lon="6.65787">
        <ele>74.9</ele>
        <time>2025-10-26T07:55:24Z</time>
      </trkpt>
      <trkpt lat="43.49392" lon="6.65788">
        <ele>74.9</ele>
        <time>2025-10-26T07:55:25Z</time>
      </trkpt>
      <trkpt lat="43.49393" lon="6.6579">
        <ele>74.9</ele>
        <time>2025-10-26T07:55:26Z</time>
      </trkpt>
      <trkpt lat="43.49393" lon="6.65791">
        <ele>75</ele>
        <time>2025-10-26T07:55:27Z</time>
      </trkpt>
      <trkpt lat="43.49394" lon="6.65792">
        <ele>75</ele>
        <time>2025-10-26T07:55:28Z</time>
      </trkpt>
      <trkpt lat="43.49394" lon="6.65794">
        <ele>75</ele>
        <time>2025-10-26T07:55:29Z</time>
      </trkpt>
      <trkpt lat="43.49394" lon="6.65795">
        <ele>75</ele>
        <time>2025-10-26T07:55:30Z</time>
      </trkpt>
      <trkpt lat="43.49394" lon="6.65796">
        <ele>74.9</ele>
        <time>2025-10-26T07:55:31Z</time>
      </trkpt>
      <trkpt lat="43.49395" lon="6.65797">
        <ele>74.9</ele>
        <time>2025-10-26T07:55:32Z</time>
      </trkpt>
      <trkpt lat="43.49395" lon="6.65799">
        <ele>74.8</ele>
        <time>2025-10-26T07:55:33Z</time>
      </trkpt>
      <trkpt lat="43.49395" lon="6.658">
        <ele>74.8</ele>
        <time>2025-10-26T07:55:34Z</time>
      </trkpt>
      <trkpt lat="43.49396" lon="6.65802">
        <ele>74.8</ele>
        <time>2025-10-26T07:55:35Z</time>
      </trkpt>
      <trkpt lat="43.49396" lon="6.65803">
        <ele>74.8</ele>
        <time>2025-10-26T07:55:36Z</time>
      </trkpt>
      <trkpt lat="43.49397" lon="6.65804">
        <ele>74.8</ele>
        <time>2025-10-26T07:55:37Z</time>
      </trkpt>
      <trkpt lat="43.49397" lon="6.65806">
        <ele>74.8</ele>
        <time>2025-10-26T07:55:38Z</time>
      </trkpt>
      <trkpt lat="43.49398" lon="6.65808">
        <ele>74.9</ele>
        <time>2025-10-26T07:55:39Z</time>
      </trkpt>
      <trkpt lat="43.49398" lon="6.65809">
        <ele>74.9</ele>
        <time>2025-10-26T07:55:40Z</time>
      </trkpt>
      <trkpt lat="43.49398" lon="6.6581">
        <ele>74.9</ele>
        <time>2025-10-26T07:55:41Z</time>
      </trkpt>
      <trkpt lat="43.49399" lon="6.65812">
        <ele>75</ele>
        <time>2025-10-26T07:55:42Z</time>
      </trkpt>
      <trkpt lat="43.49399" lon="6.65813">
        <ele>75</ele>
        <time>2025-10-26T07:55:43Z</time>
      </trkpt>
      <trkpt lat="43.494" lon="6.65815">
        <ele>75.1</ele>
        <time>2025-10-26T07:55:44Z</time>
      </trkpt>
      <trkpt lat="43.494" lon="6.65816">
        <ele>75.2</ele>
        <time>2025-10-26T07:55:45Z</time>
      </trkpt>
      <trkpt lat="43.49401" lon="6.65817">
        <ele>75.3</ele>
        <time>2025-10-26T07:55:46Z</time>
      </trkpt>
      <trkpt lat="43.49401" lon="6.65819">
        <ele>75.4</ele>
        <time>2025-10-26T07:55:47Z</time>
      </trkpt>
      <trkpt lat="43.49401" lon="6.6582">
        <ele>75.4</ele>
        <time>2025-10-26T07:55:48Z</time>
      </trkpt>
      <trkpt lat="43.49402" lon="6.65821">
        <ele>75.4</ele>
        <time>2025-10-26T07:55:49Z</time>
      </trkpt>
      <trkpt lat="43.49402" lon="6.65823">
        <ele>75.5</ele>
        <time>2025-10-26T07:55:50Z</time>
      </trkpt>
      <trkpt lat="43.49402" lon="6.65825">
        <ele>75.6</ele>
        <time>2025-10-26T07:55:51Z</time>
      </trkpt>
      <trkpt lat="43.49402" lon="6.65826">
        <ele>75.5</ele>
        <time>2025-10-26T07:55:52Z</time>
      </trkpt>
      <trkpt lat="43.49403" lon="6.65828">
        <ele>75.5</ele>
        <time>2025-10-26T07:55:53Z</time>
      </trkpt>
      <trkpt lat="43.49403" lon="6.65829">
        <ele>75.4</ele>
        <time>2025-10-26T07:55:54Z</time>
      </trkpt>
      <trkpt lat="43.49404" lon="6.65831">
        <ele>75.4</ele>
        <time>2025-10-26T07:55:55Z</time>
      </trkpt>
      <trkpt lat="43.49404" lon="6.65832">
        <ele>75.5</ele>
        <time>2025-10-26T07:55:56Z</time>
      </trkpt>
      <trkpt lat="43.49404" lon="6.65834">
        <ele>75.5</ele>
        <time>2025-10-26T07:55:57Z</time>
      </trkpt>
      <trkpt lat="43.49405" lon="6.65835">
        <ele>75.6</ele>
        <time>2025-10-26T07:55:58Z</time>
      </trkpt>
      <trkpt lat="43.49405" lon="6.65837">
        <ele>75.5</ele>
        <time>2025-10-26T07:55:59Z</time>
      </trkpt>
      <trkpt lat="43.49405" lon="6.65838">
        <ele>75.5</ele>
        <time>2025-10-26T07:56:00Z</time>
      </trkpt>
      <trkpt lat="43.49405" lon="6.65839">
        <ele>75.4</ele>
        <time>2025-10-26T07:56:01Z</time>
      </trkpt>
      <trkpt lat="43.49405" lon="6.6584">
        <ele>75.4</ele>
        <time>2025-10-26T07:56:02Z</time>
      </trkpt>
      <trkpt lat="43.49406" lon="6.65842">
        <ele>75.3</ele>
        <time>2025-10-26T07:56:03Z</time>
      </trkpt>
      <trkpt lat="43.49406" lon="6.65843">
        <ele>75.3</ele>
        <time>2025-10-26T07:56:04Z</time>
      </trkpt>
      <trkpt lat="43.49406" lon="6.65845">
        <ele>75.2</ele>
        <time>2025-10-26T07:56:05Z</time>
      </trkpt>
      <trkpt lat="43.49406" lon="6.65847">
        <ele>75.4</ele>
        <time>2025-10-26T07:56:06Z</time>
      </trkpt>
      <trkpt lat="43.49406" lon="6.65848">
        <ele>75.4</ele>
        <time>2025-10-26T07:56:07Z</time>
      </trkpt>
      <trkpt lat="43.49406" lon="6.6585">
        <ele>75.4</ele>
        <time>2025-10-26T07:56:08Z</time>
      </trkpt>
      <trkpt lat="43.49406" lon="6.65852">
        <ele>75.5</ele>
        <time>2025-10-26T07:56:09Z</time>
      </trkpt>
      <trkpt lat="43.49406" lon="6.65853">
        <ele>75.6</ele>
        <time>2025-10-26T07:56:10Z</time>
      </trkpt>
      <trkpt lat="43.49406" lon="6.65855">
        <ele>75.6</ele>
        <time>2025-10-26T07:56:11Z</time>
      </trkpt>
      <trkpt lat="43.49406" lon="6.65856">
        <ele>75.7</ele>
        <time>2025-10-26T07:56:12Z</time>
      </trkpt>
      <trkpt lat="43.49406" lon="6.65857">
        <ele>75.7</ele>
        <time>2025-10-26T07:56:13Z</time>
      </trkpt>
      <trkpt lat="43.49406" lon="6.65858">
        <ele>75.7</ele>
        <time>2025-10-26T07:56:14Z</time>
      </trkpt>
      <trkpt lat="43.49406" lon="6.65859">
        <ele>75.7</ele>
        <time>2025-10-26T07:56:15Z</time>
      </trkpt>
      <trkpt lat="43.49406" lon="6.65861">
        <ele>75.8</ele>
        <time>2025-10-26T07:56:16Z</time>
      </trkpt>
      <trkpt lat="43.49407" lon="6.65862">
        <ele>75.9</ele>
        <time>2025-10-26T07:56:17Z</time>
      </trkpt>
      <trkpt lat="43.49407" lon="6.65863">
        <ele>76.1</ele>
        <time>2025-10-26T07:56:18Z</time>
      </trkpt>
      <trkpt lat="43.49407" lon="6.65865">
        <ele>76.3</ele>
        <time>2025-10-26T07:56:19Z</time>
      </trkpt>
      <trkpt lat="43.49407" lon="6.65866">
        <ele>76.5</ele>
        <time>2025-10-26T07:56:20Z</time>
      </trkpt>
      <trkpt lat="43.49407" lon="6.65867">
        <ele>76.6</ele>
        <time>2025-10-26T07:56:21Z</time>
      </trkpt>
      <trkpt lat="43.49407" lon="6.65868">
        <ele>76.7</ele>
        <time>2025-10-26T07:56:22Z</time>
      </trkpt>
      <trkpt lat="43.49407" lon="6.65869">
        <ele>76.8</ele>
        <time>2025-10-26T07:56:23Z</time>
      </trkpt>
      <trkpt lat="43.49407" lon="6.6587">
        <ele>76.8</ele>
        <time>2025-10-26T07:56:24Z</time>
      </trkpt>
      <trkpt lat="43.49407" lon="6.65872">
        <ele>77</ele>
        <time>2025-10-26T07:56:25Z</time>
      </trkpt>
      <trkpt lat="43.49407" lon="6.65873">
        <ele>77.1</ele>
        <time>2025-10-26T07:56:26Z</time>
      </trkpt>
      <trkpt lat="43.49407" lon="6.65875">
        <ele>77.1</ele>
        <time>2025-10-26T07:56:27Z</time>
      </trkpt>
      <trkpt lat="43.49407" lon="6.65877">
        <ele>77.1</ele>
        <time>2025-10-26T07:56:28Z</time>
      </trkpt>
      <trkpt lat="43.49408" lon="6.65879">
        <ele>77</ele>
        <time>2025-10-26T07:56:29Z</time>
      </trkpt>
      <trkpt lat="43.49407" lon="6.65881">
        <ele>77</ele>
        <time>2025-10-26T07:56:30Z</time>
      </trkpt>
      <trkpt lat="43.49408" lon="6.65882">
        <ele>76.9</ele>
        <time>2025-10-26T07:56:31Z</time>
      </trkpt>
      <trkpt lat="43.49408" lon="6.65884">
        <ele>76.9</ele>
        <time>2025-10-26T07:56:32Z</time>
      </trkpt>
      <trkpt lat="43.49408" lon="6.65885">
        <ele>76.9</ele>
        <time>2025-10-26T07:56:33Z</time>
      </trkpt>
      <trkpt lat="43.49408" lon="6.65887">
        <ele>76.9</ele>
        <time>2025-10-26T07:56:34Z</time>
      </trkpt>
      <trkpt lat="43.49408" lon="6.65888">
        <ele>76.8</ele>
        <time>2025-10-26T07:56:35Z</time>
      </trkpt>
      <trkpt lat="43.49408" lon="6.6589">
        <ele>76.7</ele>
        <time>2025-10-26T07:56:36Z</time>
      </trkpt>
      <trkpt lat="43.49408" lon="6.65892">
        <ele>76.8</ele>
        <time>2025-10-26T07:56:37Z</time>
      </trkpt>
      <trkpt lat="43.49408" lon="6.65894">
        <ele>76.8</ele>
        <time>2025-10-26T07:56:38Z</time>
      </trkpt>
      <trkpt lat="43.49407" lon="6.65896">
        <ele>76.8</ele>
        <time>2025-10-26T07:56:39Z</time>
      </trkpt>
      <trkpt lat="43.49407" lon="6.65897">
        <ele>76.8</ele>
        <time>2025-10-26T07:56:40Z</time>
      </trkpt>
      <trkpt lat="43.49406" lon="6.65899">
        <ele>76.8</ele>
        <time>2025-10-26T07:56:41Z</time>
      </trkpt>
      <trkpt lat="43.49406" lon="6.659">
        <ele>76.8</ele>
        <time>2025-10-26T07:56:42Z</time>
      </trkpt>
      <trkpt lat="43.49405" lon="6.65902">
        <ele>76.7</ele>
        <time>2025-10-26T07:56:43Z</time>
      </trkpt>
      <trkpt lat="43.49405" lon="6.65903">
        <ele>76.7</ele>
        <time>2025-10-26T07:56:44Z</time>
      </trkpt>
      <trkpt lat="43.49404" lon="6.65904">
        <ele>76.7</ele>
        <time>2025-10-26T07:56:45Z</time>
      </trkpt>
      <trkpt lat="43.49404" lon="6.65905">
        <ele>76.7</ele>
        <time>2025-10-26T07:56:46Z</time>
      </trkpt>
      <trkpt lat="43.49403" lon="6.65907">
        <ele>76.7</ele>
        <time>2025-10-26T07:56:47Z</time>
      </trkpt>
      <trkpt lat="43.49402" lon="6.65909">
        <ele>76.7</ele>
        <time>2025-10-26T07:56:48Z</time>
      </trkpt>
      <trkpt lat="43.49402" lon="6.65911">
        <ele>76.7</ele>
        <time>2025-10-26T07:56:49Z</time>
      </trkpt>
      <trkpt lat="43.49401" lon="6.65912">
        <ele>76.8</ele>
        <time>2025-10-26T07:56:50Z</time>
      </trkpt>
      <trkpt lat="43.494" lon="6.65913">
        <ele>76.8</ele>
        <time>2025-10-26T07:56:51Z</time>
      </trkpt>
      <trkpt lat="43.494" lon="6.65915">
        <ele>76.9</ele>
        <time>2025-10-26T07:56:52Z</time>
      </trkpt>
      <trkpt lat="43.49399" lon="6.65915">
        <ele>77</ele>
        <time>2025-10-26T07:56:53Z</time>
      </trkpt>
      <trkpt lat="43.49398" lon="6.65916">
        <ele>77.1</ele>
        <time>2025-10-26T07:56:54Z</time>
      </trkpt>
      <trkpt lat="43.49398" lon="6.65917">
        <ele>77.1</ele>
        <time>2025-10-26T07:56:55Z</time>
      </trkpt>
      <trkpt lat="43.49397" lon="6.65918">
        <ele>77.2</ele>
        <time>2025-10-26T07:56:56Z</time>
      </trkpt>
      <trkpt lat="43.49396" lon="6.65919">
        <ele>77.2</ele>
        <time>2025-10-26T07:56:57Z</time>
      </trkpt>
      <trkpt lat="43.49395" lon="6.6592">
        <ele>77.3</ele>
        <time>2025-10-26T07:56:58Z</time>
      </trkpt>
      <trkpt lat="43.49394" lon="6.6592">
        <ele>77.3</ele>
        <time>2025-10-26T07:56:59Z</time>
      </trkpt>
      <trkpt lat="43.49393" lon="6.65921">
        <ele>77.4</ele>
        <time>2025-10-26T07:57:00Z</time>
      </trkpt>
      <trkpt lat="43.49392" lon="6.65921">
        <ele>77.6</ele>
        <time>2025-10-26T07:57:01Z</time>
      </trkpt>
      <trkpt lat="43.49392" lon="6.65922">
        <ele>77.6</ele>
        <time>2025-10-26T07:57:02Z</time>
      </trkpt>
      <trkpt lat="43.49391" lon="6.65923">
        <ele>77.7</ele>
        <time>2025-10-26T07:57:03Z</time>
      </trkpt>
      <trkpt lat="43.4939" lon="6.65924">
        <ele>77.7</ele>
        <time>2025-10-26T07:57:04Z</time>
      </trkpt>
      <trkpt lat="43.49389" lon="6.65925">
        <ele>77.8</ele>
        <time>2025-10-26T07:57:05Z</time>
      </trkpt>
      <trkpt lat="43.49389" lon="6.65926">
        <ele>77.9</ele>
        <time>2025-10-26T07:57:06Z</time>
      </trkpt>
      <trkpt lat="43.49388" lon="6.65927">
        <ele>78</ele>
        <time>2025-10-26T07:57:07Z</time>
      </trkpt>
      <trkpt lat="43.49387" lon="6.65928">
        <ele>78.1</ele>
        <time>2025-10-26T07:57:08Z</time>
      </trkpt>
      <trkpt lat="43.49387" lon="6.65929">
        <ele>78.2</ele>
        <time>2025-10-26T07:57:09Z</time>
      </trkpt>
      <trkpt lat="43.49386" lon="6.6593">
        <ele>78.3</ele>
        <time>2025-10-26T07:57:10Z</time>
      </trkpt>
      <trkpt lat="43.49385" lon="6.65931">
        <ele>78.4</ele>
        <time>2025-10-26T07:57:11Z</time>
      </trkpt>
      <trkpt lat="43.49384" lon="6.65931">
        <ele>78.6</ele>
        <time>2025-10-26T07:57:12Z</time>
      </trkpt>
      <trkpt lat="43.49384" lon="6.65932">
        <ele>78.6</ele>
        <time>2025-10-26T07:57:13Z</time>
      </trkpt>
      <trkpt lat="43.49383" lon="6.65934">
        <ele>78.7</ele>
        <time>2025-10-26T07:57:14Z</time>
      </trkpt>
      <trkpt lat="43.49382" lon="6.65935">
        <ele>78.8</ele>
        <time>2025-10-26T07:57:15Z</time>
      </trkpt>
      <trkpt lat="43.49382" lon="6.65936">
        <ele>79</ele>
        <time>2025-10-26T07:57:16Z</time>
      </trkpt>
      <trkpt lat="43.49381" lon="6.65937">
        <ele>79.1</ele>
        <time>2025-10-26T07:57:17Z</time>
      </trkpt>
      <trkpt lat="43.49381" lon="6.65937">
        <ele>79.2</ele>
        <time>2025-10-26T07:57:18Z</time>
      </trkpt>
      <trkpt lat="43.49381" lon="6.65938">
        <ele>79.3</ele>
        <time>2025-10-26T07:57:19Z</time>
      </trkpt>
      <trkpt lat="43.4938" lon="6.65939">
        <ele>79.4</ele>
        <time>2025-10-26T07:57:20Z</time>
      </trkpt>
      <trkpt lat="43.49379" lon="6.65939">
        <ele>79.6</ele>
        <time>2025-10-26T07:57:21Z</time>
      </trkpt>
      <trkpt lat="43.49378" lon="6.65941">
        <ele>79.7</ele>
        <time>2025-10-26T07:57:22Z</time>
      </trkpt>
      <trkpt lat="43.49377" lon="6.65942">
        <ele>79.8</ele>
        <time>2025-10-26T07:57:23Z</time>
      </trkpt>
      <trkpt lat="43.49377" lon="6.65943">
        <ele>80</ele>
        <time>2025-10-26T07:57:24Z</time>
      </trkpt>
      <trkpt lat="43.49376" lon="6.65945">
        <ele>80.2</ele>
        <time>2025-10-26T07:57:25Z</time>
      </trkpt>
      <trkpt lat="43.49376" lon="6.65946">
        <ele>80.3</ele>
        <time>2025-10-26T07:57:26Z</time>
      </trkpt>
      <trkpt lat="43.49376" lon="6.65948">
        <ele>80.4</ele>
        <time>2025-10-26T07:57:27Z</time>
      </trkpt>
      <trkpt lat="43.49375" lon="6.65949">
        <ele>80.6</ele>
        <time>2025-10-26T07:57:28Z</time>
      </trkpt>
      <trkpt lat="43.49375" lon="6.65951">
        <ele>80.7</ele>
        <time>2025-10-26T07:57:29Z</time>
      </trkpt>
      <trkpt lat="43.49374" lon="6.65953">
        <ele>80.8</ele>
        <time>2025-10-26T07:57:30Z</time>
      </trkpt>
      <trkpt lat="43.49373" lon="6.65954">
        <ele>80.9</ele>
        <time>2025-10-26T07:57:31Z</time>
      </trkpt>
      <trkpt lat="43.49373" lon="6.65956">
        <ele>81.2</ele>
        <time>2025-10-26T07:57:32Z</time>
      </trkpt>
      <trkpt lat="43.49372" lon="6.65957">
        <ele>81.3</ele>
        <time>2025-10-26T07:57:33Z</time>
      </trkpt>
      <trkpt lat="43.49372" lon="6.65958">
        <ele>81.3</ele>
        <time>2025-10-26T07:57:34Z</time>
      </trkpt>
      <trkpt lat="43.49372" lon="6.6596">
        <ele>81.4</ele>
        <time>2025-10-26T07:57:35Z</time>
      </trkpt>
      <trkpt lat="43.49372" lon="6.65961">
        <ele>81.4</ele>
        <time>2025-10-26T07:57:36Z</time>
      </trkpt>
      <trkpt lat="43.49371" lon="6.65963">
        <ele>81.6</ele>
        <time>2025-10-26T07:57:37Z</time>
      </trkpt>
      <trkpt lat="43.4937" lon="6.65964">
        <ele>81.7</ele>
        <time>2025-10-26T07:57:38Z</time>
      </trkpt>
      <trkpt lat="43.4937" lon="6.65966">
        <ele>81.8</ele>
        <time>2025-10-26T07:57:39Z</time>
      </trkpt>
      <trkpt lat="43.4937" lon="6.65967">
        <ele>81.9</ele>
        <time>2025-10-26T07:57:40Z</time>
      </trkpt>
      <trkpt lat="43.4937" lon="6.65969">
        <ele>82</ele>
        <time>2025-10-26T07:57:41Z</time>
      </trkpt>
      <trkpt lat="43.4937" lon="6.65971">
        <ele>82</ele>
        <time>2025-10-26T07:57:42Z</time>
      </trkpt>
      <trkpt lat="43.49369" lon="6.65972">
        <ele>82.1</ele>
        <time>2025-10-26T07:57:43Z</time>
      </trkpt>
      <trkpt lat="43.4937" lon="6.65974">
        <ele>82.1</ele>
        <time>2025-10-26T07:57:44Z</time>
      </trkpt>
      <trkpt lat="43.4937" lon="6.65976">
        <ele>82.3</ele>
        <time>2025-10-26T07:57:45Z</time>
      </trkpt>
      <trkpt lat="43.4937" lon="6.65978">
        <ele>82.4</ele>
        <time>2025-10-26T07:57:46Z</time>
      </trkpt>
      <trkpt lat="43.49369" lon="6.65979">
        <ele>82.5</ele>
        <time>2025-10-26T07:57:47Z</time>
      </trkpt>
      <trkpt lat="43.49369" lon="6.65981">
        <ele>82.4</ele>
        <time>2025-10-26T07:57:48Z</time>
      </trkpt>
      <trkpt lat="43.49368" lon="6.65982">
        <ele>82.5</ele>
        <time>2025-10-26T07:57:49Z</time>
      </trkpt>
      <trkpt lat="43.49368" lon="6.65984">
        <ele>82.6</ele>
        <time>2025-10-26T07:57:50Z</time>
      </trkpt>
      <trkpt lat="43.49368" lon="6.65985">
        <ele>82.6</ele>
        <time>2025-10-26T07:57:51Z</time>
      </trkpt>
      <trkpt lat="43.49368" lon="6.65987">
        <ele>82.7</ele>
        <time>2025-10-26T07:57:52Z</time>
      </trkpt>
      <trkpt lat="43.49368" lon="6.65988">
        <ele>82.7</ele>
        <time>2025-10-26T07:57:53Z</time>
      </trkpt>
      <trkpt lat="43.49368" lon="6.6599">
        <ele>82.7</ele>
        <time>2025-10-26T07:57:54Z</time>
      </trkpt>
      <trkpt lat="43.49368" lon="6.65991">
        <ele>82.7</ele>
        <time>2025-10-26T07:57:55Z</time>
      </trkpt>
      <trkpt lat="43.49368" lon="6.65993">
        <ele>82.8</ele>
        <time>2025-10-26T07:57:56Z</time>
      </trkpt>
      <trkpt lat="43.49368" lon="6.65994">
        <ele>82.9</ele>
        <time>2025-10-26T07:57:57Z</time>
      </trkpt>
      <trkpt lat="43.49368" lon="6.65995">
        <ele>83</ele>
        <time>2025-10-26T07:57:58Z</time>
      </trkpt>
      <trkpt lat="43.49367" lon="6.65997">
        <ele>83.1</ele>
        <time>2025-10-26T07:57:59Z</time>
      </trkpt>
      <trkpt lat="43.49367" lon="6.65999">
        <ele>83.2</ele>
        <time>2025-10-26T07:58:00Z</time>
      </trkpt>
      <trkpt lat="43.49368" lon="6.66001">
        <ele>83.3</ele>
        <time>2025-10-26T07:58:01Z</time>
      </trkpt>
      <trkpt lat="43.49368" lon="6.66002">
        <ele>83.5</ele>
        <time>2025-10-26T07:58:02Z</time>
      </trkpt>
      <trkpt lat="43.49368" lon="6.66003">
        <ele>83.6</ele>
        <time>2025-10-26T07:58:03Z</time>
      </trkpt>
      <trkpt lat="43.49368" lon="6.66005">
        <ele>83.8</ele>
        <time>2025-10-26T07:58:04Z</time>
      </trkpt>
      <trkpt lat="43.49368" lon="6.66006">
        <ele>83.9</ele>
        <time>2025-10-26T07:58:05Z</time>
      </trkpt>
      <trkpt lat="43.49369" lon="6.66008">
        <ele>83.9</ele>
        <time>2025-10-26T07:58:06Z</time>
      </trkpt>
      <trkpt lat="43.49369" lon="6.6601">
        <ele>83.9</ele>
        <time>2025-10-26T07:58:07Z</time>
      </trkpt>
      <trkpt lat="43.49369" lon="6.66011">
        <ele>84</ele>
        <time>2025-10-26T07:58:08Z</time>
      </trkpt>
      <trkpt lat="43.49369" lon="6.66013">
        <ele>84.1</ele>
        <time>2025-10-26T07:58:09Z</time>
      </trkpt>
      <trkpt lat="43.4937" lon="6.66015">
        <ele>84.1</ele>
        <time>2025-10-26T07:58:10Z</time>
      </trkpt>
      <trkpt lat="43.4937" lon="6.66016">
        <ele>84.1</ele>
        <time>2025-10-26T07:58:11Z</time>
      </trkpt>
      <trkpt lat="43.49371" lon="6.66018">
        <ele>84.2</ele>
        <time>2025-10-26T07:58:12Z</time>
      </trkpt>
      <trkpt lat="43.49371" lon="6.6602">
        <ele>84.2</ele>
        <time>2025-10-26T07:58:13Z</time>
      </trkpt>
      <trkpt lat="43.49372" lon="6.66021">
        <ele>84.2</ele>
        <time>2025-10-26T07:58:14Z</time>
      </trkpt>
      <trkpt lat="43.49373" lon="6.66022">
        <ele>84.2</ele>
        <time>2025-10-26T07:58:15Z</time>
      </trkpt>
      <trkpt lat="43.49373" lon="6.66024">
        <ele>84.3</ele>
        <time>2025-10-26T07:58:16Z</time>
      </trkpt>
      <trkpt lat="43.49374" lon="6.66026">
        <ele>84.4</ele>
        <time>2025-10-26T07:58:17Z</time>
      </trkpt>
      <trkpt lat="43.49374" lon="6.66027">
        <ele>84.4</ele>
        <time>2025-10-26T07:58:18Z</time>
      </trkpt>
      <trkpt lat="43.49374" lon="6.66029">
        <ele>84.3</ele>
        <time>2025-10-26T07:58:19Z</time>
      </trkpt>
      <trkpt lat="43.49375" lon="6.6603">
        <ele>84.4</ele>
        <time>2025-10-26T07:58:20Z</time>
      </trkpt>
      <trkpt lat="43.49376" lon="6.66032">
        <ele>84.3</ele>
        <time>2025-10-26T07:58:21Z</time>
      </trkpt>
      <trkpt lat="43.49377" lon="6.66033">
        <ele>84.4</ele>
        <time>2025-10-26T07:58:22Z</time>
      </trkpt>
      <trkpt lat="43.49377" lon="6.66034">
        <ele>84.4</ele>
        <time>2025-10-26T07:58:23Z</time>
      </trkpt>
      <trkpt lat="43.49378" lon="6.66036">
        <ele>84.4</ele>
        <time>2025-10-26T07:58:24Z</time>
      </trkpt>
      <trkpt lat="43.49378" lon="6.66037">
        <ele>84.4</ele>
        <time>2025-10-26T07:58:25Z</time>
      </trkpt>
      <trkpt lat="43.49379" lon="6.66039">
        <ele>84.5</ele>
        <time>2025-10-26T07:58:26Z</time>
      </trkpt>
      <trkpt lat="43.49379" lon="6.66041">
        <ele>84.5</ele>
        <time>2025-10-26T07:58:27Z</time>
      </trkpt>
      <trkpt lat="43.4938" lon="6.66042">
        <ele>84.5</ele>
        <time>2025-10-26T07:58:28Z</time>
      </trkpt>
      <trkpt lat="43.4938" lon="6.66043">
        <ele>84.5</ele>
        <time>2025-10-26T07:58:29Z</time>
      </trkpt>
      <trkpt lat="43.49381" lon="6.66044">
        <ele>84.6</ele>
        <time>2025-10-26T07:58:30Z</time>
      </trkpt>
      <trkpt lat="43.49381" lon="6.66046">
        <ele>84.6</ele>
        <time>2025-10-26T07:58:31Z</time>
      </trkpt>
      <trkpt lat="43.49382" lon="6.66047">
        <ele>84.7</ele>
        <time>2025-10-26T07:58:32Z</time>
      </trkpt>
      <trkpt lat="43.49382" lon="6.66049">
        <ele>84.7</ele>
        <time>2025-10-26T07:58:33Z</time>
      </trkpt>
      <trkpt lat="43.49382" lon="6.6605">
        <ele>84.8</ele>
        <time>2025-10-26T07:58:34Z</time>
      </trkpt>
      <trkpt lat="43.49382" lon="6.66051">
        <ele>84.8</ele>
        <time>2025-10-26T07:58:35Z</time>
      </trkpt>
      <trkpt lat="43.49382" lon="6.66051">
        <ele>85</ele>
        <time>2025-10-26T07:58:36Z</time>
      </trkpt>
      <trkpt lat="43.49382" lon="6.66052">
        <ele>85</ele>
        <time>2025-10-26T07:58:37Z</time>
      </trkpt>
      <trkpt lat="43.49382" lon="6.66054">
        <ele>85.1</ele>
        <time>2025-10-26T07:58:38Z</time>
      </trkpt>
      <trkpt lat="43.49382" lon="6.66056">
        <ele>85.1</ele>
        <time>2025-10-26T07:58:39Z</time>
      </trkpt>
      <trkpt lat="43.49382" lon="6.66058">
        <ele>85.1</ele>
        <time>2025-10-26T07:58:40Z</time>
      </trkpt>
      <trkpt lat="43.49381" lon="6.6606">
        <ele>85</ele>
        <time>2025-10-26T07:58:41Z</time>
      </trkpt>
      <trkpt lat="43.49381" lon="6.66062">
        <ele>85</ele>
        <time>2025-10-26T07:58:42Z</time>
      </trkpt>
      <trkpt lat="43.49381" lon="6.66063">
        <ele>85</ele>
        <time>2025-10-26T07:58:43Z</time>
      </trkpt>
      <trkpt lat="43.49382" lon="6.66064">
        <ele>85</ele>
        <time>2025-10-26T07:58:44Z</time>
      </trkpt>
      <trkpt lat="43.49382" lon="6.66066">
        <ele>85</ele>
        <time>2025-10-26T07:58:45Z</time>
      </trkpt>
      <trkpt lat="43.49382" lon="6.66067">
        <ele>85</ele>
        <time>2025-10-26T07:58:46Z</time>
      </trkpt>
      <trkpt lat="43.49382" lon="6.66069">
        <ele>85.2</ele>
        <time>2025-10-26T07:58:47Z</time>
      </trkpt>
      <trkpt lat="43.49382" lon="6.6607">
        <ele>85.1</ele>
        <time>2025-10-26T07:58:48Z</time>
      </trkpt>
      <trkpt lat="43.49382" lon="6.66072">
        <ele>85.1</ele>
        <time>2025-10-26T07:58:49Z</time>
      </trkpt>
      <trkpt lat="43.49382" lon="6.66074">
        <ele>85</ele>
        <time>2025-10-26T07:58:50Z</time>
      </trkpt>
      <trkpt lat="43.49382" lon="6.66075">
        <ele>84.9</ele>
        <time>2025-10-26T07:58:51Z</time>
      </trkpt>
      <trkpt lat="43.49382" lon="6.66078">
        <ele>84.9</ele>
        <time>2025-10-26T07:58:52Z</time>
      </trkpt>
      <trkpt lat="43.49382" lon="6.66079">
        <ele>84.8</ele>
        <time>2025-10-26T07:58:53Z</time>
      </trkpt>
      <trkpt lat="43.49382" lon="6.66081">
        <ele>84.9</ele>
        <time>2025-10-26T07:58:54Z</time>
      </trkpt>
      <trkpt lat="43.49383" lon="6.66083">
        <ele>84.9</ele>
        <time>2025-10-26T07:58:55Z</time>
      </trkpt>
      <trkpt lat="43.49383" lon="6.66085">
        <ele>84.9</ele>
        <time>2025-10-26T07:58:56Z</time>
      </trkpt>
      <trkpt lat="43.49383" lon="6.66087">
        <ele>84.8</ele>
        <time>2025-10-26T07:58:57Z</time>
      </trkpt>
      <trkpt lat="43.49383" lon="6.66089">
        <ele>84.7</ele>
        <time>2025-10-26T07:58:58Z</time>
      </trkpt>
      <trkpt lat="43.49383" lon="6.6609">
        <ele>84.6</ele>
        <time>2025-10-26T07:58:59Z</time>
      </trkpt>
      <trkpt lat="43.49383" lon="6.66092">
        <ele>84.6</ele>
        <time>2025-10-26T07:59:00Z</time>
      </trkpt>
      <trkpt lat="43.49383" lon="6.66094">
        <ele>84.6</ele>
        <time>2025-10-26T07:59:01Z</time>
      </trkpt>
      <trkpt lat="43.49383" lon="6.66096">
        <ele>84.6</ele>
        <time>2025-10-26T07:59:02Z</time>
      </trkpt>
      <trkpt lat="43.49383" lon="6.66097">
        <ele>84.7</ele>
        <time>2025-10-26T07:59:03Z</time>
      </trkpt>
      <trkpt lat="43.49383" lon="6.66099">
        <ele>84.7</ele>
        <time>2025-10-26T07:59:04Z</time>
      </trkpt>
      <trkpt lat="43.49384" lon="6.661">
        <ele>84.7</ele>
        <time>2025-10-26T07:59:05Z</time>
      </trkpt>
      <trkpt lat="43.49384" lon="6.66102">
        <ele>84.7</ele>
        <time>2025-10-26T07:59:06Z</time>
      </trkpt>
      <trkpt lat="43.49384" lon="6.66103">
        <ele>84.7</ele>
        <time>2025-10-26T07:59:07Z</time>
      </trkpt>
      <trkpt lat="43.49384" lon="6.66104">
        <ele>84.8</ele>
        <time>2025-10-26T07:59:08Z</time>
      </trkpt>
      <trkpt lat="43.49384" lon="6.66106">
        <ele>84.7</ele>
        <time>2025-10-26T07:59:09Z</time>
      </trkpt>
      <trkpt lat="43.49384" lon="6.66108">
        <ele>84.8</ele>
        <time>2025-10-26T07:59:10Z</time>
      </trkpt>
      <trkpt lat="43.49384" lon="6.66109">
        <ele>84.9</ele>
        <time>2025-10-26T07:59:11Z</time>
      </trkpt>
      <trkpt lat="43.49384" lon="6.66111">
        <ele>85.1</ele>
        <time>2025-10-26T07:59:12Z</time>
      </trkpt>
      <trkpt lat="43.49384" lon="6.66112">
        <ele>85.3</ele>
        <time>2025-10-26T07:59:13Z</time>
      </trkpt>
      <trkpt lat="43.49383" lon="6.66114">
        <ele>85.4</ele>
        <time>2025-10-26T07:59:14Z</time>
      </trkpt>
      <trkpt lat="43.49383" lon="6.66115">
        <ele>85.5</ele>
        <time>2025-10-26T07:59:15Z</time>
      </trkpt>
      <trkpt lat="43.49383" lon="6.66116">
        <ele>85.5</ele>
        <time>2025-10-26T07:59:16Z</time>
      </trkpt>
      <trkpt lat="43.49383" lon="6.66118">
        <ele>85.5</ele>
        <time>2025-10-26T07:59:17Z</time>
      </trkpt>
      <trkpt lat="43.49383" lon="6.6612">
        <ele>85.5</ele>
        <time>2025-10-26T07:59:18Z</time>
      </trkpt>
      <trkpt lat="43.49383" lon="6.66121">
        <ele>85.6</ele>
        <time>2025-10-26T07:59:19Z</time>
      </trkpt>
      <trkpt lat="43.49384" lon="6.66123">
        <ele>85.6</ele>
        <time>2025-10-26T07:59:20Z</time>
      </trkpt>
      <trkpt lat="43.49384" lon="6.66124">
        <ele>85.7</ele>
        <time>2025-10-26T07:59:21Z</time>
      </trkpt>
      <trkpt lat="43.49384" lon="6.66125">
        <ele>85.7</ele>
        <time>2025-10-26T07:59:22Z</time>
      </trkpt>
      <trkpt lat="43.49384" lon="6.66127">
        <ele>85.8</ele>
        <time>2025-10-26T07:59:23Z</time>
      </trkpt>
      <trkpt lat="43.49384" lon="6.66128">
        <ele>85.9</ele>
        <time>2025-10-26T07:59:24Z</time>
      </trkpt>
      <trkpt lat="43.49385" lon="6.6613">
        <ele>85.9</ele>
        <time>2025-10-26T07:59:25Z</time>
      </trkpt>
      <trkpt lat="43.49385" lon="6.66132">
        <ele>85.9</ele>
        <time>2025-10-26T07:59:26Z</time>
      </trkpt>
      <trkpt lat="43.49385" lon="6.66133">
        <ele>86</ele>
        <time>2025-10-26T07:59:27Z</time>
      </trkpt>
      <trkpt lat="43.49385" lon="6.66134">
        <ele>86</ele>
        <time>2025-10-26T07:59:28Z</time>
      </trkpt>
      <trkpt lat="43.49386" lon="6.66135">
        <ele>86.1</ele>
        <time>2025-10-26T07:59:29Z</time>
      </trkpt>
      <trkpt lat="43.49386" lon="6.66137">
        <ele>86.2</ele>
        <time>2025-10-26T07:59:30Z</time>
      </trkpt>
      <trkpt lat="43.49386" lon="6.66138">
        <ele>86.3</ele>
        <time>2025-10-26T07:59:31Z</time>
      </trkpt>
      <trkpt lat="43.49386" lon="6.6614">
        <ele>86.3</ele>
        <time>2025-10-26T07:59:32Z</time>
      </trkpt>
      <trkpt lat="43.49387" lon="6.66141">
        <ele>86.3</ele>
        <time>2025-10-26T07:59:33Z</time>
      </trkpt>
      <trkpt lat="43.49387" lon="6.66143">
        <ele>86.2</ele>
        <time>2025-10-26T07:59:34Z</time>
      </trkpt>
      <trkpt lat="43.49387" lon="6.66145">
        <ele>86.2</ele>
        <time>2025-10-26T07:59:35Z</time>
      </trkpt>
      <trkpt lat="43.49387" lon="6.66147">
        <ele>86.2</ele>
        <time>2025-10-26T07:59:36Z</time>
      </trkpt>
      <trkpt lat="43.49387" lon="6.66148">
        <ele>86.3</ele>
        <time>2025-10-26T07:59:37Z</time>
      </trkpt>
      <trkpt lat="43.49388" lon="6.6615">
        <ele>86.3</ele>
        <time>2025-10-26T07:59:38Z</time>
      </trkpt>
      <trkpt lat="43.49388" lon="6.66151">
        <ele>86.4</ele>
        <time>2025-10-26T07:59:39Z</time>
      </trkpt>
      <trkpt lat="43.49389" lon="6.66153">
        <ele>86.5</ele>
        <time>2025-10-26T07:59:40Z</time>
      </trkpt>
      <trkpt lat="43.49389" lon="6.66155">
        <ele>86.5</ele>
        <time>2025-10-26T07:59:41Z</time>
      </trkpt>
      <trkpt lat="43.49389" lon="6.66156">
        <ele>86.2</ele>
        <time>2025-10-26T07:59:42Z</time>
      </trkpt>
      <trkpt lat="43.49389" lon="6.66157">
        <ele>86.1</ele>
        <time>2025-10-26T07:59:43Z</time>
      </trkpt>
      <trkpt lat="43.4939" lon="6.66159">
        <ele>86.1</ele>
        <time>2025-10-26T07:59:44Z</time>
      </trkpt>
      <trkpt lat="43.4939" lon="6.6616">
        <ele>86</ele>
        <time>2025-10-26T07:59:45Z</time>
      </trkpt>
      <trkpt lat="43.4939" lon="6.66162">
        <ele>85.9</ele>
        <time>2025-10-26T07:59:46Z</time>
      </trkpt>
      <trkpt lat="43.49391" lon="6.66163">
        <ele>85.8</ele>
        <time>2025-10-26T07:59:47Z</time>
      </trkpt>
      <trkpt lat="43.49391" lon="6.66165">
        <ele>85.8</ele>
        <time>2025-10-26T07:59:48Z</time>
      </trkpt>
      <trkpt lat="43.49391" lon="6.66167">
        <ele>85.8</ele>
        <time>2025-10-26T07:59:49Z</time>
      </trkpt>
      <trkpt lat="43.49391" lon="6.66167">
        <ele>85.8</ele>
        <time>2025-10-26T07:59:50Z</time>
      </trkpt>
      <trkpt lat="43.49391" lon="6.66169">
        <ele>85.8</ele>
        <time>2025-10-26T07:59:51Z</time>
      </trkpt>
      <trkpt lat="43.49391" lon="6.6617">
        <ele>85.8</ele>
        <time>2025-10-26T07:59:52Z</time>
      </trkpt>
      <trkpt lat="43.49392" lon="6.66172">
        <ele>85.8</ele>
        <time>2025-10-26T07:59:53Z</time>
      </trkpt>
      <trkpt lat="43.49392" lon="6.66174">
        <ele>85.8</ele>
        <time>2025-10-26T07:59:54Z</time>
      </trkpt>
      <trkpt lat="43.49392" lon="6.66176">
        <ele>85.9</ele>
        <time>2025-10-26T07:59:55Z</time>
      </trkpt>
      <trkpt lat="43.49393" lon="6.66178">
        <ele>85.9</ele>
        <time>2025-10-26T07:59:56Z</time>
      </trkpt>
      <trkpt lat="43.49393" lon="6.66179">
        <ele>85.8</ele>
        <time>2025-10-26T07:59:57Z</time>
      </trkpt>
      <trkpt lat="43.49394" lon="6.66181">
        <ele>85.8</ele>
        <time>2025-10-26T07:59:58Z</time>
      </trkpt>
      <trkpt lat="43.49394" lon="6.66182">
        <ele>85.8</ele>
        <time>2025-10-26T07:59:59Z</time>
      </trkpt>
      <trkpt lat="43.49394" lon="6.66184">
        <ele>85.8</ele>
        <time>2025-10-26T08:00:00Z</time>
      </trkpt>
      <trkpt lat="43.49394" lon="6.66185">
        <ele>85.8</ele>
        <time>2025-10-26T08:00:01Z</time>
      </trkpt>
      <trkpt lat="43.49394" lon="6.66187">
        <ele>85.8</ele>
        <time>2025-10-26T08:00:02Z</time>
      </trkpt>
      <trkpt lat="43.49394" lon="6.66188">
        <ele>85.7</ele>
        <time>2025-10-26T08:00:03Z</time>
      </trkpt>
      <trkpt lat="43.49394" lon="6.66189">
        <ele>85.7</ele>
        <time>2025-10-26T08:00:04Z</time>
      </trkpt>
      <trkpt lat="43.49393" lon="6.66191">
        <ele>85.7</ele>
        <time>2025-10-26T08:00:05Z</time>
      </trkpt>
      <trkpt lat="43.49393" lon="6.66193">
        <ele>85.7</ele>
        <time>2025-10-26T08:00:06Z</time>
      </trkpt>
      <trkpt lat="43.49394" lon="6.66194">
        <ele>85.7</ele>
        <time>2025-10-26T08:00:07Z</time>
      </trkpt>
      <trkpt lat="43.49394" lon="6.66196">
        <ele>85.7</ele>
        <time>2025-10-26T08:00:08Z</time>
      </trkpt>
      <trkpt lat="43.49394" lon="6.66198">
        <ele>85.6</ele>
        <time>2025-10-26T08:00:09Z</time>
      </trkpt>
      <trkpt lat="43.49394" lon="6.662">
        <ele>85.8</ele>
        <time>2025-10-26T08:00:10Z</time>
      </trkpt>
      <trkpt lat="43.49394" lon="6.66202">
        <ele>85.9</ele>
        <time>2025-10-26T08:00:11Z</time>
      </trkpt>
      <trkpt lat="43.49394" lon="6.66203">
        <ele>85.9</ele>
        <time>2025-10-26T08:00:12Z</time>
      </trkpt>
      <trkpt lat="43.49394" lon="6.66205">
        <ele>86</ele>
        <time>2025-10-26T08:00:13Z</time>
      </trkpt>
      <trkpt lat="43.49394" lon="6.66207">
        <ele>86</ele>
        <time>2025-10-26T08:00:14Z</time>
      </trkpt>
      <trkpt lat="43.49394" lon="6.66209">
        <ele>86.2</ele>
        <time>2025-10-26T08:00:15Z</time>
      </trkpt>
      <trkpt lat="43.49394" lon="6.66211">
        <ele>86.3</ele>
        <time>2025-10-26T08:00:16Z</time>
      </trkpt>
      <trkpt lat="43.49394" lon="6.66212">
        <ele>86.3</ele>
        <time>2025-10-26T08:00:17Z</time>
      </trkpt>
      <trkpt lat="43.49394" lon="6.66214">
        <ele>86.5</ele>
        <time>2025-10-26T08:00:18Z</time>
      </trkpt>
      <trkpt lat="43.49395" lon="6.66215">
        <ele>86.5</ele>
        <time>2025-10-26T08:00:19Z</time>
      </trkpt>
      <trkpt lat="43.49395" lon="6.66217">
        <ele>86.5</ele>
        <time>2025-10-26T08:00:20Z</time>
      </trkpt>
      <trkpt lat="43.49395" lon="6.66219">
        <ele>86.4</ele>
        <time>2025-10-26T08:00:21Z</time>
      </trkpt>
      <trkpt lat="43.49395" lon="6.6622">
        <ele>86.3</ele>
        <time>2025-10-26T08:00:22Z</time>
      </trkpt>
      <trkpt lat="43.49395" lon="6.66222">
        <ele>86.2</ele>
        <time>2025-10-26T08:00:23Z</time>
      </trkpt>
      <trkpt lat="43.49395" lon="6.66223">
        <ele>86.1</ele>
        <time>2025-10-26T08:00:24Z</time>
      </trkpt>
      <trkpt lat="43.49395" lon="6.66225">
        <ele>86.1</ele>
        <time>2025-10-26T08:00:25Z</time>
      </trkpt>
      <trkpt lat="43.49395" lon="6.66227">
        <ele>86</ele>
        <time>2025-10-26T08:00:26Z</time>
      </trkpt>
      <trkpt lat="43.49395" lon="6.66228">
        <ele>86</ele>
        <time>2025-10-26T08:00:27Z</time>
      </trkpt>
      <trkpt lat="43.49395" lon="6.6623">
        <ele>86</ele>
        <time>2025-10-26T08:00:28Z</time>
      </trkpt>
      <trkpt lat="43.49395" lon="6.66231">
        <ele>85.9</ele>
        <time>2025-10-26T08:00:29Z</time>
      </trkpt>
      <trkpt lat="43.49396" lon="6.66232">
        <ele>85.8</ele>
        <time>2025-10-26T08:00:30Z</time>
      </trkpt>
      <trkpt lat="43.49396" lon="6.66233">
        <ele>85.7</ele>
        <time>2025-10-26T08:00:31Z</time>
      </trkpt>
      <trkpt lat="43.49397" lon="6.66235">
        <ele>85.7</ele>
        <time>2025-10-26T08:00:32Z</time>
      </trkpt>
      <trkpt lat="43.49398" lon="6.66237">
        <ele>85.8</ele>
        <time>2025-10-26T08:00:33Z</time>
      </trkpt>
      <trkpt lat="43.49398" lon="6.66239">
        <ele>85.8</ele>
        <time>2025-10-26T08:00:34Z</time>
      </trkpt>
      <trkpt lat="43.49398" lon="6.66241">
        <ele>85.8</ele>
        <time>2025-10-26T08:00:35Z</time>
      </trkpt>
      <trkpt lat="43.49399" lon="6.66243">
        <ele>85.8</ele>
        <time>2025-10-26T08:00:36Z</time>
      </trkpt>
      <trkpt lat="43.49399" lon="6.66244">
        <ele>85.9</ele>
        <time>2025-10-26T08:00:37Z</time>
      </trkpt>
      <trkpt lat="43.49399" lon="6.66246">
        <ele>86</ele>
        <time>2025-10-26T08:00:38Z</time>
      </trkpt>
      <trkpt lat="43.49399" lon="6.66248">
        <ele>86</ele>
        <time>2025-10-26T08:00:39Z</time>
      </trkpt>
      <trkpt lat="43.49399" lon="6.6625">
        <ele>86</ele>
        <time>2025-10-26T08:00:40Z</time>
      </trkpt>
      <trkpt lat="43.494" lon="6.66252">
        <ele>86.1</ele>
        <time>2025-10-26T08:00:41Z</time>
      </trkpt>
      <trkpt lat="43.494" lon="6.66253">
        <ele>86.2</ele>
        <time>2025-10-26T08:00:42Z</time>
      </trkpt>
      <trkpt lat="43.494" lon="6.66255">
        <ele>86.1</ele>
        <time>2025-10-26T08:00:43Z</time>
      </trkpt>
      <trkpt lat="43.494" lon="6.66256">
        <ele>86.2</ele>
        <time>2025-10-26T08:00:44Z</time>
      </trkpt>
      <trkpt lat="43.494" lon="6.66258">
        <ele>86.3</ele>
        <time>2025-10-26T08:00:45Z</time>
      </trkpt>
      <trkpt lat="43.49401" lon="6.6626">
        <ele>86.3</ele>
        <time>2025-10-26T08:00:46Z</time>
      </trkpt>
      <trkpt lat="43.494" lon="6.66261">
        <ele>86.3</ele>
        <time>2025-10-26T08:00:47Z</time>
      </trkpt>
      <trkpt lat="43.49401" lon="6.66263">
        <ele>86.3</ele>
        <time>2025-10-26T08:00:48Z</time>
      </trkpt>
      <trkpt lat="43.49401" lon="6.66264">
        <ele>86.4</ele>
        <time>2025-10-26T08:00:49Z</time>
      </trkpt>
      <trkpt lat="43.49401" lon="6.66265">
        <ele>86.4</ele>
        <time>2025-10-26T08:00:50Z</time>
      </trkpt>
      <trkpt lat="43.49401" lon="6.66267">
        <ele>86.5</ele>
        <time>2025-10-26T08:00:51Z</time>
      </trkpt>
      <trkpt lat="43.49401" lon="6.66269">
        <ele>86.7</ele>
        <time>2025-10-26T08:00:52Z</time>
      </trkpt>
      <trkpt lat="43.49402" lon="6.6627">
        <ele>86.8</ele>
        <time>2025-10-26T08:00:53Z</time>
      </trkpt>
      <trkpt lat="43.49402" lon="6.66272">
        <ele>86.9</ele>
        <time>2025-10-26T08:00:54Z</time>
      </trkpt>
      <trkpt lat="43.49402" lon="6.66273">
        <ele>87</ele>
        <time>2025-10-26T08:00:55Z</time>
      </trkpt>
      <trkpt lat="43.49403" lon="6.66275">
        <ele>87.1</ele>
        <time>2025-10-26T08:00:56Z</time>
      </trkpt>
      <trkpt lat="43.49403" lon="6.66277">
        <ele>87.1</ele>
        <time>2025-10-26T08:00:57Z</time>
      </trkpt>
      <trkpt lat="43.49403" lon="6.66279">
        <ele>87.2</ele>
        <time>2025-10-26T08:00:58Z</time>
      </trkpt>
      <trkpt lat="43.49403" lon="6.6628">
        <ele>87.3</ele>
        <time>2025-10-26T08:00:59Z</time>
      </trkpt>
      <trkpt lat="43.49404" lon="6.66282">
        <ele>87.3</ele>
        <time>2025-10-26T08:01:00Z</time>
      </trkpt>
      <trkpt lat="43.49404" lon="6.66284">
        <ele>87.4</ele>
        <time>2025-10-26T08:01:01Z</time>
      </trkpt>
      <trkpt lat="43.49405" lon="6.66285">
        <ele>87.5</ele>
        <time>2025-10-26T08:01:02Z</time>
      </trkpt>
      <trkpt lat="43.49406" lon="6.66286">
        <ele>87.7</ele>
        <time>2025-10-26T08:01:03Z</time>
      </trkpt>
      <trkpt lat="43.49407" lon="6.66287">
        <ele>87.7</ele>
        <time>2025-10-26T08:01:04Z</time>
      </trkpt>
      <trkpt lat="43.49408" lon="6.66288">
        <ele>87.9</ele>
        <time>2025-10-26T08:01:05Z</time>
      </trkpt>
      <trkpt lat="43.49409" lon="6.6629">
        <ele>87.9</ele>
        <time>2025-10-26T08:01:06Z</time>
      </trkpt>
      <trkpt lat="43.4941" lon="6.66291">
        <ele>88.1</ele>
        <time>2025-10-26T08:01:07Z</time>
      </trkpt>
      <trkpt lat="43.4941" lon="6.66293">
        <ele>88.2</ele>
        <time>2025-10-26T08:01:08Z</time>
      </trkpt>
      <trkpt lat="43.4941" lon="6.66295">
        <ele>88.2</ele>
        <time>2025-10-26T08:01:09Z</time>
      </trkpt>
      <trkpt lat="43.4941" lon="6.66296">
        <ele>88.4</ele>
        <time>2025-10-26T08:01:10Z</time>
      </trkpt>
      <trkpt lat="43.49411" lon="6.66298">
        <ele>88.5</ele>
        <time>2025-10-26T08:01:11Z</time>
      </trkpt>
      <trkpt lat="43.49411" lon="6.66299">
        <ele>88.6</ele>
        <time>2025-10-26T08:01:12Z</time>
      </trkpt>
      <trkpt lat="43.49411" lon="6.663">
        <ele>88.7</ele>
        <time>2025-10-26T08:01:13Z</time>
      </trkpt>
      <trkpt lat="43.49412" lon="6.66303">
        <ele>88.9</ele>
        <time>2025-10-26T08:01:14Z</time>
      </trkpt>
      <trkpt lat="43.49413" lon="6.66305">
        <ele>89.1</ele>
        <time>2025-10-26T08:01:15Z</time>
      </trkpt>
      <trkpt lat="43.49414" lon="6.66307">
        <ele>89.1</ele>
        <time>2025-10-26T08:01:16Z</time>
      </trkpt>
      <trkpt lat="43.49414" lon="6.66308">
        <ele>89.2</ele>
        <time>2025-10-26T08:01:17Z</time>
      </trkpt>
      <trkpt lat="43.49415" lon="6.6631">
        <ele>89.3</ele>
        <time>2025-10-26T08:01:18Z</time>
      </trkpt>
      <trkpt lat="43.49415" lon="6.66311">
        <ele>89.3</ele>
        <time>2025-10-26T08:01:19Z</time>
      </trkpt>
      <trkpt lat="43.49416" lon="6.66313">
        <ele>89.4</ele>
        <time>2025-10-26T08:01:20Z</time>
      </trkpt>
      <trkpt lat="43.49416" lon="6.66314">
        <ele>89.5</ele>
        <time>2025-10-26T08:01:21Z</time>
      </trkpt>
      <trkpt lat="43.49417" lon="6.66316">
        <ele>89.6</ele>
        <time>2025-10-26T08:01:22Z</time>
      </trkpt>
      <trkpt lat="43.49417" lon="6.66317">
        <ele>89.6</ele>
        <time>2025-10-26T08:01:23Z</time>
      </trkpt>
      <trkpt lat="43.49418" lon="6.66318">
        <ele>89.7</ele>
        <time>2025-10-26T08:01:24Z</time>
      </trkpt>
      <trkpt lat="43.49419" lon="6.66319">
        <ele>89.7</ele>
        <time>2025-10-26T08:01:25Z</time>
      </trkpt>
      <trkpt lat="43.49419" lon="6.66321">
        <ele>89.6</ele>
        <time>2025-10-26T08:01:26Z</time>
      </trkpt>
      <trkpt lat="43.4942" lon="6.66322">
        <ele>89.5</ele>
        <time>2025-10-26T08:01:27Z</time>
      </trkpt>
      <trkpt lat="43.4942" lon="6.66323">
        <ele>89.4</ele>
        <time>2025-10-26T08:01:28Z</time>
      </trkpt>
      <trkpt lat="43.49422" lon="6.66325">
        <ele>89.3</ele>
        <time>2025-10-26T08:01:29Z</time>
      </trkpt>
      <trkpt lat="43.49422" lon="6.66326">
        <ele>89.3</ele>
        <time>2025-10-26T08:01:30Z</time>
      </trkpt>
      <trkpt lat="43.49423" lon="6.66326">
        <ele>89.1</ele>
        <time>2025-10-26T08:01:31Z</time>
      </trkpt>
      <trkpt lat="43.49424" lon="6.66327">
        <ele>89</ele>
        <time>2025-10-26T08:01:32Z</time>
      </trkpt>
      <trkpt lat="43.49425" lon="6.66328">
        <ele>88.8</ele>
        <time>2025-10-26T08:01:33Z</time>
      </trkpt>
      <trkpt lat="43.49426" lon="6.66329">
        <ele>88.7</ele>
        <time>2025-10-26T08:01:34Z</time>
      </trkpt>
      <trkpt lat="43.49426" lon="6.66331">
        <ele>88.8</ele>
        <time>2025-10-26T08:01:35Z</time>
      </trkpt>
      <trkpt lat="43.49427" lon="6.66333">
        <ele>88.9</ele>
        <time>2025-10-26T08:01:36Z</time>
      </trkpt>
      <trkpt lat="43.49428" lon="6.66334">
        <ele>88.9</ele>
        <time>2025-10-26T08:01:37Z</time>
      </trkpt>
      <trkpt lat="43.49429" lon="6.66335">
        <ele>88.9</ele>
        <time>2025-10-26T08:01:38Z</time>
      </trkpt>
      <trkpt lat="43.49429" lon="6.66337">
        <ele>89</ele>
        <time>2025-10-26T08:01:39Z</time>
      </trkpt>
      <trkpt lat="43.4943" lon="6.66338">
        <ele>89</ele>
        <time>2025-10-26T08:01:40Z</time>
      </trkpt>
      <trkpt lat="43.49431" lon="6.66338">
        <ele>89.1</ele>
        <time>2025-10-26T08:01:41Z</time>
      </trkpt>
      <trkpt lat="43.49431" lon="6.66339">
        <ele>89.1</ele>
        <time>2025-10-26T08:01:42Z</time>
      </trkpt>
      <trkpt lat="43.49432" lon="6.6634">
        <ele>89.2</ele>
        <time>2025-10-26T08:01:43Z</time>
      </trkpt>
      <trkpt lat="43.49432" lon="6.66342">
        <ele>89.1</ele>
        <time>2025-10-26T08:01:44Z</time>
      </trkpt>
      <trkpt lat="43.49433" lon="6.66343">
        <ele>89</ele>
        <time>2025-10-26T08:01:45Z</time>
      </trkpt>
      <trkpt lat="43.49433" lon="6.66345">
        <ele>89</ele>
        <time>2025-10-26T08:01:46Z</time>
      </trkpt>
      <trkpt lat="43.49434" lon="6.66346">
        <ele>89</ele>
        <time>2025-10-26T08:01:47Z</time>
      </trkpt>
      <trkpt lat="43.49434" lon="6.66347">
        <ele>89</ele>
        <time>2025-10-26T08:01:48Z</time>
      </trkpt>
      <trkpt lat="43.49435" lon="6.66348">
        <ele>88.8</ele>
        <time>2025-10-26T08:01:49Z</time>
      </trkpt>
      <trkpt lat="43.49436" lon="6.6635">
        <ele>88.8</ele>
        <time>2025-10-26T08:01:50Z</time>
      </trkpt>
      <trkpt lat="43.49435" lon="6.66352">
        <ele>88.8</ele>
        <time>2025-10-26T08:01:51Z</time>
      </trkpt>
      <trkpt lat="43.49436" lon="6.66353">
        <ele>88.9</ele>
        <time>2025-10-26T08:01:52Z</time>
      </trkpt>
      <trkpt lat="43.49436" lon="6.66355">
        <ele>88.8</ele>
        <time>2025-10-26T08:01:53Z</time>
      </trkpt>
      <trkpt lat="43.49436" lon="6.66356">
        <ele>88.8</ele>
        <time>2025-10-26T08:01:54Z</time>
      </trkpt>
      <trkpt lat="43.49436" lon="6.66357">
        <ele>88.8</ele>
        <time>2025-10-26T08:01:55Z</time>
      </trkpt>
      <trkpt lat="43.49436" lon="6.66359">
        <ele>88.9</ele>
        <time>2025-10-26T08:01:56Z</time>
      </trkpt>
      <trkpt lat="43.49436" lon="6.66361">
        <ele>89</ele>
        <time>2025-10-26T08:01:57Z</time>
      </trkpt>
      <trkpt lat="43.49437" lon="6.66362">
        <ele>89.1</ele>
        <time>2025-10-26T08:01:58Z</time>
      </trkpt>
      <trkpt lat="43.49437" lon="6.66363">
        <ele>89.2</ele>
        <time>2025-10-26T08:01:59Z</time>
      </trkpt>
      <trkpt lat="43.49437" lon="6.66365">
        <ele>89.3</ele>
        <time>2025-10-26T08:02:00Z</time>
      </trkpt>
      <trkpt lat="43.49437" lon="6.66366">
        <ele>89.3</ele>
        <time>2025-10-26T08:02:01Z</time>
      </trkpt>
      <trkpt lat="43.49437" lon="6.66368">
        <ele>89.4</ele>
        <time>2025-10-26T08:02:02Z</time>
      </trkpt>
      <trkpt lat="43.49437" lon="6.6637">
        <ele>89.6</ele>
        <time>2025-10-26T08:02:03Z</time>
      </trkpt>
      <trkpt lat="43.49438" lon="6.66371">
        <ele>89.7</ele>
        <time>2025-10-26T08:02:04Z</time>
      </trkpt>
      <trkpt lat="43.49438" lon="6.66372">
        <ele>89.8</ele>
        <time>2025-10-26T08:02:05Z</time>
      </trkpt>
      <trkpt lat="43.49438" lon="6.66373">
        <ele>89.8</ele>
        <time>2025-10-26T08:02:06Z</time>
      </trkpt>
      <trkpt lat="43.49438" lon="6.66375">
        <ele>89.8</ele>
        <time>2025-10-26T08:02:07Z</time>
      </trkpt>
      <trkpt lat="43.49438" lon="6.66377">
        <ele>89.9</ele>
        <time>2025-10-26T08:02:08Z</time>
      </trkpt>
      <trkpt lat="43.49438" lon="6.66378">
        <ele>89.8</ele>
        <time>2025-10-26T08:02:09Z</time>
      </trkpt>
      <trkpt lat="43.49439" lon="6.6638">
        <ele>89.8</ele>
        <time>2025-10-26T08:02:10Z</time>
      </trkpt>
      <trkpt lat="43.49439" lon="6.66382">
        <ele>89.7</ele>
        <time>2025-10-26T08:02:11Z</time>
      </trkpt>
      <trkpt lat="43.4944" lon="6.66383">
        <ele>89.7</ele>
        <time>2025-10-26T08:02:12Z</time>
      </trkpt>
      <trkpt lat="43.4944" lon="6.66385">
        <ele>89.6</ele>
        <time>2025-10-26T08:02:13Z</time>
      </trkpt>
      <trkpt lat="43.49441" lon="6.66387">
        <ele>89.7</ele>
        <time>2025-10-26T08:02:14Z</time>
      </trkpt>
      <trkpt lat="43.49441" lon="6.66389">
        <ele>89.8</ele>
        <time>2025-10-26T08:02:15Z</time>
      </trkpt>
      <trkpt lat="43.49441" lon="6.66391">
        <ele>89.8</ele>
        <time>2025-10-26T08:02:16Z</time>
      </trkpt>
      <trkpt lat="43.49441" lon="6.66393">
        <ele>89.8</ele>
        <time>2025-10-26T08:02:17Z</time>
      </trkpt>
      <trkpt lat="43.49441" lon="6.66394">
        <ele>89.8</ele>
        <time>2025-10-26T08:02:18Z</time>
      </trkpt>
      <trkpt lat="43.49442" lon="6.66396">
        <ele>89.8</ele>
        <time>2025-10-26T08:02:19Z</time>
      </trkpt>
      <trkpt lat="43.49442" lon="6.66397">
        <ele>89.9</ele>
        <time>2025-10-26T08:02:20Z</time>
      </trkpt>
      <trkpt lat="43.49442" lon="6.66398">
        <ele>89.9</ele>
        <time>2025-10-26T08:02:21Z</time>
      </trkpt>
      <trkpt lat="43.49442" lon="6.66399">
        <ele>89.9</ele>
        <time>2025-10-26T08:02:22Z</time>
      </trkpt>
      <trkpt lat="43.49443" lon="6.664">
        <ele>90</ele>
        <time>2025-10-26T08:02:23Z</time>
      </trkpt>
      <trkpt lat="43.49443" lon="6.66401">
        <ele>90.1</ele>
        <time>2025-10-26T08:02:24Z</time>
      </trkpt>
      <trkpt lat="43.49443" lon="6.66402">
        <ele>90.2</ele>
        <time>2025-10-26T08:02:25Z</time>
      </trkpt>
      <trkpt lat="43.49443" lon="6.66404">
        <ele>90.2</ele>
        <time>2025-10-26T08:02:26Z</time>
      </trkpt>
      <trkpt lat="43.49443" lon="6.66406">
        <ele>90.3</ele>
        <time>2025-10-26T08:02:27Z</time>
      </trkpt>
      <trkpt lat="43.49443" lon="6.66408">
        <ele>90.3</ele>
        <time>2025-10-26T08:02:28Z</time>
      </trkpt>
      <trkpt lat="43.49443" lon="6.6641">
        <ele>90.4</ele>
        <time>2025-10-26T08:02:29Z</time>
      </trkpt>
      <trkpt lat="43.49443" lon="6.66411">
        <ele>90.5</ele>
        <time>2025-10-26T08:02:30Z</time>
      </trkpt>
      <trkpt lat="43.49443" lon="6.66413">
        <ele>90.6</ele>
        <time>2025-10-26T08:02:31Z</time>
      </trkpt>
      <trkpt lat="43.49443" lon="6.66415">
        <ele>90.7</ele>
        <time>2025-10-26T08:02:32Z</time>
      </trkpt>
      <trkpt lat="43.49443" lon="6.66416">
        <ele>90.7</ele>
        <time>2025-10-26T08:02:33Z</time>
      </trkpt>
      <trkpt lat="43.49443" lon="6.66418">
        <ele>90.7</ele>
        <time>2025-10-26T08:02:34Z</time>
      </trkpt>
      <trkpt lat="43.49443" lon="6.66419">
        <ele>90.8</ele>
        <time>2025-10-26T08:02:35Z</time>
      </trkpt>
      <trkpt lat="43.49443" lon="6.6642">
        <ele>90.7</ele>
        <time>2025-10-26T08:02:36Z</time>
      </trkpt>
      <trkpt lat="43.49443" lon="6.66422">
        <ele>90.7</ele>
        <time>2025-10-26T08:02:37Z</time>
      </trkpt>
      <trkpt lat="43.49443" lon="6.66423">
        <ele>90.6</ele>
        <time>2025-10-26T08:02:38Z</time>
      </trkpt>
      <trkpt lat="43.49443" lon="6.66425">
        <ele>90.5</ele>
        <time>2025-10-26T08:02:39Z</time>
      </trkpt>
      <trkpt lat="43.49442" lon="6.66426">
        <ele>90.4</ele>
        <time>2025-10-26T08:02:40Z</time>
      </trkpt>
      <trkpt lat="43.49443" lon="6.66428">
        <ele>90.4</ele>
        <time>2025-10-26T08:02:41Z</time>
      </trkpt>
      <trkpt lat="43.49443" lon="6.66429">
        <ele>90.3</ele>
        <time>2025-10-26T08:02:42Z</time>
      </trkpt>
      <trkpt lat="43.49443" lon="6.66431">
        <ele>90.2</ele>
        <time>2025-10-26T08:02:43Z</time>
      </trkpt>
      <trkpt lat="43.49443" lon="6.66432">
        <ele>90.3</ele>
        <time>2025-10-26T08:02:44Z</time>
      </trkpt>
      <trkpt lat="43.49443" lon="6.66434">
        <ele>90.2</ele>
        <time>2025-10-26T08:02:45Z</time>
      </trkpt>
      <trkpt lat="43.49443" lon="6.66435">
        <ele>90.3</ele>
        <time>2025-10-26T08:02:46Z</time>
      </trkpt>
      <trkpt lat="43.49443" lon="6.66437">
        <ele>90.2</ele>
        <time>2025-10-26T08:02:47Z</time>
      </trkpt>
      <trkpt lat="43.49443" lon="6.66439">
        <ele>90.1</ele>
        <time>2025-10-26T08:02:48Z</time>
      </trkpt>
      <trkpt lat="43.49443" lon="6.6644">
        <ele>90</ele>
        <time>2025-10-26T08:02:49Z</time>
      </trkpt>
      <trkpt lat="43.49442" lon="6.66442">
        <ele>89.9</ele>
        <time>2025-10-26T08:02:50Z</time>
      </trkpt>
      <trkpt lat="43.49442" lon="6.66444">
        <ele>90</ele>
        <time>2025-10-26T08:02:51Z</time>
      </trkpt>
      <trkpt lat="43.49442" lon="6.66446">
        <ele>89.9</ele>
        <time>2025-10-26T08:02:52Z</time>
      </trkpt>
      <trkpt lat="43.49442" lon="6.66448">
        <ele>89.9</ele>
        <time>2025-10-26T08:02:53Z</time>
      </trkpt>
      <trkpt lat="43.49442" lon="6.66449">
        <ele>90</ele>
        <time>2025-10-26T08:02:54Z</time>
      </trkpt>
      <trkpt lat="43.49442" lon="6.66451">
        <ele>90</ele>
        <time>2025-10-26T08:02:55Z</time>
      </trkpt>
      <trkpt lat="43.49441" lon="6.66452">
        <ele>90.1</ele>
        <time>2025-10-26T08:02:56Z</time>
      </trkpt>
      <trkpt lat="43.49441" lon="6.66454">
        <ele>90.1</ele>
        <time>2025-10-26T08:02:57Z</time>
      </trkpt>
      <trkpt lat="43.49441" lon="6.66456">
        <ele>90.1</ele>
        <time>2025-10-26T08:02:58Z</time>
      </trkpt>
      <trkpt lat="43.49441" lon="6.66457">
        <ele>89.8</ele>
        <time>2025-10-26T08:02:59Z</time>
      </trkpt>
      <trkpt lat="43.4944" lon="6.66459">
        <ele>89.6</ele>
        <time>2025-10-26T08:03:00Z</time>
      </trkpt>
      <trkpt lat="43.49441" lon="6.6646">
        <ele>89.5</ele>
        <time>2025-10-26T08:03:01Z</time>
      </trkpt>
      <trkpt lat="43.4944" lon="6.66462">
        <ele>89.5</ele>
        <time>2025-10-26T08:03:02Z</time>
      </trkpt>
      <trkpt lat="43.4944" lon="6.66463">
        <ele>89.4</ele>
        <time>2025-10-26T08:03:03Z</time>
      </trkpt>
      <trkpt lat="43.4944" lon="6.66465">
        <ele>89.5</ele>
        <time>2025-10-26T08:03:04Z</time>
      </trkpt>
      <trkpt lat="43.4944" lon="6.66466">
        <ele>89.6</ele>
        <time>2025-10-26T08:03:05Z</time>
      </trkpt>
      <trkpt lat="43.49441" lon="6.66467">
        <ele>89.5</ele>
        <time>2025-10-26T08:03:06Z</time>
      </trkpt>
      <trkpt lat="43.49441" lon="6.66469">
        <ele>89.5</ele>
        <time>2025-10-26T08:03:07Z</time>
      </trkpt>
      <trkpt lat="43.49441" lon="6.6647">
        <ele>89.5</ele>
        <time>2025-10-26T08:03:08Z</time>
      </trkpt>
      <trkpt lat="43.4944" lon="6.66472">
        <ele>89.5</ele>
        <time>2025-10-26T08:03:09Z</time>
      </trkpt>
      <trkpt lat="43.4944" lon="6.66473">
        <ele>89.5</ele>
        <time>2025-10-26T08:03:10Z</time>
      </trkpt>
      <trkpt lat="43.4944" lon="6.66475">
        <ele>89.5</ele>
        <time>2025-10-26T08:03:11Z</time>
      </trkpt>
      <trkpt lat="43.4944" lon="6.66476">
        <ele>89.6</ele>
        <time>2025-10-26T08:03:12Z</time>
      </trkpt>
      <trkpt lat="43.4944" lon="6.66477">
        <ele>89.7</ele>
        <time>2025-10-26T08:03:13Z</time>
      </trkpt>
      <trkpt lat="43.49439" lon="6.66478">
        <ele>89.7</ele>
        <time>2025-10-26T08:03:14Z</time>
      </trkpt>
      <trkpt lat="43.49439" lon="6.66479">
        <ele>89.8</ele>
        <time>2025-10-26T08:03:15Z</time>
      </trkpt>
      <trkpt lat="43.49439" lon="6.66481">
        <ele>89.8</ele>
        <time>2025-10-26T08:03:16Z</time>
      </trkpt>
      <trkpt lat="43.49439" lon="6.66482">
        <ele>89.8</ele>
        <time>2025-10-26T08:03:17Z</time>
      </trkpt>
      <trkpt lat="43.49439" lon="6.66484">
        <ele>90</ele>
        <time>2025-10-26T08:03:18Z</time>
      </trkpt>
      <trkpt lat="43.4944" lon="6.66485">
        <ele>90.1</ele>
        <time>2025-10-26T08:03:19Z</time>
      </trkpt>
      <trkpt lat="43.4944" lon="6.66488">
        <ele>90.2</ele>
        <time>2025-10-26T08:03:20Z</time>
      </trkpt>
      <trkpt lat="43.4944" lon="6.6649">
        <ele>90.2</ele>
        <time>2025-10-26T08:03:21Z</time>
      </trkpt>
      <trkpt lat="43.49441" lon="6.66491">
        <ele>90.2</ele>
        <time>2025-10-26T08:03:22Z</time>
      </trkpt>
      <trkpt lat="43.49441" lon="6.66493">
        <ele>90.2</ele>
        <time>2025-10-26T08:03:23Z</time>
      </trkpt>
      <trkpt lat="43.49441" lon="6.66495">
        <ele>90.2</ele>
        <time>2025-10-26T08:03:24Z</time>
      </trkpt>
      <trkpt lat="43.49441" lon="6.66497">
        <ele>90.1</ele>
        <time>2025-10-26T08:03:25Z</time>
      </trkpt>
      <trkpt lat="43.49441" lon="6.66499">
        <ele>90</ele>
        <time>2025-10-26T08:03:26Z</time>
      </trkpt>
      <trkpt lat="43.49441" lon="6.66501">
        <ele>90</ele>
        <time>2025-10-26T08:03:27Z</time>
      </trkpt>
      <trkpt lat="43.49441" lon="6.66503">
        <ele>89.9</ele>
        <time>2025-10-26T08:03:28Z</time>
      </trkpt>
      <trkpt lat="43.4944" lon="6.66505">
        <ele>89.9</ele>
        <time>2025-10-26T08:03:29Z</time>
      </trkpt>
      <trkpt lat="43.4944" lon="6.66509">
        <ele>90</ele>
        <time>2025-10-26T08:03:30Z</time>
      </trkpt>
      <trkpt lat="43.4944" lon="6.6651">
        <ele>90.1</ele>
        <time>2025-10-26T08:03:31Z</time>
      </trkpt>
      <trkpt lat="43.4944" lon="6.66511">
        <ele>90.1</ele>
        <time>2025-10-26T08:03:32Z</time>
      </trkpt>
      <trkpt lat="43.4944" lon="6.66511">
        <ele>90.1</ele>
        <time>2025-10-26T08:03:33Z</time>
      </trkpt>
      <trkpt lat="43.4944" lon="6.66512">
        <ele>90.1</ele>
        <time>2025-10-26T08:03:34Z</time>
      </trkpt>
      <trkpt lat="43.4944" lon="6.66512">
        <ele>90.1</ele>
        <time>2025-10-26T08:03:35Z</time>
      </trkpt>
      <trkpt lat="43.4944" lon="6.66513">
        <ele>90.1</ele>
        <time>2025-10-26T08:03:36Z</time>
      </trkpt>
      <trkpt lat="43.4944" lon="6.66514">
        <ele>90.1</ele>
        <time>2025-10-26T08:03:37Z</time>
      </trkpt>
      <trkpt lat="43.4944" lon="6.66514">
        <ele>90.1</ele>
        <time>2025-10-26T08:03:38Z</time>
      </trkpt>
      <trkpt lat="43.4944" lon="6.66514">
        <ele>90.2</ele>
        <time>2025-10-26T08:03:39Z</time>
      </trkpt>
      <trkpt lat="43.4944" lon="6.66514">
        <ele>90.2</ele>
        <time>2025-10-26T08:03:40Z</time>
      </trkpt>
      <trkpt lat="43.4944" lon="6.66515">
        <ele>90.2</ele>
        <time>2025-10-26T08:03:41Z</time>
      </trkpt>
      <trkpt lat="43.49439" lon="6.66515">
        <ele>90.2</ele>
        <time>2025-10-26T08:03:42Z</time>
      </trkpt>
      <trkpt lat="43.49439" lon="6.66515">
        <ele>90.1</ele>
        <time>2025-10-26T08:03:43Z</time>
      </trkpt>
      <trkpt lat="43.49439" lon="6.66515">
        <ele>90.1</ele>
        <time>2025-10-26T08:03:44Z</time>
      </trkpt>
      <trkpt lat="43.49439" lon="6.66515">
        <ele>90.1</ele>
        <time>2025-10-26T08:03:45Z</time>
      </trkpt>
      <trkpt lat="43.49439" lon="6.66515">
        <ele>90.1</ele>
        <time>2025-10-26T08:03:46Z</time>
      </trkpt>
      <trkpt lat="43.49439" lon="6.66515">
        <ele>90.1</ele>
        <time>2025-10-26T08:03:47Z</time>
      </trkpt>
      <trkpt lat="43.49439" lon="6.66515">
        <ele>90</ele>
        <time>2025-10-26T08:03:48Z</time>
      </trkpt>
      <trkpt lat="43.49439" lon="6.66515">
        <ele>89.9</ele>
        <time>2025-10-26T08:03:49Z</time>
      </trkpt>
      <trkpt lat="43.49439" lon="6.66516">
        <ele>89.8</ele>
        <time>2025-10-26T08:03:50Z</time>
      </trkpt>
      <trkpt lat="43.49439" lon="6.66516">
        <ele>89.9</ele>
        <time>2025-10-26T08:03:51Z</time>
      </trkpt>
      <trkpt lat="43.49439" lon="6.66516">
        <ele>89.9</ele>
        <time>2025-10-26T08:03:52Z</time>
      </trkpt>
      <trkpt lat="43.49439" lon="6.66516">
        <ele>90</ele>
        <time>2025-10-26T08:03:53Z</time>
      </trkpt>
      <trkpt lat="43.49439" lon="6.66517">
        <ele>90.1</ele>
        <time>2025-10-26T08:03:54Z</time>
      </trkpt>
      <trkpt lat="43.49439" lon="6.66517">
        <ele>90.2</ele>
        <time>2025-10-26T08:03:55Z</time>
      </trkpt>
      <trkpt lat="43.49439" lon="6.66517">
        <ele>90.3</ele>
        <time>2025-10-26T08:03:56Z</time>
      </trkpt>
      <trkpt lat="43.49439" lon="6.66516">
        <ele>90.3</ele>
        <time>2025-10-26T08:03:57Z</time>
      </trkpt>
      <trkpt lat="43.49439" lon="6.66517">
        <ele>90.3</ele>
        <time>2025-10-26T08:03:58Z</time>
      </trkpt>
      <trkpt lat="43.49439" lon="6.66517">
        <ele>90.4</ele>
        <time>2025-10-26T08:03:59Z</time>
      </trkpt>
      <trkpt lat="43.49438" lon="6.66517">
        <ele>90.4</ele>
        <time>2025-10-26T08:04:00Z</time>
      </trkpt>
      <trkpt lat="43.49438" lon="6.66517">
        <ele>90.4</ele>
        <time>2025-10-26T08:04:01Z</time>
      </trkpt>
      <trkpt lat="43.49438" lon="6.66517">
        <ele>90.4</ele>
        <time>2025-10-26T08:04:02Z</time>
      </trkpt>
      <trkpt lat="43.49438" lon="6.66517">
        <ele>90.3</ele>
        <time>2025-10-26T08:04:03Z</time>
      </trkpt>
      <trkpt lat="43.49438" lon="6.66517">
        <ele>90.3</ele>
        <time>2025-10-26T08:04:04Z</time>
      </trkpt>
      <trkpt lat="43.49438" lon="6.66517">
        <ele>90.3</ele>
        <time>2025-10-26T08:04:05Z</time>
      </trkpt>
      <trkpt lat="43.49438" lon="6.66517">
        <ele>90.4</ele>
        <time>2025-10-26T08:04:06Z</time>
      </trkpt>
      <trkpt lat="43.49438" lon="6.66517">
        <ele>90.5</ele>
        <time>2025-10-26T08:04:07Z</time>
      </trkpt>
      <trkpt lat="43.49437" lon="6.66517">
        <ele>90.6</ele>
        <time>2025-10-26T08:04:08Z</time>
      </trkpt>
      <trkpt lat="43.49437" lon="6.66518">
        <ele>90.6</ele>
        <time>2025-10-26T08:04:09Z</time>
      </trkpt>
      <trkpt lat="43.49437" lon="6.66519">
        <ele>90.5</ele>
        <time>2025-10-26T08:04:10Z</time>
      </trkpt>
      <trkpt lat="43.49437" lon="6.66519">
        <ele>90.4</ele>
        <time>2025-10-26T08:04:11Z</time>
      </trkpt>
      <trkpt lat="43.49437" lon="6.66519">
        <ele>90.4</ele>
        <time>2025-10-26T08:04:12Z</time>
      </trkpt>
      <trkpt lat="43.49437" lon="6.66519">
        <ele>90.3</ele>
        <time>2025-10-26T08:04:13Z</time>
      </trkpt>
      <trkpt lat="43.49436" lon="6.66519">
        <ele>90.3</ele>
        <time>2025-10-26T08:04:14Z</time>
      </trkpt>
      <trkpt lat="43.49436" lon="6.6652">
        <ele>90.3</ele>
        <time>2025-10-26T08:04:15Z</time>
      </trkpt>
      <trkpt lat="43.49436" lon="6.6652">
        <ele>90.3</ele>
        <time>2025-10-26T08:04:16Z</time>
      </trkpt>
      <trkpt lat="43.49436" lon="6.6652">
        <ele>90.3</ele>
        <time>2025-10-26T08:04:17Z</time>
      </trkpt>
      <trkpt lat="43.49436" lon="6.66521">
        <ele>90.3</ele>
        <time>2025-10-26T08:04:18Z</time>
      </trkpt>
      <trkpt lat="43.49436" lon="6.66521">
        <ele>90.4</ele>
        <time>2025-10-26T08:04:19Z</time>
      </trkpt>
      <trkpt lat="43.49436" lon="6.66521">
        <ele>90.4</ele>
        <time>2025-10-26T08:04:20Z</time>
      </trkpt>
      <trkpt lat="43.49436" lon="6.66521">
        <ele>90.4</ele>
        <time>2025-10-26T08:04:21Z</time>
      </trkpt>
      <trkpt lat="43.49436" lon="6.66521">
        <ele>90.3</ele>
        <time>2025-10-26T08:04:22Z</time>
      </trkpt>
      <trkpt lat="43.49436" lon="6.66521">
        <ele>90.3</ele>
        <time>2025-10-26T08:04:23Z</time>
      </trkpt>
      <trkpt lat="43.49436" lon="6.66521">
        <ele>90.2</ele>
        <time>2025-10-26T08:04:24Z</time>
      </trkpt>
      <trkpt lat="43.49436" lon="6.66522">
        <ele>90.1</ele>
        <time>2025-10-26T08:04:25Z</time>
      </trkpt>
      <trkpt lat="43.49436" lon="6.66522">
        <ele>90.2</ele>
        <time>2025-10-26T08:04:26Z</time>
      </trkpt>
      <trkpt lat="43.49436" lon="6.66522">
        <ele>90.2</ele>
        <time>2025-10-26T08:04:27Z</time>
      </trkpt>
      <trkpt lat="43.49437" lon="6.66522">
        <ele>90.1</ele>
        <time>2025-10-26T08:04:28Z</time>
      </trkpt>
      <trkpt lat="43.49437" lon="6.66522">
        <ele>90.2</ele>
        <time>2025-10-26T08:04:29Z</time>
      </trkpt>
      <trkpt lat="43.49437" lon="6.66523">
        <ele>90.3</ele>
        <time>2025-10-26T08:04:30Z</time>
      </trkpt>
      <trkpt lat="43.49438" lon="6.66523">
        <ele>90.3</ele>
        <time>2025-10-26T08:04:31Z</time>
      </trkpt>
      <trkpt lat="43.49438" lon="6.66523">
        <ele>90.4</ele>
        <time>2025-10-26T08:04:32Z</time>
      </trkpt>
      <trkpt lat="43.49438" lon="6.66523">
        <ele>90.5</ele>
        <time>2025-10-26T08:04:33Z</time>
      </trkpt>
      <trkpt lat="43.49438" lon="6.66523">
        <ele>90.6</ele>
        <time>2025-10-26T08:04:34Z</time>
      </trkpt>
      <trkpt lat="43.49438" lon="6.66524">
        <ele>90.7</ele>
        <time>2025-10-26T08:04:35Z</time>
      </trkpt>
      <trkpt lat="43.49438" lon="6.66524">
        <ele>90.7</ele>
        <time>2025-10-26T08:04:36Z</time>
      </trkpt>
      <trkpt lat="43.49438" lon="6.66524">
        <ele>90.7</ele>
        <time>2025-10-26T08:04:37Z</time>
      </trkpt>
      <trkpt lat="43.49438" lon="6.66524">
        <ele>90.7</ele>
        <time>2025-10-26T08:04:38Z</time>
      </trkpt>
      <trkpt lat="43.49439" lon="6.66523">
        <ele>90.7</ele>
        <time>2025-10-26T08:04:39Z</time>
      </trkpt>
      <trkpt lat="43.49439" lon="6.66524">
        <ele>90.7</ele>
        <time>2025-10-26T08:04:40Z</time>
      </trkpt>
      <trkpt lat="43.4944" lon="6.66524">
        <ele>90.7</ele>
        <time>2025-10-26T08:04:41Z</time>
      </trkpt>
      <trkpt lat="43.49441" lon="6.66525">
        <ele>90.6</ele>
        <time>2025-10-26T08:04:42Z</time>
      </trkpt>
      <trkpt lat="43.49442" lon="6.66525">
        <ele>90.5</ele>
        <time>2025-10-26T08:04:43Z</time>
      </trkpt>
      <trkpt lat="43.49443" lon="6.66526">
        <ele>90.6</ele>
        <time>2025-10-26T08:04:44Z</time>
      </trkpt>
      <trkpt lat="43.49443" lon="6.66526">
        <ele>90.6</ele>
        <time>2025-10-26T08:04:45Z</time>
      </trkpt>
      <trkpt lat="43.49443" lon="6.66526">
        <ele>90.6</ele>
        <time>2025-10-26T08:04:46Z</time>
      </trkpt>
      <trkpt lat="43.49443" lon="6.66526">
        <ele>90.6</ele>
        <time>2025-10-26T08:04:47Z</time>
      </trkpt>
      <trkpt lat="43.49443" lon="6.66526">
        <ele>90.6</ele>
        <time>2025-10-26T08:04:48Z</time>
      </trkpt>
      <trkpt lat="43.49444" lon="6.66525">
        <ele>90.6</ele>
        <time>2025-10-26T08:04:49Z</time>
      </trkpt>
      <trkpt lat="43.49444" lon="6.66525">
        <ele>90.6</ele>
        <time>2025-10-26T08:04:50Z</time>
      </trkpt>
      <trkpt lat="43.49444" lon="6.66526">
        <ele>90.7</ele>
        <time>2025-10-26T08:04:51Z</time>
      </trkpt>
      <trkpt lat="43.49445" lon="6.66527">
        <ele>90.7</ele>
        <time>2025-10-26T08:04:52Z</time>
      </trkpt>
      <trkpt lat="43.49445" lon="6.66528">
        <ele>90.7</ele>
        <time>2025-10-26T08:04:53Z</time>
      </trkpt>
      <trkpt lat="43.49446" lon="6.66528">
        <ele>90.7</ele>
        <time>2025-10-26T08:04:54Z</time>
      </trkpt>
      <trkpt lat="43.49447" lon="6.66529">
        <ele>90.8</ele>
        <time>2025-10-26T08:04:55Z</time>
      </trkpt>
      <trkpt lat="43.49447" lon="6.6653">
        <ele>90.8</ele>
        <time>2025-10-26T08:04:56Z</time>
      </trkpt>
      <trkpt lat="43.49448" lon="6.66531">
        <ele>90.9</ele>
        <time>2025-10-26T08:04:57Z</time>
      </trkpt>
      <trkpt lat="43.49449" lon="6.66532">
        <ele>91</ele>
        <time>2025-10-26T08:04:58Z</time>
      </trkpt>
      <trkpt lat="43.49449" lon="6.66533">
        <ele>91.1</ele>
        <time>2025-10-26T08:04:59Z</time>
      </trkpt>
      <trkpt lat="43.4945" lon="6.66534">
        <ele>91.1</ele>
        <time>2025-10-26T08:05:00Z</time>
      </trkpt>
      <trkpt lat="43.49451" lon="6.66535">
        <ele>91.2</ele>
        <time>2025-10-26T08:05:01Z</time>
      </trkpt>
      <trkpt lat="43.49452" lon="6.66536">
        <ele>91.3</ele>
        <time>2025-10-26T08:05:02Z</time>
      </trkpt>
      <trkpt lat="43.49452" lon="6.66537">
        <ele>91.4</ele>
        <time>2025-10-26T08:05:03Z</time>
      </trkpt>
      <trkpt lat="43.49453" lon="6.66537">
        <ele>91.4</ele>
        <time>2025-10-26T08:05:04Z</time>
      </trkpt>
      <trkpt lat="43.49454" lon="6.66538">
        <ele>91.5</ele>
        <time>2025-10-26T08:05:05Z</time>
      </trkpt>
      <trkpt lat="43.49455" lon="6.66538">
        <ele>91.5</ele>
        <time>2025-10-26T08:05:06Z</time>
      </trkpt>
      <trkpt lat="43.49456" lon="6.66538">
        <ele>91.4</ele>
        <time>2025-10-26T08:05:07Z</time>
      </trkpt>
      <trkpt lat="43.49457" lon="6.66538">
        <ele>91.4</ele>
        <time>2025-10-26T08:05:08Z</time>
      </trkpt>
      <trkpt lat="43.49458" lon="6.66539">
        <ele>91.5</ele>
        <time>2025-10-26T08:05:09Z</time>
      </trkpt>
      <trkpt lat="43.49459" lon="6.66539">
        <ele>91.5</ele>
        <time>2025-10-26T08:05:10Z</time>
      </trkpt>
      <trkpt lat="43.4946" lon="6.66539">
        <ele>91.6</ele>
        <time>2025-10-26T08:05:11Z</time>
      </trkpt>
      <trkpt lat="43.49461" lon="6.66539">
        <ele>91.6</ele>
        <time>2025-10-26T08:05:12Z</time>
      </trkpt>
      <trkpt lat="43.49462" lon="6.66539">
        <ele>91.7</ele>
        <time>2025-10-26T08:05:13Z</time>
      </trkpt>
      <trkpt lat="43.49464" lon="6.66539">
        <ele>91.9</ele>
        <time>2025-10-26T08:05:14Z</time>
      </trkpt>
      <trkpt lat="43.49465" lon="6.66539">
        <ele>92</ele>
        <time>2025-10-26T08:05:15Z</time>
      </trkpt>
      <trkpt lat="43.49466" lon="6.66539">
        <ele>92.1</ele>
        <time>2025-10-26T08:05:16Z</time>
      </trkpt>
      <trkpt lat="43.49467" lon="6.66539">
        <ele>92.2</ele>
        <time>2025-10-26T08:05:17Z</time>
      </trkpt>
      <trkpt lat="43.49468" lon="6.66539">
        <ele>92.3</ele>
        <time>2025-10-26T08:05:18Z</time>
      </trkpt>
      <trkpt lat="43.49469" lon="6.66539">
        <ele>92.4</ele>
        <time>2025-10-26T08:05:19Z</time>
      </trkpt>
      <trkpt lat="43.49469" lon="6.66539">
        <ele>92.5</ele>
        <time>2025-10-26T08:05:20Z</time>
      </trkpt>
      <trkpt lat="43.4947" lon="6.6654">
        <ele>92.6</ele>
        <time>2025-10-26T08:05:21Z</time>
      </trkpt>
      <trkpt lat="43.49471" lon="6.6654">
        <ele>92.7</ele>
        <time>2025-10-26T08:05:22Z</time>
      </trkpt>
      <trkpt lat="43.49472" lon="6.6654">
        <ele>92.8</ele>
        <time>2025-10-26T08:05:23Z</time>
      </trkpt>
      <trkpt lat="43.49473" lon="6.6654">
        <ele>92.9</ele>
        <time>2025-10-26T08:05:24Z</time>
      </trkpt>
      <trkpt lat="43.49474" lon="6.6654">
        <ele>93</ele>
        <time>2025-10-26T08:05:25Z</time>
      </trkpt>
      <trkpt lat="43.49475" lon="6.6654">
        <ele>93.1</ele>
        <time>2025-10-26T08:05:26Z</time>
      </trkpt>
      <trkpt lat="43.49476" lon="6.66541">
        <ele>93.2</ele>
        <time>2025-10-26T08:05:27Z</time>
      </trkpt>
      <trkpt lat="43.49477" lon="6.66541">
        <ele>93.4</ele>
        <time>2025-10-26T08:05:28Z</time>
      </trkpt>
      <trkpt lat="43.49478" lon="6.66541">
        <ele>93.4</ele>
        <time>2025-10-26T08:05:29Z</time>
      </trkpt>
      <trkpt lat="43.49479" lon="6.66541">
        <ele>93.5</ele>
        <time>2025-10-26T08:05:30Z</time>
      </trkpt>
      <trkpt lat="43.4948" lon="6.66541">
        <ele>93.5</ele>
        <time>2025-10-26T08:05:31Z</time>
      </trkpt>
      <trkpt lat="43.49482" lon="6.6654">
        <ele>93.6</ele>
        <time>2025-10-26T08:05:32Z</time>
      </trkpt>
      <trkpt lat="43.49483" lon="6.66541">
        <ele>93.7</ele>
        <time>2025-10-26T08:05:33Z</time>
      </trkpt>
      <trkpt lat="43.49484" lon="6.6654">
        <ele>93.6</ele>
        <time>2025-10-26T08:05:34Z</time>
      </trkpt>
      <trkpt lat="43.49485" lon="6.6654">
        <ele>93.7</ele>
        <time>2025-10-26T08:05:35Z</time>
      </trkpt>
      <trkpt lat="43.49487" lon="6.6654">
        <ele>93.8</ele>
        <time>2025-10-26T08:05:36Z</time>
      </trkpt>
      <trkpt lat="43.49488" lon="6.6654">
        <ele>93.9</ele>
        <time>2025-10-26T08:05:37Z</time>
      </trkpt>
      <trkpt lat="43.49489" lon="6.66541">
        <ele>94</ele>
        <time>2025-10-26T08:05:38Z</time>
      </trkpt>
      <trkpt lat="43.4949" lon="6.66541">
        <ele>94</ele>
        <time>2025-10-26T08:05:39Z</time>
      </trkpt>
      <trkpt lat="43.49491" lon="6.66542">
        <ele>94</ele>
        <time>2025-10-26T08:05:40Z</time>
      </trkpt>
      <trkpt lat="43.49492" lon="6.66542">
        <ele>94.1</ele>
        <time>2025-10-26T08:05:41Z</time>
      </trkpt>
      <trkpt lat="43.49493" lon="6.66542">
        <ele>94.2</ele>
        <time>2025-10-26T08:05:42Z</time>
      </trkpt>
      <trkpt lat="43.49494" lon="6.66543">
        <ele>94.3</ele>
        <time>2025-10-26T08:05:43Z</time>
      </trkpt>
      <trkpt lat="43.49495" lon="6.66543">
        <ele>94.3</ele>
        <time>2025-10-26T08:05:44Z</time>
      </trkpt>
      <trkpt lat="43.49496" lon="6.66544">
        <ele>94.4</ele>
        <time>2025-10-26T08:05:45Z</time>
      </trkpt>
      <trkpt lat="43.49497" lon="6.66544">
        <ele>94.5</ele>
        <time>2025-10-26T08:05:46Z</time>
      </trkpt>
      <trkpt lat="43.49498" lon="6.66545">
        <ele>94.6</ele>
        <time>2025-10-26T08:05:47Z</time>
      </trkpt>
      <trkpt lat="43.49499" lon="6.66545">
        <ele>94.6</ele>
        <time>2025-10-26T08:05:48Z</time>
      </trkpt>
      <trkpt lat="43.495" lon="6.66546">
        <ele>94.6</ele>
        <time>2025-10-26T08:05:49Z</time>
      </trkpt>
      <trkpt lat="43.495" lon="6.66546">
        <ele>94.5</ele>
        <time>2025-10-26T08:05:50Z</time>
      </trkpt>
      <trkpt lat="43.49502" lon="6.66547">
        <ele>94.6</ele>
        <time>2025-10-26T08:05:51Z</time>
      </trkpt>
      <trkpt lat="43.49503" lon="6.66548">
        <ele>94.7</ele>
        <time>2025-10-26T08:05:52Z</time>
      </trkpt>
      <trkpt lat="43.49504" lon="6.66548">
        <ele>94.8</ele>
        <time>2025-10-26T08:05:53Z</time>
      </trkpt>
      <trkpt lat="43.49505" lon="6.66549">
        <ele>94.8</ele>
        <time>2025-10-26T08:05:54Z</time>
      </trkpt>
      <trkpt lat="43.49506" lon="6.6655">
        <ele>94.8</ele>
        <time>2025-10-26T08:05:55Z</time>
      </trkpt>
      <trkpt lat="43.49507" lon="6.66551">
        <ele>94.8</ele>
        <time>2025-10-26T08:05:56Z</time>
      </trkpt>
      <trkpt lat="43.49508" lon="6.66551">
        <ele>94.8</ele>
        <time>2025-10-26T08:05:57Z</time>
      </trkpt>
      <trkpt lat="43.49509" lon="6.66552">
        <ele>94.8</ele>
        <time>2025-10-26T08:05:58Z</time>
      </trkpt>
      <trkpt lat="43.49511" lon="6.66553">
        <ele>94.8</ele>
        <time>2025-10-26T08:05:59Z</time>
      </trkpt>
      <trkpt lat="43.49512" lon="6.66554">
        <ele>94.8</ele>
        <time>2025-10-26T08:06:00Z</time>
      </trkpt>
      <trkpt lat="43.49513" lon="6.66554">
        <ele>94.8</ele>
        <time>2025-10-26T08:06:01Z</time>
      </trkpt>
      <trkpt lat="43.49514" lon="6.66555">
        <ele>94.7</ele>
        <time>2025-10-26T08:06:02Z</time>
      </trkpt>
      <trkpt lat="43.49514" lon="6.66556">
        <ele>94.7</ele>
        <time>2025-10-26T08:06:03Z</time>
      </trkpt>
      <trkpt lat="43.49515" lon="6.66557">
        <ele>94.7</ele>
        <time>2025-10-26T08:06:04Z</time>
      </trkpt>
      <trkpt lat="43.49516" lon="6.66557">
        <ele>94.7</ele>
        <time>2025-10-26T08:06:05Z</time>
      </trkpt>
      <trkpt lat="43.49516" lon="6.66557">
        <ele>94.7</ele>
        <time>2025-10-26T08:06:06Z</time>
      </trkpt>
      <trkpt lat="43.49517" lon="6.66557">
        <ele>94.7</ele>
        <time>2025-10-26T08:06:07Z</time>
      </trkpt>
      <trkpt lat="43.49517" lon="6.66558">
        <ele>94.8</ele>
        <time>2025-10-26T08:06:08Z</time>
      </trkpt>
      <trkpt lat="43.49518" lon="6.66558">
        <ele>94.7</ele>
        <time>2025-10-26T08:06:09Z</time>
      </trkpt>
      <trkpt lat="43.49519" lon="6.66558">
        <ele>94.8</ele>
        <time>2025-10-26T08:06:10Z</time>
      </trkpt>
      <trkpt lat="43.4952" lon="6.66559">
        <ele>94.8</ele>
        <time>2025-10-26T08:06:11Z</time>
      </trkpt>
      <trkpt lat="43.49521" lon="6.6656">
        <ele>94.9</ele>
        <time>2025-10-26T08:06:12Z</time>
      </trkpt>
      <trkpt lat="43.49522" lon="6.6656">
        <ele>94.9</ele>
        <time>2025-10-26T08:06:13Z</time>
      </trkpt>
      <trkpt lat="43.49523" lon="6.66561">
        <ele>94.9</ele>
        <time>2025-10-26T08:06:14Z</time>
      </trkpt>
      <trkpt lat="43.49523" lon="6.66561">
        <ele>94.9</ele>
        <time>2025-10-26T08:06:15Z</time>
      </trkpt>
      <trkpt lat="43.49524" lon="6.66561">
        <ele>94.8</ele>
        <time>2025-10-26T08:06:16Z</time>
      </trkpt>
      <trkpt lat="43.49525" lon="6.66562">
        <ele>94.8</ele>
        <time>2025-10-26T08:06:17Z</time>
      </trkpt>
      <trkpt lat="43.49526" lon="6.66562">
        <ele>94.8</ele>
        <time>2025-10-26T08:06:18Z</time>
      </trkpt>
      <trkpt lat="43.49527" lon="6.66563">
        <ele>94.9</ele>
        <time>2025-10-26T08:06:19Z</time>
      </trkpt>
      <trkpt lat="43.49528" lon="6.66563">
        <ele>94.9</ele>
        <time>2025-10-26T08:06:20Z</time>
      </trkpt>
      <trkpt lat="43.49529" lon="6.66564">
        <ele>95</ele>
        <time>2025-10-26T08:06:21Z</time>
      </trkpt>
      <trkpt lat="43.49529" lon="6.66564">
        <ele>94.9</ele>
        <time>2025-10-26T08:06:22Z</time>
      </trkpt>
      <trkpt lat="43.4953" lon="6.66564">
        <ele>94.9</ele>
        <time>2025-10-26T08:06:23Z</time>
      </trkpt>
      <trkpt lat="43.49531" lon="6.66564">
        <ele>94.9</ele>
        <time>2025-10-26T08:06:24Z</time>
      </trkpt>
      <trkpt lat="43.49532" lon="6.66565">
        <ele>94.9</ele>
        <time>2025-10-26T08:06:25Z</time>
      </trkpt>
      <trkpt lat="43.49532" lon="6.66566">
        <ele>94.9</ele>
        <time>2025-10-26T08:06:26Z</time>
      </trkpt>
      <trkpt lat="43.49534" lon="6.66567">
        <ele>94.8</ele>
        <time>2025-10-26T08:06:27Z</time>
      </trkpt>
      <trkpt lat="43.49535" lon="6.66567">
        <ele>94.8</ele>
        <time>2025-10-26T08:06:28Z</time>
      </trkpt>
      <trkpt lat="43.49536" lon="6.66568">
        <ele>94.8</ele>
        <time>2025-10-26T08:06:29Z</time>
      </trkpt>
      <trkpt lat="43.49537" lon="6.66569">
        <ele>94.7</ele>
        <time>2025-10-26T08:06:30Z</time>
      </trkpt>
      <trkpt lat="43.49538" lon="6.6657">
        <ele>94.7</ele>
        <time>2025-10-26T08:06:31Z</time>
      </trkpt>
      <trkpt lat="43.49539" lon="6.6657">
        <ele>94.7</ele>
        <time>2025-10-26T08:06:32Z</time>
      </trkpt>
      <trkpt lat="43.4954" lon="6.66571">
        <ele>94.9</ele>
        <time>2025-10-26T08:06:33Z</time>
      </trkpt>
      <trkpt lat="43.49541" lon="6.66572">
        <ele>95.1</ele>
        <time>2025-10-26T08:06:34Z</time>
      </trkpt>
      <trkpt lat="43.49542" lon="6.66573">
        <ele>95.1</ele>
        <time>2025-10-26T08:06:35Z</time>
      </trkpt>
      <trkpt lat="43.49543" lon="6.66574">
        <ele>95.1</ele>
        <time>2025-10-26T08:06:36Z</time>
      </trkpt>
      <trkpt lat="43.49544" lon="6.66574">
        <ele>95.1</ele>
        <time>2025-10-26T08:06:37Z</time>
      </trkpt>
      <trkpt lat="43.49545" lon="6.66575">
        <ele>95.2</ele>
        <time>2025-10-26T08:06:38Z</time>
      </trkpt>
      <trkpt lat="43.49546" lon="6.66576">
        <ele>95.1</ele>
        <time>2025-10-26T08:06:39Z</time>
      </trkpt>
      <trkpt lat="43.49547" lon="6.66577">
        <ele>95.1</ele>
        <time>2025-10-26T08:06:40Z</time>
      </trkpt>
      <trkpt lat="43.49548" lon="6.66578">
        <ele>95.2</ele>
        <time>2025-10-26T08:06:41Z</time>
      </trkpt>
      <trkpt lat="43.49549" lon="6.66578">
        <ele>95.3</ele>
        <time>2025-10-26T08:06:42Z</time>
      </trkpt>
      <trkpt lat="43.4955" lon="6.66579">
        <ele>95.3</ele>
        <time>2025-10-26T08:06:43Z</time>
      </trkpt>
      <trkpt lat="43.49551" lon="6.6658">
        <ele>95.3</ele>
        <time>2025-10-26T08:06:44Z</time>
      </trkpt>
      <trkpt lat="43.49551" lon="6.66581">
        <ele>95.3</ele>
        <time>2025-10-26T08:06:45Z</time>
      </trkpt>
      <trkpt lat="43.49552" lon="6.66582">
        <ele>95.4</ele>
        <time>2025-10-26T08:06:46Z</time>
      </trkpt>
      <trkpt lat="43.49553" lon="6.66583">
        <ele>95.4</ele>
        <time>2025-10-26T08:06:47Z</time>
      </trkpt>
      <trkpt lat="43.49554" lon="6.66584">
        <ele>95.3</ele>
        <time>2025-10-26T08:06:48Z</time>
      </trkpt>
      <trkpt lat="43.49555" lon="6.66585">
        <ele>95.3</ele>
        <time>2025-10-26T08:06:49Z</time>
      </trkpt>
      <trkpt lat="43.49556" lon="6.66586">
        <ele>95.3</ele>
        <time>2025-10-26T08:06:50Z</time>
      </trkpt>
      <trkpt lat="43.49556" lon="6.66587">
        <ele>95.2</ele>
        <time>2025-10-26T08:06:51Z</time>
      </trkpt>
      <trkpt lat="43.49557" lon="6.66588">
        <ele>95.2</ele>
        <time>2025-10-26T08:06:52Z</time>
      </trkpt>
      <trkpt lat="43.49558" lon="6.66589">
        <ele>95.1</ele>
        <time>2025-10-26T08:06:53Z</time>
      </trkpt>
      <trkpt lat="43.49558" lon="6.6659">
        <ele>94.9</ele>
        <time>2025-10-26T08:06:54Z</time>
      </trkpt>
      <trkpt lat="43.49559" lon="6.66591">
        <ele>94.9</ele>
        <time>2025-10-26T08:06:55Z</time>
      </trkpt>
      <trkpt lat="43.49559" lon="6.66593">
        <ele>94.9</ele>
        <time>2025-10-26T08:06:56Z</time>
      </trkpt>
      <trkpt lat="43.4956" lon="6.66594">
        <ele>94.7</ele>
        <time>2025-10-26T08:06:57Z</time>
      </trkpt>
      <trkpt lat="43.49561" lon="6.66595">
        <ele>94.6</ele>
        <time>2025-10-26T08:06:58Z</time>
      </trkpt>
      <trkpt lat="43.49561" lon="6.66596">
        <ele>94.6</ele>
        <time>2025-10-26T08:06:59Z</time>
      </trkpt>
      <trkpt lat="43.49561" lon="6.66597">
        <ele>94.5</ele>
        <time>2025-10-26T08:07:00Z</time>
      </trkpt>
      <trkpt lat="43.49562" lon="6.66598">
        <ele>94.5</ele>
        <time>2025-10-26T08:07:01Z</time>
      </trkpt>
      <trkpt lat="43.49562" lon="6.666">
        <ele>94.4</ele>
        <time>2025-10-26T08:07:02Z</time>
      </trkpt>
      <trkpt lat="43.49563" lon="6.66601">
        <ele>94.4</ele>
        <time>2025-10-26T08:07:03Z</time>
      </trkpt>
      <trkpt lat="43.49563" lon="6.66603">
        <ele>94.3</ele>
        <time>2025-10-26T08:07:04Z</time>
      </trkpt>
      <trkpt lat="43.49563" lon="6.66604">
        <ele>94.3</ele>
        <time>2025-10-26T08:07:05Z</time>
      </trkpt>
      <trkpt lat="43.49564" lon="6.66605">
        <ele>94.3</ele>
        <time>2025-10-26T08:07:06Z</time>
      </trkpt>
      <trkpt lat="43.49564" lon="6.66606">
        <ele>94.1</ele>
        <time>2025-10-26T08:07:07Z</time>
      </trkpt>
      <trkpt lat="43.49565" lon="6.66607">
        <ele>94</ele>
        <time>2025-10-26T08:07:08Z</time>
      </trkpt>
      <trkpt lat="43.49565" lon="6.66608">
        <ele>93.9</ele>
        <time>2025-10-26T08:07:09Z</time>
      </trkpt>
      <trkpt lat="43.49565" lon="6.66609">
        <ele>93.8</ele>
        <time>2025-10-26T08:07:10Z</time>
      </trkpt>
      <trkpt lat="43.49565" lon="6.66611">
        <ele>93.7</ele>
        <time>2025-10-26T08:07:11Z</time>
      </trkpt>
      <trkpt lat="43.49566" lon="6.66612">
        <ele>93.6</ele>
        <time>2025-10-26T08:07:12Z</time>
      </trkpt>
      <trkpt lat="43.49567" lon="6.66614">
        <ele>93.6</ele>
        <time>2025-10-26T08:07:13Z</time>
      </trkpt>
      <trkpt lat="43.49567" lon="6.66615">
        <ele>93.5</ele>
        <time>2025-10-26T08:07:14Z</time>
      </trkpt>
      <trkpt lat="43.49568" lon="6.66616">
        <ele>93.4</ele>
        <time>2025-10-26T08:07:15Z</time>
      </trkpt>
      <trkpt lat="43.49568" lon="6.66618">
        <ele>93.4</ele>
        <time>2025-10-26T08:07:16Z</time>
      </trkpt>
      <trkpt lat="43.49569" lon="6.6662">
        <ele>93.3</ele>
        <time>2025-10-26T08:07:17Z</time>
      </trkpt>
      <trkpt lat="43.49569" lon="6.66621">
        <ele>93.2</ele>
        <time>2025-10-26T08:07:18Z</time>
      </trkpt>
      <trkpt lat="43.49569" lon="6.66622">
        <ele>93.2</ele>
        <time>2025-10-26T08:07:19Z</time>
      </trkpt>
      <trkpt lat="43.4957" lon="6.66623">
        <ele>93.1</ele>
        <time>2025-10-26T08:07:20Z</time>
      </trkpt>
      <trkpt lat="43.49571" lon="6.66624">
        <ele>92.9</ele>
        <time>2025-10-26T08:07:21Z</time>
      </trkpt>
      <trkpt lat="43.49571" lon="6.66625">
        <ele>92.8</ele>
        <time>2025-10-26T08:07:22Z</time>
      </trkpt>
      <trkpt lat="43.49572" lon="6.66626">
        <ele>92.7</ele>
        <time>2025-10-26T08:07:23Z</time>
      </trkpt>
      <trkpt lat="43.49572" lon="6.66628">
        <ele>92.6</ele>
        <time>2025-10-26T08:07:24Z</time>
      </trkpt>
      <trkpt lat="43.49573" lon="6.66629">
        <ele>92.5</ele>
        <time>2025-10-26T08:07:25Z</time>
      </trkpt>
      <trkpt lat="43.49573" lon="6.6663">
        <ele>92.4</ele>
        <time>2025-10-26T08:07:26Z</time>
      </trkpt>
      <trkpt lat="43.49574" lon="6.66631">
        <ele>92.2</ele>
        <time>2025-10-26T08:07:27Z</time>
      </trkpt>
      <trkpt lat="43.49575" lon="6.66632">
        <ele>92.1</ele>
        <time>2025-10-26T08:07:28Z</time>
      </trkpt>
      <trkpt lat="43.49575" lon="6.66634">
        <ele>92</ele>
        <time>2025-10-26T08:07:29Z</time>
      </trkpt>
      <trkpt lat="43.49576" lon="6.66635">
        <ele>91.9</ele>
        <time>2025-10-26T08:07:30Z</time>
      </trkpt>
      <trkpt lat="43.49577" lon="6.66637">
        <ele>91.8</ele>
        <time>2025-10-26T08:07:31Z</time>
      </trkpt>
      <trkpt lat="43.49577" lon="6.66638">
        <ele>91.7</ele>
        <time>2025-10-26T08:07:32Z</time>
      </trkpt>
      <trkpt lat="43.49578" lon="6.66639">
        <ele>91.7</ele>
        <time>2025-10-26T08:07:33Z</time>
      </trkpt>
      <trkpt lat="43.49579" lon="6.6664">
        <ele>91.6</ele>
        <time>2025-10-26T08:07:34Z</time>
      </trkpt>
      <trkpt lat="43.4958" lon="6.66642">
        <ele>91.6</ele>
        <time>2025-10-26T08:07:35Z</time>
      </trkpt>
      <trkpt lat="43.49581" lon="6.66643">
        <ele>91.7</ele>
        <time>2025-10-26T08:07:36Z</time>
      </trkpt>
      <trkpt lat="43.49581" lon="6.66645">
        <ele>91.6</ele>
        <time>2025-10-26T08:07:37Z</time>
      </trkpt>
      <trkpt lat="43.49581" lon="6.66646">
        <ele>91.6</ele>
        <time>2025-10-26T08:07:38Z</time>
      </trkpt>
      <trkpt lat="43.49582" lon="6.66648">
        <ele>91.6</ele>
        <time>2025-10-26T08:07:39Z</time>
      </trkpt>
      <trkpt lat="43.49583" lon="6.66649">
        <ele>91.6</ele>
        <time>2025-10-26T08:07:40Z</time>
      </trkpt>
      <trkpt lat="43.49583" lon="6.66651">
        <ele>91.5</ele>
        <time>2025-10-26T08:07:41Z</time>
      </trkpt>
      <trkpt lat="43.49584" lon="6.66652">
        <ele>91.5</ele>
        <time>2025-10-26T08:07:42Z</time>
      </trkpt>
      <trkpt lat="43.49585" lon="6.66654">
        <ele>91.4</ele>
        <time>2025-10-26T08:07:43Z</time>
      </trkpt>
      <trkpt lat="43.49585" lon="6.66656">
        <ele>91.4</ele>
        <time>2025-10-26T08:07:44Z</time>
      </trkpt>
      <trkpt lat="43.49586" lon="6.66657">
        <ele>91.3</ele>
        <time>2025-10-26T08:07:45Z</time>
      </trkpt>
      <trkpt lat="43.49587" lon="6.66658">
        <ele>91.2</ele>
        <time>2025-10-26T08:07:46Z</time>
      </trkpt>
      <trkpt lat="43.49587" lon="6.6666">
        <ele>91.2</ele>
        <time>2025-10-26T08:07:47Z</time>
      </trkpt>
      <trkpt lat="43.49588" lon="6.66661">
        <ele>91.2</ele>
        <time>2025-10-26T08:07:48Z</time>
      </trkpt>
      <trkpt lat="43.49588" lon="6.66663">
        <ele>91.1</ele>
        <time>2025-10-26T08:07:49Z</time>
      </trkpt>
      <trkpt lat="43.49589" lon="6.66664">
        <ele>91</ele>
        <time>2025-10-26T08:07:50Z</time>
      </trkpt>
      <trkpt lat="43.49589" lon="6.66665">
        <ele>91</ele>
        <time>2025-10-26T08:07:51Z</time>
      </trkpt>
      <trkpt lat="43.4959" lon="6.66666">
        <ele>90.9</ele>
        <time>2025-10-26T08:07:52Z</time>
      </trkpt>
      <trkpt lat="43.4959" lon="6.66668">
        <ele>90.9</ele>
        <time>2025-10-26T08:07:53Z</time>
      </trkpt>
      <trkpt lat="43.49591" lon="6.66669">
        <ele>90.8</ele>
        <time>2025-10-26T08:07:54Z</time>
      </trkpt>
      <trkpt lat="43.49592" lon="6.6667">
        <ele>90.7</ele>
        <time>2025-10-26T08:07:55Z</time>
      </trkpt>
      <trkpt lat="43.49592" lon="6.66671">
        <ele>90.7</ele>
        <time>2025-10-26T08:07:56Z</time>
      </trkpt>
      <trkpt lat="43.49592" lon="6.66673">
        <ele>90.6</ele>
        <time>2025-10-26T08:07:57Z</time>
      </trkpt>
      <trkpt lat="43.49592" lon="6.66675">
        <ele>90.4</ele>
        <time>2025-10-26T08:07:58Z</time>
      </trkpt>
      <trkpt lat="43.49592" lon="6.66676">
        <ele>90.4</ele>
        <time>2025-10-26T08:07:59Z</time>
      </trkpt>
      <trkpt lat="43.49593" lon="6.66678">
        <ele>90.1</ele>
        <time>2025-10-26T08:08:00Z</time>
      </trkpt>
      <trkpt lat="43.49593" lon="6.66679">
        <ele>89.9</ele>
        <time>2025-10-26T08:08:01Z</time>
      </trkpt>
      <trkpt lat="43.49593" lon="6.6668">
        <ele>89.7</ele>
        <time>2025-10-26T08:08:02Z</time>
      </trkpt>
      <trkpt lat="43.49593" lon="6.66682">
        <ele>89.5</ele>
        <time>2025-10-26T08:08:03Z</time>
      </trkpt>
      <trkpt lat="43.49594" lon="6.66683">
        <ele>89.3</ele>
        <time>2025-10-26T08:08:04Z</time>
      </trkpt>
      <trkpt lat="43.49594" lon="6.66684">
        <ele>89.2</ele>
        <time>2025-10-26T08:08:05Z</time>
      </trkpt>
      <trkpt lat="43.49594" lon="6.66684">
        <ele>89</ele>
        <time>2025-10-26T08:08:06Z</time>
      </trkpt>
      <trkpt lat="43.49595" lon="6.66686">
        <ele>88.9</ele>
        <time>2025-10-26T08:08:07Z</time>
      </trkpt>
      <trkpt lat="43.49595" lon="6.66687">
        <ele>88.7</ele>
        <time>2025-10-26T08:08:08Z</time>
      </trkpt>
      <trkpt lat="43.49595" lon="6.66688">
        <ele>88.7</ele>
        <time>2025-10-26T08:08:09Z</time>
      </trkpt>
      <trkpt lat="43.49595" lon="6.6669">
        <ele>88.6</ele>
        <time>2025-10-26T08:08:10Z</time>
      </trkpt>
      <trkpt lat="43.49595" lon="6.66691">
        <ele>88.5</ele>
        <time>2025-10-26T08:08:11Z</time>
      </trkpt>
      <trkpt lat="43.49595" lon="6.66692">
        <ele>88.4</ele>
        <time>2025-10-26T08:08:12Z</time>
      </trkpt>
      <trkpt lat="43.49596" lon="6.66693">
        <ele>88.3</ele>
        <time>2025-10-26T08:08:13Z</time>
      </trkpt>
      <trkpt lat="43.49596" lon="6.66695">
        <ele>88</ele>
        <time>2025-10-26T08:08:14Z</time>
      </trkpt>
      <trkpt lat="43.49596" lon="6.66696">
        <ele>87.9</ele>
        <time>2025-10-26T08:08:15Z</time>
      </trkpt>
      <trkpt lat="43.49596" lon="6.66697">
        <ele>87.9</ele>
        <time>2025-10-26T08:08:16Z</time>
      </trkpt>
      <trkpt lat="43.49596" lon="6.66698">
        <ele>87.7</ele>
        <time>2025-10-26T08:08:17Z</time>
      </trkpt>
      <trkpt lat="43.49596" lon="6.667">
        <ele>87.5</ele>
        <time>2025-10-26T08:08:18Z</time>
      </trkpt>
      <trkpt lat="43.49596" lon="6.66701">
        <ele>87.4</ele>
        <time>2025-10-26T08:08:19Z</time>
      </trkpt>
      <trkpt lat="43.49596" lon="6.66702">
        <ele>87.3</ele>
        <time>2025-10-26T08:08:20Z</time>
      </trkpt>
      <trkpt lat="43.49597" lon="6.66704">
        <ele>87.2</ele>
        <time>2025-10-26T08:08:21Z</time>
      </trkpt>
      <trkpt lat="43.49597" lon="6.66705">
        <ele>87</ele>
        <time>2025-10-26T08:08:22Z</time>
      </trkpt>
      <trkpt lat="43.49597" lon="6.66706">
        <ele>86.8</ele>
        <time>2025-10-26T08:08:23Z</time>
      </trkpt>
      <trkpt lat="43.49597" lon="6.66708">
        <ele>86.7</ele>
        <time>2025-10-26T08:08:24Z</time>
      </trkpt>
      <trkpt lat="43.49597" lon="6.66709">
        <ele>86.5</ele>
        <time>2025-10-26T08:08:25Z</time>
      </trkpt>
      <trkpt lat="43.49598" lon="6.66711">
        <ele>86.4</ele>
        <time>2025-10-26T08:08:26Z</time>
      </trkpt>
      <trkpt lat="43.49598" lon="6.66712">
        <ele>86.3</ele>
        <time>2025-10-26T08:08:27Z</time>
      </trkpt>
      <trkpt lat="43.49599" lon="6.66714">
        <ele>86.3</ele>
        <time>2025-10-26T08:08:28Z</time>
      </trkpt>
      <trkpt lat="43.49599" lon="6.66715">
        <ele>86.3</ele>
        <time>2025-10-26T08:08:29Z</time>
      </trkpt>
      <trkpt lat="43.496" lon="6.66716">
        <ele>86.3</ele>
        <time>2025-10-26T08:08:30Z</time>
      </trkpt>
      <trkpt lat="43.49601" lon="6.66717">
        <ele>86.3</ele>
        <time>2025-10-26T08:08:31Z</time>
      </trkpt>
      <trkpt lat="43.49602" lon="6.66717">
        <ele>86.1</ele>
        <time>2025-10-26T08:08:32Z</time>
      </trkpt>
      <trkpt lat="43.49603" lon="6.66718">
        <ele>86.1</ele>
        <time>2025-10-26T08:08:33Z</time>
      </trkpt>
      <trkpt lat="43.49603" lon="6.66718">
        <ele>86</ele>
        <time>2025-10-26T08:08:34Z</time>
      </trkpt>
      <trkpt lat="43.49604" lon="6.66719">
        <ele>86</ele>
        <time>2025-10-26T08:08:35Z</time>
      </trkpt>
      <trkpt lat="43.49605" lon="6.66719">
        <ele>85.9</ele>
        <time>2025-10-26T08:08:36Z</time>
      </trkpt>
      <trkpt lat="43.49606" lon="6.66718">
        <ele>85.8</ele>
        <time>2025-10-26T08:08:37Z</time>
      </trkpt>
      <trkpt lat="43.49607" lon="6.66718">
        <ele>85.7</ele>
        <time>2025-10-26T08:08:38Z</time>
      </trkpt>
      <trkpt lat="43.49608" lon="6.66718">
        <ele>85.6</ele>
        <time>2025-10-26T08:08:39Z</time>
      </trkpt>
      <trkpt lat="43.49609" lon="6.66717">
        <ele>85.5</ele>
        <time>2025-10-26T08:08:40Z</time>
      </trkpt>
      <trkpt lat="43.49609" lon="6.66717">
        <ele>85.4</ele>
        <time>2025-10-26T08:08:41Z</time>
      </trkpt>
      <trkpt lat="43.4961" lon="6.66716">
        <ele>85.5</ele>
        <time>2025-10-26T08:08:42Z</time>
      </trkpt>
      <trkpt lat="43.4961" lon="6.66715">
        <ele>85.4</ele>
        <time>2025-10-26T08:08:43Z</time>
      </trkpt>
      <trkpt lat="43.4961" lon="6.66714">
        <ele>85.4</ele>
        <time>2025-10-26T08:08:44Z</time>
      </trkpt>
      <trkpt lat="43.49611" lon="6.66713">
        <ele>85.4</ele>
        <time>2025-10-26T08:08:45Z</time>
      </trkpt>
      <trkpt lat="43.49612" lon="6.66713">
        <ele>85.3</ele>
        <time>2025-10-26T08:08:46Z</time>
      </trkpt>
      <trkpt lat="43.49612" lon="6.66712">
        <ele>85.2</ele>
        <time>2025-10-26T08:08:47Z</time>
      </trkpt>
      <trkpt lat="43.49613" lon="6.66711">
        <ele>85.1</ele>
        <time>2025-10-26T08:08:48Z</time>
      </trkpt>
      <trkpt lat="43.49613" lon="6.6671">
        <ele>85.1</ele>
        <time>2025-10-26T08:08:49Z</time>
      </trkpt>
      <trkpt lat="43.49614" lon="6.6671">
        <ele>85</ele>
        <time>2025-10-26T08:08:50Z</time>
      </trkpt>
      <trkpt lat="43.49615" lon="6.66709">
        <ele>84.9</ele>
        <time>2025-10-26T08:08:51Z</time>
      </trkpt>
      <trkpt lat="43.49616" lon="6.66708">
        <ele>84.8</ele>
        <time>2025-10-26T08:08:52Z</time>
      </trkpt>
      <trkpt lat="43.49617" lon="6.66708">
        <ele>84.6</ele>
        <time>2025-10-26T08:08:53Z</time>
      </trkpt>
      <trkpt lat="43.49617" lon="6.66707">
        <ele>84.4</ele>
        <time>2025-10-26T08:08:54Z</time>
      </trkpt>
      <trkpt lat="43.49618" lon="6.66706">
        <ele>84.3</ele>
        <time>2025-10-26T08:08:55Z</time>
      </trkpt>
      <trkpt lat="43.49619" lon="6.66705">
        <ele>84</ele>
        <time>2025-10-26T08:08:56Z</time>
      </trkpt>
      <trkpt lat="43.4962" lon="6.66705">
        <ele>83.8</ele>
        <time>2025-10-26T08:08:57Z</time>
      </trkpt>
      <trkpt lat="43.49621" lon="6.66704">
        <ele>83.7</ele>
        <time>2025-10-26T08:08:58Z</time>
      </trkpt>
      <trkpt lat="43.49622" lon="6.66703">
        <ele>83.6</ele>
        <time>2025-10-26T08:08:59Z</time>
      </trkpt>
      <trkpt lat="43.49623" lon="6.66702">
        <ele>83.5</ele>
        <time>2025-10-26T08:09:00Z</time>
      </trkpt>
      <trkpt lat="43.49624" lon="6.66701">
        <ele>83.2</ele>
        <time>2025-10-26T08:09:01Z</time>
      </trkpt>
      <trkpt lat="43.49624" lon="6.66701">
        <ele>83</ele>
        <time>2025-10-26T08:09:02Z</time>
      </trkpt>
      <trkpt lat="43.49625" lon="6.667">
        <ele>82.9</ele>
        <time>2025-10-26T08:09:03Z</time>
      </trkpt>
      <trkpt lat="43.49626" lon="6.667">
        <ele>82.8</ele>
        <time>2025-10-26T08:09:04Z</time>
      </trkpt>
      <trkpt lat="43.49626" lon="6.66699">
        <ele>82.6</ele>
        <time>2025-10-26T08:09:05Z</time>
      </trkpt>
      <trkpt lat="43.49628" lon="6.66698">
        <ele>82.5</ele>
        <time>2025-10-26T08:09:06Z</time>
      </trkpt>
      <trkpt lat="43.49629" lon="6.66698">
        <ele>82.3</ele>
        <time>2025-10-26T08:09:07Z</time>
      </trkpt>
      <trkpt lat="43.4963" lon="6.66697">
        <ele>82.1</ele>
        <time>2025-10-26T08:09:08Z</time>
      </trkpt>
      <trkpt lat="43.4963" lon="6.66696">
        <ele>81.9</ele>
        <time>2025-10-26T08:09:09Z</time>
      </trkpt>
      <trkpt lat="43.49632" lon="6.66696">
        <ele>82</ele>
        <time>2025-10-26T08:09:10Z</time>
      </trkpt>
      <trkpt lat="43.49632" lon="6.66695">
        <ele>81.8</ele>
        <time>2025-10-26T08:09:11Z</time>
      </trkpt>
      <trkpt lat="43.49633" lon="6.66694">
        <ele>81.7</ele>
        <time>2025-10-26T08:09:12Z</time>
      </trkpt>
      <trkpt lat="43.49634" lon="6.66693">
        <ele>81.7</ele>
        <time>2025-10-26T08:09:13Z</time>
      </trkpt>
      <trkpt lat="43.49634" lon="6.66693">
        <ele>81.6</ele>
        <time>2025-10-26T08:09:14Z</time>
      </trkpt>
      <trkpt lat="43.49635" lon="6.66692">
        <ele>81.5</ele>
        <time>2025-10-26T08:09:15Z</time>
      </trkpt>
      <trkpt lat="43.49636" lon="6.6669">
        <ele>81.3</ele>
        <time>2025-10-26T08:09:16Z</time>
      </trkpt>
      <trkpt lat="43.49636" lon="6.6669">
        <ele>81.1</ele>
        <time>2025-10-26T08:09:17Z</time>
      </trkpt>
      <trkpt lat="43.49636" lon="6.66689">
        <ele>80.8</ele>
        <time>2025-10-26T08:09:18Z</time>
      </trkpt>
      <trkpt lat="43.49637" lon="6.66689">
        <ele>80.6</ele>
        <time>2025-10-26T08:09:19Z</time>
      </trkpt>
      <trkpt lat="43.49638" lon="6.66688">
        <ele>80.4</ele>
        <time>2025-10-26T08:09:20Z</time>
      </trkpt>
      <trkpt lat="43.49639" lon="6.66687">
        <ele>80.3</ele>
        <time>2025-10-26T08:09:21Z</time>
      </trkpt>
      <trkpt lat="43.49641" lon="6.66687">
        <ele>80.2</ele>
        <time>2025-10-26T08:09:22Z</time>
      </trkpt>
      <trkpt lat="43.49642" lon="6.66686">
        <ele>80</ele>
        <time>2025-10-26T08:09:23Z</time>
      </trkpt>
      <trkpt lat="43.49643" lon="6.66685">
        <ele>79.9</ele>
        <time>2025-10-26T08:09:24Z</time>
      </trkpt>
      <trkpt lat="43.49644" lon="6.66684">
        <ele>79.7</ele>
        <time>2025-10-26T08:09:25Z</time>
      </trkpt>
      <trkpt lat="43.49645" lon="6.66683">
        <ele>79.5</ele>
        <time>2025-10-26T08:09:26Z</time>
      </trkpt>
      <trkpt lat="43.49645" lon="6.66682">
        <ele>79.3</ele>
        <time>2025-10-26T08:09:27Z</time>
      </trkpt>
      <trkpt lat="43.49647" lon="6.66681">
        <ele>79.2</ele>
        <time>2025-10-26T08:09:28Z</time>
      </trkpt>
      <trkpt lat="43.49647" lon="6.6668">
        <ele>79</ele>
        <time>2025-10-26T08:09:29Z</time>
      </trkpt>
      <trkpt lat="43.49648" lon="6.66679">
        <ele>78.9</ele>
        <time>2025-10-26T08:09:30Z</time>
      </trkpt>
      <trkpt lat="43.49649" lon="6.66679">
        <ele>78.7</ele>
        <time>2025-10-26T08:09:31Z</time>
      </trkpt>
      <trkpt lat="43.4965" lon="6.66679">
        <ele>78.6</ele>
        <time>2025-10-26T08:09:32Z</time>
      </trkpt>
      <trkpt lat="43.49651" lon="6.66678">
        <ele>78.5</ele>
        <time>2025-10-26T08:09:33Z</time>
      </trkpt>
      <trkpt lat="43.49652" lon="6.66677">
        <ele>78.3</ele>
        <time>2025-10-26T08:09:34Z</time>
      </trkpt>
      <trkpt lat="43.49653" lon="6.66677">
        <ele>78.1</ele>
        <time>2025-10-26T08:09:35Z</time>
      </trkpt>
      <trkpt lat="43.49654" lon="6.66676">
        <ele>77.9</ele>
        <time>2025-10-26T08:09:36Z</time>
      </trkpt>
      <trkpt lat="43.49655" lon="6.66675">
        <ele>77.8</ele>
        <time>2025-10-26T08:09:37Z</time>
      </trkpt>
      <trkpt lat="43.49656" lon="6.66674">
        <ele>77.6</ele>
        <time>2025-10-26T08:09:38Z</time>
      </trkpt>
      <trkpt lat="43.49657" lon="6.66674">
        <ele>77.5</ele>
        <time>2025-10-26T08:09:39Z</time>
      </trkpt>
      <trkpt lat="43.49657" lon="6.66673">
        <ele>77.4</ele>
        <time>2025-10-26T08:09:40Z</time>
      </trkpt>
      <trkpt lat="43.49658" lon="6.66672">
        <ele>77.3</ele>
        <time>2025-10-26T08:09:41Z</time>
      </trkpt>
      <trkpt lat="43.49659" lon="6.66671">
        <ele>77.2</ele>
        <time>2025-10-26T08:09:42Z</time>
      </trkpt>
      <trkpt lat="43.4966" lon="6.66671">
        <ele>77.1</ele>
        <time>2025-10-26T08:09:43Z</time>
      </trkpt>
      <trkpt lat="43.4966" lon="6.6667">
        <ele>76.9</ele>
        <time>2025-10-26T08:09:44Z</time>
      </trkpt>
      <trkpt lat="43.49661" lon="6.66669">
        <ele>76.8</ele>
        <time>2025-10-26T08:09:45Z</time>
      </trkpt>
      <trkpt lat="43.49662" lon="6.66668">
        <ele>76.8</ele>
        <time>2025-10-26T08:09:46Z</time>
      </trkpt>
      <trkpt lat="43.49662" lon="6.66667">
        <ele>76.8</ele>
        <time>2025-10-26T08:09:47Z</time>
      </trkpt>
      <trkpt lat="43.49663" lon="6.66666">
        <ele>76.6</ele>
        <time>2025-10-26T08:09:48Z</time>
      </trkpt>
      <trkpt lat="43.49664" lon="6.66665">
        <ele>76.4</ele>
        <time>2025-10-26T08:09:49Z</time>
      </trkpt>
      <trkpt lat="43.49665" lon="6.66664">
        <ele>76.3</ele>
        <time>2025-10-26T08:09:50Z</time>
      </trkpt>
      <trkpt lat="43.49666" lon="6.66663">
        <ele>76.2</ele>
        <time>2025-10-26T08:09:51Z</time>
      </trkpt>
      <trkpt lat="43.49667" lon="6.66662">
        <ele>76</ele>
        <time>2025-10-26T08:09:52Z</time>
      </trkpt>
      <trkpt lat="43.49668" lon="6.66662">
        <ele>75.9</ele>
        <time>2025-10-26T08:09:53Z</time>
      </trkpt>
      <trkpt lat="43.49668" lon="6.66661">
        <ele>75.7</ele>
        <time>2025-10-26T08:09:54Z</time>
      </trkpt>
      <trkpt lat="43.4967" lon="6.6666">
        <ele>75.6</ele>
        <time>2025-10-26T08:09:55Z</time>
      </trkpt>
      <trkpt lat="43.4967" lon="6.66659">
        <ele>75.4</ele>
        <time>2025-10-26T08:09:56Z</time>
      </trkpt>
      <trkpt lat="43.49671" lon="6.66658">
        <ele>75.3</ele>
        <time>2025-10-26T08:09:57Z</time>
      </trkpt>
      <trkpt lat="43.49672" lon="6.66657">
        <ele>75.3</ele>
        <time>2025-10-26T08:09:58Z</time>
      </trkpt>
      <trkpt lat="43.49673" lon="6.66657">
        <ele>75.2</ele>
        <time>2025-10-26T08:09:59Z</time>
      </trkpt>
      <trkpt lat="43.49674" lon="6.66656">
        <ele>75.1</ele>
        <time>2025-10-26T08:10:00Z</time>
      </trkpt>
      <trkpt lat="43.49675" lon="6.66655">
        <ele>75.1</ele>
        <time>2025-10-26T08:10:01Z</time>
      </trkpt>
      <trkpt lat="43.49676" lon="6.66654">
        <ele>75.1</ele>
        <time>2025-10-26T08:10:02Z</time>
      </trkpt>
      <trkpt lat="43.49676" lon="6.66653">
        <ele>75</ele>
        <time>2025-10-26T08:10:03Z</time>
      </trkpt>
      <trkpt lat="43.49677" lon="6.66652">
        <ele>74.9</ele>
        <time>2025-10-26T08:10:04Z</time>
      </trkpt>
      <trkpt lat="43.49678" lon="6.6665">
        <ele>74.8</ele>
        <time>2025-10-26T08:10:05Z</time>
      </trkpt>
      <trkpt lat="43.49678" lon="6.66649">
        <ele>74.7</ele>
        <time>2025-10-26T08:10:06Z</time>
      </trkpt>
      <trkpt lat="43.49679" lon="6.66647">
        <ele>74.5</ele>
        <time>2025-10-26T08:10:07Z</time>
      </trkpt>
      <trkpt lat="43.49679" lon="6.66646">
        <ele>74.4</ele>
        <time>2025-10-26T08:10:08Z</time>
      </trkpt>
      <trkpt lat="43.49679" lon="6.66645">
        <ele>74.4</ele>
        <time>2025-10-26T08:10:09Z</time>
      </trkpt>
      <trkpt lat="43.4968" lon="6.66644">
        <ele>74.4</ele>
        <time>2025-10-26T08:10:10Z</time>
      </trkpt>
      <trkpt lat="43.49681" lon="6.66642">
        <ele>74.3</ele>
        <time>2025-10-26T08:10:11Z</time>
      </trkpt>
      <trkpt lat="43.49681" lon="6.6664">
        <ele>74.2</ele>
        <time>2025-10-26T08:10:12Z</time>
      </trkpt>
      <trkpt lat="43.49681" lon="6.66639">
        <ele>74</ele>
        <time>2025-10-26T08:10:13Z</time>
      </trkpt>
      <trkpt lat="43.49682" lon="6.66637">
        <ele>74</ele>
        <time>2025-10-26T08:10:14Z</time>
      </trkpt>
      <trkpt lat="43.49682" lon="6.66636">
        <ele>73.9</ele>
        <time>2025-10-26T08:10:15Z</time>
      </trkpt>
      <trkpt lat="43.49682" lon="6.66634">
        <ele>73.8</ele>
        <time>2025-10-26T08:10:16Z</time>
      </trkpt>
      <trkpt lat="43.49682" lon="6.66633">
        <ele>73.7</ele>
        <time>2025-10-26T08:10:17Z</time>
      </trkpt>
      <trkpt lat="43.49683" lon="6.66631">
        <ele>73.7</ele>
        <time>2025-10-26T08:10:18Z</time>
      </trkpt>
      <trkpt lat="43.49684" lon="6.6663">
        <ele>73.8</ele>
        <time>2025-10-26T08:10:19Z</time>
      </trkpt>
      <trkpt lat="43.49684" lon="6.66629">
        <ele>73.8</ele>
        <time>2025-10-26T08:10:20Z</time>
      </trkpt>
      <trkpt lat="43.49685" lon="6.66627">
        <ele>73.9</ele>
        <time>2025-10-26T08:10:21Z</time>
      </trkpt>
      <trkpt lat="43.49686" lon="6.66626">
        <ele>73.9</ele>
        <time>2025-10-26T08:10:22Z</time>
      </trkpt>
      <trkpt lat="43.49686" lon="6.66624">
        <ele>73.9</ele>
        <time>2025-10-26T08:10:23Z</time>
      </trkpt>
      <trkpt lat="43.49686" lon="6.66623">
        <ele>73.9</ele>
        <time>2025-10-26T08:10:24Z</time>
      </trkpt>
      <trkpt lat="43.49687" lon="6.66622">
        <ele>73.9</ele>
        <time>2025-10-26T08:10:25Z</time>
      </trkpt>
      <trkpt lat="43.49687" lon="6.6662">
        <ele>73.9</ele>
        <time>2025-10-26T08:10:26Z</time>
      </trkpt>
      <trkpt lat="43.49688" lon="6.66619">
        <ele>73.8</ele>
        <time>2025-10-26T08:10:27Z</time>
      </trkpt>
      <trkpt lat="43.49688" lon="6.66618">
        <ele>73.8</ele>
        <time>2025-10-26T08:10:28Z</time>
      </trkpt>
      <trkpt lat="43.49689" lon="6.66617">
        <ele>73.8</ele>
        <time>2025-10-26T08:10:29Z</time>
      </trkpt>
      <trkpt lat="43.4969" lon="6.66615">
        <ele>73.8</ele>
        <time>2025-10-26T08:10:30Z</time>
      </trkpt>
      <trkpt lat="43.49691" lon="6.66614">
        <ele>73.7</ele>
        <time>2025-10-26T08:10:31Z</time>
      </trkpt>
      <trkpt lat="43.49691" lon="6.66613">
        <ele>73.6</ele>
        <time>2025-10-26T08:10:32Z</time>
      </trkpt>
      <trkpt lat="43.49692" lon="6.66612">
        <ele>73.6</ele>
        <time>2025-10-26T08:10:33Z</time>
      </trkpt>
      <trkpt lat="43.49693" lon="6.6661">
        <ele>73.5</ele>
        <time>2025-10-26T08:10:34Z</time>
      </trkpt>
      <trkpt lat="43.49694" lon="6.66609">
        <ele>73.5</ele>
        <time>2025-10-26T08:10:35Z</time>
      </trkpt>
      <trkpt lat="43.49695" lon="6.66608">
        <ele>73.4</ele>
        <time>2025-10-26T08:10:36Z</time>
      </trkpt>
      <trkpt lat="43.49696" lon="6.66607">
        <ele>73.2</ele>
        <time>2025-10-26T08:10:37Z</time>
      </trkpt>
      <trkpt lat="43.49696" lon="6.66606">
        <ele>73.2</ele>
        <time>2025-10-26T08:10:38Z</time>
      </trkpt>
      <trkpt lat="43.49697" lon="6.66605">
        <ele>73.2</ele>
        <time>2025-10-26T08:10:39Z</time>
      </trkpt>
      <trkpt lat="43.49698" lon="6.66604">
        <ele>73.2</ele>
        <time>2025-10-26T08:10:40Z</time>
      </trkpt>
      <trkpt lat="43.49699" lon="6.66603">
        <ele>73.2</ele>
        <time>2025-10-26T08:10:41Z</time>
      </trkpt>
      <trkpt lat="43.497" lon="6.66603">
        <ele>73.2</ele>
        <time>2025-10-26T08:10:42Z</time>
      </trkpt>
      <trkpt lat="43.49701" lon="6.66602">
        <ele>73.2</ele>
        <time>2025-10-26T08:10:43Z</time>
      </trkpt>
      <trkpt lat="43.49702" lon="6.66602">
        <ele>73.1</ele>
        <time>2025-10-26T08:10:44Z</time>
      </trkpt>
      <trkpt lat="43.49703" lon="6.66601">
        <ele>73.1</ele>
        <time>2025-10-26T08:10:45Z</time>
      </trkpt>
      <trkpt lat="43.49704" lon="6.66601">
        <ele>73.1</ele>
        <time>2025-10-26T08:10:46Z</time>
      </trkpt>
      <trkpt lat="43.49705" lon="6.66601">
        <ele>73.1</ele>
        <time>2025-10-26T08:10:47Z</time>
      </trkpt>
      <trkpt lat="43.49706" lon="6.66601">
        <ele>73</ele>
        <time>2025-10-26T08:10:48Z</time>
      </trkpt>
      <trkpt lat="43.49707" lon="6.666">
        <ele>73</ele>
        <time>2025-10-26T08:10:49Z</time>
      </trkpt>
      <trkpt lat="43.49708" lon="6.666">
        <ele>72.9</ele>
        <time>2025-10-26T08:10:50Z</time>
      </trkpt>
      <trkpt lat="43.49709" lon="6.666">
        <ele>72.9</ele>
        <time>2025-10-26T08:10:51Z</time>
      </trkpt>
      <trkpt lat="43.4971" lon="6.666">
        <ele>72.8</ele>
        <time>2025-10-26T08:10:52Z</time>
      </trkpt>
      <trkpt lat="43.49712" lon="6.666">
        <ele>72.8</ele>
        <time>2025-10-26T08:10:53Z</time>
      </trkpt>
      <trkpt lat="43.49714" lon="6.666">
        <ele>72.9</ele>
        <time>2025-10-26T08:10:54Z</time>
      </trkpt>
      <trkpt lat="43.49715" lon="6.666">
        <ele>72.9</ele>
        <time>2025-10-26T08:10:55Z</time>
      </trkpt>
      <trkpt lat="43.49716" lon="6.666">
        <ele>72.9</ele>
        <time>2025-10-26T08:10:56Z</time>
      </trkpt>
      <trkpt lat="43.49717" lon="6.666">
        <ele>72.8</ele>
        <time>2025-10-26T08:10:57Z</time>
      </trkpt>
      <trkpt lat="43.49718" lon="6.666">
        <ele>72.7</ele>
        <time>2025-10-26T08:10:58Z</time>
      </trkpt>
      <trkpt lat="43.49719" lon="6.666">
        <ele>72.6</ele>
        <time>2025-10-26T08:10:59Z</time>
      </trkpt>
      <trkpt lat="43.4972" lon="6.66599">
        <ele>72.5</ele>
        <time>2025-10-26T08:11:00Z</time>
      </trkpt>
      <trkpt lat="43.49721" lon="6.66598">
        <ele>72.4</ele>
        <time>2025-10-26T08:11:01Z</time>
      </trkpt>
      <trkpt lat="43.49722" lon="6.66597">
        <ele>72.3</ele>
        <time>2025-10-26T08:11:02Z</time>
      </trkpt>
      <trkpt lat="43.49723" lon="6.66596">
        <ele>72.4</ele>
        <time>2025-10-26T08:11:03Z</time>
      </trkpt>
      <trkpt lat="43.49724" lon="6.66595">
        <ele>72.3</ele>
        <time>2025-10-26T08:11:04Z</time>
      </trkpt>
      <trkpt lat="43.49725" lon="6.66595">
        <ele>72.3</ele>
        <time>2025-10-26T08:11:05Z</time>
      </trkpt>
      <trkpt lat="43.49726" lon="6.66593">
        <ele>72.3</ele>
        <time>2025-10-26T08:11:06Z</time>
      </trkpt>
      <trkpt lat="43.49727" lon="6.66592">
        <ele>72.4</ele>
        <time>2025-10-26T08:11:07Z</time>
      </trkpt>
      <trkpt lat="43.49728" lon="6.66591">
        <ele>72.4</ele>
        <time>2025-10-26T08:11:08Z</time>
      </trkpt>
      <trkpt lat="43.49729" lon="6.6659">
        <ele>72.4</ele>
        <time>2025-10-26T08:11:09Z</time>
      </trkpt>
      <trkpt lat="43.49729" lon="6.66589">
        <ele>72.4</ele>
        <time>2025-10-26T08:11:10Z</time>
      </trkpt>
      <trkpt lat="43.4973" lon="6.66587">
        <ele>72.4</ele>
        <time>2025-10-26T08:11:11Z</time>
      </trkpt>
      <trkpt lat="43.49731" lon="6.66586">
        <ele>72.4</ele>
        <time>2025-10-26T08:11:12Z</time>
      </trkpt>
      <trkpt lat="43.49732" lon="6.66585">
        <ele>72.3</ele>
        <time>2025-10-26T08:11:13Z</time>
      </trkpt>
      <trkpt lat="43.49733" lon="6.66584">
        <ele>72.3</ele>
        <time>2025-10-26T08:11:14Z</time>
      </trkpt>
      <trkpt lat="43.49734" lon="6.66583">
        <ele>72.2</ele>
        <time>2025-10-26T08:11:15Z</time>
      </trkpt>
      <trkpt lat="43.49735" lon="6.66581">
        <ele>72.1</ele>
        <time>2025-10-26T08:11:16Z</time>
      </trkpt>
      <trkpt lat="43.49735" lon="6.6658">
        <ele>72</ele>
        <time>2025-10-26T08:11:17Z</time>
      </trkpt>
      <trkpt lat="43.49736" lon="6.66579">
        <ele>72</ele>
        <time>2025-10-26T08:11:18Z</time>
      </trkpt>
      <trkpt lat="43.49737" lon="6.66578">
        <ele>71.9</ele>
        <time>2025-10-26T08:11:19Z</time>
      </trkpt>
      <trkpt lat="43.49737" lon="6.66577">
        <ele>71.9</ele>
        <time>2025-10-26T08:11:20Z</time>
      </trkpt>
      <trkpt lat="43.49738" lon="6.66575">
        <ele>71.8</ele>
        <time>2025-10-26T08:11:21Z</time>
      </trkpt>
      <trkpt lat="43.49738" lon="6.66574">
        <ele>71.8</ele>
        <time>2025-10-26T08:11:22Z</time>
      </trkpt>
      <trkpt lat="43.49739" lon="6.66573">
        <ele>71.7</ele>
        <time>2025-10-26T08:11:23Z</time>
      </trkpt>
      <trkpt lat="43.4974" lon="6.66571">
        <ele>71.7</ele>
        <time>2025-10-26T08:11:24Z</time>
      </trkpt>
      <trkpt lat="43.49741" lon="6.6657">
        <ele>71.6</ele>
        <time>2025-10-26T08:11:25Z</time>
      </trkpt>
      <trkpt lat="43.49742" lon="6.66569">
        <ele>71.6</ele>
        <time>2025-10-26T08:11:26Z</time>
      </trkpt>
      <trkpt lat="43.49742" lon="6.66567">
        <ele>71.5</ele>
        <time>2025-10-26T08:11:27Z</time>
      </trkpt>
      <trkpt lat="43.49743" lon="6.66566">
        <ele>71.4</ele>
        <time>2025-10-26T08:11:28Z</time>
      </trkpt>
      <trkpt lat="43.49744" lon="6.66565">
        <ele>71.3</ele>
        <time>2025-10-26T08:11:29Z</time>
      </trkpt>
      <trkpt lat="43.49744" lon="6.66563">
        <ele>71.2</ele>
        <time>2025-10-26T08:11:30Z</time>
      </trkpt>
      <trkpt lat="43.49744" lon="6.66562">
        <ele>71.2</ele>
        <time>2025-10-26T08:11:31Z</time>
      </trkpt>
      <trkpt lat="43.49745" lon="6.66561">
        <ele>71.2</ele>
        <time>2025-10-26T08:11:32Z</time>
      </trkpt>
      <trkpt lat="43.49745" lon="6.66559">
        <ele>71.1</ele>
        <time>2025-10-26T08:11:33Z</time>
      </trkpt>
      <trkpt lat="43.49746" lon="6.66558">
        <ele>71.1</ele>
        <time>2025-10-26T08:11:34Z</time>
      </trkpt>
      <trkpt lat="43.49747" lon="6.66557">
        <ele>71.1</ele>
        <time>2025-10-26T08:11:35Z</time>
      </trkpt>
      <trkpt lat="43.49748" lon="6.66556">
        <ele>71.1</ele>
        <time>2025-10-26T08:11:36Z</time>
      </trkpt>
      <trkpt lat="43.49748" lon="6.66554">
        <ele>70.9</ele>
        <time>2025-10-26T08:11:37Z</time>
      </trkpt>
      <trkpt lat="43.49749" lon="6.66553">
        <ele>70.8</ele>
        <time>2025-10-26T08:11:38Z</time>
      </trkpt>
      <trkpt lat="43.4975" lon="6.66552">
        <ele>70.7</ele>
        <time>2025-10-26T08:11:39Z</time>
      </trkpt>
      <trkpt lat="43.4975" lon="6.66552">
        <ele>70.6</ele>
        <time>2025-10-26T08:11:40Z</time>
      </trkpt>
      <trkpt lat="43.4975" lon="6.66552">
        <ele>70.5</ele>
        <time>2025-10-26T08:11:41Z</time>
      </trkpt>
      <trkpt lat="43.4975" lon="6.66552">
        <ele>70.4</ele>
        <time>2025-10-26T08:11:42Z</time>
      </trkpt>
      <trkpt lat="43.4975" lon="6.66552">
        <ele>70.4</ele>
        <time>2025-10-26T08:11:43Z</time>
      </trkpt>
      <trkpt lat="43.4975" lon="6.66552">
        <ele>70.4</ele>
        <time>2025-10-26T08:11:44Z</time>
      </trkpt>
      <trkpt lat="43.4975" lon="6.66551">
        <ele>70.4</ele>
        <time>2025-10-26T08:11:45Z</time>
      </trkpt>
      <trkpt lat="43.4975" lon="6.66551">
        <ele>70.4</ele>
        <time>2025-10-26T08:11:46Z</time>
      </trkpt>
      <trkpt lat="43.4975" lon="6.66551">
        <ele>70.4</ele>
        <time>2025-10-26T08:11:47Z</time>
      </trkpt>
      <trkpt lat="43.4975" lon="6.66551">
        <ele>70.2</ele>
        <time>2025-10-26T08:11:48Z</time>
      </trkpt>
      <trkpt lat="43.4975" lon="6.66551">
        <ele>70.2</ele>
        <time>2025-10-26T08:11:49Z</time>
      </trkpt>
      <trkpt lat="43.4975" lon="6.66551">
        <ele>70.1</ele>
        <time>2025-10-26T08:11:50Z</time>
      </trkpt>
      <trkpt lat="43.4975" lon="6.6655">
        <ele>70.1</ele>
        <time>2025-10-26T08:11:51Z</time>
      </trkpt>
      <trkpt lat="43.4975" lon="6.6655">
        <ele>70.1</ele>
        <time>2025-10-26T08:11:52Z</time>
      </trkpt>
      <trkpt lat="43.49751" lon="6.6655">
        <ele>70.1</ele>
        <time>2025-10-26T08:11:53Z</time>
      </trkpt>
      <trkpt lat="43.49751" lon="6.6655">
        <ele>70.2</ele>
        <time>2025-10-26T08:11:54Z</time>
      </trkpt>
      <trkpt lat="43.49751" lon="6.6655">
        <ele>70.3</ele>
        <time>2025-10-26T08:11:55Z</time>
      </trkpt>
      <trkpt lat="43.49751" lon="6.6655">
        <ele>70.3</ele>
        <time>2025-10-26T08:11:56Z</time>
      </trkpt>
      <trkpt lat="43.49751" lon="6.6655">
        <ele>70.3</ele>
        <time>2025-10-26T08:11:57Z</time>
      </trkpt>
      <trkpt lat="43.49751" lon="6.6655">
        <ele>70.3</ele>
        <time>2025-10-26T08:11:58Z</time>
      </trkpt>
      <trkpt lat="43.49751" lon="6.6655">
        <ele>70.2</ele>
        <time>2025-10-26T08:11:59Z</time>
      </trkpt>
      <trkpt lat="43.49752" lon="6.6655">
        <ele>70.2</ele>
        <time>2025-10-26T08:12:00Z</time>
      </trkpt>
      <trkpt lat="43.49753" lon="6.6655">
        <ele>70.1</ele>
        <time>2025-10-26T08:12:01Z</time>
      </trkpt>
      <trkpt lat="43.49753" lon="6.6655">
        <ele>70.1</ele>
        <time>2025-10-26T08:12:02Z</time>
      </trkpt>
      <trkpt lat="43.49753" lon="6.6655">
        <ele>70.1</ele>
        <time>2025-10-26T08:12:03Z</time>
      </trkpt>
      <trkpt lat="43.49753" lon="6.6655">
        <ele>70.1</ele>
        <time>2025-10-26T08:12:04Z</time>
      </trkpt>
      <trkpt lat="43.49753" lon="6.66551">
        <ele>70.1</ele>
        <time>2025-10-26T08:12:05Z</time>
      </trkpt>
      <trkpt lat="43.49753" lon="6.6655">
        <ele>70.3</ele>
        <time>2025-10-26T08:12:06Z</time>
      </trkpt>
      <trkpt lat="43.49753" lon="6.6655">
        <ele>70.4</ele>
        <time>2025-10-26T08:12:07Z</time>
      </trkpt>
      <trkpt lat="43.49753" lon="6.6655">
        <ele>70.2</ele>
        <time>2025-10-26T08:12:08Z</time>
      </trkpt>
      <trkpt lat="43.49753" lon="6.6655">
        <ele>70.1</ele>
        <time>2025-10-26T08:12:09Z</time>
      </trkpt>
      <trkpt lat="43.49753" lon="6.6655">
        <ele>70.1</ele>
        <time>2025-10-26T08:12:10Z</time>
      </trkpt>
      <trkpt lat="43.49753" lon="6.6655">
        <ele>70.1</ele>
        <time>2025-10-26T08:12:11Z</time>
      </trkpt>
      <trkpt lat="43.49753" lon="6.6655">
        <ele>70</ele>
        <time>2025-10-26T08:12:12Z</time>
      </trkpt>
      <trkpt lat="43.49754" lon="6.6655">
        <ele>70</ele>
        <time>2025-10-26T08:12:13Z</time>
      </trkpt>
      <trkpt lat="43.49754" lon="6.6655">
        <ele>70</ele>
        <time>2025-10-26T08:12:14Z</time>
      </trkpt>
      <trkpt lat="43.49754" lon="6.6655">
        <ele>70</ele>
        <time>2025-10-26T08:12:15Z</time>
      </trkpt>
      <trkpt lat="43.49754" lon="6.6655">
        <ele>70</ele>
        <time>2025-10-26T08:12:16Z</time>
      </trkpt>
      <trkpt lat="43.49754" lon="6.66549">
        <ele>69.9</ele>
        <time>2025-10-26T08:12:17Z</time>
      </trkpt>
      <trkpt lat="43.49754" lon="6.66549">
        <ele>69.9</ele>
        <time>2025-10-26T08:12:18Z</time>
      </trkpt>
      <trkpt lat="43.49754" lon="6.66549">
        <ele>69.9</ele>
        <time>2025-10-26T08:12:19Z</time>
      </trkpt>
      <trkpt lat="43.49754" lon="6.66549">
        <ele>69.8</ele>
        <time>2025-10-26T08:12:20Z</time>
      </trkpt>
      <trkpt lat="43.49754" lon="6.66549">
        <ele>69.6</ele>
        <time>2025-10-26T08:12:21Z</time>
      </trkpt>
      <trkpt lat="43.49754" lon="6.66549">
        <ele>69.6</ele>
        <time>2025-10-26T08:12:22Z</time>
      </trkpt>
      <trkpt lat="43.49754" lon="6.66549">
        <ele>69.5</ele>
        <time>2025-10-26T08:12:23Z</time>
      </trkpt>
      <trkpt lat="43.49754" lon="6.66549">
        <ele>69.5</ele>
        <time>2025-10-26T08:12:24Z</time>
      </trkpt>
      <trkpt lat="43.49754" lon="6.6655">
        <ele>69.5</ele>
        <time>2025-10-26T08:12:25Z</time>
      </trkpt>
      <trkpt lat="43.49754" lon="6.66549">
        <ele>69.5</ele>
        <time>2025-10-26T08:12:26Z</time>
      </trkpt>
      <trkpt lat="43.49754" lon="6.66549">
        <ele>69.4</ele>
        <time>2025-10-26T08:12:27Z</time>
      </trkpt>
      <trkpt lat="43.49754" lon="6.66549">
        <ele>69.4</ele>
        <time>2025-10-26T08:12:28Z</time>
      </trkpt>
      <trkpt lat="43.49754" lon="6.66549">
        <ele>69.3</ele>
        <time>2025-10-26T08:12:29Z</time>
      </trkpt>
      <trkpt lat="43.49754" lon="6.66549">
        <ele>69.2</ele>
        <time>2025-10-26T08:12:30Z</time>
      </trkpt>
      <trkpt lat="43.49754" lon="6.66549">
        <ele>69.1</ele>
        <time>2025-10-26T08:12:31Z</time>
      </trkpt>
      <trkpt lat="43.49753" lon="6.66549">
        <ele>69.2</ele>
        <time>2025-10-26T08:12:32Z</time>
      </trkpt>
      <trkpt lat="43.49753" lon="6.66549">
        <ele>69.3</ele>
        <time>2025-10-26T08:12:33Z</time>
      </trkpt>
      <trkpt lat="43.49753" lon="6.66549">
        <ele>69.5</ele>
        <time>2025-10-26T08:12:34Z</time>
      </trkpt>
      <trkpt lat="43.49753" lon="6.66549">
        <ele>69.6</ele>
        <time>2025-10-26T08:12:35Z</time>
      </trkpt>
      <trkpt lat="43.49754" lon="6.66548">
        <ele>69.6</ele>
        <time>2025-10-26T08:12:36Z</time>
      </trkpt>
      <trkpt lat="43.49754" lon="6.66548">
        <ele>69.6</ele>
        <time>2025-10-26T08:12:37Z</time>
      </trkpt>
      <trkpt lat="43.49754" lon="6.66548">
        <ele>69.6</ele>
        <time>2025-10-26T08:12:38Z</time>
      </trkpt>
      <trkpt lat="43.49754" lon="6.66548">
        <ele>69.5</ele>
        <time>2025-10-26T08:12:39Z</time>
      </trkpt>
      <trkpt lat="43.49754" lon="6.66547">
        <ele>69.5</ele>
        <time>2025-10-26T08:12:40Z</time>
      </trkpt>
      <trkpt lat="43.49754" lon="6.66546">
        <ele>69.5</ele>
        <time>2025-10-26T08:12:41Z</time>
      </trkpt>
      <trkpt lat="43.49754" lon="6.66546">
        <ele>69.6</ele>
        <time>2025-10-26T08:12:42Z</time>
      </trkpt>
      <trkpt lat="43.49755" lon="6.66545">
        <ele>69.6</ele>
        <time>2025-10-26T08:12:43Z</time>
      </trkpt>
      <trkpt lat="43.49755" lon="6.66545">
        <ele>69.7</ele>
        <time>2025-10-26T08:12:44Z</time>
      </trkpt>
      <trkpt lat="43.49755" lon="6.66544">
        <ele>69.6</ele>
        <time>2025-10-26T08:12:45Z</time>
      </trkpt>
      <trkpt lat="43.49755" lon="6.66543">
        <ele>69.5</ele>
        <time>2025-10-26T08:12:46Z</time>
      </trkpt>
      <trkpt lat="43.49756" lon="6.66543">
        <ele>69.5</ele>
        <time>2025-10-26T08:12:47Z</time>
      </trkpt>
      <trkpt lat="43.49756" lon="6.66542">
        <ele>69.4</ele>
        <time>2025-10-26T08:12:48Z</time>
      </trkpt>
      <trkpt lat="43.49756" lon="6.66541">
        <ele>69.4</ele>
        <time>2025-10-26T08:12:49Z</time>
      </trkpt>
      <trkpt lat="43.49756" lon="6.66541">
        <ele>69.4</ele>
        <time>2025-10-26T08:12:50Z</time>
      </trkpt>
      <trkpt lat="43.49757" lon="6.6654">
        <ele>69.4</ele>
        <time>2025-10-26T08:12:51Z</time>
      </trkpt>
      <trkpt lat="43.49757" lon="6.66539">
        <ele>69.3</ele>
        <time>2025-10-26T08:12:52Z</time>
      </trkpt>
      <trkpt lat="43.49757" lon="6.66538">
        <ele>69.3</ele>
        <time>2025-10-26T08:12:53Z</time>
      </trkpt>
      <trkpt lat="43.49757" lon="6.66537">
        <ele>69.1</ele>
        <time>2025-10-26T08:12:54Z</time>
      </trkpt>
      <trkpt lat="43.49758" lon="6.66537">
        <ele>69</ele>
        <time>2025-10-26T08:12:55Z</time>
      </trkpt>
      <trkpt lat="43.49759" lon="6.66536">
        <ele>68.9</ele>
        <time>2025-10-26T08:12:56Z</time>
      </trkpt>
      <trkpt lat="43.49759" lon="6.66535">
        <ele>68.8</ele>
        <time>2025-10-26T08:12:57Z</time>
      </trkpt>
      <trkpt lat="43.4976" lon="6.66535">
        <ele>68.6</ele>
        <time>2025-10-26T08:12:58Z</time>
      </trkpt>
      <trkpt lat="43.49761" lon="6.66534">
        <ele>68.3</ele>
        <time>2025-10-26T08:12:59Z</time>
      </trkpt>
      <trkpt lat="43.49762" lon="6.66533">
        <ele>68.3</ele>
        <time>2025-10-26T08:13:00Z</time>
      </trkpt>
      <trkpt lat="43.49762" lon="6.66532">
        <ele>68</ele>
        <time>2025-10-26T08:13:01Z</time>
      </trkpt>
      <trkpt lat="43.49763" lon="6.66531">
        <ele>67.9</ele>
        <time>2025-10-26T08:13:02Z</time>
      </trkpt>
      <trkpt lat="43.49763" lon="6.6653">
        <ele>67.8</ele>
        <time>2025-10-26T08:13:03Z</time>
      </trkpt>
      <trkpt lat="43.49764" lon="6.66529">
        <ele>67.7</ele>
        <time>2025-10-26T08:13:04Z</time>
      </trkpt>
      <trkpt lat="43.49764" lon="6.66528">
        <ele>67.8</ele>
        <time>2025-10-26T08:13:05Z</time>
      </trkpt>
      <trkpt lat="43.49765" lon="6.66528">
        <ele>67.8</ele>
        <time>2025-10-26T08:13:06Z</time>
      </trkpt>
      <trkpt lat="43.49765" lon="6.66527">
        <ele>67.8</ele>
        <time>2025-10-26T08:13:07Z</time>
      </trkpt>
      <trkpt lat="43.49765" lon="6.66526">
        <ele>67.7</ele>
        <time>2025-10-26T08:13:08Z</time>
      </trkpt>
      <trkpt lat="43.49765" lon="6.66525">
        <ele>67.6</ele>
        <time>2025-10-26T08:13:09Z</time>
      </trkpt>
      <trkpt lat="43.49766" lon="6.66524">
        <ele>67.4</ele>
        <time>2025-10-26T08:13:10Z</time>
      </trkpt>
      <trkpt lat="43.49766" lon="6.66523">
        <ele>67.4</ele>
        <time>2025-10-26T08:13:11Z</time>
      </trkpt>
      <trkpt lat="43.49767" lon="6.66522">
        <ele>67.3</ele>
        <time>2025-10-26T08:13:12Z</time>
      </trkpt>
      <trkpt lat="43.49768" lon="6.66522">
        <ele>67.3</ele>
        <time>2025-10-26T08:13:13Z</time>
      </trkpt>
      <trkpt lat="43.49769" lon="6.66521">
        <ele>67.2</ele>
        <time>2025-10-26T08:13:14Z</time>
      </trkpt>
      <trkpt lat="43.49769" lon="6.6652">
        <ele>67.1</ele>
        <time>2025-10-26T08:13:15Z</time>
      </trkpt>
      <trkpt lat="43.4977" lon="6.6652">
        <ele>67.1</ele>
        <time>2025-10-26T08:13:16Z</time>
      </trkpt>
      <trkpt lat="43.49771" lon="6.66519">
        <ele>67</ele>
        <time>2025-10-26T08:13:17Z</time>
      </trkpt>
      <trkpt lat="43.49772" lon="6.66518">
        <ele>67</ele>
        <time>2025-10-26T08:13:18Z</time>
      </trkpt>
      <trkpt lat="43.49772" lon="6.66517">
        <ele>66.9</ele>
        <time>2025-10-26T08:13:19Z</time>
      </trkpt>
      <trkpt lat="43.49773" lon="6.66516">
        <ele>66.8</ele>
        <time>2025-10-26T08:13:20Z</time>
      </trkpt>
      <trkpt lat="43.49774" lon="6.66515">
        <ele>66.8</ele>
        <time>2025-10-26T08:13:21Z</time>
      </trkpt>
      <trkpt lat="43.49774" lon="6.66514">
        <ele>66.7</ele>
        <time>2025-10-26T08:13:22Z</time>
      </trkpt>
      <trkpt lat="43.49775" lon="6.66513">
        <ele>66.5</ele>
        <time>2025-10-26T08:13:23Z</time>
      </trkpt>
      <trkpt lat="43.49776" lon="6.66512">
        <ele>66.4</ele>
        <time>2025-10-26T08:13:24Z</time>
      </trkpt>
      <trkpt lat="43.49776" lon="6.66511">
        <ele>66.1</ele>
        <time>2025-10-26T08:13:25Z</time>
      </trkpt>
      <trkpt lat="43.49777" lon="6.6651">
        <ele>65.9</ele>
        <time>2025-10-26T08:13:26Z</time>
      </trkpt>
      <trkpt lat="43.49777" lon="6.66509">
        <ele>65.7</ele>
        <time>2025-10-26T08:13:27Z</time>
      </trkpt>
      <trkpt lat="43.49778" lon="6.66509">
        <ele>65.5</ele>
        <time>2025-10-26T08:13:28Z</time>
      </trkpt>
      <trkpt lat="43.49778" lon="6.6651">
        <ele>65.4</ele>
        <time>2025-10-26T08:13:29Z</time>
      </trkpt>
      <trkpt lat="43.49779" lon="6.6651">
        <ele>65.2</ele>
        <time>2025-10-26T08:13:30Z</time>
      </trkpt>
      <trkpt lat="43.49779" lon="6.6651">
        <ele>65.1</ele>
        <time>2025-10-26T08:13:31Z</time>
      </trkpt>
      <trkpt lat="43.49778" lon="6.6651">
        <ele>65.1</ele>
        <time>2025-10-26T08:13:32Z</time>
      </trkpt>
      <trkpt lat="43.49779" lon="6.6651">
        <ele>65</ele>
        <time>2025-10-26T08:13:33Z</time>
      </trkpt>
      <trkpt lat="43.49779" lon="6.6651">
        <ele>65</ele>
        <time>2025-10-26T08:13:34Z</time>
      </trkpt>
      <trkpt lat="43.49779" lon="6.6651">
        <ele>64.9</ele>
        <time>2025-10-26T08:13:35Z</time>
      </trkpt>
      <trkpt lat="43.49779" lon="6.6651">
        <ele>64.8</ele>
        <time>2025-10-26T08:13:36Z</time>
      </trkpt>
      <trkpt lat="43.49779" lon="6.6651">
        <ele>64.8</ele>
        <time>2025-10-26T08:13:37Z</time>
      </trkpt>
      <trkpt lat="43.49779" lon="6.66511">
        <ele>64.7</ele>
        <time>2025-10-26T08:13:38Z</time>
      </trkpt>
      <trkpt lat="43.49779" lon="6.66511">
        <ele>64.8</ele>
        <time>2025-10-26T08:13:39Z</time>
      </trkpt>
      <trkpt lat="43.49779" lon="6.66511">
        <ele>65</ele>
        <time>2025-10-26T08:13:40Z</time>
      </trkpt>
      <trkpt lat="43.49779" lon="6.66511">
        <ele>65</ele>
        <time>2025-10-26T08:13:41Z</time>
      </trkpt>
      <trkpt lat="43.49779" lon="6.66511">
        <ele>65.1</ele>
        <time>2025-10-26T08:13:42Z</time>
      </trkpt>
      <trkpt lat="43.49779" lon="6.66511">
        <ele>65.1</ele>
        <time>2025-10-26T08:13:43Z</time>
      </trkpt>
      <trkpt lat="43.49779" lon="6.66511">
        <ele>65.1</ele>
        <time>2025-10-26T08:13:44Z</time>
      </trkpt>
      <trkpt lat="43.49779" lon="6.66511">
        <ele>65.1</ele>
        <time>2025-10-26T08:13:45Z</time>
      </trkpt>
      <trkpt lat="43.49779" lon="6.66511">
        <ele>65</ele>
        <time>2025-10-26T08:13:46Z</time>
      </trkpt>
      <trkpt lat="43.49779" lon="6.6651">
        <ele>65</ele>
        <time>2025-10-26T08:13:47Z</time>
      </trkpt>
      <trkpt lat="43.49779" lon="6.6651">
        <ele>64.9</ele>
        <time>2025-10-26T08:13:48Z</time>
      </trkpt>
      <trkpt lat="43.49779" lon="6.6651">
        <ele>64.9</ele>
        <time>2025-10-26T08:13:49Z</time>
      </trkpt>
      <trkpt lat="43.49779" lon="6.6651">
        <ele>64.9</ele>
        <time>2025-10-26T08:13:50Z</time>
      </trkpt>
      <trkpt lat="43.49779" lon="6.6651">
        <ele>64.8</ele>
        <time>2025-10-26T08:13:51Z</time>
      </trkpt>
      <trkpt lat="43.49779" lon="6.6651">
        <ele>64.9</ele>
        <time>2025-10-26T08:13:52Z</time>
      </trkpt>
      <trkpt lat="43.49779" lon="6.6651">
        <ele>65</ele>
        <time>2025-10-26T08:13:53Z</time>
      </trkpt>
      <trkpt lat="43.49779" lon="6.6651">
        <ele>65</ele>
        <time>2025-10-26T08:13:54Z</time>
      </trkpt>
      <trkpt lat="43.49779" lon="6.6651">
        <ele>65.1</ele>
        <time>2025-10-26T08:13:55Z</time>
      </trkpt>
      <trkpt lat="43.49779" lon="6.6651">
        <ele>65.1</ele>
        <time>2025-10-26T08:13:56Z</time>
      </trkpt>
      <trkpt lat="43.49779" lon="6.66509">
        <ele>65.2</ele>
        <time>2025-10-26T08:13:57Z</time>
      </trkpt>
      <trkpt lat="43.49779" lon="6.66509">
        <ele>65.2</ele>
        <time>2025-10-26T08:13:58Z</time>
      </trkpt>
      <trkpt lat="43.49779" lon="6.66509">
        <ele>65.3</ele>
        <time>2025-10-26T08:13:59Z</time>
      </trkpt>
      <trkpt lat="43.49778" lon="6.66509">
        <ele>65.3</ele>
        <time>2025-10-26T08:14:00Z</time>
      </trkpt>
      <trkpt lat="43.49779" lon="6.66509">
        <ele>65.3</ele>
        <time>2025-10-26T08:14:01Z</time>
      </trkpt>
      <trkpt lat="43.49779" lon="6.66509">
        <ele>65.2</ele>
        <time>2025-10-26T08:14:02Z</time>
      </trkpt>
      <trkpt lat="43.4978" lon="6.66508">
        <ele>65.2</ele>
        <time>2025-10-26T08:14:03Z</time>
      </trkpt>
      <trkpt lat="43.4978" lon="6.66508">
        <ele>65.1</ele>
        <time>2025-10-26T08:14:04Z</time>
      </trkpt>
      <trkpt lat="43.4978" lon="6.66508">
        <ele>65</ele>
        <time>2025-10-26T08:14:05Z</time>
      </trkpt>
      <trkpt lat="43.4978" lon="6.66508">
        <ele>65</ele>
        <time>2025-10-26T08:14:06Z</time>
      </trkpt>
      <trkpt lat="43.4978" lon="6.66508">
        <ele>65</ele>
        <time>2025-10-26T08:14:07Z</time>
      </trkpt>
      <trkpt lat="43.4978" lon="6.66508">
        <ele>65</ele>
        <time>2025-10-26T08:14:08Z</time>
      </trkpt>
      <trkpt lat="43.4978" lon="6.66508">
        <ele>65</ele>
        <time>2025-10-26T08:14:09Z</time>
      </trkpt>
      <trkpt lat="43.49781" lon="6.66508">
        <ele>65</ele>
        <time>2025-10-26T08:14:10Z</time>
      </trkpt>
      <trkpt lat="43.49781" lon="6.66508">
        <ele>65</ele>
        <time>2025-10-26T08:14:11Z</time>
      </trkpt>
      <trkpt lat="43.49781" lon="6.66508">
        <ele>65</ele>
        <time>2025-10-26T08:14:12Z</time>
      </trkpt>
      <trkpt lat="43.49781" lon="6.66508">
        <ele>65</ele>
        <time>2025-10-26T08:14:13Z</time>
      </trkpt>
      <trkpt lat="43.49781" lon="6.66508">
        <ele>65</ele>
        <time>2025-10-26T08:14:14Z</time>
      </trkpt>
      <trkpt lat="43.49781" lon="6.66508">
        <ele>65</ele>
        <time>2025-10-26T08:14:15Z</time>
      </trkpt>
      <trkpt lat="43.49781" lon="6.66508">
        <ele>65.1</ele>
        <time>2025-10-26T08:14:16Z</time>
      </trkpt>
      <trkpt lat="43.49782" lon="6.66508">
        <ele>65.1</ele>
        <time>2025-10-26T08:14:17Z</time>
      </trkpt>
      <trkpt lat="43.49782" lon="6.66508">
        <ele>65</ele>
        <time>2025-10-26T08:14:18Z</time>
      </trkpt>
      <trkpt lat="43.49782" lon="6.66508">
        <ele>65</ele>
        <time>2025-10-26T08:14:19Z</time>
      </trkpt>
      <trkpt lat="43.49782" lon="6.66508">
        <ele>65</ele>
        <time>2025-10-26T08:14:20Z</time>
      </trkpt>
      <trkpt lat="43.49782" lon="6.66508">
        <ele>65</ele>
        <time>2025-10-26T08:14:21Z</time>
      </trkpt>
      <trkpt lat="43.49782" lon="6.66508">
        <ele>65</ele>
        <time>2025-10-26T08:14:22Z</time>
      </trkpt>
      <trkpt lat="43.49782" lon="6.66508">
        <ele>65.1</ele>
        <time>2025-10-26T08:14:23Z</time>
      </trkpt>
      <trkpt lat="43.49782" lon="6.66508">
        <ele>65.1</ele>
        <time>2025-10-26T08:14:24Z</time>
      </trkpt>
      <trkpt lat="43.49782" lon="6.66507">
        <ele>65.1</ele>
        <time>2025-10-26T08:14:25Z</time>
      </trkpt>
      <trkpt lat="43.49783" lon="6.66507">
        <ele>65</ele>
        <time>2025-10-26T08:14:26Z</time>
      </trkpt>
      <trkpt lat="43.49783" lon="6.66507">
        <ele>65</ele>
        <time>2025-10-26T08:14:27Z</time>
      </trkpt>
      <trkpt lat="43.49783" lon="6.66507">
        <ele>64.9</ele>
        <time>2025-10-26T08:14:28Z</time>
      </trkpt>
      <trkpt lat="43.49783" lon="6.66507">
        <ele>64.9</ele>
        <time>2025-10-26T08:14:29Z</time>
      </trkpt>
      <trkpt lat="43.49782" lon="6.66507">
        <ele>64.9</ele>
        <time>2025-10-26T08:14:30Z</time>
      </trkpt>
      <trkpt lat="43.49783" lon="6.66507">
        <ele>64.9</ele>
        <time>2025-10-26T08:14:31Z</time>
      </trkpt>
      <trkpt lat="43.49783" lon="6.66508">
        <ele>64.8</ele>
        <time>2025-10-26T08:14:32Z</time>
      </trkpt>
      <trkpt lat="43.49783" lon="6.66508">
        <ele>64.7</ele>
        <time>2025-10-26T08:14:33Z</time>
      </trkpt>
      <trkpt lat="43.49783" lon="6.66508">
        <ele>64.7</ele>
        <time>2025-10-26T08:14:34Z</time>
      </trkpt>
      <trkpt lat="43.49783" lon="6.66508">
        <ele>64.7</ele>
        <time>2025-10-26T08:14:35Z</time>
      </trkpt>
      <trkpt lat="43.49783" lon="6.66508">
        <ele>64.7</ele>
        <time>2025-10-26T08:14:36Z</time>
      </trkpt>
      <trkpt lat="43.49783" lon="6.66507">
        <ele>64.6</ele>
        <time>2025-10-26T08:14:37Z</time>
      </trkpt>
      <trkpt lat="43.49784" lon="6.66507">
        <ele>64.6</ele>
        <time>2025-10-26T08:14:38Z</time>
      </trkpt>
      <trkpt lat="43.49785" lon="6.66506">
        <ele>64.6</ele>
        <time>2025-10-26T08:14:39Z</time>
      </trkpt>
      <trkpt lat="43.49785" lon="6.66506">
        <ele>64.8</ele>
        <time>2025-10-26T08:14:40Z</time>
      </trkpt>
      <trkpt lat="43.49786" lon="6.66506">
        <ele>64.8</ele>
        <time>2025-10-26T08:14:41Z</time>
      </trkpt>
      <trkpt lat="43.49787" lon="6.66506">
        <ele>64.5</ele>
        <time>2025-10-26T08:14:42Z</time>
      </trkpt>
      <trkpt lat="43.49788" lon="6.66506">
        <ele>64.3</ele>
        <time>2025-10-26T08:14:43Z</time>
      </trkpt>
      <trkpt lat="43.49789" lon="6.66506">
        <ele>64.1</ele>
        <time>2025-10-26T08:14:44Z</time>
      </trkpt>
      <trkpt lat="43.4979" lon="6.66506">
        <ele>63.9</ele>
        <time>2025-10-26T08:14:45Z</time>
      </trkpt>
      <trkpt lat="43.4979" lon="6.66505">
        <ele>63.8</ele>
        <time>2025-10-26T08:14:46Z</time>
      </trkpt>
      <trkpt lat="43.49791" lon="6.66505">
        <ele>63.7</ele>
        <time>2025-10-26T08:14:47Z</time>
      </trkpt>
      <trkpt lat="43.49792" lon="6.66505">
        <ele>63.7</ele>
        <time>2025-10-26T08:14:48Z</time>
      </trkpt>
      <trkpt lat="43.49793" lon="6.66505">
        <ele>63.7</ele>
        <time>2025-10-26T08:14:49Z</time>
      </trkpt>
      <trkpt lat="43.49794" lon="6.66504">
        <ele>63.7</ele>
        <time>2025-10-26T08:14:50Z</time>
      </trkpt>
      <trkpt lat="43.49796" lon="6.66503">
        <ele>63.7</ele>
        <time>2025-10-26T08:14:51Z</time>
      </trkpt>
      <trkpt lat="43.49797" lon="6.66502">
        <ele>63.7</ele>
        <time>2025-10-26T08:14:52Z</time>
      </trkpt>
      <trkpt lat="43.49798" lon="6.66501">
        <ele>63.7</ele>
        <time>2025-10-26T08:14:53Z</time>
      </trkpt>
      <trkpt lat="43.49799" lon="6.66501">
        <ele>63.8</ele>
        <time>2025-10-26T08:14:54Z</time>
      </trkpt>
      <trkpt lat="43.498" lon="6.665">
        <ele>63.8</ele>
        <time>2025-10-26T08:14:55Z</time>
      </trkpt>
      <trkpt lat="43.49801" lon="6.66499">
        <ele>63.8</ele>
        <time>2025-10-26T08:14:56Z</time>
      </trkpt>
      <trkpt lat="43.49802" lon="6.66498">
        <ele>63.7</ele>
        <time>2025-10-26T08:14:57Z</time>
      </trkpt>
      <trkpt lat="43.49803" lon="6.66498">
        <ele>63.8</ele>
        <time>2025-10-26T08:14:58Z</time>
      </trkpt>
      <trkpt lat="43.49804" lon="6.66497">
        <ele>63.8</ele>
        <time>2025-10-26T08:14:59Z</time>
      </trkpt>
      <trkpt lat="43.49805" lon="6.66497">
        <ele>63.8</ele>
        <time>2025-10-26T08:15:00Z</time>
      </trkpt>
      <trkpt lat="43.49806" lon="6.66496">
        <ele>63.8</ele>
        <time>2025-10-26T08:15:01Z</time>
      </trkpt>
      <trkpt lat="43.49807" lon="6.66496">
        <ele>63.8</ele>
        <time>2025-10-26T08:15:02Z</time>
      </trkpt>
      <trkpt lat="43.49807" lon="6.66495">
        <ele>63.8</ele>
        <time>2025-10-26T08:15:03Z</time>
      </trkpt>
      <trkpt lat="43.49808" lon="6.66495">
        <ele>63.8</ele>
        <time>2025-10-26T08:15:04Z</time>
      </trkpt>
      <trkpt lat="43.49809" lon="6.66494">
        <ele>63.8</ele>
        <time>2025-10-26T08:15:05Z</time>
      </trkpt>
      <trkpt lat="43.4981" lon="6.66493">
        <ele>63.7</ele>
        <time>2025-10-26T08:15:06Z</time>
      </trkpt>
      <trkpt lat="43.49811" lon="6.66493">
        <ele>63.8</ele>
        <time>2025-10-26T08:15:07Z</time>
      </trkpt>
      <trkpt lat="43.49812" lon="6.66492">
        <ele>63.9</ele>
        <time>2025-10-26T08:15:08Z</time>
      </trkpt>
      <trkpt lat="43.49812" lon="6.66492">
        <ele>64</ele>
        <time>2025-10-26T08:15:09Z</time>
      </trkpt>
      <trkpt lat="43.49813" lon="6.66491">
        <ele>64.1</ele>
        <time>2025-10-26T08:15:10Z</time>
      </trkpt>
      <trkpt lat="43.49814" lon="6.66491">
        <ele>64.1</ele>
        <time>2025-10-26T08:15:11Z</time>
      </trkpt>
      <trkpt lat="43.49816" lon="6.6649">
        <ele>64.1</ele>
        <time>2025-10-26T08:15:12Z</time>
      </trkpt>
      <trkpt lat="43.49816" lon="6.6649">
        <ele>64.1</ele>
        <time>2025-10-26T08:15:13Z</time>
      </trkpt>
      <trkpt lat="43.49817" lon="6.6649">
        <ele>64.1</ele>
        <time>2025-10-26T08:15:14Z</time>
      </trkpt>
      <trkpt lat="43.49818" lon="6.66489">
        <ele>64.1</ele>
        <time>2025-10-26T08:15:15Z</time>
      </trkpt>
      <trkpt lat="43.49819" lon="6.66488">
        <ele>64.2</ele>
        <time>2025-10-26T08:15:16Z</time>
      </trkpt>
      <trkpt lat="43.4982" lon="6.66488">
        <ele>64.3</ele>
        <time>2025-10-26T08:15:17Z</time>
      </trkpt>
      <trkpt lat="43.49821" lon="6.66487">
        <ele>64.3</ele>
        <time>2025-10-26T08:15:18Z</time>
      </trkpt>
      <trkpt lat="43.49822" lon="6.66487">
        <ele>64.4</ele>
        <time>2025-10-26T08:15:19Z</time>
      </trkpt>
      <trkpt lat="43.49824" lon="6.66486">
        <ele>64.3</ele>
        <time>2025-10-26T08:15:20Z</time>
      </trkpt>
      <trkpt lat="43.49825" lon="6.66486">
        <ele>64.3</ele>
        <time>2025-10-26T08:15:21Z</time>
      </trkpt>
      <trkpt lat="43.49826" lon="6.66485">
        <ele>64.4</ele>
        <time>2025-10-26T08:15:22Z</time>
      </trkpt>
      <trkpt lat="43.49827" lon="6.66485">
        <ele>64.3</ele>
        <time>2025-10-26T08:15:23Z</time>
      </trkpt>
      <trkpt lat="43.49829" lon="6.66485">
        <ele>64.3</ele>
        <time>2025-10-26T08:15:24Z</time>
      </trkpt>
      <trkpt lat="43.4983" lon="6.66485">
        <ele>64.2</ele>
        <time>2025-10-26T08:15:25Z</time>
      </trkpt>
      <trkpt lat="43.49831" lon="6.66484">
        <ele>64.4</ele>
        <time>2025-10-26T08:15:26Z</time>
      </trkpt>
      <trkpt lat="43.49832" lon="6.66484">
        <ele>64.5</ele>
        <time>2025-10-26T08:15:27Z</time>
      </trkpt>
      <trkpt lat="43.49833" lon="6.66484">
        <ele>64.6</ele>
        <time>2025-10-26T08:15:28Z</time>
      </trkpt>
      <trkpt lat="43.49834" lon="6.66484">
        <ele>64.7</ele>
        <time>2025-10-26T08:15:29Z</time>
      </trkpt>
      <trkpt lat="43.49835" lon="6.66483">
        <ele>64.9</ele>
        <time>2025-10-26T08:15:30Z</time>
      </trkpt>
      <trkpt lat="43.49836" lon="6.66483">
        <ele>65.1</ele>
        <time>2025-10-26T08:15:31Z</time>
      </trkpt>
      <trkpt lat="43.49837" lon="6.66483">
        <ele>65.2</ele>
        <time>2025-10-26T08:15:32Z</time>
      </trkpt>
      <trkpt lat="43.49838" lon="6.66483">
        <ele>65.3</ele>
        <time>2025-10-26T08:15:33Z</time>
      </trkpt>
      <trkpt lat="43.49839" lon="6.66483">
        <ele>65.4</ele>
        <time>2025-10-26T08:15:34Z</time>
      </trkpt>
      <trkpt lat="43.4984" lon="6.66482">
        <ele>65.4</ele>
        <time>2025-10-26T08:15:35Z</time>
      </trkpt>
      <trkpt lat="43.49841" lon="6.66482">
        <ele>65.6</ele>
        <time>2025-10-26T08:15:36Z</time>
      </trkpt>
      <trkpt lat="43.49842" lon="6.66482">
        <ele>65.7</ele>
        <time>2025-10-26T08:15:37Z</time>
      </trkpt>
      <trkpt lat="43.49843" lon="6.66481">
        <ele>65.8</ele>
        <time>2025-10-26T08:15:38Z</time>
      </trkpt>
      <trkpt lat="43.49844" lon="6.66481">
        <ele>66.1</ele>
        <time>2025-10-26T08:15:39Z</time>
      </trkpt>
      <trkpt lat="43.49845" lon="6.66481">
        <ele>66.1</ele>
        <time>2025-10-26T08:15:40Z</time>
      </trkpt>
      <trkpt lat="43.49846" lon="6.66481">
        <ele>66.1</ele>
        <time>2025-10-26T08:15:41Z</time>
      </trkpt>
      <trkpt lat="43.49847" lon="6.66481">
        <ele>66.1</ele>
        <time>2025-10-26T08:15:42Z</time>
      </trkpt>
      <trkpt lat="43.49848" lon="6.66482">
        <ele>66.2</ele>
        <time>2025-10-26T08:15:43Z</time>
      </trkpt>
      <trkpt lat="43.49849" lon="6.66482">
        <ele>66.2</ele>
        <time>2025-10-26T08:15:44Z</time>
      </trkpt>
      <trkpt lat="43.49851" lon="6.66482">
        <ele>66.3</ele>
        <time>2025-10-26T08:15:45Z</time>
      </trkpt>
      <trkpt lat="43.49852" lon="6.66482">
        <ele>66.4</ele>
        <time>2025-10-26T08:15:46Z</time>
      </trkpt>
      <trkpt lat="43.49853" lon="6.66482">
        <ele>66.4</ele>
        <time>2025-10-26T08:15:47Z</time>
      </trkpt>
      <trkpt lat="43.49854" lon="6.66482">
        <ele>66.4</ele>
        <time>2025-10-26T08:15:48Z</time>
      </trkpt>
      <trkpt lat="43.49855" lon="6.66482">
        <ele>66.6</ele>
        <time>2025-10-26T08:15:49Z</time>
      </trkpt>
      <trkpt lat="43.49856" lon="6.66482">
        <ele>66.7</ele>
        <time>2025-10-26T08:15:50Z</time>
      </trkpt>
      <trkpt lat="43.49857" lon="6.66483">
        <ele>66.6</ele>
        <time>2025-10-26T08:15:51Z</time>
      </trkpt>
      <trkpt lat="43.49858" lon="6.66483">
        <ele>66.7</ele>
        <time>2025-10-26T08:15:52Z</time>
      </trkpt>
      <trkpt lat="43.49859" lon="6.66483">
        <ele>66.8</ele>
        <time>2025-10-26T08:15:53Z</time>
      </trkpt>
      <trkpt lat="43.4986" lon="6.66484">
        <ele>66.8</ele>
        <time>2025-10-26T08:15:54Z</time>
      </trkpt>
      <trkpt lat="43.49861" lon="6.66485">
        <ele>66.9</ele>
        <time>2025-10-26T08:15:55Z</time>
      </trkpt>
      <trkpt lat="43.49862" lon="6.66485">
        <ele>66.9</ele>
        <time>2025-10-26T08:15:56Z</time>
      </trkpt>
      <trkpt lat="43.49863" lon="6.66485">
        <ele>67</ele>
        <time>2025-10-26T08:15:57Z</time>
      </trkpt>
      <trkpt lat="43.49864" lon="6.66485">
        <ele>67</ele>
        <time>2025-10-26T08:15:58Z</time>
      </trkpt>
      <trkpt lat="43.49865" lon="6.66486">
        <ele>67.2</ele>
        <time>2025-10-26T08:15:59Z</time>
      </trkpt>
      <trkpt lat="43.49866" lon="6.66486">
        <ele>67.3</ele>
        <time>2025-10-26T08:16:00Z</time>
      </trkpt>
      <trkpt lat="43.49867" lon="6.66486">
        <ele>67.3</ele>
        <time>2025-10-26T08:16:01Z</time>
      </trkpt>
      <trkpt lat="43.49868" lon="6.66486">
        <ele>67.3</ele>
        <time>2025-10-26T08:16:02Z</time>
      </trkpt>
      <trkpt lat="43.49869" lon="6.66486">
        <ele>67.4</ele>
        <time>2025-10-26T08:16:03Z</time>
      </trkpt>
      <trkpt lat="43.4987" lon="6.66486">
        <ele>67.6</ele>
        <time>2025-10-26T08:16:04Z</time>
      </trkpt>
      <trkpt lat="43.49872" lon="6.66486">
        <ele>67.7</ele>
        <time>2025-10-26T08:16:05Z</time>
      </trkpt>
      <trkpt lat="43.49872" lon="6.66485">
        <ele>67.9</ele>
        <time>2025-10-26T08:16:06Z</time>
      </trkpt>
      <trkpt lat="43.49873" lon="6.66485">
        <ele>67.9</ele>
        <time>2025-10-26T08:16:07Z</time>
      </trkpt>
      <trkpt lat="43.49874" lon="6.66485">
        <ele>67.9</ele>
        <time>2025-10-26T08:16:08Z</time>
      </trkpt>
      <trkpt lat="43.49874" lon="6.66485">
        <ele>68</ele>
        <time>2025-10-26T08:16:09Z</time>
      </trkpt>
      <trkpt lat="43.49874" lon="6.66484">
        <ele>68</ele>
        <time>2025-10-26T08:16:10Z</time>
      </trkpt>
      <trkpt lat="43.49874" lon="6.66485">
        <ele>67.9</ele>
        <time>2025-10-26T08:16:11Z</time>
      </trkpt>
      <trkpt lat="43.49874" lon="6.66485">
        <ele>67.9</ele>
        <time>2025-10-26T08:16:12Z</time>
      </trkpt>
      <trkpt lat="43.49874" lon="6.66485">
        <ele>67.9</ele>
        <time>2025-10-26T08:16:13Z</time>
      </trkpt>
      <trkpt lat="43.49874" lon="6.66485">
        <ele>67.8</ele>
        <time>2025-10-26T08:16:14Z</time>
      </trkpt>
      <trkpt lat="43.49874" lon="6.66485">
        <ele>67.8</ele>
        <time>2025-10-26T08:16:15Z</time>
      </trkpt>
      <trkpt lat="43.49874" lon="6.66485">
        <ele>67.8</ele>
        <time>2025-10-26T08:16:16Z</time>
      </trkpt>
      <trkpt lat="43.49874" lon="6.66484">
        <ele>67.7</ele>
        <time>2025-10-26T08:16:17Z</time>
      </trkpt>
      <trkpt lat="43.49874" lon="6.66485">
        <ele>67.7</ele>
        <time>2025-10-26T08:16:18Z</time>
      </trkpt>
      <trkpt lat="43.49874" lon="6.66484">
        <ele>67.7</ele>
        <time>2025-10-26T08:16:19Z</time>
      </trkpt>
      <trkpt lat="43.49874" lon="6.66484">
        <ele>67.7</ele>
        <time>2025-10-26T08:16:20Z</time>
      </trkpt>
      <trkpt lat="43.49874" lon="6.66484">
        <ele>67.7</ele>
        <time>2025-10-26T08:16:21Z</time>
      </trkpt>
      <trkpt lat="43.49874" lon="6.66485">
        <ele>67.7</ele>
        <time>2025-10-26T08:16:22Z</time>
      </trkpt>
      <trkpt lat="43.49874" lon="6.66486">
        <ele>67.6</ele>
        <time>2025-10-26T08:16:23Z</time>
      </trkpt>
      <trkpt lat="43.49875" lon="6.66486">
        <ele>67.7</ele>
        <time>2025-10-26T08:16:24Z</time>
      </trkpt>
      <trkpt lat="43.49876" lon="6.66486">
        <ele>67.7</ele>
        <time>2025-10-26T08:16:25Z</time>
      </trkpt>
      <trkpt lat="43.49876" lon="6.66486">
        <ele>67.7</ele>
        <time>2025-10-26T08:16:26Z</time>
      </trkpt>
      <trkpt lat="43.49877" lon="6.66485">
        <ele>67.8</ele>
        <time>2025-10-26T08:16:27Z</time>
      </trkpt>
      <trkpt lat="43.49877" lon="6.66485">
        <ele>67.8</ele>
        <time>2025-10-26T08:16:28Z</time>
      </trkpt>
      <trkpt lat="43.49877" lon="6.66485">
        <ele>67.8</ele>
        <time>2025-10-26T08:16:29Z</time>
      </trkpt>
      <trkpt lat="43.49877" lon="6.66485">
        <ele>67.8</ele>
        <time>2025-10-26T08:16:30Z</time>
      </trkpt>
      <trkpt lat="43.49877" lon="6.66485">
        <ele>67.8</ele>
        <time>2025-10-26T08:16:31Z</time>
      </trkpt>
      <trkpt lat="43.49878" lon="6.66485">
        <ele>67.8</ele>
        <time>2025-10-26T08:16:32Z</time>
      </trkpt>
      <trkpt lat="43.49878" lon="6.66485">
        <ele>67.8</ele>
        <time>2025-10-26T08:16:33Z</time>
      </trkpt>
      <trkpt lat="43.49878" lon="6.66485">
        <ele>67.8</ele>
        <time>2025-10-26T08:16:34Z</time>
      </trkpt>
      <trkpt lat="43.49878" lon="6.66485">
        <ele>67.9</ele>
        <time>2025-10-26T08:16:35Z</time>
      </trkpt>
      <trkpt lat="43.49878" lon="6.66486">
        <ele>68</ele>
        <time>2025-10-26T08:16:36Z</time>
      </trkpt>
      <trkpt lat="43.49878" lon="6.66486">
        <ele>67.9</ele>
        <time>2025-10-26T08:16:37Z</time>
      </trkpt>
      <trkpt lat="43.49879" lon="6.66486">
        <ele>68</ele>
        <time>2025-10-26T08:16:38Z</time>
      </trkpt>
      <trkpt lat="43.49879" lon="6.66486">
        <ele>68</ele>
        <time>2025-10-26T08:16:39Z</time>
      </trkpt>
      <trkpt lat="43.49879" lon="6.66486">
        <ele>68</ele>
        <time>2025-10-26T08:16:40Z</time>
      </trkpt>
      <trkpt lat="43.49879" lon="6.66486">
        <ele>68</ele>
        <time>2025-10-26T08:16:41Z</time>
      </trkpt>
      <trkpt lat="43.49879" lon="6.66486">
        <ele>68.1</ele>
        <time>2025-10-26T08:16:42Z</time>
      </trkpt>
      <trkpt lat="43.49879" lon="6.66486">
        <ele>68</ele>
        <time>2025-10-26T08:16:43Z</time>
      </trkpt>
      <trkpt lat="43.49879" lon="6.66486">
        <ele>67.9</ele>
        <time>2025-10-26T08:16:44Z</time>
      </trkpt>
      <trkpt lat="43.49879" lon="6.66486">
        <ele>68</ele>
        <time>2025-10-26T08:16:45Z</time>
      </trkpt>
      <trkpt lat="43.49879" lon="6.66486">
        <ele>68</ele>
        <time>2025-10-26T08:16:46Z</time>
      </trkpt>
      <trkpt lat="43.49879" lon="6.66486">
        <ele>68.1</ele>
        <time>2025-10-26T08:16:47Z</time>
      </trkpt>
      <trkpt lat="43.49879" lon="6.66486">
        <ele>68.2</ele>
        <time>2025-10-26T08:16:48Z</time>
      </trkpt>
      <trkpt lat="43.49879" lon="6.66486">
        <ele>68.1</ele>
        <time>2025-10-26T08:16:49Z</time>
      </trkpt>
      <trkpt lat="43.49879" lon="6.66486">
        <ele>68.1</ele>
        <time>2025-10-26T08:16:50Z</time>
      </trkpt>
      <trkpt lat="43.49879" lon="6.66486">
        <ele>68.1</ele>
        <time>2025-10-26T08:16:51Z</time>
      </trkpt>
      <trkpt lat="43.49879" lon="6.66486">
        <ele>68.2</ele>
        <time>2025-10-26T08:16:52Z</time>
      </trkpt>
      <trkpt lat="43.49879" lon="6.66486">
        <ele>68.1</ele>
        <time>2025-10-26T08:16:53Z</time>
      </trkpt>
      <trkpt lat="43.49879" lon="6.66486">
        <ele>68.1</ele>
        <time>2025-10-26T08:16:54Z</time>
      </trkpt>
      <trkpt lat="43.4988" lon="6.66486">
        <ele>68.1</ele>
        <time>2025-10-26T08:16:55Z</time>
      </trkpt>
      <trkpt lat="43.4988" lon="6.66486">
        <ele>68</ele>
        <time>2025-10-26T08:16:56Z</time>
      </trkpt>
      <trkpt lat="43.4988" lon="6.66486">
        <ele>68</ele>
        <time>2025-10-26T08:16:57Z</time>
      </trkpt>
      <trkpt lat="43.4988" lon="6.66486">
        <ele>68</ele>
        <time>2025-10-26T08:16:58Z</time>
      </trkpt>
      <trkpt lat="43.4988" lon="6.66486">
        <ele>68</ele>
        <time>2025-10-26T08:16:59Z</time>
      </trkpt>
      <trkpt lat="43.4988" lon="6.66486">
        <ele>67.9</ele>
        <time>2025-10-26T08:17:00Z</time>
      </trkpt>
      <trkpt lat="43.4988" lon="6.66485">
        <ele>67.8</ele>
        <time>2025-10-26T08:17:01Z</time>
      </trkpt>
      <trkpt lat="43.4988" lon="6.66485">
        <ele>67.8</ele>
        <time>2025-10-26T08:17:02Z</time>
      </trkpt>
      <trkpt lat="43.49881" lon="6.66485">
        <ele>67.7</ele>
        <time>2025-10-26T08:17:03Z</time>
      </trkpt>
      <trkpt lat="43.49881" lon="6.66485">
        <ele>67.7</ele>
        <time>2025-10-26T08:17:04Z</time>
      </trkpt>
      <trkpt lat="43.4988" lon="6.66485">
        <ele>67.7</ele>
        <time>2025-10-26T08:17:05Z</time>
      </trkpt>
      <trkpt lat="43.4988" lon="6.66485">
        <ele>67.7</ele>
        <time>2025-10-26T08:17:06Z</time>
      </trkpt>
      <trkpt lat="43.49881" lon="6.66485">
        <ele>67.7</ele>
        <time>2025-10-26T08:17:07Z</time>
      </trkpt>
      <trkpt lat="43.49881" lon="6.66486">
        <ele>67.7</ele>
        <time>2025-10-26T08:17:08Z</time>
      </trkpt>
      <trkpt lat="43.49881" lon="6.66485">
        <ele>67.7</ele>
        <time>2025-10-26T08:17:09Z</time>
      </trkpt>
      <trkpt lat="43.49881" lon="6.66485">
        <ele>67.8</ele>
        <time>2025-10-26T08:17:10Z</time>
      </trkpt>
      <trkpt lat="43.49881" lon="6.66485">
        <ele>67.8</ele>
        <time>2025-10-26T08:17:11Z</time>
      </trkpt>
      <trkpt lat="43.4988" lon="6.66485">
        <ele>67.8</ele>
        <time>2025-10-26T08:17:12Z</time>
      </trkpt>
      <trkpt lat="43.4988" lon="6.66485">
        <ele>67.8</ele>
        <time>2025-10-26T08:17:13Z</time>
      </trkpt>
      <trkpt lat="43.4988" lon="6.66485">
        <ele>67.8</ele>
        <time>2025-10-26T08:17:14Z</time>
      </trkpt>
      <trkpt lat="43.49879" lon="6.66485">
        <ele>67.9</ele>
        <time>2025-10-26T08:17:15Z</time>
      </trkpt>
      <trkpt lat="43.49879" lon="6.66485">
        <ele>68</ele>
        <time>2025-10-26T08:17:16Z</time>
      </trkpt>
      <trkpt lat="43.49879" lon="6.66485">
        <ele>68.1</ele>
        <time>2025-10-26T08:17:17Z</time>
      </trkpt>
      <trkpt lat="43.49879" lon="6.66485">
        <ele>68</ele>
        <time>2025-10-26T08:17:18Z</time>
      </trkpt>
      <trkpt lat="43.49879" lon="6.66485">
        <ele>67.9</ele>
        <time>2025-10-26T08:17:19Z</time>
      </trkpt>
      <trkpt lat="43.49879" lon="6.66485">
        <ele>67.9</ele>
        <time>2025-10-26T08:17:20Z</time>
      </trkpt>
      <trkpt lat="43.49879" lon="6.66486">
        <ele>67.9</ele>
        <time>2025-10-26T08:17:21Z</time>
      </trkpt>
      <trkpt lat="43.49879" lon="6.66486">
        <ele>67.8</ele>
        <time>2025-10-26T08:17:22Z</time>
      </trkpt>
      <trkpt lat="43.49879" lon="6.66485">
        <ele>67.8</ele>
        <time>2025-10-26T08:17:23Z</time>
      </trkpt>
      <trkpt lat="43.4988" lon="6.66485">
        <ele>67.7</ele>
        <time>2025-10-26T08:17:24Z</time>
      </trkpt>
      <trkpt lat="43.4988" lon="6.66485">
        <ele>67.8</ele>
        <time>2025-10-26T08:17:25Z</time>
      </trkpt>
      <trkpt lat="43.49879" lon="6.66485">
        <ele>67.8</ele>
        <time>2025-10-26T08:17:26Z</time>
      </trkpt>
      <trkpt lat="43.49879" lon="6.66485">
        <ele>67.8</ele>
        <time>2025-10-26T08:17:27Z</time>
      </trkpt>
      <trkpt lat="43.49879" lon="6.66485">
        <ele>67.8</ele>
        <time>2025-10-26T08:17:28Z</time>
      </trkpt>
      <trkpt lat="43.49879" lon="6.66485">
        <ele>67.9</ele>
        <time>2025-10-26T08:17:29Z</time>
      </trkpt>
      <trkpt lat="43.49879" lon="6.66485">
        <ele>67.9</ele>
        <time>2025-10-26T08:17:30Z</time>
      </trkpt>
      <trkpt lat="43.49879" lon="6.66485">
        <ele>68</ele>
        <time>2025-10-26T08:17:31Z</time>
      </trkpt>
      <trkpt lat="43.49879" lon="6.66485">
        <ele>68.1</ele>
        <time>2025-10-26T08:17:32Z</time>
      </trkpt>
      <trkpt lat="43.49879" lon="6.66485">
        <ele>68.1</ele>
        <time>2025-10-26T08:17:33Z</time>
      </trkpt>
      <trkpt lat="43.49879" lon="6.66485">
        <ele>68.1</ele>
        <time>2025-10-26T08:17:34Z</time>
      </trkpt>
      <trkpt lat="43.49879" lon="6.66485">
        <ele>68.1</ele>
        <time>2025-10-26T08:17:35Z</time>
      </trkpt>
      <trkpt lat="43.49879" lon="6.66485">
        <ele>68.1</ele>
        <time>2025-10-26T08:17:36Z</time>
      </trkpt>
      <trkpt lat="43.49879" lon="6.66485">
        <ele>68.1</ele>
        <time>2025-10-26T08:17:37Z</time>
      </trkpt>
      <trkpt lat="43.49878" lon="6.66485">
        <ele>68.1</ele>
        <time>2025-10-26T08:17:38Z</time>
      </trkpt>
      <trkpt lat="43.49878" lon="6.66485">
        <ele>68.1</ele>
        <time>2025-10-26T08:17:39Z</time>
      </trkpt>
      <trkpt lat="43.49878" lon="6.66485">
        <ele>68</ele>
        <time>2025-10-26T08:17:40Z</time>
      </trkpt>
      <trkpt lat="43.49878" lon="6.66485">
        <ele>68</ele>
        <time>2025-10-26T08:17:41Z</time>
      </trkpt>
      <trkpt lat="43.49878" lon="6.66485">
        <ele>68</ele>
        <time>2025-10-26T08:17:42Z</time>
      </trkpt>
      <trkpt lat="43.49878" lon="6.66485">
        <ele>67.9</ele>
        <time>2025-10-26T08:17:43Z</time>
      </trkpt>
      <trkpt lat="43.49878" lon="6.66485">
        <ele>67.8</ele>
        <time>2025-10-26T08:17:44Z</time>
      </trkpt>
      <trkpt lat="43.49878" lon="6.66485">
        <ele>67.8</ele>
        <time>2025-10-26T08:17:45Z</time>
      </trkpt>
      <trkpt lat="43.49878" lon="6.66485">
        <ele>67.8</ele>
        <time>2025-10-26T08:17:46Z</time>
      </trkpt>
      <trkpt lat="43.49878" lon="6.66485">
        <ele>67.8</ele>
        <time>2025-10-26T08:17:47Z</time>
      </trkpt>
      <trkpt lat="43.49878" lon="6.66485">
        <ele>67.9</ele>
        <time>2025-10-26T08:17:48Z</time>
      </trkpt>
      <trkpt lat="43.49878" lon="6.66485">
        <ele>67.9</ele>
        <time>2025-10-26T08:17:49Z</time>
      </trkpt>
      <trkpt lat="43.49878" lon="6.66485">
        <ele>67.9</ele>
        <time>2025-10-26T08:17:50Z</time>
      </trkpt>
      <trkpt lat="43.49878" lon="6.66485">
        <ele>67.9</ele>
        <time>2025-10-26T08:17:51Z</time>
      </trkpt>
      <trkpt lat="43.49878" lon="6.66485">
        <ele>67.9</ele>
        <time>2025-10-26T08:17:52Z</time>
      </trkpt>
      <trkpt lat="43.49878" lon="6.66485">
        <ele>68.1</ele>
        <time>2025-10-26T08:17:53Z</time>
      </trkpt>
      <trkpt lat="43.49878" lon="6.66485">
        <ele>68.2</ele>
        <time>2025-10-26T08:17:54Z</time>
      </trkpt>
      <trkpt lat="43.49878" lon="6.66485">
        <ele>68.3</ele>
        <time>2025-10-26T08:17:55Z</time>
      </trkpt>
      <trkpt lat="43.49878" lon="6.66485">
        <ele>68.2</ele>
        <time>2025-10-26T08:17:56Z</time>
      </trkpt>
      <trkpt lat="43.49878" lon="6.66484">
        <ele>68.2</ele>
        <time>2025-10-26T08:17:57Z</time>
      </trkpt>
      <trkpt lat="43.49878" lon="6.66484">
        <ele>68.1</ele>
        <time>2025-10-26T08:17:58Z</time>
      </trkpt>
      <trkpt lat="43.49878" lon="6.66483">
        <ele>68</ele>
        <time>2025-10-26T08:17:59Z</time>
      </trkpt>
      <trkpt lat="43.49879" lon="6.66482">
        <ele>68</ele>
        <time>2025-10-26T08:18:00Z</time>
      </trkpt>
      <trkpt lat="43.49878" lon="6.66481">
        <ele>67.9</ele>
        <time>2025-10-26T08:18:01Z</time>
      </trkpt>
      <trkpt lat="43.49878" lon="6.66481">
        <ele>67.8</ele>
        <time>2025-10-26T08:18:02Z</time>
      </trkpt>
      <trkpt lat="43.49878" lon="6.66481">
        <ele>67.8</ele>
        <time>2025-10-26T08:18:03Z</time>
      </trkpt>
      <trkpt lat="43.49879" lon="6.66481">
        <ele>67.7</ele>
        <time>2025-10-26T08:18:04Z</time>
      </trkpt>
      <trkpt lat="43.49879" lon="6.6648">
        <ele>67.6</ele>
        <time>2025-10-26T08:18:05Z</time>
      </trkpt>
      <trkpt lat="43.49879" lon="6.66479">
        <ele>67.6</ele>
        <time>2025-10-26T08:18:06Z</time>
      </trkpt>
      <trkpt lat="43.49879" lon="6.66477">
        <ele>67.6</ele>
        <time>2025-10-26T08:18:07Z</time>
      </trkpt>
      <trkpt lat="43.49879" lon="6.66476">
        <ele>67.6</ele>
        <time>2025-10-26T08:18:08Z</time>
      </trkpt>
      <trkpt lat="43.49879" lon="6.66475">
        <ele>67.6</ele>
        <time>2025-10-26T08:18:09Z</time>
      </trkpt>
      <trkpt lat="43.49879" lon="6.66473">
        <ele>67.6</ele>
        <time>2025-10-26T08:18:10Z</time>
      </trkpt>
      <trkpt lat="43.4988" lon="6.66472">
        <ele>67.6</ele>
        <time>2025-10-26T08:18:11Z</time>
      </trkpt>
      <trkpt lat="43.4988" lon="6.66471">
        <ele>67.6</ele>
        <time>2025-10-26T08:18:12Z</time>
      </trkpt>
      <trkpt lat="43.4988" lon="6.66469">
        <ele>67.6</ele>
        <time>2025-10-26T08:18:13Z</time>
      </trkpt>
      <trkpt lat="43.49881" lon="6.66468">
        <ele>67.5</ele>
        <time>2025-10-26T08:18:14Z</time>
      </trkpt>
      <trkpt lat="43.49881" lon="6.66467">
        <ele>67.4</ele>
        <time>2025-10-26T08:18:15Z</time>
      </trkpt>
      <trkpt lat="43.49882" lon="6.66466">
        <ele>67.4</ele>
        <time>2025-10-26T08:18:16Z</time>
      </trkpt>
      <trkpt lat="43.49882" lon="6.66464">
        <ele>67.3</ele>
        <time>2025-10-26T08:18:17Z</time>
      </trkpt>
      <trkpt lat="43.49883" lon="6.66463">
        <ele>67.3</ele>
        <time>2025-10-26T08:18:18Z</time>
      </trkpt>
      <trkpt lat="43.49883" lon="6.66461">
        <ele>67.2</ele>
        <time>2025-10-26T08:18:19Z</time>
      </trkpt>
      <trkpt lat="43.49884" lon="6.6646">
        <ele>67</ele>
        <time>2025-10-26T08:18:20Z</time>
      </trkpt>
      <trkpt lat="43.49884" lon="6.66459">
        <ele>66.9</ele>
        <time>2025-10-26T08:18:21Z</time>
      </trkpt>
      <trkpt lat="43.49884" lon="6.66458">
        <ele>66.7</ele>
        <time>2025-10-26T08:18:22Z</time>
      </trkpt>
      <trkpt lat="43.49885" lon="6.66456">
        <ele>66.7</ele>
        <time>2025-10-26T08:18:23Z</time>
      </trkpt>
      <trkpt lat="43.49885" lon="6.66455">
        <ele>66.6</ele>
        <time>2025-10-26T08:18:24Z</time>
      </trkpt>
      <trkpt lat="43.49885" lon="6.66454">
        <ele>66.6</ele>
        <time>2025-10-26T08:18:25Z</time>
      </trkpt>
      <trkpt lat="43.49886" lon="6.66453">
        <ele>66.5</ele>
        <time>2025-10-26T08:18:26Z</time>
      </trkpt>
      <trkpt lat="43.49887" lon="6.66452">
        <ele>66.5</ele>
        <time>2025-10-26T08:18:27Z</time>
      </trkpt>
      <trkpt lat="43.49887" lon="6.66451">
        <ele>66.5</ele>
        <time>2025-10-26T08:18:28Z</time>
      </trkpt>
      <trkpt lat="43.49887" lon="6.66449">
        <ele>66.6</ele>
        <time>2025-10-26T08:18:29Z</time>
      </trkpt>
      <trkpt lat="43.49887" lon="6.66447">
        <ele>66.7</ele>
        <time>2025-10-26T08:18:30Z</time>
      </trkpt>
      <trkpt lat="43.49887" lon="6.66446">
        <ele>66.6</ele>
        <time>2025-10-26T08:18:31Z</time>
      </trkpt>
      <trkpt lat="43.49888" lon="6.66445">
        <ele>66.6</ele>
        <time>2025-10-26T08:18:32Z</time>
      </trkpt>
      <trkpt lat="43.49888" lon="6.66443">
        <ele>66.6</ele>
        <time>2025-10-26T08:18:33Z</time>
      </trkpt>
      <trkpt lat="43.49888" lon="6.66441">
        <ele>66.6</ele>
        <time>2025-10-26T08:18:34Z</time>
      </trkpt>
      <trkpt lat="43.49888" lon="6.6644">
        <ele>66.5</ele>
        <time>2025-10-26T08:18:35Z</time>
      </trkpt>
      <trkpt lat="43.49889" lon="6.66438">
        <ele>66.4</ele>
        <time>2025-10-26T08:18:36Z</time>
      </trkpt>
      <trkpt lat="43.49889" lon="6.66437">
        <ele>66.4</ele>
        <time>2025-10-26T08:18:37Z</time>
      </trkpt>
      <trkpt lat="43.49889" lon="6.66435">
        <ele>66.3</ele>
        <time>2025-10-26T08:18:38Z</time>
      </trkpt>
      <trkpt lat="43.49889" lon="6.66434">
        <ele>66.2</ele>
        <time>2025-10-26T08:18:39Z</time>
      </trkpt>
      <trkpt lat="43.4989" lon="6.66432">
        <ele>66.1</ele>
        <time>2025-10-26T08:18:40Z</time>
      </trkpt>
      <trkpt lat="43.4989" lon="6.66431">
        <ele>66</ele>
        <time>2025-10-26T08:18:41Z</time>
      </trkpt>
      <trkpt lat="43.4989" lon="6.66429">
        <ele>66</ele>
        <time>2025-10-26T08:18:42Z</time>
      </trkpt>
      <trkpt lat="43.49891" lon="6.66428">
        <ele>65.9</ele>
        <time>2025-10-26T08:18:43Z</time>
      </trkpt>
      <trkpt lat="43.49891" lon="6.66426">
        <ele>65.9</ele>
        <time>2025-10-26T08:18:44Z</time>
      </trkpt>
      <trkpt lat="43.49891" lon="6.66424">
        <ele>65.9</ele>
        <time>2025-10-26T08:18:45Z</time>
      </trkpt>
      <trkpt lat="43.49891" lon="6.66423">
        <ele>65.9</ele>
        <time>2025-10-26T08:18:46Z</time>
      </trkpt>
      <trkpt lat="43.49891" lon="6.66421">
        <ele>65.9</ele>
        <time>2025-10-26T08:18:47Z</time>
      </trkpt>
      <trkpt lat="43.49891" lon="6.6642">
        <ele>65.9</ele>
        <time>2025-10-26T08:18:48Z</time>
      </trkpt>
      <trkpt lat="43.49891" lon="6.66418">
        <ele>65.9</ele>
        <time>2025-10-26T08:18:49Z</time>
      </trkpt>
      <trkpt lat="43.49891" lon="6.66417">
        <ele>65.9</ele>
        <time>2025-10-26T08:18:50Z</time>
      </trkpt>
      <trkpt lat="43.49891" lon="6.66415">
        <ele>66</ele>
        <time>2025-10-26T08:18:51Z</time>
      </trkpt>
      <trkpt lat="43.49891" lon="6.66413">
        <ele>66</ele>
        <time>2025-10-26T08:18:52Z</time>
      </trkpt>
      <trkpt lat="43.49891" lon="6.66412">
        <ele>66</ele>
        <time>2025-10-26T08:18:53Z</time>
      </trkpt>
      <trkpt lat="43.49891" lon="6.66411">
        <ele>66</ele>
        <time>2025-10-26T08:18:54Z</time>
      </trkpt>
      <trkpt lat="43.49891" lon="6.66409">
        <ele>65.8</ele>
        <time>2025-10-26T08:18:55Z</time>
      </trkpt>
      <trkpt lat="43.49891" lon="6.66408">
        <ele>65.7</ele>
        <time>2025-10-26T08:18:56Z</time>
      </trkpt>
      <trkpt lat="43.4989" lon="6.66406">
        <ele>65.5</ele>
        <time>2025-10-26T08:18:57Z</time>
      </trkpt>
      <trkpt lat="43.4989" lon="6.66404">
        <ele>65.4</ele>
        <time>2025-10-26T08:18:58Z</time>
      </trkpt>
      <trkpt lat="43.4989" lon="6.66402">
        <ele>65.3</ele>
        <time>2025-10-26T08:18:59Z</time>
      </trkpt>
      <trkpt lat="43.49889" lon="6.66401">
        <ele>65.2</ele>
        <time>2025-10-26T08:19:00Z</time>
      </trkpt>
      <trkpt lat="43.49889" lon="6.664">
        <ele>65.1</ele>
        <time>2025-10-26T08:19:01Z</time>
      </trkpt>
      <trkpt lat="43.49889" lon="6.66399">
        <ele>65</ele>
        <time>2025-10-26T08:19:02Z</time>
      </trkpt>
      <trkpt lat="43.49889" lon="6.66398">
        <ele>64.9</ele>
        <time>2025-10-26T08:19:03Z</time>
      </trkpt>
      <trkpt lat="43.49889" lon="6.66396">
        <ele>64.8</ele>
        <time>2025-10-26T08:19:04Z</time>
      </trkpt>
      <trkpt lat="43.49889" lon="6.66395">
        <ele>64.8</ele>
        <time>2025-10-26T08:19:05Z</time>
      </trkpt>
      <trkpt lat="43.49889" lon="6.66393">
        <ele>64.7</ele>
        <time>2025-10-26T08:19:06Z</time>
      </trkpt>
      <trkpt lat="43.4989" lon="6.66392">
        <ele>64.6</ele>
        <time>2025-10-26T08:19:07Z</time>
      </trkpt>
      <trkpt lat="43.4989" lon="6.6639">
        <ele>64.5</ele>
        <time>2025-10-26T08:19:08Z</time>
      </trkpt>
      <trkpt lat="43.49891" lon="6.66389">
        <ele>64.5</ele>
        <time>2025-10-26T08:19:09Z</time>
      </trkpt>
      <trkpt lat="43.49891" lon="6.66387">
        <ele>64.4</ele>
        <time>2025-10-26T08:19:10Z</time>
      </trkpt>
      <trkpt lat="43.49891" lon="6.66386">
        <ele>64.3</ele>
        <time>2025-10-26T08:19:11Z</time>
      </trkpt>
      <trkpt lat="43.49891" lon="6.66384">
        <ele>64.3</ele>
        <time>2025-10-26T08:19:12Z</time>
      </trkpt>
      <trkpt lat="43.49892" lon="6.66383">
        <ele>64.3</ele>
        <time>2025-10-26T08:19:13Z</time>
      </trkpt>
      <trkpt lat="43.49892" lon="6.66382">
        <ele>64.2</ele>
        <time>2025-10-26T08:19:14Z</time>
      </trkpt>
      <trkpt lat="43.49893" lon="6.66381">
        <ele>64.3</ele>
        <time>2025-10-26T08:19:15Z</time>
      </trkpt>
      <trkpt lat="43.49894" lon="6.66379">
        <ele>64.3</ele>
        <time>2025-10-26T08:19:16Z</time>
      </trkpt>
      <trkpt lat="43.49894" lon="6.66378">
        <ele>64.3</ele>
        <time>2025-10-26T08:19:17Z</time>
      </trkpt>
      <trkpt lat="43.49894" lon="6.66376">
        <ele>64.2</ele>
        <time>2025-10-26T08:19:18Z</time>
      </trkpt>
      <trkpt lat="43.49895" lon="6.66375">
        <ele>64.2</ele>
        <time>2025-10-26T08:19:19Z</time>
      </trkpt>
      <trkpt lat="43.49895" lon="6.66373">
        <ele>64.1</ele>
        <time>2025-10-26T08:19:20Z</time>
      </trkpt>
      <trkpt lat="43.49896" lon="6.66372">
        <ele>64.1</ele>
        <time>2025-10-26T08:19:21Z</time>
      </trkpt>
      <trkpt lat="43.49897" lon="6.66371">
        <ele>64.1</ele>
        <time>2025-10-26T08:19:22Z</time>
      </trkpt>
      <trkpt lat="43.49898" lon="6.66369">
        <ele>64.1</ele>
        <time>2025-10-26T08:19:23Z</time>
      </trkpt>
      <trkpt lat="43.49898" lon="6.66368">
        <ele>64.1</ele>
        <time>2025-10-26T08:19:24Z</time>
      </trkpt>
      <trkpt lat="43.49899" lon="6.66367">
        <ele>64</ele>
        <time>2025-10-26T08:19:25Z</time>
      </trkpt>
      <trkpt lat="43.499" lon="6.66366">
        <ele>64.2</ele>
        <time>2025-10-26T08:19:26Z</time>
      </trkpt>
      <trkpt lat="43.499" lon="6.66364">
        <ele>64.2</ele>
        <time>2025-10-26T08:19:27Z</time>
      </trkpt>
      <trkpt lat="43.49901" lon="6.66363">
        <ele>64.1</ele>
        <time>2025-10-26T08:19:28Z</time>
      </trkpt>
      <trkpt lat="43.49902" lon="6.66361">
        <ele>64.1</ele>
        <time>2025-10-26T08:19:29Z</time>
      </trkpt>
      <trkpt lat="43.49902" lon="6.6636">
        <ele>64.1</ele>
        <time>2025-10-26T08:19:30Z</time>
      </trkpt>
      <trkpt lat="43.49902" lon="6.6636">
        <ele>64.2</ele>
        <time>2025-10-26T08:19:31Z</time>
      </trkpt>
      <trkpt lat="43.49902" lon="6.66359">
        <ele>64.2</ele>
        <time>2025-10-26T08:19:32Z</time>
      </trkpt>
      <trkpt lat="43.49903" lon="6.66358">
        <ele>64.2</ele>
        <time>2025-10-26T08:19:33Z</time>
      </trkpt>
      <trkpt lat="43.49904" lon="6.66357">
        <ele>64.1</ele>
        <time>2025-10-26T08:19:34Z</time>
      </trkpt>
      <trkpt lat="43.49904" lon="6.66356">
        <ele>64</ele>
        <time>2025-10-26T08:19:35Z</time>
      </trkpt>
      <trkpt lat="43.49904" lon="6.66355">
        <ele>64</ele>
        <time>2025-10-26T08:19:36Z</time>
      </trkpt>
      <trkpt lat="43.49905" lon="6.66354">
        <ele>64.1</ele>
        <time>2025-10-26T08:19:37Z</time>
      </trkpt>
      <trkpt lat="43.49905" lon="6.66353">
        <ele>64.1</ele>
        <time>2025-10-26T08:19:38Z</time>
      </trkpt>
      <trkpt lat="43.49906" lon="6.66352">
        <ele>64.1</ele>
        <time>2025-10-26T08:19:39Z</time>
      </trkpt>
      <trkpt lat="43.49906" lon="6.66351">
        <ele>64.1</ele>
        <time>2025-10-26T08:19:40Z</time>
      </trkpt>
      <trkpt lat="43.49907" lon="6.6635">
        <ele>64.1</ele>
        <time>2025-10-26T08:19:41Z</time>
      </trkpt>
      <trkpt lat="43.49908" lon="6.66349">
        <ele>64.1</ele>
        <time>2025-10-26T08:19:42Z</time>
      </trkpt>
      <trkpt lat="43.49909" lon="6.66348">
        <ele>64.1</ele>
        <time>2025-10-26T08:19:43Z</time>
      </trkpt>
      <trkpt lat="43.4991" lon="6.66347">
        <ele>64.1</ele>
        <time>2025-10-26T08:19:44Z</time>
      </trkpt>
      <trkpt lat="43.4991" lon="6.66345">
        <ele>64</ele>
        <time>2025-10-26T08:19:45Z</time>
      </trkpt>
      <trkpt lat="43.49911" lon="6.66344">
        <ele>63.9</ele>
        <time>2025-10-26T08:19:46Z</time>
      </trkpt>
      <trkpt lat="43.49912" lon="6.66344">
        <ele>63.8</ele>
        <time>2025-10-26T08:19:47Z</time>
      </trkpt>
      <trkpt lat="43.49913" lon="6.66342">
        <ele>63.7</ele>
        <time>2025-10-26T08:19:48Z</time>
      </trkpt>
      <trkpt lat="43.49914" lon="6.66341">
        <ele>63.6</ele>
        <time>2025-10-26T08:19:49Z</time>
      </trkpt>
      <trkpt lat="43.49914" lon="6.6634">
        <ele>63.6</ele>
        <time>2025-10-26T08:19:50Z</time>
      </trkpt>
      <trkpt lat="43.49915" lon="6.66339">
        <ele>63.5</ele>
        <time>2025-10-26T08:19:51Z</time>
      </trkpt>
      <trkpt lat="43.49916" lon="6.66337">
        <ele>63.4</ele>
        <time>2025-10-26T08:19:52Z</time>
      </trkpt>
      <trkpt lat="43.49917" lon="6.66336">
        <ele>63.6</ele>
        <time>2025-10-26T08:19:53Z</time>
      </trkpt>
      <trkpt lat="43.49917" lon="6.66335">
        <ele>63.5</ele>
        <time>2025-10-26T08:19:54Z</time>
      </trkpt>
      <trkpt lat="43.49917" lon="6.66334">
        <ele>63.5</ele>
        <time>2025-10-26T08:19:55Z</time>
      </trkpt>
      <trkpt lat="43.49918" lon="6.66333">
        <ele>63.4</ele>
        <time>2025-10-26T08:19:56Z</time>
      </trkpt>
      <trkpt lat="43.49919" lon="6.66333">
        <ele>63.5</ele>
        <time>2025-10-26T08:19:57Z</time>
      </trkpt>
      <trkpt lat="43.4992" lon="6.66332">
        <ele>63.6</ele>
        <time>2025-10-26T08:19:58Z</time>
      </trkpt>
      <trkpt lat="43.4992" lon="6.66331">
        <ele>63.6</ele>
        <time>2025-10-26T08:19:59Z</time>
      </trkpt>
      <trkpt lat="43.49921" lon="6.66331">
        <ele>63.7</ele>
        <time>2025-10-26T08:20:00Z</time>
      </trkpt>
      <trkpt lat="43.49922" lon="6.66331">
        <ele>63.8</ele>
        <time>2025-10-26T08:20:01Z</time>
      </trkpt>
      <trkpt lat="43.49923" lon="6.6633">
        <ele>63.9</ele>
        <time>2025-10-26T08:20:02Z</time>
      </trkpt>
      <trkpt lat="43.49924" lon="6.6633">
        <ele>63.9</ele>
        <time>2025-10-26T08:20:03Z</time>
      </trkpt>
      <trkpt lat="43.49925" lon="6.6633">
        <ele>64</ele>
        <time>2025-10-26T08:20:04Z</time>
      </trkpt>
      <trkpt lat="43.49926" lon="6.66329">
        <ele>64.1</ele>
        <time>2025-10-26T08:20:05Z</time>
      </trkpt>
      <trkpt lat="43.49927" lon="6.66329">
        <ele>64.1</ele>
        <time>2025-10-26T08:20:06Z</time>
      </trkpt>
      <trkpt lat="43.49928" lon="6.66328">
        <ele>64.1</ele>
        <time>2025-10-26T08:20:07Z</time>
      </trkpt>
      <trkpt lat="43.49929" lon="6.66327">
        <ele>64.2</ele>
        <time>2025-10-26T08:20:08Z</time>
      </trkpt>
      <trkpt lat="43.4993" lon="6.66326">
        <ele>64.1</ele>
        <time>2025-10-26T08:20:09Z</time>
      </trkpt>
      <trkpt lat="43.49931" lon="6.66325">
        <ele>64.1</ele>
        <time>2025-10-26T08:20:10Z</time>
      </trkpt>
      <trkpt lat="43.49932" lon="6.66324">
        <ele>64.1</ele>
        <time>2025-10-26T08:20:11Z</time>
      </trkpt>
      <trkpt lat="43.49932" lon="6.66323">
        <ele>64.1</ele>
        <time>2025-10-26T08:20:12Z</time>
      </trkpt>
      <trkpt lat="43.49934" lon="6.66322">
        <ele>64.1</ele>
        <time>2025-10-26T08:20:13Z</time>
      </trkpt>
      <trkpt lat="43.49934" lon="6.66321">
        <ele>64.2</ele>
        <time>2025-10-26T08:20:14Z</time>
      </trkpt>
      <trkpt lat="43.49935" lon="6.66321">
        <ele>64.2</ele>
        <time>2025-10-26T08:20:15Z</time>
      </trkpt>
      <trkpt lat="43.49936" lon="6.6632">
        <ele>64.3</ele>
        <time>2025-10-26T08:20:16Z</time>
      </trkpt>
      <trkpt lat="43.49937" lon="6.6632">
        <ele>64.3</ele>
        <time>2025-10-26T08:20:17Z</time>
      </trkpt>
      <trkpt lat="43.49938" lon="6.6632">
        <ele>64.3</ele>
        <time>2025-10-26T08:20:18Z</time>
      </trkpt>
      <trkpt lat="43.49939" lon="6.6632">
        <ele>64.3</ele>
        <time>2025-10-26T08:20:19Z</time>
      </trkpt>
      <trkpt lat="43.4994" lon="6.66321">
        <ele>64.3</ele>
        <time>2025-10-26T08:20:20Z</time>
      </trkpt>
      <trkpt lat="43.49941" lon="6.66321">
        <ele>64.2</ele>
        <time>2025-10-26T08:20:21Z</time>
      </trkpt>
      <trkpt lat="43.49943" lon="6.66321">
        <ele>64.2</ele>
        <time>2025-10-26T08:20:22Z</time>
      </trkpt>
      <trkpt lat="43.49944" lon="6.6632">
        <ele>64.1</ele>
        <time>2025-10-26T08:20:23Z</time>
      </trkpt>
      <trkpt lat="43.49945" lon="6.66318">
        <ele>64.1</ele>
        <time>2025-10-26T08:20:24Z</time>
      </trkpt>
      <trkpt lat="43.49946" lon="6.66318">
        <ele>64.1</ele>
        <time>2025-10-26T08:20:25Z</time>
      </trkpt>
      <trkpt lat="43.49947" lon="6.66317">
        <ele>64.1</ele>
        <time>2025-10-26T08:20:26Z</time>
      </trkpt>
      <trkpt lat="43.49948" lon="6.66317">
        <ele>64.1</ele>
        <time>2025-10-26T08:20:27Z</time>
      </trkpt>
      <trkpt lat="43.49949" lon="6.66317">
        <ele>64.1</ele>
        <time>2025-10-26T08:20:28Z</time>
      </trkpt>
      <trkpt lat="43.4995" lon="6.66318">
        <ele>64.1</ele>
        <time>2025-10-26T08:20:29Z</time>
      </trkpt>
      <trkpt lat="43.4995" lon="6.66319">
        <ele>64.2</ele>
        <time>2025-10-26T08:20:30Z</time>
      </trkpt>
      <trkpt lat="43.49951" lon="6.6632">
        <ele>64.3</ele>
        <time>2025-10-26T08:20:31Z</time>
      </trkpt>
      <trkpt lat="43.49952" lon="6.66321">
        <ele>64.4</ele>
        <time>2025-10-26T08:20:32Z</time>
      </trkpt>
      <trkpt lat="43.49953" lon="6.66321">
        <ele>64.4</ele>
        <time>2025-10-26T08:20:33Z</time>
      </trkpt>
      <trkpt lat="43.49955" lon="6.66322">
        <ele>64.5</ele>
        <time>2025-10-26T08:20:34Z</time>
      </trkpt>
      <trkpt lat="43.49956" lon="6.66322">
        <ele>64.5</ele>
        <time>2025-10-26T08:20:35Z</time>
      </trkpt>
      <trkpt lat="43.49957" lon="6.66322">
        <ele>64.6</ele>
        <time>2025-10-26T08:20:36Z</time>
      </trkpt>
      <trkpt lat="43.49958" lon="6.66322">
        <ele>64.7</ele>
        <time>2025-10-26T08:20:37Z</time>
      </trkpt>
      <trkpt lat="43.49959" lon="6.66322">
        <ele>64.7</ele>
        <time>2025-10-26T08:20:38Z</time>
      </trkpt>
      <trkpt lat="43.4996" lon="6.66323">
        <ele>64.7</ele>
        <time>2025-10-26T08:20:39Z</time>
      </trkpt>
      <trkpt lat="43.49961" lon="6.66323">
        <ele>64.6</ele>
        <time>2025-10-26T08:20:40Z</time>
      </trkpt>
      <trkpt lat="43.49962" lon="6.66323">
        <ele>64.6</ele>
        <time>2025-10-26T08:20:41Z</time>
      </trkpt>
      <trkpt lat="43.49963" lon="6.66323">
        <ele>64.5</ele>
        <time>2025-10-26T08:20:42Z</time>
      </trkpt>
      <trkpt lat="43.49964" lon="6.66324">
        <ele>64.5</ele>
        <time>2025-10-26T08:20:43Z</time>
      </trkpt>
      <trkpt lat="43.49965" lon="6.66325">
        <ele>64.4</ele>
        <time>2025-10-26T08:20:44Z</time>
      </trkpt>
      <trkpt lat="43.49967" lon="6.66326">
        <ele>64.3</ele>
        <time>2025-10-26T08:20:45Z</time>
      </trkpt>
      <trkpt lat="43.49968" lon="6.66327">
        <ele>64.3</ele>
        <time>2025-10-26T08:20:46Z</time>
      </trkpt>
      <trkpt lat="43.49968" lon="6.66328">
        <ele>64.3</ele>
        <time>2025-10-26T08:20:47Z</time>
      </trkpt>
      <trkpt lat="43.49969" lon="6.66329">
        <ele>64.4</ele>
        <time>2025-10-26T08:20:48Z</time>
      </trkpt>
      <trkpt lat="43.4997" lon="6.6633">
        <ele>64.5</ele>
        <time>2025-10-26T08:20:49Z</time>
      </trkpt>
      <trkpt lat="43.4997" lon="6.66331">
        <ele>64.5</ele>
        <time>2025-10-26T08:20:50Z</time>
      </trkpt>
      <trkpt lat="43.49971" lon="6.66332">
        <ele>64.6</ele>
        <time>2025-10-26T08:20:51Z</time>
      </trkpt>
      <trkpt lat="43.49972" lon="6.66332">
        <ele>64.6</ele>
        <time>2025-10-26T08:20:52Z</time>
      </trkpt>
      <trkpt lat="43.49972" lon="6.66333">
        <ele>64.6</ele>
        <time>2025-10-26T08:20:53Z</time>
      </trkpt>
      <trkpt lat="43.49971" lon="6.66334">
        <ele>64.6</ele>
        <time>2025-10-26T08:20:54Z</time>
      </trkpt>
      <trkpt lat="43.49971" lon="6.66335">
        <ele>64.6</ele>
        <time>2025-10-26T08:20:55Z</time>
      </trkpt>
      <trkpt lat="43.49971" lon="6.66336">
        <ele>64.5</ele>
        <time>2025-10-26T08:20:56Z</time>
      </trkpt>
      <trkpt lat="43.49971" lon="6.66337">
        <ele>64.5</ele>
        <time>2025-10-26T08:20:57Z</time>
      </trkpt>
      <trkpt lat="43.4997" lon="6.66338">
        <ele>64.5</ele>
        <time>2025-10-26T08:20:58Z</time>
      </trkpt>
      <trkpt lat="43.4997" lon="6.66339">
        <ele>64.5</ele>
        <time>2025-10-26T08:20:59Z</time>
      </trkpt>
      <trkpt lat="43.4997" lon="6.6634">
        <ele>64.5</ele>
        <time>2025-10-26T08:21:00Z</time>
      </trkpt>
      <trkpt lat="43.4997" lon="6.66341">
        <ele>64.4</ele>
        <time>2025-10-26T08:21:01Z</time>
      </trkpt>
      <trkpt lat="43.4997" lon="6.66342">
        <ele>64.4</ele>
        <time>2025-10-26T08:21:02Z</time>
      </trkpt>
      <trkpt lat="43.49969" lon="6.66343">
        <ele>64.4</ele>
        <time>2025-10-26T08:21:03Z</time>
      </trkpt>
      <trkpt lat="43.49968" lon="6.66344">
        <ele>64.3</ele>
        <time>2025-10-26T08:21:04Z</time>
      </trkpt>
      <trkpt lat="43.49968" lon="6.66346">
        <ele>64.2</ele>
        <time>2025-10-26T08:21:05Z</time>
      </trkpt>
      <trkpt lat="43.49968" lon="6.66347">
        <ele>64.1</ele>
        <time>2025-10-26T08:21:06Z</time>
      </trkpt>
      <trkpt lat="43.49968" lon="6.66348">
        <ele>64.1</ele>
        <time>2025-10-26T08:21:07Z</time>
      </trkpt>
      <trkpt lat="43.49968" lon="6.66348">
        <ele>64</ele>
        <time>2025-10-26T08:21:08Z</time>
      </trkpt>
      <trkpt lat="43.49967" lon="6.66349">
        <ele>64</ele>
        <time>2025-10-26T08:21:09Z</time>
      </trkpt>
      <trkpt lat="43.49967" lon="6.6635">
        <ele>63.9</ele>
        <time>2025-10-26T08:21:10Z</time>
      </trkpt>
      <trkpt lat="43.49967" lon="6.66351">
        <ele>63.9</ele>
        <time>2025-10-26T08:21:11Z</time>
      </trkpt>
      <trkpt lat="43.49967" lon="6.66352">
        <ele>63.8</ele>
        <time>2025-10-26T08:21:12Z</time>
      </trkpt>
      <trkpt lat="43.49967" lon="6.66353">
        <ele>63.7</ele>
        <time>2025-10-26T08:21:13Z</time>
      </trkpt>
      <trkpt lat="43.49967" lon="6.66354">
        <ele>63.5</ele>
        <time>2025-10-26T08:21:14Z</time>
      </trkpt>
      <trkpt lat="43.49966" lon="6.66354">
        <ele>63.5</ele>
        <time>2025-10-26T08:21:15Z</time>
      </trkpt>
      <trkpt lat="43.49966" lon="6.66355">
        <ele>63.4</ele>
        <time>2025-10-26T08:21:16Z</time>
      </trkpt>
      <trkpt lat="43.49966" lon="6.66355">
        <ele>63.3</ele>
        <time>2025-10-26T08:21:17Z</time>
      </trkpt>
      <trkpt lat="43.49965" lon="6.66356">
        <ele>63.2</ele>
        <time>2025-10-26T08:21:18Z</time>
      </trkpt>
      <trkpt lat="43.49964" lon="6.66356">
        <ele>63</ele>
        <time>2025-10-26T08:21:19Z</time>
      </trkpt>
      <trkpt lat="43.49964" lon="6.66356">
        <ele>63</ele>
        <time>2025-10-26T08:21:20Z</time>
      </trkpt>
      <trkpt lat="43.49963" lon="6.66356">
        <ele>62.8</ele>
        <time>2025-10-26T08:21:21Z</time>
      </trkpt>
      <trkpt lat="43.49962" lon="6.66356">
        <ele>62.7</ele>
        <time>2025-10-26T08:21:22Z</time>
      </trkpt>
      <trkpt lat="43.49962" lon="6.66356">
        <ele>62.7</ele>
        <time>2025-10-26T08:21:23Z</time>
      </trkpt>
      <trkpt lat="43.49962" lon="6.66356">
        <ele>62.6</ele>
        <time>2025-10-26T08:21:24Z</time>
      </trkpt>
      <trkpt lat="43.49962" lon="6.66357">
        <ele>62.5</ele>
        <time>2025-10-26T08:21:25Z</time>
      </trkpt>
      <trkpt lat="43.49962" lon="6.66359">
        <ele>62.5</ele>
        <time>2025-10-26T08:21:26Z</time>
      </trkpt>
      <trkpt lat="43.49961" lon="6.66359">
        <ele>62.4</ele>
        <time>2025-10-26T08:21:27Z</time>
      </trkpt>
      <trkpt lat="43.49961" lon="6.66361">
        <ele>62.4</ele>
        <time>2025-10-26T08:21:28Z</time>
      </trkpt>
      <trkpt lat="43.4996" lon="6.66361">
        <ele>62.4</ele>
        <time>2025-10-26T08:21:29Z</time>
      </trkpt>
      <trkpt lat="43.4996" lon="6.66363">
        <ele>62.4</ele>
        <time>2025-10-26T08:21:30Z</time>
      </trkpt>
      <trkpt lat="43.4996" lon="6.66364">
        <ele>62.5</ele>
        <time>2025-10-26T08:21:31Z</time>
      </trkpt>
      <trkpt lat="43.4996" lon="6.66364">
        <ele>62.6</ele>
        <time>2025-10-26T08:21:32Z</time>
      </trkpt>
      <trkpt lat="43.49959" lon="6.66365">
        <ele>62.6</ele>
        <time>2025-10-26T08:21:33Z</time>
      </trkpt>
      <trkpt lat="43.49958" lon="6.66365">
        <ele>62.6</ele>
        <time>2025-10-26T08:21:34Z</time>
      </trkpt>
      <trkpt lat="43.49958" lon="6.66365">
        <ele>62.6</ele>
        <time>2025-10-26T08:21:35Z</time>
      </trkpt>
      <trkpt lat="43.49957" lon="6.66366">
        <ele>62.7</ele>
        <time>2025-10-26T08:21:36Z</time>
      </trkpt>
      <trkpt lat="43.49957" lon="6.66368">
        <ele>62.8</ele>
        <time>2025-10-26T08:21:37Z</time>
      </trkpt>
      <trkpt lat="43.49957" lon="6.66368">
        <ele>62.9</ele>
        <time>2025-10-26T08:21:38Z</time>
      </trkpt>
      <trkpt lat="43.49956" lon="6.66368">
        <ele>63</ele>
        <time>2025-10-26T08:21:39Z</time>
      </trkpt>
      <trkpt lat="43.49956" lon="6.66369">
        <ele>62.9</ele>
        <time>2025-10-26T08:21:40Z</time>
      </trkpt>
      <trkpt lat="43.49956" lon="6.6637">
        <ele>62.8</ele>
        <time>2025-10-26T08:21:41Z</time>
      </trkpt>
      <trkpt lat="43.49956" lon="6.6637">
        <ele>62.7</ele>
        <time>2025-10-26T08:21:42Z</time>
      </trkpt>
      <trkpt lat="43.49956" lon="6.66371">
        <ele>62.7</ele>
        <time>2025-10-26T08:21:43Z</time>
      </trkpt>
      <trkpt lat="43.49956" lon="6.66371">
        <ele>62.5</ele>
        <time>2025-10-26T08:21:44Z</time>
      </trkpt>
      <trkpt lat="43.49957" lon="6.66371">
        <ele>62.4</ele>
        <time>2025-10-26T08:21:45Z</time>
      </trkpt>
      <trkpt lat="43.49957" lon="6.66372">
        <ele>62.3</ele>
        <time>2025-10-26T08:21:46Z</time>
      </trkpt>
      <trkpt lat="43.49957" lon="6.66372">
        <ele>62.3</ele>
        <time>2025-10-26T08:21:47Z</time>
      </trkpt>
      <trkpt lat="43.49957" lon="6.66373">
        <ele>62.3</ele>
        <time>2025-10-26T08:21:48Z</time>
      </trkpt>
      <trkpt lat="43.49957" lon="6.66373">
        <ele>62.3</ele>
        <time>2025-10-26T08:21:49Z</time>
      </trkpt>
      <trkpt lat="43.49958" lon="6.66373">
        <ele>62.4</ele>
        <time>2025-10-26T08:21:50Z</time>
      </trkpt>
      <trkpt lat="43.49959" lon="6.66374">
        <ele>62.4</ele>
        <time>2025-10-26T08:21:51Z</time>
      </trkpt>
      <trkpt lat="43.49959" lon="6.66374">
        <ele>62.5</ele>
        <time>2025-10-26T08:21:52Z</time>
      </trkpt>
      <trkpt lat="43.49961" lon="6.66373">
        <ele>62.5</ele>
        <time>2025-10-26T08:21:53Z</time>
      </trkpt>
      <trkpt lat="43.49962" lon="6.66373">
        <ele>62.4</ele>
        <time>2025-10-26T08:21:54Z</time>
      </trkpt>
      <trkpt lat="43.49963" lon="6.66372">
        <ele>62.3</ele>
        <time>2025-10-26T08:21:55Z</time>
      </trkpt>
      <trkpt lat="43.49964" lon="6.66372">
        <ele>62.4</ele>
        <time>2025-10-26T08:21:56Z</time>
      </trkpt>
      <trkpt lat="43.49965" lon="6.66371">
        <ele>62.3</ele>
        <time>2025-10-26T08:21:57Z</time>
      </trkpt>
      <trkpt lat="43.49965" lon="6.66371">
        <ele>62.3</ele>
        <time>2025-10-26T08:21:58Z</time>
      </trkpt>
      <trkpt lat="43.49965" lon="6.6637">
        <ele>62.3</ele>
        <time>2025-10-26T08:21:59Z</time>
      </trkpt>
      <trkpt lat="43.49966" lon="6.66369">
        <ele>62.3</ele>
        <time>2025-10-26T08:22:00Z</time>
      </trkpt>
      <trkpt lat="43.49968" lon="6.66368">
        <ele>62.3</ele>
        <time>2025-10-26T08:22:01Z</time>
      </trkpt>
      <trkpt lat="43.49968" lon="6.66368">
        <ele>62.3</ele>
        <time>2025-10-26T08:22:02Z</time>
      </trkpt>
      <trkpt lat="43.49969" lon="6.66367">
        <ele>62.3</ele>
        <time>2025-10-26T08:22:03Z</time>
      </trkpt>
      <trkpt lat="43.4997" lon="6.66366">
        <ele>62.3</ele>
        <time>2025-10-26T08:22:04Z</time>
      </trkpt>
      <trkpt lat="43.4997" lon="6.66365">
        <ele>62.4</ele>
        <time>2025-10-26T08:22:05Z</time>
      </trkpt>
      <trkpt lat="43.49971" lon="6.66364">
        <ele>62.4</ele>
        <time>2025-10-26T08:22:06Z</time>
      </trkpt>
      <trkpt lat="43.49972" lon="6.66363">
        <ele>62.6</ele>
        <time>2025-10-26T08:22:07Z</time>
      </trkpt>
      <trkpt lat="43.49972" lon="6.66362">
        <ele>62.6</ele>
        <time>2025-10-26T08:22:08Z</time>
      </trkpt>
      <trkpt lat="43.49973" lon="6.66361">
        <ele>62.7</ele>
        <time>2025-10-26T08:22:09Z</time>
      </trkpt>
      <trkpt lat="43.49973" lon="6.66361">
        <ele>62.8</ele>
        <time>2025-10-26T08:22:10Z</time>
      </trkpt>
      <trkpt lat="43.49973" lon="6.6636">
        <ele>63</ele>
        <time>2025-10-26T08:22:11Z</time>
      </trkpt>
      <trkpt lat="43.49973" lon="6.6636">
        <ele>63.1</ele>
        <time>2025-10-26T08:22:12Z</time>
      </trkpt>
      <trkpt lat="43.49973" lon="6.6636">
        <ele>63.1</ele>
        <time>2025-10-26T08:22:13Z</time>
      </trkpt>
      <trkpt lat="43.49972" lon="6.6636">
        <ele>63.1</ele>
        <time>2025-10-26T08:22:14Z</time>
      </trkpt>
      <trkpt lat="43.49972" lon="6.6636">
        <ele>63.2</ele>
        <time>2025-10-26T08:22:15Z</time>
      </trkpt>
      <trkpt lat="43.49972" lon="6.66359">
        <ele>63.3</ele>
        <time>2025-10-26T08:22:16Z</time>
      </trkpt>
      <trkpt lat="43.49972" lon="6.66359">
        <ele>63.3</ele>
        <time>2025-10-26T08:22:17Z</time>
      </trkpt>
      <trkpt lat="43.49972" lon="6.66359">
        <ele>63.3</ele>
        <time>2025-10-26T08:22:18Z</time>
      </trkpt>
      <trkpt lat="43.49972" lon="6.66359">
        <ele>63.2</ele>
        <time>2025-10-26T08:22:19Z</time>
      </trkpt>
      <trkpt lat="43.49973" lon="6.66359">
        <ele>63.1</ele>
        <time>2025-10-26T08:22:20Z</time>
      </trkpt>
      <trkpt lat="43.49973" lon="6.66359">
        <ele>63.1</ele>
        <time>2025-10-26T08:22:21Z</time>
      </trkpt>
      <trkpt lat="43.49973" lon="6.66359">
        <ele>63.1</ele>
        <time>2025-10-26T08:22:22Z</time>
      </trkpt>
      <trkpt lat="43.49973" lon="6.6636">
        <ele>63</ele>
        <time>2025-10-26T08:22:23Z</time>
      </trkpt>
      <trkpt lat="43.49973" lon="6.6636">
        <ele>63.1</ele>
        <time>2025-10-26T08:22:24Z</time>
      </trkpt>
      <trkpt lat="43.49973" lon="6.6636">
        <ele>63.1</ele>
        <time>2025-10-26T08:22:25Z</time>
      </trkpt>
      <trkpt lat="43.49973" lon="6.6636">
        <ele>63.1</ele>
        <time>2025-10-26T08:22:26Z</time>
      </trkpt>
      <trkpt lat="43.49973" lon="6.66359">
        <ele>63.1</ele>
        <time>2025-10-26T08:22:27Z</time>
      </trkpt>
      <trkpt lat="43.49973" lon="6.66358">
        <ele>63.1</ele>
        <time>2025-10-26T08:22:28Z</time>
      </trkpt>
      <trkpt lat="43.49973" lon="6.66358">
        <ele>63.1</ele>
        <time>2025-10-26T08:22:29Z</time>
      </trkpt>
      <trkpt lat="43.49973" lon="6.66356">
        <ele>63.1</ele>
        <time>2025-10-26T08:22:30Z</time>
      </trkpt>
      <trkpt lat="43.49973" lon="6.66356">
        <ele>63</ele>
        <time>2025-10-26T08:22:31Z</time>
      </trkpt>
      <trkpt lat="43.49973" lon="6.66355">
        <ele>63</ele>
        <time>2025-10-26T08:22:32Z</time>
      </trkpt>
      <trkpt lat="43.49974" lon="6.66355">
        <ele>62.9</ele>
        <time>2025-10-26T08:22:33Z</time>
      </trkpt>
      <trkpt lat="43.49973" lon="6.66355">
        <ele>62.9</ele>
        <time>2025-10-26T08:22:34Z</time>
      </trkpt>
      <trkpt lat="43.49973" lon="6.66355">
        <ele>62.9</ele>
        <time>2025-10-26T08:22:35Z</time>
      </trkpt>
      <trkpt lat="43.49973" lon="6.66355">
        <ele>62.9</ele>
        <time>2025-10-26T08:22:36Z</time>
      </trkpt>
      <trkpt lat="43.49973" lon="6.66355">
        <ele>62.9</ele>
        <time>2025-10-26T08:22:37Z</time>
      </trkpt>
      <trkpt lat="43.49973" lon="6.66355">
        <ele>62.9</ele>
        <time>2025-10-26T08:22:38Z</time>
      </trkpt>
      <trkpt lat="43.49973" lon="6.66355">
        <ele>62.8</ele>
        <time>2025-10-26T08:22:39Z</time>
      </trkpt>
      <trkpt lat="43.49973" lon="6.66355">
        <ele>62.8</ele>
        <time>2025-10-26T08:22:40Z</time>
      </trkpt>
      <trkpt lat="43.49973" lon="6.66355">
        <ele>62.8</ele>
        <time>2025-10-26T08:22:41Z</time>
      </trkpt>
      <trkpt lat="43.49972" lon="6.66355">
        <ele>62.8</ele>
        <time>2025-10-26T08:22:42Z</time>
      </trkpt>
      <trkpt lat="43.49972" lon="6.66355">
        <ele>62.9</ele>
        <time>2025-10-26T08:22:43Z</time>
      </trkpt>
      <trkpt lat="43.49972" lon="6.66355">
        <ele>63</ele>
        <time>2025-10-26T08:22:44Z</time>
      </trkpt>
      <trkpt lat="43.49973" lon="6.66356">
        <ele>63</ele>
        <time>2025-10-26T08:22:45Z</time>
      </trkpt>
      <trkpt lat="43.49973" lon="6.66356">
        <ele>63.1</ele>
        <time>2025-10-26T08:22:46Z</time>
      </trkpt>
      <trkpt lat="43.49973" lon="6.66356">
        <ele>63.2</ele>
        <time>2025-10-26T08:22:47Z</time>
      </trkpt>
      <trkpt lat="43.49973" lon="6.66356">
        <ele>63.2</ele>
        <time>2025-10-26T08:22:48Z</time>
      </trkpt>
      <trkpt lat="43.49973" lon="6.66356">
        <ele>63.2</ele>
        <time>2025-10-26T08:22:49Z</time>
      </trkpt>
      <trkpt lat="43.49974" lon="6.66356">
        <ele>63.2</ele>
        <time>2025-10-26T08:22:50Z</time>
      </trkpt>
      <trkpt lat="43.49973" lon="6.66356">
        <ele>63.1</ele>
        <time>2025-10-26T08:22:51Z</time>
      </trkpt>
      <trkpt lat="43.49973" lon="6.66356">
        <ele>63.2</ele>
        <time>2025-10-26T08:22:52Z</time>
      </trkpt>
      <trkpt lat="43.49973" lon="6.66356">
        <ele>63.2</ele>
        <time>2025-10-26T08:22:53Z</time>
      </trkpt>
      <trkpt lat="43.49974" lon="6.66356">
        <ele>63.2</ele>
        <time>2025-10-26T08:22:54Z</time>
      </trkpt>
      <trkpt lat="43.49974" lon="6.66356">
        <ele>63.3</ele>
        <time>2025-10-26T08:22:55Z</time>
      </trkpt>
      <trkpt lat="43.49974" lon="6.66356">
        <ele>63.3</ele>
        <time>2025-10-26T08:22:56Z</time>
      </trkpt>
      <trkpt lat="43.49974" lon="6.66355">
        <ele>63.4</ele>
        <time>2025-10-26T08:22:57Z</time>
      </trkpt>
      <trkpt lat="43.49974" lon="6.66354">
        <ele>63.5</ele>
        <time>2025-10-26T08:22:58Z</time>
      </trkpt>
      <trkpt lat="43.49974" lon="6.66354">
        <ele>63.6</ele>
        <time>2025-10-26T08:22:59Z</time>
      </trkpt>
      <trkpt lat="43.49975" lon="6.66354">
        <ele>63.5</ele>
        <time>2025-10-26T08:23:00Z</time>
      </trkpt>
      <trkpt lat="43.49975" lon="6.66354">
        <ele>63.5</ele>
        <time>2025-10-26T08:23:01Z</time>
      </trkpt>
      <trkpt lat="43.49975" lon="6.66353">
        <ele>63.6</ele>
        <time>2025-10-26T08:23:02Z</time>
      </trkpt>
      <trkpt lat="43.49975" lon="6.66354">
        <ele>63.6</ele>
        <time>2025-10-26T08:23:03Z</time>
      </trkpt>
      <trkpt lat="43.49975" lon="6.66353">
        <ele>63.6</ele>
        <time>2025-10-26T08:23:04Z</time>
      </trkpt>
      <trkpt lat="43.49975" lon="6.66353">
        <ele>63.6</ele>
        <time>2025-10-26T08:23:05Z</time>
      </trkpt>
      <trkpt lat="43.49975" lon="6.66353">
        <ele>63.5</ele>
        <time>2025-10-26T08:23:06Z</time>
      </trkpt>
      <trkpt lat="43.49975" lon="6.66353">
        <ele>63.5</ele>
        <time>2025-10-26T08:23:07Z</time>
      </trkpt>
      <trkpt lat="43.49975" lon="6.66353">
        <ele>63.5</ele>
        <time>2025-10-26T08:23:08Z</time>
      </trkpt>
      <trkpt lat="43.49975" lon="6.66353">
        <ele>63.5</ele>
        <time>2025-10-26T08:23:09Z</time>
      </trkpt>
      <trkpt lat="43.49975" lon="6.66353">
        <ele>63.5</ele>
        <time>2025-10-26T08:23:10Z</time>
      </trkpt>
      <trkpt lat="43.49975" lon="6.66353">
        <ele>63.4</ele>
        <time>2025-10-26T08:23:11Z</time>
      </trkpt>
      <trkpt lat="43.49975" lon="6.66353">
        <ele>63.4</ele>
        <time>2025-10-26T08:23:12Z</time>
      </trkpt>
      <trkpt lat="43.49975" lon="6.66353">
        <ele>63.3</ele>
        <time>2025-10-26T08:23:13Z</time>
      </trkpt>
      <trkpt lat="43.49975" lon="6.66353">
        <ele>63.3</ele>
        <time>2025-10-26T08:23:14Z</time>
      </trkpt>
      <trkpt lat="43.49975" lon="6.66353">
        <ele>63.2</ele>
        <time>2025-10-26T08:23:15Z</time>
      </trkpt>
      <trkpt lat="43.49975" lon="6.66353">
        <ele>63.2</ele>
        <time>2025-10-26T08:23:16Z</time>
      </trkpt>
      <trkpt lat="43.49975" lon="6.66353">
        <ele>63.2</ele>
        <time>2025-10-26T08:23:17Z</time>
      </trkpt>
      <trkpt lat="43.49975" lon="6.66353">
        <ele>63.3</ele>
        <time>2025-10-26T08:23:18Z</time>
      </trkpt>
      <trkpt lat="43.49975" lon="6.66353">
        <ele>63.4</ele>
        <time>2025-10-26T08:23:19Z</time>
      </trkpt>
      <trkpt lat="43.49974" lon="6.66353">
        <ele>63.4</ele>
        <time>2025-10-26T08:23:20Z</time>
      </trkpt>
      <trkpt lat="43.49974" lon="6.66352">
        <ele>63.5</ele>
        <time>2025-10-26T08:23:21Z</time>
      </trkpt>
      <trkpt lat="43.49974" lon="6.66352">
        <ele>63.5</ele>
        <time>2025-10-26T08:23:22Z</time>
      </trkpt>
      <trkpt lat="43.49973" lon="6.66352">
        <ele>63.6</ele>
        <time>2025-10-26T08:23:23Z</time>
      </trkpt>
      <trkpt lat="43.49973" lon="6.66352">
        <ele>63.5</ele>
        <time>2025-10-26T08:23:24Z</time>
      </trkpt>
      <trkpt lat="43.49973" lon="6.66352">
        <ele>63.5</ele>
        <time>2025-10-26T08:23:25Z</time>
      </trkpt>
      <trkpt lat="43.49973" lon="6.66353">
        <ele>63.5</ele>
        <time>2025-10-26T08:23:26Z</time>
      </trkpt>
      <trkpt lat="43.49973" lon="6.66353">
        <ele>63.5</ele>
        <time>2025-10-26T08:23:27Z</time>
      </trkpt>
      <trkpt lat="43.49973" lon="6.66353">
        <ele>63.5</ele>
        <time>2025-10-26T08:23:28Z</time>
      </trkpt>
      <trkpt lat="43.49973" lon="6.66354">
        <ele>63.5</ele>
        <time>2025-10-26T08:23:29Z</time>
      </trkpt>
      <trkpt lat="43.49973" lon="6.66354">
        <ele>63.4</ele>
        <time>2025-10-26T08:23:30Z</time>
      </trkpt>
      <trkpt lat="43.49973" lon="6.66354">
        <ele>63.3</ele>
        <time>2025-10-26T08:23:31Z</time>
      </trkpt>
      <trkpt lat="43.49973" lon="6.66354">
        <ele>63.3</ele>
        <time>2025-10-26T08:23:32Z</time>
      </trkpt>
      <trkpt lat="43.49973" lon="6.66354">
        <ele>63.3</ele>
        <time>2025-10-26T08:23:33Z</time>
      </trkpt>
      <trkpt lat="43.49973" lon="6.66354">
        <ele>63.3</ele>
        <time>2025-10-26T08:23:34Z</time>
      </trkpt>
      <trkpt lat="43.49973" lon="6.66354">
        <ele>63.3</ele>
        <time>2025-10-26T08:23:35Z</time>
      </trkpt>
      <trkpt lat="43.49973" lon="6.66354">
        <ele>63.3</ele>
        <time>2025-10-26T08:23:36Z</time>
      </trkpt>
      <trkpt lat="43.49973" lon="6.66355">
        <ele>63.3</ele>
        <time>2025-10-26T08:23:37Z</time>
      </trkpt>
      <trkpt lat="43.49974" lon="6.66355">
        <ele>63.3</ele>
        <time>2025-10-26T08:23:38Z</time>
      </trkpt>
      <trkpt lat="43.49974" lon="6.66355">
        <ele>63.3</ele>
        <time>2025-10-26T08:23:39Z</time>
      </trkpt>
      <trkpt lat="43.49974" lon="6.66355">
        <ele>63.4</ele>
        <time>2025-10-26T08:23:40Z</time>
      </trkpt>
      <trkpt lat="43.49974" lon="6.66355">
        <ele>63.4</ele>
        <time>2025-10-26T08:23:41Z</time>
      </trkpt>
      <trkpt lat="43.49973" lon="6.66355">
        <ele>63.5</ele>
        <time>2025-10-26T08:23:42Z</time>
      </trkpt>
      <trkpt lat="43.49973" lon="6.66355">
        <ele>63.6</ele>
        <time>2025-10-26T08:23:43Z</time>
      </trkpt>
      <trkpt lat="43.49973" lon="6.66356">
        <ele>63.8</ele>
        <time>2025-10-26T08:23:44Z</time>
      </trkpt>
      <trkpt lat="43.49973" lon="6.66355">
        <ele>63.8</ele>
        <time>2025-10-26T08:23:45Z</time>
      </trkpt>
      <trkpt lat="43.49973" lon="6.66355">
        <ele>63.8</ele>
        <time>2025-10-26T08:23:46Z</time>
      </trkpt>
      <trkpt lat="43.49973" lon="6.66355">
        <ele>63.8</ele>
        <time>2025-10-26T08:23:47Z</time>
      </trkpt>
      <trkpt lat="43.49972" lon="6.66356">
        <ele>63.9</ele>
        <time>2025-10-26T08:23:48Z</time>
      </trkpt>
      <trkpt lat="43.49972" lon="6.66356">
        <ele>63.9</ele>
        <time>2025-10-26T08:23:49Z</time>
      </trkpt>
      <trkpt lat="43.49972" lon="6.66356">
        <ele>64</ele>
        <time>2025-10-26T08:23:50Z</time>
      </trkpt>
      <trkpt lat="43.49972" lon="6.66356">
        <ele>64</ele>
        <time>2025-10-26T08:23:51Z</time>
      </trkpt>
      <trkpt lat="43.49972" lon="6.66355">
        <ele>64.1</ele>
        <time>2025-10-26T08:23:52Z</time>
      </trkpt>
      <trkpt lat="43.49972" lon="6.66354">
        <ele>64.2</ele>
        <time>2025-10-26T08:23:53Z</time>
      </trkpt>
      <trkpt lat="43.49972" lon="6.66354">
        <ele>64.1</ele>
        <time>2025-10-26T08:23:54Z</time>
      </trkpt>
      <trkpt lat="43.49972" lon="6.66353">
        <ele>64</ele>
        <time>2025-10-26T08:23:55Z</time>
      </trkpt>
      <trkpt lat="43.49973" lon="6.66352">
        <ele>63.9</ele>
        <time>2025-10-26T08:23:56Z</time>
      </trkpt>
      <trkpt lat="43.49973" lon="6.66353">
        <ele>63.8</ele>
        <time>2025-10-26T08:23:57Z</time>
      </trkpt>
      <trkpt lat="43.49973" lon="6.66353">
        <ele>63.8</ele>
        <time>2025-10-26T08:23:58Z</time>
      </trkpt>
      <trkpt lat="43.49973" lon="6.66352">
        <ele>63.8</ele>
        <time>2025-10-26T08:23:59Z</time>
      </trkpt>
      <trkpt lat="43.49973" lon="6.66352">
        <ele>63.8</ele>
        <time>2025-10-26T08:24:00Z</time>
      </trkpt>
      <trkpt lat="43.49973" lon="6.66352">
        <ele>63.8</ele>
        <time>2025-10-26T08:24:01Z</time>
      </trkpt>
      <trkpt lat="43.49973" lon="6.66352">
        <ele>63.8</ele>
        <time>2025-10-26T08:24:02Z</time>
      </trkpt>
      <trkpt lat="43.49973" lon="6.66352">
        <ele>63.8</ele>
        <time>2025-10-26T08:24:03Z</time>
      </trkpt>
      <trkpt lat="43.49972" lon="6.66352">
        <ele>63.8</ele>
        <time>2025-10-26T08:24:04Z</time>
      </trkpt>
      <trkpt lat="43.49972" lon="6.66352">
        <ele>63.8</ele>
        <time>2025-10-26T08:24:05Z</time>
      </trkpt>
      <trkpt lat="43.49972" lon="6.66352">
        <ele>63.7</ele>
        <time>2025-10-26T08:24:06Z</time>
      </trkpt>
      <trkpt lat="43.49972" lon="6.66352">
        <ele>63.7</ele>
        <time>2025-10-26T08:24:07Z</time>
      </trkpt>
      <trkpt lat="43.49972" lon="6.66352">
        <ele>63.7</ele>
        <time>2025-10-26T08:24:08Z</time>
      </trkpt>
      <trkpt lat="43.49972" lon="6.66352">
        <ele>63.6</ele>
        <time>2025-10-26T08:24:09Z</time>
      </trkpt>
      <trkpt lat="43.49972" lon="6.66352">
        <ele>63.6</ele>
        <time>2025-10-26T08:24:10Z</time>
      </trkpt>
      <trkpt lat="43.49972" lon="6.66351">
        <ele>63.6</ele>
        <time>2025-10-26T08:24:11Z</time>
      </trkpt>
      <trkpt lat="43.49972" lon="6.66352">
        <ele>63.6</ele>
        <time>2025-10-26T08:24:12Z</time>
      </trkpt>
      <trkpt lat="43.49972" lon="6.66352">
        <ele>63.7</ele>
        <time>2025-10-26T08:24:13Z</time>
      </trkpt>
      <trkpt lat="43.49972" lon="6.66352">
        <ele>63.7</ele>
        <time>2025-10-26T08:24:14Z</time>
      </trkpt>
      <trkpt lat="43.49972" lon="6.66352">
        <ele>63.8</ele>
        <time>2025-10-26T08:24:15Z</time>
      </trkpt>
      <trkpt lat="43.49972" lon="6.66351">
        <ele>63.8</ele>
        <time>2025-10-26T08:24:16Z</time>
      </trkpt>
      <trkpt lat="43.49972" lon="6.66352">
        <ele>63.9</ele>
        <time>2025-10-26T08:24:17Z</time>
      </trkpt>
      <trkpt lat="43.49972" lon="6.66352">
        <ele>63.9</ele>
        <time>2025-10-26T08:24:18Z</time>
      </trkpt>
      <trkpt lat="43.49972" lon="6.66352">
        <ele>63.9</ele>
        <time>2025-10-26T08:24:19Z</time>
      </trkpt>
      <trkpt lat="43.49972" lon="6.66352">
        <ele>63.9</ele>
        <time>2025-10-26T08:24:20Z</time>
      </trkpt>
      <trkpt lat="43.49972" lon="6.66352">
        <ele>63.9</ele>
        <time>2025-10-26T08:24:21Z</time>
      </trkpt>
      <trkpt lat="43.49972" lon="6.66352">
        <ele>63.8</ele>
        <time>2025-10-26T08:24:22Z</time>
      </trkpt>
      <trkpt lat="43.49972" lon="6.66352">
        <ele>63.8</ele>
        <time>2025-10-26T08:24:23Z</time>
      </trkpt>
      <trkpt lat="43.49972" lon="6.66352">
        <ele>63.8</ele>
        <time>2025-10-26T08:24:24Z</time>
      </trkpt>
      <trkpt lat="43.49972" lon="6.66351">
        <ele>63.7</ele>
        <time>2025-10-26T08:24:25Z</time>
      </trkpt>
      <trkpt lat="43.49972" lon="6.66351">
        <ele>63.6</ele>
        <time>2025-10-26T08:24:26Z</time>
      </trkpt>
      <trkpt lat="43.49973" lon="6.66351">
        <ele>63.6</ele>
        <time>2025-10-26T08:24:27Z</time>
      </trkpt>
      <trkpt lat="43.49973" lon="6.66351">
        <ele>63.5</ele>
        <time>2025-10-26T08:24:28Z</time>
      </trkpt>
      <trkpt lat="43.49973" lon="6.66351">
        <ele>63.5</ele>
        <time>2025-10-26T08:24:29Z</time>
      </trkpt>
      <trkpt lat="43.49973" lon="6.66351">
        <ele>63.5</ele>
        <time>2025-10-26T08:24:30Z</time>
      </trkpt>
      <trkpt lat="43.49974" lon="6.6635">
        <ele>63.5</ele>
        <time>2025-10-26T08:24:31Z</time>
      </trkpt>
      <trkpt lat="43.49974" lon="6.6635">
        <ele>63.5</ele>
        <time>2025-10-26T08:24:32Z</time>
      </trkpt>
      <trkpt lat="43.49974" lon="6.66349">
        <ele>63.6</ele>
        <time>2025-10-26T08:24:33Z</time>
      </trkpt>
      <trkpt lat="43.49975" lon="6.66348">
        <ele>63.6</ele>
        <time>2025-10-26T08:24:34Z</time>
      </trkpt>
      <trkpt lat="43.49975" lon="6.66348">
        <ele>63.6</ele>
        <time>2025-10-26T08:24:35Z</time>
      </trkpt>
      <trkpt lat="43.49975" lon="6.66347">
        <ele>63.7</ele>
        <time>2025-10-26T08:24:36Z</time>
      </trkpt>
      <trkpt lat="43.49975" lon="6.66347">
        <ele>63.7</ele>
        <time>2025-10-26T08:24:37Z</time>
      </trkpt>
      <trkpt lat="43.49975" lon="6.66347">
        <ele>63.7</ele>
        <time>2025-10-26T08:24:38Z</time>
      </trkpt>
      <trkpt lat="43.49975" lon="6.66346">
        <ele>63.8</ele>
        <time>2025-10-26T08:24:39Z</time>
      </trkpt>
      <trkpt lat="43.49975" lon="6.66346">
        <ele>63.8</ele>
        <time>2025-10-26T08:24:40Z</time>
      </trkpt>
      <trkpt lat="43.49975" lon="6.66346">
        <ele>63.7</ele>
        <time>2025-10-26T08:24:41Z</time>
      </trkpt>
      <trkpt lat="43.49975" lon="6.66346">
        <ele>63.6</ele>
        <time>2025-10-26T08:24:42Z</time>
      </trkpt>
      <trkpt lat="43.49976" lon="6.66346">
        <ele>63.6</ele>
        <time>2025-10-26T08:24:43Z</time>
      </trkpt>
      <trkpt lat="43.49976" lon="6.66346">
        <ele>63.6</ele>
        <time>2025-10-26T08:24:44Z</time>
      </trkpt>
      <trkpt lat="43.49976" lon="6.66346">
        <ele>63.6</ele>
        <time>2025-10-26T08:24:45Z</time>
      </trkpt>
      <trkpt lat="43.49976" lon="6.66346">
        <ele>63.6</ele>
        <time>2025-10-26T08:24:46Z</time>
      </trkpt>
      <trkpt lat="43.49976" lon="6.66345">
        <ele>63.7</ele>
        <time>2025-10-26T08:24:47Z</time>
      </trkpt>
      <trkpt lat="43.49976" lon="6.66345">
        <ele>63.7</ele>
        <time>2025-10-26T08:24:48Z</time>
      </trkpt>
      <trkpt lat="43.49976" lon="6.66345">
        <ele>63.7</ele>
        <time>2025-10-26T08:24:49Z</time>
      </trkpt>
      <trkpt lat="43.49976" lon="6.66345">
        <ele>63.8</ele>
        <time>2025-10-26T08:24:50Z</time>
      </trkpt>
      <trkpt lat="43.49976" lon="6.66344">
        <ele>63.8</ele>
        <time>2025-10-26T08:24:51Z</time>
      </trkpt>
      <trkpt lat="43.49976" lon="6.66344">
        <ele>63.8</ele>
        <time>2025-10-26T08:24:52Z</time>
      </trkpt>
      <trkpt lat="43.49976" lon="6.66344">
        <ele>63.8</ele>
        <time>2025-10-26T08:24:53Z</time>
      </trkpt>
      <trkpt lat="43.49976" lon="6.66343">
        <ele>63.8</ele>
        <time>2025-10-26T08:24:54Z</time>
      </trkpt>
      <trkpt lat="43.49976" lon="6.66343">
        <ele>63.9</ele>
        <time>2025-10-26T08:24:55Z</time>
      </trkpt>
      <trkpt lat="43.49976" lon="6.66343">
        <ele>63.9</ele>
        <time>2025-10-26T08:24:56Z</time>
      </trkpt>
      <trkpt lat="43.49976" lon="6.66343">
        <ele>63.9</ele>
        <time>2025-10-26T08:24:57Z</time>
      </trkpt>
      <trkpt lat="43.49976" lon="6.66342">
        <ele>63.9</ele>
        <time>2025-10-26T08:24:58Z</time>
      </trkpt>
      <trkpt lat="43.49976" lon="6.66342">
        <ele>63.8</ele>
        <time>2025-10-26T08:24:59Z</time>
      </trkpt>
      <trkpt lat="43.49976" lon="6.66342">
        <ele>63.8</ele>
        <time>2025-10-26T08:25:00Z</time>
      </trkpt>
      <trkpt lat="43.49976" lon="6.66342">
        <ele>63.8</ele>
        <time>2025-10-26T08:25:01Z</time>
      </trkpt>
      <trkpt lat="43.49976" lon="6.66342">
        <ele>63.8</ele>
        <time>2025-10-26T08:25:02Z</time>
      </trkpt>
      <trkpt lat="43.49976" lon="6.66342">
        <ele>63.8</ele>
        <time>2025-10-26T08:25:03Z</time>
      </trkpt>
      <trkpt lat="43.49976" lon="6.66342">
        <ele>63.8</ele>
        <time>2025-10-26T08:25:04Z</time>
      </trkpt>
      <trkpt lat="43.49976" lon="6.66342">
        <ele>63.7</ele>
        <time>2025-10-26T08:25:05Z</time>
      </trkpt>
      <trkpt lat="43.49976" lon="6.66341">
        <ele>63.7</ele>
        <time>2025-10-26T08:25:06Z</time>
      </trkpt>
      <trkpt lat="43.49976" lon="6.66341">
        <ele>63.7</ele>
        <time>2025-10-26T08:25:07Z</time>
      </trkpt>
      <trkpt lat="43.49976" lon="6.66341">
        <ele>63.8</ele>
        <time>2025-10-26T08:25:08Z</time>
      </trkpt>
      <trkpt lat="43.49976" lon="6.66341">
        <ele>63.8</ele>
        <time>2025-10-26T08:25:09Z</time>
      </trkpt>
      <trkpt lat="43.49977" lon="6.6634">
        <ele>63.9</ele>
        <time>2025-10-26T08:25:10Z</time>
      </trkpt>
      <trkpt lat="43.49976" lon="6.6634">
        <ele>64</ele>
        <time>2025-10-26T08:25:11Z</time>
      </trkpt>
      <trkpt lat="43.49977" lon="6.6634">
        <ele>64</ele>
        <time>2025-10-26T08:25:12Z</time>
      </trkpt>
      <trkpt lat="43.49977" lon="6.6634">
        <ele>64</ele>
        <time>2025-10-26T08:25:13Z</time>
      </trkpt>
      <trkpt lat="43.49977" lon="6.6634">
        <ele>64</ele>
        <time>2025-10-26T08:25:14Z</time>
      </trkpt>
      <trkpt lat="43.49977" lon="6.6634">
        <ele>64</ele>
        <time>2025-10-26T08:25:15Z</time>
      </trkpt>
      <trkpt lat="43.49977" lon="6.6634">
        <ele>64.1</ele>
        <time>2025-10-26T08:25:16Z</time>
      </trkpt>
      <trkpt lat="43.49978" lon="6.6634">
        <ele>64</ele>
        <time>2025-10-26T08:25:17Z</time>
      </trkpt>
      <trkpt lat="43.49978" lon="6.66339">
        <ele>63.9</ele>
        <time>2025-10-26T08:25:18Z</time>
      </trkpt>
      <trkpt lat="43.49978" lon="6.66339">
        <ele>63.8</ele>
        <time>2025-10-26T08:25:19Z</time>
      </trkpt>
      <trkpt lat="43.49978" lon="6.66338">
        <ele>63.8</ele>
        <time>2025-10-26T08:25:20Z</time>
      </trkpt>
      <trkpt lat="43.49978" lon="6.66338">
        <ele>63.7</ele>
        <time>2025-10-26T08:25:21Z</time>
      </trkpt>
      <trkpt lat="43.49978" lon="6.66339">
        <ele>63.7</ele>
        <time>2025-10-26T08:25:22Z</time>
      </trkpt>
      <trkpt lat="43.49979" lon="6.6634">
        <ele>63.6</ele>
        <time>2025-10-26T08:25:23Z</time>
      </trkpt>
      <trkpt lat="43.49979" lon="6.6634">
        <ele>63.6</ele>
        <time>2025-10-26T08:25:24Z</time>
      </trkpt>
      <trkpt lat="43.4998" lon="6.66341">
        <ele>63.7</ele>
        <time>2025-10-26T08:25:25Z</time>
      </trkpt>
      <trkpt lat="43.49981" lon="6.66341">
        <ele>63.7</ele>
        <time>2025-10-26T08:25:26Z</time>
      </trkpt>
      <trkpt lat="43.49981" lon="6.66341">
        <ele>63.7</ele>
        <time>2025-10-26T08:25:27Z</time>
      </trkpt>
      <trkpt lat="43.49981" lon="6.66341">
        <ele>63.7</ele>
        <time>2025-10-26T08:25:28Z</time>
      </trkpt>
      <trkpt lat="43.49981" lon="6.66341">
        <ele>63.9</ele>
        <time>2025-10-26T08:25:29Z</time>
      </trkpt>
      <trkpt lat="43.49982" lon="6.66342">
        <ele>64</ele>
        <time>2025-10-26T08:25:30Z</time>
      </trkpt>
      <trkpt lat="43.49982" lon="6.66342">
        <ele>64.1</ele>
        <time>2025-10-26T08:25:31Z</time>
      </trkpt>
      <trkpt lat="43.49983" lon="6.66343">
        <ele>64.2</ele>
        <time>2025-10-26T08:25:32Z</time>
      </trkpt>
      <trkpt lat="43.49983" lon="6.66344">
        <ele>64.2</ele>
        <time>2025-10-26T08:25:33Z</time>
      </trkpt>
      <trkpt lat="43.49983" lon="6.66345">
        <ele>64.2</ele>
        <time>2025-10-26T08:25:34Z</time>
      </trkpt>
      <trkpt lat="43.49983" lon="6.66345">
        <ele>64.3</ele>
        <time>2025-10-26T08:25:35Z</time>
      </trkpt>
      <trkpt lat="43.49983" lon="6.66346">
        <ele>64.3</ele>
        <time>2025-10-26T08:25:36Z</time>
      </trkpt>
      <trkpt lat="43.49983" lon="6.66346">
        <ele>64.3</ele>
        <time>2025-10-26T08:25:37Z</time>
      </trkpt>
      <trkpt lat="43.49983" lon="6.66347">
        <ele>64.4</ele>
        <time>2025-10-26T08:25:38Z</time>
      </trkpt>
      <trkpt lat="43.49984" lon="6.66348">
        <ele>64.5</ele>
        <time>2025-10-26T08:25:39Z</time>
      </trkpt>
      <trkpt lat="43.49984" lon="6.66349">
        <ele>64.5</ele>
        <time>2025-10-26T08:25:40Z</time>
      </trkpt>
      <trkpt lat="43.49984" lon="6.6635">
        <ele>64.4</ele>
        <time>2025-10-26T08:25:41Z</time>
      </trkpt>
      <trkpt lat="43.49985" lon="6.66351">
        <ele>64.3</ele>
        <time>2025-10-26T08:25:42Z</time>
      </trkpt>
      <trkpt lat="43.49985" lon="6.66351">
        <ele>64.2</ele>
        <time>2025-10-26T08:25:43Z</time>
      </trkpt>
      <trkpt lat="43.49985" lon="6.66352">
        <ele>64.2</ele>
        <time>2025-10-26T08:25:44Z</time>
      </trkpt>
      <trkpt lat="43.49986" lon="6.66353">
        <ele>64.3</ele>
        <time>2025-10-26T08:25:45Z</time>
      </trkpt>
      <trkpt lat="43.49986" lon="6.66354">
        <ele>64.3</ele>
        <time>2025-10-26T08:25:46Z</time>
      </trkpt>
      <trkpt lat="43.49986" lon="6.66355">
        <ele>64.4</ele>
        <time>2025-10-26T08:25:47Z</time>
      </trkpt>
      <trkpt lat="43.49987" lon="6.66356">
        <ele>64.6</ele>
        <time>2025-10-26T08:25:48Z</time>
      </trkpt>
      <trkpt lat="43.49987" lon="6.66357">
        <ele>64.7</ele>
        <time>2025-10-26T08:25:49Z</time>
      </trkpt>
      <trkpt lat="43.49987" lon="6.66358">
        <ele>64.8</ele>
        <time>2025-10-26T08:25:50Z</time>
      </trkpt>
      <trkpt lat="43.49988" lon="6.66359">
        <ele>64.9</ele>
        <time>2025-10-26T08:25:51Z</time>
      </trkpt>
      <trkpt lat="43.49988" lon="6.6636">
        <ele>64.9</ele>
        <time>2025-10-26T08:25:52Z</time>
      </trkpt>
      <trkpt lat="43.49988" lon="6.66362">
        <ele>65</ele>
        <time>2025-10-26T08:25:53Z</time>
      </trkpt>
      <trkpt lat="43.49988" lon="6.66363">
        <ele>65</ele>
        <time>2025-10-26T08:25:54Z</time>
      </trkpt>
      <trkpt lat="43.49989" lon="6.66364">
        <ele>65</ele>
        <time>2025-10-26T08:25:55Z</time>
      </trkpt>
      <trkpt lat="43.49989" lon="6.66365">
        <ele>65</ele>
        <time>2025-10-26T08:25:56Z</time>
      </trkpt>
      <trkpt lat="43.49989" lon="6.66366">
        <ele>65</ele>
        <time>2025-10-26T08:25:57Z</time>
      </trkpt>
      <trkpt lat="43.49989" lon="6.66368">
        <ele>65</ele>
        <time>2025-10-26T08:25:58Z</time>
      </trkpt>
      <trkpt lat="43.4999" lon="6.66369">
        <ele>65</ele>
        <time>2025-10-26T08:25:59Z</time>
      </trkpt>
      <trkpt lat="43.4999" lon="6.6637">
        <ele>65</ele>
        <time>2025-10-26T08:26:00Z</time>
      </trkpt>
      <trkpt lat="43.49991" lon="6.66371">
        <ele>65.1</ele>
        <time>2025-10-26T08:26:01Z</time>
      </trkpt>
      <trkpt lat="43.49991" lon="6.66372">
        <ele>65.3</ele>
        <time>2025-10-26T08:26:02Z</time>
      </trkpt>
      <trkpt lat="43.49992" lon="6.66373">
        <ele>65.3</ele>
        <time>2025-10-26T08:26:03Z</time>
      </trkpt>
      <trkpt lat="43.49992" lon="6.66374">
        <ele>65.4</ele>
        <time>2025-10-26T08:26:04Z</time>
      </trkpt>
      <trkpt lat="43.49993" lon="6.66375">
        <ele>65.6</ele>
        <time>2025-10-26T08:26:05Z</time>
      </trkpt>
      <trkpt lat="43.49993" lon="6.66376">
        <ele>65.6</ele>
        <time>2025-10-26T08:26:06Z</time>
      </trkpt>
      <trkpt lat="43.49994" lon="6.66377">
        <ele>65.7</ele>
        <time>2025-10-26T08:26:07Z</time>
      </trkpt>
      <trkpt lat="43.49995" lon="6.66378">
        <ele>65.8</ele>
        <time>2025-10-26T08:26:08Z</time>
      </trkpt>
      <trkpt lat="43.49996" lon="6.66378">
        <ele>65.8</ele>
        <time>2025-10-26T08:26:09Z</time>
      </trkpt>
      <trkpt lat="43.49997" lon="6.66379">
        <ele>65.9</ele>
        <time>2025-10-26T08:26:10Z</time>
      </trkpt>
      <trkpt lat="43.49997" lon="6.66379">
        <ele>66</ele>
        <time>2025-10-26T08:26:11Z</time>
      </trkpt>
      <trkpt lat="43.49998" lon="6.6638">
        <ele>66</ele>
        <time>2025-10-26T08:26:12Z</time>
      </trkpt>
      <trkpt lat="43.49999" lon="6.6638">
        <ele>66</ele>
        <time>2025-10-26T08:26:13Z</time>
      </trkpt>
      <trkpt lat="43.5" lon="6.66381">
        <ele>65.9</ele>
        <time>2025-10-26T08:26:14Z</time>
      </trkpt>
      <trkpt lat="43.50001" lon="6.66381">
        <ele>66</ele>
        <time>2025-10-26T08:26:15Z</time>
      </trkpt>
      <trkpt lat="43.50002" lon="6.66381">
        <ele>66</ele>
        <time>2025-10-26T08:26:16Z</time>
      </trkpt>
      <trkpt lat="43.50003" lon="6.66381">
        <ele>65.9</ele>
        <time>2025-10-26T08:26:17Z</time>
      </trkpt>
      <trkpt lat="43.50004" lon="6.6638">
        <ele>65.9</ele>
        <time>2025-10-26T08:26:18Z</time>
      </trkpt>
      <trkpt lat="43.50005" lon="6.6638">
        <ele>65.8</ele>
        <time>2025-10-26T08:26:19Z</time>
      </trkpt>
      <trkpt lat="43.50005" lon="6.6638">
        <ele>65.7</ele>
        <time>2025-10-26T08:26:20Z</time>
      </trkpt>
      <trkpt lat="43.50006" lon="6.6638">
        <ele>65.7</ele>
        <time>2025-10-26T08:26:21Z</time>
      </trkpt>
      <trkpt lat="43.50007" lon="6.6638">
        <ele>65.5</ele>
        <time>2025-10-26T08:26:22Z</time>
      </trkpt>
      <trkpt lat="43.50008" lon="6.66379">
        <ele>65.4</ele>
        <time>2025-10-26T08:26:23Z</time>
      </trkpt>
      <trkpt lat="43.50009" lon="6.66379">
        <ele>65.3</ele>
        <time>2025-10-26T08:26:24Z</time>
      </trkpt>
      <trkpt lat="43.50009" lon="6.66379">
        <ele>65.1</ele>
        <time>2025-10-26T08:26:25Z</time>
      </trkpt>
      <trkpt lat="43.5001" lon="6.66379">
        <ele>65</ele>
        <time>2025-10-26T08:26:26Z</time>
      </trkpt>
      <trkpt lat="43.50011" lon="6.66379">
        <ele>64.9</ele>
        <time>2025-10-26T08:26:27Z</time>
      </trkpt>
      <trkpt lat="43.50012" lon="6.66378">
        <ele>64.8</ele>
        <time>2025-10-26T08:26:28Z</time>
      </trkpt>
      <trkpt lat="43.50013" lon="6.66378">
        <ele>64.8</ele>
        <time>2025-10-26T08:26:29Z</time>
      </trkpt>
      <trkpt lat="43.50014" lon="6.66378">
        <ele>64.7</ele>
        <time>2025-10-26T08:26:30Z</time>
      </trkpt>
      <trkpt lat="43.50014" lon="6.66377">
        <ele>64.6</ele>
        <time>2025-10-26T08:26:31Z</time>
      </trkpt>
      <trkpt lat="43.50015" lon="6.66377">
        <ele>64.7</ele>
        <time>2025-10-26T08:26:32Z</time>
      </trkpt>
      <trkpt lat="43.50016" lon="6.66377">
        <ele>64.7</ele>
        <time>2025-10-26T08:26:33Z</time>
      </trkpt>
      <trkpt lat="43.50018" lon="6.66376">
        <ele>64.6</ele>
        <time>2025-10-26T08:26:34Z</time>
      </trkpt>
      <trkpt lat="43.50018" lon="6.66376">
        <ele>64.7</ele>
        <time>2025-10-26T08:26:35Z</time>
      </trkpt>
      <trkpt lat="43.5002" lon="6.66375">
        <ele>64.7</ele>
        <time>2025-10-26T08:26:36Z</time>
      </trkpt>
      <trkpt lat="43.50021" lon="6.66375">
        <ele>64.7</ele>
        <time>2025-10-26T08:26:37Z</time>
      </trkpt>
      <trkpt lat="43.50022" lon="6.66374">
        <ele>65</ele>
        <time>2025-10-26T08:26:38Z</time>
      </trkpt>
      <trkpt lat="43.50023" lon="6.66374">
        <ele>65.1</ele>
        <time>2025-10-26T08:26:39Z</time>
      </trkpt>
      <trkpt lat="43.50024" lon="6.66373">
        <ele>65.2</ele>
        <time>2025-10-26T08:26:40Z</time>
      </trkpt>
      <trkpt lat="43.50025" lon="6.66372">
        <ele>65.2</ele>
        <time>2025-10-26T08:26:41Z</time>
      </trkpt>
      <trkpt lat="43.50026" lon="6.66371">
        <ele>65.2</ele>
        <time>2025-10-26T08:26:42Z</time>
      </trkpt>
      <trkpt lat="43.50027" lon="6.66371">
        <ele>65.2</ele>
        <time>2025-10-26T08:26:43Z</time>
      </trkpt>
      <trkpt lat="43.50027" lon="6.6637">
        <ele>65.2</ele>
        <time>2025-10-26T08:26:44Z</time>
      </trkpt>
      <trkpt lat="43.50028" lon="6.66369">
        <ele>65.3</ele>
        <time>2025-10-26T08:26:45Z</time>
      </trkpt>
      <trkpt lat="43.50029" lon="6.66368">
        <ele>65.5</ele>
        <time>2025-10-26T08:26:46Z</time>
      </trkpt>
      <trkpt lat="43.5003" lon="6.66367">
        <ele>65.6</ele>
        <time>2025-10-26T08:26:47Z</time>
      </trkpt>
      <trkpt lat="43.5003" lon="6.66366">
        <ele>65.5</ele>
        <time>2025-10-26T08:26:48Z</time>
      </trkpt>
      <trkpt lat="43.50031" lon="6.66365">
        <ele>65.5</ele>
        <time>2025-10-26T08:26:49Z</time>
      </trkpt>
      <trkpt lat="43.50032" lon="6.66364">
        <ele>65.5</ele>
        <time>2025-10-26T08:26:50Z</time>
      </trkpt>
      <trkpt lat="43.50033" lon="6.66363">
        <ele>65.6</ele>
        <time>2025-10-26T08:26:51Z</time>
      </trkpt>
      <trkpt lat="43.50034" lon="6.66362">
        <ele>65.8</ele>
        <time>2025-10-26T08:26:52Z</time>
      </trkpt>
      <trkpt lat="43.50034" lon="6.66361">
        <ele>65.9</ele>
        <time>2025-10-26T08:26:53Z</time>
      </trkpt>
      <trkpt lat="43.50035" lon="6.6636">
        <ele>66</ele>
        <time>2025-10-26T08:26:54Z</time>
      </trkpt>
      <trkpt lat="43.50036" lon="6.66359">
        <ele>66</ele>
        <time>2025-10-26T08:26:55Z</time>
      </trkpt>
      <trkpt lat="43.50036" lon="6.66358">
        <ele>66</ele>
        <time>2025-10-26T08:26:56Z</time>
      </trkpt>
      <trkpt lat="43.50038" lon="6.66357">
        <ele>66</ele>
        <time>2025-10-26T08:26:57Z</time>
      </trkpt>
      <trkpt lat="43.50038" lon="6.66356">
        <ele>66</ele>
        <time>2025-10-26T08:26:58Z</time>
      </trkpt>
      <trkpt lat="43.5004" lon="6.66355">
        <ele>65.9</ele>
        <time>2025-10-26T08:26:59Z</time>
      </trkpt>
      <trkpt lat="43.5004" lon="6.66354">
        <ele>65.8</ele>
        <time>2025-10-26T08:27:00Z</time>
      </trkpt>
      <trkpt lat="43.50041" lon="6.66353">
        <ele>65.8</ele>
        <time>2025-10-26T08:27:01Z</time>
      </trkpt>
      <trkpt lat="43.50042" lon="6.66352">
        <ele>65.7</ele>
        <time>2025-10-26T08:27:02Z</time>
      </trkpt>
      <trkpt lat="43.50043" lon="6.66351">
        <ele>65.7</ele>
        <time>2025-10-26T08:27:03Z</time>
      </trkpt>
      <trkpt lat="43.50044" lon="6.6635">
        <ele>65.6</ele>
        <time>2025-10-26T08:27:04Z</time>
      </trkpt>
      <trkpt lat="43.50045" lon="6.66349">
        <ele>65.6</ele>
        <time>2025-10-26T08:27:05Z</time>
      </trkpt>
      <trkpt lat="43.50046" lon="6.66349">
        <ele>65.5</ele>
        <time>2025-10-26T08:27:06Z</time>
      </trkpt>
      <trkpt lat="43.50047" lon="6.66348">
        <ele>65.4</ele>
        <time>2025-10-26T08:27:07Z</time>
      </trkpt>
      <trkpt lat="43.50048" lon="6.66348">
        <ele>65.3</ele>
        <time>2025-10-26T08:27:08Z</time>
      </trkpt>
      <trkpt lat="43.50048" lon="6.66346">
        <ele>65.3</ele>
        <time>2025-10-26T08:27:09Z</time>
      </trkpt>
      <trkpt lat="43.5005" lon="6.66346">
        <ele>65.4</ele>
        <time>2025-10-26T08:27:10Z</time>
      </trkpt>
      <trkpt lat="43.50051" lon="6.66345">
        <ele>65.4</ele>
        <time>2025-10-26T08:27:11Z</time>
      </trkpt>
      <trkpt lat="43.50052" lon="6.66345">
        <ele>65.5</ele>
        <time>2025-10-26T08:27:12Z</time>
      </trkpt>
      <trkpt lat="43.50053" lon="6.66344">
        <ele>65.7</ele>
        <time>2025-10-26T08:27:13Z</time>
      </trkpt>
      <trkpt lat="43.50054" lon="6.66343">
        <ele>65.8</ele>
        <time>2025-10-26T08:27:14Z</time>
      </trkpt>
      <trkpt lat="43.50055" lon="6.66342">
        <ele>65.8</ele>
        <time>2025-10-26T08:27:15Z</time>
      </trkpt>
      <trkpt lat="43.50056" lon="6.66342">
        <ele>66</ele>
        <time>2025-10-26T08:27:16Z</time>
      </trkpt>
      <trkpt lat="43.50057" lon="6.66341">
        <ele>65.9</ele>
        <time>2025-10-26T08:27:17Z</time>
      </trkpt>
      <trkpt lat="43.50059" lon="6.66341">
        <ele>66</ele>
        <time>2025-10-26T08:27:18Z</time>
      </trkpt>
      <trkpt lat="43.5006" lon="6.66341">
        <ele>66</ele>
        <time>2025-10-26T08:27:19Z</time>
      </trkpt>
      <trkpt lat="43.50061" lon="6.66341">
        <ele>66</ele>
        <time>2025-10-26T08:27:20Z</time>
      </trkpt>
      <trkpt lat="43.50062" lon="6.6634">
        <ele>65.9</ele>
        <time>2025-10-26T08:27:21Z</time>
      </trkpt>
      <trkpt lat="43.50063" lon="6.6634">
        <ele>65.8</ele>
        <time>2025-10-26T08:27:22Z</time>
      </trkpt>
      <trkpt lat="43.50064" lon="6.66339">
        <ele>65.7</ele>
        <time>2025-10-26T08:27:23Z</time>
      </trkpt>
      <trkpt lat="43.50065" lon="6.66339">
        <ele>65.6</ele>
        <time>2025-10-26T08:27:24Z</time>
      </trkpt>
      <trkpt lat="43.50066" lon="6.66339">
        <ele>65.5</ele>
        <time>2025-10-26T08:27:25Z</time>
      </trkpt>
      <trkpt lat="43.50067" lon="6.66339">
        <ele>65.5</ele>
        <time>2025-10-26T08:27:26Z</time>
      </trkpt>
      <trkpt lat="43.50068" lon="6.66338">
        <ele>65.6</ele>
        <time>2025-10-26T08:27:27Z</time>
      </trkpt>
      <trkpt lat="43.50069" lon="6.66339">
        <ele>65.4</ele>
        <time>2025-10-26T08:27:28Z</time>
      </trkpt>
      <trkpt lat="43.5007" lon="6.66338">
        <ele>65.4</ele>
        <time>2025-10-26T08:27:29Z</time>
      </trkpt>
      <trkpt lat="43.50071" lon="6.66338">
        <ele>65.4</ele>
        <time>2025-10-26T08:27:30Z</time>
      </trkpt>
      <trkpt lat="43.50072" lon="6.66337">
        <ele>65.5</ele>
        <time>2025-10-26T08:27:31Z</time>
      </trkpt>
      <trkpt lat="43.50074" lon="6.66337">
        <ele>65.6</ele>
        <time>2025-10-26T08:27:32Z</time>
      </trkpt>
      <trkpt lat="43.50075" lon="6.66338">
        <ele>65.4</ele>
        <time>2025-10-26T08:27:33Z</time>
      </trkpt>
      <trkpt lat="43.50076" lon="6.66338">
        <ele>65.4</ele>
        <time>2025-10-26T08:27:34Z</time>
      </trkpt>
      <trkpt lat="43.50077" lon="6.66338">
        <ele>65.5</ele>
        <time>2025-10-26T08:27:35Z</time>
      </trkpt>
      <trkpt lat="43.50078" lon="6.66338">
        <ele>65.5</ele>
        <time>2025-10-26T08:27:36Z</time>
      </trkpt>
      <trkpt lat="43.50079" lon="6.66338">
        <ele>65.5</ele>
        <time>2025-10-26T08:27:37Z</time>
      </trkpt>
      <trkpt lat="43.5008" lon="6.66338">
        <ele>65.7</ele>
        <time>2025-10-26T08:27:38Z</time>
      </trkpt>
      <trkpt lat="43.50081" lon="6.66338">
        <ele>65.9</ele>
        <time>2025-10-26T08:27:39Z</time>
      </trkpt>
      <trkpt lat="43.50082" lon="6.66338">
        <ele>66.1</ele>
        <time>2025-10-26T08:27:40Z</time>
      </trkpt>
      <trkpt lat="43.50082" lon="6.66338">
        <ele>66.2</ele>
        <time>2025-10-26T08:27:41Z</time>
      </trkpt>
      <trkpt lat="43.50083" lon="6.66338">
        <ele>66.4</ele>
        <time>2025-10-26T08:27:42Z</time>
      </trkpt>
      <trkpt lat="43.50084" lon="6.66338">
        <ele>66.5</ele>
        <time>2025-10-26T08:27:43Z</time>
      </trkpt>
      <trkpt lat="43.50085" lon="6.66339">
        <ele>66.6</ele>
        <time>2025-10-26T08:27:44Z</time>
      </trkpt>
      <trkpt lat="43.50087" lon="6.66339">
        <ele>66.7</ele>
        <time>2025-10-26T08:27:45Z</time>
      </trkpt>
      <trkpt lat="43.50087" lon="6.66339">
        <ele>66.8</ele>
        <time>2025-10-26T08:27:46Z</time>
      </trkpt>
      <trkpt lat="43.50088" lon="6.66339">
        <ele>67</ele>
        <time>2025-10-26T08:27:47Z</time>
      </trkpt>
      <trkpt lat="43.50089" lon="6.6634">
        <ele>67.2</ele>
        <time>2025-10-26T08:27:48Z</time>
      </trkpt>
      <trkpt lat="43.5009" lon="6.6634">
        <ele>67.4</ele>
        <time>2025-10-26T08:27:49Z</time>
      </trkpt>
      <trkpt lat="43.5009" lon="6.66341">
        <ele>67.6</ele>
        <time>2025-10-26T08:27:50Z</time>
      </trkpt>
      <trkpt lat="43.50091" lon="6.66342">
        <ele>67.8</ele>
        <time>2025-10-26T08:27:51Z</time>
      </trkpt>
      <trkpt lat="43.50092" lon="6.66342">
        <ele>67.9</ele>
        <time>2025-10-26T08:27:52Z</time>
      </trkpt>
      <trkpt lat="43.50093" lon="6.66343">
        <ele>68</ele>
        <time>2025-10-26T08:27:53Z</time>
      </trkpt>
      <trkpt lat="43.50094" lon="6.66343">
        <ele>68.1</ele>
        <time>2025-10-26T08:27:54Z</time>
      </trkpt>
      <trkpt lat="43.50095" lon="6.66343">
        <ele>68.3</ele>
        <time>2025-10-26T08:27:55Z</time>
      </trkpt>
      <trkpt lat="43.50095" lon="6.66344">
        <ele>68.3</ele>
        <time>2025-10-26T08:27:56Z</time>
      </trkpt>
      <trkpt lat="43.50096" lon="6.66346">
        <ele>68.4</ele>
        <time>2025-10-26T08:27:57Z</time>
      </trkpt>
      <trkpt lat="43.50097" lon="6.66346">
        <ele>68.5</ele>
        <time>2025-10-26T08:27:58Z</time>
      </trkpt>
      <trkpt lat="43.50098" lon="6.66346">
        <ele>68.6</ele>
        <time>2025-10-26T08:27:59Z</time>
      </trkpt>
      <trkpt lat="43.50098" lon="6.66347">
        <ele>68.7</ele>
        <time>2025-10-26T08:28:00Z</time>
      </trkpt>
      <trkpt lat="43.50099" lon="6.66348">
        <ele>68.8</ele>
        <time>2025-10-26T08:28:01Z</time>
      </trkpt>
      <trkpt lat="43.501" lon="6.66348">
        <ele>69</ele>
        <time>2025-10-26T08:28:02Z</time>
      </trkpt>
      <trkpt lat="43.501" lon="6.66349">
        <ele>69.1</ele>
        <time>2025-10-26T08:28:03Z</time>
      </trkpt>
      <trkpt lat="43.50101" lon="6.6635">
        <ele>69.1</ele>
        <time>2025-10-26T08:28:04Z</time>
      </trkpt>
      <trkpt lat="43.50102" lon="6.66352">
        <ele>69.1</ele>
        <time>2025-10-26T08:28:05Z</time>
      </trkpt>
      <trkpt lat="43.50103" lon="6.66352">
        <ele>69.1</ele>
        <time>2025-10-26T08:28:06Z</time>
      </trkpt>
      <trkpt lat="43.50104" lon="6.66353">
        <ele>69.3</ele>
        <time>2025-10-26T08:28:07Z</time>
      </trkpt>
      <trkpt lat="43.50104" lon="6.66354">
        <ele>69.3</ele>
        <time>2025-10-26T08:28:08Z</time>
      </trkpt>
      <trkpt lat="43.50105" lon="6.66355">
        <ele>69.4</ele>
        <time>2025-10-26T08:28:09Z</time>
      </trkpt>
      <trkpt lat="43.50106" lon="6.66356">
        <ele>69.4</ele>
        <time>2025-10-26T08:28:10Z</time>
      </trkpt>
      <trkpt lat="43.50106" lon="6.66357">
        <ele>69.5</ele>
        <time>2025-10-26T08:28:11Z</time>
      </trkpt>
      <trkpt lat="43.50107" lon="6.66359">
        <ele>69.6</ele>
        <time>2025-10-26T08:28:12Z</time>
      </trkpt>
      <trkpt lat="43.50108" lon="6.6636">
        <ele>69.8</ele>
        <time>2025-10-26T08:28:13Z</time>
      </trkpt>
      <trkpt lat="43.50109" lon="6.6636">
        <ele>69.9</ele>
        <time>2025-10-26T08:28:14Z</time>
      </trkpt>
      <trkpt lat="43.50109" lon="6.66361">
        <ele>70</ele>
        <time>2025-10-26T08:28:15Z</time>
      </trkpt>
      <trkpt lat="43.5011" lon="6.66362">
        <ele>70.1</ele>
        <time>2025-10-26T08:28:16Z</time>
      </trkpt>
      <trkpt lat="43.5011" lon="6.66363">
        <ele>70.1</ele>
        <time>2025-10-26T08:28:17Z</time>
      </trkpt>
      <trkpt lat="43.50111" lon="6.66364">
        <ele>70.2</ele>
        <time>2025-10-26T08:28:18Z</time>
      </trkpt>
      <trkpt lat="43.50111" lon="6.66364">
        <ele>70.3</ele>
        <time>2025-10-26T08:28:19Z</time>
      </trkpt>
      <trkpt lat="43.50112" lon="6.66365">
        <ele>70.3</ele>
        <time>2025-10-26T08:28:20Z</time>
      </trkpt>
      <trkpt lat="43.50112" lon="6.66365">
        <ele>70.4</ele>
        <time>2025-10-26T08:28:21Z</time>
      </trkpt>
      <trkpt lat="43.50112" lon="6.66365">
        <ele>70.4</ele>
        <time>2025-10-26T08:28:22Z</time>
      </trkpt>
      <trkpt lat="43.50113" lon="6.66365">
        <ele>70.5</ele>
        <time>2025-10-26T08:28:23Z</time>
      </trkpt>
      <trkpt lat="43.50113" lon="6.66366">
        <ele>70.5</ele>
        <time>2025-10-26T08:28:24Z</time>
      </trkpt>
      <trkpt lat="43.50113" lon="6.66367">
        <ele>70.6</ele>
        <time>2025-10-26T08:28:25Z</time>
      </trkpt>
      <trkpt lat="43.50113" lon="6.66368">
        <ele>70.7</ele>
        <time>2025-10-26T08:28:26Z</time>
      </trkpt>
      <trkpt lat="43.50114" lon="6.66368">
        <ele>70.8</ele>
        <time>2025-10-26T08:28:27Z</time>
      </trkpt>
      <trkpt lat="43.50114" lon="6.66369">
        <ele>70.9</ele>
        <time>2025-10-26T08:28:28Z</time>
      </trkpt>
      <trkpt lat="43.50115" lon="6.66369">
        <ele>70.9</ele>
        <time>2025-10-26T08:28:29Z</time>
      </trkpt>
      <trkpt lat="43.50115" lon="6.66369">
        <ele>70.9</ele>
        <time>2025-10-26T08:28:30Z</time>
      </trkpt>
      <trkpt lat="43.50116" lon="6.66369">
        <ele>70.9</ele>
        <time>2025-10-26T08:28:31Z</time>
      </trkpt>
      <trkpt lat="43.50116" lon="6.66369">
        <ele>70.9</ele>
        <time>2025-10-26T08:28:32Z</time>
      </trkpt>
      <trkpt lat="43.50117" lon="6.66369">
        <ele>70.9</ele>
        <time>2025-10-26T08:28:33Z</time>
      </trkpt>
      <trkpt lat="43.50117" lon="6.6637">
        <ele>70.9</ele>
        <time>2025-10-26T08:28:34Z</time>
      </trkpt>
      <trkpt lat="43.50118" lon="6.6637">
        <ele>70.9</ele>
        <time>2025-10-26T08:28:35Z</time>
      </trkpt>
      <trkpt lat="43.50118" lon="6.66371">
        <ele>70.7</ele>
        <time>2025-10-26T08:28:36Z</time>
      </trkpt>
      <trkpt lat="43.50119" lon="6.66371">
        <ele>70.6</ele>
        <time>2025-10-26T08:28:37Z</time>
      </trkpt>
      <trkpt lat="43.50119" lon="6.66371">
        <ele>70.5</ele>
        <time>2025-10-26T08:28:38Z</time>
      </trkpt>
      <trkpt lat="43.5012" lon="6.66372">
        <ele>70.4</ele>
        <time>2025-10-26T08:28:39Z</time>
      </trkpt>
      <trkpt lat="43.50121" lon="6.66372">
        <ele>70.4</ele>
        <time>2025-10-26T08:28:40Z</time>
      </trkpt>
      <trkpt lat="43.50122" lon="6.66373">
        <ele>70.4</ele>
        <time>2025-10-26T08:28:41Z</time>
      </trkpt>
      <trkpt lat="43.50122" lon="6.66373">
        <ele>70.2</ele>
        <time>2025-10-26T08:28:42Z</time>
      </trkpt>
      <trkpt lat="43.50123" lon="6.66374">
        <ele>70.1</ele>
        <time>2025-10-26T08:28:43Z</time>
      </trkpt>
      <trkpt lat="43.50124" lon="6.66374">
        <ele>70.1</ele>
        <time>2025-10-26T08:28:44Z</time>
      </trkpt>
      <trkpt lat="43.50124" lon="6.66375">
        <ele>70</ele>
        <time>2025-10-26T08:28:45Z</time>
      </trkpt>
      <trkpt lat="43.50125" lon="6.66376">
        <ele>69.9</ele>
        <time>2025-10-26T08:28:46Z</time>
      </trkpt>
      <trkpt lat="43.50126" lon="6.66377">
        <ele>69.8</ele>
        <time>2025-10-26T08:28:47Z</time>
      </trkpt>
      <trkpt lat="43.50126" lon="6.66378">
        <ele>69.7</ele>
        <time>2025-10-26T08:28:48Z</time>
      </trkpt>
      <trkpt lat="43.50127" lon="6.66378">
        <ele>69.6</ele>
        <time>2025-10-26T08:28:49Z</time>
      </trkpt>
      <trkpt lat="43.50128" lon="6.66379">
        <ele>69.5</ele>
        <time>2025-10-26T08:28:50Z</time>
      </trkpt>
      <trkpt lat="43.50128" lon="6.6638">
        <ele>69.4</ele>
        <time>2025-10-26T08:28:51Z</time>
      </trkpt>
      <trkpt lat="43.50129" lon="6.66381">
        <ele>69.4</ele>
        <time>2025-10-26T08:28:52Z</time>
      </trkpt>
      <trkpt lat="43.5013" lon="6.66381">
        <ele>69.4</ele>
        <time>2025-10-26T08:28:53Z</time>
      </trkpt>
      <trkpt lat="43.50131" lon="6.66382">
        <ele>69.5</ele>
        <time>2025-10-26T08:28:54Z</time>
      </trkpt>
      <trkpt lat="43.50131" lon="6.66382">
        <ele>69.5</ele>
        <time>2025-10-26T08:28:55Z</time>
      </trkpt>
      <trkpt lat="43.50132" lon="6.66383">
        <ele>69.5</ele>
        <time>2025-10-26T08:28:56Z</time>
      </trkpt>
      <trkpt lat="43.50133" lon="6.66383">
        <ele>69.5</ele>
        <time>2025-10-26T08:28:57Z</time>
      </trkpt>
      <trkpt lat="43.50134" lon="6.66385">
        <ele>69.4</ele>
        <time>2025-10-26T08:28:58Z</time>
      </trkpt>
      <trkpt lat="43.50135" lon="6.66386">
        <ele>69.2</ele>
        <time>2025-10-26T08:28:59Z</time>
      </trkpt>
      <trkpt lat="43.50136" lon="6.66386">
        <ele>69.1</ele>
        <time>2025-10-26T08:29:00Z</time>
      </trkpt>
      <trkpt lat="43.50137" lon="6.66387">
        <ele>68.9</ele>
        <time>2025-10-26T08:29:01Z</time>
      </trkpt>
      <trkpt lat="43.50138" lon="6.66387">
        <ele>68.7</ele>
        <time>2025-10-26T08:29:02Z</time>
      </trkpt>
      <trkpt lat="43.50138" lon="6.66388">
        <ele>68.6</ele>
        <time>2025-10-26T08:29:03Z</time>
      </trkpt>
      <trkpt lat="43.50139" lon="6.66389">
        <ele>68.5</ele>
        <time>2025-10-26T08:29:04Z</time>
      </trkpt>
      <trkpt lat="43.50139" lon="6.66389">
        <ele>68.4</ele>
        <time>2025-10-26T08:29:05Z</time>
      </trkpt>
      <trkpt lat="43.50139" lon="6.6639">
        <ele>68.3</ele>
        <time>2025-10-26T08:29:06Z</time>
      </trkpt>
      <trkpt lat="43.50139" lon="6.6639">
        <ele>68.4</ele>
        <time>2025-10-26T08:29:07Z</time>
      </trkpt>
      <trkpt lat="43.50139" lon="6.66391">
        <ele>68.4</ele>
        <time>2025-10-26T08:29:08Z</time>
      </trkpt>
      <trkpt lat="43.50139" lon="6.66391">
        <ele>68.4</ele>
        <time>2025-10-26T08:29:09Z</time>
      </trkpt>
      <trkpt lat="43.50139" lon="6.66391">
        <ele>68.4</ele>
        <time>2025-10-26T08:29:10Z</time>
      </trkpt>
      <trkpt lat="43.5014" lon="6.66392">
        <ele>68.5</ele>
        <time>2025-10-26T08:29:11Z</time>
      </trkpt>
      <trkpt lat="43.5014" lon="6.66392">
        <ele>68.5</ele>
        <time>2025-10-26T08:29:12Z</time>
      </trkpt>
      <trkpt lat="43.50142" lon="6.66392">
        <ele>68.4</ele>
        <time>2025-10-26T08:29:13Z</time>
      </trkpt>
      <trkpt lat="43.50142" lon="6.66393">
        <ele>68.4</ele>
        <time>2025-10-26T08:29:14Z</time>
      </trkpt>
      <trkpt lat="43.50142" lon="6.66393">
        <ele>68.2</ele>
        <time>2025-10-26T08:29:15Z</time>
      </trkpt>
      <trkpt lat="43.50143" lon="6.66394">
        <ele>68.2</ele>
        <time>2025-10-26T08:29:16Z</time>
      </trkpt>
      <trkpt lat="43.50143" lon="6.66394">
        <ele>68</ele>
        <time>2025-10-26T08:29:17Z</time>
      </trkpt>
      <trkpt lat="43.50144" lon="6.66395">
        <ele>67.9</ele>
        <time>2025-10-26T08:29:18Z</time>
      </trkpt>
      <trkpt lat="43.50145" lon="6.66396">
        <ele>67.7</ele>
        <time>2025-10-26T08:29:19Z</time>
      </trkpt>
      <trkpt lat="43.50146" lon="6.66396">
        <ele>67.5</ele>
        <time>2025-10-26T08:29:20Z</time>
      </trkpt>
      <trkpt lat="43.50147" lon="6.66397">
        <ele>67.5</ele>
        <time>2025-10-26T08:29:21Z</time>
      </trkpt>
      <trkpt lat="43.50148" lon="6.66397">
        <ele>67.3</ele>
        <time>2025-10-26T08:29:22Z</time>
      </trkpt>
      <trkpt lat="43.50148" lon="6.66398">
        <ele>67.1</ele>
        <time>2025-10-26T08:29:23Z</time>
      </trkpt>
      <trkpt lat="43.50149" lon="6.66399">
        <ele>67</ele>
        <time>2025-10-26T08:29:24Z</time>
      </trkpt>
      <trkpt lat="43.50149" lon="6.66399">
        <ele>67.1</ele>
        <time>2025-10-26T08:29:25Z</time>
      </trkpt>
      <trkpt lat="43.5015" lon="6.66399">
        <ele>67.1</ele>
        <time>2025-10-26T08:29:26Z</time>
      </trkpt>
      <trkpt lat="43.5015" lon="6.66399">
        <ele>67.1</ele>
        <time>2025-10-26T08:29:27Z</time>
      </trkpt>
      <trkpt lat="43.50151" lon="6.664">
        <ele>67.1</ele>
        <time>2025-10-26T08:29:28Z</time>
      </trkpt>
      <trkpt lat="43.50152" lon="6.66401">
        <ele>67</ele>
        <time>2025-10-26T08:29:29Z</time>
      </trkpt>
      <trkpt lat="43.50153" lon="6.66401">
        <ele>66.9</ele>
        <time>2025-10-26T08:29:30Z</time>
      </trkpt>
      <trkpt lat="43.50154" lon="6.66401">
        <ele>66.9</ele>
        <time>2025-10-26T08:29:31Z</time>
      </trkpt>
      <trkpt lat="43.50155" lon="6.66402">
        <ele>66.9</ele>
        <time>2025-10-26T08:29:32Z</time>
      </trkpt>
      <trkpt lat="43.50155" lon="6.66402">
        <ele>66.9</ele>
        <time>2025-10-26T08:29:33Z</time>
      </trkpt>
      <trkpt lat="43.50156" lon="6.66403">
        <ele>66.9</ele>
        <time>2025-10-26T08:29:34Z</time>
      </trkpt>
      <trkpt lat="43.50157" lon="6.66404">
        <ele>66.7</ele>
        <time>2025-10-26T08:29:35Z</time>
      </trkpt>
      <trkpt lat="43.50158" lon="6.66404">
        <ele>66.6</ele>
        <time>2025-10-26T08:29:36Z</time>
      </trkpt>
      <trkpt lat="43.50159" lon="6.66405">
        <ele>66.6</ele>
        <time>2025-10-26T08:29:37Z</time>
      </trkpt>
      <trkpt lat="43.5016" lon="6.66406">
        <ele>66.6</ele>
        <time>2025-10-26T08:29:38Z</time>
      </trkpt>
      <trkpt lat="43.50161" lon="6.66407">
        <ele>66.7</ele>
        <time>2025-10-26T08:29:39Z</time>
      </trkpt>
      <trkpt lat="43.50162" lon="6.66407">
        <ele>66.7</ele>
        <time>2025-10-26T08:29:40Z</time>
      </trkpt>
      <trkpt lat="43.50163" lon="6.66408">
        <ele>66.8</ele>
        <time>2025-10-26T08:29:41Z</time>
      </trkpt>
      <trkpt lat="43.50165" lon="6.66408">
        <ele>66.7</ele>
        <time>2025-10-26T08:29:42Z</time>
      </trkpt>
      <trkpt lat="43.50166" lon="6.66408">
        <ele>66.6</ele>
        <time>2025-10-26T08:29:43Z</time>
      </trkpt>
      <trkpt lat="43.50167" lon="6.66409">
        <ele>66.7</ele>
        <time>2025-10-26T08:29:44Z</time>
      </trkpt>
      <trkpt lat="43.50168" lon="6.66409">
        <ele>66.7</ele>
        <time>2025-10-26T08:29:45Z</time>
      </trkpt>
      <trkpt lat="43.50169" lon="6.66409">
        <ele>66.7</ele>
        <time>2025-10-26T08:29:46Z</time>
      </trkpt>
      <trkpt lat="43.5017" lon="6.66408">
        <ele>66.7</ele>
        <time>2025-10-26T08:29:47Z</time>
      </trkpt>
      <trkpt lat="43.50171" lon="6.66406">
        <ele>66.6</ele>
        <time>2025-10-26T08:29:48Z</time>
      </trkpt>
      <trkpt lat="43.50172" lon="6.66406">
        <ele>66.5</ele>
        <time>2025-10-26T08:29:49Z</time>
      </trkpt>
      <trkpt lat="43.50172" lon="6.66404">
        <ele>66.4</ele>
        <time>2025-10-26T08:29:50Z</time>
      </trkpt>
      <trkpt lat="43.50171" lon="6.66403">
        <ele>66.2</ele>
        <time>2025-10-26T08:29:51Z</time>
      </trkpt>
      <trkpt lat="43.50172" lon="6.66402">
        <ele>66.1</ele>
        <time>2025-10-26T08:29:52Z</time>
      </trkpt>
      <trkpt lat="43.50172" lon="6.664">
        <ele>66.1</ele>
        <time>2025-10-26T08:29:53Z</time>
      </trkpt>
      <trkpt lat="43.50173" lon="6.66399">
        <ele>66.1</ele>
        <time>2025-10-26T08:29:54Z</time>
      </trkpt>
      <trkpt lat="43.50174" lon="6.66397">
        <ele>66</ele>
        <time>2025-10-26T08:29:55Z</time>
      </trkpt>
      <trkpt lat="43.50174" lon="6.66396">
        <ele>66</ele>
        <time>2025-10-26T08:29:56Z</time>
      </trkpt>
      <trkpt lat="43.50175" lon="6.66395">
        <ele>65.9</ele>
        <time>2025-10-26T08:29:57Z</time>
      </trkpt>
      <trkpt lat="43.50175" lon="6.66394">
        <ele>65.9</ele>
        <time>2025-10-26T08:29:58Z</time>
      </trkpt>
      <trkpt lat="43.50176" lon="6.66393">
        <ele>65.9</ele>
        <time>2025-10-26T08:29:59Z</time>
      </trkpt>
      <trkpt lat="43.50177" lon="6.66391">
        <ele>65.9</ele>
        <time>2025-10-26T08:30:00Z</time>
      </trkpt>
      <trkpt lat="43.50178" lon="6.6639">
        <ele>65.9</ele>
        <time>2025-10-26T08:30:01Z</time>
      </trkpt>
      <trkpt lat="43.50178" lon="6.6639">
        <ele>66</ele>
        <time>2025-10-26T08:30:02Z</time>
      </trkpt>
      <trkpt lat="43.50178" lon="6.66389">
        <ele>65.9</ele>
        <time>2025-10-26T08:30:03Z</time>
      </trkpt>
      <trkpt lat="43.50178" lon="6.66388">
        <ele>65.8</ele>
        <time>2025-10-26T08:30:04Z</time>
      </trkpt>
      <trkpt lat="43.50179" lon="6.66387">
        <ele>65.8</ele>
        <time>2025-10-26T08:30:05Z</time>
      </trkpt>
      <trkpt lat="43.50179" lon="6.66386">
        <ele>65.7</ele>
        <time>2025-10-26T08:30:06Z</time>
      </trkpt>
      <trkpt lat="43.50179" lon="6.66385">
        <ele>65.7</ele>
        <time>2025-10-26T08:30:07Z</time>
      </trkpt>
      <trkpt lat="43.5018" lon="6.66383">
        <ele>65.6</ele>
        <time>2025-10-26T08:30:08Z</time>
      </trkpt>
      <trkpt lat="43.50181" lon="6.66381">
        <ele>65.6</ele>
        <time>2025-10-26T08:30:09Z</time>
      </trkpt>
      <trkpt lat="43.50181" lon="6.6638">
        <ele>65.5</ele>
        <time>2025-10-26T08:30:10Z</time>
      </trkpt>
      <trkpt lat="43.50181" lon="6.66379">
        <ele>65.4</ele>
        <time>2025-10-26T08:30:11Z</time>
      </trkpt>
      <trkpt lat="43.50181" lon="6.66378">
        <ele>65.4</ele>
        <time>2025-10-26T08:30:12Z</time>
      </trkpt>
      <trkpt lat="43.50181" lon="6.66378">
        <ele>65.3</ele>
        <time>2025-10-26T08:30:13Z</time>
      </trkpt>
      <trkpt lat="43.50181" lon="6.66378">
        <ele>65.3</ele>
        <time>2025-10-26T08:30:14Z</time>
      </trkpt>
      <trkpt lat="43.50182" lon="6.66378">
        <ele>65.2</ele>
        <time>2025-10-26T08:30:15Z</time>
      </trkpt>
      <trkpt lat="43.50182" lon="6.66377">
        <ele>65.2</ele>
        <time>2025-10-26T08:30:16Z</time>
      </trkpt>
      <trkpt lat="43.50182" lon="6.66376">
        <ele>65.4</ele>
        <time>2025-10-26T08:30:17Z</time>
      </trkpt>
      <trkpt lat="43.50182" lon="6.66375">
        <ele>65.6</ele>
        <time>2025-10-26T08:30:18Z</time>
      </trkpt>
      <trkpt lat="43.50182" lon="6.66374">
        <ele>65.8</ele>
        <time>2025-10-26T08:30:19Z</time>
      </trkpt>
      <trkpt lat="43.50182" lon="6.66374">
        <ele>66</ele>
        <time>2025-10-26T08:30:20Z</time>
      </trkpt>
      <trkpt lat="43.50182" lon="6.66374">
        <ele>66.1</ele>
        <time>2025-10-26T08:30:21Z</time>
      </trkpt>
      <trkpt lat="43.50183" lon="6.66374">
        <ele>66.1</ele>
        <time>2025-10-26T08:30:22Z</time>
      </trkpt>
      <trkpt lat="43.50184" lon="6.66373">
        <ele>66.2</ele>
        <time>2025-10-26T08:30:23Z</time>
      </trkpt>
      <trkpt lat="43.50185" lon="6.66373">
        <ele>66.2</ele>
        <time>2025-10-26T08:30:24Z</time>
      </trkpt>
      <trkpt lat="43.50186" lon="6.66373">
        <ele>66.3</ele>
        <time>2025-10-26T08:30:25Z</time>
      </trkpt>
      <trkpt lat="43.50186" lon="6.66373">
        <ele>66.3</ele>
        <time>2025-10-26T08:30:26Z</time>
      </trkpt>
      <trkpt lat="43.50187" lon="6.66373">
        <ele>66.5</ele>
        <time>2025-10-26T08:30:27Z</time>
      </trkpt>
      <trkpt lat="43.50188" lon="6.66372">
        <ele>66.6</ele>
        <time>2025-10-26T08:30:28Z</time>
      </trkpt>
      <trkpt lat="43.50189" lon="6.66372">
        <ele>66.6</ele>
        <time>2025-10-26T08:30:29Z</time>
      </trkpt>
      <trkpt lat="43.5019" lon="6.66372">
        <ele>66.7</ele>
        <time>2025-10-26T08:30:30Z</time>
      </trkpt>
      <trkpt lat="43.50191" lon="6.66371">
        <ele>66.7</ele>
        <time>2025-10-26T08:30:31Z</time>
      </trkpt>
      <trkpt lat="43.50192" lon="6.6637">
        <ele>66.8</ele>
        <time>2025-10-26T08:30:32Z</time>
      </trkpt>
      <trkpt lat="43.50193" lon="6.66369">
        <ele>66.8</ele>
        <time>2025-10-26T08:30:33Z</time>
      </trkpt>
      <trkpt lat="43.50193" lon="6.66368">
        <ele>66.9</ele>
        <time>2025-10-26T08:30:34Z</time>
      </trkpt>
      <trkpt lat="43.50194" lon="6.66367">
        <ele>66.9</ele>
        <time>2025-10-26T08:30:35Z</time>
      </trkpt>
      <trkpt lat="43.50195" lon="6.66366">
        <ele>67.1</ele>
        <time>2025-10-26T08:30:36Z</time>
      </trkpt>
      <trkpt lat="43.50196" lon="6.66365">
        <ele>67.4</ele>
        <time>2025-10-26T08:30:37Z</time>
      </trkpt>
      <trkpt lat="43.50197" lon="6.66365">
        <ele>67.6</ele>
        <time>2025-10-26T08:30:38Z</time>
      </trkpt>
      <trkpt lat="43.50197" lon="6.66365">
        <ele>67.8</ele>
        <time>2025-10-26T08:30:39Z</time>
      </trkpt>
      <trkpt lat="43.50198" lon="6.66364">
        <ele>68</ele>
        <time>2025-10-26T08:30:40Z</time>
      </trkpt>
      <trkpt lat="43.50199" lon="6.66362">
        <ele>68.2</ele>
        <time>2025-10-26T08:30:41Z</time>
      </trkpt>
      <trkpt lat="43.50199" lon="6.66362">
        <ele>68.4</ele>
        <time>2025-10-26T08:30:42Z</time>
      </trkpt>
      <trkpt lat="43.502" lon="6.66361">
        <ele>68.5</ele>
        <time>2025-10-26T08:30:43Z</time>
      </trkpt>
      <trkpt lat="43.502" lon="6.66361">
        <ele>68.8</ele>
        <time>2025-10-26T08:30:44Z</time>
      </trkpt>
      <trkpt lat="43.50201" lon="6.6636">
        <ele>68.9</ele>
        <time>2025-10-26T08:30:45Z</time>
      </trkpt>
      <trkpt lat="43.50201" lon="6.6636">
        <ele>69.1</ele>
        <time>2025-10-26T08:30:46Z</time>
      </trkpt>
      <trkpt lat="43.50201" lon="6.66359">
        <ele>69.2</ele>
        <time>2025-10-26T08:30:47Z</time>
      </trkpt>
      <trkpt lat="43.50202" lon="6.66358">
        <ele>69.2</ele>
        <time>2025-10-26T08:30:48Z</time>
      </trkpt>
      <trkpt lat="43.50202" lon="6.66357">
        <ele>69.3</ele>
        <time>2025-10-26T08:30:49Z</time>
      </trkpt>
      <trkpt lat="43.50203" lon="6.66356">
        <ele>69.5</ele>
        <time>2025-10-26T08:30:50Z</time>
      </trkpt>
      <trkpt lat="43.50203" lon="6.66355">
        <ele>69.6</ele>
        <time>2025-10-26T08:30:51Z</time>
      </trkpt>
      <trkpt lat="43.50203" lon="6.66354">
        <ele>69.8</ele>
        <time>2025-10-26T08:30:52Z</time>
      </trkpt>
      <trkpt lat="43.50204" lon="6.66353">
        <ele>70</ele>
        <time>2025-10-26T08:30:53Z</time>
      </trkpt>
      <trkpt lat="43.50204" lon="6.66352">
        <ele>70.2</ele>
        <time>2025-10-26T08:30:54Z</time>
      </trkpt>
      <trkpt lat="43.50204" lon="6.66352">
        <ele>70.5</ele>
        <time>2025-10-26T08:30:55Z</time>
      </trkpt>
      <trkpt lat="43.50205" lon="6.6635">
        <ele>70.7</ele>
        <time>2025-10-26T08:30:56Z</time>
      </trkpt>
      <trkpt lat="43.50205" lon="6.66349">
        <ele>70.9</ele>
        <time>2025-10-26T08:30:57Z</time>
      </trkpt>
      <trkpt lat="43.50205" lon="6.66348">
        <ele>71.1</ele>
        <time>2025-10-26T08:30:58Z</time>
      </trkpt>
      <trkpt lat="43.50205" lon="6.66347">
        <ele>71.4</ele>
        <time>2025-10-26T08:30:59Z</time>
      </trkpt>
      <trkpt lat="43.50205" lon="6.66346">
        <ele>71.5</ele>
        <time>2025-10-26T08:31:00Z</time>
      </trkpt>
      <trkpt lat="43.50206" lon="6.66346">
        <ele>71.7</ele>
        <time>2025-10-26T08:31:01Z</time>
      </trkpt>
      <trkpt lat="43.50206" lon="6.66345">
        <ele>71.8</ele>
        <time>2025-10-26T08:31:02Z</time>
      </trkpt>
      <trkpt lat="43.50207" lon="6.66344">
        <ele>72</ele>
        <time>2025-10-26T08:31:03Z</time>
      </trkpt>
      <trkpt lat="43.50207" lon="6.66343">
        <ele>72.2</ele>
        <time>2025-10-26T08:31:04Z</time>
      </trkpt>
      <trkpt lat="43.50207" lon="6.66342">
        <ele>72.4</ele>
        <time>2025-10-26T08:31:05Z</time>
      </trkpt>
      <trkpt lat="43.50206" lon="6.66342">
        <ele>72.6</ele>
        <time>2025-10-26T08:31:06Z</time>
      </trkpt>
      <trkpt lat="43.50206" lon="6.66341">
        <ele>72.8</ele>
        <time>2025-10-26T08:31:07Z</time>
      </trkpt>
      <trkpt lat="43.50206" lon="6.66341">
        <ele>73</ele>
        <time>2025-10-26T08:31:08Z</time>
      </trkpt>
      <trkpt lat="43.50206" lon="6.6634">
        <ele>73.3</ele>
        <time>2025-10-26T08:31:09Z</time>
      </trkpt>
      <trkpt lat="43.50206" lon="6.66339">
        <ele>73.4</ele>
        <time>2025-10-26T08:31:10Z</time>
      </trkpt>
      <trkpt lat="43.50207" lon="6.66338">
        <ele>73.8</ele>
        <time>2025-10-26T08:31:11Z</time>
      </trkpt>
      <trkpt lat="43.50208" lon="6.66338">
        <ele>74</ele>
        <time>2025-10-26T08:31:12Z</time>
      </trkpt>
      <trkpt lat="43.50208" lon="6.66337">
        <ele>74.2</ele>
        <time>2025-10-26T08:31:13Z</time>
      </trkpt>
      <trkpt lat="43.50208" lon="6.66336">
        <ele>74.4</ele>
        <time>2025-10-26T08:31:14Z</time>
      </trkpt>
      <trkpt lat="43.50208" lon="6.66335">
        <ele>74.5</ele>
        <time>2025-10-26T08:31:15Z</time>
      </trkpt>
      <trkpt lat="43.50209" lon="6.66334">
        <ele>74.8</ele>
        <time>2025-10-26T08:31:16Z</time>
      </trkpt>
      <trkpt lat="43.5021" lon="6.66333">
        <ele>74.9</ele>
        <time>2025-10-26T08:31:17Z</time>
      </trkpt>
      <trkpt lat="43.5021" lon="6.66333">
        <ele>75</ele>
        <time>2025-10-26T08:31:18Z</time>
      </trkpt>
      <trkpt lat="43.5021" lon="6.66332">
        <ele>75.2</ele>
        <time>2025-10-26T08:31:19Z</time>
      </trkpt>
      <trkpt lat="43.5021" lon="6.66332">
        <ele>75.4</ele>
        <time>2025-10-26T08:31:20Z</time>
      </trkpt>
      <trkpt lat="43.50211" lon="6.66331">
        <ele>75.6</ele>
        <time>2025-10-26T08:31:21Z</time>
      </trkpt>
      <trkpt lat="43.50211" lon="6.6633">
        <ele>75.7</ele>
        <time>2025-10-26T08:31:22Z</time>
      </trkpt>
      <trkpt lat="43.50211" lon="6.6633">
        <ele>75.8</ele>
        <time>2025-10-26T08:31:23Z</time>
      </trkpt>
      <trkpt lat="43.50211" lon="6.66329">
        <ele>75.9</ele>
        <time>2025-10-26T08:31:24Z</time>
      </trkpt>
      <trkpt lat="43.50211" lon="6.66329">
        <ele>76</ele>
        <time>2025-10-26T08:31:25Z</time>
      </trkpt>
      <trkpt lat="43.50211" lon="6.66328">
        <ele>76.1</ele>
        <time>2025-10-26T08:31:26Z</time>
      </trkpt>
      <trkpt lat="43.50212" lon="6.66328">
        <ele>76.2</ele>
        <time>2025-10-26T08:31:27Z</time>
      </trkpt>
      <trkpt lat="43.50212" lon="6.66327">
        <ele>76.3</ele>
        <time>2025-10-26T08:31:28Z</time>
      </trkpt>
      <trkpt lat="43.50212" lon="6.66326">
        <ele>76.4</ele>
        <time>2025-10-26T08:31:29Z</time>
      </trkpt>
      <trkpt lat="43.50212" lon="6.66326">
        <ele>76.6</ele>
        <time>2025-10-26T08:31:30Z</time>
      </trkpt>
      <trkpt lat="43.50213" lon="6.66326">
        <ele>76.7</ele>
        <time>2025-10-26T08:31:31Z</time>
      </trkpt>
      <trkpt lat="43.50213" lon="6.66326">
        <ele>76.8</ele>
        <time>2025-10-26T08:31:32Z</time>
      </trkpt>
      <trkpt lat="43.50213" lon="6.66326">
        <ele>76.8</ele>
        <time>2025-10-26T08:31:33Z</time>
      </trkpt>
      <trkpt lat="43.50213" lon="6.66325">
        <ele>76.8</ele>
        <time>2025-10-26T08:31:34Z</time>
      </trkpt>
      <trkpt lat="43.50213" lon="6.66324">
        <ele>76.9</ele>
        <time>2025-10-26T08:31:35Z</time>
      </trkpt>
      <trkpt lat="43.50213" lon="6.66323">
        <ele>77</ele>
        <time>2025-10-26T08:31:36Z</time>
      </trkpt>
      <trkpt lat="43.50213" lon="6.66322">
        <ele>77.1</ele>
        <time>2025-10-26T08:31:37Z</time>
      </trkpt>
      <trkpt lat="43.50214" lon="6.66321">
        <ele>77.1</ele>
        <time>2025-10-26T08:31:38Z</time>
      </trkpt>
      <trkpt lat="43.50214" lon="6.66321">
        <ele>77.2</ele>
        <time>2025-10-26T08:31:39Z</time>
      </trkpt>
      <trkpt lat="43.50215" lon="6.6632">
        <ele>77.2</ele>
        <time>2025-10-26T08:31:40Z</time>
      </trkpt>
      <trkpt lat="43.50215" lon="6.6632">
        <ele>77.3</ele>
        <time>2025-10-26T08:31:41Z</time>
      </trkpt>
      <trkpt lat="43.50215" lon="6.66319">
        <ele>77.4</ele>
        <time>2025-10-26T08:31:42Z</time>
      </trkpt>
      <trkpt lat="43.50215" lon="6.66318">
        <ele>77.4</ele>
        <time>2025-10-26T08:31:43Z</time>
      </trkpt>
      <trkpt lat="43.50214" lon="6.66318">
        <ele>77.4</ele>
        <time>2025-10-26T08:31:44Z</time>
      </trkpt>
      <trkpt lat="43.50214" lon="6.66317">
        <ele>77.3</ele>
        <time>2025-10-26T08:31:45Z</time>
      </trkpt>
      <trkpt lat="43.50213" lon="6.66317">
        <ele>77.3</ele>
        <time>2025-10-26T08:31:46Z</time>
      </trkpt>
      <trkpt lat="43.50213" lon="6.66316">
        <ele>77.2</ele>
        <time>2025-10-26T08:31:47Z</time>
      </trkpt>
      <trkpt lat="43.50212" lon="6.66316">
        <ele>77.1</ele>
        <time>2025-10-26T08:31:48Z</time>
      </trkpt>
      <trkpt lat="43.50212" lon="6.66315">
        <ele>77.1</ele>
        <time>2025-10-26T08:31:49Z</time>
      </trkpt>
      <trkpt lat="43.50212" lon="6.66315">
        <ele>77.1</ele>
        <time>2025-10-26T08:31:50Z</time>
      </trkpt>
      <trkpt lat="43.50212" lon="6.66315">
        <ele>77.3</ele>
        <time>2025-10-26T08:31:51Z</time>
      </trkpt>
      <trkpt lat="43.50212" lon="6.66314">
        <ele>77.6</ele>
        <time>2025-10-26T08:31:52Z</time>
      </trkpt>
      <trkpt lat="43.50212" lon="6.66314">
        <ele>77.9</ele>
        <time>2025-10-26T08:31:53Z</time>
      </trkpt>
      <trkpt lat="43.50212" lon="6.66314">
        <ele>78</ele>
        <time>2025-10-26T08:31:54Z</time>
      </trkpt>
      <trkpt lat="43.50212" lon="6.66314">
        <ele>78</ele>
        <time>2025-10-26T08:31:55Z</time>
      </trkpt>
      <trkpt lat="43.50212" lon="6.66314">
        <ele>77.9</ele>
        <time>2025-10-26T08:31:56Z</time>
      </trkpt>
      <trkpt lat="43.50212" lon="6.66313">
        <ele>77.8</ele>
        <time>2025-10-26T08:31:57Z</time>
      </trkpt>
      <trkpt lat="43.50212" lon="6.66313">
        <ele>77.7</ele>
        <time>2025-10-26T08:31:58Z</time>
      </trkpt>
      <trkpt lat="43.50212" lon="6.66313">
        <ele>77.6</ele>
        <time>2025-10-26T08:31:59Z</time>
      </trkpt>
      <trkpt lat="43.50212" lon="6.66313">
        <ele>77.5</ele>
        <time>2025-10-26T08:32:00Z</time>
      </trkpt>
      <trkpt lat="43.50212" lon="6.66314">
        <ele>77.5</ele>
        <time>2025-10-26T08:32:01Z</time>
      </trkpt>
      <trkpt lat="43.50212" lon="6.66313">
        <ele>77.5</ele>
        <time>2025-10-26T08:32:02Z</time>
      </trkpt>
      <trkpt lat="43.50212" lon="6.66313">
        <ele>77.5</ele>
        <time>2025-10-26T08:32:03Z</time>
      </trkpt>
      <trkpt lat="43.50212" lon="6.66313">
        <ele>77.6</ele>
        <time>2025-10-26T08:32:04Z</time>
      </trkpt>
      <trkpt lat="43.50212" lon="6.66313">
        <ele>77.6</ele>
        <time>2025-10-26T08:32:05Z</time>
      </trkpt>
      <trkpt lat="43.50212" lon="6.66312">
        <ele>77.6</ele>
        <time>2025-10-26T08:32:06Z</time>
      </trkpt>
      <trkpt lat="43.50212" lon="6.66312">
        <ele>77.6</ele>
        <time>2025-10-26T08:32:07Z</time>
      </trkpt>
      <trkpt lat="43.50212" lon="6.66312">
        <ele>77.7</ele>
        <time>2025-10-26T08:32:08Z</time>
      </trkpt>
      <trkpt lat="43.50212" lon="6.66312">
        <ele>77.8</ele>
        <time>2025-10-26T08:32:09Z</time>
      </trkpt>
      <trkpt lat="43.50212" lon="6.66312">
        <ele>77.8</ele>
        <time>2025-10-26T08:32:10Z</time>
      </trkpt>
      <trkpt lat="43.50212" lon="6.66312">
        <ele>77.8</ele>
        <time>2025-10-26T08:32:11Z</time>
      </trkpt>
      <trkpt lat="43.50212" lon="6.66312">
        <ele>77.8</ele>
        <time>2025-10-26T08:32:12Z</time>
      </trkpt>
      <trkpt lat="43.50212" lon="6.66312">
        <ele>77.8</ele>
        <time>2025-10-26T08:32:13Z</time>
      </trkpt>
      <trkpt lat="43.50212" lon="6.66312">
        <ele>77.8</ele>
        <time>2025-10-26T08:32:14Z</time>
      </trkpt>
      <trkpt lat="43.50212" lon="6.66312">
        <ele>77.9</ele>
        <time>2025-10-26T08:32:15Z</time>
      </trkpt>
      <trkpt lat="43.50211" lon="6.66312">
        <ele>77.8</ele>
        <time>2025-10-26T08:32:16Z</time>
      </trkpt>
      <trkpt lat="43.50212" lon="6.66311">
        <ele>77.8</ele>
        <time>2025-10-26T08:32:17Z</time>
      </trkpt>
      <trkpt lat="43.50212" lon="6.66311">
        <ele>77.9</ele>
        <time>2025-10-26T08:32:18Z</time>
      </trkpt>
      <trkpt lat="43.50212" lon="6.6631">
        <ele>77.9</ele>
        <time>2025-10-26T08:32:19Z</time>
      </trkpt>
      <trkpt lat="43.50212" lon="6.6631">
        <ele>77.9</ele>
        <time>2025-10-26T08:32:20Z</time>
      </trkpt>
      <trkpt lat="43.50212" lon="6.6631">
        <ele>78</ele>
        <time>2025-10-26T08:32:21Z</time>
      </trkpt>
      <trkpt lat="43.50212" lon="6.6631">
        <ele>78</ele>
        <time>2025-10-26T08:32:22Z</time>
      </trkpt>
      <trkpt lat="43.50212" lon="6.6631">
        <ele>78</ele>
        <time>2025-10-26T08:32:23Z</time>
      </trkpt>
      <trkpt lat="43.50212" lon="6.6631">
        <ele>78</ele>
        <time>2025-10-26T08:32:24Z</time>
      </trkpt>
      <trkpt lat="43.50211" lon="6.6631">
        <ele>78</ele>
        <time>2025-10-26T08:32:25Z</time>
      </trkpt>
      <trkpt lat="43.50211" lon="6.6631">
        <ele>78.1</ele>
        <time>2025-10-26T08:32:26Z</time>
      </trkpt>
      <trkpt lat="43.50211" lon="6.66309">
        <ele>77.9</ele>
        <time>2025-10-26T08:32:27Z</time>
      </trkpt>
      <trkpt lat="43.50211" lon="6.66309">
        <ele>77.9</ele>
        <time>2025-10-26T08:32:28Z</time>
      </trkpt>
      <trkpt lat="43.50211" lon="6.66309">
        <ele>77.8</ele>
        <time>2025-10-26T08:32:29Z</time>
      </trkpt>
      <trkpt lat="43.50211" lon="6.66309">
        <ele>77.8</ele>
        <time>2025-10-26T08:32:30Z</time>
      </trkpt>
      <trkpt lat="43.50211" lon="6.66309">
        <ele>77.8</ele>
        <time>2025-10-26T08:32:31Z</time>
      </trkpt>
      <trkpt lat="43.50212" lon="6.66309">
        <ele>77.8</ele>
        <time>2025-10-26T08:32:32Z</time>
      </trkpt>
      <trkpt lat="43.50211" lon="6.66309">
        <ele>77.8</ele>
        <time>2025-10-26T08:32:33Z</time>
      </trkpt>
      <trkpt lat="43.50211" lon="6.66309">
        <ele>77.9</ele>
        <time>2025-10-26T08:32:34Z</time>
      </trkpt>
      <trkpt lat="43.50212" lon="6.66309">
        <ele>77.9</ele>
        <time>2025-10-26T08:32:35Z</time>
      </trkpt>
      <trkpt lat="43.50212" lon="6.66309">
        <ele>77.9</ele>
        <time>2025-10-26T08:32:36Z</time>
      </trkpt>
      <trkpt lat="43.50212" lon="6.66309">
        <ele>77.9</ele>
        <time>2025-10-26T08:32:37Z</time>
      </trkpt>
      <trkpt lat="43.50212" lon="6.6631">
        <ele>77.9</ele>
        <time>2025-10-26T08:32:38Z</time>
      </trkpt>
      <trkpt lat="43.50212" lon="6.66309">
        <ele>77.9</ele>
        <time>2025-10-26T08:32:39Z</time>
      </trkpt>
      <trkpt lat="43.50212" lon="6.66309">
        <ele>77.8</ele>
        <time>2025-10-26T08:32:40Z</time>
      </trkpt>
      <trkpt lat="43.50212" lon="6.66309">
        <ele>77.8</ele>
        <time>2025-10-26T08:32:41Z</time>
      </trkpt>
      <trkpt lat="43.50212" lon="6.66309">
        <ele>77.8</ele>
        <time>2025-10-26T08:32:42Z</time>
      </trkpt>
      <trkpt lat="43.50212" lon="6.66309">
        <ele>77.7</ele>
        <time>2025-10-26T08:32:43Z</time>
      </trkpt>
      <trkpt lat="43.50212" lon="6.66309">
        <ele>77.7</ele>
        <time>2025-10-26T08:32:44Z</time>
      </trkpt>
      <trkpt lat="43.50212" lon="6.66309">
        <ele>77.6</ele>
        <time>2025-10-26T08:32:45Z</time>
      </trkpt>
      <trkpt lat="43.50212" lon="6.66309">
        <ele>77.6</ele>
        <time>2025-10-26T08:32:46Z</time>
      </trkpt>
      <trkpt lat="43.50212" lon="6.66309">
        <ele>77.6</ele>
        <time>2025-10-26T08:32:47Z</time>
      </trkpt>
      <trkpt lat="43.50212" lon="6.66309">
        <ele>77.6</ele>
        <time>2025-10-26T08:32:48Z</time>
      </trkpt>
      <trkpt lat="43.50212" lon="6.66309">
        <ele>77.6</ele>
        <time>2025-10-26T08:32:49Z</time>
      </trkpt>
      <trkpt lat="43.50211" lon="6.66309">
        <ele>77.6</ele>
        <time>2025-10-26T08:32:50Z</time>
      </trkpt>
      <trkpt lat="43.50211" lon="6.66309">
        <ele>77.6</ele>
        <time>2025-10-26T08:32:51Z</time>
      </trkpt>
      <trkpt lat="43.50211" lon="6.66308">
        <ele>77.6</ele>
        <time>2025-10-26T08:32:52Z</time>
      </trkpt>
      <trkpt lat="43.50211" lon="6.66308">
        <ele>77.6</ele>
        <time>2025-10-26T08:32:53Z</time>
      </trkpt>
      <trkpt lat="43.50211" lon="6.66308">
        <ele>77.6</ele>
        <time>2025-10-26T08:32:54Z</time>
      </trkpt>
      <trkpt lat="43.50211" lon="6.66308">
        <ele>77.7</ele>
        <time>2025-10-26T08:32:55Z</time>
      </trkpt>
      <trkpt lat="43.50211" lon="6.66309">
        <ele>77.7</ele>
        <time>2025-10-26T08:32:56Z</time>
      </trkpt>
      <trkpt lat="43.50211" lon="6.66309">
        <ele>77.8</ele>
        <time>2025-10-26T08:32:57Z</time>
      </trkpt>
      <trkpt lat="43.5021" lon="6.66309">
        <ele>77.8</ele>
        <time>2025-10-26T08:32:58Z</time>
      </trkpt>
      <trkpt lat="43.5021" lon="6.66309">
        <ele>77.8</ele>
        <time>2025-10-26T08:32:59Z</time>
      </trkpt>
      <trkpt lat="43.5021" lon="6.66309">
        <ele>77.7</ele>
        <time>2025-10-26T08:33:00Z</time>
      </trkpt>
      <trkpt lat="43.5021" lon="6.66309">
        <ele>77.6</ele>
        <time>2025-10-26T08:33:01Z</time>
      </trkpt>
      <trkpt lat="43.5021" lon="6.66309">
        <ele>77.6</ele>
        <time>2025-10-26T08:33:02Z</time>
      </trkpt>
      <trkpt lat="43.5021" lon="6.66309">
        <ele>77.6</ele>
        <time>2025-10-26T08:33:03Z</time>
      </trkpt>
      <trkpt lat="43.5021" lon="6.66309">
        <ele>77.6</ele>
        <time>2025-10-26T08:33:04Z</time>
      </trkpt>
      <trkpt lat="43.5021" lon="6.66309">
        <ele>77.7</ele>
        <time>2025-10-26T08:33:05Z</time>
      </trkpt>
      <trkpt lat="43.5021" lon="6.66309">
        <ele>77.7</ele>
        <time>2025-10-26T08:33:06Z</time>
      </trkpt>
      <trkpt lat="43.5021" lon="6.66309">
        <ele>77.7</ele>
        <time>2025-10-26T08:33:07Z</time>
      </trkpt>
      <trkpt lat="43.5021" lon="6.66309">
        <ele>77.6</ele>
        <time>2025-10-26T08:33:08Z</time>
      </trkpt>
      <trkpt lat="43.5021" lon="6.66309">
        <ele>77.7</ele>
        <time>2025-10-26T08:33:09Z</time>
      </trkpt>
      <trkpt lat="43.5021" lon="6.66309">
        <ele>77.7</ele>
        <time>2025-10-26T08:33:10Z</time>
      </trkpt>
      <trkpt lat="43.5021" lon="6.66309">
        <ele>77.7</ele>
        <time>2025-10-26T08:33:11Z</time>
      </trkpt>
      <trkpt lat="43.5021" lon="6.66309">
        <ele>77.7</ele>
        <time>2025-10-26T08:33:12Z</time>
      </trkpt>
      <trkpt lat="43.5021" lon="6.66309">
        <ele>77.7</ele>
        <time>2025-10-26T08:33:13Z</time>
      </trkpt>
      <trkpt lat="43.5021" lon="6.66309">
        <ele>77.8</ele>
        <time>2025-10-26T08:33:14Z</time>
      </trkpt>
      <trkpt lat="43.5021" lon="6.6631">
        <ele>77.9</ele>
        <time>2025-10-26T08:33:15Z</time>
      </trkpt>
      <trkpt lat="43.5021" lon="6.6631">
        <ele>77.9</ele>
        <time>2025-10-26T08:33:16Z</time>
      </trkpt>
      <trkpt lat="43.5021" lon="6.66309">
        <ele>77.9</ele>
        <time>2025-10-26T08:33:17Z</time>
      </trkpt>
      <trkpt lat="43.50209" lon="6.6631">
        <ele>77.9</ele>
        <time>2025-10-26T08:33:18Z</time>
      </trkpt>
      <trkpt lat="43.50209" lon="6.6631">
        <ele>77.9</ele>
        <time>2025-10-26T08:33:19Z</time>
      </trkpt>
      <trkpt lat="43.50209" lon="6.6631">
        <ele>78</ele>
        <time>2025-10-26T08:33:20Z</time>
      </trkpt>
      <trkpt lat="43.50209" lon="6.6631">
        <ele>78</ele>
        <time>2025-10-26T08:33:21Z</time>
      </trkpt>
      <trkpt lat="43.50209" lon="6.6631">
        <ele>78.1</ele>
        <time>2025-10-26T08:33:22Z</time>
      </trkpt>
      <trkpt lat="43.50209" lon="6.6631">
        <ele>78.2</ele>
        <time>2025-10-26T08:33:23Z</time>
      </trkpt>
      <trkpt lat="43.50209" lon="6.6631">
        <ele>78.3</ele>
        <time>2025-10-26T08:33:24Z</time>
      </trkpt>
      <trkpt lat="43.50209" lon="6.6631">
        <ele>78.4</ele>
        <time>2025-10-26T08:33:25Z</time>
      </trkpt>
      <trkpt lat="43.50209" lon="6.6631">
        <ele>78.4</ele>
        <time>2025-10-26T08:33:26Z</time>
      </trkpt>
      <trkpt lat="43.50209" lon="6.6631">
        <ele>78.4</ele>
        <time>2025-10-26T08:33:27Z</time>
      </trkpt>
      <trkpt lat="43.50209" lon="6.6631">
        <ele>78.4</ele>
        <time>2025-10-26T08:33:28Z</time>
      </trkpt>
      <trkpt lat="43.50209" lon="6.66311">
        <ele>78.4</ele>
        <time>2025-10-26T08:33:29Z</time>
      </trkpt>
      <trkpt lat="43.50209" lon="6.66311">
        <ele>78.4</ele>
        <time>2025-10-26T08:33:30Z</time>
      </trkpt>
      <trkpt lat="43.50209" lon="6.66311">
        <ele>78.4</ele>
        <time>2025-10-26T08:33:31Z</time>
      </trkpt>
      <trkpt lat="43.50209" lon="6.66311">
        <ele>78.3</ele>
        <time>2025-10-26T08:33:32Z</time>
      </trkpt>
      <trkpt lat="43.50209" lon="6.66311">
        <ele>78.3</ele>
        <time>2025-10-26T08:33:33Z</time>
      </trkpt>
      <trkpt lat="43.50209" lon="6.66311">
        <ele>78.2</ele>
        <time>2025-10-26T08:33:34Z</time>
      </trkpt>
      <trkpt lat="43.50209" lon="6.66311">
        <ele>78.2</ele>
        <time>2025-10-26T08:33:35Z</time>
      </trkpt>
      <trkpt lat="43.50209" lon="6.66311">
        <ele>78.2</ele>
        <time>2025-10-26T08:33:36Z</time>
      </trkpt>
      <trkpt lat="43.50209" lon="6.66311">
        <ele>78.2</ele>
        <time>2025-10-26T08:33:37Z</time>
      </trkpt>
      <trkpt lat="43.50209" lon="6.66311">
        <ele>78.1</ele>
        <time>2025-10-26T08:33:38Z</time>
      </trkpt>
      <trkpt lat="43.50209" lon="6.66311">
        <ele>78.1</ele>
        <time>2025-10-26T08:33:39Z</time>
      </trkpt>
      <trkpt lat="43.50209" lon="6.66311">
        <ele>78</ele>
        <time>2025-10-26T08:33:40Z</time>
      </trkpt>
      <trkpt lat="43.50209" lon="6.66311">
        <ele>78</ele>
        <time>2025-10-26T08:33:41Z</time>
      </trkpt>
      <trkpt lat="43.50209" lon="6.66311">
        <ele>78.1</ele>
        <time>2025-10-26T08:33:42Z</time>
      </trkpt>
      <trkpt lat="43.50209" lon="6.66311">
        <ele>78.1</ele>
        <time>2025-10-26T08:33:43Z</time>
      </trkpt>
      <trkpt lat="43.50209" lon="6.66311">
        <ele>78.1</ele>
        <time>2025-10-26T08:33:44Z</time>
      </trkpt>
      <trkpt lat="43.50209" lon="6.66311">
        <ele>78.2</ele>
        <time>2025-10-26T08:33:45Z</time>
      </trkpt>
      <trkpt lat="43.50209" lon="6.66311">
        <ele>78.2</ele>
        <time>2025-10-26T08:33:46Z</time>
      </trkpt>
      <trkpt lat="43.50209" lon="6.66311">
        <ele>78.3</ele>
        <time>2025-10-26T08:33:47Z</time>
      </trkpt>
      <trkpt lat="43.50209" lon="6.66311">
        <ele>78.3</ele>
        <time>2025-10-26T08:33:48Z</time>
      </trkpt>
      <trkpt lat="43.50209" lon="6.66311">
        <ele>78.3</ele>
        <time>2025-10-26T08:33:49Z</time>
      </trkpt>
      <trkpt lat="43.50209" lon="6.66311">
        <ele>78.3</ele>
        <time>2025-10-26T08:33:50Z</time>
      </trkpt>
      <trkpt lat="43.5021" lon="6.66311">
        <ele>78.3</ele>
        <time>2025-10-26T08:33:51Z</time>
      </trkpt>
      <trkpt lat="43.5021" lon="6.66311">
        <ele>78.3</ele>
        <time>2025-10-26T08:33:52Z</time>
      </trkpt>
      <trkpt lat="43.5021" lon="6.66311">
        <ele>78.3</ele>
        <time>2025-10-26T08:33:53Z</time>
      </trkpt>
      <trkpt lat="43.5021" lon="6.66311">
        <ele>78.3</ele>
        <time>2025-10-26T08:33:54Z</time>
      </trkpt>
      <trkpt lat="43.5021" lon="6.66311">
        <ele>78.3</ele>
        <time>2025-10-26T08:33:55Z</time>
      </trkpt>
      <trkpt lat="43.5021" lon="6.66311">
        <ele>78.3</ele>
        <time>2025-10-26T08:33:56Z</time>
      </trkpt>
      <trkpt lat="43.5021" lon="6.66311">
        <ele>78.2</ele>
        <time>2025-10-26T08:33:57Z</time>
      </trkpt>
      <trkpt lat="43.5021" lon="6.66311">
        <ele>78.2</ele>
        <time>2025-10-26T08:33:58Z</time>
      </trkpt>
      <trkpt lat="43.5021" lon="6.6631">
        <ele>78.2</ele>
        <time>2025-10-26T08:33:59Z</time>
      </trkpt>
      <trkpt lat="43.5021" lon="6.6631">
        <ele>78.1</ele>
        <time>2025-10-26T08:34:00Z</time>
      </trkpt>
      <trkpt lat="43.50211" lon="6.6631">
        <ele>78.1</ele>
        <time>2025-10-26T08:34:01Z</time>
      </trkpt>
      <trkpt lat="43.50211" lon="6.6631">
        <ele>78.1</ele>
        <time>2025-10-26T08:34:02Z</time>
      </trkpt>
      <trkpt lat="43.50211" lon="6.6631">
        <ele>78.1</ele>
        <time>2025-10-26T08:34:03Z</time>
      </trkpt>
      <trkpt lat="43.50211" lon="6.6631">
        <ele>78.2</ele>
        <time>2025-10-26T08:34:04Z</time>
      </trkpt>
      <trkpt lat="43.50211" lon="6.6631">
        <ele>78.2</ele>
        <time>2025-10-26T08:34:05Z</time>
      </trkpt>
      <trkpt lat="43.50211" lon="6.6631">
        <ele>78.3</ele>
        <time>2025-10-26T08:34:06Z</time>
      </trkpt>
      <trkpt lat="43.50211" lon="6.6631">
        <ele>78.4</ele>
        <time>2025-10-26T08:34:07Z</time>
      </trkpt>
      <trkpt lat="43.50211" lon="6.6631">
        <ele>78.5</ele>
        <time>2025-10-26T08:34:08Z</time>
      </trkpt>
      <trkpt lat="43.50211" lon="6.6631">
        <ele>78.4</ele>
        <time>2025-10-26T08:34:09Z</time>
      </trkpt>
      <trkpt lat="43.50211" lon="6.6631">
        <ele>78.4</ele>
        <time>2025-10-26T08:34:10Z</time>
      </trkpt>
      <trkpt lat="43.50211" lon="6.6631">
        <ele>78.4</ele>
        <time>2025-10-26T08:34:11Z</time>
      </trkpt>
      <trkpt lat="43.50211" lon="6.6631">
        <ele>78.3</ele>
        <time>2025-10-26T08:34:12Z</time>
      </trkpt>
      <trkpt lat="43.50211" lon="6.6631">
        <ele>78.2</ele>
        <time>2025-10-26T08:34:13Z</time>
      </trkpt>
      <trkpt lat="43.50211" lon="6.6631">
        <ele>78.1</ele>
        <time>2025-10-26T08:34:14Z</time>
      </trkpt>
      <trkpt lat="43.50211" lon="6.6631">
        <ele>78</ele>
        <time>2025-10-26T08:34:15Z</time>
      </trkpt>
      <trkpt lat="43.50211" lon="6.6631">
        <ele>77.9</ele>
        <time>2025-10-26T08:34:16Z</time>
      </trkpt>
      <trkpt lat="43.50211" lon="6.6631">
        <ele>77.8</ele>
        <time>2025-10-26T08:34:17Z</time>
      </trkpt>
      <trkpt lat="43.50212" lon="6.6631">
        <ele>77.7</ele>
        <time>2025-10-26T08:34:18Z</time>
      </trkpt>
      <trkpt lat="43.50212" lon="6.6631">
        <ele>77.7</ele>
        <time>2025-10-26T08:34:19Z</time>
      </trkpt>
      <trkpt lat="43.50212" lon="6.6631">
        <ele>77.7</ele>
        <time>2025-10-26T08:34:20Z</time>
      </trkpt>
      <trkpt lat="43.50212" lon="6.6631">
        <ele>77.6</ele>
        <time>2025-10-26T08:34:21Z</time>
      </trkpt>
      <trkpt lat="43.50212" lon="6.6631">
        <ele>77.6</ele>
        <time>2025-10-26T08:34:22Z</time>
      </trkpt>
      <trkpt lat="43.50212" lon="6.6631">
        <ele>77.7</ele>
        <time>2025-10-26T08:34:23Z</time>
      </trkpt>
      <trkpt lat="43.50212" lon="6.6631">
        <ele>77.8</ele>
        <time>2025-10-26T08:34:24Z</time>
      </trkpt>
      <trkpt lat="43.50212" lon="6.6631">
        <ele>77.8</ele>
        <time>2025-10-26T08:34:25Z</time>
      </trkpt>
      <trkpt lat="43.50212" lon="6.6631">
        <ele>78</ele>
        <time>2025-10-26T08:34:26Z</time>
      </trkpt>
      <trkpt lat="43.50212" lon="6.6631">
        <ele>78.1</ele>
        <time>2025-10-26T08:34:27Z</time>
      </trkpt>
      <trkpt lat="43.50212" lon="6.6631">
        <ele>78.2</ele>
        <time>2025-10-26T08:34:28Z</time>
      </trkpt>
      <trkpt lat="43.50212" lon="6.6631">
        <ele>78.3</ele>
        <time>2025-10-26T08:34:29Z</time>
      </trkpt>
      <trkpt lat="43.50212" lon="6.6631">
        <ele>78.3</ele>
        <time>2025-10-26T08:34:30Z</time>
      </trkpt>
      <trkpt lat="43.50212" lon="6.66311">
        <ele>78.3</ele>
        <time>2025-10-26T08:34:31Z</time>
      </trkpt>
      <trkpt lat="43.50212" lon="6.66311">
        <ele>78.3</ele>
        <time>2025-10-26T08:34:32Z</time>
      </trkpt>
      <trkpt lat="43.50212" lon="6.66311">
        <ele>78.2</ele>
        <time>2025-10-26T08:34:33Z</time>
      </trkpt>
      <trkpt lat="43.50212" lon="6.66311">
        <ele>78.1</ele>
        <time>2025-10-26T08:34:34Z</time>
      </trkpt>
      <trkpt lat="43.50212" lon="6.66311">
        <ele>78.2</ele>
        <time>2025-10-26T08:34:35Z</time>
      </trkpt>
      <trkpt lat="43.50212" lon="6.66311">
        <ele>78.2</ele>
        <time>2025-10-26T08:34:36Z</time>
      </trkpt>
      <trkpt lat="43.50212" lon="6.6631">
        <ele>78.2</ele>
        <time>2025-10-26T08:34:37Z</time>
      </trkpt>
      <trkpt lat="43.50212" lon="6.6631">
        <ele>78.1</ele>
        <time>2025-10-26T08:34:38Z</time>
      </trkpt>
      <trkpt lat="43.50212" lon="6.6631">
        <ele>78.1</ele>
        <time>2025-10-26T08:34:39Z</time>
      </trkpt>
      <trkpt lat="43.50212" lon="6.66311">
        <ele>78.1</ele>
        <time>2025-10-26T08:34:40Z</time>
      </trkpt>
      <trkpt lat="43.50213" lon="6.66311">
        <ele>78.2</ele>
        <time>2025-10-26T08:34:41Z</time>
      </trkpt>
      <trkpt lat="43.50214" lon="6.66311">
        <ele>78.2</ele>
        <time>2025-10-26T08:34:42Z</time>
      </trkpt>
      <trkpt lat="43.50215" lon="6.66311">
        <ele>78.3</ele>
        <time>2025-10-26T08:34:43Z</time>
      </trkpt>
      <trkpt lat="43.50215" lon="6.66311">
        <ele>78.4</ele>
        <time>2025-10-26T08:34:44Z</time>
      </trkpt>
      <trkpt lat="43.50216" lon="6.66311">
        <ele>78.5</ele>
        <time>2025-10-26T08:34:45Z</time>
      </trkpt>
      <trkpt lat="43.50217" lon="6.66312">
        <ele>78.5</ele>
        <time>2025-10-26T08:34:46Z</time>
      </trkpt>
      <trkpt lat="43.50218" lon="6.66312">
        <ele>78.5</ele>
        <time>2025-10-26T08:34:47Z</time>
      </trkpt>
      <trkpt lat="43.50218" lon="6.66313">
        <ele>78.5</ele>
        <time>2025-10-26T08:34:48Z</time>
      </trkpt>
      <trkpt lat="43.50219" lon="6.66314">
        <ele>78.5</ele>
        <time>2025-10-26T08:34:49Z</time>
      </trkpt>
      <trkpt lat="43.5022" lon="6.66314">
        <ele>78.5</ele>
        <time>2025-10-26T08:34:50Z</time>
      </trkpt>
      <trkpt lat="43.50221" lon="6.66315">
        <ele>78.7</ele>
        <time>2025-10-26T08:34:51Z</time>
      </trkpt>
      <trkpt lat="43.50221" lon="6.66315">
        <ele>78.8</ele>
        <time>2025-10-26T08:34:52Z</time>
      </trkpt>
      <trkpt lat="43.50222" lon="6.66316">
        <ele>79</ele>
        <time>2025-10-26T08:34:53Z</time>
      </trkpt>
      <trkpt lat="43.50223" lon="6.66316">
        <ele>79.3</ele>
        <time>2025-10-26T08:34:54Z</time>
      </trkpt>
      <trkpt lat="43.50224" lon="6.66317">
        <ele>79.5</ele>
        <time>2025-10-26T08:34:55Z</time>
      </trkpt>
      <trkpt lat="43.50225" lon="6.66318">
        <ele>79.6</ele>
        <time>2025-10-26T08:34:56Z</time>
      </trkpt>
      <trkpt lat="43.50226" lon="6.66318">
        <ele>79.7</ele>
        <time>2025-10-26T08:34:57Z</time>
      </trkpt>
      <trkpt lat="43.50227" lon="6.66319">
        <ele>79.8</ele>
        <time>2025-10-26T08:34:58Z</time>
      </trkpt>
      <trkpt lat="43.50228" lon="6.66319">
        <ele>79.9</ele>
        <time>2025-10-26T08:34:59Z</time>
      </trkpt>
      <trkpt lat="43.50228" lon="6.6632">
        <ele>79.9</ele>
        <time>2025-10-26T08:35:00Z</time>
      </trkpt>
      <trkpt lat="43.50229" lon="6.66321">
        <ele>80</ele>
        <time>2025-10-26T08:35:01Z</time>
      </trkpt>
      <trkpt lat="43.5023" lon="6.66322">
        <ele>80</ele>
        <time>2025-10-26T08:35:02Z</time>
      </trkpt>
      <trkpt lat="43.50231" lon="6.66323">
        <ele>80</ele>
        <time>2025-10-26T08:35:03Z</time>
      </trkpt>
      <trkpt lat="43.50232" lon="6.66324">
        <ele>80.1</ele>
        <time>2025-10-26T08:35:04Z</time>
      </trkpt>
      <trkpt lat="43.50233" lon="6.66325">
        <ele>79.9</ele>
        <time>2025-10-26T08:35:05Z</time>
      </trkpt>
      <trkpt lat="43.50234" lon="6.66326">
        <ele>79.8</ele>
        <time>2025-10-26T08:35:06Z</time>
      </trkpt>
      <trkpt lat="43.50235" lon="6.66326">
        <ele>79.7</ele>
        <time>2025-10-26T08:35:07Z</time>
      </trkpt>
      <trkpt lat="43.50236" lon="6.66327">
        <ele>79.6</ele>
        <time>2025-10-26T08:35:08Z</time>
      </trkpt>
      <trkpt lat="43.50237" lon="6.66328">
        <ele>79.4</ele>
        <time>2025-10-26T08:35:09Z</time>
      </trkpt>
      <trkpt lat="43.50238" lon="6.66328">
        <ele>79.3</ele>
        <time>2025-10-26T08:35:10Z</time>
      </trkpt>
      <trkpt lat="43.50239" lon="6.6633">
        <ele>79.5</ele>
        <time>2025-10-26T08:35:11Z</time>
      </trkpt>
      <trkpt lat="43.5024" lon="6.6633">
        <ele>79.5</ele>
        <time>2025-10-26T08:35:12Z</time>
      </trkpt>
      <trkpt lat="43.50241" lon="6.66331">
        <ele>79.6</ele>
        <time>2025-10-26T08:35:13Z</time>
      </trkpt>
      <trkpt lat="43.50241" lon="6.66332">
        <ele>79.6</ele>
        <time>2025-10-26T08:35:14Z</time>
      </trkpt>
      <trkpt lat="43.50242" lon="6.66333">
        <ele>79.7</ele>
        <time>2025-10-26T08:35:15Z</time>
      </trkpt>
      <trkpt lat="43.50243" lon="6.66334">
        <ele>79.8</ele>
        <time>2025-10-26T08:35:16Z</time>
      </trkpt>
      <trkpt lat="43.50244" lon="6.66335">
        <ele>79.9</ele>
        <time>2025-10-26T08:35:17Z</time>
      </trkpt>
      <trkpt lat="43.50244" lon="6.66336">
        <ele>80.1</ele>
        <time>2025-10-26T08:35:18Z</time>
      </trkpt>
      <trkpt lat="43.50245" lon="6.66337">
        <ele>80.3</ele>
        <time>2025-10-26T08:35:19Z</time>
      </trkpt>
      <trkpt lat="43.50246" lon="6.66338">
        <ele>80.4</ele>
        <time>2025-10-26T08:35:20Z</time>
      </trkpt>
      <trkpt lat="43.50246" lon="6.66339">
        <ele>80.4</ele>
        <time>2025-10-26T08:35:21Z</time>
      </trkpt>
      <trkpt lat="43.50247" lon="6.66341">
        <ele>80.4</ele>
        <time>2025-10-26T08:35:22Z</time>
      </trkpt>
      <trkpt lat="43.50248" lon="6.66342">
        <ele>80.4</ele>
        <time>2025-10-26T08:35:23Z</time>
      </trkpt>
      <trkpt lat="43.50248" lon="6.66342">
        <ele>80.3</ele>
        <time>2025-10-26T08:35:24Z</time>
      </trkpt>
      <trkpt lat="43.50249" lon="6.66344">
        <ele>80.3</ele>
        <time>2025-10-26T08:35:25Z</time>
      </trkpt>
      <trkpt lat="43.5025" lon="6.66345">
        <ele>80.3</ele>
        <time>2025-10-26T08:35:26Z</time>
      </trkpt>
      <trkpt lat="43.50251" lon="6.66346">
        <ele>80.2</ele>
        <time>2025-10-26T08:35:27Z</time>
      </trkpt>
      <trkpt lat="43.50252" lon="6.66347">
        <ele>80.2</ele>
        <time>2025-10-26T08:35:28Z</time>
      </trkpt>
      <trkpt lat="43.50253" lon="6.66348">
        <ele>80.2</ele>
        <time>2025-10-26T08:35:29Z</time>
      </trkpt>
      <trkpt lat="43.50254" lon="6.66349">
        <ele>80.3</ele>
        <time>2025-10-26T08:35:30Z</time>
      </trkpt>
      <trkpt lat="43.50255" lon="6.6635">
        <ele>80.4</ele>
        <time>2025-10-26T08:35:31Z</time>
      </trkpt>
      <trkpt lat="43.50256" lon="6.66351">
        <ele>80.5</ele>
        <time>2025-10-26T08:35:32Z</time>
      </trkpt>
      <trkpt lat="43.50257" lon="6.66352">
        <ele>80.7</ele>
        <time>2025-10-26T08:35:33Z</time>
      </trkpt>
      <trkpt lat="43.50257" lon="6.66353">
        <ele>80.8</ele>
        <time>2025-10-26T08:35:34Z</time>
      </trkpt>
      <trkpt lat="43.50258" lon="6.66354">
        <ele>80.9</ele>
        <time>2025-10-26T08:35:35Z</time>
      </trkpt>
      <trkpt lat="43.50258" lon="6.66355">
        <ele>81</ele>
        <time>2025-10-26T08:35:36Z</time>
      </trkpt>
      <trkpt lat="43.50259" lon="6.66356">
        <ele>81.3</ele>
        <time>2025-10-26T08:35:37Z</time>
      </trkpt>
      <trkpt lat="43.5026" lon="6.66357">
        <ele>81.6</ele>
        <time>2025-10-26T08:35:38Z</time>
      </trkpt>
      <trkpt lat="43.50261" lon="6.66358">
        <ele>81.8</ele>
        <time>2025-10-26T08:35:39Z</time>
      </trkpt>
      <trkpt lat="43.50261" lon="6.66359">
        <ele>81.9</ele>
        <time>2025-10-26T08:35:40Z</time>
      </trkpt>
      <trkpt lat="43.50262" lon="6.66361">
        <ele>82</ele>
        <time>2025-10-26T08:35:41Z</time>
      </trkpt>
      <trkpt lat="43.50263" lon="6.66362">
        <ele>82.2</ele>
        <time>2025-10-26T08:35:42Z</time>
      </trkpt>
      <trkpt lat="43.50263" lon="6.66363">
        <ele>82.3</ele>
        <time>2025-10-26T08:35:43Z</time>
      </trkpt>
      <trkpt lat="43.50265" lon="6.66363">
        <ele>82.4</ele>
        <time>2025-10-26T08:35:44Z</time>
      </trkpt>
      <trkpt lat="43.50265" lon="6.66364">
        <ele>82.5</ele>
        <time>2025-10-26T08:35:45Z</time>
      </trkpt>
      <trkpt lat="43.50266" lon="6.66365">
        <ele>82.6</ele>
        <time>2025-10-26T08:35:46Z</time>
      </trkpt>
      <trkpt lat="43.50267" lon="6.66366">
        <ele>82.7</ele>
        <time>2025-10-26T08:35:47Z</time>
      </trkpt>
      <trkpt lat="43.50268" lon="6.66366">
        <ele>82.7</ele>
        <time>2025-10-26T08:35:48Z</time>
      </trkpt>
      <trkpt lat="43.50269" lon="6.66367">
        <ele>82.8</ele>
        <time>2025-10-26T08:35:49Z</time>
      </trkpt>
      <trkpt lat="43.5027" lon="6.66368">
        <ele>82.8</ele>
        <time>2025-10-26T08:35:50Z</time>
      </trkpt>
      <trkpt lat="43.50271" lon="6.66369">
        <ele>82.8</ele>
        <time>2025-10-26T08:35:51Z</time>
      </trkpt>
      <trkpt lat="43.50272" lon="6.66369">
        <ele>82.6</ele>
        <time>2025-10-26T08:35:52Z</time>
      </trkpt>
      <trkpt lat="43.50273" lon="6.66369">
        <ele>82.5</ele>
        <time>2025-10-26T08:35:53Z</time>
      </trkpt>
      <trkpt lat="43.50274" lon="6.66369">
        <ele>82.3</ele>
        <time>2025-10-26T08:35:54Z</time>
      </trkpt>
      <trkpt lat="43.50275" lon="6.6637">
        <ele>82</ele>
        <time>2025-10-26T08:35:55Z</time>
      </trkpt>
      <trkpt lat="43.50277" lon="6.66371">
        <ele>81.8</ele>
        <time>2025-10-26T08:35:56Z</time>
      </trkpt>
      <trkpt lat="43.50278" lon="6.66371">
        <ele>81.7</ele>
        <time>2025-10-26T08:35:57Z</time>
      </trkpt>
      <trkpt lat="43.50279" lon="6.66372">
        <ele>81.5</ele>
        <time>2025-10-26T08:35:58Z</time>
      </trkpt>
      <trkpt lat="43.5028" lon="6.66372">
        <ele>81.3</ele>
        <time>2025-10-26T08:35:59Z</time>
      </trkpt>
      <trkpt lat="43.50281" lon="6.66372">
        <ele>81.1</ele>
        <time>2025-10-26T08:36:00Z</time>
      </trkpt>
      <trkpt lat="43.50283" lon="6.66372">
        <ele>81.1</ele>
        <time>2025-10-26T08:36:01Z</time>
      </trkpt>
      <trkpt lat="43.50284" lon="6.66373">
        <ele>81.1</ele>
        <time>2025-10-26T08:36:02Z</time>
      </trkpt>
      <trkpt lat="43.50285" lon="6.66373">
        <ele>80.9</ele>
        <time>2025-10-26T08:36:03Z</time>
      </trkpt>
      <trkpt lat="43.50286" lon="6.66374">
        <ele>80.9</ele>
        <time>2025-10-26T08:36:04Z</time>
      </trkpt>
      <trkpt lat="43.50286" lon="6.66375">
        <ele>80.8</ele>
        <time>2025-10-26T08:36:05Z</time>
      </trkpt>
      <trkpt lat="43.50288" lon="6.66376">
        <ele>80.7</ele>
        <time>2025-10-26T08:36:06Z</time>
      </trkpt>
      <trkpt lat="43.50289" lon="6.66376">
        <ele>80.6</ele>
        <time>2025-10-26T08:36:07Z</time>
      </trkpt>
      <trkpt lat="43.5029" lon="6.66377">
        <ele>80.6</ele>
        <time>2025-10-26T08:36:08Z</time>
      </trkpt>
      <trkpt lat="43.50291" lon="6.66378">
        <ele>80.6</ele>
        <time>2025-10-26T08:36:09Z</time>
      </trkpt>
      <trkpt lat="43.50293" lon="6.66378">
        <ele>80.5</ele>
        <time>2025-10-26T08:36:10Z</time>
      </trkpt>
      <trkpt lat="43.50294" lon="6.66379">
        <ele>80.6</ele>
        <time>2025-10-26T08:36:11Z</time>
      </trkpt>
      <trkpt lat="43.50295" lon="6.6638">
        <ele>80.6</ele>
        <time>2025-10-26T08:36:12Z</time>
      </trkpt>
      <trkpt lat="43.50295" lon="6.66381">
        <ele>80.6</ele>
        <time>2025-10-26T08:36:13Z</time>
      </trkpt>
      <trkpt lat="43.50296" lon="6.66382">
        <ele>80.6</ele>
        <time>2025-10-26T08:36:14Z</time>
      </trkpt>
      <trkpt lat="43.50297" lon="6.66383">
        <ele>80.5</ele>
        <time>2025-10-26T08:36:15Z</time>
      </trkpt>
      <trkpt lat="43.50298" lon="6.66384">
        <ele>80.5</ele>
        <time>2025-10-26T08:36:16Z</time>
      </trkpt>
      <trkpt lat="43.50299" lon="6.66385">
        <ele>80.5</ele>
        <time>2025-10-26T08:36:17Z</time>
      </trkpt>
      <trkpt lat="43.503" lon="6.66385">
        <ele>80.5</ele>
        <time>2025-10-26T08:36:18Z</time>
      </trkpt>
      <trkpt lat="43.50301" lon="6.66386">
        <ele>80.4</ele>
        <time>2025-10-26T08:36:19Z</time>
      </trkpt>
      <trkpt lat="43.50302" lon="6.66386">
        <ele>80.3</ele>
        <time>2025-10-26T08:36:20Z</time>
      </trkpt>
      <trkpt lat="43.50303" lon="6.66387">
        <ele>80.3</ele>
        <time>2025-10-26T08:36:21Z</time>
      </trkpt>
      <trkpt lat="43.50304" lon="6.66387">
        <ele>80.3</ele>
        <time>2025-10-26T08:36:22Z</time>
      </trkpt>
      <trkpt lat="43.50305" lon="6.66387">
        <ele>80.4</ele>
        <time>2025-10-26T08:36:23Z</time>
      </trkpt>
      <trkpt lat="43.50306" lon="6.66388">
        <ele>80.3</ele>
        <time>2025-10-26T08:36:24Z</time>
      </trkpt>
      <trkpt lat="43.50308" lon="6.66388">
        <ele>80.3</ele>
        <time>2025-10-26T08:36:25Z</time>
      </trkpt>
      <trkpt lat="43.50309" lon="6.66388">
        <ele>80.4</ele>
        <time>2025-10-26T08:36:26Z</time>
      </trkpt>
      <trkpt lat="43.5031" lon="6.66388">
        <ele>80.3</ele>
        <time>2025-10-26T08:36:27Z</time>
      </trkpt>
      <trkpt lat="43.50311" lon="6.66388">
        <ele>80.2</ele>
        <time>2025-10-26T08:36:28Z</time>
      </trkpt>
      <trkpt lat="43.50312" lon="6.66388">
        <ele>80.4</ele>
        <time>2025-10-26T08:36:29Z</time>
      </trkpt>
      <trkpt lat="43.50313" lon="6.66388">
        <ele>80.5</ele>
        <time>2025-10-26T08:36:30Z</time>
      </trkpt>
      <trkpt lat="43.50314" lon="6.66387">
        <ele>80.5</ele>
        <time>2025-10-26T08:36:31Z</time>
      </trkpt>
      <trkpt lat="43.50315" lon="6.66387">
        <ele>80.5</ele>
        <time>2025-10-26T08:36:32Z</time>
      </trkpt>
      <trkpt lat="43.50316" lon="6.66386">
        <ele>80.5</ele>
        <time>2025-10-26T08:36:33Z</time>
      </trkpt>
      <trkpt lat="43.50317" lon="6.66385">
        <ele>80.5</ele>
        <time>2025-10-26T08:36:34Z</time>
      </trkpt>
      <trkpt lat="43.50318" lon="6.66384">
        <ele>80.5</ele>
        <time>2025-10-26T08:36:35Z</time>
      </trkpt>
      <trkpt lat="43.5032" lon="6.66383">
        <ele>80.3</ele>
        <time>2025-10-26T08:36:36Z</time>
      </trkpt>
      <trkpt lat="43.50321" lon="6.66382">
        <ele>80.2</ele>
        <time>2025-10-26T08:36:37Z</time>
      </trkpt>
      <trkpt lat="43.50322" lon="6.66381">
        <ele>80.2</ele>
        <time>2025-10-26T08:36:38Z</time>
      </trkpt>
      <trkpt lat="43.50323" lon="6.6638">
        <ele>80.2</ele>
        <time>2025-10-26T08:36:39Z</time>
      </trkpt>
      <trkpt lat="43.50324" lon="6.6638">
        <ele>80.2</ele>
        <time>2025-10-26T08:36:40Z</time>
      </trkpt>
      <trkpt lat="43.50326" lon="6.66379">
        <ele>80.2</ele>
        <time>2025-10-26T08:36:41Z</time>
      </trkpt>
      <trkpt lat="43.50327" lon="6.66378">
        <ele>80.2</ele>
        <time>2025-10-26T08:36:42Z</time>
      </trkpt>
      <trkpt lat="43.50328" lon="6.66378">
        <ele>80.2</ele>
        <time>2025-10-26T08:36:43Z</time>
      </trkpt>
      <trkpt lat="43.50329" lon="6.66377">
        <ele>80.1</ele>
        <time>2025-10-26T08:36:44Z</time>
      </trkpt>
      <trkpt lat="43.5033" lon="6.66376">
        <ele>80.1</ele>
        <time>2025-10-26T08:36:45Z</time>
      </trkpt>
      <trkpt lat="43.50331" lon="6.66376">
        <ele>80</ele>
        <time>2025-10-26T08:36:46Z</time>
      </trkpt>
      <trkpt lat="43.50332" lon="6.66375">
        <ele>80.1</ele>
        <time>2025-10-26T08:36:47Z</time>
      </trkpt>
      <trkpt lat="43.50334" lon="6.66375">
        <ele>80</ele>
        <time>2025-10-26T08:36:48Z</time>
      </trkpt>
      <trkpt lat="43.50335" lon="6.66374">
        <ele>80</ele>
        <time>2025-10-26T08:36:49Z</time>
      </trkpt>
      <trkpt lat="43.50336" lon="6.66374">
        <ele>80</ele>
        <time>2025-10-26T08:36:50Z</time>
      </trkpt>
      <trkpt lat="43.50337" lon="6.66373">
        <ele>80</ele>
        <time>2025-10-26T08:36:51Z</time>
      </trkpt>
      <trkpt lat="43.50338" lon="6.66373">
        <ele>79.9</ele>
        <time>2025-10-26T08:36:52Z</time>
      </trkpt>
      <trkpt lat="43.50339" lon="6.66373">
        <ele>79.9</ele>
        <time>2025-10-26T08:36:53Z</time>
      </trkpt>
      <trkpt lat="43.50339" lon="6.66373">
        <ele>79.8</ele>
        <time>2025-10-26T08:36:54Z</time>
      </trkpt>
      <trkpt lat="43.5034" lon="6.66373">
        <ele>79.8</ele>
        <time>2025-10-26T08:36:55Z</time>
      </trkpt>
      <trkpt lat="43.50341" lon="6.66374">
        <ele>79.7</ele>
        <time>2025-10-26T08:36:56Z</time>
      </trkpt>
      <trkpt lat="43.50343" lon="6.66374">
        <ele>79.7</ele>
        <time>2025-10-26T08:36:57Z</time>
      </trkpt>
      <trkpt lat="43.50344" lon="6.66374">
        <ele>79.7</ele>
        <time>2025-10-26T08:36:58Z</time>
      </trkpt>
      <trkpt lat="43.50345" lon="6.66374">
        <ele>79.7</ele>
        <time>2025-10-26T08:36:59Z</time>
      </trkpt>
      <trkpt lat="43.50347" lon="6.66375">
        <ele>79.7</ele>
        <time>2025-10-26T08:37:00Z</time>
      </trkpt>
      <trkpt lat="43.50348" lon="6.66376">
        <ele>79.7</ele>
        <time>2025-10-26T08:37:01Z</time>
      </trkpt>
      <trkpt lat="43.50348" lon="6.66377">
        <ele>79.8</ele>
        <time>2025-10-26T08:37:02Z</time>
      </trkpt>
      <trkpt lat="43.50349" lon="6.66377">
        <ele>79.8</ele>
        <time>2025-10-26T08:37:03Z</time>
      </trkpt>
      <trkpt lat="43.50349" lon="6.66379">
        <ele>79.8</ele>
        <time>2025-10-26T08:37:04Z</time>
      </trkpt>
      <trkpt lat="43.50351" lon="6.6638">
        <ele>79.7</ele>
        <time>2025-10-26T08:37:05Z</time>
      </trkpt>
      <trkpt lat="43.50352" lon="6.66381">
        <ele>79.7</ele>
        <time>2025-10-26T08:37:06Z</time>
      </trkpt>
      <trkpt lat="43.50352" lon="6.66382">
        <ele>79.6</ele>
        <time>2025-10-26T08:37:07Z</time>
      </trkpt>
      <trkpt lat="43.50353" lon="6.66383">
        <ele>79.5</ele>
        <time>2025-10-26T08:37:08Z</time>
      </trkpt>
      <trkpt lat="43.50354" lon="6.66384">
        <ele>79.5</ele>
        <time>2025-10-26T08:37:09Z</time>
      </trkpt>
      <trkpt lat="43.50355" lon="6.66385">
        <ele>79.4</ele>
        <time>2025-10-26T08:37:10Z</time>
      </trkpt>
      <trkpt lat="43.50356" lon="6.66387">
        <ele>79.4</ele>
        <time>2025-10-26T08:37:11Z</time>
      </trkpt>
      <trkpt lat="43.50357" lon="6.66388">
        <ele>79.4</ele>
        <time>2025-10-26T08:37:12Z</time>
      </trkpt>
      <trkpt lat="43.50358" lon="6.66389">
        <ele>79.3</ele>
        <time>2025-10-26T08:37:13Z</time>
      </trkpt>
      <trkpt lat="43.50359" lon="6.6639">
        <ele>79.4</ele>
        <time>2025-10-26T08:37:14Z</time>
      </trkpt>
      <trkpt lat="43.5036" lon="6.66391">
        <ele>79.4</ele>
        <time>2025-10-26T08:37:15Z</time>
      </trkpt>
      <trkpt lat="43.5036" lon="6.66392">
        <ele>79.2</ele>
        <time>2025-10-26T08:37:16Z</time>
      </trkpt>
      <trkpt lat="43.50361" lon="6.66393">
        <ele>79.2</ele>
        <time>2025-10-26T08:37:17Z</time>
      </trkpt>
      <trkpt lat="43.50361" lon="6.66395">
        <ele>79.1</ele>
        <time>2025-10-26T08:37:18Z</time>
      </trkpt>
      <trkpt lat="43.50362" lon="6.66396">
        <ele>79.1</ele>
        <time>2025-10-26T08:37:19Z</time>
      </trkpt>
      <trkpt lat="43.50363" lon="6.66397">
        <ele>79</ele>
        <time>2025-10-26T08:37:20Z</time>
      </trkpt>
      <trkpt lat="43.50364" lon="6.66398">
        <ele>79</ele>
        <time>2025-10-26T08:37:21Z</time>
      </trkpt>
      <trkpt lat="43.50365" lon="6.66399">
        <ele>78.9</ele>
        <time>2025-10-26T08:37:22Z</time>
      </trkpt>
      <trkpt lat="43.50365" lon="6.66401">
        <ele>78.9</ele>
        <time>2025-10-26T08:37:23Z</time>
      </trkpt>
      <trkpt lat="43.50366" lon="6.66402">
        <ele>79</ele>
        <time>2025-10-26T08:37:24Z</time>
      </trkpt>
      <trkpt lat="43.50367" lon="6.66403">
        <ele>79.1</ele>
        <time>2025-10-26T08:37:25Z</time>
      </trkpt>
      <trkpt lat="43.50367" lon="6.66404">
        <ele>79.2</ele>
        <time>2025-10-26T08:37:26Z</time>
      </trkpt>
      <trkpt lat="43.50368" lon="6.66406">
        <ele>79.3</ele>
        <time>2025-10-26T08:37:27Z</time>
      </trkpt>
      <trkpt lat="43.50368" lon="6.66407">
        <ele>79.3</ele>
        <time>2025-10-26T08:37:28Z</time>
      </trkpt>
      <trkpt lat="43.50368" lon="6.66409">
        <ele>79.3</ele>
        <time>2025-10-26T08:37:29Z</time>
      </trkpt>
      <trkpt lat="43.50369" lon="6.6641">
        <ele>79.3</ele>
        <time>2025-10-26T08:37:30Z</time>
      </trkpt>
      <trkpt lat="43.50369" lon="6.66412">
        <ele>79.3</ele>
        <time>2025-10-26T08:37:31Z</time>
      </trkpt>
      <trkpt lat="43.50369" lon="6.66413">
        <ele>79.2</ele>
        <time>2025-10-26T08:37:32Z</time>
      </trkpt>
      <trkpt lat="43.5037" lon="6.66414">
        <ele>79.2</ele>
        <time>2025-10-26T08:37:33Z</time>
      </trkpt>
      <trkpt lat="43.5037" lon="6.66416">
        <ele>79.1</ele>
        <time>2025-10-26T08:37:34Z</time>
      </trkpt>
      <trkpt lat="43.5037" lon="6.66418">
        <ele>78.9</ele>
        <time>2025-10-26T08:37:35Z</time>
      </trkpt>
      <trkpt lat="43.50371" lon="6.66419">
        <ele>79</ele>
        <time>2025-10-26T08:37:36Z</time>
      </trkpt>
      <trkpt lat="43.50371" lon="6.66421">
        <ele>78.9</ele>
        <time>2025-10-26T08:37:37Z</time>
      </trkpt>
      <trkpt lat="43.50371" lon="6.66422">
        <ele>78.8</ele>
        <time>2025-10-26T08:37:38Z</time>
      </trkpt>
      <trkpt lat="43.50372" lon="6.66424">
        <ele>78.7</ele>
        <time>2025-10-26T08:37:39Z</time>
      </trkpt>
      <trkpt lat="43.50372" lon="6.66426">
        <ele>78.7</ele>
        <time>2025-10-26T08:37:40Z</time>
      </trkpt>
      <trkpt lat="43.50372" lon="6.66428">
        <ele>78.5</ele>
        <time>2025-10-26T08:37:41Z</time>
      </trkpt>
      <trkpt lat="43.50372" lon="6.66429">
        <ele>78.2</ele>
        <time>2025-10-26T08:37:42Z</time>
      </trkpt>
      <trkpt lat="43.50373" lon="6.66431">
        <ele>77.9</ele>
        <time>2025-10-26T08:37:43Z</time>
      </trkpt>
      <trkpt lat="43.50373" lon="6.66432">
        <ele>77.6</ele>
        <time>2025-10-26T08:37:44Z</time>
      </trkpt>
      <trkpt lat="43.50374" lon="6.66434">
        <ele>77.4</ele>
        <time>2025-10-26T08:37:45Z</time>
      </trkpt>
      <trkpt lat="43.50375" lon="6.66435">
        <ele>77.6</ele>
        <time>2025-10-26T08:37:46Z</time>
      </trkpt>
      <trkpt lat="43.50376" lon="6.66436">
        <ele>77.5</ele>
        <time>2025-10-26T08:37:47Z</time>
      </trkpt>
      <trkpt lat="43.50376" lon="6.66437">
        <ele>77.6</ele>
        <time>2025-10-26T08:37:48Z</time>
      </trkpt>
      <trkpt lat="43.50377" lon="6.66439">
        <ele>77.6</ele>
        <time>2025-10-26T08:37:49Z</time>
      </trkpt>
      <trkpt lat="43.50377" lon="6.6644">
        <ele>77.6</ele>
        <time>2025-10-26T08:37:50Z</time>
      </trkpt>
      <trkpt lat="43.50378" lon="6.66441">
        <ele>77.7</ele>
        <time>2025-10-26T08:37:51Z</time>
      </trkpt>
      <trkpt lat="43.50378" lon="6.66443">
        <ele>77.8</ele>
        <time>2025-10-26T08:37:52Z</time>
      </trkpt>
      <trkpt lat="43.50378" lon="6.66445">
        <ele>77.8</ele>
        <time>2025-10-26T08:37:53Z</time>
      </trkpt>
      <trkpt lat="43.50379" lon="6.66446">
        <ele>78</ele>
        <time>2025-10-26T08:37:54Z</time>
      </trkpt>
      <trkpt lat="43.50379" lon="6.66448">
        <ele>78.1</ele>
        <time>2025-10-26T08:37:55Z</time>
      </trkpt>
      <trkpt lat="43.50379" lon="6.6645">
        <ele>78</ele>
        <time>2025-10-26T08:37:56Z</time>
      </trkpt>
      <trkpt lat="43.50379" lon="6.66452">
        <ele>78</ele>
        <time>2025-10-26T08:37:57Z</time>
      </trkpt>
      <trkpt lat="43.50379" lon="6.66453">
        <ele>77.9</ele>
        <time>2025-10-26T08:37:58Z</time>
      </trkpt>
      <trkpt lat="43.50379" lon="6.66455">
        <ele>78</ele>
        <time>2025-10-26T08:37:59Z</time>
      </trkpt>
      <trkpt lat="43.50379" lon="6.66457">
        <ele>77.9</ele>
        <time>2025-10-26T08:38:00Z</time>
      </trkpt>
      <trkpt lat="43.50379" lon="6.66458">
        <ele>78</ele>
        <time>2025-10-26T08:38:01Z</time>
      </trkpt>
      <trkpt lat="43.50379" lon="6.66459">
        <ele>77.8</ele>
        <time>2025-10-26T08:38:02Z</time>
      </trkpt>
      <trkpt lat="43.50378" lon="6.66461">
        <ele>77.7</ele>
        <time>2025-10-26T08:38:03Z</time>
      </trkpt>
      <trkpt lat="43.50378" lon="6.66462">
        <ele>77.6</ele>
        <time>2025-10-26T08:38:04Z</time>
      </trkpt>
      <trkpt lat="43.50378" lon="6.66464">
        <ele>77.5</ele>
        <time>2025-10-26T08:38:05Z</time>
      </trkpt>
      <trkpt lat="43.50377" lon="6.66465">
        <ele>77.4</ele>
        <time>2025-10-26T08:38:06Z</time>
      </trkpt>
      <trkpt lat="43.50377" lon="6.66466">
        <ele>77.3</ele>
        <time>2025-10-26T08:38:07Z</time>
      </trkpt>
      <trkpt lat="43.50376" lon="6.66468">
        <ele>77.2</ele>
        <time>2025-10-26T08:38:08Z</time>
      </trkpt>
      <trkpt lat="43.50376" lon="6.66469">
        <ele>77.1</ele>
        <time>2025-10-26T08:38:09Z</time>
      </trkpt>
      <trkpt lat="43.50376" lon="6.66471">
        <ele>77.1</ele>
        <time>2025-10-26T08:38:10Z</time>
      </trkpt>
      <trkpt lat="43.50376" lon="6.66473">
        <ele>76.9</ele>
        <time>2025-10-26T08:38:11Z</time>
      </trkpt>
      <trkpt lat="43.50376" lon="6.66474">
        <ele>76.8</ele>
        <time>2025-10-26T08:38:12Z</time>
      </trkpt>
      <trkpt lat="43.50376" lon="6.66476">
        <ele>76.7</ele>
        <time>2025-10-26T08:38:13Z</time>
      </trkpt>
      <trkpt lat="43.50376" lon="6.66477">
        <ele>76.8</ele>
        <time>2025-10-26T08:38:14Z</time>
      </trkpt>
      <trkpt lat="43.50375" lon="6.66478">
        <ele>76.8</ele>
        <time>2025-10-26T08:38:15Z</time>
      </trkpt>
      <trkpt lat="43.50375" lon="6.6648">
        <ele>76.8</ele>
        <time>2025-10-26T08:38:16Z</time>
      </trkpt>
      <trkpt lat="43.50375" lon="6.66482">
        <ele>76.8</ele>
        <time>2025-10-26T08:38:17Z</time>
      </trkpt>
      <trkpt lat="43.50374" lon="6.66483">
        <ele>76.6</ele>
        <time>2025-10-26T08:38:18Z</time>
      </trkpt>
      <trkpt lat="43.50374" lon="6.66485">
        <ele>76.4</ele>
        <time>2025-10-26T08:38:19Z</time>
      </trkpt>
      <trkpt lat="43.50373" lon="6.66486">
        <ele>76.2</ele>
        <time>2025-10-26T08:38:20Z</time>
      </trkpt>
      <trkpt lat="43.50373" lon="6.66488">
        <ele>76.1</ele>
        <time>2025-10-26T08:38:21Z</time>
      </trkpt>
      <trkpt lat="43.50372" lon="6.66489">
        <ele>75.9</ele>
        <time>2025-10-26T08:38:22Z</time>
      </trkpt>
      <trkpt lat="43.50372" lon="6.66491">
        <ele>75.8</ele>
        <time>2025-10-26T08:38:23Z</time>
      </trkpt>
      <trkpt lat="43.50372" lon="6.66493">
        <ele>75.8</ele>
        <time>2025-10-26T08:38:24Z</time>
      </trkpt>
      <trkpt lat="43.50371" lon="6.66495">
        <ele>75.8</ele>
        <time>2025-10-26T08:38:25Z</time>
      </trkpt>
      <trkpt lat="43.50371" lon="6.66496">
        <ele>75.7</ele>
        <time>2025-10-26T08:38:26Z</time>
      </trkpt>
      <trkpt lat="43.5037" lon="6.66498">
        <ele>75.6</ele>
        <time>2025-10-26T08:38:27Z</time>
      </trkpt>
      <trkpt lat="43.5037" lon="6.665">
        <ele>75.6</ele>
        <time>2025-10-26T08:38:28Z</time>
      </trkpt>
      <trkpt lat="43.5037" lon="6.66501">
        <ele>75.5</ele>
        <time>2025-10-26T08:38:29Z</time>
      </trkpt>
      <trkpt lat="43.5037" lon="6.66503">
        <ele>75.5</ele>
        <time>2025-10-26T08:38:30Z</time>
      </trkpt>
      <trkpt lat="43.50369" lon="6.66505">
        <ele>75.5</ele>
        <time>2025-10-26T08:38:31Z</time>
      </trkpt>
      <trkpt lat="43.50369" lon="6.66506">
        <ele>75.4</ele>
        <time>2025-10-26T08:38:32Z</time>
      </trkpt>
      <trkpt lat="43.50369" lon="6.66508">
        <ele>75.3</ele>
        <time>2025-10-26T08:38:33Z</time>
      </trkpt>
      <trkpt lat="43.50369" lon="6.66509">
        <ele>75</ele>
        <time>2025-10-26T08:38:34Z</time>
      </trkpt>
      <trkpt lat="43.50369" lon="6.66511">
        <ele>74.7</ele>
        <time>2025-10-26T08:38:35Z</time>
      </trkpt>
      <trkpt lat="43.50368" lon="6.66513">
        <ele>74.7</ele>
        <time>2025-10-26T08:38:36Z</time>
      </trkpt>
      <trkpt lat="43.50368" lon="6.66514">
        <ele>74.5</ele>
        <time>2025-10-26T08:38:37Z</time>
      </trkpt>
      <trkpt lat="43.50368" lon="6.66516">
        <ele>74.4</ele>
        <time>2025-10-26T08:38:38Z</time>
      </trkpt>
      <trkpt lat="43.50368" lon="6.66517">
        <ele>74.4</ele>
        <time>2025-10-26T08:38:39Z</time>
      </trkpt>
      <trkpt lat="43.50367" lon="6.66519">
        <ele>74.2</ele>
        <time>2025-10-26T08:38:40Z</time>
      </trkpt>
      <trkpt lat="43.50367" lon="6.6652">
        <ele>74.1</ele>
        <time>2025-10-26T08:38:41Z</time>
      </trkpt>
      <trkpt lat="43.50367" lon="6.66522">
        <ele>73.9</ele>
        <time>2025-10-26T08:38:42Z</time>
      </trkpt>
      <trkpt lat="43.50367" lon="6.66524">
        <ele>74</ele>
        <time>2025-10-26T08:38:43Z</time>
      </trkpt>
      <trkpt lat="43.50367" lon="6.66525">
        <ele>74</ele>
        <time>2025-10-26T08:38:44Z</time>
      </trkpt>
      <trkpt lat="43.50368" lon="6.66527">
        <ele>74</ele>
        <time>2025-10-26T08:38:45Z</time>
      </trkpt>
      <trkpt lat="43.50368" lon="6.66528">
        <ele>74.1</ele>
        <time>2025-10-26T08:38:46Z</time>
      </trkpt>
      <trkpt lat="43.50369" lon="6.6653">
        <ele>74.1</ele>
        <time>2025-10-26T08:38:47Z</time>
      </trkpt>
      <trkpt lat="43.50369" lon="6.66532">
        <ele>74.1</ele>
        <time>2025-10-26T08:38:48Z</time>
      </trkpt>
      <trkpt lat="43.5037" lon="6.66534">
        <ele>74.2</ele>
        <time>2025-10-26T08:38:49Z</time>
      </trkpt>
      <trkpt lat="43.5037" lon="6.66535">
        <ele>74.3</ele>
        <time>2025-10-26T08:38:50Z</time>
      </trkpt>
      <trkpt lat="43.50371" lon="6.66536">
        <ele>74.3</ele>
        <time>2025-10-26T08:38:51Z</time>
      </trkpt>
      <trkpt lat="43.50371" lon="6.66538">
        <ele>74.3</ele>
        <time>2025-10-26T08:38:52Z</time>
      </trkpt>
      <trkpt lat="43.50371" lon="6.66539">
        <ele>74.3</ele>
        <time>2025-10-26T08:38:53Z</time>
      </trkpt>
      <trkpt lat="43.50372" lon="6.66541">
        <ele>74.4</ele>
        <time>2025-10-26T08:38:54Z</time>
      </trkpt>
      <trkpt lat="43.50373" lon="6.66543">
        <ele>74.3</ele>
        <time>2025-10-26T08:38:55Z</time>
      </trkpt>
      <trkpt lat="43.50374" lon="6.66544">
        <ele>74.2</ele>
        <time>2025-10-26T08:38:56Z</time>
      </trkpt>
      <trkpt lat="43.50374" lon="6.66545">
        <ele>74.2</ele>
        <time>2025-10-26T08:38:57Z</time>
      </trkpt>
      <trkpt lat="43.50374" lon="6.66548">
        <ele>74.2</ele>
        <time>2025-10-26T08:38:58Z</time>
      </trkpt>
      <trkpt lat="43.50375" lon="6.6655">
        <ele>74.2</ele>
        <time>2025-10-26T08:38:59Z</time>
      </trkpt>
      <trkpt lat="43.50375" lon="6.66551">
        <ele>74.2</ele>
        <time>2025-10-26T08:39:00Z</time>
      </trkpt>
      <trkpt lat="43.50376" lon="6.66553">
        <ele>74.3</ele>
        <time>2025-10-26T08:39:01Z</time>
      </trkpt>
      <trkpt lat="43.50376" lon="6.66554">
        <ele>74.4</ele>
        <time>2025-10-26T08:39:02Z</time>
      </trkpt>
      <trkpt lat="43.50376" lon="6.66555">
        <ele>74.5</ele>
        <time>2025-10-26T08:39:03Z</time>
      </trkpt>
      <trkpt lat="43.50377" lon="6.66557">
        <ele>74.6</ele>
        <time>2025-10-26T08:39:04Z</time>
      </trkpt>
      <trkpt lat="43.50377" lon="6.66558">
        <ele>74.7</ele>
        <time>2025-10-26T08:39:05Z</time>
      </trkpt>
      <trkpt lat="43.50378" lon="6.6656">
        <ele>74.8</ele>
        <time>2025-10-26T08:39:06Z</time>
      </trkpt>
      <trkpt lat="43.50378" lon="6.66561">
        <ele>74.9</ele>
        <time>2025-10-26T08:39:07Z</time>
      </trkpt>
      <trkpt lat="43.50378" lon="6.66563">
        <ele>75</ele>
        <time>2025-10-26T08:39:08Z</time>
      </trkpt>
      <trkpt lat="43.50379" lon="6.66565">
        <ele>75.1</ele>
        <time>2025-10-26T08:39:09Z</time>
      </trkpt>
      <trkpt lat="43.50379" lon="6.66566">
        <ele>75.2</ele>
        <time>2025-10-26T08:39:10Z</time>
      </trkpt>
      <trkpt lat="43.5038" lon="6.66568">
        <ele>75.3</ele>
        <time>2025-10-26T08:39:11Z</time>
      </trkpt>
      <trkpt lat="43.5038" lon="6.66569">
        <ele>75.4</ele>
        <time>2025-10-26T08:39:12Z</time>
      </trkpt>
      <trkpt lat="43.5038" lon="6.66571">
        <ele>75.4</ele>
        <time>2025-10-26T08:39:13Z</time>
      </trkpt>
      <trkpt lat="43.5038" lon="6.66573">
        <ele>75.4</ele>
        <time>2025-10-26T08:39:14Z</time>
      </trkpt>
      <trkpt lat="43.5038" lon="6.66575">
        <ele>75.3</ele>
        <time>2025-10-26T08:39:15Z</time>
      </trkpt>
      <trkpt lat="43.5038" lon="6.66577">
        <ele>75.3</ele>
        <time>2025-10-26T08:39:16Z</time>
      </trkpt>
      <trkpt lat="43.50381" lon="6.66578">
        <ele>75.5</ele>
        <time>2025-10-26T08:39:17Z</time>
      </trkpt>
      <trkpt lat="43.50381" lon="6.6658">
        <ele>75.6</ele>
        <time>2025-10-26T08:39:18Z</time>
      </trkpt>
      <trkpt lat="43.50381" lon="6.66581">
        <ele>75.8</ele>
        <time>2025-10-26T08:39:19Z</time>
      </trkpt>
      <trkpt lat="43.50381" lon="6.66583">
        <ele>75.9</ele>
        <time>2025-10-26T08:39:20Z</time>
      </trkpt>
      <trkpt lat="43.50381" lon="6.66585">
        <ele>75.9</ele>
        <time>2025-10-26T08:39:21Z</time>
      </trkpt>
      <trkpt lat="43.50381" lon="6.66586">
        <ele>75.8</ele>
        <time>2025-10-26T08:39:22Z</time>
      </trkpt>
      <trkpt lat="43.50381" lon="6.66587">
        <ele>75.8</ele>
        <time>2025-10-26T08:39:23Z</time>
      </trkpt>
      <trkpt lat="43.50381" lon="6.66589">
        <ele>75.7</ele>
        <time>2025-10-26T08:39:24Z</time>
      </trkpt>
      <trkpt lat="43.50381" lon="6.66591">
        <ele>75.7</ele>
        <time>2025-10-26T08:39:25Z</time>
      </trkpt>
      <trkpt lat="43.50382" lon="6.66593">
        <ele>75.6</ele>
        <time>2025-10-26T08:39:26Z</time>
      </trkpt>
      <trkpt lat="43.50382" lon="6.66595">
        <ele>75.5</ele>
        <time>2025-10-26T08:39:27Z</time>
      </trkpt>
      <trkpt lat="43.50382" lon="6.66597">
        <ele>75.4</ele>
        <time>2025-10-26T08:39:28Z</time>
      </trkpt>
      <trkpt lat="43.50383" lon="6.66598">
        <ele>75.3</ele>
        <time>2025-10-26T08:39:29Z</time>
      </trkpt>
      <trkpt lat="43.50383" lon="6.66599">
        <ele>75.2</ele>
        <time>2025-10-26T08:39:30Z</time>
      </trkpt>
      <trkpt lat="43.50383" lon="6.66601">
        <ele>75.1</ele>
        <time>2025-10-26T08:39:31Z</time>
      </trkpt>
      <trkpt lat="43.50383" lon="6.66603">
        <ele>75</ele>
        <time>2025-10-26T08:39:32Z</time>
      </trkpt>
      <trkpt lat="43.50384" lon="6.66604">
        <ele>74.9</ele>
        <time>2025-10-26T08:39:33Z</time>
      </trkpt>
      <trkpt lat="43.50384" lon="6.66605">
        <ele>74.9</ele>
        <time>2025-10-26T08:39:34Z</time>
      </trkpt>
      <trkpt lat="43.50383" lon="6.66607">
        <ele>74.8</ele>
        <time>2025-10-26T08:39:35Z</time>
      </trkpt>
      <trkpt lat="43.50383" lon="6.66608">
        <ele>74.6</ele>
        <time>2025-10-26T08:39:36Z</time>
      </trkpt>
      <trkpt lat="43.50383" lon="6.6661">
        <ele>74.6</ele>
        <time>2025-10-26T08:39:37Z</time>
      </trkpt>
      <trkpt lat="43.50383" lon="6.66612">
        <ele>74.5</ele>
        <time>2025-10-26T08:39:38Z</time>
      </trkpt>
      <trkpt lat="43.50382" lon="6.66613">
        <ele>74.7</ele>
        <time>2025-10-26T08:39:39Z</time>
      </trkpt>
      <trkpt lat="43.50382" lon="6.66615">
        <ele>74.8</ele>
        <time>2025-10-26T08:39:40Z</time>
      </trkpt>
      <trkpt lat="43.50382" lon="6.66617">
        <ele>74.9</ele>
        <time>2025-10-26T08:39:41Z</time>
      </trkpt>
      <trkpt lat="43.50381" lon="6.66618">
        <ele>75</ele>
        <time>2025-10-26T08:39:42Z</time>
      </trkpt>
      <trkpt lat="43.50381" lon="6.6662">
        <ele>75</ele>
        <time>2025-10-26T08:39:43Z</time>
      </trkpt>
      <trkpt lat="43.5038" lon="6.66622">
        <ele>75.1</ele>
        <time>2025-10-26T08:39:44Z</time>
      </trkpt>
      <trkpt lat="43.5038" lon="6.66623">
        <ele>75.1</ele>
        <time>2025-10-26T08:39:45Z</time>
      </trkpt>
      <trkpt lat="43.5038" lon="6.66625">
        <ele>75.1</ele>
        <time>2025-10-26T08:39:46Z</time>
      </trkpt>
      <trkpt lat="43.50379" lon="6.66626">
        <ele>75.1</ele>
        <time>2025-10-26T08:39:47Z</time>
      </trkpt>
      <trkpt lat="43.50378" lon="6.66627">
        <ele>75.3</ele>
        <time>2025-10-26T08:39:48Z</time>
      </trkpt>
      <trkpt lat="43.50378" lon="6.66629">
        <ele>75.1</ele>
        <time>2025-10-26T08:39:49Z</time>
      </trkpt>
      <trkpt lat="43.50377" lon="6.66631">
        <ele>74.9</ele>
        <time>2025-10-26T08:39:50Z</time>
      </trkpt>
      <trkpt lat="43.50377" lon="6.66632">
        <ele>74.8</ele>
        <time>2025-10-26T08:39:51Z</time>
      </trkpt>
      <trkpt lat="43.50377" lon="6.66634">
        <ele>74.7</ele>
        <time>2025-10-26T08:39:52Z</time>
      </trkpt>
      <trkpt lat="43.50377" lon="6.66636">
        <ele>74.5</ele>
        <time>2025-10-26T08:39:53Z</time>
      </trkpt>
      <trkpt lat="43.50377" lon="6.66637">
        <ele>74.6</ele>
        <time>2025-10-26T08:39:54Z</time>
      </trkpt>
      <trkpt lat="43.50378" lon="6.66639">
        <ele>74.6</ele>
        <time>2025-10-26T08:39:55Z</time>
      </trkpt>
      <trkpt lat="43.50378" lon="6.6664">
        <ele>74.6</ele>
        <time>2025-10-26T08:39:56Z</time>
      </trkpt>
      <trkpt lat="43.50378" lon="6.66641">
        <ele>74.7</ele>
        <time>2025-10-26T08:39:57Z</time>
      </trkpt>
      <trkpt lat="43.50379" lon="6.66642">
        <ele>74.9</ele>
        <time>2025-10-26T08:39:58Z</time>
      </trkpt>
      <trkpt lat="43.50379" lon="6.66644">
        <ele>75.1</ele>
        <time>2025-10-26T08:39:59Z</time>
      </trkpt>
      <trkpt lat="43.50379" lon="6.66645">
        <ele>75.3</ele>
        <time>2025-10-26T08:40:00Z</time>
      </trkpt>
      <trkpt lat="43.5038" lon="6.66646">
        <ele>75.6</ele>
        <time>2025-10-26T08:40:01Z</time>
      </trkpt>
      <trkpt lat="43.5038" lon="6.66648">
        <ele>75.7</ele>
        <time>2025-10-26T08:40:02Z</time>
      </trkpt>
      <trkpt lat="43.50381" lon="6.66649">
        <ele>75.8</ele>
        <time>2025-10-26T08:40:03Z</time>
      </trkpt>
      <trkpt lat="43.50381" lon="6.6665">
        <ele>76.1</ele>
        <time>2025-10-26T08:40:04Z</time>
      </trkpt>
      <trkpt lat="43.50382" lon="6.6665">
        <ele>76.3</ele>
        <time>2025-10-26T08:40:05Z</time>
      </trkpt>
      <trkpt lat="43.50383" lon="6.66651">
        <ele>76.5</ele>
        <time>2025-10-26T08:40:06Z</time>
      </trkpt>
      <trkpt lat="43.50383" lon="6.66652">
        <ele>76.6</ele>
        <time>2025-10-26T08:40:07Z</time>
      </trkpt>
      <trkpt lat="43.50384" lon="6.66653">
        <ele>76.8</ele>
        <time>2025-10-26T08:40:08Z</time>
      </trkpt>
      <trkpt lat="43.50384" lon="6.66654">
        <ele>76.9</ele>
        <time>2025-10-26T08:40:09Z</time>
      </trkpt>
      <trkpt lat="43.50385" lon="6.66655">
        <ele>77</ele>
        <time>2025-10-26T08:40:10Z</time>
      </trkpt>
      <trkpt lat="43.50386" lon="6.66656">
        <ele>77</ele>
        <time>2025-10-26T08:40:11Z</time>
      </trkpt>
      <trkpt lat="43.50386" lon="6.66658">
        <ele>77.1</ele>
        <time>2025-10-26T08:40:12Z</time>
      </trkpt>
      <trkpt lat="43.50387" lon="6.66659">
        <ele>77.1</ele>
        <time>2025-10-26T08:40:13Z</time>
      </trkpt>
      <trkpt lat="43.50388" lon="6.6666">
        <ele>77.1</ele>
        <time>2025-10-26T08:40:14Z</time>
      </trkpt>
      <trkpt lat="43.50389" lon="6.66661">
        <ele>77.2</ele>
        <time>2025-10-26T08:40:15Z</time>
      </trkpt>
      <trkpt lat="43.50389" lon="6.66663">
        <ele>77.2</ele>
        <time>2025-10-26T08:40:16Z</time>
      </trkpt>
      <trkpt lat="43.5039" lon="6.66664">
        <ele>77.3</ele>
        <time>2025-10-26T08:40:17Z</time>
      </trkpt>
      <trkpt lat="43.50391" lon="6.66666">
        <ele>77.4</ele>
        <time>2025-10-26T08:40:18Z</time>
      </trkpt>
      <trkpt lat="43.50392" lon="6.66667">
        <ele>77.5</ele>
        <time>2025-10-26T08:40:19Z</time>
      </trkpt>
      <trkpt lat="43.50392" lon="6.66668">
        <ele>77.5</ele>
        <time>2025-10-26T08:40:20Z</time>
      </trkpt>
      <trkpt lat="43.50393" lon="6.66669">
        <ele>77.6</ele>
        <time>2025-10-26T08:40:21Z</time>
      </trkpt>
      <trkpt lat="43.50393" lon="6.6667">
        <ele>77.7</ele>
        <time>2025-10-26T08:40:22Z</time>
      </trkpt>
      <trkpt lat="43.50394" lon="6.66671">
        <ele>77.8</ele>
        <time>2025-10-26T08:40:23Z</time>
      </trkpt>
      <trkpt lat="43.50395" lon="6.66672">
        <ele>77.9</ele>
        <time>2025-10-26T08:40:24Z</time>
      </trkpt>
      <trkpt lat="43.50395" lon="6.66673">
        <ele>77.9</ele>
        <time>2025-10-26T08:40:25Z</time>
      </trkpt>
      <trkpt lat="43.50396" lon="6.66675">
        <ele>77.9</ele>
        <time>2025-10-26T08:40:26Z</time>
      </trkpt>
      <trkpt lat="43.50397" lon="6.66677">
        <ele>77.9</ele>
        <time>2025-10-26T08:40:27Z</time>
      </trkpt>
      <trkpt lat="43.50397" lon="6.66678">
        <ele>77.9</ele>
        <time>2025-10-26T08:40:28Z</time>
      </trkpt>
      <trkpt lat="43.50397" lon="6.6668">
        <ele>78</ele>
        <time>2025-10-26T08:40:29Z</time>
      </trkpt>
      <trkpt lat="43.50398" lon="6.66681">
        <ele>78</ele>
        <time>2025-10-26T08:40:30Z</time>
      </trkpt>
      <trkpt lat="43.50398" lon="6.66683">
        <ele>77.9</ele>
        <time>2025-10-26T08:40:31Z</time>
      </trkpt>
      <trkpt lat="43.50399" lon="6.66685">
        <ele>77.9</ele>
        <time>2025-10-26T08:40:32Z</time>
      </trkpt>
      <trkpt lat="43.504" lon="6.66686">
        <ele>77.9</ele>
        <time>2025-10-26T08:40:33Z</time>
      </trkpt>
      <trkpt lat="43.50401" lon="6.66686">
        <ele>78.2</ele>
        <time>2025-10-26T08:40:34Z</time>
      </trkpt>
      <trkpt lat="43.50403" lon="6.66687">
        <ele>78.4</ele>
        <time>2025-10-26T08:40:35Z</time>
      </trkpt>
      <trkpt lat="43.50404" lon="6.66687">
        <ele>78.5</ele>
        <time>2025-10-26T08:40:36Z</time>
      </trkpt>
      <trkpt lat="43.50405" lon="6.66688">
        <ele>78.5</ele>
        <time>2025-10-26T08:40:37Z</time>
      </trkpt>
      <trkpt lat="43.50406" lon="6.66688">
        <ele>78.7</ele>
        <time>2025-10-26T08:40:38Z</time>
      </trkpt>
      <trkpt lat="43.50407" lon="6.66688">
        <ele>78.7</ele>
        <time>2025-10-26T08:40:39Z</time>
      </trkpt>
      <trkpt lat="43.50408" lon="6.66688">
        <ele>78.7</ele>
        <time>2025-10-26T08:40:40Z</time>
      </trkpt>
      <trkpt lat="43.50409" lon="6.66688">
        <ele>78.6</ele>
        <time>2025-10-26T08:40:41Z</time>
      </trkpt>
      <trkpt lat="43.5041" lon="6.66687">
        <ele>78.6</ele>
        <time>2025-10-26T08:40:42Z</time>
      </trkpt>
      <trkpt lat="43.50411" lon="6.66687">
        <ele>78.5</ele>
        <time>2025-10-26T08:40:43Z</time>
      </trkpt>
      <trkpt lat="43.50412" lon="6.66686">
        <ele>78.4</ele>
        <time>2025-10-26T08:40:44Z</time>
      </trkpt>
      <trkpt lat="43.50413" lon="6.66686">
        <ele>78.4</ele>
        <time>2025-10-26T08:40:45Z</time>
      </trkpt>
      <trkpt lat="43.50415" lon="6.66685">
        <ele>78.3</ele>
        <time>2025-10-26T08:40:46Z</time>
      </trkpt>
      <trkpt lat="43.50416" lon="6.66685">
        <ele>78.3</ele>
        <time>2025-10-26T08:40:47Z</time>
      </trkpt>
      <trkpt lat="43.50417" lon="6.66685">
        <ele>78.2</ele>
        <time>2025-10-26T08:40:48Z</time>
      </trkpt>
      <trkpt lat="43.50418" lon="6.66685">
        <ele>78.2</ele>
        <time>2025-10-26T08:40:49Z</time>
      </trkpt>
      <trkpt lat="43.50419" lon="6.66684">
        <ele>78.3</ele>
        <time>2025-10-26T08:40:50Z</time>
      </trkpt>
      <trkpt lat="43.5042" lon="6.66684">
        <ele>78.6</ele>
        <time>2025-10-26T08:40:51Z</time>
      </trkpt>
      <trkpt lat="43.50422" lon="6.66685">
        <ele>78.8</ele>
        <time>2025-10-26T08:40:52Z</time>
      </trkpt>
      <trkpt lat="43.50423" lon="6.66686">
        <ele>78.6</ele>
        <time>2025-10-26T08:40:53Z</time>
      </trkpt>
      <trkpt lat="43.50425" lon="6.66685">
        <ele>78.6</ele>
        <time>2025-10-26T08:40:54Z</time>
      </trkpt>
      <trkpt lat="43.50425" lon="6.66686">
        <ele>78.6</ele>
        <time>2025-10-26T08:40:55Z</time>
      </trkpt>
      <trkpt lat="43.50426" lon="6.66686">
        <ele>78.6</ele>
        <time>2025-10-26T08:40:56Z</time>
      </trkpt>
      <trkpt lat="43.50427" lon="6.66687">
        <ele>78.6</ele>
        <time>2025-10-26T08:40:57Z</time>
      </trkpt>
      <trkpt lat="43.50429" lon="6.66688">
        <ele>78.6</ele>
        <time>2025-10-26T08:40:58Z</time>
      </trkpt>
      <trkpt lat="43.5043" lon="6.66689">
        <ele>78.5</ele>
        <time>2025-10-26T08:40:59Z</time>
      </trkpt>
      <trkpt lat="43.50431" lon="6.6669">
        <ele>78.5</ele>
        <time>2025-10-26T08:41:00Z</time>
      </trkpt>
      <trkpt lat="43.50432" lon="6.66691">
        <ele>78.4</ele>
        <time>2025-10-26T08:41:01Z</time>
      </trkpt>
      <trkpt lat="43.50433" lon="6.66691">
        <ele>78.4</ele>
        <time>2025-10-26T08:41:02Z</time>
      </trkpt>
      <trkpt lat="43.50435" lon="6.66692">
        <ele>78.4</ele>
        <time>2025-10-26T08:41:03Z</time>
      </trkpt>
      <trkpt lat="43.50436" lon="6.66692">
        <ele>78.4</ele>
        <time>2025-10-26T08:41:04Z</time>
      </trkpt>
      <trkpt lat="43.50437" lon="6.66693">
        <ele>78.4</ele>
        <time>2025-10-26T08:41:05Z</time>
      </trkpt>
      <trkpt lat="43.50439" lon="6.66694">
        <ele>78.5</ele>
        <time>2025-10-26T08:41:06Z</time>
      </trkpt>
      <trkpt lat="43.50439" lon="6.66695">
        <ele>78.7</ele>
        <time>2025-10-26T08:41:07Z</time>
      </trkpt>
      <trkpt lat="43.50441" lon="6.66696">
        <ele>78.8</ele>
        <time>2025-10-26T08:41:08Z</time>
      </trkpt>
      <trkpt lat="43.50441" lon="6.66697">
        <ele>78.8</ele>
        <time>2025-10-26T08:41:09Z</time>
      </trkpt>
      <trkpt lat="43.50442" lon="6.66698">
        <ele>78.9</ele>
        <time>2025-10-26T08:41:10Z</time>
      </trkpt>
      <trkpt lat="43.50443" lon="6.66698">
        <ele>78.9</ele>
        <time>2025-10-26T08:41:11Z</time>
      </trkpt>
      <trkpt lat="43.50444" lon="6.66699">
        <ele>78.9</ele>
        <time>2025-10-26T08:41:12Z</time>
      </trkpt>
      <trkpt lat="43.50445" lon="6.667">
        <ele>78.9</ele>
        <time>2025-10-26T08:41:13Z</time>
      </trkpt>
      <trkpt lat="43.50446" lon="6.667">
        <ele>78.9</ele>
        <time>2025-10-26T08:41:14Z</time>
      </trkpt>
      <trkpt lat="43.50447" lon="6.66701">
        <ele>78.9</ele>
        <time>2025-10-26T08:41:15Z</time>
      </trkpt>
      <trkpt lat="43.50448" lon="6.66702">
        <ele>78.9</ele>
        <time>2025-10-26T08:41:16Z</time>
      </trkpt>
      <trkpt lat="43.50449" lon="6.66702">
        <ele>79</ele>
        <time>2025-10-26T08:41:17Z</time>
      </trkpt>
      <trkpt lat="43.50451" lon="6.66703">
        <ele>79.1</ele>
        <time>2025-10-26T08:41:18Z</time>
      </trkpt>
      <trkpt lat="43.50451" lon="6.66704">
        <ele>79.1</ele>
        <time>2025-10-26T08:41:19Z</time>
      </trkpt>
      <trkpt lat="43.50452" lon="6.66705">
        <ele>79.2</ele>
        <time>2025-10-26T08:41:20Z</time>
      </trkpt>
      <trkpt lat="43.50454" lon="6.66706">
        <ele>79.1</ele>
        <time>2025-10-26T08:41:21Z</time>
      </trkpt>
      <trkpt lat="43.50454" lon="6.66707">
        <ele>79.1</ele>
        <time>2025-10-26T08:41:22Z</time>
      </trkpt>
      <trkpt lat="43.50455" lon="6.66708">
        <ele>79</ele>
        <time>2025-10-26T08:41:23Z</time>
      </trkpt>
      <trkpt lat="43.50456" lon="6.66709">
        <ele>79.1</ele>
        <time>2025-10-26T08:41:24Z</time>
      </trkpt>
      <trkpt lat="43.50457" lon="6.6671">
        <ele>79.3</ele>
        <time>2025-10-26T08:41:25Z</time>
      </trkpt>
      <trkpt lat="43.50458" lon="6.66711">
        <ele>79.4</ele>
        <time>2025-10-26T08:41:26Z</time>
      </trkpt>
      <trkpt lat="43.50459" lon="6.66711">
        <ele>79.4</ele>
        <time>2025-10-26T08:41:27Z</time>
      </trkpt>
      <trkpt lat="43.5046" lon="6.66712">
        <ele>79.5</ele>
        <time>2025-10-26T08:41:28Z</time>
      </trkpt>
      <trkpt lat="43.50461" lon="6.66713">
        <ele>79.6</ele>
        <time>2025-10-26T08:41:29Z</time>
      </trkpt>
      <trkpt lat="43.50462" lon="6.66714">
        <ele>79.7</ele>
        <time>2025-10-26T08:41:30Z</time>
      </trkpt>
      <trkpt lat="43.50463" lon="6.66715">
        <ele>79.9</ele>
        <time>2025-10-26T08:41:31Z</time>
      </trkpt>
      <trkpt lat="43.50463" lon="6.66716">
        <ele>80</ele>
        <time>2025-10-26T08:41:32Z</time>
      </trkpt>
      <trkpt lat="43.50464" lon="6.66717">
        <ele>80</ele>
        <time>2025-10-26T08:41:33Z</time>
      </trkpt>
      <trkpt lat="43.50465" lon="6.66717">
        <ele>80</ele>
        <time>2025-10-26T08:41:34Z</time>
      </trkpt>
      <trkpt lat="43.50466" lon="6.66719">
        <ele>80</ele>
        <time>2025-10-26T08:41:35Z</time>
      </trkpt>
      <trkpt lat="43.50468" lon="6.66719">
        <ele>80.1</ele>
        <time>2025-10-26T08:41:36Z</time>
      </trkpt>
      <trkpt lat="43.50469" lon="6.6672">
        <ele>80.1</ele>
        <time>2025-10-26T08:41:37Z</time>
      </trkpt>
      <trkpt lat="43.5047" lon="6.6672">
        <ele>80.2</ele>
        <time>2025-10-26T08:41:38Z</time>
      </trkpt>
      <trkpt lat="43.50471" lon="6.66721">
        <ele>80.2</ele>
        <time>2025-10-26T08:41:39Z</time>
      </trkpt>
      <trkpt lat="43.50473" lon="6.66722">
        <ele>80.3</ele>
        <time>2025-10-26T08:41:40Z</time>
      </trkpt>
      <trkpt lat="43.50474" lon="6.66724">
        <ele>80.3</ele>
        <time>2025-10-26T08:41:41Z</time>
      </trkpt>
      <trkpt lat="43.50475" lon="6.66724">
        <ele>80.3</ele>
        <time>2025-10-26T08:41:42Z</time>
      </trkpt>
      <trkpt lat="43.50476" lon="6.66725">
        <ele>80.2</ele>
        <time>2025-10-26T08:41:43Z</time>
      </trkpt>
      <trkpt lat="43.50477" lon="6.66725">
        <ele>80.3</ele>
        <time>2025-10-26T08:41:44Z</time>
      </trkpt>
      <trkpt lat="43.50478" lon="6.66725">
        <ele>80.4</ele>
        <time>2025-10-26T08:41:45Z</time>
      </trkpt>
      <trkpt lat="43.50479" lon="6.66726">
        <ele>80.4</ele>
        <time>2025-10-26T08:41:46Z</time>
      </trkpt>
      <trkpt lat="43.50481" lon="6.66727">
        <ele>80.5</ele>
        <time>2025-10-26T08:41:47Z</time>
      </trkpt>
      <trkpt lat="43.50482" lon="6.66728">
        <ele>80.6</ele>
        <time>2025-10-26T08:41:48Z</time>
      </trkpt>
      <trkpt lat="43.50482" lon="6.66729">
        <ele>80.7</ele>
        <time>2025-10-26T08:41:49Z</time>
      </trkpt>
      <trkpt lat="43.50483" lon="6.6673">
        <ele>80.7</ele>
        <time>2025-10-26T08:41:50Z</time>
      </trkpt>
      <trkpt lat="43.50484" lon="6.66731">
        <ele>80.7</ele>
        <time>2025-10-26T08:41:51Z</time>
      </trkpt>
      <trkpt lat="43.50485" lon="6.66731">
        <ele>80.6</ele>
        <time>2025-10-26T08:41:52Z</time>
      </trkpt>
      <trkpt lat="43.50486" lon="6.66732">
        <ele>80.7</ele>
        <time>2025-10-26T08:41:53Z</time>
      </trkpt>
      <trkpt lat="43.50487" lon="6.66733">
        <ele>80.8</ele>
        <time>2025-10-26T08:41:54Z</time>
      </trkpt>
      <trkpt lat="43.50488" lon="6.66734">
        <ele>80.8</ele>
        <time>2025-10-26T08:41:55Z</time>
      </trkpt>
      <trkpt lat="43.50489" lon="6.66734">
        <ele>80.9</ele>
        <time>2025-10-26T08:41:56Z</time>
      </trkpt>
      <trkpt lat="43.5049" lon="6.66735">
        <ele>81</ele>
        <time>2025-10-26T08:41:57Z</time>
      </trkpt>
      <trkpt lat="43.50491" lon="6.66736">
        <ele>81.2</ele>
        <time>2025-10-26T08:41:58Z</time>
      </trkpt>
      <trkpt lat="43.50492" lon="6.66736">
        <ele>81.3</ele>
        <time>2025-10-26T08:41:59Z</time>
      </trkpt>
      <trkpt lat="43.50493" lon="6.66737">
        <ele>81.3</ele>
        <time>2025-10-26T08:42:00Z</time>
      </trkpt>
      <trkpt lat="43.50494" lon="6.66738">
        <ele>81.5</ele>
        <time>2025-10-26T08:42:01Z</time>
      </trkpt>
      <trkpt lat="43.50495" lon="6.66738">
        <ele>81.4</ele>
        <time>2025-10-26T08:42:02Z</time>
      </trkpt>
      <trkpt lat="43.50496" lon="6.6674">
        <ele>81.4</ele>
        <time>2025-10-26T08:42:03Z</time>
      </trkpt>
      <trkpt lat="43.50497" lon="6.66741">
        <ele>81.5</ele>
        <time>2025-10-26T08:42:04Z</time>
      </trkpt>
      <trkpt lat="43.50498" lon="6.66742">
        <ele>81.6</ele>
        <time>2025-10-26T08:42:05Z</time>
      </trkpt>
      <trkpt lat="43.505" lon="6.66742">
        <ele>81.5</ele>
        <time>2025-10-26T08:42:06Z</time>
      </trkpt>
      <trkpt lat="43.50501" lon="6.66743">
        <ele>81.6</ele>
        <time>2025-10-26T08:42:07Z</time>
      </trkpt>
      <trkpt lat="43.50502" lon="6.66743">
        <ele>81.6</ele>
        <time>2025-10-26T08:42:08Z</time>
      </trkpt>
      <trkpt lat="43.50503" lon="6.66744">
        <ele>81.6</ele>
        <time>2025-10-26T08:42:09Z</time>
      </trkpt>
      <trkpt lat="43.50504" lon="6.66746">
        <ele>81.5</ele>
        <time>2025-10-26T08:42:10Z</time>
      </trkpt>
      <trkpt lat="43.50505" lon="6.66747">
        <ele>81.5</ele>
        <time>2025-10-26T08:42:11Z</time>
      </trkpt>
      <trkpt lat="43.50506" lon="6.66748">
        <ele>81.5</ele>
        <time>2025-10-26T08:42:12Z</time>
      </trkpt>
      <trkpt lat="43.50507" lon="6.66748">
        <ele>81.5</ele>
        <time>2025-10-26T08:42:13Z</time>
      </trkpt>
      <trkpt lat="43.50509" lon="6.66749">
        <ele>81.4</ele>
        <time>2025-10-26T08:42:14Z</time>
      </trkpt>
      <trkpt lat="43.50509" lon="6.6675">
        <ele>81.4</ele>
        <time>2025-10-26T08:42:15Z</time>
      </trkpt>
      <trkpt lat="43.5051" lon="6.66751">
        <ele>81.2</ele>
        <time>2025-10-26T08:42:16Z</time>
      </trkpt>
      <trkpt lat="43.50511" lon="6.66751">
        <ele>81.1</ele>
        <time>2025-10-26T08:42:17Z</time>
      </trkpt>
      <trkpt lat="43.50512" lon="6.66752">
        <ele>81.1</ele>
        <time>2025-10-26T08:42:18Z</time>
      </trkpt>
      <trkpt lat="43.50513" lon="6.66753">
        <ele>81.1</ele>
        <time>2025-10-26T08:42:19Z</time>
      </trkpt>
      <trkpt lat="43.50514" lon="6.66754">
        <ele>81.3</ele>
        <time>2025-10-26T08:42:20Z</time>
      </trkpt>
      <trkpt lat="43.50515" lon="6.66755">
        <ele>81.5</ele>
        <time>2025-10-26T08:42:21Z</time>
      </trkpt>
      <trkpt lat="43.50516" lon="6.66756">
        <ele>81.5</ele>
        <time>2025-10-26T08:42:22Z</time>
      </trkpt>
      <trkpt lat="43.50517" lon="6.66757">
        <ele>81.5</ele>
        <time>2025-10-26T08:42:23Z</time>
      </trkpt>
      <trkpt lat="43.50518" lon="6.66758">
        <ele>81.5</ele>
        <time>2025-10-26T08:42:24Z</time>
      </trkpt>
      <trkpt lat="43.50519" lon="6.66759">
        <ele>81.5</ele>
        <time>2025-10-26T08:42:25Z</time>
      </trkpt>
      <trkpt lat="43.5052" lon="6.6676">
        <ele>81.5</ele>
        <time>2025-10-26T08:42:26Z</time>
      </trkpt>
      <trkpt lat="43.50521" lon="6.66761">
        <ele>81.5</ele>
        <time>2025-10-26T08:42:27Z</time>
      </trkpt>
      <trkpt lat="43.50522" lon="6.66763">
        <ele>81.4</ele>
        <time>2025-10-26T08:42:28Z</time>
      </trkpt>
      <trkpt lat="43.50523" lon="6.66764">
        <ele>81.5</ele>
        <time>2025-10-26T08:42:29Z</time>
      </trkpt>
      <trkpt lat="43.50524" lon="6.66765">
        <ele>81.5</ele>
        <time>2025-10-26T08:42:30Z</time>
      </trkpt>
      <trkpt lat="43.50525" lon="6.66765">
        <ele>81.6</ele>
        <time>2025-10-26T08:42:31Z</time>
      </trkpt>
      <trkpt lat="43.50526" lon="6.66766">
        <ele>81.6</ele>
        <time>2025-10-26T08:42:32Z</time>
      </trkpt>
      <trkpt lat="43.50527" lon="6.66767">
        <ele>81.8</ele>
        <time>2025-10-26T08:42:33Z</time>
      </trkpt>
      <trkpt lat="43.50528" lon="6.66768">
        <ele>81.8</ele>
        <time>2025-10-26T08:42:34Z</time>
      </trkpt>
      <trkpt lat="43.50529" lon="6.66769">
        <ele>81.9</ele>
        <time>2025-10-26T08:42:35Z</time>
      </trkpt>
      <trkpt lat="43.5053" lon="6.6677">
        <ele>81.9</ele>
        <time>2025-10-26T08:42:36Z</time>
      </trkpt>
      <trkpt lat="43.5053" lon="6.66771">
        <ele>82</ele>
        <time>2025-10-26T08:42:37Z</time>
      </trkpt>
      <trkpt lat="43.50531" lon="6.66772">
        <ele>82.1</ele>
        <time>2025-10-26T08:42:38Z</time>
      </trkpt>
      <trkpt lat="43.50532" lon="6.66773">
        <ele>82.1</ele>
        <time>2025-10-26T08:42:39Z</time>
      </trkpt>
      <trkpt lat="43.50533" lon="6.66774">
        <ele>82</ele>
        <time>2025-10-26T08:42:40Z</time>
      </trkpt>
      <trkpt lat="43.50534" lon="6.66775">
        <ele>82.1</ele>
        <time>2025-10-26T08:42:41Z</time>
      </trkpt>
      <trkpt lat="43.50535" lon="6.66776">
        <ele>82.1</ele>
        <time>2025-10-26T08:42:42Z</time>
      </trkpt>
      <trkpt lat="43.50536" lon="6.66778">
        <ele>82.1</ele>
        <time>2025-10-26T08:42:43Z</time>
      </trkpt>
      <trkpt lat="43.50537" lon="6.66779">
        <ele>82</ele>
        <time>2025-10-26T08:42:44Z</time>
      </trkpt>
      <trkpt lat="43.50538" lon="6.6678">
        <ele>82</ele>
        <time>2025-10-26T08:42:45Z</time>
      </trkpt>
      <trkpt lat="43.50538" lon="6.66781">
        <ele>82.1</ele>
        <time>2025-10-26T08:42:46Z</time>
      </trkpt>
      <trkpt lat="43.50539" lon="6.66782">
        <ele>82.2</ele>
        <time>2025-10-26T08:42:47Z</time>
      </trkpt>
      <trkpt lat="43.5054" lon="6.66783">
        <ele>82.2</ele>
        <time>2025-10-26T08:42:48Z</time>
      </trkpt>
      <trkpt lat="43.50542" lon="6.66784">
        <ele>82.4</ele>
        <time>2025-10-26T08:42:49Z</time>
      </trkpt>
      <trkpt lat="43.50542" lon="6.66785">
        <ele>82.5</ele>
        <time>2025-10-26T08:42:50Z</time>
      </trkpt>
      <trkpt lat="43.50543" lon="6.66786">
        <ele>82.5</ele>
        <time>2025-10-26T08:42:51Z</time>
      </trkpt>
      <trkpt lat="43.50544" lon="6.66787">
        <ele>82.5</ele>
        <time>2025-10-26T08:42:52Z</time>
      </trkpt>
      <trkpt lat="43.50545" lon="6.66788">
        <ele>82.5</ele>
        <time>2025-10-26T08:42:53Z</time>
      </trkpt>
      <trkpt lat="43.50548" lon="6.66787">
        <ele>82.7</ele>
        <time>2025-10-26T08:42:54Z</time>
      </trkpt>
      <trkpt lat="43.50549" lon="6.66788">
        <ele>82.8</ele>
        <time>2025-10-26T08:42:55Z</time>
      </trkpt>
      <trkpt lat="43.5055" lon="6.66788">
        <ele>82.9</ele>
        <time>2025-10-26T08:42:56Z</time>
      </trkpt>
      <trkpt lat="43.50551" lon="6.66787">
        <ele>82.9</ele>
        <time>2025-10-26T08:42:57Z</time>
      </trkpt>
      <trkpt lat="43.50552" lon="6.66788">
        <ele>82.8</ele>
        <time>2025-10-26T08:42:58Z</time>
      </trkpt>
      <trkpt lat="43.50553" lon="6.66787">
        <ele>82.9</ele>
        <time>2025-10-26T08:42:59Z</time>
      </trkpt>
      <trkpt lat="43.50555" lon="6.66787">
        <ele>82.8</ele>
        <time>2025-10-26T08:43:00Z</time>
      </trkpt>
      <trkpt lat="43.50556" lon="6.66786">
        <ele>82.9</ele>
        <time>2025-10-26T08:43:01Z</time>
      </trkpt>
      <trkpt lat="43.50556" lon="6.66785">
        <ele>82.8</ele>
        <time>2025-10-26T08:43:02Z</time>
      </trkpt>
      <trkpt lat="43.50557" lon="6.66785">
        <ele>82.7</ele>
        <time>2025-10-26T08:43:03Z</time>
      </trkpt>
      <trkpt lat="43.50559" lon="6.66784">
        <ele>82.8</ele>
        <time>2025-10-26T08:43:04Z</time>
      </trkpt>
      <trkpt lat="43.50559" lon="6.66783">
        <ele>82.8</ele>
        <time>2025-10-26T08:43:05Z</time>
      </trkpt>
      <trkpt lat="43.5056" lon="6.66782">
        <ele>82.8</ele>
        <time>2025-10-26T08:43:06Z</time>
      </trkpt>
      <trkpt lat="43.50561" lon="6.66781">
        <ele>82.8</ele>
        <time>2025-10-26T08:43:07Z</time>
      </trkpt>
      <trkpt lat="43.50562" lon="6.66781">
        <ele>82.6</ele>
        <time>2025-10-26T08:43:08Z</time>
      </trkpt>
      <trkpt lat="43.50563" lon="6.6678">
        <ele>82.6</ele>
        <time>2025-10-26T08:43:09Z</time>
      </trkpt>
      <trkpt lat="43.50564" lon="6.66779">
        <ele>82.6</ele>
        <time>2025-10-26T08:43:10Z</time>
      </trkpt>
      <trkpt lat="43.50565" lon="6.66777">
        <ele>82.7</ele>
        <time>2025-10-26T08:43:11Z</time>
      </trkpt>
      <trkpt lat="43.50566" lon="6.66776">
        <ele>82.7</ele>
        <time>2025-10-26T08:43:12Z</time>
      </trkpt>
      <trkpt lat="43.50567" lon="6.66775">
        <ele>82.6</ele>
        <time>2025-10-26T08:43:13Z</time>
      </trkpt>
      <trkpt lat="43.50568" lon="6.66775">
        <ele>82.5</ele>
        <time>2025-10-26T08:43:14Z</time>
      </trkpt>
      <trkpt lat="43.50569" lon="6.66774">
        <ele>82.5</ele>
        <time>2025-10-26T08:43:15Z</time>
      </trkpt>
      <trkpt lat="43.5057" lon="6.66774">
        <ele>82.5</ele>
        <time>2025-10-26T08:43:16Z</time>
      </trkpt>
      <trkpt lat="43.50571" lon="6.66773">
        <ele>82.4</ele>
        <time>2025-10-26T08:43:17Z</time>
      </trkpt>
      <trkpt lat="43.50572" lon="6.66772">
        <ele>82.7</ele>
        <time>2025-10-26T08:43:18Z</time>
      </trkpt>
      <trkpt lat="43.50573" lon="6.66771">
        <ele>82.7</ele>
        <time>2025-10-26T08:43:19Z</time>
      </trkpt>
      <trkpt lat="43.50574" lon="6.66771">
        <ele>82.8</ele>
        <time>2025-10-26T08:43:20Z</time>
      </trkpt>
      <trkpt lat="43.50574" lon="6.6677">
        <ele>82.8</ele>
        <time>2025-10-26T08:43:21Z</time>
      </trkpt>
      <trkpt lat="43.50575" lon="6.66768">
        <ele>82.9</ele>
        <time>2025-10-26T08:43:22Z</time>
      </trkpt>
      <trkpt lat="43.50575" lon="6.66767">
        <ele>82.9</ele>
        <time>2025-10-26T08:43:23Z</time>
      </trkpt>
      <trkpt lat="43.50575" lon="6.66767">
        <ele>82.9</ele>
        <time>2025-10-26T08:43:24Z</time>
      </trkpt>
      <trkpt lat="43.50575" lon="6.66767">
        <ele>83</ele>
        <time>2025-10-26T08:43:25Z</time>
      </trkpt>
      <trkpt lat="43.50575" lon="6.66767">
        <ele>82.9</ele>
        <time>2025-10-26T08:43:26Z</time>
      </trkpt>
      <trkpt lat="43.50575" lon="6.66767">
        <ele>82.9</ele>
        <time>2025-10-26T08:43:27Z</time>
      </trkpt>
      <trkpt lat="43.50575" lon="6.66767">
        <ele>82.9</ele>
        <time>2025-10-26T08:43:28Z</time>
      </trkpt>
      <trkpt lat="43.50575" lon="6.66767">
        <ele>82.9</ele>
        <time>2025-10-26T08:43:29Z</time>
      </trkpt>
      <trkpt lat="43.50575" lon="6.66766">
        <ele>82.9</ele>
        <time>2025-10-26T08:43:30Z</time>
      </trkpt>
      <trkpt lat="43.50575" lon="6.66766">
        <ele>82.8</ele>
        <time>2025-10-26T08:43:31Z</time>
      </trkpt>
      <trkpt lat="43.50576" lon="6.66765">
        <ele>82.8</ele>
        <time>2025-10-26T08:43:32Z</time>
      </trkpt>
      <trkpt lat="43.50576" lon="6.66765">
        <ele>82.6</ele>
        <time>2025-10-26T08:43:33Z</time>
      </trkpt>
      <trkpt lat="43.50577" lon="6.66764">
        <ele>82.5</ele>
        <time>2025-10-26T08:43:34Z</time>
      </trkpt>
      <trkpt lat="43.50577" lon="6.66764">
        <ele>82.4</ele>
        <time>2025-10-26T08:43:35Z</time>
      </trkpt>
      <trkpt lat="43.50577" lon="6.66763">
        <ele>82.5</ele>
        <time>2025-10-26T08:43:36Z</time>
      </trkpt>
      <trkpt lat="43.50577" lon="6.66764">
        <ele>82.5</ele>
        <time>2025-10-26T08:43:37Z</time>
      </trkpt>
      <trkpt lat="43.50577" lon="6.66764">
        <ele>82.5</ele>
        <time>2025-10-26T08:43:38Z</time>
      </trkpt>
      <trkpt lat="43.50577" lon="6.66763">
        <ele>82.4</ele>
        <time>2025-10-26T08:43:39Z</time>
      </trkpt>
      <trkpt lat="43.50577" lon="6.66763">
        <ele>82.3</ele>
        <time>2025-10-26T08:43:40Z</time>
      </trkpt>
      <trkpt lat="43.50577" lon="6.66763">
        <ele>82.3</ele>
        <time>2025-10-26T08:43:41Z</time>
      </trkpt>
      <trkpt lat="43.50578" lon="6.66762">
        <ele>82.3</ele>
        <time>2025-10-26T08:43:42Z</time>
      </trkpt>
      <trkpt lat="43.50578" lon="6.66762">
        <ele>82.3</ele>
        <time>2025-10-26T08:43:43Z</time>
      </trkpt>
      <trkpt lat="43.50578" lon="6.66762">
        <ele>82.2</ele>
        <time>2025-10-26T08:43:44Z</time>
      </trkpt>
      <trkpt lat="43.50578" lon="6.66762">
        <ele>82.2</ele>
        <time>2025-10-26T08:43:45Z</time>
      </trkpt>
      <trkpt lat="43.50578" lon="6.66762">
        <ele>82.3</ele>
        <time>2025-10-26T08:43:46Z</time>
      </trkpt>
      <trkpt lat="43.50578" lon="6.66762">
        <ele>82.3</ele>
        <time>2025-10-26T08:43:47Z</time>
      </trkpt>
      <trkpt lat="43.50578" lon="6.66761">
        <ele>82.2</ele>
        <time>2025-10-26T08:43:48Z</time>
      </trkpt>
      <trkpt lat="43.50578" lon="6.66761">
        <ele>82.2</ele>
        <time>2025-10-26T08:43:49Z</time>
      </trkpt>
      <trkpt lat="43.50578" lon="6.66761">
        <ele>82.1</ele>
        <time>2025-10-26T08:43:50Z</time>
      </trkpt>
      <trkpt lat="43.50578" lon="6.66761">
        <ele>82</ele>
        <time>2025-10-26T08:43:51Z</time>
      </trkpt>
      <trkpt lat="43.50578" lon="6.66761">
        <ele>82</ele>
        <time>2025-10-26T08:43:52Z</time>
      </trkpt>
      <trkpt lat="43.50578" lon="6.66761">
        <ele>82</ele>
        <time>2025-10-26T08:43:53Z</time>
      </trkpt>
      <trkpt lat="43.50578" lon="6.6676">
        <ele>81.9</ele>
        <time>2025-10-26T08:43:54Z</time>
      </trkpt>
      <trkpt lat="43.50578" lon="6.66761">
        <ele>81.9</ele>
        <time>2025-10-26T08:43:55Z</time>
      </trkpt>
      <trkpt lat="43.50577" lon="6.66761">
        <ele>82</ele>
        <time>2025-10-26T08:43:56Z</time>
      </trkpt>
      <trkpt lat="43.50577" lon="6.6676">
        <ele>82.1</ele>
        <time>2025-10-26T08:43:57Z</time>
      </trkpt>
      <trkpt lat="43.50577" lon="6.66761">
        <ele>82.2</ele>
        <time>2025-10-26T08:43:58Z</time>
      </trkpt>
      <trkpt lat="43.50577" lon="6.66761">
        <ele>82.4</ele>
        <time>2025-10-26T08:43:59Z</time>
      </trkpt>
      <trkpt lat="43.50577" lon="6.66761">
        <ele>82.4</ele>
        <time>2025-10-26T08:44:00Z</time>
      </trkpt>
      <trkpt lat="43.50577" lon="6.66761">
        <ele>82.3</ele>
        <time>2025-10-26T08:44:01Z</time>
      </trkpt>
      <trkpt lat="43.50578" lon="6.6676">
        <ele>82.3</ele>
        <time>2025-10-26T08:44:02Z</time>
      </trkpt>
      <trkpt lat="43.50578" lon="6.66761">
        <ele>82.3</ele>
        <time>2025-10-26T08:44:03Z</time>
      </trkpt>
      <trkpt lat="43.50577" lon="6.66761">
        <ele>82.3</ele>
        <time>2025-10-26T08:44:04Z</time>
      </trkpt>
      <trkpt lat="43.50578" lon="6.6676">
        <ele>82.2</ele>
        <time>2025-10-26T08:44:05Z</time>
      </trkpt>
      <trkpt lat="43.50578" lon="6.6676">
        <ele>82.1</ele>
        <time>2025-10-26T08:44:06Z</time>
      </trkpt>
      <trkpt lat="43.50577" lon="6.6676">
        <ele>82.1</ele>
        <time>2025-10-26T08:44:07Z</time>
      </trkpt>
      <trkpt lat="43.50577" lon="6.6676">
        <ele>82.1</ele>
        <time>2025-10-26T08:44:08Z</time>
      </trkpt>
      <trkpt lat="43.50577" lon="6.6676">
        <ele>82.1</ele>
        <time>2025-10-26T08:44:09Z</time>
      </trkpt>
      <trkpt lat="43.50577" lon="6.6676">
        <ele>82</ele>
        <time>2025-10-26T08:44:10Z</time>
      </trkpt>
      <trkpt lat="43.50577" lon="6.6676">
        <ele>82</ele>
        <time>2025-10-26T08:44:11Z</time>
      </trkpt>
      <trkpt lat="43.50578" lon="6.6676">
        <ele>81.9</ele>
        <time>2025-10-26T08:44:12Z</time>
      </trkpt>
      <trkpt lat="43.50578" lon="6.6676">
        <ele>81.8</ele>
        <time>2025-10-26T08:44:13Z</time>
      </trkpt>
      <trkpt lat="43.50578" lon="6.6676">
        <ele>81.9</ele>
        <time>2025-10-26T08:44:14Z</time>
      </trkpt>
      <trkpt lat="43.50578" lon="6.6676">
        <ele>82.1</ele>
        <time>2025-10-26T08:44:15Z</time>
      </trkpt>
      <trkpt lat="43.50578" lon="6.6676">
        <ele>82.2</ele>
        <time>2025-10-26T08:44:16Z</time>
      </trkpt>
      <trkpt lat="43.50578" lon="6.6676">
        <ele>82.4</ele>
        <time>2025-10-26T08:44:17Z</time>
      </trkpt>
      <trkpt lat="43.50578" lon="6.6676">
        <ele>82.7</ele>
        <time>2025-10-26T08:44:18Z</time>
      </trkpt>
      <trkpt lat="43.50578" lon="6.6676">
        <ele>82.8</ele>
        <time>2025-10-26T08:44:19Z</time>
      </trkpt>
      <trkpt lat="43.50578" lon="6.6676">
        <ele>82.7</ele>
        <time>2025-10-26T08:44:20Z</time>
      </trkpt>
      <trkpt lat="43.50578" lon="6.6676">
        <ele>82.6</ele>
        <time>2025-10-26T08:44:21Z</time>
      </trkpt>
      <trkpt lat="43.50578" lon="6.6676">
        <ele>82.5</ele>
        <time>2025-10-26T08:44:22Z</time>
      </trkpt>
      <trkpt lat="43.50578" lon="6.6676">
        <ele>82.4</ele>
        <time>2025-10-26T08:44:23Z</time>
      </trkpt>
      <trkpt lat="43.50578" lon="6.6676">
        <ele>82.4</ele>
        <time>2025-10-26T08:44:24Z</time>
      </trkpt>
      <trkpt lat="43.50578" lon="6.6676">
        <ele>82.3</ele>
        <time>2025-10-26T08:44:25Z</time>
      </trkpt>
      <trkpt lat="43.50578" lon="6.6676">
        <ele>82.2</ele>
        <time>2025-10-26T08:44:26Z</time>
      </trkpt>
      <trkpt lat="43.50578" lon="6.6676">
        <ele>82.2</ele>
        <time>2025-10-26T08:44:27Z</time>
      </trkpt>
      <trkpt lat="43.50578" lon="6.6676">
        <ele>82.2</ele>
        <time>2025-10-26T08:44:28Z</time>
      </trkpt>
      <trkpt lat="43.50578" lon="6.6676">
        <ele>82.2</ele>
        <time>2025-10-26T08:44:29Z</time>
      </trkpt>
      <trkpt lat="43.50578" lon="6.6676">
        <ele>82.2</ele>
        <time>2025-10-26T08:44:30Z</time>
      </trkpt>
      <trkpt lat="43.50578" lon="6.6676">
        <ele>82.2</ele>
        <time>2025-10-26T08:44:31Z</time>
      </trkpt>
      <trkpt lat="43.50578" lon="6.66761">
        <ele>82.2</ele>
        <time>2025-10-26T08:44:32Z</time>
      </trkpt>
      <trkpt lat="43.50578" lon="6.66761">
        <ele>82.2</ele>
        <time>2025-10-26T08:44:33Z</time>
      </trkpt>
      <trkpt lat="43.50578" lon="6.66761">
        <ele>82.1</ele>
        <time>2025-10-26T08:44:34Z</time>
      </trkpt>
      <trkpt lat="43.50577" lon="6.66761">
        <ele>81.9</ele>
        <time>2025-10-26T08:44:35Z</time>
      </trkpt>
      <trkpt lat="43.50577" lon="6.66761">
        <ele>81.9</ele>
        <time>2025-10-26T08:44:36Z</time>
      </trkpt>
      <trkpt lat="43.50577" lon="6.66761">
        <ele>82.1</ele>
        <time>2025-10-26T08:44:37Z</time>
      </trkpt>
      <trkpt lat="43.50577" lon="6.66761">
        <ele>82.2</ele>
        <time>2025-10-26T08:44:38Z</time>
      </trkpt>
      <trkpt lat="43.50577" lon="6.66761">
        <ele>82.2</ele>
        <time>2025-10-26T08:44:39Z</time>
      </trkpt>
      <trkpt lat="43.50577" lon="6.66761">
        <ele>82</ele>
        <time>2025-10-26T08:44:40Z</time>
      </trkpt>
      <trkpt lat="43.50577" lon="6.6676">
        <ele>81.9</ele>
        <time>2025-10-26T08:44:41Z</time>
      </trkpt>
      <trkpt lat="43.50577" lon="6.6676">
        <ele>81.9</ele>
        <time>2025-10-26T08:44:42Z</time>
      </trkpt>
      <trkpt lat="43.50577" lon="6.66761">
        <ele>81.9</ele>
        <time>2025-10-26T08:44:43Z</time>
      </trkpt>
      <trkpt lat="43.50577" lon="6.66761">
        <ele>82</ele>
        <time>2025-10-26T08:44:44Z</time>
      </trkpt>
      <trkpt lat="43.50577" lon="6.66761">
        <ele>82</ele>
        <time>2025-10-26T08:44:45Z</time>
      </trkpt>
      <trkpt lat="43.50577" lon="6.66761">
        <ele>82.1</ele>
        <time>2025-10-26T08:44:46Z</time>
      </trkpt>
      <trkpt lat="43.50577" lon="6.66761">
        <ele>82.1</ele>
        <time>2025-10-26T08:44:47Z</time>
      </trkpt>
      <trkpt lat="43.50577" lon="6.66761">
        <ele>82.2</ele>
        <time>2025-10-26T08:44:48Z</time>
      </trkpt>
      <trkpt lat="43.50577" lon="6.66761">
        <ele>82.3</ele>
        <time>2025-10-26T08:44:49Z</time>
      </trkpt>
      <trkpt lat="43.50577" lon="6.66761">
        <ele>82.4</ele>
        <time>2025-10-26T08:44:50Z</time>
      </trkpt>
      <trkpt lat="43.50577" lon="6.66761">
        <ele>82.5</ele>
        <time>2025-10-26T08:44:51Z</time>
      </trkpt>
      <trkpt lat="43.50577" lon="6.66761">
        <ele>82.4</ele>
        <time>2025-10-26T08:44:52Z</time>
      </trkpt>
      <trkpt lat="43.50577" lon="6.66761">
        <ele>82.4</ele>
        <time>2025-10-26T08:44:53Z</time>
      </trkpt>
      <trkpt lat="43.50577" lon="6.66761">
        <ele>82.3</ele>
        <time>2025-10-26T08:44:54Z</time>
      </trkpt>
      <trkpt lat="43.50577" lon="6.66761">
        <ele>82</ele>
        <time>2025-10-26T08:44:55Z</time>
      </trkpt>
      <trkpt lat="43.50577" lon="6.66761">
        <ele>81.9</ele>
        <time>2025-10-26T08:44:56Z</time>
      </trkpt>
      <trkpt lat="43.50577" lon="6.6676">
        <ele>81.9</ele>
        <time>2025-10-26T08:44:57Z</time>
      </trkpt>
      <trkpt lat="43.50577" lon="6.6676">
        <ele>81.9</ele>
        <time>2025-10-26T08:44:58Z</time>
      </trkpt>
      <trkpt lat="43.50577" lon="6.66761">
        <ele>82</ele>
        <time>2025-10-26T08:44:59Z</time>
      </trkpt>
      <trkpt lat="43.50577" lon="6.66761">
        <ele>82.2</ele>
        <time>2025-10-26T08:45:00Z</time>
      </trkpt>
      <trkpt lat="43.50577" lon="6.66761">
        <ele>82.3</ele>
        <time>2025-10-26T08:45:01Z</time>
      </trkpt>
      <trkpt lat="43.50577" lon="6.66761">
        <ele>82.3</ele>
        <time>2025-10-26T08:45:02Z</time>
      </trkpt>
      <trkpt lat="43.50578" lon="6.66761">
        <ele>82.3</ele>
        <time>2025-10-26T08:45:03Z</time>
      </trkpt>
      <trkpt lat="43.50578" lon="6.66761">
        <ele>82.3</ele>
        <time>2025-10-26T08:45:04Z</time>
      </trkpt>
      <trkpt lat="43.50578" lon="6.66761">
        <ele>82.2</ele>
        <time>2025-10-26T08:45:05Z</time>
      </trkpt>
      <trkpt lat="43.50578" lon="6.6676">
        <ele>82.1</ele>
        <time>2025-10-26T08:45:06Z</time>
      </trkpt>
      <trkpt lat="43.50578" lon="6.66761">
        <ele>82.2</ele>
        <time>2025-10-26T08:45:07Z</time>
      </trkpt>
      <trkpt lat="43.50578" lon="6.6676">
        <ele>82.2</ele>
        <time>2025-10-26T08:45:08Z</time>
      </trkpt>
      <trkpt lat="43.50578" lon="6.6676">
        <ele>82.2</ele>
        <time>2025-10-26T08:45:09Z</time>
      </trkpt>
      <trkpt lat="43.50578" lon="6.66761">
        <ele>82.2</ele>
        <time>2025-10-26T08:45:10Z</time>
      </trkpt>
      <trkpt lat="43.50578" lon="6.66761">
        <ele>82.2</ele>
        <time>2025-10-26T08:45:11Z</time>
      </trkpt>
      <trkpt lat="43.50578" lon="6.66761">
        <ele>82.2</ele>
        <time>2025-10-26T08:45:12Z</time>
      </trkpt>
      <trkpt lat="43.50578" lon="6.66761">
        <ele>82.2</ele>
        <time>2025-10-26T08:45:13Z</time>
      </trkpt>
      <trkpt lat="43.50578" lon="6.6676">
        <ele>82.1</ele>
        <time>2025-10-26T08:45:14Z</time>
      </trkpt>
      <trkpt lat="43.50578" lon="6.6676">
        <ele>82.1</ele>
        <time>2025-10-26T08:45:15Z</time>
      </trkpt>
      <trkpt lat="43.50578" lon="6.6676">
        <ele>82.2</ele>
        <time>2025-10-26T08:45:16Z</time>
      </trkpt>
      <trkpt lat="43.50578" lon="6.6676">
        <ele>82.2</ele>
        <time>2025-10-26T08:45:17Z</time>
      </trkpt>
      <trkpt lat="43.50578" lon="6.6676">
        <ele>82.2</ele>
        <time>2025-10-26T08:45:18Z</time>
      </trkpt>
      <trkpt lat="43.50578" lon="6.6676">
        <ele>82.2</ele>
        <time>2025-10-26T08:45:19Z</time>
      </trkpt>
      <trkpt lat="43.50578" lon="6.66761">
        <ele>82.1</ele>
        <time>2025-10-26T08:45:20Z</time>
      </trkpt>
      <trkpt lat="43.50578" lon="6.66761">
        <ele>82</ele>
        <time>2025-10-26T08:45:21Z</time>
      </trkpt>
      <trkpt lat="43.50578" lon="6.66761">
        <ele>82</ele>
        <time>2025-10-26T08:45:22Z</time>
      </trkpt>
      <trkpt lat="43.50578" lon="6.6676">
        <ele>82</ele>
        <time>2025-10-26T08:45:23Z</time>
      </trkpt>
      <trkpt lat="43.50578" lon="6.6676">
        <ele>81.9</ele>
        <time>2025-10-26T08:45:24Z</time>
      </trkpt>
      <trkpt lat="43.50578" lon="6.6676">
        <ele>81.9</ele>
        <time>2025-10-26T08:45:25Z</time>
      </trkpt>
      <trkpt lat="43.50578" lon="6.6676">
        <ele>81.9</ele>
        <time>2025-10-26T08:45:26Z</time>
      </trkpt>
      <trkpt lat="43.50578" lon="6.6676">
        <ele>81.9</ele>
        <time>2025-10-26T08:45:27Z</time>
      </trkpt>
      <trkpt lat="43.50579" lon="6.6676">
        <ele>81.9</ele>
        <time>2025-10-26T08:45:28Z</time>
      </trkpt>
      <trkpt lat="43.50579" lon="6.6676">
        <ele>81.9</ele>
        <time>2025-10-26T08:45:29Z</time>
      </trkpt>
      <trkpt lat="43.50579" lon="6.6676">
        <ele>81.9</ele>
        <time>2025-10-26T08:45:30Z</time>
      </trkpt>
      <trkpt lat="43.50578" lon="6.6676">
        <ele>82</ele>
        <time>2025-10-26T08:45:31Z</time>
      </trkpt>
      <trkpt lat="43.50579" lon="6.6676">
        <ele>82</ele>
        <time>2025-10-26T08:45:32Z</time>
      </trkpt>
      <trkpt lat="43.50579" lon="6.6676">
        <ele>82</ele>
        <time>2025-10-26T08:45:33Z</time>
      </trkpt>
      <trkpt lat="43.50579" lon="6.6676">
        <ele>82</ele>
        <time>2025-10-26T08:45:34Z</time>
      </trkpt>
      <trkpt lat="43.50579" lon="6.66759">
        <ele>82</ele>
        <time>2025-10-26T08:45:35Z</time>
      </trkpt>
      <trkpt lat="43.50579" lon="6.66759">
        <ele>81.9</ele>
        <time>2025-10-26T08:45:36Z</time>
      </trkpt>
      <trkpt lat="43.50579" lon="6.66759">
        <ele>81.9</ele>
        <time>2025-10-26T08:45:37Z</time>
      </trkpt>
      <trkpt lat="43.50578" lon="6.66759">
        <ele>81.8</ele>
        <time>2025-10-26T08:45:38Z</time>
      </trkpt>
      <trkpt lat="43.50578" lon="6.66759">
        <ele>81.5</ele>
        <time>2025-10-26T08:45:39Z</time>
      </trkpt>
      <trkpt lat="43.50578" lon="6.66759">
        <ele>81.5</ele>
        <time>2025-10-26T08:45:40Z</time>
      </trkpt>
      <trkpt lat="43.50578" lon="6.66759">
        <ele>81.4</ele>
        <time>2025-10-26T08:45:41Z</time>
      </trkpt>
      <trkpt lat="43.50578" lon="6.66759">
        <ele>81.4</ele>
        <time>2025-10-26T08:45:42Z</time>
      </trkpt>
      <trkpt lat="43.50578" lon="6.66759">
        <ele>81.4</ele>
        <time>2025-10-26T08:45:43Z</time>
      </trkpt>
      <trkpt lat="43.50578" lon="6.66759">
        <ele>81.5</ele>
        <time>2025-10-26T08:45:44Z</time>
      </trkpt>
      <trkpt lat="43.50578" lon="6.66759">
        <ele>81.7</ele>
        <time>2025-10-26T08:45:45Z</time>
      </trkpt>
      <trkpt lat="43.50579" lon="6.66758">
        <ele>81.7</ele>
        <time>2025-10-26T08:45:46Z</time>
      </trkpt>
      <trkpt lat="43.50579" lon="6.66758">
        <ele>81.8</ele>
        <time>2025-10-26T08:45:47Z</time>
      </trkpt>
      <trkpt lat="43.50579" lon="6.66758">
        <ele>81.8</ele>
        <time>2025-10-26T08:45:48Z</time>
      </trkpt>
      <trkpt lat="43.50579" lon="6.66758">
        <ele>81.8</ele>
        <time>2025-10-26T08:45:49Z</time>
      </trkpt>
      <trkpt lat="43.50579" lon="6.66758">
        <ele>81.7</ele>
        <time>2025-10-26T08:45:50Z</time>
      </trkpt>
      <trkpt lat="43.50579" lon="6.66758">
        <ele>81.7</ele>
        <time>2025-10-26T08:45:51Z</time>
      </trkpt>
      <trkpt lat="43.50579" lon="6.66758">
        <ele>81.8</ele>
        <time>2025-10-26T08:45:52Z</time>
      </trkpt>
      <trkpt lat="43.50579" lon="6.66758">
        <ele>81.8</ele>
        <time>2025-10-26T08:45:53Z</time>
      </trkpt>
      <trkpt lat="43.50579" lon="6.66758">
        <ele>81.7</ele>
        <time>2025-10-26T08:45:54Z</time>
      </trkpt>
      <trkpt lat="43.50579" lon="6.66758">
        <ele>81.7</ele>
        <time>2025-10-26T08:45:55Z</time>
      </trkpt>
      <trkpt lat="43.50579" lon="6.66759">
        <ele>81.7</ele>
        <time>2025-10-26T08:45:56Z</time>
      </trkpt>
      <trkpt lat="43.50579" lon="6.66759">
        <ele>81.8</ele>
        <time>2025-10-26T08:45:57Z</time>
      </trkpt>
      <trkpt lat="43.50579" lon="6.66759">
        <ele>81.7</ele>
        <time>2025-10-26T08:45:58Z</time>
      </trkpt>
      <trkpt lat="43.50579" lon="6.66759">
        <ele>81.6</ele>
        <time>2025-10-26T08:45:59Z</time>
      </trkpt>
      <trkpt lat="43.50579" lon="6.66759">
        <ele>81.6</ele>
        <time>2025-10-26T08:46:00Z</time>
      </trkpt>
      <trkpt lat="43.50579" lon="6.66759">
        <ele>81.6</ele>
        <time>2025-10-26T08:46:01Z</time>
      </trkpt>
      <trkpt lat="43.50579" lon="6.66759">
        <ele>81.5</ele>
        <time>2025-10-26T08:46:02Z</time>
      </trkpt>
      <trkpt lat="43.50579" lon="6.66759">
        <ele>81.5</ele>
        <time>2025-10-26T08:46:03Z</time>
      </trkpt>
      <trkpt lat="43.50579" lon="6.66759">
        <ele>81.5</ele>
        <time>2025-10-26T08:46:04Z</time>
      </trkpt>
      <trkpt lat="43.50579" lon="6.66759">
        <ele>81.5</ele>
        <time>2025-10-26T08:46:05Z</time>
      </trkpt>
      <trkpt lat="43.50579" lon="6.66758">
        <ele>81.5</ele>
        <time>2025-10-26T08:46:06Z</time>
      </trkpt>
      <trkpt lat="43.50579" lon="6.66758">
        <ele>81.5</ele>
        <time>2025-10-26T08:46:07Z</time>
      </trkpt>
      <trkpt lat="43.50579" lon="6.66758">
        <ele>81.6</ele>
        <time>2025-10-26T08:46:08Z</time>
      </trkpt>
      <trkpt lat="43.5058" lon="6.66757">
        <ele>81.7</ele>
        <time>2025-10-26T08:46:09Z</time>
      </trkpt>
      <trkpt lat="43.50579" lon="6.66758">
        <ele>81.4</ele>
        <time>2025-10-26T08:46:10Z</time>
      </trkpt>
      <trkpt lat="43.50579" lon="6.66758">
        <ele>81.3</ele>
        <time>2025-10-26T08:46:11Z</time>
      </trkpt>
      <trkpt lat="43.50579" lon="6.66758">
        <ele>81.3</ele>
        <time>2025-10-26T08:46:12Z</time>
      </trkpt>
      <trkpt lat="43.50579" lon="6.66757">
        <ele>81.5</ele>
        <time>2025-10-26T08:46:13Z</time>
      </trkpt>
      <trkpt lat="43.50579" lon="6.66757">
        <ele>81.6</ele>
        <time>2025-10-26T08:46:14Z</time>
      </trkpt>
      <trkpt lat="43.50579" lon="6.66757">
        <ele>81.5</ele>
        <time>2025-10-26T08:46:15Z</time>
      </trkpt>
      <trkpt lat="43.50579" lon="6.66757">
        <ele>81.5</ele>
        <time>2025-10-26T08:46:16Z</time>
      </trkpt>
      <trkpt lat="43.50579" lon="6.66756">
        <ele>81.6</ele>
        <time>2025-10-26T08:46:17Z</time>
      </trkpt>
      <trkpt lat="43.50579" lon="6.66756">
        <ele>81.6</ele>
        <time>2025-10-26T08:46:18Z</time>
      </trkpt>
      <trkpt lat="43.50579" lon="6.66756">
        <ele>81.8</ele>
        <time>2025-10-26T08:46:19Z</time>
      </trkpt>
      <trkpt lat="43.50579" lon="6.66756">
        <ele>81.8</ele>
        <time>2025-10-26T08:46:20Z</time>
      </trkpt>
      <trkpt lat="43.50579" lon="6.66756">
        <ele>81.8</ele>
        <time>2025-10-26T08:46:21Z</time>
      </trkpt>
      <trkpt lat="43.50579" lon="6.66756">
        <ele>81.8</ele>
        <time>2025-10-26T08:46:22Z</time>
      </trkpt>
      <trkpt lat="43.50579" lon="6.66756">
        <ele>81.8</ele>
        <time>2025-10-26T08:46:23Z</time>
      </trkpt>
      <trkpt lat="43.50579" lon="6.66756">
        <ele>81.9</ele>
        <time>2025-10-26T08:46:24Z</time>
      </trkpt>
      <trkpt lat="43.50579" lon="6.66756">
        <ele>82</ele>
        <time>2025-10-26T08:46:25Z</time>
      </trkpt>
      <trkpt lat="43.50579" lon="6.66756">
        <ele>81.9</ele>
        <time>2025-10-26T08:46:26Z</time>
      </trkpt>
      <trkpt lat="43.50579" lon="6.66756">
        <ele>81.9</ele>
        <time>2025-10-26T08:46:27Z</time>
      </trkpt>
      <trkpt lat="43.50579" lon="6.66756">
        <ele>81.9</ele>
        <time>2025-10-26T08:46:28Z</time>
      </trkpt>
      <trkpt lat="43.5058" lon="6.66756">
        <ele>81.9</ele>
        <time>2025-10-26T08:46:29Z</time>
      </trkpt>
      <trkpt lat="43.5058" lon="6.66757">
        <ele>81.8</ele>
        <time>2025-10-26T08:46:30Z</time>
      </trkpt>
      <trkpt lat="43.5058" lon="6.66758">
        <ele>81.8</ele>
        <time>2025-10-26T08:46:31Z</time>
      </trkpt>
      <trkpt lat="43.5058" lon="6.66758">
        <ele>81.5</ele>
        <time>2025-10-26T08:46:32Z</time>
      </trkpt>
      <trkpt lat="43.5058" lon="6.66758">
        <ele>81.6</ele>
        <time>2025-10-26T08:46:33Z</time>
      </trkpt>
      <trkpt lat="43.5058" lon="6.66759">
        <ele>81.7</ele>
        <time>2025-10-26T08:46:34Z</time>
      </trkpt>
      <trkpt lat="43.50581" lon="6.66759">
        <ele>81.7</ele>
        <time>2025-10-26T08:46:35Z</time>
      </trkpt>
      <trkpt lat="43.50581" lon="6.66759">
        <ele>81.6</ele>
        <time>2025-10-26T08:46:36Z</time>
      </trkpt>
      <trkpt lat="43.50581" lon="6.66759">
        <ele>81.7</ele>
        <time>2025-10-26T08:46:37Z</time>
      </trkpt>
      <trkpt lat="43.5058" lon="6.66759">
        <ele>81.7</ele>
        <time>2025-10-26T08:46:38Z</time>
      </trkpt>
      <trkpt lat="43.5058" lon="6.66759">
        <ele>81.8</ele>
        <time>2025-10-26T08:46:39Z</time>
      </trkpt>
      <trkpt lat="43.50579" lon="6.66759">
        <ele>81.9</ele>
        <time>2025-10-26T08:46:40Z</time>
      </trkpt>
      <trkpt lat="43.50579" lon="6.66759">
        <ele>81.8</ele>
        <time>2025-10-26T08:46:41Z</time>
      </trkpt>
      <trkpt lat="43.50579" lon="6.66759">
        <ele>81.7</ele>
        <time>2025-10-26T08:46:42Z</time>
      </trkpt>
      <trkpt lat="43.50579" lon="6.66759">
        <ele>81.7</ele>
        <time>2025-10-26T08:46:43Z</time>
      </trkpt>
      <trkpt lat="43.50579" lon="6.6676">
        <ele>81.7</ele>
        <time>2025-10-26T08:46:44Z</time>
      </trkpt>
      <trkpt lat="43.50579" lon="6.6676">
        <ele>81.7</ele>
        <time>2025-10-26T08:46:45Z</time>
      </trkpt>
      <trkpt lat="43.50579" lon="6.6676">
        <ele>81.7</ele>
        <time>2025-10-26T08:46:46Z</time>
      </trkpt>
      <trkpt lat="43.50579" lon="6.66761">
        <ele>81.7</ele>
        <time>2025-10-26T08:46:47Z</time>
      </trkpt>
      <trkpt lat="43.50578" lon="6.66761">
        <ele>81.7</ele>
        <time>2025-10-26T08:46:48Z</time>
      </trkpt>
      <trkpt lat="43.50578" lon="6.66761">
        <ele>81.7</ele>
        <time>2025-10-26T08:46:49Z</time>
      </trkpt>
      <trkpt lat="43.50578" lon="6.66762">
        <ele>81.7</ele>
        <time>2025-10-26T08:46:50Z</time>
      </trkpt>
      <trkpt lat="43.50578" lon="6.66762">
        <ele>81.7</ele>
        <time>2025-10-26T08:46:51Z</time>
      </trkpt>
      <trkpt lat="43.50578" lon="6.66762">
        <ele>81.7</ele>
        <time>2025-10-26T08:46:52Z</time>
      </trkpt>
      <trkpt lat="43.50578" lon="6.66762">
        <ele>81.8</ele>
        <time>2025-10-26T08:46:53Z</time>
      </trkpt>
      <trkpt lat="43.50578" lon="6.66763">
        <ele>81.8</ele>
        <time>2025-10-26T08:46:54Z</time>
      </trkpt>
      <trkpt lat="43.50578" lon="6.66763">
        <ele>81.8</ele>
        <time>2025-10-26T08:46:55Z</time>
      </trkpt>
      <trkpt lat="43.50578" lon="6.66763">
        <ele>81.9</ele>
        <time>2025-10-26T08:46:56Z</time>
      </trkpt>
      <trkpt lat="43.50578" lon="6.66763">
        <ele>82</ele>
        <time>2025-10-26T08:46:57Z</time>
      </trkpt>
      <trkpt lat="43.50577" lon="6.66763">
        <ele>82</ele>
        <time>2025-10-26T08:46:58Z</time>
      </trkpt>
      <trkpt lat="43.50577" lon="6.66763">
        <ele>82.1</ele>
        <time>2025-10-26T08:46:59Z</time>
      </trkpt>
      <trkpt lat="43.50577" lon="6.66763">
        <ele>82.2</ele>
        <time>2025-10-26T08:47:00Z</time>
      </trkpt>
      <trkpt lat="43.50577" lon="6.66763">
        <ele>82.2</ele>
        <time>2025-10-26T08:47:01Z</time>
      </trkpt>
      <trkpt lat="43.50577" lon="6.66763">
        <ele>82.2</ele>
        <time>2025-10-26T08:47:02Z</time>
      </trkpt>
      <trkpt lat="43.50578" lon="6.66763">
        <ele>82.2</ele>
        <time>2025-10-26T08:47:03Z</time>
      </trkpt>
      <trkpt lat="43.50578" lon="6.66763">
        <ele>82.2</ele>
        <time>2025-10-26T08:47:04Z</time>
      </trkpt>
      <trkpt lat="43.50578" lon="6.66763">
        <ele>82.1</ele>
        <time>2025-10-26T08:47:05Z</time>
      </trkpt>
      <trkpt lat="43.50578" lon="6.66763">
        <ele>82.1</ele>
        <time>2025-10-26T08:47:06Z</time>
      </trkpt>
      <trkpt lat="43.50578" lon="6.66764">
        <ele>82</ele>
        <time>2025-10-26T08:47:07Z</time>
      </trkpt>
      <trkpt lat="43.50578" lon="6.66763">
        <ele>82</ele>
        <time>2025-10-26T08:47:08Z</time>
      </trkpt>
      <trkpt lat="43.50578" lon="6.66763">
        <ele>82</ele>
        <time>2025-10-26T08:47:09Z</time>
      </trkpt>
      <trkpt lat="43.50578" lon="6.66763">
        <ele>81.9</ele>
        <time>2025-10-26T08:47:10Z</time>
      </trkpt>
      <trkpt lat="43.50578" lon="6.66763">
        <ele>81.7</ele>
        <time>2025-10-26T08:47:11Z</time>
      </trkpt>
      <trkpt lat="43.50578" lon="6.66762">
        <ele>81.7</ele>
        <time>2025-10-26T08:47:12Z</time>
      </trkpt>
      <trkpt lat="43.50578" lon="6.66762">
        <ele>81.6</ele>
        <time>2025-10-26T08:47:13Z</time>
      </trkpt>
      <trkpt lat="43.50578" lon="6.66762">
        <ele>81.5</ele>
        <time>2025-10-26T08:47:14Z</time>
      </trkpt>
      <trkpt lat="43.50578" lon="6.66762">
        <ele>81.5</ele>
        <time>2025-10-26T08:47:15Z</time>
      </trkpt>
      <trkpt lat="43.50578" lon="6.66763">
        <ele>81.5</ele>
        <time>2025-10-26T08:47:16Z</time>
      </trkpt>
      <trkpt lat="43.50578" lon="6.66763">
        <ele>81.5</ele>
        <time>2025-10-26T08:47:17Z</time>
      </trkpt>
      <trkpt lat="43.50578" lon="6.66762">
        <ele>81.6</ele>
        <time>2025-10-26T08:47:18Z</time>
      </trkpt>
      <trkpt lat="43.50578" lon="6.66762">
        <ele>81.6</ele>
        <time>2025-10-26T08:47:19Z</time>
      </trkpt>
      <trkpt lat="43.50578" lon="6.66762">
        <ele>81.7</ele>
        <time>2025-10-26T08:47:20Z</time>
      </trkpt>
      <trkpt lat="43.50578" lon="6.66762">
        <ele>81.6</ele>
        <time>2025-10-26T08:47:21Z</time>
      </trkpt>
      <trkpt lat="43.50578" lon="6.66762">
        <ele>81.6</ele>
        <time>2025-10-26T08:47:22Z</time>
      </trkpt>
      <trkpt lat="43.50578" lon="6.66762">
        <ele>81.6</ele>
        <time>2025-10-26T08:47:23Z</time>
      </trkpt>
      <trkpt lat="43.50578" lon="6.66762">
        <ele>81.4</ele>
        <time>2025-10-26T08:47:24Z</time>
      </trkpt>
      <trkpt lat="43.50578" lon="6.66762">
        <ele>81.4</ele>
        <time>2025-10-26T08:47:25Z</time>
      </trkpt>
      <trkpt lat="43.50578" lon="6.66761">
        <ele>81.3</ele>
        <time>2025-10-26T08:47:26Z</time>
      </trkpt>
      <trkpt lat="43.50578" lon="6.66761">
        <ele>81.2</ele>
        <time>2025-10-26T08:47:27Z</time>
      </trkpt>
      <trkpt lat="43.50578" lon="6.66761">
        <ele>81</ele>
        <time>2025-10-26T08:47:28Z</time>
      </trkpt>
      <trkpt lat="43.50578" lon="6.66761">
        <ele>81</ele>
        <time>2025-10-26T08:47:29Z</time>
      </trkpt>
      <trkpt lat="43.50578" lon="6.66761">
        <ele>81.1</ele>
        <time>2025-10-26T08:47:30Z</time>
      </trkpt>
      <trkpt lat="43.50578" lon="6.66761">
        <ele>81.3</ele>
        <time>2025-10-26T08:47:31Z</time>
      </trkpt>
      <trkpt lat="43.50578" lon="6.66761">
        <ele>81.2</ele>
        <time>2025-10-26T08:47:32Z</time>
      </trkpt>
      <trkpt lat="43.50578" lon="6.66761">
        <ele>81.2</ele>
        <time>2025-10-26T08:47:33Z</time>
      </trkpt>
      <trkpt lat="43.50578" lon="6.66761">
        <ele>81.1</ele>
        <time>2025-10-26T08:47:34Z</time>
      </trkpt>
      <trkpt lat="43.50578" lon="6.66761">
        <ele>81</ele>
        <time>2025-10-26T08:47:35Z</time>
      </trkpt>
      <trkpt lat="43.50578" lon="6.6676">
        <ele>81.2</ele>
        <time>2025-10-26T08:47:36Z</time>
      </trkpt>
      <trkpt lat="43.50578" lon="6.6676">
        <ele>81.3</ele>
        <time>2025-10-26T08:47:37Z</time>
      </trkpt>
      <trkpt lat="43.50578" lon="6.6676">
        <ele>81.4</ele>
        <time>2025-10-26T08:47:38Z</time>
      </trkpt>
      <trkpt lat="43.50578" lon="6.6676">
        <ele>81.5</ele>
        <time>2025-10-26T08:47:39Z</time>
      </trkpt>
      <trkpt lat="43.50578" lon="6.66761">
        <ele>81.5</ele>
        <time>2025-10-26T08:47:40Z</time>
      </trkpt>
      <trkpt lat="43.50578" lon="6.66761">
        <ele>81.5</ele>
        <time>2025-10-26T08:47:41Z</time>
      </trkpt>
      <trkpt lat="43.50579" lon="6.66761">
        <ele>81.6</ele>
        <time>2025-10-26T08:47:42Z</time>
      </trkpt>
      <trkpt lat="43.50579" lon="6.66761">
        <ele>81.6</ele>
        <time>2025-10-26T08:47:43Z</time>
      </trkpt>
      <trkpt lat="43.50579" lon="6.6676">
        <ele>81.7</ele>
        <time>2025-10-26T08:47:44Z</time>
      </trkpt>
      <trkpt lat="43.5058" lon="6.66759">
        <ele>81.6</ele>
        <time>2025-10-26T08:47:45Z</time>
      </trkpt>
      <trkpt lat="43.50581" lon="6.66758">
        <ele>81.6</ele>
        <time>2025-10-26T08:47:46Z</time>
      </trkpt>
      <trkpt lat="43.50582" lon="6.66757">
        <ele>81.5</ele>
        <time>2025-10-26T08:47:47Z</time>
      </trkpt>
      <trkpt lat="43.50582" lon="6.66757">
        <ele>81.5</ele>
        <time>2025-10-26T08:47:48Z</time>
      </trkpt>
      <trkpt lat="43.50582" lon="6.66757">
        <ele>81.4</ele>
        <time>2025-10-26T08:47:49Z</time>
      </trkpt>
      <trkpt lat="43.50583" lon="6.66757">
        <ele>81.4</ele>
        <time>2025-10-26T08:47:50Z</time>
      </trkpt>
      <trkpt lat="43.50583" lon="6.66755">
        <ele>81.5</ele>
        <time>2025-10-26T08:47:51Z</time>
      </trkpt>
      <trkpt lat="43.50583" lon="6.66755">
        <ele>81.6</ele>
        <time>2025-10-26T08:47:52Z</time>
      </trkpt>
      <trkpt lat="43.50584" lon="6.66754">
        <ele>81.6</ele>
        <time>2025-10-26T08:47:53Z</time>
      </trkpt>
      <trkpt lat="43.50585" lon="6.66753">
        <ele>81.7</ele>
        <time>2025-10-26T08:47:54Z</time>
      </trkpt>
      <trkpt lat="43.50585" lon="6.66752">
        <ele>81.7</ele>
        <time>2025-10-26T08:47:55Z</time>
      </trkpt>
      <trkpt lat="43.50586" lon="6.66751">
        <ele>81.7</ele>
        <time>2025-10-26T08:47:56Z</time>
      </trkpt>
      <trkpt lat="43.50587" lon="6.6675">
        <ele>81.8</ele>
        <time>2025-10-26T08:47:57Z</time>
      </trkpt>
      <trkpt lat="43.50588" lon="6.66749">
        <ele>81.9</ele>
        <time>2025-10-26T08:47:58Z</time>
      </trkpt>
      <trkpt lat="43.50589" lon="6.66749">
        <ele>81.8</ele>
        <time>2025-10-26T08:47:59Z</time>
      </trkpt>
      <trkpt lat="43.5059" lon="6.66748">
        <ele>81.8</ele>
        <time>2025-10-26T08:48:00Z</time>
      </trkpt>
      <trkpt lat="43.50591" lon="6.66747">
        <ele>81.7</ele>
        <time>2025-10-26T08:48:01Z</time>
      </trkpt>
      <trkpt lat="43.50592" lon="6.66746">
        <ele>81.7</ele>
        <time>2025-10-26T08:48:02Z</time>
      </trkpt>
      <trkpt lat="43.50593" lon="6.66744">
        <ele>81.7</ele>
        <time>2025-10-26T08:48:03Z</time>
      </trkpt>
      <trkpt lat="43.50594" lon="6.66744">
        <ele>81.7</ele>
        <time>2025-10-26T08:48:04Z</time>
      </trkpt>
      <trkpt lat="43.50595" lon="6.66743">
        <ele>81.7</ele>
        <time>2025-10-26T08:48:05Z</time>
      </trkpt>
      <trkpt lat="43.50596" lon="6.66742">
        <ele>81.7</ele>
        <time>2025-10-26T08:48:06Z</time>
      </trkpt>
      <trkpt lat="43.50597" lon="6.66742">
        <ele>81.6</ele>
        <time>2025-10-26T08:48:07Z</time>
      </trkpt>
      <trkpt lat="43.50598" lon="6.66741">
        <ele>81.4</ele>
        <time>2025-10-26T08:48:08Z</time>
      </trkpt>
      <trkpt lat="43.50599" lon="6.6674">
        <ele>81.3</ele>
        <time>2025-10-26T08:48:09Z</time>
      </trkpt>
      <trkpt lat="43.506" lon="6.6674">
        <ele>81.2</ele>
        <time>2025-10-26T08:48:10Z</time>
      </trkpt>
      <trkpt lat="43.50602" lon="6.66739">
        <ele>81.3</ele>
        <time>2025-10-26T08:48:11Z</time>
      </trkpt>
      <trkpt lat="43.50603" lon="6.66738">
        <ele>81.3</ele>
        <time>2025-10-26T08:48:12Z</time>
      </trkpt>
      <trkpt lat="43.50604" lon="6.66737">
        <ele>81.2</ele>
        <time>2025-10-26T08:48:13Z</time>
      </trkpt>
      <trkpt lat="43.50604" lon="6.66736">
        <ele>81.2</ele>
        <time>2025-10-26T08:48:14Z</time>
      </trkpt>
      <trkpt lat="43.50605" lon="6.66736">
        <ele>81.2</ele>
        <time>2025-10-26T08:48:15Z</time>
      </trkpt>
      <trkpt lat="43.50606" lon="6.66735">
        <ele>81.3</ele>
        <time>2025-10-26T08:48:16Z</time>
      </trkpt>
      <trkpt lat="43.50607" lon="6.66735">
        <ele>81.3</ele>
        <time>2025-10-26T08:48:17Z</time>
      </trkpt>
      <trkpt lat="43.50608" lon="6.66734">
        <ele>81.4</ele>
        <time>2025-10-26T08:48:18Z</time>
      </trkpt>
      <trkpt lat="43.50609" lon="6.66734">
        <ele>81.4</ele>
        <time>2025-10-26T08:48:19Z</time>
      </trkpt>
      <trkpt lat="43.5061" lon="6.66734">
        <ele>81.4</ele>
        <time>2025-10-26T08:48:20Z</time>
      </trkpt>
      <trkpt lat="43.50612" lon="6.66734">
        <ele>81.4</ele>
        <time>2025-10-26T08:48:21Z</time>
      </trkpt>
      <trkpt lat="43.50613" lon="6.66733">
        <ele>81.4</ele>
        <time>2025-10-26T08:48:22Z</time>
      </trkpt>
      <trkpt lat="43.50614" lon="6.66733">
        <ele>81.3</ele>
        <time>2025-10-26T08:48:23Z</time>
      </trkpt>
      <trkpt lat="43.50615" lon="6.66732">
        <ele>81.3</ele>
        <time>2025-10-26T08:48:24Z</time>
      </trkpt>
      <trkpt lat="43.50616" lon="6.66731">
        <ele>81.4</ele>
        <time>2025-10-26T08:48:25Z</time>
      </trkpt>
      <trkpt lat="43.50618" lon="6.66731">
        <ele>81.3</ele>
        <time>2025-10-26T08:48:26Z</time>
      </trkpt>
      <trkpt lat="43.50619" lon="6.6673">
        <ele>81.3</ele>
        <time>2025-10-26T08:48:27Z</time>
      </trkpt>
      <trkpt lat="43.5062" lon="6.66728">
        <ele>81.3</ele>
        <time>2025-10-26T08:48:28Z</time>
      </trkpt>
      <trkpt lat="43.50621" lon="6.66728">
        <ele>81.3</ele>
        <time>2025-10-26T08:48:29Z</time>
      </trkpt>
      <trkpt lat="43.50622" lon="6.66727">
        <ele>81.2</ele>
        <time>2025-10-26T08:48:30Z</time>
      </trkpt>
      <trkpt lat="43.50624" lon="6.66726">
        <ele>81.2</ele>
        <time>2025-10-26T08:48:31Z</time>
      </trkpt>
      <trkpt lat="43.50625" lon="6.66725">
        <ele>81.2</ele>
        <time>2025-10-26T08:48:32Z</time>
      </trkpt>
      <trkpt lat="43.50626" lon="6.66725">
        <ele>81.1</ele>
        <time>2025-10-26T08:48:33Z</time>
      </trkpt>
      <trkpt lat="43.50627" lon="6.66724">
        <ele>81.1</ele>
        <time>2025-10-26T08:48:34Z</time>
      </trkpt>
      <trkpt lat="43.50628" lon="6.66724">
        <ele>81.2</ele>
        <time>2025-10-26T08:48:35Z</time>
      </trkpt>
      <trkpt lat="43.50629" lon="6.66723">
        <ele>81.2</ele>
        <time>2025-10-26T08:48:36Z</time>
      </trkpt>
      <trkpt lat="43.5063" lon="6.66723">
        <ele>81.2</ele>
        <time>2025-10-26T08:48:37Z</time>
      </trkpt>
      <trkpt lat="43.50632" lon="6.66723">
        <ele>81.2</ele>
        <time>2025-10-26T08:48:38Z</time>
      </trkpt>
      <trkpt lat="43.50633" lon="6.66723">
        <ele>81.3</ele>
        <time>2025-10-26T08:48:39Z</time>
      </trkpt>
      <trkpt lat="43.50634" lon="6.66722">
        <ele>81.4</ele>
        <time>2025-10-26T08:48:40Z</time>
      </trkpt>
      <trkpt lat="43.50636" lon="6.66722">
        <ele>81.5</ele>
        <time>2025-10-26T08:48:41Z</time>
      </trkpt>
      <trkpt lat="43.50637" lon="6.66721">
        <ele>81.6</ele>
        <time>2025-10-26T08:48:42Z</time>
      </trkpt>
      <trkpt lat="43.50638" lon="6.6672">
        <ele>81.6</ele>
        <time>2025-10-26T08:48:43Z</time>
      </trkpt>
      <trkpt lat="43.50639" lon="6.6672">
        <ele>81.6</ele>
        <time>2025-10-26T08:48:44Z</time>
      </trkpt>
      <trkpt lat="43.5064" lon="6.66719">
        <ele>81.6</ele>
        <time>2025-10-26T08:48:45Z</time>
      </trkpt>
      <trkpt lat="43.50642" lon="6.66719">
        <ele>81.6</ele>
        <time>2025-10-26T08:48:46Z</time>
      </trkpt>
      <trkpt lat="43.50643" lon="6.66719">
        <ele>81.6</ele>
        <time>2025-10-26T08:48:47Z</time>
      </trkpt>
      <trkpt lat="43.50644" lon="6.66718">
        <ele>81.7</ele>
        <time>2025-10-26T08:48:48Z</time>
      </trkpt>
      <trkpt lat="43.50646" lon="6.66718">
        <ele>81.7</ele>
        <time>2025-10-26T08:48:49Z</time>
      </trkpt>
      <trkpt lat="43.50647" lon="6.66718">
        <ele>81.8</ele>
        <time>2025-10-26T08:48:50Z</time>
      </trkpt>
      <trkpt lat="43.50648" lon="6.66717">
        <ele>81.8</ele>
        <time>2025-10-26T08:48:51Z</time>
      </trkpt>
      <trkpt lat="43.50649" lon="6.66716">
        <ele>81.8</ele>
        <time>2025-10-26T08:48:52Z</time>
      </trkpt>
      <trkpt lat="43.5065" lon="6.66715">
        <ele>81.9</ele>
        <time>2025-10-26T08:48:53Z</time>
      </trkpt>
      <trkpt lat="43.50651" lon="6.66715">
        <ele>81.7</ele>
        <time>2025-10-26T08:48:54Z</time>
      </trkpt>
      <trkpt lat="43.50652" lon="6.66714">
        <ele>81.6</ele>
        <time>2025-10-26T08:48:55Z</time>
      </trkpt>
      <trkpt lat="43.50653" lon="6.66713">
        <ele>81.7</ele>
        <time>2025-10-26T08:48:56Z</time>
      </trkpt>
      <trkpt lat="43.50654" lon="6.66713">
        <ele>81.8</ele>
        <time>2025-10-26T08:48:57Z</time>
      </trkpt>
      <trkpt lat="43.50655" lon="6.66712">
        <ele>81.7</ele>
        <time>2025-10-26T08:48:58Z</time>
      </trkpt>
      <trkpt lat="43.50656" lon="6.66711">
        <ele>81.9</ele>
        <time>2025-10-26T08:48:59Z</time>
      </trkpt>
      <trkpt lat="43.50657" lon="6.6671">
        <ele>81.9</ele>
        <time>2025-10-26T08:49:00Z</time>
      </trkpt>
      <trkpt lat="43.50659" lon="6.66709">
        <ele>82.1</ele>
        <time>2025-10-26T08:49:01Z</time>
      </trkpt>
      <trkpt lat="43.5066" lon="6.66708">
        <ele>82.2</ele>
        <time>2025-10-26T08:49:02Z</time>
      </trkpt>
      <trkpt lat="43.50661" lon="6.66707">
        <ele>82.2</ele>
        <time>2025-10-26T08:49:03Z</time>
      </trkpt>
      <trkpt lat="43.50662" lon="6.66706">
        <ele>82.2</ele>
        <time>2025-10-26T08:49:04Z</time>
      </trkpt>
      <trkpt lat="43.50663" lon="6.66705">
        <ele>82.2</ele>
        <time>2025-10-26T08:49:05Z</time>
      </trkpt>
      <trkpt lat="43.50663" lon="6.66705">
        <ele>82.2</ele>
        <time>2025-10-26T08:49:06Z</time>
      </trkpt>
      <trkpt lat="43.50663" lon="6.66704">
        <ele>82.3</ele>
        <time>2025-10-26T08:49:07Z</time>
      </trkpt>
      <trkpt lat="43.50664" lon="6.66703">
        <ele>82.4</ele>
        <time>2025-10-26T08:49:08Z</time>
      </trkpt>
      <trkpt lat="43.50665" lon="6.66703">
        <ele>82.4</ele>
        <time>2025-10-26T08:49:09Z</time>
      </trkpt>
      <trkpt lat="43.50665" lon="6.66702">
        <ele>82.4</ele>
        <time>2025-10-26T08:49:10Z</time>
      </trkpt>
      <trkpt lat="43.50666" lon="6.66702">
        <ele>82.3</ele>
        <time>2025-10-26T08:49:11Z</time>
      </trkpt>
      <trkpt lat="43.50667" lon="6.66701">
        <ele>82.3</ele>
        <time>2025-10-26T08:49:12Z</time>
      </trkpt>
      <trkpt lat="43.50667" lon="6.66701">
        <ele>82.3</ele>
        <time>2025-10-26T08:49:13Z</time>
      </trkpt>
      <trkpt lat="43.50667" lon="6.66701">
        <ele>82.3</ele>
        <time>2025-10-26T08:49:14Z</time>
      </trkpt>
      <trkpt lat="43.50668" lon="6.66701">
        <ele>82.3</ele>
        <time>2025-10-26T08:49:15Z</time>
      </trkpt>
      <trkpt lat="43.50669" lon="6.66699">
        <ele>82.3</ele>
        <time>2025-10-26T08:49:16Z</time>
      </trkpt>
      <trkpt lat="43.5067" lon="6.66698">
        <ele>82.4</ele>
        <time>2025-10-26T08:49:17Z</time>
      </trkpt>
      <trkpt lat="43.50671" lon="6.66699">
        <ele>82.4</ele>
        <time>2025-10-26T08:49:18Z</time>
      </trkpt>
      <trkpt lat="43.50671" lon="6.66698">
        <ele>82.5</ele>
        <time>2025-10-26T08:49:19Z</time>
      </trkpt>
      <trkpt lat="43.50671" lon="6.66697">
        <ele>82.4</ele>
        <time>2025-10-26T08:49:20Z</time>
      </trkpt>
      <trkpt lat="43.50672" lon="6.66697">
        <ele>82.3</ele>
        <time>2025-10-26T08:49:21Z</time>
      </trkpt>
      <trkpt lat="43.50672" lon="6.66697">
        <ele>82.2</ele>
        <time>2025-10-26T08:49:22Z</time>
      </trkpt>
      <trkpt lat="43.50672" lon="6.66697">
        <ele>82.2</ele>
        <time>2025-10-26T08:49:23Z</time>
      </trkpt>
      <trkpt lat="43.50672" lon="6.66697">
        <ele>82.1</ele>
        <time>2025-10-26T08:49:24Z</time>
      </trkpt>
      <trkpt lat="43.50673" lon="6.66697">
        <ele>82.2</ele>
        <time>2025-10-26T08:49:25Z</time>
      </trkpt>
      <trkpt lat="43.50673" lon="6.66697">
        <ele>82.3</ele>
        <time>2025-10-26T08:49:26Z</time>
      </trkpt>
      <trkpt lat="43.50673" lon="6.66697">
        <ele>82.3</ele>
        <time>2025-10-26T08:49:27Z</time>
      </trkpt>
      <trkpt lat="43.50673" lon="6.66697">
        <ele>82.3</ele>
        <time>2025-10-26T08:49:28Z</time>
      </trkpt>
      <trkpt lat="43.50673" lon="6.66698">
        <ele>82.2</ele>
        <time>2025-10-26T08:49:29Z</time>
      </trkpt>
      <trkpt lat="43.50672" lon="6.66699">
        <ele>82.1</ele>
        <time>2025-10-26T08:49:30Z</time>
      </trkpt>
      <trkpt lat="43.50671" lon="6.667">
        <ele>82</ele>
        <time>2025-10-26T08:49:31Z</time>
      </trkpt>
      <trkpt lat="43.50671" lon="6.667">
        <ele>81.9</ele>
        <time>2025-10-26T08:49:32Z</time>
      </trkpt>
      <trkpt lat="43.50671" lon="6.667">
        <ele>81.8</ele>
        <time>2025-10-26T08:49:33Z</time>
      </trkpt>
      <trkpt lat="43.5067" lon="6.66701">
        <ele>81.7</ele>
        <time>2025-10-26T08:49:34Z</time>
      </trkpt>
      <trkpt lat="43.5067" lon="6.66702">
        <ele>81.6</ele>
        <time>2025-10-26T08:49:35Z</time>
      </trkpt>
      <trkpt lat="43.5067" lon="6.66702">
        <ele>81.6</ele>
        <time>2025-10-26T08:49:36Z</time>
      </trkpt>
      <trkpt lat="43.50669" lon="6.66703">
        <ele>81.4</ele>
        <time>2025-10-26T08:49:37Z</time>
      </trkpt>
      <trkpt lat="43.50669" lon="6.66704">
        <ele>81.5</ele>
        <time>2025-10-26T08:49:38Z</time>
      </trkpt>
      <trkpt lat="43.50669" lon="6.66706">
        <ele>81.5</ele>
        <time>2025-10-26T08:49:39Z</time>
      </trkpt>
      <trkpt lat="43.5067" lon="6.66707">
        <ele>81.6</ele>
        <time>2025-10-26T08:49:40Z</time>
      </trkpt>
      <trkpt lat="43.5067" lon="6.66709">
        <ele>81.8</ele>
        <time>2025-10-26T08:49:41Z</time>
      </trkpt>
      <trkpt lat="43.5067" lon="6.66711">
        <ele>82</ele>
        <time>2025-10-26T08:49:42Z</time>
      </trkpt>
      <trkpt lat="43.50671" lon="6.66712">
        <ele>82.2</ele>
        <time>2025-10-26T08:49:43Z</time>
      </trkpt>
      <trkpt lat="43.50671" lon="6.66714">
        <ele>82.3</ele>
        <time>2025-10-26T08:49:44Z</time>
      </trkpt>
      <trkpt lat="43.50672" lon="6.66715">
        <ele>82.4</ele>
        <time>2025-10-26T08:49:45Z</time>
      </trkpt>
      <trkpt lat="43.50673" lon="6.66715">
        <ele>82.5</ele>
        <time>2025-10-26T08:49:46Z</time>
      </trkpt>
      <trkpt lat="43.50673" lon="6.66716">
        <ele>82.6</ele>
        <time>2025-10-26T08:49:47Z</time>
      </trkpt>
      <trkpt lat="43.50674" lon="6.66717">
        <ele>82.5</ele>
        <time>2025-10-26T08:49:48Z</time>
      </trkpt>
      <trkpt lat="43.50675" lon="6.66718">
        <ele>82.5</ele>
        <time>2025-10-26T08:49:49Z</time>
      </trkpt>
      <trkpt lat="43.50675" lon="6.66719">
        <ele>82.5</ele>
        <time>2025-10-26T08:49:50Z</time>
      </trkpt>
      <trkpt lat="43.50676" lon="6.6672">
        <ele>82.6</ele>
        <time>2025-10-26T08:49:51Z</time>
      </trkpt>
      <trkpt lat="43.50677" lon="6.66721">
        <ele>82.7</ele>
        <time>2025-10-26T08:49:52Z</time>
      </trkpt>
      <trkpt lat="43.50678" lon="6.66721">
        <ele>82.9</ele>
        <time>2025-10-26T08:49:53Z</time>
      </trkpt>
      <trkpt lat="43.50678" lon="6.66722">
        <ele>83.1</ele>
        <time>2025-10-26T08:49:54Z</time>
      </trkpt>
      <trkpt lat="43.50679" lon="6.66723">
        <ele>83.3</ele>
        <time>2025-10-26T08:49:55Z</time>
      </trkpt>
      <trkpt lat="43.5068" lon="6.66724">
        <ele>83.4</ele>
        <time>2025-10-26T08:49:56Z</time>
      </trkpt>
      <trkpt lat="43.50681" lon="6.66725">
        <ele>83.5</ele>
        <time>2025-10-26T08:49:57Z</time>
      </trkpt>
      <trkpt lat="43.50682" lon="6.66726">
        <ele>83.5</ele>
        <time>2025-10-26T08:49:58Z</time>
      </trkpt>
      <trkpt lat="43.50683" lon="6.66726">
        <ele>83.4</ele>
        <time>2025-10-26T08:49:59Z</time>
      </trkpt>
      <trkpt lat="43.50684" lon="6.66727">
        <ele>83.3</ele>
        <time>2025-10-26T08:50:00Z</time>
      </trkpt>
      <trkpt lat="43.50685" lon="6.66727">
        <ele>83.2</ele>
        <time>2025-10-26T08:50:01Z</time>
      </trkpt>
      <trkpt lat="43.50685" lon="6.66727">
        <ele>83.3</ele>
        <time>2025-10-26T08:50:02Z</time>
      </trkpt>
      <trkpt lat="43.50686" lon="6.66726">
        <ele>83.3</ele>
        <time>2025-10-26T08:50:03Z</time>
      </trkpt>
      <trkpt lat="43.50687" lon="6.66727">
        <ele>83.2</ele>
        <time>2025-10-26T08:50:04Z</time>
      </trkpt>
      <trkpt lat="43.50688" lon="6.66727">
        <ele>83.2</ele>
        <time>2025-10-26T08:50:05Z</time>
      </trkpt>
      <trkpt lat="43.50688" lon="6.66727">
        <ele>83.1</ele>
        <time>2025-10-26T08:50:06Z</time>
      </trkpt>
      <trkpt lat="43.5069" lon="6.66727">
        <ele>83.1</ele>
        <time>2025-10-26T08:50:07Z</time>
      </trkpt>
      <trkpt lat="43.5069" lon="6.66728">
        <ele>83.2</ele>
        <time>2025-10-26T08:50:08Z</time>
      </trkpt>
      <trkpt lat="43.50691" lon="6.66728">
        <ele>83.3</ele>
        <time>2025-10-26T08:50:09Z</time>
      </trkpt>
      <trkpt lat="43.50692" lon="6.66728">
        <ele>83.2</ele>
        <time>2025-10-26T08:50:10Z</time>
      </trkpt>
      <trkpt lat="43.50693" lon="6.66728">
        <ele>83.2</ele>
        <time>2025-10-26T08:50:11Z</time>
      </trkpt>
      <trkpt lat="43.50694" lon="6.66729">
        <ele>83.1</ele>
        <time>2025-10-26T08:50:12Z</time>
      </trkpt>
      <trkpt lat="43.50695" lon="6.66729">
        <ele>83</ele>
        <time>2025-10-26T08:50:13Z</time>
      </trkpt>
      <trkpt lat="43.50696" lon="6.66729">
        <ele>82.9</ele>
        <time>2025-10-26T08:50:14Z</time>
      </trkpt>
      <trkpt lat="43.50697" lon="6.66729">
        <ele>83</ele>
        <time>2025-10-26T08:50:15Z</time>
      </trkpt>
      <trkpt lat="43.50698" lon="6.66729">
        <ele>83.1</ele>
        <time>2025-10-26T08:50:16Z</time>
      </trkpt>
      <trkpt lat="43.50699" lon="6.6673">
        <ele>83.1</ele>
        <time>2025-10-26T08:50:17Z</time>
      </trkpt>
      <trkpt lat="43.507" lon="6.6673">
        <ele>83.1</ele>
        <time>2025-10-26T08:50:18Z</time>
      </trkpt>
      <trkpt lat="43.50701" lon="6.66731">
        <ele>83.3</ele>
        <time>2025-10-26T08:50:19Z</time>
      </trkpt>
      <trkpt lat="43.50702" lon="6.66731">
        <ele>83.4</ele>
        <time>2025-10-26T08:50:20Z</time>
      </trkpt>
      <trkpt lat="43.50703" lon="6.66732">
        <ele>83.4</ele>
        <time>2025-10-26T08:50:21Z</time>
      </trkpt>
      <trkpt lat="43.50704" lon="6.66732">
        <ele>83.5</ele>
        <time>2025-10-26T08:50:22Z</time>
      </trkpt>
      <trkpt lat="43.50705" lon="6.66733">
        <ele>83.6</ele>
        <time>2025-10-26T08:50:23Z</time>
      </trkpt>
      <trkpt lat="43.50706" lon="6.66734">
        <ele>83.6</ele>
        <time>2025-10-26T08:50:24Z</time>
      </trkpt>
      <trkpt lat="43.50707" lon="6.66735">
        <ele>83.4</ele>
        <time>2025-10-26T08:50:25Z</time>
      </trkpt>
      <trkpt lat="43.50708" lon="6.66735">
        <ele>83.2</ele>
        <time>2025-10-26T08:50:26Z</time>
      </trkpt>
      <trkpt lat="43.50709" lon="6.66735">
        <ele>83.1</ele>
        <time>2025-10-26T08:50:27Z</time>
      </trkpt>
      <trkpt lat="43.5071" lon="6.66735">
        <ele>83.1</ele>
        <time>2025-10-26T08:50:28Z</time>
      </trkpt>
      <trkpt lat="43.50711" lon="6.66736">
        <ele>83.3</ele>
        <time>2025-10-26T08:50:29Z</time>
      </trkpt>
      <trkpt lat="43.50711" lon="6.66737">
        <ele>83.7</ele>
        <time>2025-10-26T08:50:30Z</time>
      </trkpt>
      <trkpt lat="43.50712" lon="6.66738">
        <ele>83.8</ele>
        <time>2025-10-26T08:50:31Z</time>
      </trkpt>
      <trkpt lat="43.50713" lon="6.66738">
        <ele>83.8</ele>
        <time>2025-10-26T08:50:32Z</time>
      </trkpt>
      <trkpt lat="43.50714" lon="6.66738">
        <ele>83.8</ele>
        <time>2025-10-26T08:50:33Z</time>
      </trkpt>
      <trkpt lat="43.50715" lon="6.66738">
        <ele>83.9</ele>
        <time>2025-10-26T08:50:34Z</time>
      </trkpt>
      <trkpt lat="43.50715" lon="6.66738">
        <ele>84</ele>
        <time>2025-10-26T08:50:35Z</time>
      </trkpt>
      <trkpt lat="43.50716" lon="6.66739">
        <ele>84</ele>
        <time>2025-10-26T08:50:36Z</time>
      </trkpt>
      <trkpt lat="43.50717" lon="6.66739">
        <ele>84</ele>
        <time>2025-10-26T08:50:37Z</time>
      </trkpt>
      <trkpt lat="43.50717" lon="6.6674">
        <ele>84.1</ele>
        <time>2025-10-26T08:50:38Z</time>
      </trkpt>
      <trkpt lat="43.50718" lon="6.66741">
        <ele>84.1</ele>
        <time>2025-10-26T08:50:39Z</time>
      </trkpt>
      <trkpt lat="43.50718" lon="6.66742">
        <ele>84</ele>
        <time>2025-10-26T08:50:40Z</time>
      </trkpt>
      <trkpt lat="43.50719" lon="6.66743">
        <ele>84</ele>
        <time>2025-10-26T08:50:41Z</time>
      </trkpt>
      <trkpt lat="43.5072" lon="6.66744">
        <ele>84</ele>
        <time>2025-10-26T08:50:42Z</time>
      </trkpt>
      <trkpt lat="43.5072" lon="6.66745">
        <ele>84</ele>
        <time>2025-10-26T08:50:43Z</time>
      </trkpt>
      <trkpt lat="43.50721" lon="6.66746">
        <ele>84.1</ele>
        <time>2025-10-26T08:50:44Z</time>
      </trkpt>
      <trkpt lat="43.50721" lon="6.66747">
        <ele>84.2</ele>
        <time>2025-10-26T08:50:45Z</time>
      </trkpt>
      <trkpt lat="43.50722" lon="6.66748">
        <ele>84.3</ele>
        <time>2025-10-26T08:50:46Z</time>
      </trkpt>
      <trkpt lat="43.50722" lon="6.66748">
        <ele>84.3</ele>
        <time>2025-10-26T08:50:47Z</time>
      </trkpt>
      <trkpt lat="43.50723" lon="6.6675">
        <ele>84.4</ele>
        <time>2025-10-26T08:50:48Z</time>
      </trkpt>
      <trkpt lat="43.50723" lon="6.66751">
        <ele>84.4</ele>
        <time>2025-10-26T08:50:49Z</time>
      </trkpt>
      <trkpt lat="43.50724" lon="6.66752">
        <ele>84.5</ele>
        <time>2025-10-26T08:50:50Z</time>
      </trkpt>
      <trkpt lat="43.50725" lon="6.66752">
        <ele>84.6</ele>
        <time>2025-10-26T08:50:51Z</time>
      </trkpt>
      <trkpt lat="43.50725" lon="6.66753">
        <ele>84.6</ele>
        <time>2025-10-26T08:50:52Z</time>
      </trkpt>
      <trkpt lat="43.50726" lon="6.66753">
        <ele>84.7</ele>
        <time>2025-10-26T08:50:53Z</time>
      </trkpt>
      <trkpt lat="43.50726" lon="6.66754">
        <ele>84.9</ele>
        <time>2025-10-26T08:50:54Z</time>
      </trkpt>
      <trkpt lat="43.50727" lon="6.66754">
        <ele>84.9</ele>
        <time>2025-10-26T08:50:55Z</time>
      </trkpt>
      <trkpt lat="43.50728" lon="6.66755">
        <ele>85.1</ele>
        <time>2025-10-26T08:50:56Z</time>
      </trkpt>
      <trkpt lat="43.50729" lon="6.66756">
        <ele>85.2</ele>
        <time>2025-10-26T08:50:57Z</time>
      </trkpt>
      <trkpt lat="43.50729" lon="6.66757">
        <ele>85.3</ele>
        <time>2025-10-26T08:50:58Z</time>
      </trkpt>
      <trkpt lat="43.5073" lon="6.66758">
        <ele>85.4</ele>
        <time>2025-10-26T08:50:59Z</time>
      </trkpt>
      <trkpt lat="43.5073" lon="6.66758">
        <ele>85.4</ele>
        <time>2025-10-26T08:51:00Z</time>
      </trkpt>
      <trkpt lat="43.5073" lon="6.66758">
        <ele>85.4</ele>
        <time>2025-10-26T08:51:01Z</time>
      </trkpt>
      <trkpt lat="43.50731" lon="6.66759">
        <ele>85.5</ele>
        <time>2025-10-26T08:51:02Z</time>
      </trkpt>
      <trkpt lat="43.50732" lon="6.66759">
        <ele>85.5</ele>
        <time>2025-10-26T08:51:03Z</time>
      </trkpt>
      <trkpt lat="43.50732" lon="6.6676">
        <ele>85.5</ele>
        <time>2025-10-26T08:51:04Z</time>
      </trkpt>
      <trkpt lat="43.50733" lon="6.6676">
        <ele>85.6</ele>
        <time>2025-10-26T08:51:05Z</time>
      </trkpt>
      <trkpt lat="43.50733" lon="6.66761">
        <ele>85.7</ele>
        <time>2025-10-26T08:51:06Z</time>
      </trkpt>
      <trkpt lat="43.50734" lon="6.66761">
        <ele>85.7</ele>
        <time>2025-10-26T08:51:07Z</time>
      </trkpt>
      <trkpt lat="43.50735" lon="6.66762">
        <ele>85.9</ele>
        <time>2025-10-26T08:51:08Z</time>
      </trkpt>
      <trkpt lat="43.50735" lon="6.66763">
        <ele>85.9</ele>
        <time>2025-10-26T08:51:09Z</time>
      </trkpt>
      <trkpt lat="43.50736" lon="6.66764">
        <ele>86.2</ele>
        <time>2025-10-26T08:51:10Z</time>
      </trkpt>
      <trkpt lat="43.50737" lon="6.66764">
        <ele>86.3</ele>
        <time>2025-10-26T08:51:11Z</time>
      </trkpt>
      <trkpt lat="43.50737" lon="6.66765">
        <ele>86.5</ele>
        <time>2025-10-26T08:51:12Z</time>
      </trkpt>
      <trkpt lat="43.50738" lon="6.66766">
        <ele>86.4</ele>
        <time>2025-10-26T08:51:13Z</time>
      </trkpt>
      <trkpt lat="43.50739" lon="6.66766">
        <ele>86.4</ele>
        <time>2025-10-26T08:51:14Z</time>
      </trkpt>
      <trkpt lat="43.50739" lon="6.66767">
        <ele>86.4</ele>
        <time>2025-10-26T08:51:15Z</time>
      </trkpt>
      <trkpt lat="43.5074" lon="6.66768">
        <ele>86.5</ele>
        <time>2025-10-26T08:51:16Z</time>
      </trkpt>
      <trkpt lat="43.5074" lon="6.66769">
        <ele>86.6</ele>
        <time>2025-10-26T08:51:17Z</time>
      </trkpt>
      <trkpt lat="43.50741" lon="6.6677">
        <ele>86.7</ele>
        <time>2025-10-26T08:51:18Z</time>
      </trkpt>
      <trkpt lat="43.50741" lon="6.66771">
        <ele>87</ele>
        <time>2025-10-26T08:51:19Z</time>
      </trkpt>
      <trkpt lat="43.50742" lon="6.66772">
        <ele>87.2</ele>
        <time>2025-10-26T08:51:20Z</time>
      </trkpt>
      <trkpt lat="43.50742" lon="6.66773">
        <ele>87.4</ele>
        <time>2025-10-26T08:51:21Z</time>
      </trkpt>
      <trkpt lat="43.50743" lon="6.66773">
        <ele>87.4</ele>
        <time>2025-10-26T08:51:22Z</time>
      </trkpt>
      <trkpt lat="43.50744" lon="6.66774">
        <ele>87.5</ele>
        <time>2025-10-26T08:51:23Z</time>
      </trkpt>
      <trkpt lat="43.50744" lon="6.66775">
        <ele>87.8</ele>
        <time>2025-10-26T08:51:24Z</time>
      </trkpt>
      <trkpt lat="43.50745" lon="6.66775">
        <ele>88</ele>
        <time>2025-10-26T08:51:25Z</time>
      </trkpt>
      <trkpt lat="43.50746" lon="6.66776">
        <ele>88.1</ele>
        <time>2025-10-26T08:51:26Z</time>
      </trkpt>
      <trkpt lat="43.50746" lon="6.66777">
        <ele>88.3</ele>
        <time>2025-10-26T08:51:27Z</time>
      </trkpt>
      <trkpt lat="43.50747" lon="6.66777">
        <ele>88.4</ele>
        <time>2025-10-26T08:51:28Z</time>
      </trkpt>
      <trkpt lat="43.50747" lon="6.66778">
        <ele>88.5</ele>
        <time>2025-10-26T08:51:29Z</time>
      </trkpt>
      <trkpt lat="43.50748" lon="6.66779">
        <ele>88.6</ele>
        <time>2025-10-26T08:51:30Z</time>
      </trkpt>
      <trkpt lat="43.50748" lon="6.6678">
        <ele>88.6</ele>
        <time>2025-10-26T08:51:31Z</time>
      </trkpt>
      <trkpt lat="43.50748" lon="6.66781">
        <ele>88.6</ele>
        <time>2025-10-26T08:51:32Z</time>
      </trkpt>
      <trkpt lat="43.50749" lon="6.66782">
        <ele>88.6</ele>
        <time>2025-10-26T08:51:33Z</time>
      </trkpt>
      <trkpt lat="43.50749" lon="6.66782">
        <ele>88.6</ele>
        <time>2025-10-26T08:51:34Z</time>
      </trkpt>
      <trkpt lat="43.5075" lon="6.66783">
        <ele>88.6</ele>
        <time>2025-10-26T08:51:35Z</time>
      </trkpt>
      <trkpt lat="43.5075" lon="6.66784">
        <ele>88.7</ele>
        <time>2025-10-26T08:51:36Z</time>
      </trkpt>
      <trkpt lat="43.50751" lon="6.66785">
        <ele>88.4</ele>
        <time>2025-10-26T08:51:37Z</time>
      </trkpt>
      <trkpt lat="43.50751" lon="6.66786">
        <ele>88.6</ele>
        <time>2025-10-26T08:51:38Z</time>
      </trkpt>
      <trkpt lat="43.50751" lon="6.66787">
        <ele>88.8</ele>
        <time>2025-10-26T08:51:39Z</time>
      </trkpt>
      <trkpt lat="43.50752" lon="6.66789">
        <ele>89</ele>
        <time>2025-10-26T08:51:40Z</time>
      </trkpt>
      <trkpt lat="43.50752" lon="6.6679">
        <ele>89.1</ele>
        <time>2025-10-26T08:51:41Z</time>
      </trkpt>
      <trkpt lat="43.50752" lon="6.66791">
        <ele>89.4</ele>
        <time>2025-10-26T08:51:42Z</time>
      </trkpt>
      <trkpt lat="43.50753" lon="6.66792">
        <ele>89.5</ele>
        <time>2025-10-26T08:51:43Z</time>
      </trkpt>
      <trkpt lat="43.50754" lon="6.66793">
        <ele>89.7</ele>
        <time>2025-10-26T08:51:44Z</time>
      </trkpt>
      <trkpt lat="43.50754" lon="6.66794">
        <ele>89.8</ele>
        <time>2025-10-26T08:51:45Z</time>
      </trkpt>
      <trkpt lat="43.50755" lon="6.66795">
        <ele>90</ele>
        <time>2025-10-26T08:51:46Z</time>
      </trkpt>
      <trkpt lat="43.50756" lon="6.66796">
        <ele>90.2</ele>
        <time>2025-10-26T08:51:47Z</time>
      </trkpt>
      <trkpt lat="43.50756" lon="6.66798">
        <ele>90.4</ele>
        <time>2025-10-26T08:51:48Z</time>
      </trkpt>
      <trkpt lat="43.50757" lon="6.66799">
        <ele>90.5</ele>
        <time>2025-10-26T08:51:49Z</time>
      </trkpt>
      <trkpt lat="43.50757" lon="6.668">
        <ele>90.7</ele>
        <time>2025-10-26T08:51:50Z</time>
      </trkpt>
      <trkpt lat="43.50758" lon="6.66801">
        <ele>90.8</ele>
        <time>2025-10-26T08:51:51Z</time>
      </trkpt>
      <trkpt lat="43.50758" lon="6.66803">
        <ele>91</ele>
        <time>2025-10-26T08:51:52Z</time>
      </trkpt>
      <trkpt lat="43.50759" lon="6.66804">
        <ele>91.1</ele>
        <time>2025-10-26T08:51:53Z</time>
      </trkpt>
      <trkpt lat="43.5076" lon="6.66804">
        <ele>91.2</ele>
        <time>2025-10-26T08:51:54Z</time>
      </trkpt>
      <trkpt lat="43.50761" lon="6.66805">
        <ele>91.4</ele>
        <time>2025-10-26T08:51:55Z</time>
      </trkpt>
      <trkpt lat="43.50762" lon="6.66806">
        <ele>91.3</ele>
        <time>2025-10-26T08:51:56Z</time>
      </trkpt>
      <trkpt lat="43.50762" lon="6.66807">
        <ele>91.3</ele>
        <time>2025-10-26T08:51:57Z</time>
      </trkpt>
      <trkpt lat="43.50763" lon="6.66808">
        <ele>91.4</ele>
        <time>2025-10-26T08:51:58Z</time>
      </trkpt>
      <trkpt lat="43.50764" lon="6.66808">
        <ele>91.6</ele>
        <time>2025-10-26T08:51:59Z</time>
      </trkpt>
      <trkpt lat="43.50765" lon="6.66808">
        <ele>91.7</ele>
        <time>2025-10-26T08:52:00Z</time>
      </trkpt>
      <trkpt lat="43.50766" lon="6.66808">
        <ele>91.8</ele>
        <time>2025-10-26T08:52:01Z</time>
      </trkpt>
      <trkpt lat="43.50767" lon="6.66808">
        <ele>91.9</ele>
        <time>2025-10-26T08:52:02Z</time>
      </trkpt>
      <trkpt lat="43.50768" lon="6.66809">
        <ele>92</ele>
        <time>2025-10-26T08:52:03Z</time>
      </trkpt>
      <trkpt lat="43.50769" lon="6.66809">
        <ele>92.1</ele>
        <time>2025-10-26T08:52:04Z</time>
      </trkpt>
      <trkpt lat="43.5077" lon="6.66808">
        <ele>92.3</ele>
        <time>2025-10-26T08:52:05Z</time>
      </trkpt>
      <trkpt lat="43.50771" lon="6.66808">
        <ele>92.4</ele>
        <time>2025-10-26T08:52:06Z</time>
      </trkpt>
      <trkpt lat="43.50772" lon="6.66808">
        <ele>92.6</ele>
        <time>2025-10-26T08:52:07Z</time>
      </trkpt>
      <trkpt lat="43.50773" lon="6.66809">
        <ele>92.8</ele>
        <time>2025-10-26T08:52:08Z</time>
      </trkpt>
      <trkpt lat="43.50774" lon="6.6681">
        <ele>92.9</ele>
        <time>2025-10-26T08:52:09Z</time>
      </trkpt>
      <trkpt lat="43.50774" lon="6.66811">
        <ele>93</ele>
        <time>2025-10-26T08:52:10Z</time>
      </trkpt>
      <trkpt lat="43.50775" lon="6.66812">
        <ele>93.2</ele>
        <time>2025-10-26T08:52:11Z</time>
      </trkpt>
      <trkpt lat="43.50775" lon="6.66812">
        <ele>93.3</ele>
        <time>2025-10-26T08:52:12Z</time>
      </trkpt>
      <trkpt lat="43.50776" lon="6.66813">
        <ele>93.5</ele>
        <time>2025-10-26T08:52:13Z</time>
      </trkpt>
      <trkpt lat="43.50777" lon="6.66813">
        <ele>93.7</ele>
        <time>2025-10-26T08:52:14Z</time>
      </trkpt>
      <trkpt lat="43.50778" lon="6.66814">
        <ele>93.9</ele>
        <time>2025-10-26T08:52:15Z</time>
      </trkpt>
      <trkpt lat="43.50779" lon="6.66815">
        <ele>94</ele>
        <time>2025-10-26T08:52:16Z</time>
      </trkpt>
      <trkpt lat="43.5078" lon="6.66815">
        <ele>94.2</ele>
        <time>2025-10-26T08:52:17Z</time>
      </trkpt>
      <trkpt lat="43.5078" lon="6.66816">
        <ele>94.3</ele>
        <time>2025-10-26T08:52:18Z</time>
      </trkpt>
      <trkpt lat="43.50781" lon="6.66817">
        <ele>94.4</ele>
        <time>2025-10-26T08:52:19Z</time>
      </trkpt>
      <trkpt lat="43.50782" lon="6.66818">
        <ele>94.6</ele>
        <time>2025-10-26T08:52:20Z</time>
      </trkpt>
      <trkpt lat="43.50783" lon="6.66819">
        <ele>94.7</ele>
        <time>2025-10-26T08:52:21Z</time>
      </trkpt>
      <trkpt lat="43.50784" lon="6.66819">
        <ele>94.9</ele>
        <time>2025-10-26T08:52:22Z</time>
      </trkpt>
      <trkpt lat="43.50785" lon="6.66819">
        <ele>95</ele>
        <time>2025-10-26T08:52:23Z</time>
      </trkpt>
      <trkpt lat="43.50786" lon="6.66819">
        <ele>95.1</ele>
        <time>2025-10-26T08:52:24Z</time>
      </trkpt>
      <trkpt lat="43.50787" lon="6.66819">
        <ele>95</ele>
        <time>2025-10-26T08:52:25Z</time>
      </trkpt>
      <trkpt lat="43.50788" lon="6.6682">
        <ele>95</ele>
        <time>2025-10-26T08:52:26Z</time>
      </trkpt>
      <trkpt lat="43.50789" lon="6.66821">
        <ele>95</ele>
        <time>2025-10-26T08:52:27Z</time>
      </trkpt>
      <trkpt lat="43.50791" lon="6.66821">
        <ele>95</ele>
        <time>2025-10-26T08:52:28Z</time>
      </trkpt>
      <trkpt lat="43.50792" lon="6.66821">
        <ele>95.1</ele>
        <time>2025-10-26T08:52:29Z</time>
      </trkpt>
      <trkpt lat="43.50793" lon="6.66821">
        <ele>95.2</ele>
        <time>2025-10-26T08:52:30Z</time>
      </trkpt>
      <trkpt lat="43.50794" lon="6.6682">
        <ele>95.4</ele>
        <time>2025-10-26T08:52:31Z</time>
      </trkpt>
      <trkpt lat="43.50795" lon="6.66819">
        <ele>95.6</ele>
        <time>2025-10-26T08:52:32Z</time>
      </trkpt>
      <trkpt lat="43.50795" lon="6.66818">
        <ele>95.7</ele>
        <time>2025-10-26T08:52:33Z</time>
      </trkpt>
      <trkpt lat="43.50796" lon="6.66817">
        <ele>95.9</ele>
        <time>2025-10-26T08:52:34Z</time>
      </trkpt>
      <trkpt lat="43.50797" lon="6.66816">
        <ele>95.9</ele>
        <time>2025-10-26T08:52:35Z</time>
      </trkpt>
      <trkpt lat="43.50798" lon="6.66815">
        <ele>96</ele>
        <time>2025-10-26T08:52:36Z</time>
      </trkpt>
      <trkpt lat="43.50798" lon="6.66814">
        <ele>96.1</ele>
        <time>2025-10-26T08:52:37Z</time>
      </trkpt>
      <trkpt lat="43.50799" lon="6.66813">
        <ele>96.1</ele>
        <time>2025-10-26T08:52:38Z</time>
      </trkpt>
      <trkpt lat="43.508" lon="6.66812">
        <ele>96.1</ele>
        <time>2025-10-26T08:52:39Z</time>
      </trkpt>
      <trkpt lat="43.508" lon="6.66811">
        <ele>96.2</ele>
        <time>2025-10-26T08:52:40Z</time>
      </trkpt>
      <trkpt lat="43.50801" lon="6.66811">
        <ele>96.3</ele>
        <time>2025-10-26T08:52:41Z</time>
      </trkpt>
      <trkpt lat="43.50802" lon="6.6681">
        <ele>96.4</ele>
        <time>2025-10-26T08:52:42Z</time>
      </trkpt>
      <trkpt lat="43.50803" lon="6.6681">
        <ele>96.4</ele>
        <time>2025-10-26T08:52:43Z</time>
      </trkpt>
      <trkpt lat="43.50803" lon="6.66809">
        <ele>96.4</ele>
        <time>2025-10-26T08:52:44Z</time>
      </trkpt>
      <trkpt lat="43.50804" lon="6.66809">
        <ele>96.5</ele>
        <time>2025-10-26T08:52:45Z</time>
      </trkpt>
      <trkpt lat="43.50805" lon="6.66809">
        <ele>96.5</ele>
        <time>2025-10-26T08:52:46Z</time>
      </trkpt>
      <trkpt lat="43.50806" lon="6.66809">
        <ele>96.5</ele>
        <time>2025-10-26T08:52:47Z</time>
      </trkpt>
      <trkpt lat="43.50806" lon="6.66808">
        <ele>96.6</ele>
        <time>2025-10-26T08:52:48Z</time>
      </trkpt>
      <trkpt lat="43.50807" lon="6.66808">
        <ele>96.6</ele>
        <time>2025-10-26T08:52:49Z</time>
      </trkpt>
      <trkpt lat="43.50807" lon="6.66807">
        <ele>96.8</ele>
        <time>2025-10-26T08:52:50Z</time>
      </trkpt>
      <trkpt lat="43.50808" lon="6.66806">
        <ele>97</ele>
        <time>2025-10-26T08:52:51Z</time>
      </trkpt>
      <trkpt lat="43.50808" lon="6.66806">
        <ele>97.2</ele>
        <time>2025-10-26T08:52:52Z</time>
      </trkpt>
      <trkpt lat="43.50809" lon="6.66806">
        <ele>97.4</ele>
        <time>2025-10-26T08:52:53Z</time>
      </trkpt>
      <trkpt lat="43.5081" lon="6.66806">
        <ele>97.6</ele>
        <time>2025-10-26T08:52:54Z</time>
      </trkpt>
      <trkpt lat="43.50811" lon="6.66806">
        <ele>97.7</ele>
        <time>2025-10-26T08:52:55Z</time>
      </trkpt>
      <trkpt lat="43.50811" lon="6.66805">
        <ele>97.7</ele>
        <time>2025-10-26T08:52:56Z</time>
      </trkpt>
      <trkpt lat="43.50812" lon="6.66805">
        <ele>97.8</ele>
        <time>2025-10-26T08:52:57Z</time>
      </trkpt>
      <trkpt lat="43.50813" lon="6.66805">
        <ele>97.9</ele>
        <time>2025-10-26T08:52:58Z</time>
      </trkpt>
      <trkpt lat="43.50814" lon="6.66805">
        <ele>98.1</ele>
        <time>2025-10-26T08:52:59Z</time>
      </trkpt>
      <trkpt lat="43.50815" lon="6.66805">
        <ele>98.2</ele>
        <time>2025-10-26T08:53:00Z</time>
      </trkpt>
      <trkpt lat="43.50816" lon="6.66805">
        <ele>98.2</ele>
        <time>2025-10-26T08:53:01Z</time>
      </trkpt>
      <trkpt lat="43.50817" lon="6.66805">
        <ele>98.3</ele>
        <time>2025-10-26T08:53:02Z</time>
      </trkpt>
      <trkpt lat="43.50818" lon="6.66805">
        <ele>98.4</ele>
        <time>2025-10-26T08:53:03Z</time>
      </trkpt>
      <trkpt lat="43.50819" lon="6.66805">
        <ele>98.5</ele>
        <time>2025-10-26T08:53:04Z</time>
      </trkpt>
      <trkpt lat="43.50819" lon="6.66805">
        <ele>98.5</ele>
        <time>2025-10-26T08:53:05Z</time>
      </trkpt>
      <trkpt lat="43.5082" lon="6.66805">
        <ele>99.1</ele>
        <time>2025-10-26T08:53:06Z</time>
      </trkpt>
      <trkpt lat="43.50821" lon="6.66804">
        <ele>99.4</ele>
        <time>2025-10-26T08:53:07Z</time>
      </trkpt>
      <trkpt lat="43.50822" lon="6.66804">
        <ele>99.5</ele>
        <time>2025-10-26T08:53:08Z</time>
      </trkpt>
      <trkpt lat="43.50823" lon="6.66804">
        <ele>99.6</ele>
        <time>2025-10-26T08:53:09Z</time>
      </trkpt>
      <trkpt lat="43.50823" lon="6.66805">
        <ele>99.7</ele>
        <time>2025-10-26T08:53:10Z</time>
      </trkpt>
      <trkpt lat="43.50824" lon="6.66804">
        <ele>99.7</ele>
        <time>2025-10-26T08:53:11Z</time>
      </trkpt>
      <trkpt lat="43.50825" lon="6.66804">
        <ele>99.8</ele>
        <time>2025-10-26T08:53:12Z</time>
      </trkpt>
      <trkpt lat="43.50826" lon="6.66804">
        <ele>99.7</ele>
        <time>2025-10-26T08:53:13Z</time>
      </trkpt>
      <trkpt lat="43.50826" lon="6.66804">
        <ele>99.7</ele>
        <time>2025-10-26T08:53:14Z</time>
      </trkpt>
      <trkpt lat="43.50827" lon="6.66804">
        <ele>99.7</ele>
        <time>2025-10-26T08:53:15Z</time>
      </trkpt>
      <trkpt lat="43.50828" lon="6.66804">
        <ele>99.7</ele>
        <time>2025-10-26T08:53:16Z</time>
      </trkpt>
      <trkpt lat="43.50829" lon="6.66803">
        <ele>99.7</ele>
        <time>2025-10-26T08:53:17Z</time>
      </trkpt>
      <trkpt lat="43.5083" lon="6.66802">
        <ele>99.8</ele>
        <time>2025-10-26T08:53:18Z</time>
      </trkpt>
      <trkpt lat="43.50829" lon="6.66802">
        <ele>99.8</ele>
        <time>2025-10-26T08:53:19Z</time>
      </trkpt>
      <trkpt lat="43.5083" lon="6.66802">
        <ele>99.8</ele>
        <time>2025-10-26T08:53:20Z</time>
      </trkpt>
      <trkpt lat="43.50831" lon="6.66802">
        <ele>99.8</ele>
        <time>2025-10-26T08:53:21Z</time>
      </trkpt>
      <trkpt lat="43.50832" lon="6.66802">
        <ele>99.8</ele>
        <time>2025-10-26T08:53:22Z</time>
      </trkpt>
      <trkpt lat="43.50833" lon="6.66802">
        <ele>99.9</ele>
        <time>2025-10-26T08:53:23Z</time>
      </trkpt>
      <trkpt lat="43.50834" lon="6.66802">
        <ele>100</ele>
        <time>2025-10-26T08:53:24Z</time>
      </trkpt>
      <trkpt lat="43.50835" lon="6.66802">
        <ele>100.2</ele>
        <time>2025-10-26T08:53:25Z</time>
      </trkpt>
      <trkpt lat="43.50835" lon="6.66801">
        <ele>100.2</ele>
        <time>2025-10-26T08:53:26Z</time>
      </trkpt>
      <trkpt lat="43.50836" lon="6.668">
        <ele>100.2</ele>
        <time>2025-10-26T08:53:27Z</time>
      </trkpt>
      <trkpt lat="43.50837" lon="6.668">
        <ele>100.2</ele>
        <time>2025-10-26T08:53:28Z</time>
      </trkpt>
      <trkpt lat="43.50838" lon="6.668">
        <ele>100.3</ele>
        <time>2025-10-26T08:53:29Z</time>
      </trkpt>
      <trkpt lat="43.50839" lon="6.668">
        <ele>100.3</ele>
        <time>2025-10-26T08:53:30Z</time>
      </trkpt>
      <trkpt lat="43.50839" lon="6.668">
        <ele>100.4</ele>
        <time>2025-10-26T08:53:31Z</time>
      </trkpt>
      <trkpt lat="43.5084" lon="6.66799">
        <ele>100.5</ele>
        <time>2025-10-26T08:53:32Z</time>
      </trkpt>
      <trkpt lat="43.50841" lon="6.668">
        <ele>100.7</ele>
        <time>2025-10-26T08:53:33Z</time>
      </trkpt>
      <trkpt lat="43.50842" lon="6.66799">
        <ele>100.8</ele>
        <time>2025-10-26T08:53:34Z</time>
      </trkpt>
      <trkpt lat="43.50843" lon="6.66799">
        <ele>100.9</ele>
        <time>2025-10-26T08:53:35Z</time>
      </trkpt>
      <trkpt lat="43.50844" lon="6.668">
        <ele>100.9</ele>
        <time>2025-10-26T08:53:36Z</time>
      </trkpt>
      <trkpt lat="43.50845" lon="6.668">
        <ele>100.9</ele>
        <time>2025-10-26T08:53:37Z</time>
      </trkpt>
      <trkpt lat="43.50846" lon="6.668">
        <ele>101</ele>
        <time>2025-10-26T08:53:38Z</time>
      </trkpt>
      <trkpt lat="43.50847" lon="6.668">
        <ele>101</ele>
        <time>2025-10-26T08:53:39Z</time>
      </trkpt>
      <trkpt lat="43.50848" lon="6.668">
        <ele>101</ele>
        <time>2025-10-26T08:53:40Z</time>
      </trkpt>
      <trkpt lat="43.50849" lon="6.66801">
        <ele>101.1</ele>
        <time>2025-10-26T08:53:41Z</time>
      </trkpt>
      <trkpt lat="43.5085" lon="6.66802">
        <ele>101.1</ele>
        <time>2025-10-26T08:53:42Z</time>
      </trkpt>
      <trkpt lat="43.50851" lon="6.66802">
        <ele>101.2</ele>
        <time>2025-10-26T08:53:43Z</time>
      </trkpt>
      <trkpt lat="43.50852" lon="6.66802">
        <ele>101.2</ele>
        <time>2025-10-26T08:53:44Z</time>
      </trkpt>
      <trkpt lat="43.50853" lon="6.66802">
        <ele>101.3</ele>
        <time>2025-10-26T08:53:45Z</time>
      </trkpt>
      <trkpt lat="43.50854" lon="6.66802">
        <ele>101.3</ele>
        <time>2025-10-26T08:53:46Z</time>
      </trkpt>
      <trkpt lat="43.50855" lon="6.66802">
        <ele>101.4</ele>
        <time>2025-10-26T08:53:47Z</time>
      </trkpt>
      <trkpt lat="43.50856" lon="6.66802">
        <ele>101.5</ele>
        <time>2025-10-26T08:53:48Z</time>
      </trkpt>
      <trkpt lat="43.50858" lon="6.66802">
        <ele>101.6</ele>
        <time>2025-10-26T08:53:49Z</time>
      </trkpt>
      <trkpt lat="43.50859" lon="6.66801">
        <ele>101.7</ele>
        <time>2025-10-26T08:53:50Z</time>
      </trkpt>
      <trkpt lat="43.5086" lon="6.66801">
        <ele>101.7</ele>
        <time>2025-10-26T08:53:51Z</time>
      </trkpt>
      <trkpt lat="43.50861" lon="6.66801">
        <ele>101.8</ele>
        <time>2025-10-26T08:53:52Z</time>
      </trkpt>
      <trkpt lat="43.50862" lon="6.66801">
        <ele>101.9</ele>
        <time>2025-10-26T08:53:53Z</time>
      </trkpt>
      <trkpt lat="43.50863" lon="6.66801">
        <ele>102</ele>
        <time>2025-10-26T08:53:54Z</time>
      </trkpt>
      <trkpt lat="43.50864" lon="6.66801">
        <ele>102.1</ele>
        <time>2025-10-26T08:53:55Z</time>
      </trkpt>
      <trkpt lat="43.50865" lon="6.66801">
        <ele>102.3</ele>
        <time>2025-10-26T08:53:56Z</time>
      </trkpt>
      <trkpt lat="43.50866" lon="6.66801">
        <ele>102.4</ele>
        <time>2025-10-26T08:53:57Z</time>
      </trkpt>
      <trkpt lat="43.50867" lon="6.66801">
        <ele>102.6</ele>
        <time>2025-10-26T08:53:58Z</time>
      </trkpt>
      <trkpt lat="43.50869" lon="6.66801">
        <ele>102.7</ele>
        <time>2025-10-26T08:53:59Z</time>
      </trkpt>
      <trkpt lat="43.5087" lon="6.66801">
        <ele>102.8</ele>
        <time>2025-10-26T08:54:00Z</time>
      </trkpt>
      <trkpt lat="43.50871" lon="6.66801">
        <ele>102.9</ele>
        <time>2025-10-26T08:54:01Z</time>
      </trkpt>
      <trkpt lat="43.50872" lon="6.66801">
        <ele>102.9</ele>
        <time>2025-10-26T08:54:02Z</time>
      </trkpt>
      <trkpt lat="43.50873" lon="6.66801">
        <ele>102.9</ele>
        <time>2025-10-26T08:54:03Z</time>
      </trkpt>
      <trkpt lat="43.50874" lon="6.66801">
        <ele>102.9</ele>
        <time>2025-10-26T08:54:04Z</time>
      </trkpt>
      <trkpt lat="43.50875" lon="6.66801">
        <ele>103</ele>
        <time>2025-10-26T08:54:05Z</time>
      </trkpt>
      <trkpt lat="43.50876" lon="6.66801">
        <ele>103</ele>
        <time>2025-10-26T08:54:06Z</time>
      </trkpt>
      <trkpt lat="43.50878" lon="6.66802">
        <ele>103</ele>
        <time>2025-10-26T08:54:07Z</time>
      </trkpt>
      <trkpt lat="43.50879" lon="6.66802">
        <ele>103</ele>
        <time>2025-10-26T08:54:08Z</time>
      </trkpt>
      <trkpt lat="43.5088" lon="6.66802">
        <ele>103</ele>
        <time>2025-10-26T08:54:09Z</time>
      </trkpt>
      <trkpt lat="43.50881" lon="6.66802">
        <ele>103</ele>
        <time>2025-10-26T08:54:10Z</time>
      </trkpt>
      <trkpt lat="43.50883" lon="6.66802">
        <ele>103</ele>
        <time>2025-10-26T08:54:11Z</time>
      </trkpt>
      <trkpt lat="43.50883" lon="6.66802">
        <ele>103.1</ele>
        <time>2025-10-26T08:54:12Z</time>
      </trkpt>
      <trkpt lat="43.50884" lon="6.66803">
        <ele>103.1</ele>
        <time>2025-10-26T08:54:13Z</time>
      </trkpt>
      <trkpt lat="43.50885" lon="6.66803">
        <ele>103.2</ele>
        <time>2025-10-26T08:54:14Z</time>
      </trkpt>
      <trkpt lat="43.50887" lon="6.66803">
        <ele>103.2</ele>
        <time>2025-10-26T08:54:15Z</time>
      </trkpt>
      <trkpt lat="43.50888" lon="6.66803">
        <ele>103.3</ele>
        <time>2025-10-26T08:54:16Z</time>
      </trkpt>
      <trkpt lat="43.50889" lon="6.66804">
        <ele>103.2</ele>
        <time>2025-10-26T08:54:17Z</time>
      </trkpt>
      <trkpt lat="43.5089" lon="6.66804">
        <ele>103.3</ele>
        <time>2025-10-26T08:54:18Z</time>
      </trkpt>
      <trkpt lat="43.50891" lon="6.66804">
        <ele>103.5</ele>
        <time>2025-10-26T08:54:19Z</time>
      </trkpt>
      <trkpt lat="43.50892" lon="6.66804">
        <ele>103.6</ele>
        <time>2025-10-26T08:54:20Z</time>
      </trkpt>
      <trkpt lat="43.50893" lon="6.66804">
        <ele>103.6</ele>
        <time>2025-10-26T08:54:21Z</time>
      </trkpt>
      <trkpt lat="43.50894" lon="6.66804">
        <ele>103.7</ele>
        <time>2025-10-26T08:54:22Z</time>
      </trkpt>
      <trkpt lat="43.50895" lon="6.66805">
        <ele>103.6</ele>
        <time>2025-10-26T08:54:23Z</time>
      </trkpt>
      <trkpt lat="43.50896" lon="6.66805">
        <ele>103.6</ele>
        <time>2025-10-26T08:54:24Z</time>
      </trkpt>
      <trkpt lat="43.50897" lon="6.66805">
        <ele>103.6</ele>
        <time>2025-10-26T08:54:25Z</time>
      </trkpt>
      <trkpt lat="43.50898" lon="6.66806">
        <ele>103.7</ele>
        <time>2025-10-26T08:54:26Z</time>
      </trkpt>
      <trkpt lat="43.509" lon="6.66806">
        <ele>103.5</ele>
        <time>2025-10-26T08:54:27Z</time>
      </trkpt>
      <trkpt lat="43.50901" lon="6.66806">
        <ele>103.4</ele>
        <time>2025-10-26T08:54:28Z</time>
      </trkpt>
      <trkpt lat="43.50902" lon="6.66806">
        <ele>103.7</ele>
        <time>2025-10-26T08:54:29Z</time>
      </trkpt>
      <trkpt lat="43.50903" lon="6.66806">
        <ele>103.9</ele>
        <time>2025-10-26T08:54:30Z</time>
      </trkpt>
      <trkpt lat="43.50905" lon="6.66805">
        <ele>104</ele>
        <time>2025-10-26T08:54:31Z</time>
      </trkpt>
      <trkpt lat="43.50906" lon="6.66805">
        <ele>104.2</ele>
        <time>2025-10-26T08:54:32Z</time>
      </trkpt>
      <trkpt lat="43.50907" lon="6.66806">
        <ele>104.3</ele>
        <time>2025-10-26T08:54:33Z</time>
      </trkpt>
      <trkpt lat="43.50908" lon="6.66805">
        <ele>104.4</ele>
        <time>2025-10-26T08:54:34Z</time>
      </trkpt>
      <trkpt lat="43.50909" lon="6.66805">
        <ele>104.5</ele>
        <time>2025-10-26T08:54:35Z</time>
      </trkpt>
      <trkpt lat="43.5091" lon="6.66805">
        <ele>104.5</ele>
        <time>2025-10-26T08:54:36Z</time>
      </trkpt>
      <trkpt lat="43.50911" lon="6.66805">
        <ele>104.7</ele>
        <time>2025-10-26T08:54:37Z</time>
      </trkpt>
      <trkpt lat="43.50912" lon="6.66805">
        <ele>104.8</ele>
        <time>2025-10-26T08:54:38Z</time>
      </trkpt>
      <trkpt lat="43.50913" lon="6.66805">
        <ele>104.9</ele>
        <time>2025-10-26T08:54:39Z</time>
      </trkpt>
      <trkpt lat="43.50914" lon="6.66805">
        <ele>104.9</ele>
        <time>2025-10-26T08:54:40Z</time>
      </trkpt>
      <trkpt lat="43.50915" lon="6.66805">
        <ele>104.8</ele>
        <time>2025-10-26T08:54:41Z</time>
      </trkpt>
      <trkpt lat="43.50916" lon="6.66805">
        <ele>104.9</ele>
        <time>2025-10-26T08:54:42Z</time>
      </trkpt>
      <trkpt lat="43.50917" lon="6.66804">
        <ele>104.9</ele>
        <time>2025-10-26T08:54:43Z</time>
      </trkpt>
      <trkpt lat="43.50918" lon="6.66804">
        <ele>104.9</ele>
        <time>2025-10-26T08:54:44Z</time>
      </trkpt>
      <trkpt lat="43.50919" lon="6.66804">
        <ele>105</ele>
        <time>2025-10-26T08:54:45Z</time>
      </trkpt>
      <trkpt lat="43.5092" lon="6.66804">
        <ele>105</ele>
        <time>2025-10-26T08:54:46Z</time>
      </trkpt>
      <trkpt lat="43.50921" lon="6.66804">
        <ele>105</ele>
        <time>2025-10-26T08:54:47Z</time>
      </trkpt>
      <trkpt lat="43.50922" lon="6.66803">
        <ele>105</ele>
        <time>2025-10-26T08:54:48Z</time>
      </trkpt>
      <trkpt lat="43.50923" lon="6.66802">
        <ele>105</ele>
        <time>2025-10-26T08:54:49Z</time>
      </trkpt>
      <trkpt lat="43.50925" lon="6.66802">
        <ele>105.1</ele>
        <time>2025-10-26T08:54:50Z</time>
      </trkpt>
      <trkpt lat="43.50926" lon="6.66802">
        <ele>105.2</ele>
        <time>2025-10-26T08:54:51Z</time>
      </trkpt>
      <trkpt lat="43.50927" lon="6.66802">
        <ele>105.3</ele>
        <time>2025-10-26T08:54:52Z</time>
      </trkpt>
      <trkpt lat="43.50928" lon="6.66801">
        <ele>105.4</ele>
        <time>2025-10-26T08:54:53Z</time>
      </trkpt>
      <trkpt lat="43.50929" lon="6.66801">
        <ele>105.4</ele>
        <time>2025-10-26T08:54:54Z</time>
      </trkpt>
      <trkpt lat="43.50931" lon="6.66801">
        <ele>105.5</ele>
        <time>2025-10-26T08:54:55Z</time>
      </trkpt>
      <trkpt lat="43.50932" lon="6.66801">
        <ele>105.5</ele>
        <time>2025-10-26T08:54:56Z</time>
      </trkpt>
      <trkpt lat="43.50933" lon="6.66801">
        <ele>105.6</ele>
        <time>2025-10-26T08:54:57Z</time>
      </trkpt>
      <trkpt lat="43.50934" lon="6.66801">
        <ele>105.6</ele>
        <time>2025-10-26T08:54:58Z</time>
      </trkpt>
      <trkpt lat="43.50935" lon="6.668">
        <ele>105.5</ele>
        <time>2025-10-26T08:54:59Z</time>
      </trkpt>
      <trkpt lat="43.50936" lon="6.668">
        <ele>105.7</ele>
        <time>2025-10-26T08:55:00Z</time>
      </trkpt>
      <trkpt lat="43.50937" lon="6.668">
        <ele>105.7</ele>
        <time>2025-10-26T08:55:01Z</time>
      </trkpt>
      <trkpt lat="43.50939" lon="6.668">
        <ele>105.7</ele>
        <time>2025-10-26T08:55:02Z</time>
      </trkpt>
      <trkpt lat="43.5094" lon="6.668">
        <ele>105.7</ele>
        <time>2025-10-26T08:55:03Z</time>
      </trkpt>
      <trkpt lat="43.50941" lon="6.66799">
        <ele>105.8</ele>
        <time>2025-10-26T08:55:04Z</time>
      </trkpt>
      <trkpt lat="43.50942" lon="6.66799">
        <ele>105.8</ele>
        <time>2025-10-26T08:55:05Z</time>
      </trkpt>
      <trkpt lat="43.50944" lon="6.66799">
        <ele>105.8</ele>
        <time>2025-10-26T08:55:06Z</time>
      </trkpt>
      <trkpt lat="43.50945" lon="6.66799">
        <ele>105.9</ele>
        <time>2025-10-26T08:55:07Z</time>
      </trkpt>
      <trkpt lat="43.50946" lon="6.66799">
        <ele>106</ele>
        <time>2025-10-26T08:55:08Z</time>
      </trkpt>
      <trkpt lat="43.50947" lon="6.66799">
        <ele>106.1</ele>
        <time>2025-10-26T08:55:09Z</time>
      </trkpt>
      <trkpt lat="43.50948" lon="6.66798">
        <ele>106.3</ele>
        <time>2025-10-26T08:55:10Z</time>
      </trkpt>
      <trkpt lat="43.50949" lon="6.66798">
        <ele>106.3</ele>
        <time>2025-10-26T08:55:11Z</time>
      </trkpt>
      <trkpt lat="43.5095" lon="6.66799">
        <ele>106.4</ele>
        <time>2025-10-26T08:55:12Z</time>
      </trkpt>
      <trkpt lat="43.50952" lon="6.66798">
        <ele>106.5</ele>
        <time>2025-10-26T08:55:13Z</time>
      </trkpt>
      <trkpt lat="43.50952" lon="6.66798">
        <ele>106.7</ele>
        <time>2025-10-26T08:55:14Z</time>
      </trkpt>
      <trkpt lat="43.50953" lon="6.66799">
        <ele>106.8</ele>
        <time>2025-10-26T08:55:15Z</time>
      </trkpt>
      <trkpt lat="43.50954" lon="6.66798">
        <ele>106.9</ele>
        <time>2025-10-26T08:55:16Z</time>
      </trkpt>
      <trkpt lat="43.50955" lon="6.66798">
        <ele>107</ele>
        <time>2025-10-26T08:55:17Z</time>
      </trkpt>
      <trkpt lat="43.50956" lon="6.66798">
        <ele>107.1</ele>
        <time>2025-10-26T08:55:18Z</time>
      </trkpt>
      <trkpt lat="43.50957" lon="6.66797">
        <ele>107.2</ele>
        <time>2025-10-26T08:55:19Z</time>
      </trkpt>
      <trkpt lat="43.50958" lon="6.66797">
        <ele>107.2</ele>
        <time>2025-10-26T08:55:20Z</time>
      </trkpt>
      <trkpt lat="43.50959" lon="6.66797">
        <ele>107.2</ele>
        <time>2025-10-26T08:55:21Z</time>
      </trkpt>
      <trkpt lat="43.5096" lon="6.66797">
        <ele>107.3</ele>
        <time>2025-10-26T08:55:22Z</time>
      </trkpt>
      <trkpt lat="43.50962" lon="6.66796">
        <ele>107.4</ele>
        <time>2025-10-26T08:55:23Z</time>
      </trkpt>
      <trkpt lat="43.50963" lon="6.66796">
        <ele>107.4</ele>
        <time>2025-10-26T08:55:24Z</time>
      </trkpt>
      <trkpt lat="43.50964" lon="6.66797">
        <ele>107.4</ele>
        <time>2025-10-26T08:55:25Z</time>
      </trkpt>
      <trkpt lat="43.50965" lon="6.66796">
        <ele>107.5</ele>
        <time>2025-10-26T08:55:26Z</time>
      </trkpt>
      <trkpt lat="43.50967" lon="6.66796">
        <ele>107.6</ele>
        <time>2025-10-26T08:55:27Z</time>
      </trkpt>
      <trkpt lat="43.50967" lon="6.66796">
        <ele>107.6</ele>
        <time>2025-10-26T08:55:28Z</time>
      </trkpt>
      <trkpt lat="43.50968" lon="6.66796">
        <ele>107.7</ele>
        <time>2025-10-26T08:55:29Z</time>
      </trkpt>
      <trkpt lat="43.50969" lon="6.66796">
        <ele>107.8</ele>
        <time>2025-10-26T08:55:30Z</time>
      </trkpt>
      <trkpt lat="43.5097" lon="6.66796">
        <ele>107.8</ele>
        <time>2025-10-26T08:55:31Z</time>
      </trkpt>
      <trkpt lat="43.50971" lon="6.66796">
        <ele>107.8</ele>
        <time>2025-10-26T08:55:32Z</time>
      </trkpt>
      <trkpt lat="43.50972" lon="6.66796">
        <ele>107.8</ele>
        <time>2025-10-26T08:55:33Z</time>
      </trkpt>
      <trkpt lat="43.50974" lon="6.66796">
        <ele>107.8</ele>
        <time>2025-10-26T08:55:34Z</time>
      </trkpt>
      <trkpt lat="43.50975" lon="6.66797">
        <ele>107.8</ele>
        <time>2025-10-26T08:55:35Z</time>
      </trkpt>
      <trkpt lat="43.50976" lon="6.66797">
        <ele>107.9</ele>
        <time>2025-10-26T08:55:36Z</time>
      </trkpt>
      <trkpt lat="43.50977" lon="6.66797">
        <ele>107.9</ele>
        <time>2025-10-26T08:55:37Z</time>
      </trkpt>
      <trkpt lat="43.50979" lon="6.66797">
        <ele>107.9</ele>
        <time>2025-10-26T08:55:38Z</time>
      </trkpt>
      <trkpt lat="43.50979" lon="6.66797">
        <ele>108</ele>
        <time>2025-10-26T08:55:39Z</time>
      </trkpt>
      <trkpt lat="43.5098" lon="6.66797">
        <ele>108</ele>
        <time>2025-10-26T08:55:40Z</time>
      </trkpt>
      <trkpt lat="43.50982" lon="6.66796">
        <ele>108.1</ele>
        <time>2025-10-26T08:55:41Z</time>
      </trkpt>
      <trkpt lat="43.50983" lon="6.66796">
        <ele>108.2</ele>
        <time>2025-10-26T08:55:42Z</time>
      </trkpt>
      <trkpt lat="43.50984" lon="6.66795">
        <ele>108.2</ele>
        <time>2025-10-26T08:55:43Z</time>
      </trkpt>
      <trkpt lat="43.50985" lon="6.66796">
        <ele>108.3</ele>
        <time>2025-10-26T08:55:44Z</time>
      </trkpt>
      <trkpt lat="43.50986" lon="6.66796">
        <ele>108.4</ele>
        <time>2025-10-26T08:55:45Z</time>
      </trkpt>
      <trkpt lat="43.50988" lon="6.66796">
        <ele>108.5</ele>
        <time>2025-10-26T08:55:46Z</time>
      </trkpt>
      <trkpt lat="43.50989" lon="6.66796">
        <ele>108.6</ele>
        <time>2025-10-26T08:55:47Z</time>
      </trkpt>
      <trkpt lat="43.5099" lon="6.66795">
        <ele>108.6</ele>
        <time>2025-10-26T08:55:48Z</time>
      </trkpt>
      <trkpt lat="43.50991" lon="6.66796">
        <ele>108.7</ele>
        <time>2025-10-26T08:55:49Z</time>
      </trkpt>
      <trkpt lat="43.50992" lon="6.66796">
        <ele>108.8</ele>
        <time>2025-10-26T08:55:50Z</time>
      </trkpt>
      <trkpt lat="43.50994" lon="6.66796">
        <ele>108.8</ele>
        <time>2025-10-26T08:55:51Z</time>
      </trkpt>
      <trkpt lat="43.50995" lon="6.66796">
        <ele>109</ele>
        <time>2025-10-26T08:55:52Z</time>
      </trkpt>
      <trkpt lat="43.50996" lon="6.66796">
        <ele>109.2</ele>
        <time>2025-10-26T08:55:53Z</time>
      </trkpt>
      <trkpt lat="43.50997" lon="6.66797">
        <ele>109.4</ele>
        <time>2025-10-26T08:55:54Z</time>
      </trkpt>
      <trkpt lat="43.50998" lon="6.66796">
        <ele>109.5</ele>
        <time>2025-10-26T08:55:55Z</time>
      </trkpt>
      <trkpt lat="43.50999" lon="6.66796">
        <ele>109.5</ele>
        <time>2025-10-26T08:55:56Z</time>
      </trkpt>
      <trkpt lat="43.51" lon="6.66796">
        <ele>109.6</ele>
        <time>2025-10-26T08:55:57Z</time>
      </trkpt>
      <trkpt lat="43.51001" lon="6.66797">
        <ele>109.7</ele>
        <time>2025-10-26T08:55:58Z</time>
      </trkpt>
      <trkpt lat="43.51002" lon="6.66797">
        <ele>109.8</ele>
        <time>2025-10-26T08:55:59Z</time>
      </trkpt>
      <trkpt lat="43.51003" lon="6.66797">
        <ele>109.8</ele>
        <time>2025-10-26T08:56:00Z</time>
      </trkpt>
      <trkpt lat="43.51004" lon="6.66797">
        <ele>109.7</ele>
        <time>2025-10-26T08:56:01Z</time>
      </trkpt>
      <trkpt lat="43.51005" lon="6.66798">
        <ele>109.8</ele>
        <time>2025-10-26T08:56:02Z</time>
      </trkpt>
      <trkpt lat="43.51006" lon="6.66797">
        <ele>109.8</ele>
        <time>2025-10-26T08:56:03Z</time>
      </trkpt>
      <trkpt lat="43.51008" lon="6.66798">
        <ele>109.7</ele>
        <time>2025-10-26T08:56:04Z</time>
      </trkpt>
      <trkpt lat="43.51009" lon="6.66798">
        <ele>109.7</ele>
        <time>2025-10-26T08:56:05Z</time>
      </trkpt>
      <trkpt lat="43.5101" lon="6.66798">
        <ele>109.8</ele>
        <time>2025-10-26T08:56:06Z</time>
      </trkpt>
      <trkpt lat="43.51011" lon="6.66798">
        <ele>109.9</ele>
        <time>2025-10-26T08:56:07Z</time>
      </trkpt>
      <trkpt lat="43.51012" lon="6.66799">
        <ele>110</ele>
        <time>2025-10-26T08:56:08Z</time>
      </trkpt>
      <trkpt lat="43.51013" lon="6.66799">
        <ele>110.1</ele>
        <time>2025-10-26T08:56:09Z</time>
      </trkpt>
      <trkpt lat="43.51014" lon="6.668">
        <ele>110.1</ele>
        <time>2025-10-26T08:56:10Z</time>
      </trkpt>
      <trkpt lat="43.51015" lon="6.668">
        <ele>110.1</ele>
        <time>2025-10-26T08:56:11Z</time>
      </trkpt>
      <trkpt lat="43.51016" lon="6.668">
        <ele>110.2</ele>
        <time>2025-10-26T08:56:12Z</time>
      </trkpt>
      <trkpt lat="43.51017" lon="6.668">
        <ele>110.4</ele>
        <time>2025-10-26T08:56:13Z</time>
      </trkpt>
      <trkpt lat="43.51018" lon="6.66801">
        <ele>110.5</ele>
        <time>2025-10-26T08:56:14Z</time>
      </trkpt>
      <trkpt lat="43.51019" lon="6.66801">
        <ele>110.6</ele>
        <time>2025-10-26T08:56:15Z</time>
      </trkpt>
      <trkpt lat="43.5102" lon="6.66802">
        <ele>110.7</ele>
        <time>2025-10-26T08:56:16Z</time>
      </trkpt>
      <trkpt lat="43.51021" lon="6.66802">
        <ele>110.8</ele>
        <time>2025-10-26T08:56:17Z</time>
      </trkpt>
      <trkpt lat="43.51022" lon="6.66803">
        <ele>110.9</ele>
        <time>2025-10-26T08:56:18Z</time>
      </trkpt>
      <trkpt lat="43.51023" lon="6.66803">
        <ele>111</ele>
        <time>2025-10-26T08:56:19Z</time>
      </trkpt>
      <trkpt lat="43.51025" lon="6.66803">
        <ele>111</ele>
        <time>2025-10-26T08:56:20Z</time>
      </trkpt>
      <trkpt lat="43.51026" lon="6.66803">
        <ele>110.9</ele>
        <time>2025-10-26T08:56:21Z</time>
      </trkpt>
      <trkpt lat="43.51027" lon="6.66803">
        <ele>110.9</ele>
        <time>2025-10-26T08:56:22Z</time>
      </trkpt>
      <trkpt lat="43.51028" lon="6.66804">
        <ele>110.9</ele>
        <time>2025-10-26T08:56:23Z</time>
      </trkpt>
      <trkpt lat="43.51029" lon="6.66804">
        <ele>111</ele>
        <time>2025-10-26T08:56:24Z</time>
      </trkpt>
      <trkpt lat="43.5103" lon="6.66803">
        <ele>111.1</ele>
        <time>2025-10-26T08:56:25Z</time>
      </trkpt>
      <trkpt lat="43.51031" lon="6.66804">
        <ele>111.3</ele>
        <time>2025-10-26T08:56:26Z</time>
      </trkpt>
      <trkpt lat="43.51032" lon="6.66804">
        <ele>111.4</ele>
        <time>2025-10-26T08:56:27Z</time>
      </trkpt>
      <trkpt lat="43.51034" lon="6.66803">
        <ele>111.4</ele>
        <time>2025-10-26T08:56:28Z</time>
      </trkpt>
      <trkpt lat="43.51035" lon="6.66803">
        <ele>111.4</ele>
        <time>2025-10-26T08:56:29Z</time>
      </trkpt>
      <trkpt lat="43.51036" lon="6.66803">
        <ele>111.5</ele>
        <time>2025-10-26T08:56:30Z</time>
      </trkpt>
      <trkpt lat="43.51038" lon="6.66802">
        <ele>111.5</ele>
        <time>2025-10-26T08:56:31Z</time>
      </trkpt>
      <trkpt lat="43.51039" lon="6.66802">
        <ele>111.5</ele>
        <time>2025-10-26T08:56:32Z</time>
      </trkpt>
      <trkpt lat="43.5104" lon="6.66802">
        <ele>111.6</ele>
        <time>2025-10-26T08:56:33Z</time>
      </trkpt>
      <trkpt lat="43.51042" lon="6.66802">
        <ele>111.8</ele>
        <time>2025-10-26T08:56:34Z</time>
      </trkpt>
      <trkpt lat="43.51043" lon="6.66802">
        <ele>112</ele>
        <time>2025-10-26T08:56:35Z</time>
      </trkpt>
      <trkpt lat="43.51044" lon="6.66802">
        <ele>112.2</ele>
        <time>2025-10-26T08:56:36Z</time>
      </trkpt>
      <trkpt lat="43.51045" lon="6.66803">
        <ele>112.2</ele>
        <time>2025-10-26T08:56:37Z</time>
      </trkpt>
      <trkpt lat="43.51046" lon="6.66803">
        <ele>112.3</ele>
        <time>2025-10-26T08:56:38Z</time>
      </trkpt>
      <trkpt lat="43.51048" lon="6.66803">
        <ele>112.3</ele>
        <time>2025-10-26T08:56:39Z</time>
      </trkpt>
      <trkpt lat="43.51049" lon="6.66803">
        <ele>112.3</ele>
        <time>2025-10-26T08:56:40Z</time>
      </trkpt>
      <trkpt lat="43.5105" lon="6.66803">
        <ele>112.3</ele>
        <time>2025-10-26T08:56:41Z</time>
      </trkpt>
      <trkpt lat="43.51051" lon="6.66803">
        <ele>112.3</ele>
        <time>2025-10-26T08:56:42Z</time>
      </trkpt>
      <trkpt lat="43.51052" lon="6.66803">
        <ele>112.4</ele>
        <time>2025-10-26T08:56:43Z</time>
      </trkpt>
      <trkpt lat="43.51053" lon="6.66803">
        <ele>112.4</ele>
        <time>2025-10-26T08:56:44Z</time>
      </trkpt>
      <trkpt lat="43.51054" lon="6.66803">
        <ele>112.4</ele>
        <time>2025-10-26T08:56:45Z</time>
      </trkpt>
      <trkpt lat="43.51055" lon="6.66803">
        <ele>112.5</ele>
        <time>2025-10-26T08:56:46Z</time>
      </trkpt>
      <trkpt lat="43.51056" lon="6.66803">
        <ele>112.6</ele>
        <time>2025-10-26T08:56:47Z</time>
      </trkpt>
      <trkpt lat="43.51058" lon="6.66803">
        <ele>112.8</ele>
        <time>2025-10-26T08:56:48Z</time>
      </trkpt>
      <trkpt lat="43.51059" lon="6.66803">
        <ele>112.9</ele>
        <time>2025-10-26T08:56:49Z</time>
      </trkpt>
      <trkpt lat="43.5106" lon="6.66803">
        <ele>112.9</ele>
        <time>2025-10-26T08:56:50Z</time>
      </trkpt>
      <trkpt lat="43.51061" lon="6.66803">
        <ele>112.9</ele>
        <time>2025-10-26T08:56:51Z</time>
      </trkpt>
      <trkpt lat="43.51062" lon="6.66803">
        <ele>113</ele>
        <time>2025-10-26T08:56:52Z</time>
      </trkpt>
      <trkpt lat="43.51064" lon="6.66803">
        <ele>113</ele>
        <time>2025-10-26T08:56:53Z</time>
      </trkpt>
      <trkpt lat="43.51065" lon="6.66803">
        <ele>113.1</ele>
        <time>2025-10-26T08:56:54Z</time>
      </trkpt>
      <trkpt lat="43.51066" lon="6.66803">
        <ele>113.1</ele>
        <time>2025-10-26T08:56:55Z</time>
      </trkpt>
      <trkpt lat="43.51067" lon="6.66803">
        <ele>113.2</ele>
        <time>2025-10-26T08:56:56Z</time>
      </trkpt>
      <trkpt lat="43.51068" lon="6.66803">
        <ele>113.3</ele>
        <time>2025-10-26T08:56:57Z</time>
      </trkpt>
      <trkpt lat="43.51069" lon="6.66803">
        <ele>113.3</ele>
        <time>2025-10-26T08:56:58Z</time>
      </trkpt>
      <trkpt lat="43.5107" lon="6.66804">
        <ele>113.4</ele>
        <time>2025-10-26T08:56:59Z</time>
      </trkpt>
      <trkpt lat="43.51072" lon="6.66804">
        <ele>113.5</ele>
        <time>2025-10-26T08:57:00Z</time>
      </trkpt>
      <trkpt lat="43.51073" lon="6.66804">
        <ele>113.6</ele>
        <time>2025-10-26T08:57:01Z</time>
      </trkpt>
      <trkpt lat="43.51074" lon="6.66805">
        <ele>113.6</ele>
        <time>2025-10-26T08:57:02Z</time>
      </trkpt>
      <trkpt lat="43.51074" lon="6.66806">
        <ele>113.6</ele>
        <time>2025-10-26T08:57:03Z</time>
      </trkpt>
      <trkpt lat="43.51075" lon="6.66807">
        <ele>113.7</ele>
        <time>2025-10-26T08:57:04Z</time>
      </trkpt>
      <trkpt lat="43.51076" lon="6.66808">
        <ele>113.8</ele>
        <time>2025-10-26T08:57:05Z</time>
      </trkpt>
      <trkpt lat="43.51076" lon="6.6681">
        <ele>113.9</ele>
        <time>2025-10-26T08:57:06Z</time>
      </trkpt>
      <trkpt lat="43.51077" lon="6.6681">
        <ele>113.9</ele>
        <time>2025-10-26T08:57:07Z</time>
      </trkpt>
      <trkpt lat="43.51079" lon="6.66811">
        <ele>114</ele>
        <time>2025-10-26T08:57:08Z</time>
      </trkpt>
      <trkpt lat="43.5108" lon="6.66812">
        <ele>113.9</ele>
        <time>2025-10-26T08:57:09Z</time>
      </trkpt>
      <trkpt lat="43.51081" lon="6.66812">
        <ele>113.9</ele>
        <time>2025-10-26T08:57:10Z</time>
      </trkpt>
      <trkpt lat="43.51082" lon="6.66813">
        <ele>113.9</ele>
        <time>2025-10-26T08:57:11Z</time>
      </trkpt>
      <trkpt lat="43.51083" lon="6.66813">
        <ele>114</ele>
        <time>2025-10-26T08:57:12Z</time>
      </trkpt>
      <trkpt lat="43.51084" lon="6.66814">
        <ele>113.9</ele>
        <time>2025-10-26T08:57:13Z</time>
      </trkpt>
      <trkpt lat="43.51085" lon="6.66815">
        <ele>114</ele>
        <time>2025-10-26T08:57:14Z</time>
      </trkpt>
      <trkpt lat="43.51086" lon="6.66816">
        <ele>114.1</ele>
        <time>2025-10-26T08:57:15Z</time>
      </trkpt>
      <trkpt lat="43.51087" lon="6.66816">
        <ele>114.1</ele>
        <time>2025-10-26T08:57:16Z</time>
      </trkpt>
      <trkpt lat="43.51088" lon="6.66817">
        <ele>114.1</ele>
        <time>2025-10-26T08:57:17Z</time>
      </trkpt>
      <trkpt lat="43.51089" lon="6.66818">
        <ele>114.1</ele>
        <time>2025-10-26T08:57:18Z</time>
      </trkpt>
      <trkpt lat="43.5109" lon="6.66819">
        <ele>114.1</ele>
        <time>2025-10-26T08:57:19Z</time>
      </trkpt>
      <trkpt lat="43.51091" lon="6.6682">
        <ele>114.1</ele>
        <time>2025-10-26T08:57:20Z</time>
      </trkpt>
      <trkpt lat="43.51093" lon="6.6682">
        <ele>114.2</ele>
        <time>2025-10-26T08:57:21Z</time>
      </trkpt>
      <trkpt lat="43.51094" lon="6.66821">
        <ele>114.2</ele>
        <time>2025-10-26T08:57:22Z</time>
      </trkpt>
      <trkpt lat="43.51095" lon="6.66822">
        <ele>114.2</ele>
        <time>2025-10-26T08:57:23Z</time>
      </trkpt>
      <trkpt lat="43.51095" lon="6.66822">
        <ele>114.2</ele>
        <time>2025-10-26T08:57:24Z</time>
      </trkpt>
      <trkpt lat="43.51096" lon="6.66823">
        <ele>114.2</ele>
        <time>2025-10-26T08:57:25Z</time>
      </trkpt>
      <trkpt lat="43.51097" lon="6.66824">
        <ele>114.2</ele>
        <time>2025-10-26T08:57:26Z</time>
      </trkpt>
      <trkpt lat="43.51098" lon="6.66825">
        <ele>114.2</ele>
        <time>2025-10-26T08:57:27Z</time>
      </trkpt>
      <trkpt lat="43.51099" lon="6.66826">
        <ele>114.3</ele>
        <time>2025-10-26T08:57:28Z</time>
      </trkpt>
      <trkpt lat="43.511" lon="6.66826">
        <ele>114.4</ele>
        <time>2025-10-26T08:57:29Z</time>
      </trkpt>
      <trkpt lat="43.51101" lon="6.66826">
        <ele>114.5</ele>
        <time>2025-10-26T08:57:30Z</time>
      </trkpt>
      <trkpt lat="43.51102" lon="6.66827">
        <ele>114.5</ele>
        <time>2025-10-26T08:57:31Z</time>
      </trkpt>
      <trkpt lat="43.51103" lon="6.66828">
        <ele>114.5</ele>
        <time>2025-10-26T08:57:32Z</time>
      </trkpt>
      <trkpt lat="43.51104" lon="6.66828">
        <ele>114.5</ele>
        <time>2025-10-26T08:57:33Z</time>
      </trkpt>
      <trkpt lat="43.51105" lon="6.66829">
        <ele>114.5</ele>
        <time>2025-10-26T08:57:34Z</time>
      </trkpt>
      <trkpt lat="43.51105" lon="6.6683">
        <ele>114.5</ele>
        <time>2025-10-26T08:57:35Z</time>
      </trkpt>
      <trkpt lat="43.51106" lon="6.6683">
        <ele>114.5</ele>
        <time>2025-10-26T08:57:36Z</time>
      </trkpt>
      <trkpt lat="43.51108" lon="6.66831">
        <ele>114.5</ele>
        <time>2025-10-26T08:57:37Z</time>
      </trkpt>
      <trkpt lat="43.51109" lon="6.66831">
        <ele>114.4</ele>
        <time>2025-10-26T08:57:38Z</time>
      </trkpt>
      <trkpt lat="43.51109" lon="6.66832">
        <ele>114.5</ele>
        <time>2025-10-26T08:57:39Z</time>
      </trkpt>
      <trkpt lat="43.5111" lon="6.66832">
        <ele>114.5</ele>
        <time>2025-10-26T08:57:40Z</time>
      </trkpt>
      <trkpt lat="43.51112" lon="6.66832">
        <ele>114.5</ele>
        <time>2025-10-26T08:57:41Z</time>
      </trkpt>
      <trkpt lat="43.51114" lon="6.66831">
        <ele>114.6</ele>
        <time>2025-10-26T08:57:42Z</time>
      </trkpt>
      <trkpt lat="43.51115" lon="6.66832">
        <ele>114.8</ele>
        <time>2025-10-26T08:57:43Z</time>
      </trkpt>
      <trkpt lat="43.51116" lon="6.66833">
        <ele>115</ele>
        <time>2025-10-26T08:57:44Z</time>
      </trkpt>
      <trkpt lat="43.51117" lon="6.66834">
        <ele>115.1</ele>
        <time>2025-10-26T08:57:45Z</time>
      </trkpt>
      <trkpt lat="43.51118" lon="6.66834">
        <ele>115.2</ele>
        <time>2025-10-26T08:57:46Z</time>
      </trkpt>
      <trkpt lat="43.51119" lon="6.66834">
        <ele>115.3</ele>
        <time>2025-10-26T08:57:47Z</time>
      </trkpt>
      <trkpt lat="43.5112" lon="6.66835">
        <ele>115.4</ele>
        <time>2025-10-26T08:57:48Z</time>
      </trkpt>
      <trkpt lat="43.51121" lon="6.66835">
        <ele>115.5</ele>
        <time>2025-10-26T08:57:49Z</time>
      </trkpt>
      <trkpt lat="43.51122" lon="6.66835">
        <ele>115.5</ele>
        <time>2025-10-26T08:57:50Z</time>
      </trkpt>
      <trkpt lat="43.51124" lon="6.66836">
        <ele>115.6</ele>
        <time>2025-10-26T08:57:51Z</time>
      </trkpt>
      <trkpt lat="43.51125" lon="6.66835">
        <ele>115.5</ele>
        <time>2025-10-26T08:57:52Z</time>
      </trkpt>
      <trkpt lat="43.51126" lon="6.66835">
        <ele>115.4</ele>
        <time>2025-10-26T08:57:53Z</time>
      </trkpt>
      <trkpt lat="43.51127" lon="6.66835">
        <ele>115.3</ele>
        <time>2025-10-26T08:57:54Z</time>
      </trkpt>
      <trkpt lat="43.51128" lon="6.66836">
        <ele>115.2</ele>
        <time>2025-10-26T08:57:55Z</time>
      </trkpt>
      <trkpt lat="43.51129" lon="6.66836">
        <ele>115.2</ele>
        <time>2025-10-26T08:57:56Z</time>
      </trkpt>
      <trkpt lat="43.5113" lon="6.66835">
        <ele>115.2</ele>
        <time>2025-10-26T08:57:57Z</time>
      </trkpt>
      <trkpt lat="43.5113" lon="6.66835">
        <ele>115.2</ele>
        <time>2025-10-26T08:57:58Z</time>
      </trkpt>
      <trkpt lat="43.5113" lon="6.66835">
        <ele>115.3</ele>
        <time>2025-10-26T08:57:59Z</time>
      </trkpt>
      <trkpt lat="43.5113" lon="6.66836">
        <ele>115.3</ele>
        <time>2025-10-26T08:58:00Z</time>
      </trkpt>
      <trkpt lat="43.51131" lon="6.66835">
        <ele>115.4</ele>
        <time>2025-10-26T08:58:01Z</time>
      </trkpt>
      <trkpt lat="43.51131" lon="6.66835">
        <ele>115.4</ele>
        <time>2025-10-26T08:58:02Z</time>
      </trkpt>
      <trkpt lat="43.51131" lon="6.66835">
        <ele>115.3</ele>
        <time>2025-10-26T08:58:03Z</time>
      </trkpt>
      <trkpt lat="43.51131" lon="6.66835">
        <ele>115.2</ele>
        <time>2025-10-26T08:58:04Z</time>
      </trkpt>
      <trkpt lat="43.51131" lon="6.66835">
        <ele>115.2</ele>
        <time>2025-10-26T08:58:05Z</time>
      </trkpt>
      <trkpt lat="43.51131" lon="6.66834">
        <ele>115.1</ele>
        <time>2025-10-26T08:58:06Z</time>
      </trkpt>
      <trkpt lat="43.51131" lon="6.66834">
        <ele>115.1</ele>
        <time>2025-10-26T08:58:07Z</time>
      </trkpt>
      <trkpt lat="43.51131" lon="6.66834">
        <ele>115.1</ele>
        <time>2025-10-26T08:58:08Z</time>
      </trkpt>
      <trkpt lat="43.51131" lon="6.66834">
        <ele>115.1</ele>
        <time>2025-10-26T08:58:09Z</time>
      </trkpt>
      <trkpt lat="43.51132" lon="6.66834">
        <ele>115.1</ele>
        <time>2025-10-26T08:58:10Z</time>
      </trkpt>
      <trkpt lat="43.51132" lon="6.66834">
        <ele>115.1</ele>
        <time>2025-10-26T08:58:11Z</time>
      </trkpt>
      <trkpt lat="43.51132" lon="6.66833">
        <ele>115.1</ele>
        <time>2025-10-26T08:58:12Z</time>
      </trkpt>
      <trkpt lat="43.51133" lon="6.66832">
        <ele>115.1</ele>
        <time>2025-10-26T08:58:13Z</time>
      </trkpt>
      <trkpt lat="43.51133" lon="6.66832">
        <ele>115</ele>
        <time>2025-10-26T08:58:14Z</time>
      </trkpt>
      <trkpt lat="43.51134" lon="6.66833">
        <ele>115</ele>
        <time>2025-10-26T08:58:15Z</time>
      </trkpt>
      <trkpt lat="43.51134" lon="6.66833">
        <ele>115</ele>
        <time>2025-10-26T08:58:16Z</time>
      </trkpt>
      <trkpt lat="43.51134" lon="6.66833">
        <ele>115</ele>
        <time>2025-10-26T08:58:17Z</time>
      </trkpt>
      <trkpt lat="43.51134" lon="6.66833">
        <ele>115</ele>
        <time>2025-10-26T08:58:18Z</time>
      </trkpt>
      <trkpt lat="43.51134" lon="6.66833">
        <ele>115.1</ele>
        <time>2025-10-26T08:58:19Z</time>
      </trkpt>
      <trkpt lat="43.51135" lon="6.66833">
        <ele>115.1</ele>
        <time>2025-10-26T08:58:20Z</time>
      </trkpt>
      <trkpt lat="43.51135" lon="6.66833">
        <ele>115.2</ele>
        <time>2025-10-26T08:58:21Z</time>
      </trkpt>
      <trkpt lat="43.51135" lon="6.66833">
        <ele>115.1</ele>
        <time>2025-10-26T08:58:22Z</time>
      </trkpt>
      <trkpt lat="43.51135" lon="6.66833">
        <ele>115.1</ele>
        <time>2025-10-26T08:58:23Z</time>
      </trkpt>
      <trkpt lat="43.51135" lon="6.66833">
        <ele>115</ele>
        <time>2025-10-26T08:58:24Z</time>
      </trkpt>
      <trkpt lat="43.51136" lon="6.66833">
        <ele>115</ele>
        <time>2025-10-26T08:58:25Z</time>
      </trkpt>
      <trkpt lat="43.51136" lon="6.66833">
        <ele>115</ele>
        <time>2025-10-26T08:58:26Z</time>
      </trkpt>
      <trkpt lat="43.51134" lon="6.66834">
        <ele>115.1</ele>
        <time>2025-10-26T08:58:27Z</time>
      </trkpt>
      <trkpt lat="43.51135" lon="6.66834">
        <ele>115.1</ele>
        <time>2025-10-26T08:58:28Z</time>
      </trkpt>
      <trkpt lat="43.51135" lon="6.66834">
        <ele>115.2</ele>
        <time>2025-10-26T08:58:29Z</time>
      </trkpt>
      <trkpt lat="43.51135" lon="6.66834">
        <ele>115.2</ele>
        <time>2025-10-26T08:58:30Z</time>
      </trkpt>
      <trkpt lat="43.51135" lon="6.66834">
        <ele>115.3</ele>
        <time>2025-10-26T08:58:31Z</time>
      </trkpt>
      <trkpt lat="43.51135" lon="6.66834">
        <ele>115.3</ele>
        <time>2025-10-26T08:58:32Z</time>
      </trkpt>
      <trkpt lat="43.51135" lon="6.66834">
        <ele>115.3</ele>
        <time>2025-10-26T08:58:33Z</time>
      </trkpt>
      <trkpt lat="43.51136" lon="6.66834">
        <ele>115.4</ele>
        <time>2025-10-26T08:58:34Z</time>
      </trkpt>
      <trkpt lat="43.51136" lon="6.66833">
        <ele>115.4</ele>
        <time>2025-10-26T08:58:35Z</time>
      </trkpt>
      <trkpt lat="43.51136" lon="6.66834">
        <ele>115.4</ele>
        <time>2025-10-26T08:58:36Z</time>
      </trkpt>
      <trkpt lat="43.51137" lon="6.66833">
        <ele>115.4</ele>
        <time>2025-10-26T08:58:37Z</time>
      </trkpt>
      <trkpt lat="43.51137" lon="6.66833">
        <ele>115.4</ele>
        <time>2025-10-26T08:58:38Z</time>
      </trkpt>
      <trkpt lat="43.51136" lon="6.66833">
        <ele>115.4</ele>
        <time>2025-10-26T08:58:39Z</time>
      </trkpt>
      <trkpt lat="43.51136" lon="6.66833">
        <ele>115.4</ele>
        <time>2025-10-26T08:58:40Z</time>
      </trkpt>
      <trkpt lat="43.51137" lon="6.66833">
        <ele>115.3</ele>
        <time>2025-10-26T08:58:41Z</time>
      </trkpt>
      <trkpt lat="43.51137" lon="6.66833">
        <ele>115.4</ele>
        <time>2025-10-26T08:58:42Z</time>
      </trkpt>
      <trkpt lat="43.51137" lon="6.66833">
        <ele>115.5</ele>
        <time>2025-10-26T08:58:43Z</time>
      </trkpt>
      <trkpt lat="43.51137" lon="6.66833">
        <ele>115.6</ele>
        <time>2025-10-26T08:58:44Z</time>
      </trkpt>
      <trkpt lat="43.51137" lon="6.66833">
        <ele>115.6</ele>
        <time>2025-10-26T08:58:45Z</time>
      </trkpt>
      <trkpt lat="43.51137" lon="6.66833">
        <ele>115.6</ele>
        <time>2025-10-26T08:58:46Z</time>
      </trkpt>
      <trkpt lat="43.51137" lon="6.66834">
        <ele>115.5</ele>
        <time>2025-10-26T08:58:47Z</time>
      </trkpt>
      <trkpt lat="43.51136" lon="6.66835">
        <ele>115.4</ele>
        <time>2025-10-26T08:58:48Z</time>
      </trkpt>
      <trkpt lat="43.51136" lon="6.66835">
        <ele>115.3</ele>
        <time>2025-10-26T08:58:49Z</time>
      </trkpt>
      <trkpt lat="43.51136" lon="6.66835">
        <ele>115.3</ele>
        <time>2025-10-26T08:58:50Z</time>
      </trkpt>
      <trkpt lat="43.51136" lon="6.66835">
        <ele>115.3</ele>
        <time>2025-10-26T08:58:51Z</time>
      </trkpt>
      <trkpt lat="43.51136" lon="6.66835">
        <ele>115.4</ele>
        <time>2025-10-26T08:58:52Z</time>
      </trkpt>
      <trkpt lat="43.51136" lon="6.66835">
        <ele>115.3</ele>
        <time>2025-10-26T08:58:53Z</time>
      </trkpt>
      <trkpt lat="43.51135" lon="6.66835">
        <ele>115.3</ele>
        <time>2025-10-26T08:58:54Z</time>
      </trkpt>
      <trkpt lat="43.51135" lon="6.66835">
        <ele>115.3</ele>
        <time>2025-10-26T08:58:55Z</time>
      </trkpt>
      <trkpt lat="43.51135" lon="6.66836">
        <ele>115.3</ele>
        <time>2025-10-26T08:58:56Z</time>
      </trkpt>
      <trkpt lat="43.51135" lon="6.66836">
        <ele>115.3</ele>
        <time>2025-10-26T08:58:57Z</time>
      </trkpt>
      <trkpt lat="43.51135" lon="6.66836">
        <ele>115.4</ele>
        <time>2025-10-26T08:58:58Z</time>
      </trkpt>
      <trkpt lat="43.51135" lon="6.66836">
        <ele>115.3</ele>
        <time>2025-10-26T08:58:59Z</time>
      </trkpt>
      <trkpt lat="43.51135" lon="6.66835">
        <ele>115.3</ele>
        <time>2025-10-26T08:59:00Z</time>
      </trkpt>
      <trkpt lat="43.51136" lon="6.66834">
        <ele>115.3</ele>
        <time>2025-10-26T08:59:01Z</time>
      </trkpt>
      <trkpt lat="43.51137" lon="6.66833">
        <ele>115.3</ele>
        <time>2025-10-26T08:59:02Z</time>
      </trkpt>
      <trkpt lat="43.51137" lon="6.66833">
        <ele>115.4</ele>
        <time>2025-10-26T08:59:03Z</time>
      </trkpt>
      <trkpt lat="43.51137" lon="6.66832">
        <ele>115.5</ele>
        <time>2025-10-26T08:59:04Z</time>
      </trkpt>
      <trkpt lat="43.51137" lon="6.66832">
        <ele>115.5</ele>
        <time>2025-10-26T08:59:05Z</time>
      </trkpt>
      <trkpt lat="43.51138" lon="6.66832">
        <ele>115.5</ele>
        <time>2025-10-26T08:59:06Z</time>
      </trkpt>
      <trkpt lat="43.51138" lon="6.66831">
        <ele>115.6</ele>
        <time>2025-10-26T08:59:07Z</time>
      </trkpt>
      <trkpt lat="43.51138" lon="6.66831">
        <ele>115.7</ele>
        <time>2025-10-26T08:59:08Z</time>
      </trkpt>
      <trkpt lat="43.51138" lon="6.66831">
        <ele>115.8</ele>
        <time>2025-10-26T08:59:09Z</time>
      </trkpt>
      <trkpt lat="43.51138" lon="6.6683">
        <ele>115.9</ele>
        <time>2025-10-26T08:59:10Z</time>
      </trkpt>
      <trkpt lat="43.51138" lon="6.6683">
        <ele>115.9</ele>
        <time>2025-10-26T08:59:11Z</time>
      </trkpt>
      <trkpt lat="43.51138" lon="6.6683">
        <ele>115.9</ele>
        <time>2025-10-26T08:59:12Z</time>
      </trkpt>
      <trkpt lat="43.51138" lon="6.6683">
        <ele>115.9</ele>
        <time>2025-10-26T08:59:13Z</time>
      </trkpt>
      <trkpt lat="43.51138" lon="6.6683">
        <ele>115.9</ele>
        <time>2025-10-26T08:59:14Z</time>
      </trkpt>
      <trkpt lat="43.51138" lon="6.6683">
        <ele>115.8</ele>
        <time>2025-10-26T08:59:15Z</time>
      </trkpt>
      <trkpt lat="43.51138" lon="6.66829">
        <ele>115.7</ele>
        <time>2025-10-26T08:59:16Z</time>
      </trkpt>
      <trkpt lat="43.51138" lon="6.6683">
        <ele>115.7</ele>
        <time>2025-10-26T08:59:17Z</time>
      </trkpt>
      <trkpt lat="43.51138" lon="6.6683">
        <ele>115.7</ele>
        <time>2025-10-26T08:59:18Z</time>
      </trkpt>
      <trkpt lat="43.51138" lon="6.66829">
        <ele>115.6</ele>
        <time>2025-10-26T08:59:19Z</time>
      </trkpt>
      <trkpt lat="43.51138" lon="6.66829">
        <ele>115.6</ele>
        <time>2025-10-26T08:59:20Z</time>
      </trkpt>
      <trkpt lat="43.51138" lon="6.66829">
        <ele>115.6</ele>
        <time>2025-10-26T08:59:21Z</time>
      </trkpt>
      <trkpt lat="43.51138" lon="6.66828">
        <ele>115.6</ele>
        <time>2025-10-26T08:59:22Z</time>
      </trkpt>
      <trkpt lat="43.51138" lon="6.66828">
        <ele>115.5</ele>
        <time>2025-10-26T08:59:23Z</time>
      </trkpt>
      <trkpt lat="43.51138" lon="6.66828">
        <ele>115.4</ele>
        <time>2025-10-26T08:59:24Z</time>
      </trkpt>
      <trkpt lat="43.51138" lon="6.66828">
        <ele>115.4</ele>
        <time>2025-10-26T08:59:25Z</time>
      </trkpt>
      <trkpt lat="43.51138" lon="6.66828">
        <ele>115.4</ele>
        <time>2025-10-26T08:59:26Z</time>
      </trkpt>
      <trkpt lat="43.51139" lon="6.66828">
        <ele>115.5</ele>
        <time>2025-10-26T08:59:27Z</time>
      </trkpt>
      <trkpt lat="43.51139" lon="6.66829">
        <ele>115.5</ele>
        <time>2025-10-26T08:59:28Z</time>
      </trkpt>
      <trkpt lat="43.51139" lon="6.66829">
        <ele>115.5</ele>
        <time>2025-10-26T08:59:29Z</time>
      </trkpt>
      <trkpt lat="43.51139" lon="6.66829">
        <ele>115.5</ele>
        <time>2025-10-26T08:59:30Z</time>
      </trkpt>
      <trkpt lat="43.51139" lon="6.66829">
        <ele>115.6</ele>
        <time>2025-10-26T08:59:31Z</time>
      </trkpt>
      <trkpt lat="43.51139" lon="6.66829">
        <ele>115.7</ele>
        <time>2025-10-26T08:59:32Z</time>
      </trkpt>
      <trkpt lat="43.51139" lon="6.66829">
        <ele>115.8</ele>
        <time>2025-10-26T08:59:33Z</time>
      </trkpt>
      <trkpt lat="43.51139" lon="6.66829">
        <ele>115.9</ele>
        <time>2025-10-26T08:59:34Z</time>
      </trkpt>
      <trkpt lat="43.51139" lon="6.66828">
        <ele>116</ele>
        <time>2025-10-26T08:59:35Z</time>
      </trkpt>
      <trkpt lat="43.51139" lon="6.66828">
        <ele>116</ele>
        <time>2025-10-26T08:59:36Z</time>
      </trkpt>
      <trkpt lat="43.51139" lon="6.66828">
        <ele>115.9</ele>
        <time>2025-10-26T08:59:37Z</time>
      </trkpt>
      <trkpt lat="43.51139" lon="6.66828">
        <ele>115.9</ele>
        <time>2025-10-26T08:59:38Z</time>
      </trkpt>
      <trkpt lat="43.51139" lon="6.66828">
        <ele>115.9</ele>
        <time>2025-10-26T08:59:39Z</time>
      </trkpt>
      <trkpt lat="43.51139" lon="6.66828">
        <ele>115.9</ele>
        <time>2025-10-26T08:59:40Z</time>
      </trkpt>
      <trkpt lat="43.51139" lon="6.66828">
        <ele>115.8</ele>
        <time>2025-10-26T08:59:41Z</time>
      </trkpt>
      <trkpt lat="43.51139" lon="6.66828">
        <ele>115.8</ele>
        <time>2025-10-26T08:59:42Z</time>
      </trkpt>
      <trkpt lat="43.5114" lon="6.66828">
        <ele>115.7</ele>
        <time>2025-10-26T08:59:43Z</time>
      </trkpt>
      <trkpt lat="43.5114" lon="6.66828">
        <ele>115.6</ele>
        <time>2025-10-26T08:59:44Z</time>
      </trkpt>
      <trkpt lat="43.5114" lon="6.66828">
        <ele>115.5</ele>
        <time>2025-10-26T08:59:45Z</time>
      </trkpt>
      <trkpt lat="43.5114" lon="6.66828">
        <ele>115.5</ele>
        <time>2025-10-26T08:59:46Z</time>
      </trkpt>
      <trkpt lat="43.5114" lon="6.66828">
        <ele>115.6</ele>
        <time>2025-10-26T08:59:47Z</time>
      </trkpt>
      <trkpt lat="43.5114" lon="6.66828">
        <ele>115.6</ele>
        <time>2025-10-26T08:59:48Z</time>
      </trkpt>
      <trkpt lat="43.5114" lon="6.66828">
        <ele>115.6</ele>
        <time>2025-10-26T08:59:49Z</time>
      </trkpt>
      <trkpt lat="43.5114" lon="6.66827">
        <ele>115.6</ele>
        <time>2025-10-26T08:59:50Z</time>
      </trkpt>
      <trkpt lat="43.5114" lon="6.66827">
        <ele>115.7</ele>
        <time>2025-10-26T08:59:51Z</time>
      </trkpt>
      <trkpt lat="43.5114" lon="6.66828">
        <ele>115.7</ele>
        <time>2025-10-26T08:59:52Z</time>
      </trkpt>
      <trkpt lat="43.5114" lon="6.66828">
        <ele>115.7</ele>
        <time>2025-10-26T08:59:53Z</time>
      </trkpt>
      <trkpt lat="43.5114" lon="6.66828">
        <ele>115.7</ele>
        <time>2025-10-26T08:59:54Z</time>
      </trkpt>
      <trkpt lat="43.5114" lon="6.66828">
        <ele>115.7</ele>
        <time>2025-10-26T08:59:55Z</time>
      </trkpt>
      <trkpt lat="43.5114" lon="6.66828">
        <ele>115.7</ele>
        <time>2025-10-26T08:59:56Z</time>
      </trkpt>
      <trkpt lat="43.5114" lon="6.66828">
        <ele>115.8</ele>
        <time>2025-10-26T08:59:57Z</time>
      </trkpt>
      <trkpt lat="43.5114" lon="6.66828">
        <ele>115.7</ele>
        <time>2025-10-26T08:59:58Z</time>
      </trkpt>
      <trkpt lat="43.5114" lon="6.66828">
        <ele>115.8</ele>
        <time>2025-10-26T08:59:59Z</time>
      </trkpt>
      <trkpt lat="43.5114" lon="6.66828">
        <ele>115.9</ele>
        <time>2025-10-26T09:00:00Z</time>
      </trkpt>
      <trkpt lat="43.5114" lon="6.66828">
        <ele>116</ele>
        <time>2025-10-26T09:00:01Z</time>
      </trkpt>
      <trkpt lat="43.51141" lon="6.66828">
        <ele>116.1</ele>
        <time>2025-10-26T09:00:02Z</time>
      </trkpt>
      <trkpt lat="43.51141" lon="6.66828">
        <ele>116.2</ele>
        <time>2025-10-26T09:00:03Z</time>
      </trkpt>
      <trkpt lat="43.5114" lon="6.66828">
        <ele>116.1</ele>
        <time>2025-10-26T09:00:04Z</time>
      </trkpt>
      <trkpt lat="43.5114" lon="6.66828">
        <ele>116.1</ele>
        <time>2025-10-26T09:00:05Z</time>
      </trkpt>
      <trkpt lat="43.5114" lon="6.66828">
        <ele>116</ele>
        <time>2025-10-26T09:00:06Z</time>
      </trkpt>
      <trkpt lat="43.5114" lon="6.66828">
        <ele>116</ele>
        <time>2025-10-26T09:00:07Z</time>
      </trkpt>
      <trkpt lat="43.5114" lon="6.66828">
        <ele>115.9</ele>
        <time>2025-10-26T09:00:08Z</time>
      </trkpt>
      <trkpt lat="43.5114" lon="6.66828">
        <ele>115.8</ele>
        <time>2025-10-26T09:00:09Z</time>
      </trkpt>
      <trkpt lat="43.5114" lon="6.66828">
        <ele>115.8</ele>
        <time>2025-10-26T09:00:10Z</time>
      </trkpt>
      <trkpt lat="43.5114" lon="6.66828">
        <ele>115.8</ele>
        <time>2025-10-26T09:00:11Z</time>
      </trkpt>
      <trkpt lat="43.5114" lon="6.66828">
        <ele>115.7</ele>
        <time>2025-10-26T09:00:12Z</time>
      </trkpt>
      <trkpt lat="43.5114" lon="6.66828">
        <ele>115.8</ele>
        <time>2025-10-26T09:00:13Z</time>
      </trkpt>
      <trkpt lat="43.5114" lon="6.66828">
        <ele>115.8</ele>
        <time>2025-10-26T09:00:14Z</time>
      </trkpt>
      <trkpt lat="43.5114" lon="6.66828">
        <ele>115.7</ele>
        <time>2025-10-26T09:00:15Z</time>
      </trkpt>
      <trkpt lat="43.5114" lon="6.66828">
        <ele>115.7</ele>
        <time>2025-10-26T09:00:16Z</time>
      </trkpt>
      <trkpt lat="43.5114" lon="6.66828">
        <ele>115.7</ele>
        <time>2025-10-26T09:00:17Z</time>
      </trkpt>
      <trkpt lat="43.5114" lon="6.66828">
        <ele>115.7</ele>
        <time>2025-10-26T09:00:18Z</time>
      </trkpt>
      <trkpt lat="43.5114" lon="6.66828">
        <ele>115.6</ele>
        <time>2025-10-26T09:00:19Z</time>
      </trkpt>
      <trkpt lat="43.5114" lon="6.66828">
        <ele>115.6</ele>
        <time>2025-10-26T09:00:20Z</time>
      </trkpt>
      <trkpt lat="43.5114" lon="6.66828">
        <ele>115.6</ele>
        <time>2025-10-26T09:00:21Z</time>
      </trkpt>
      <trkpt lat="43.5114" lon="6.66828">
        <ele>115.5</ele>
        <time>2025-10-26T09:00:22Z</time>
      </trkpt>
      <trkpt lat="43.5114" lon="6.66828">
        <ele>115.5</ele>
        <time>2025-10-26T09:00:23Z</time>
      </trkpt>
      <trkpt lat="43.5114" lon="6.66828">
        <ele>115.5</ele>
        <time>2025-10-26T09:00:24Z</time>
      </trkpt>
      <trkpt lat="43.5114" lon="6.66828">
        <ele>115.6</ele>
        <time>2025-10-26T09:00:25Z</time>
      </trkpt>
      <trkpt lat="43.5114" lon="6.66828">
        <ele>115.6</ele>
        <time>2025-10-26T09:00:26Z</time>
      </trkpt>
      <trkpt lat="43.5114" lon="6.66828">
        <ele>115.7</ele>
        <time>2025-10-26T09:00:27Z</time>
      </trkpt>
      <trkpt lat="43.5114" lon="6.66828">
        <ele>115.7</ele>
        <time>2025-10-26T09:00:28Z</time>
      </trkpt>
      <trkpt lat="43.5114" lon="6.66828">
        <ele>115.7</ele>
        <time>2025-10-26T09:00:29Z</time>
      </trkpt>
      <trkpt lat="43.5114" lon="6.66828">
        <ele>115.7</ele>
        <time>2025-10-26T09:00:30Z</time>
      </trkpt>
      <trkpt lat="43.5114" lon="6.66828">
        <ele>115.7</ele>
        <time>2025-10-26T09:00:31Z</time>
      </trkpt>
      <trkpt lat="43.5114" lon="6.66828">
        <ele>115.6</ele>
        <time>2025-10-26T09:00:32Z</time>
      </trkpt>
      <trkpt lat="43.5114" lon="6.66828">
        <ele>115.6</ele>
        <time>2025-10-26T09:00:33Z</time>
      </trkpt>
      <trkpt lat="43.5114" lon="6.66828">
        <ele>115.5</ele>
        <time>2025-10-26T09:00:34Z</time>
      </trkpt>
      <trkpt lat="43.51139" lon="6.66828">
        <ele>115.4</ele>
        <time>2025-10-26T09:00:35Z</time>
      </trkpt>
      <trkpt lat="43.51139" lon="6.66827">
        <ele>115.3</ele>
        <time>2025-10-26T09:00:36Z</time>
      </trkpt>
      <trkpt lat="43.51139" lon="6.66827">
        <ele>115.2</ele>
        <time>2025-10-26T09:00:37Z</time>
      </trkpt>
      <trkpt lat="43.51139" lon="6.66827">
        <ele>115.2</ele>
        <time>2025-10-26T09:00:38Z</time>
      </trkpt>
      <trkpt lat="43.51139" lon="6.66827">
        <ele>115.4</ele>
        <time>2025-10-26T09:00:39Z</time>
      </trkpt>
      <trkpt lat="43.51139" lon="6.66827">
        <ele>115.4</ele>
        <time>2025-10-26T09:00:40Z</time>
      </trkpt>
      <trkpt lat="43.51139" lon="6.66827">
        <ele>115.6</ele>
        <time>2025-10-26T09:00:41Z</time>
      </trkpt>
      <trkpt lat="43.51139" lon="6.66827">
        <ele>115.7</ele>
        <time>2025-10-26T09:00:42Z</time>
      </trkpt>
      <trkpt lat="43.51139" lon="6.66827">
        <ele>115.8</ele>
        <time>2025-10-26T09:00:43Z</time>
      </trkpt>
      <trkpt lat="43.51139" lon="6.66826">
        <ele>115.6</ele>
        <time>2025-10-26T09:00:44Z</time>
      </trkpt>
      <trkpt lat="43.51139" lon="6.66826">
        <ele>115.5</ele>
        <time>2025-10-26T09:00:45Z</time>
      </trkpt>
      <trkpt lat="43.51139" lon="6.66826">
        <ele>115.5</ele>
        <time>2025-10-26T09:00:46Z</time>
      </trkpt>
      <trkpt lat="43.51139" lon="6.66826">
        <ele>115.4</ele>
        <time>2025-10-26T09:00:47Z</time>
      </trkpt>
      <trkpt lat="43.51139" lon="6.66827">
        <ele>115.3</ele>
        <time>2025-10-26T09:00:48Z</time>
      </trkpt>
      <trkpt lat="43.51139" lon="6.66826">
        <ele>115.2</ele>
        <time>2025-10-26T09:00:49Z</time>
      </trkpt>
      <trkpt lat="43.51139" lon="6.66826">
        <ele>115.2</ele>
        <time>2025-10-26T09:00:50Z</time>
      </trkpt>
      <trkpt lat="43.51139" lon="6.66826">
        <ele>115.2</ele>
        <time>2025-10-26T09:00:51Z</time>
      </trkpt>
      <trkpt lat="43.51139" lon="6.66826">
        <ele>115.1</ele>
        <time>2025-10-26T09:00:52Z</time>
      </trkpt>
      <trkpt lat="43.51138" lon="6.66826">
        <ele>115.2</ele>
        <time>2025-10-26T09:00:53Z</time>
      </trkpt>
      <trkpt lat="43.51138" lon="6.66826">
        <ele>115.1</ele>
        <time>2025-10-26T09:00:54Z</time>
      </trkpt>
      <trkpt lat="43.51139" lon="6.66827">
        <ele>115.1</ele>
        <time>2025-10-26T09:00:55Z</time>
      </trkpt>
      <trkpt lat="43.51138" lon="6.66827">
        <ele>115.2</ele>
        <time>2025-10-26T09:00:56Z</time>
      </trkpt>
      <trkpt lat="43.51139" lon="6.66827">
        <ele>115.3</ele>
        <time>2025-10-26T09:00:57Z</time>
      </trkpt>
      <trkpt lat="43.51139" lon="6.66827">
        <ele>115.2</ele>
        <time>2025-10-26T09:00:58Z</time>
      </trkpt>
      <trkpt lat="43.51139" lon="6.66827">
        <ele>115.2</ele>
        <time>2025-10-26T09:00:59Z</time>
      </trkpt>
      <trkpt lat="43.51139" lon="6.66828">
        <ele>115.2</ele>
        <time>2025-10-26T09:01:00Z</time>
      </trkpt>
      <trkpt lat="43.51138" lon="6.66828">
        <ele>115.2</ele>
        <time>2025-10-26T09:01:01Z</time>
      </trkpt>
      <trkpt lat="43.51139" lon="6.66828">
        <ele>115.1</ele>
        <time>2025-10-26T09:01:02Z</time>
      </trkpt>
      <trkpt lat="43.51139" lon="6.66828">
        <ele>115.1</ele>
        <time>2025-10-26T09:01:03Z</time>
      </trkpt>
      <trkpt lat="43.51139" lon="6.66828">
        <ele>115</ele>
        <time>2025-10-26T09:01:04Z</time>
      </trkpt>
      <trkpt lat="43.51139" lon="6.66828">
        <ele>115</ele>
        <time>2025-10-26T09:01:05Z</time>
      </trkpt>
      <trkpt lat="43.51139" lon="6.66828">
        <ele>115</ele>
        <time>2025-10-26T09:01:06Z</time>
      </trkpt>
      <trkpt lat="43.51139" lon="6.66829">
        <ele>115.1</ele>
        <time>2025-10-26T09:01:07Z</time>
      </trkpt>
      <trkpt lat="43.51139" lon="6.66829">
        <ele>115</ele>
        <time>2025-10-26T09:01:08Z</time>
      </trkpt>
      <trkpt lat="43.51139" lon="6.66829">
        <ele>114.9</ele>
        <time>2025-10-26T09:01:09Z</time>
      </trkpt>
      <trkpt lat="43.51139" lon="6.66828">
        <ele>114.9</ele>
        <time>2025-10-26T09:01:10Z</time>
      </trkpt>
      <trkpt lat="43.51139" lon="6.66828">
        <ele>114.9</ele>
        <time>2025-10-26T09:01:11Z</time>
      </trkpt>
      <trkpt lat="43.51138" lon="6.66828">
        <ele>114.9</ele>
        <time>2025-10-26T09:01:12Z</time>
      </trkpt>
      <trkpt lat="43.51138" lon="6.66827">
        <ele>114.9</ele>
        <time>2025-10-26T09:01:13Z</time>
      </trkpt>
      <trkpt lat="43.51138" lon="6.66827">
        <ele>114.9</ele>
        <time>2025-10-26T09:01:14Z</time>
      </trkpt>
      <trkpt lat="43.51138" lon="6.66827">
        <ele>114.9</ele>
        <time>2025-10-26T09:01:15Z</time>
      </trkpt>
      <trkpt lat="43.51138" lon="6.66826">
        <ele>114.9</ele>
        <time>2025-10-26T09:01:16Z</time>
      </trkpt>
      <trkpt lat="43.51138" lon="6.66826">
        <ele>115</ele>
        <time>2025-10-26T09:01:17Z</time>
      </trkpt>
      <trkpt lat="43.51138" lon="6.66825">
        <ele>115</ele>
        <time>2025-10-26T09:01:18Z</time>
      </trkpt>
      <trkpt lat="43.51138" lon="6.66825">
        <ele>115</ele>
        <time>2025-10-26T09:01:19Z</time>
      </trkpt>
      <trkpt lat="43.51137" lon="6.66825">
        <ele>115</ele>
        <time>2025-10-26T09:01:20Z</time>
      </trkpt>
      <trkpt lat="43.51137" lon="6.66825">
        <ele>115.1</ele>
        <time>2025-10-26T09:01:21Z</time>
      </trkpt>
      <trkpt lat="43.51137" lon="6.66825">
        <ele>115.1</ele>
        <time>2025-10-26T09:01:22Z</time>
      </trkpt>
      <trkpt lat="43.51137" lon="6.66825">
        <ele>115</ele>
        <time>2025-10-26T09:01:23Z</time>
      </trkpt>
      <trkpt lat="43.51137" lon="6.66824">
        <ele>115.1</ele>
        <time>2025-10-26T09:01:24Z</time>
      </trkpt>
      <trkpt lat="43.51137" lon="6.66824">
        <ele>115.1</ele>
        <time>2025-10-26T09:01:25Z</time>
      </trkpt>
      <trkpt lat="43.51137" lon="6.66824">
        <ele>115.2</ele>
        <time>2025-10-26T09:01:26Z</time>
      </trkpt>
      <trkpt lat="43.51137" lon="6.66824">
        <ele>115.2</ele>
        <time>2025-10-26T09:01:27Z</time>
      </trkpt>
      <trkpt lat="43.51137" lon="6.66824">
        <ele>115.2</ele>
        <time>2025-10-26T09:01:28Z</time>
      </trkpt>
      <trkpt lat="43.51137" lon="6.66824">
        <ele>115.2</ele>
        <time>2025-10-26T09:01:29Z</time>
      </trkpt>
      <trkpt lat="43.51137" lon="6.66824">
        <ele>115.2</ele>
        <time>2025-10-26T09:01:30Z</time>
      </trkpt>
      <trkpt lat="43.51137" lon="6.66824">
        <ele>115.1</ele>
        <time>2025-10-26T09:01:31Z</time>
      </trkpt>
      <trkpt lat="43.51137" lon="6.66825">
        <ele>115</ele>
        <time>2025-10-26T09:01:32Z</time>
      </trkpt>
      <trkpt lat="43.51137" lon="6.66825">
        <ele>114.9</ele>
        <time>2025-10-26T09:01:33Z</time>
      </trkpt>
      <trkpt lat="43.51137" lon="6.66826">
        <ele>115</ele>
        <time>2025-10-26T09:01:34Z</time>
      </trkpt>
      <trkpt lat="43.51137" lon="6.66826">
        <ele>115</ele>
        <time>2025-10-26T09:01:35Z</time>
      </trkpt>
      <trkpt lat="43.51137" lon="6.66826">
        <ele>115</ele>
        <time>2025-10-26T09:01:36Z</time>
      </trkpt>
      <trkpt lat="43.51137" lon="6.66827">
        <ele>115.1</ele>
        <time>2025-10-26T09:01:37Z</time>
      </trkpt>
      <trkpt lat="43.51137" lon="6.66827">
        <ele>115.2</ele>
        <time>2025-10-26T09:01:38Z</time>
      </trkpt>
      <trkpt lat="43.51137" lon="6.66827">
        <ele>115.1</ele>
        <time>2025-10-26T09:01:39Z</time>
      </trkpt>
      <trkpt lat="43.51137" lon="6.66827">
        <ele>115.1</ele>
        <time>2025-10-26T09:01:40Z</time>
      </trkpt>
      <trkpt lat="43.51137" lon="6.66828">
        <ele>115.2</ele>
        <time>2025-10-26T09:01:41Z</time>
      </trkpt>
      <trkpt lat="43.51138" lon="6.66828">
        <ele>115.3</ele>
        <time>2025-10-26T09:01:42Z</time>
      </trkpt>
      <trkpt lat="43.51138" lon="6.66829">
        <ele>115.3</ele>
        <time>2025-10-26T09:01:43Z</time>
      </trkpt>
      <trkpt lat="43.51139" lon="6.66829">
        <ele>115.3</ele>
        <time>2025-10-26T09:01:44Z</time>
      </trkpt>
      <trkpt lat="43.5114" lon="6.66828">
        <ele>115.3</ele>
        <time>2025-10-26T09:01:45Z</time>
      </trkpt>
      <trkpt lat="43.5114" lon="6.66829">
        <ele>115.3</ele>
        <time>2025-10-26T09:01:46Z</time>
      </trkpt>
      <trkpt lat="43.51141" lon="6.66829">
        <ele>115.3</ele>
        <time>2025-10-26T09:01:47Z</time>
      </trkpt>
      <trkpt lat="43.51141" lon="6.66829">
        <ele>115.3</ele>
        <time>2025-10-26T09:01:48Z</time>
      </trkpt>
      <trkpt lat="43.51141" lon="6.66829">
        <ele>115.3</ele>
        <time>2025-10-26T09:01:49Z</time>
      </trkpt>
      <trkpt lat="43.51141" lon="6.66829">
        <ele>115.1</ele>
        <time>2025-10-26T09:01:50Z</time>
      </trkpt>
      <trkpt lat="43.51141" lon="6.66829">
        <ele>115</ele>
        <time>2025-10-26T09:01:51Z</time>
      </trkpt>
      <trkpt lat="43.51141" lon="6.66829">
        <ele>114.9</ele>
        <time>2025-10-26T09:01:52Z</time>
      </trkpt>
      <trkpt lat="43.51141" lon="6.66829">
        <ele>114.9</ele>
        <time>2025-10-26T09:01:53Z</time>
      </trkpt>
      <trkpt lat="43.51141" lon="6.66829">
        <ele>114.8</ele>
        <time>2025-10-26T09:01:54Z</time>
      </trkpt>
      <trkpt lat="43.51141" lon="6.6683">
        <ele>114.7</ele>
        <time>2025-10-26T09:01:55Z</time>
      </trkpt>
      <trkpt lat="43.51141" lon="6.6683">
        <ele>114.7</ele>
        <time>2025-10-26T09:01:56Z</time>
      </trkpt>
      <trkpt lat="43.51141" lon="6.66831">
        <ele>114.7</ele>
        <time>2025-10-26T09:01:57Z</time>
      </trkpt>
      <trkpt lat="43.51142" lon="6.66831">
        <ele>114.7</ele>
        <time>2025-10-26T09:01:58Z</time>
      </trkpt>
      <trkpt lat="43.51142" lon="6.66832">
        <ele>114.6</ele>
        <time>2025-10-26T09:01:59Z</time>
      </trkpt>
      <trkpt lat="43.51143" lon="6.66833">
        <ele>114.6</ele>
        <time>2025-10-26T09:02:00Z</time>
      </trkpt>
      <trkpt lat="43.51143" lon="6.66833">
        <ele>114.5</ele>
        <time>2025-10-26T09:02:01Z</time>
      </trkpt>
      <trkpt lat="43.51144" lon="6.66834">
        <ele>114.3</ele>
        <time>2025-10-26T09:02:02Z</time>
      </trkpt>
      <trkpt lat="43.51144" lon="6.66834">
        <ele>114.3</ele>
        <time>2025-10-26T09:02:03Z</time>
      </trkpt>
      <trkpt lat="43.51145" lon="6.66834">
        <ele>114.3</ele>
        <time>2025-10-26T09:02:04Z</time>
      </trkpt>
      <trkpt lat="43.51146" lon="6.66833">
        <ele>114.4</ele>
        <time>2025-10-26T09:02:05Z</time>
      </trkpt>
      <trkpt lat="43.51146" lon="6.66834">
        <ele>114.4</ele>
        <time>2025-10-26T09:02:06Z</time>
      </trkpt>
      <trkpt lat="43.51147" lon="6.66834">
        <ele>114.4</ele>
        <time>2025-10-26T09:02:07Z</time>
      </trkpt>
      <trkpt lat="43.51148" lon="6.66835">
        <ele>114.4</ele>
        <time>2025-10-26T09:02:08Z</time>
      </trkpt>
      <trkpt lat="43.51148" lon="6.66835">
        <ele>114.4</ele>
        <time>2025-10-26T09:02:09Z</time>
      </trkpt>
      <trkpt lat="43.51149" lon="6.66836">
        <ele>114.3</ele>
        <time>2025-10-26T09:02:10Z</time>
      </trkpt>
      <trkpt lat="43.51149" lon="6.66837">
        <ele>114.2</ele>
        <time>2025-10-26T09:02:11Z</time>
      </trkpt>
      <trkpt lat="43.5115" lon="6.66838">
        <ele>114</ele>
        <time>2025-10-26T09:02:12Z</time>
      </trkpt>
      <trkpt lat="43.5115" lon="6.66839">
        <ele>113.9</ele>
        <time>2025-10-26T09:02:13Z</time>
      </trkpt>
      <trkpt lat="43.51151" lon="6.6684">
        <ele>113.8</ele>
        <time>2025-10-26T09:02:14Z</time>
      </trkpt>
      <trkpt lat="43.51151" lon="6.66841">
        <ele>113.9</ele>
        <time>2025-10-26T09:02:15Z</time>
      </trkpt>
      <trkpt lat="43.51152" lon="6.66841">
        <ele>114</ele>
        <time>2025-10-26T09:02:16Z</time>
      </trkpt>
      <trkpt lat="43.51152" lon="6.66842">
        <ele>114.1</ele>
        <time>2025-10-26T09:02:17Z</time>
      </trkpt>
      <trkpt lat="43.51153" lon="6.66843">
        <ele>114.2</ele>
        <time>2025-10-26T09:02:18Z</time>
      </trkpt>
      <trkpt lat="43.51155" lon="6.66843">
        <ele>114.3</ele>
        <time>2025-10-26T09:02:19Z</time>
      </trkpt>
      <trkpt lat="43.51155" lon="6.66844">
        <ele>114.4</ele>
        <time>2025-10-26T09:02:20Z</time>
      </trkpt>
      <trkpt lat="43.51156" lon="6.66844">
        <ele>114.4</ele>
        <time>2025-10-26T09:02:21Z</time>
      </trkpt>
      <trkpt lat="43.51157" lon="6.66845">
        <ele>114.3</ele>
        <time>2025-10-26T09:02:22Z</time>
      </trkpt>
      <trkpt lat="43.51158" lon="6.66844">
        <ele>114.3</ele>
        <time>2025-10-26T09:02:23Z</time>
      </trkpt>
      <trkpt lat="43.51159" lon="6.66845">
        <ele>114.3</ele>
        <time>2025-10-26T09:02:24Z</time>
      </trkpt>
      <trkpt lat="43.5116" lon="6.66846">
        <ele>114.3</ele>
        <time>2025-10-26T09:02:25Z</time>
      </trkpt>
      <trkpt lat="43.51161" lon="6.66847">
        <ele>114.3</ele>
        <time>2025-10-26T09:02:26Z</time>
      </trkpt>
      <trkpt lat="43.51162" lon="6.66847">
        <ele>114.3</ele>
        <time>2025-10-26T09:02:27Z</time>
      </trkpt>
      <trkpt lat="43.51163" lon="6.66848">
        <ele>114.3</ele>
        <time>2025-10-26T09:02:28Z</time>
      </trkpt>
      <trkpt lat="43.51163" lon="6.66849">
        <ele>114.2</ele>
        <time>2025-10-26T09:02:29Z</time>
      </trkpt>
      <trkpt lat="43.51164" lon="6.6685">
        <ele>114.3</ele>
        <time>2025-10-26T09:02:30Z</time>
      </trkpt>
      <trkpt lat="43.51165" lon="6.66851">
        <ele>114.4</ele>
        <time>2025-10-26T09:02:31Z</time>
      </trkpt>
      <trkpt lat="43.51165" lon="6.66852">
        <ele>114.4</ele>
        <time>2025-10-26T09:02:32Z</time>
      </trkpt>
      <trkpt lat="43.51166" lon="6.66852">
        <ele>114.3</ele>
        <time>2025-10-26T09:02:33Z</time>
      </trkpt>
      <trkpt lat="43.51167" lon="6.66853">
        <ele>114.2</ele>
        <time>2025-10-26T09:02:34Z</time>
      </trkpt>
      <trkpt lat="43.51168" lon="6.66854">
        <ele>114.2</ele>
        <time>2025-10-26T09:02:35Z</time>
      </trkpt>
      <trkpt lat="43.51169" lon="6.66855">
        <ele>114.2</ele>
        <time>2025-10-26T09:02:36Z</time>
      </trkpt>
      <trkpt lat="43.51169" lon="6.66856">
        <ele>114.1</ele>
        <time>2025-10-26T09:02:37Z</time>
      </trkpt>
      <trkpt lat="43.5117" lon="6.66856">
        <ele>114.1</ele>
        <time>2025-10-26T09:02:38Z</time>
      </trkpt>
      <trkpt lat="43.51171" lon="6.66857">
        <ele>114.1</ele>
        <time>2025-10-26T09:02:39Z</time>
      </trkpt>
      <trkpt lat="43.51171" lon="6.66858">
        <ele>114.1</ele>
        <time>2025-10-26T09:02:40Z</time>
      </trkpt>
      <trkpt lat="43.51172" lon="6.66859">
        <ele>114</ele>
        <time>2025-10-26T09:02:41Z</time>
      </trkpt>
      <trkpt lat="43.51172" lon="6.6686">
        <ele>114</ele>
        <time>2025-10-26T09:02:42Z</time>
      </trkpt>
      <trkpt lat="43.51173" lon="6.66861">
        <ele>114.1</ele>
        <time>2025-10-26T09:02:43Z</time>
      </trkpt>
      <trkpt lat="43.51173" lon="6.66861">
        <ele>114.2</ele>
        <time>2025-10-26T09:02:44Z</time>
      </trkpt>
      <trkpt lat="43.51173" lon="6.66863">
        <ele>114.2</ele>
        <time>2025-10-26T09:02:45Z</time>
      </trkpt>
      <trkpt lat="43.51174" lon="6.66863">
        <ele>114.2</ele>
        <time>2025-10-26T09:02:46Z</time>
      </trkpt>
      <trkpt lat="43.51174" lon="6.66864">
        <ele>114.2</ele>
        <time>2025-10-26T09:02:47Z</time>
      </trkpt>
      <trkpt lat="43.51175" lon="6.66864">
        <ele>114.1</ele>
        <time>2025-10-26T09:02:48Z</time>
      </trkpt>
      <trkpt lat="43.51176" lon="6.66865">
        <ele>114.1</ele>
        <time>2025-10-26T09:02:49Z</time>
      </trkpt>
      <trkpt lat="43.51177" lon="6.66865">
        <ele>114.2</ele>
        <time>2025-10-26T09:02:50Z</time>
      </trkpt>
      <trkpt lat="43.51177" lon="6.66866">
        <ele>114.2</ele>
        <time>2025-10-26T09:02:51Z</time>
      </trkpt>
      <trkpt lat="43.51177" lon="6.66867">
        <ele>114.1</ele>
        <time>2025-10-26T09:02:52Z</time>
      </trkpt>
      <trkpt lat="43.51177" lon="6.66868">
        <ele>114</ele>
        <time>2025-10-26T09:02:53Z</time>
      </trkpt>
      <trkpt lat="43.51177" lon="6.66869">
        <ele>114</ele>
        <time>2025-10-26T09:02:54Z</time>
      </trkpt>
      <trkpt lat="43.51177" lon="6.66871">
        <ele>113.9</ele>
        <time>2025-10-26T09:02:55Z</time>
      </trkpt>
      <trkpt lat="43.51177" lon="6.66873">
        <ele>113.8</ele>
        <time>2025-10-26T09:02:56Z</time>
      </trkpt>
      <trkpt lat="43.51178" lon="6.66874">
        <ele>113.9</ele>
        <time>2025-10-26T09:02:57Z</time>
      </trkpt>
      <trkpt lat="43.51178" lon="6.66875">
        <ele>114</ele>
        <time>2025-10-26T09:02:58Z</time>
      </trkpt>
      <trkpt lat="43.51179" lon="6.66876">
        <ele>114.1</ele>
        <time>2025-10-26T09:02:59Z</time>
      </trkpt>
      <trkpt lat="43.51179" lon="6.66878">
        <ele>114.2</ele>
        <time>2025-10-26T09:03:00Z</time>
      </trkpt>
      <trkpt lat="43.5118" lon="6.66879">
        <ele>114.3</ele>
        <time>2025-10-26T09:03:01Z</time>
      </trkpt>
      <trkpt lat="43.51181" lon="6.6688">
        <ele>114.4</ele>
        <time>2025-10-26T09:03:02Z</time>
      </trkpt>
      <trkpt lat="43.51181" lon="6.66881">
        <ele>114.5</ele>
        <time>2025-10-26T09:03:03Z</time>
      </trkpt>
      <trkpt lat="43.51182" lon="6.66883">
        <ele>114.6</ele>
        <time>2025-10-26T09:03:04Z</time>
      </trkpt>
      <trkpt lat="43.51183" lon="6.66884">
        <ele>114.6</ele>
        <time>2025-10-26T09:03:05Z</time>
      </trkpt>
      <trkpt lat="43.51183" lon="6.66885">
        <ele>114.7</ele>
        <time>2025-10-26T09:03:06Z</time>
      </trkpt>
      <trkpt lat="43.51184" lon="6.66885">
        <ele>114.6</ele>
        <time>2025-10-26T09:03:07Z</time>
      </trkpt>
      <trkpt lat="43.51185" lon="6.66887">
        <ele>114.5</ele>
        <time>2025-10-26T09:03:08Z</time>
      </trkpt>
      <trkpt lat="43.51186" lon="6.66888">
        <ele>114.5</ele>
        <time>2025-10-26T09:03:09Z</time>
      </trkpt>
      <trkpt lat="43.51186" lon="6.66889">
        <ele>114.3</ele>
        <time>2025-10-26T09:03:10Z</time>
      </trkpt>
      <trkpt lat="43.51187" lon="6.6689">
        <ele>114.2</ele>
        <time>2025-10-26T09:03:11Z</time>
      </trkpt>
      <trkpt lat="43.51187" lon="6.66891">
        <ele>114.2</ele>
        <time>2025-10-26T09:03:12Z</time>
      </trkpt>
      <trkpt lat="43.51188" lon="6.66892">
        <ele>114.1</ele>
        <time>2025-10-26T09:03:13Z</time>
      </trkpt>
      <trkpt lat="43.51188" lon="6.66892">
        <ele>114</ele>
        <time>2025-10-26T09:03:14Z</time>
      </trkpt>
      <trkpt lat="43.51188" lon="6.66892">
        <ele>114.1</ele>
        <time>2025-10-26T09:03:15Z</time>
      </trkpt>
      <trkpt lat="43.51188" lon="6.66893">
        <ele>114.2</ele>
        <time>2025-10-26T09:03:16Z</time>
      </trkpt>
      <trkpt lat="43.51187" lon="6.66893">
        <ele>114.2</ele>
        <time>2025-10-26T09:03:17Z</time>
      </trkpt>
      <trkpt lat="43.51188" lon="6.66894">
        <ele>114.2</ele>
        <time>2025-10-26T09:03:18Z</time>
      </trkpt>
      <trkpt lat="43.51188" lon="6.66895">
        <ele>114.2</ele>
        <time>2025-10-26T09:03:19Z</time>
      </trkpt>
      <trkpt lat="43.51188" lon="6.66897">
        <ele>114.2</ele>
        <time>2025-10-26T09:03:20Z</time>
      </trkpt>
      <trkpt lat="43.51189" lon="6.66899">
        <ele>114.1</ele>
        <time>2025-10-26T09:03:21Z</time>
      </trkpt>
      <trkpt lat="43.51189" lon="6.66901">
        <ele>114</ele>
        <time>2025-10-26T09:03:22Z</time>
      </trkpt>
      <trkpt lat="43.5119" lon="6.66902">
        <ele>113.9</ele>
        <time>2025-10-26T09:03:23Z</time>
      </trkpt>
      <trkpt lat="43.5119" lon="6.66903">
        <ele>113.8</ele>
        <time>2025-10-26T09:03:24Z</time>
      </trkpt>
      <trkpt lat="43.51191" lon="6.66905">
        <ele>113.7</ele>
        <time>2025-10-26T09:03:25Z</time>
      </trkpt>
      <trkpt lat="43.51192" lon="6.66906">
        <ele>113.7</ele>
        <time>2025-10-26T09:03:26Z</time>
      </trkpt>
      <trkpt lat="43.51192" lon="6.66907">
        <ele>113.6</ele>
        <time>2025-10-26T09:03:27Z</time>
      </trkpt>
      <trkpt lat="43.51192" lon="6.66908">
        <ele>113.6</ele>
        <time>2025-10-26T09:03:28Z</time>
      </trkpt>
      <trkpt lat="43.51192" lon="6.66909">
        <ele>113.6</ele>
        <time>2025-10-26T09:03:29Z</time>
      </trkpt>
      <trkpt lat="43.51193" lon="6.66911">
        <ele>113.7</ele>
        <time>2025-10-26T09:03:30Z</time>
      </trkpt>
      <trkpt lat="43.51193" lon="6.66913">
        <ele>113.7</ele>
        <time>2025-10-26T09:03:31Z</time>
      </trkpt>
      <trkpt lat="43.51194" lon="6.66914">
        <ele>113.7</ele>
        <time>2025-10-26T09:03:32Z</time>
      </trkpt>
      <trkpt lat="43.51194" lon="6.66916">
        <ele>113.8</ele>
        <time>2025-10-26T09:03:33Z</time>
      </trkpt>
      <trkpt lat="43.51195" lon="6.66918">
        <ele>113.8</ele>
        <time>2025-10-26T09:03:34Z</time>
      </trkpt>
      <trkpt lat="43.51195" lon="6.6692">
        <ele>113.8</ele>
        <time>2025-10-26T09:03:35Z</time>
      </trkpt>
      <trkpt lat="43.51196" lon="6.66921">
        <ele>113.9</ele>
        <time>2025-10-26T09:03:36Z</time>
      </trkpt>
      <trkpt lat="43.51196" lon="6.66923">
        <ele>113.9</ele>
        <time>2025-10-26T09:03:37Z</time>
      </trkpt>
      <trkpt lat="43.51197" lon="6.66925">
        <ele>113.9</ele>
        <time>2025-10-26T09:03:38Z</time>
      </trkpt>
      <trkpt lat="43.51197" lon="6.66927">
        <ele>114</ele>
        <time>2025-10-26T09:03:39Z</time>
      </trkpt>
      <trkpt lat="43.51198" lon="6.66928">
        <ele>114</ele>
        <time>2025-10-26T09:03:40Z</time>
      </trkpt>
      <trkpt lat="43.51198" lon="6.6693">
        <ele>114</ele>
        <time>2025-10-26T09:03:41Z</time>
      </trkpt>
      <trkpt lat="43.51198" lon="6.66931">
        <ele>114</ele>
        <time>2025-10-26T09:03:42Z</time>
      </trkpt>
      <trkpt lat="43.51198" lon="6.66933">
        <ele>114.1</ele>
        <time>2025-10-26T09:03:43Z</time>
      </trkpt>
      <trkpt lat="43.51197" lon="6.66935">
        <ele>114</ele>
        <time>2025-10-26T09:03:44Z</time>
      </trkpt>
      <trkpt lat="43.51198" lon="6.66936">
        <ele>113.9</ele>
        <time>2025-10-26T09:03:45Z</time>
      </trkpt>
      <trkpt lat="43.51198" lon="6.66938">
        <ele>113.9</ele>
        <time>2025-10-26T09:03:46Z</time>
      </trkpt>
      <trkpt lat="43.51198" lon="6.66939">
        <ele>114</ele>
        <time>2025-10-26T09:03:47Z</time>
      </trkpt>
      <trkpt lat="43.51199" lon="6.66941">
        <ele>114</ele>
        <time>2025-10-26T09:03:48Z</time>
      </trkpt>
      <trkpt lat="43.51199" lon="6.66942">
        <ele>114.1</ele>
        <time>2025-10-26T09:03:49Z</time>
      </trkpt>
      <trkpt lat="43.51199" lon="6.66944">
        <ele>114</ele>
        <time>2025-10-26T09:03:50Z</time>
      </trkpt>
      <trkpt lat="43.51199" lon="6.66945">
        <ele>114</ele>
        <time>2025-10-26T09:03:51Z</time>
      </trkpt>
      <trkpt lat="43.512" lon="6.66946">
        <ele>114.1</ele>
        <time>2025-10-26T09:03:52Z</time>
      </trkpt>
      <trkpt lat="43.512" lon="6.66948">
        <ele>114</ele>
        <time>2025-10-26T09:03:53Z</time>
      </trkpt>
      <trkpt lat="43.51201" lon="6.66948">
        <ele>114.1</ele>
        <time>2025-10-26T09:03:54Z</time>
      </trkpt>
      <trkpt lat="43.51201" lon="6.66949">
        <ele>114.1</ele>
        <time>2025-10-26T09:03:55Z</time>
      </trkpt>
      <trkpt lat="43.51202" lon="6.6695">
        <ele>114</ele>
        <time>2025-10-26T09:03:56Z</time>
      </trkpt>
      <trkpt lat="43.51203" lon="6.66951">
        <ele>114</ele>
        <time>2025-10-26T09:03:57Z</time>
      </trkpt>
      <trkpt lat="43.51204" lon="6.66952">
        <ele>114.1</ele>
        <time>2025-10-26T09:03:58Z</time>
      </trkpt>
      <trkpt lat="43.51204" lon="6.66953">
        <ele>114.2</ele>
        <time>2025-10-26T09:03:59Z</time>
      </trkpt>
      <trkpt lat="43.51205" lon="6.66954">
        <ele>114.3</ele>
        <time>2025-10-26T09:04:00Z</time>
      </trkpt>
      <trkpt lat="43.51205" lon="6.66955">
        <ele>114.3</ele>
        <time>2025-10-26T09:04:01Z</time>
      </trkpt>
      <trkpt lat="43.51206" lon="6.66957">
        <ele>114.4</ele>
        <time>2025-10-26T09:04:02Z</time>
      </trkpt>
      <trkpt lat="43.51206" lon="6.66958">
        <ele>114.5</ele>
        <time>2025-10-26T09:04:03Z</time>
      </trkpt>
      <trkpt lat="43.51206" lon="6.66959">
        <ele>114.5</ele>
        <time>2025-10-26T09:04:04Z</time>
      </trkpt>
      <trkpt lat="43.51207" lon="6.6696">
        <ele>114.5</ele>
        <time>2025-10-26T09:04:05Z</time>
      </trkpt>
      <trkpt lat="43.51208" lon="6.66961">
        <ele>114.6</ele>
        <time>2025-10-26T09:04:06Z</time>
      </trkpt>
      <trkpt lat="43.51208" lon="6.66963">
        <ele>114.8</ele>
        <time>2025-10-26T09:04:07Z</time>
      </trkpt>
      <trkpt lat="43.51209" lon="6.66964">
        <ele>114.8</ele>
        <time>2025-10-26T09:04:08Z</time>
      </trkpt>
      <trkpt lat="43.51209" lon="6.66964">
        <ele>114.9</ele>
        <time>2025-10-26T09:04:09Z</time>
      </trkpt>
      <trkpt lat="43.5121" lon="6.66966">
        <ele>114.9</ele>
        <time>2025-10-26T09:04:10Z</time>
      </trkpt>
      <trkpt lat="43.5121" lon="6.66967">
        <ele>115</ele>
        <time>2025-10-26T09:04:11Z</time>
      </trkpt>
      <trkpt lat="43.51211" lon="6.66968">
        <ele>115.1</ele>
        <time>2025-10-26T09:04:12Z</time>
      </trkpt>
      <trkpt lat="43.51211" lon="6.66969">
        <ele>115.1</ele>
        <time>2025-10-26T09:04:13Z</time>
      </trkpt>
      <trkpt lat="43.51212" lon="6.66969">
        <ele>115.1</ele>
        <time>2025-10-26T09:04:14Z</time>
      </trkpt>
      <trkpt lat="43.51212" lon="6.6697">
        <ele>115.1</ele>
        <time>2025-10-26T09:04:15Z</time>
      </trkpt>
      <trkpt lat="43.51212" lon="6.66971">
        <ele>115.1</ele>
        <time>2025-10-26T09:04:16Z</time>
      </trkpt>
      <trkpt lat="43.51213" lon="6.66972">
        <ele>115.2</ele>
        <time>2025-10-26T09:04:17Z</time>
      </trkpt>
      <trkpt lat="43.51213" lon="6.66973">
        <ele>115.3</ele>
        <time>2025-10-26T09:04:18Z</time>
      </trkpt>
      <trkpt lat="43.51214" lon="6.66974">
        <ele>115.4</ele>
        <time>2025-10-26T09:04:19Z</time>
      </trkpt>
      <trkpt lat="43.51214" lon="6.66976">
        <ele>115.5</ele>
        <time>2025-10-26T09:04:20Z</time>
      </trkpt>
      <trkpt lat="43.51215" lon="6.66977">
        <ele>115.8</ele>
        <time>2025-10-26T09:04:21Z</time>
      </trkpt>
      <trkpt lat="43.51215" lon="6.66978">
        <ele>115.9</ele>
        <time>2025-10-26T09:04:22Z</time>
      </trkpt>
      <trkpt lat="43.51216" lon="6.66979">
        <ele>116.1</ele>
        <time>2025-10-26T09:04:23Z</time>
      </trkpt>
      <trkpt lat="43.51216" lon="6.6698">
        <ele>116.3</ele>
        <time>2025-10-26T09:04:24Z</time>
      </trkpt>
      <trkpt lat="43.51216" lon="6.66981">
        <ele>116.4</ele>
        <time>2025-10-26T09:04:25Z</time>
      </trkpt>
      <trkpt lat="43.51217" lon="6.66982">
        <ele>116.5</ele>
        <time>2025-10-26T09:04:26Z</time>
      </trkpt>
      <trkpt lat="43.51217" lon="6.66983">
        <ele>116.6</ele>
        <time>2025-10-26T09:04:27Z</time>
      </trkpt>
      <trkpt lat="43.51218" lon="6.66985">
        <ele>116.7</ele>
        <time>2025-10-26T09:04:28Z</time>
      </trkpt>
      <trkpt lat="43.51218" lon="6.66986">
        <ele>116.8</ele>
        <time>2025-10-26T09:04:29Z</time>
      </trkpt>
      <trkpt lat="43.51219" lon="6.66987">
        <ele>116.9</ele>
        <time>2025-10-26T09:04:30Z</time>
      </trkpt>
      <trkpt lat="43.51219" lon="6.66989">
        <ele>117</ele>
        <time>2025-10-26T09:04:31Z</time>
      </trkpt>
      <trkpt lat="43.5122" lon="6.66989">
        <ele>117.1</ele>
        <time>2025-10-26T09:04:32Z</time>
      </trkpt>
      <trkpt lat="43.5122" lon="6.66991">
        <ele>117.3</ele>
        <time>2025-10-26T09:04:33Z</time>
      </trkpt>
      <trkpt lat="43.5122" lon="6.66992">
        <ele>117.4</ele>
        <time>2025-10-26T09:04:34Z</time>
      </trkpt>
      <trkpt lat="43.5122" lon="6.66993">
        <ele>117.5</ele>
        <time>2025-10-26T09:04:35Z</time>
      </trkpt>
      <trkpt lat="43.5122" lon="6.66995">
        <ele>117.5</ele>
        <time>2025-10-26T09:04:36Z</time>
      </trkpt>
      <trkpt lat="43.51221" lon="6.66996">
        <ele>117.7</ele>
        <time>2025-10-26T09:04:37Z</time>
      </trkpt>
      <trkpt lat="43.51222" lon="6.66997">
        <ele>117.8</ele>
        <time>2025-10-26T09:04:38Z</time>
      </trkpt>
      <trkpt lat="43.51222" lon="6.66998">
        <ele>117.8</ele>
        <time>2025-10-26T09:04:39Z</time>
      </trkpt>
      <trkpt lat="43.51223" lon="6.66998">
        <ele>117.8</ele>
        <time>2025-10-26T09:04:40Z</time>
      </trkpt>
      <trkpt lat="43.51223" lon="6.67">
        <ele>117.9</ele>
        <time>2025-10-26T09:04:41Z</time>
      </trkpt>
      <trkpt lat="43.51224" lon="6.67002">
        <ele>117.9</ele>
        <time>2025-10-26T09:04:42Z</time>
      </trkpt>
      <trkpt lat="43.51224" lon="6.67002">
        <ele>117.9</ele>
        <time>2025-10-26T09:04:43Z</time>
      </trkpt>
      <trkpt lat="43.51225" lon="6.67003">
        <ele>117.9</ele>
        <time>2025-10-26T09:04:44Z</time>
      </trkpt>
      <trkpt lat="43.51225" lon="6.67004">
        <ele>117.9</ele>
        <time>2025-10-26T09:04:45Z</time>
      </trkpt>
      <trkpt lat="43.51225" lon="6.67005">
        <ele>117.8</ele>
        <time>2025-10-26T09:04:46Z</time>
      </trkpt>
      <trkpt lat="43.51226" lon="6.67007">
        <ele>117.9</ele>
        <time>2025-10-26T09:04:47Z</time>
      </trkpt>
      <trkpt lat="43.51226" lon="6.67007">
        <ele>117.9</ele>
        <time>2025-10-26T09:04:48Z</time>
      </trkpt>
      <trkpt lat="43.51227" lon="6.67009">
        <ele>118</ele>
        <time>2025-10-26T09:04:49Z</time>
      </trkpt>
      <trkpt lat="43.51228" lon="6.67009">
        <ele>118</ele>
        <time>2025-10-26T09:04:50Z</time>
      </trkpt>
      <trkpt lat="43.51229" lon="6.6701">
        <ele>118.2</ele>
        <time>2025-10-26T09:04:51Z</time>
      </trkpt>
      <trkpt lat="43.5123" lon="6.67011">
        <ele>118.4</ele>
        <time>2025-10-26T09:04:52Z</time>
      </trkpt>
      <trkpt lat="43.5123" lon="6.67012">
        <ele>118.6</ele>
        <time>2025-10-26T09:04:53Z</time>
      </trkpt>
      <trkpt lat="43.51231" lon="6.67013">
        <ele>118.7</ele>
        <time>2025-10-26T09:04:54Z</time>
      </trkpt>
      <trkpt lat="43.51232" lon="6.67014">
        <ele>118.8</ele>
        <time>2025-10-26T09:04:55Z</time>
      </trkpt>
      <trkpt lat="43.51232" lon="6.67015">
        <ele>119</ele>
        <time>2025-10-26T09:04:56Z</time>
      </trkpt>
      <trkpt lat="43.51232" lon="6.67016">
        <ele>118.9</ele>
        <time>2025-10-26T09:04:57Z</time>
      </trkpt>
      <trkpt lat="43.51232" lon="6.67018">
        <ele>118.9</ele>
        <time>2025-10-26T09:04:58Z</time>
      </trkpt>
      <trkpt lat="43.51233" lon="6.67019">
        <ele>119</ele>
        <time>2025-10-26T09:04:59Z</time>
      </trkpt>
      <trkpt lat="43.51233" lon="6.6702">
        <ele>119.2</ele>
        <time>2025-10-26T09:05:00Z</time>
      </trkpt>
      <trkpt lat="43.51234" lon="6.67021">
        <ele>119.3</ele>
        <time>2025-10-26T09:05:01Z</time>
      </trkpt>
      <trkpt lat="43.51234" lon="6.67022">
        <ele>119.4</ele>
        <time>2025-10-26T09:05:02Z</time>
      </trkpt>
      <trkpt lat="43.51235" lon="6.67024">
        <ele>119.5</ele>
        <time>2025-10-26T09:05:03Z</time>
      </trkpt>
      <trkpt lat="43.51235" lon="6.67024">
        <ele>119.6</ele>
        <time>2025-10-26T09:05:04Z</time>
      </trkpt>
      <trkpt lat="43.51236" lon="6.67026">
        <ele>119.7</ele>
        <time>2025-10-26T09:05:05Z</time>
      </trkpt>
      <trkpt lat="43.51237" lon="6.67027">
        <ele>119.8</ele>
        <time>2025-10-26T09:05:06Z</time>
      </trkpt>
      <trkpt lat="43.51237" lon="6.67028">
        <ele>119.8</ele>
        <time>2025-10-26T09:05:07Z</time>
      </trkpt>
      <trkpt lat="43.51238" lon="6.67028">
        <ele>119.9</ele>
        <time>2025-10-26T09:05:08Z</time>
      </trkpt>
      <trkpt lat="43.51239" lon="6.67029">
        <ele>120</ele>
        <time>2025-10-26T09:05:09Z</time>
      </trkpt>
      <trkpt lat="43.51239" lon="6.6703">
        <ele>120.1</ele>
        <time>2025-10-26T09:05:10Z</time>
      </trkpt>
      <trkpt lat="43.5124" lon="6.67032">
        <ele>120.2</ele>
        <time>2025-10-26T09:05:11Z</time>
      </trkpt>
      <trkpt lat="43.51241" lon="6.67032">
        <ele>120.4</ele>
        <time>2025-10-26T09:05:12Z</time>
      </trkpt>
      <trkpt lat="43.51242" lon="6.67033">
        <ele>120.5</ele>
        <time>2025-10-26T09:05:13Z</time>
      </trkpt>
      <trkpt lat="43.51242" lon="6.67033">
        <ele>120.6</ele>
        <time>2025-10-26T09:05:14Z</time>
      </trkpt>
      <trkpt lat="43.51243" lon="6.67035">
        <ele>120.6</ele>
        <time>2025-10-26T09:05:15Z</time>
      </trkpt>
      <trkpt lat="43.51243" lon="6.67036">
        <ele>120.7</ele>
        <time>2025-10-26T09:05:16Z</time>
      </trkpt>
      <trkpt lat="43.51244" lon="6.67037">
        <ele>120.7</ele>
        <time>2025-10-26T09:05:17Z</time>
      </trkpt>
      <trkpt lat="43.51245" lon="6.67037">
        <ele>120.8</ele>
        <time>2025-10-26T09:05:18Z</time>
      </trkpt>
      <trkpt lat="43.51245" lon="6.67038">
        <ele>120.8</ele>
        <time>2025-10-26T09:05:19Z</time>
      </trkpt>
      <trkpt lat="43.51246" lon="6.67039">
        <ele>120.8</ele>
        <time>2025-10-26T09:05:20Z</time>
      </trkpt>
      <trkpt lat="43.51246" lon="6.6704">
        <ele>120.9</ele>
        <time>2025-10-26T09:05:21Z</time>
      </trkpt>
      <trkpt lat="43.51247" lon="6.67041">
        <ele>121</ele>
        <time>2025-10-26T09:05:22Z</time>
      </trkpt>
      <trkpt lat="43.51248" lon="6.67042">
        <ele>121.1</ele>
        <time>2025-10-26T09:05:23Z</time>
      </trkpt>
      <trkpt lat="43.51249" lon="6.67043">
        <ele>121.1</ele>
        <time>2025-10-26T09:05:24Z</time>
      </trkpt>
      <trkpt lat="43.5125" lon="6.67044">
        <ele>121.2</ele>
        <time>2025-10-26T09:05:25Z</time>
      </trkpt>
      <trkpt lat="43.5125" lon="6.67045">
        <ele>121.3</ele>
        <time>2025-10-26T09:05:26Z</time>
      </trkpt>
      <trkpt lat="43.51251" lon="6.67046">
        <ele>121.2</ele>
        <time>2025-10-26T09:05:27Z</time>
      </trkpt>
      <trkpt lat="43.51251" lon="6.67048">
        <ele>121.2</ele>
        <time>2025-10-26T09:05:28Z</time>
      </trkpt>
      <trkpt lat="43.51252" lon="6.67049">
        <ele>121.3</ele>
        <time>2025-10-26T09:05:29Z</time>
      </trkpt>
      <trkpt lat="43.51252" lon="6.6705">
        <ele>121.4</ele>
        <time>2025-10-26T09:05:30Z</time>
      </trkpt>
      <trkpt lat="43.51253" lon="6.67051">
        <ele>121.4</ele>
        <time>2025-10-26T09:05:31Z</time>
      </trkpt>
      <trkpt lat="43.51253" lon="6.67052">
        <ele>121.3</ele>
        <time>2025-10-26T09:05:32Z</time>
      </trkpt>
      <trkpt lat="43.51253" lon="6.67053">
        <ele>121.2</ele>
        <time>2025-10-26T09:05:33Z</time>
      </trkpt>
      <trkpt lat="43.51253" lon="6.67055">
        <ele>121.3</ele>
        <time>2025-10-26T09:05:34Z</time>
      </trkpt>
      <trkpt lat="43.51254" lon="6.67055">
        <ele>121.2</ele>
        <time>2025-10-26T09:05:35Z</time>
      </trkpt>
      <trkpt lat="43.51255" lon="6.67056">
        <ele>121.3</ele>
        <time>2025-10-26T09:05:36Z</time>
      </trkpt>
      <trkpt lat="43.51255" lon="6.67058">
        <ele>121.3</ele>
        <time>2025-10-26T09:05:37Z</time>
      </trkpt>
      <trkpt lat="43.51256" lon="6.67059">
        <ele>121.3</ele>
        <time>2025-10-26T09:05:38Z</time>
      </trkpt>
      <trkpt lat="43.51256" lon="6.67061">
        <ele>121.3</ele>
        <time>2025-10-26T09:05:39Z</time>
      </trkpt>
      <trkpt lat="43.51256" lon="6.67063">
        <ele>121.3</ele>
        <time>2025-10-26T09:05:40Z</time>
      </trkpt>
      <trkpt lat="43.51256" lon="6.67065">
        <ele>121.3</ele>
        <time>2025-10-26T09:05:41Z</time>
      </trkpt>
      <trkpt lat="43.51256" lon="6.67066">
        <ele>121.3</ele>
        <time>2025-10-26T09:05:42Z</time>
      </trkpt>
      <trkpt lat="43.51257" lon="6.67067">
        <ele>121.2</ele>
        <time>2025-10-26T09:05:43Z</time>
      </trkpt>
      <trkpt lat="43.51258" lon="6.67068">
        <ele>121.3</ele>
        <time>2025-10-26T09:05:44Z</time>
      </trkpt>
      <trkpt lat="43.51258" lon="6.6707">
        <ele>121.3</ele>
        <time>2025-10-26T09:05:45Z</time>
      </trkpt>
      <trkpt lat="43.51259" lon="6.67071">
        <ele>121.2</ele>
        <time>2025-10-26T09:05:46Z</time>
      </trkpt>
      <trkpt lat="43.51259" lon="6.67072">
        <ele>121.4</ele>
        <time>2025-10-26T09:05:47Z</time>
      </trkpt>
      <trkpt lat="43.51259" lon="6.67074">
        <ele>121.3</ele>
        <time>2025-10-26T09:05:48Z</time>
      </trkpt>
      <trkpt lat="43.5126" lon="6.67075">
        <ele>121.3</ele>
        <time>2025-10-26T09:05:49Z</time>
      </trkpt>
      <trkpt lat="43.5126" lon="6.67076">
        <ele>121.4</ele>
        <time>2025-10-26T09:05:50Z</time>
      </trkpt>
      <trkpt lat="43.51261" lon="6.67077">
        <ele>121.4</ele>
        <time>2025-10-26T09:05:51Z</time>
      </trkpt>
      <trkpt lat="43.51261" lon="6.67079">
        <ele>121.3</ele>
        <time>2025-10-26T09:05:52Z</time>
      </trkpt>
      <trkpt lat="43.51261" lon="6.67079">
        <ele>121.4</ele>
        <time>2025-10-26T09:05:53Z</time>
      </trkpt>
      <trkpt lat="43.51261" lon="6.67081">
        <ele>121.4</ele>
        <time>2025-10-26T09:05:54Z</time>
      </trkpt>
      <trkpt lat="43.51261" lon="6.67083">
        <ele>121.5</ele>
        <time>2025-10-26T09:05:55Z</time>
      </trkpt>
      <trkpt lat="43.51262" lon="6.67084">
        <ele>121.5</ele>
        <time>2025-10-26T09:05:56Z</time>
      </trkpt>
      <trkpt lat="43.51262" lon="6.67085">
        <ele>121.7</ele>
        <time>2025-10-26T09:05:57Z</time>
      </trkpt>
      <trkpt lat="43.51263" lon="6.67087">
        <ele>121.8</ele>
        <time>2025-10-26T09:05:58Z</time>
      </trkpt>
      <trkpt lat="43.51264" lon="6.67088">
        <ele>121.8</ele>
        <time>2025-10-26T09:05:59Z</time>
      </trkpt>
      <trkpt lat="43.51264" lon="6.67089">
        <ele>121.8</ele>
        <time>2025-10-26T09:06:00Z</time>
      </trkpt>
      <trkpt lat="43.51265" lon="6.6709">
        <ele>121.8</ele>
        <time>2025-10-26T09:06:01Z</time>
      </trkpt>
      <trkpt lat="43.51266" lon="6.67092">
        <ele>121.9</ele>
        <time>2025-10-26T09:06:02Z</time>
      </trkpt>
      <trkpt lat="43.51266" lon="6.67093">
        <ele>121.9</ele>
        <time>2025-10-26T09:06:03Z</time>
      </trkpt>
      <trkpt lat="43.51267" lon="6.67093">
        <ele>121.9</ele>
        <time>2025-10-26T09:06:04Z</time>
      </trkpt>
      <trkpt lat="43.51268" lon="6.67095">
        <ele>122.1</ele>
        <time>2025-10-26T09:06:05Z</time>
      </trkpt>
      <trkpt lat="43.51269" lon="6.67097">
        <ele>122.1</ele>
        <time>2025-10-26T09:06:06Z</time>
      </trkpt>
      <trkpt lat="43.51269" lon="6.67098">
        <ele>122.1</ele>
        <time>2025-10-26T09:06:07Z</time>
      </trkpt>
      <trkpt lat="43.5127" lon="6.671">
        <ele>122.1</ele>
        <time>2025-10-26T09:06:08Z</time>
      </trkpt>
      <trkpt lat="43.5127" lon="6.67101">
        <ele>122.2</ele>
        <time>2025-10-26T09:06:09Z</time>
      </trkpt>
      <trkpt lat="43.51271" lon="6.67101">
        <ele>122.4</ele>
        <time>2025-10-26T09:06:10Z</time>
      </trkpt>
      <trkpt lat="43.51271" lon="6.67102">
        <ele>122.4</ele>
        <time>2025-10-26T09:06:11Z</time>
      </trkpt>
      <trkpt lat="43.51272" lon="6.67104">
        <ele>122.4</ele>
        <time>2025-10-26T09:06:12Z</time>
      </trkpt>
      <trkpt lat="43.51273" lon="6.67105">
        <ele>122.5</ele>
        <time>2025-10-26T09:06:13Z</time>
      </trkpt>
      <trkpt lat="43.51273" lon="6.67107">
        <ele>122.6</ele>
        <time>2025-10-26T09:06:14Z</time>
      </trkpt>
      <trkpt lat="43.51274" lon="6.67108">
        <ele>122.7</ele>
        <time>2025-10-26T09:06:15Z</time>
      </trkpt>
      <trkpt lat="43.51274" lon="6.67109">
        <ele>122.8</ele>
        <time>2025-10-26T09:06:16Z</time>
      </trkpt>
      <trkpt lat="43.51275" lon="6.67111">
        <ele>122.9</ele>
        <time>2025-10-26T09:06:17Z</time>
      </trkpt>
      <trkpt lat="43.51276" lon="6.67112">
        <ele>122.9</ele>
        <time>2025-10-26T09:06:18Z</time>
      </trkpt>
      <trkpt lat="43.51276" lon="6.67113">
        <ele>123</ele>
        <time>2025-10-26T09:06:19Z</time>
      </trkpt>
      <trkpt lat="43.51277" lon="6.67113">
        <ele>123</ele>
        <time>2025-10-26T09:06:20Z</time>
      </trkpt>
      <trkpt lat="43.51277" lon="6.67116">
        <ele>123.1</ele>
        <time>2025-10-26T09:06:21Z</time>
      </trkpt>
      <trkpt lat="43.51277" lon="6.67117">
        <ele>123.3</ele>
        <time>2025-10-26T09:06:22Z</time>
      </trkpt>
      <trkpt lat="43.51279" lon="6.67118">
        <ele>123.4</ele>
        <time>2025-10-26T09:06:23Z</time>
      </trkpt>
      <trkpt lat="43.5128" lon="6.67119">
        <ele>123.5</ele>
        <time>2025-10-26T09:06:24Z</time>
      </trkpt>
      <trkpt lat="43.5128" lon="6.6712">
        <ele>123.6</ele>
        <time>2025-10-26T09:06:25Z</time>
      </trkpt>
      <trkpt lat="43.51281" lon="6.67121">
        <ele>123.6</ele>
        <time>2025-10-26T09:06:26Z</time>
      </trkpt>
      <trkpt lat="43.51282" lon="6.67121">
        <ele>123.6</ele>
        <time>2025-10-26T09:06:27Z</time>
      </trkpt>
      <trkpt lat="43.51283" lon="6.67121">
        <ele>123.5</ele>
        <time>2025-10-26T09:06:28Z</time>
      </trkpt>
      <trkpt lat="43.51284" lon="6.67122">
        <ele>123.5</ele>
        <time>2025-10-26T09:06:29Z</time>
      </trkpt>
      <trkpt lat="43.51285" lon="6.67123">
        <ele>123.4</ele>
        <time>2025-10-26T09:06:30Z</time>
      </trkpt>
      <trkpt lat="43.51286" lon="6.67124">
        <ele>123.4</ele>
        <time>2025-10-26T09:06:31Z</time>
      </trkpt>
      <trkpt lat="43.51286" lon="6.67125">
        <ele>123.2</ele>
        <time>2025-10-26T09:06:32Z</time>
      </trkpt>
      <trkpt lat="43.51287" lon="6.67126">
        <ele>123.2</ele>
        <time>2025-10-26T09:06:33Z</time>
      </trkpt>
      <trkpt lat="43.51288" lon="6.67127">
        <ele>123.3</ele>
        <time>2025-10-26T09:06:34Z</time>
      </trkpt>
      <trkpt lat="43.51289" lon="6.67128">
        <ele>123.4</ele>
        <time>2025-10-26T09:06:35Z</time>
      </trkpt>
      <trkpt lat="43.51289" lon="6.67129">
        <ele>123.5</ele>
        <time>2025-10-26T09:06:36Z</time>
      </trkpt>
      <trkpt lat="43.5129" lon="6.6713">
        <ele>123.7</ele>
        <time>2025-10-26T09:06:37Z</time>
      </trkpt>
      <trkpt lat="43.5129" lon="6.67131">
        <ele>123.8</ele>
        <time>2025-10-26T09:06:38Z</time>
      </trkpt>
      <trkpt lat="43.51291" lon="6.67131">
        <ele>123.9</ele>
        <time>2025-10-26T09:06:39Z</time>
      </trkpt>
      <trkpt lat="43.51292" lon="6.67132">
        <ele>124</ele>
        <time>2025-10-26T09:06:40Z</time>
      </trkpt>
      <trkpt lat="43.51293" lon="6.67133">
        <ele>124.2</ele>
        <time>2025-10-26T09:06:41Z</time>
      </trkpt>
      <trkpt lat="43.51294" lon="6.67133">
        <ele>124.3</ele>
        <time>2025-10-26T09:06:42Z</time>
      </trkpt>
      <trkpt lat="43.51295" lon="6.67134">
        <ele>124.5</ele>
        <time>2025-10-26T09:06:43Z</time>
      </trkpt>
      <trkpt lat="43.51296" lon="6.67135">
        <ele>124.5</ele>
        <time>2025-10-26T09:06:44Z</time>
      </trkpt>
      <trkpt lat="43.51297" lon="6.67135">
        <ele>124.6</ele>
        <time>2025-10-26T09:06:45Z</time>
      </trkpt>
      <trkpt lat="43.51298" lon="6.67136">
        <ele>124.8</ele>
        <time>2025-10-26T09:06:46Z</time>
      </trkpt>
      <trkpt lat="43.51299" lon="6.67136">
        <ele>124.9</ele>
        <time>2025-10-26T09:06:47Z</time>
      </trkpt>
      <trkpt lat="43.513" lon="6.67136">
        <ele>125</ele>
        <time>2025-10-26T09:06:48Z</time>
      </trkpt>
      <trkpt lat="43.513" lon="6.67137">
        <ele>125.1</ele>
        <time>2025-10-26T09:06:49Z</time>
      </trkpt>
      <trkpt lat="43.51301" lon="6.67138">
        <ele>125.2</ele>
        <time>2025-10-26T09:06:50Z</time>
      </trkpt>
      <trkpt lat="43.51302" lon="6.67139">
        <ele>125.3</ele>
        <time>2025-10-26T09:06:51Z</time>
      </trkpt>
      <trkpt lat="43.51303" lon="6.67139">
        <ele>125.3</ele>
        <time>2025-10-26T09:06:52Z</time>
      </trkpt>
      <trkpt lat="43.51304" lon="6.6714">
        <ele>125.5</ele>
        <time>2025-10-26T09:06:53Z</time>
      </trkpt>
      <trkpt lat="43.51304" lon="6.67141">
        <ele>125.7</ele>
        <time>2025-10-26T09:06:54Z</time>
      </trkpt>
      <trkpt lat="43.51305" lon="6.67142">
        <ele>125.8</ele>
        <time>2025-10-26T09:06:55Z</time>
      </trkpt>
      <trkpt lat="43.51306" lon="6.67142">
        <ele>125.8</ele>
        <time>2025-10-26T09:06:56Z</time>
      </trkpt>
      <trkpt lat="43.51307" lon="6.67143">
        <ele>125.7</ele>
        <time>2025-10-26T09:06:57Z</time>
      </trkpt>
      <trkpt lat="43.51308" lon="6.67144">
        <ele>125.9</ele>
        <time>2025-10-26T09:06:58Z</time>
      </trkpt>
      <trkpt lat="43.51308" lon="6.67145">
        <ele>126</ele>
        <time>2025-10-26T09:06:59Z</time>
      </trkpt>
      <trkpt lat="43.51309" lon="6.67145">
        <ele>126.1</ele>
        <time>2025-10-26T09:07:00Z</time>
      </trkpt>
      <trkpt lat="43.5131" lon="6.67146">
        <ele>126.2</ele>
        <time>2025-10-26T09:07:01Z</time>
      </trkpt>
      <trkpt lat="43.51311" lon="6.67146">
        <ele>126.3</ele>
        <time>2025-10-26T09:07:02Z</time>
      </trkpt>
      <trkpt lat="43.51312" lon="6.67146">
        <ele>126.4</ele>
        <time>2025-10-26T09:07:03Z</time>
      </trkpt>
      <trkpt lat="43.51313" lon="6.67146">
        <ele>126.4</ele>
        <time>2025-10-26T09:07:04Z</time>
      </trkpt>
      <trkpt lat="43.51314" lon="6.67146">
        <ele>126.5</ele>
        <time>2025-10-26T09:07:05Z</time>
      </trkpt>
      <trkpt lat="43.51315" lon="6.67147">
        <ele>126.5</ele>
        <time>2025-10-26T09:07:06Z</time>
      </trkpt>
      <trkpt lat="43.51315" lon="6.67148">
        <ele>126.4</ele>
        <time>2025-10-26T09:07:07Z</time>
      </trkpt>
      <trkpt lat="43.51316" lon="6.67148">
        <ele>126.5</ele>
        <time>2025-10-26T09:07:08Z</time>
      </trkpt>
      <trkpt lat="43.51317" lon="6.67148">
        <ele>126.6</ele>
        <time>2025-10-26T09:07:09Z</time>
      </trkpt>
      <trkpt lat="43.51318" lon="6.67148">
        <ele>126.7</ele>
        <time>2025-10-26T09:07:10Z</time>
      </trkpt>
      <trkpt lat="43.51319" lon="6.67148">
        <ele>126.7</ele>
        <time>2025-10-26T09:07:11Z</time>
      </trkpt>
      <trkpt lat="43.5132" lon="6.67149">
        <ele>126.8</ele>
        <time>2025-10-26T09:07:12Z</time>
      </trkpt>
      <trkpt lat="43.51321" lon="6.67149">
        <ele>126.9</ele>
        <time>2025-10-26T09:07:13Z</time>
      </trkpt>
      <trkpt lat="43.51322" lon="6.6715">
        <ele>126.9</ele>
        <time>2025-10-26T09:07:14Z</time>
      </trkpt>
      <trkpt lat="43.51323" lon="6.67149">
        <ele>127</ele>
        <time>2025-10-26T09:07:15Z</time>
      </trkpt>
      <trkpt lat="43.51324" lon="6.67149">
        <ele>127</ele>
        <time>2025-10-26T09:07:16Z</time>
      </trkpt>
      <trkpt lat="43.51325" lon="6.67149">
        <ele>127</ele>
        <time>2025-10-26T09:07:17Z</time>
      </trkpt>
      <trkpt lat="43.51326" lon="6.67149">
        <ele>127</ele>
        <time>2025-10-26T09:07:18Z</time>
      </trkpt>
      <trkpt lat="43.51327" lon="6.67149">
        <ele>127.1</ele>
        <time>2025-10-26T09:07:19Z</time>
      </trkpt>
      <trkpt lat="43.51328" lon="6.6715">
        <ele>127.1</ele>
        <time>2025-10-26T09:07:20Z</time>
      </trkpt>
      <trkpt lat="43.51329" lon="6.6715">
        <ele>127.1</ele>
        <time>2025-10-26T09:07:21Z</time>
      </trkpt>
      <trkpt lat="43.5133" lon="6.67149">
        <ele>127.2</ele>
        <time>2025-10-26T09:07:22Z</time>
      </trkpt>
      <trkpt lat="43.51332" lon="6.67148">
        <ele>127.2</ele>
        <time>2025-10-26T09:07:23Z</time>
      </trkpt>
      <trkpt lat="43.51333" lon="6.67149">
        <ele>127.2</ele>
        <time>2025-10-26T09:07:24Z</time>
      </trkpt>
      <trkpt lat="43.51333" lon="6.67149">
        <ele>127.2</ele>
        <time>2025-10-26T09:07:25Z</time>
      </trkpt>
      <trkpt lat="43.51334" lon="6.67149">
        <ele>127.2</ele>
        <time>2025-10-26T09:07:26Z</time>
      </trkpt>
      <trkpt lat="43.51335" lon="6.6715">
        <ele>127.2</ele>
        <time>2025-10-26T09:07:27Z</time>
      </trkpt>
      <trkpt lat="43.51336" lon="6.67151">
        <ele>127.3</ele>
        <time>2025-10-26T09:07:28Z</time>
      </trkpt>
      <trkpt lat="43.51336" lon="6.67152">
        <ele>127.3</ele>
        <time>2025-10-26T09:07:29Z</time>
      </trkpt>
      <trkpt lat="43.51338" lon="6.67152">
        <ele>127.3</ele>
        <time>2025-10-26T09:07:30Z</time>
      </trkpt>
      <trkpt lat="43.51338" lon="6.67153">
        <ele>127.3</ele>
        <time>2025-10-26T09:07:31Z</time>
      </trkpt>
      <trkpt lat="43.51339" lon="6.67153">
        <ele>127.3</ele>
        <time>2025-10-26T09:07:32Z</time>
      </trkpt>
      <trkpt lat="43.5134" lon="6.67153">
        <ele>127.4</ele>
        <time>2025-10-26T09:07:33Z</time>
      </trkpt>
      <trkpt lat="43.51341" lon="6.67154">
        <ele>127.4</ele>
        <time>2025-10-26T09:07:34Z</time>
      </trkpt>
      <trkpt lat="43.51342" lon="6.67154">
        <ele>127.5</ele>
        <time>2025-10-26T09:07:35Z</time>
      </trkpt>
      <trkpt lat="43.51343" lon="6.67154">
        <ele>127.5</ele>
        <time>2025-10-26T09:07:36Z</time>
      </trkpt>
      <trkpt lat="43.51344" lon="6.67155">
        <ele>127.6</ele>
        <time>2025-10-26T09:07:37Z</time>
      </trkpt>
      <trkpt lat="43.51345" lon="6.67156">
        <ele>127.6</ele>
        <time>2025-10-26T09:07:38Z</time>
      </trkpt>
      <trkpt lat="43.51345" lon="6.67156">
        <ele>127.6</ele>
        <time>2025-10-26T09:07:39Z</time>
      </trkpt>
      <trkpt lat="43.51346" lon="6.67157">
        <ele>127.8</ele>
        <time>2025-10-26T09:07:40Z</time>
      </trkpt>
      <trkpt lat="43.51346" lon="6.67158">
        <ele>127.9</ele>
        <time>2025-10-26T09:07:41Z</time>
      </trkpt>
      <trkpt lat="43.51347" lon="6.67158">
        <ele>128.1</ele>
        <time>2025-10-26T09:07:42Z</time>
      </trkpt>
      <trkpt lat="43.51348" lon="6.67159">
        <ele>128.2</ele>
        <time>2025-10-26T09:07:43Z</time>
      </trkpt>
      <trkpt lat="43.51348" lon="6.6716">
        <ele>128.3</ele>
        <time>2025-10-26T09:07:44Z</time>
      </trkpt>
      <trkpt lat="43.51348" lon="6.67161">
        <ele>128.4</ele>
        <time>2025-10-26T09:07:45Z</time>
      </trkpt>
      <trkpt lat="43.51349" lon="6.67161">
        <ele>128.6</ele>
        <time>2025-10-26T09:07:46Z</time>
      </trkpt>
      <trkpt lat="43.51349" lon="6.67162">
        <ele>128.8</ele>
        <time>2025-10-26T09:07:47Z</time>
      </trkpt>
      <trkpt lat="43.5135" lon="6.67163">
        <ele>129</ele>
        <time>2025-10-26T09:07:48Z</time>
      </trkpt>
      <trkpt lat="43.51351" lon="6.67164">
        <ele>129.1</ele>
        <time>2025-10-26T09:07:49Z</time>
      </trkpt>
      <trkpt lat="43.51351" lon="6.67164">
        <ele>129.3</ele>
        <time>2025-10-26T09:07:50Z</time>
      </trkpt>
      <trkpt lat="43.51352" lon="6.67165">
        <ele>129.3</ele>
        <time>2025-10-26T09:07:51Z</time>
      </trkpt>
      <trkpt lat="43.51353" lon="6.67166">
        <ele>129.4</ele>
        <time>2025-10-26T09:07:52Z</time>
      </trkpt>
      <trkpt lat="43.51354" lon="6.67166">
        <ele>129.5</ele>
        <time>2025-10-26T09:07:53Z</time>
      </trkpt>
      <trkpt lat="43.51354" lon="6.67167">
        <ele>129.5</ele>
        <time>2025-10-26T09:07:54Z</time>
      </trkpt>
      <trkpt lat="43.51355" lon="6.67168">
        <ele>129.6</ele>
        <time>2025-10-26T09:07:55Z</time>
      </trkpt>
      <trkpt lat="43.51355" lon="6.67169">
        <ele>129.7</ele>
        <time>2025-10-26T09:07:56Z</time>
      </trkpt>
      <trkpt lat="43.51356" lon="6.67169">
        <ele>129.8</ele>
        <time>2025-10-26T09:07:57Z</time>
      </trkpt>
      <trkpt lat="43.51357" lon="6.67169">
        <ele>129.9</ele>
        <time>2025-10-26T09:07:58Z</time>
      </trkpt>
      <trkpt lat="43.51358" lon="6.6717">
        <ele>130</ele>
        <time>2025-10-26T09:07:59Z</time>
      </trkpt>
      <trkpt lat="43.51358" lon="6.6717">
        <ele>130.1</ele>
        <time>2025-10-26T09:08:00Z</time>
      </trkpt>
      <trkpt lat="43.51358" lon="6.67171">
        <ele>130.1</ele>
        <time>2025-10-26T09:08:01Z</time>
      </trkpt>
      <trkpt lat="43.51359" lon="6.67171">
        <ele>130.2</ele>
        <time>2025-10-26T09:08:02Z</time>
      </trkpt>
      <trkpt lat="43.51359" lon="6.67172">
        <ele>130.3</ele>
        <time>2025-10-26T09:08:03Z</time>
      </trkpt>
      <trkpt lat="43.5136" lon="6.67174">
        <ele>130.5</ele>
        <time>2025-10-26T09:08:04Z</time>
      </trkpt>
      <trkpt lat="43.5136" lon="6.67175">
        <ele>130.7</ele>
        <time>2025-10-26T09:08:05Z</time>
      </trkpt>
      <trkpt lat="43.51361" lon="6.67177">
        <ele>130.8</ele>
        <time>2025-10-26T09:08:06Z</time>
      </trkpt>
      <trkpt lat="43.51361" lon="6.67178">
        <ele>130.9</ele>
        <time>2025-10-26T09:08:07Z</time>
      </trkpt>
      <trkpt lat="43.51361" lon="6.6718">
        <ele>131</ele>
        <time>2025-10-26T09:08:08Z</time>
      </trkpt>
      <trkpt lat="43.51362" lon="6.67181">
        <ele>131.1</ele>
        <time>2025-10-26T09:08:09Z</time>
      </trkpt>
      <trkpt lat="43.51362" lon="6.67182">
        <ele>131.2</ele>
        <time>2025-10-26T09:08:10Z</time>
      </trkpt>
      <trkpt lat="43.51363" lon="6.67182">
        <ele>131.2</ele>
        <time>2025-10-26T09:08:11Z</time>
      </trkpt>
      <trkpt lat="43.51363" lon="6.67183">
        <ele>131.3</ele>
        <time>2025-10-26T09:08:12Z</time>
      </trkpt>
      <trkpt lat="43.51364" lon="6.67185">
        <ele>131.4</ele>
        <time>2025-10-26T09:08:13Z</time>
      </trkpt>
      <trkpt lat="43.51365" lon="6.67186">
        <ele>131.4</ele>
        <time>2025-10-26T09:08:14Z</time>
      </trkpt>
      <trkpt lat="43.51365" lon="6.67187">
        <ele>131.5</ele>
        <time>2025-10-26T09:08:15Z</time>
      </trkpt>
      <trkpt lat="43.51366" lon="6.67188">
        <ele>131.6</ele>
        <time>2025-10-26T09:08:16Z</time>
      </trkpt>
      <trkpt lat="43.51366" lon="6.67188">
        <ele>131.8</ele>
        <time>2025-10-26T09:08:17Z</time>
      </trkpt>
      <trkpt lat="43.51367" lon="6.6719">
        <ele>131.9</ele>
        <time>2025-10-26T09:08:18Z</time>
      </trkpt>
      <trkpt lat="43.51368" lon="6.67192">
        <ele>132</ele>
        <time>2025-10-26T09:08:19Z</time>
      </trkpt>
      <trkpt lat="43.51368" lon="6.67193">
        <ele>132.1</ele>
        <time>2025-10-26T09:08:20Z</time>
      </trkpt>
      <trkpt lat="43.51369" lon="6.67194">
        <ele>132.1</ele>
        <time>2025-10-26T09:08:21Z</time>
      </trkpt>
      <trkpt lat="43.5137" lon="6.67195">
        <ele>132.1</ele>
        <time>2025-10-26T09:08:22Z</time>
      </trkpt>
      <trkpt lat="43.5137" lon="6.67197">
        <ele>132.1</ele>
        <time>2025-10-26T09:08:23Z</time>
      </trkpt>
      <trkpt lat="43.51371" lon="6.67198">
        <ele>132.2</ele>
        <time>2025-10-26T09:08:24Z</time>
      </trkpt>
      <trkpt lat="43.51372" lon="6.672">
        <ele>132.3</ele>
        <time>2025-10-26T09:08:25Z</time>
      </trkpt>
      <trkpt lat="43.51372" lon="6.67201">
        <ele>132.4</ele>
        <time>2025-10-26T09:08:26Z</time>
      </trkpt>
      <trkpt lat="43.51373" lon="6.67202">
        <ele>132.4</ele>
        <time>2025-10-26T09:08:27Z</time>
      </trkpt>
      <trkpt lat="43.51373" lon="6.67202">
        <ele>132.5</ele>
        <time>2025-10-26T09:08:28Z</time>
      </trkpt>
      <trkpt lat="43.51374" lon="6.67203">
        <ele>132.6</ele>
        <time>2025-10-26T09:08:29Z</time>
      </trkpt>
      <trkpt lat="43.51375" lon="6.67204">
        <ele>132.6</ele>
        <time>2025-10-26T09:08:30Z</time>
      </trkpt>
      <trkpt lat="43.51376" lon="6.67204">
        <ele>132.6</ele>
        <time>2025-10-26T09:08:31Z</time>
      </trkpt>
      <trkpt lat="43.51376" lon="6.67206">
        <ele>132.6</ele>
        <time>2025-10-26T09:08:32Z</time>
      </trkpt>
      <trkpt lat="43.51376" lon="6.67207">
        <ele>132.7</ele>
        <time>2025-10-26T09:08:33Z</time>
      </trkpt>
      <trkpt lat="43.51377" lon="6.67209">
        <ele>132.7</ele>
        <time>2025-10-26T09:08:34Z</time>
      </trkpt>
      <trkpt lat="43.51378" lon="6.67211">
        <ele>132.7</ele>
        <time>2025-10-26T09:08:35Z</time>
      </trkpt>
      <trkpt lat="43.51379" lon="6.67212">
        <ele>132.7</ele>
        <time>2025-10-26T09:08:36Z</time>
      </trkpt>
      <trkpt lat="43.5138" lon="6.67212">
        <ele>132.9</ele>
        <time>2025-10-26T09:08:37Z</time>
      </trkpt>
      <trkpt lat="43.51381" lon="6.67213">
        <ele>133</ele>
        <time>2025-10-26T09:08:38Z</time>
      </trkpt>
      <trkpt lat="43.51382" lon="6.67214">
        <ele>133</ele>
        <time>2025-10-26T09:08:39Z</time>
      </trkpt>
      <trkpt lat="43.51383" lon="6.67216">
        <ele>133.1</ele>
        <time>2025-10-26T09:08:40Z</time>
      </trkpt>
      <trkpt lat="43.51383" lon="6.67216">
        <ele>133.1</ele>
        <time>2025-10-26T09:08:41Z</time>
      </trkpt>
      <trkpt lat="43.51384" lon="6.67217">
        <ele>133.1</ele>
        <time>2025-10-26T09:08:42Z</time>
      </trkpt>
      <trkpt lat="43.51384" lon="6.67218">
        <ele>133.2</ele>
        <time>2025-10-26T09:08:43Z</time>
      </trkpt>
      <trkpt lat="43.51385" lon="6.67219">
        <ele>133.2</ele>
        <time>2025-10-26T09:08:44Z</time>
      </trkpt>
      <trkpt lat="43.51385" lon="6.6722">
        <ele>133.1</ele>
        <time>2025-10-26T09:08:45Z</time>
      </trkpt>
      <trkpt lat="43.51386" lon="6.6722">
        <ele>133.2</ele>
        <time>2025-10-26T09:08:46Z</time>
      </trkpt>
      <trkpt lat="43.51386" lon="6.67221">
        <ele>133.3</ele>
        <time>2025-10-26T09:08:47Z</time>
      </trkpt>
      <trkpt lat="43.51387" lon="6.67221">
        <ele>133.3</ele>
        <time>2025-10-26T09:08:48Z</time>
      </trkpt>
      <trkpt lat="43.51388" lon="6.67222">
        <ele>133.3</ele>
        <time>2025-10-26T09:08:49Z</time>
      </trkpt>
      <trkpt lat="43.51388" lon="6.67223">
        <ele>133.3</ele>
        <time>2025-10-26T09:08:50Z</time>
      </trkpt>
      <trkpt lat="43.51389" lon="6.67223">
        <ele>133.4</ele>
        <time>2025-10-26T09:08:51Z</time>
      </trkpt>
      <trkpt lat="43.51389" lon="6.67224">
        <ele>133.4</ele>
        <time>2025-10-26T09:08:52Z</time>
      </trkpt>
      <trkpt lat="43.5139" lon="6.67225">
        <ele>133.5</ele>
        <time>2025-10-26T09:08:53Z</time>
      </trkpt>
      <trkpt lat="43.51391" lon="6.67226">
        <ele>133.5</ele>
        <time>2025-10-26T09:08:54Z</time>
      </trkpt>
      <trkpt lat="43.51391" lon="6.67228">
        <ele>133.6</ele>
        <time>2025-10-26T09:08:55Z</time>
      </trkpt>
      <trkpt lat="43.51392" lon="6.67228">
        <ele>133.9</ele>
        <time>2025-10-26T09:08:56Z</time>
      </trkpt>
      <trkpt lat="43.51392" lon="6.67229">
        <ele>134.1</ele>
        <time>2025-10-26T09:08:57Z</time>
      </trkpt>
      <trkpt lat="43.51393" lon="6.67229">
        <ele>134.1</ele>
        <time>2025-10-26T09:08:58Z</time>
      </trkpt>
      <trkpt lat="43.51393" lon="6.6723">
        <ele>134.3</ele>
        <time>2025-10-26T09:08:59Z</time>
      </trkpt>
      <trkpt lat="43.51394" lon="6.67232">
        <ele>134.5</ele>
        <time>2025-10-26T09:09:00Z</time>
      </trkpt>
      <trkpt lat="43.51394" lon="6.67233">
        <ele>134.6</ele>
        <time>2025-10-26T09:09:01Z</time>
      </trkpt>
      <trkpt lat="43.51394" lon="6.67234">
        <ele>134.7</ele>
        <time>2025-10-26T09:09:02Z</time>
      </trkpt>
      <trkpt lat="43.51395" lon="6.67235">
        <ele>134.9</ele>
        <time>2025-10-26T09:09:03Z</time>
      </trkpt>
      <trkpt lat="43.51395" lon="6.67236">
        <ele>135</ele>
        <time>2025-10-26T09:09:04Z</time>
      </trkpt>
      <trkpt lat="43.51396" lon="6.67238">
        <ele>135</ele>
        <time>2025-10-26T09:09:05Z</time>
      </trkpt>
      <trkpt lat="43.51395" lon="6.67239">
        <ele>135</ele>
        <time>2025-10-26T09:09:06Z</time>
      </trkpt>
      <trkpt lat="43.51395" lon="6.67242">
        <ele>135.1</ele>
        <time>2025-10-26T09:09:07Z</time>
      </trkpt>
      <trkpt lat="43.51395" lon="6.67243">
        <ele>135.2</ele>
        <time>2025-10-26T09:09:08Z</time>
      </trkpt>
      <trkpt lat="43.51396" lon="6.67246">
        <ele>135.2</ele>
        <time>2025-10-26T09:09:09Z</time>
      </trkpt>
      <trkpt lat="43.51396" lon="6.67248">
        <ele>135.3</ele>
        <time>2025-10-26T09:09:10Z</time>
      </trkpt>
      <trkpt lat="43.51397" lon="6.6725">
        <ele>135.2</ele>
        <time>2025-10-26T09:09:11Z</time>
      </trkpt>
      <trkpt lat="43.51398" lon="6.67251">
        <ele>135.3</ele>
        <time>2025-10-26T09:09:12Z</time>
      </trkpt>
      <trkpt lat="43.51399" lon="6.67252">
        <ele>135.3</ele>
        <time>2025-10-26T09:09:13Z</time>
      </trkpt>
      <trkpt lat="43.51399" lon="6.67254">
        <ele>135.3</ele>
        <time>2025-10-26T09:09:14Z</time>
      </trkpt>
      <trkpt lat="43.514" lon="6.67255">
        <ele>135.4</ele>
        <time>2025-10-26T09:09:15Z</time>
      </trkpt>
      <trkpt lat="43.51401" lon="6.67257">
        <ele>135.4</ele>
        <time>2025-10-26T09:09:16Z</time>
      </trkpt>
      <trkpt lat="43.51402" lon="6.67258">
        <ele>135.5</ele>
        <time>2025-10-26T09:09:17Z</time>
      </trkpt>
      <trkpt lat="43.51403" lon="6.6726">
        <ele>135.5</ele>
        <time>2025-10-26T09:09:18Z</time>
      </trkpt>
      <trkpt lat="43.51403" lon="6.67261">
        <ele>135.5</ele>
        <time>2025-10-26T09:09:19Z</time>
      </trkpt>
      <trkpt lat="43.51403" lon="6.67262">
        <ele>135.4</ele>
        <time>2025-10-26T09:09:20Z</time>
      </trkpt>
      <trkpt lat="43.51403" lon="6.67264">
        <ele>135.3</ele>
        <time>2025-10-26T09:09:21Z</time>
      </trkpt>
      <trkpt lat="43.51404" lon="6.67265">
        <ele>135.3</ele>
        <time>2025-10-26T09:09:22Z</time>
      </trkpt>
      <trkpt lat="43.51404" lon="6.67266">
        <ele>135.3</ele>
        <time>2025-10-26T09:09:23Z</time>
      </trkpt>
      <trkpt lat="43.51405" lon="6.67267">
        <ele>135.4</ele>
        <time>2025-10-26T09:09:24Z</time>
      </trkpt>
      <trkpt lat="43.51406" lon="6.67269">
        <ele>135.4</ele>
        <time>2025-10-26T09:09:25Z</time>
      </trkpt>
      <trkpt lat="43.51407" lon="6.6727">
        <ele>135.5</ele>
        <time>2025-10-26T09:09:26Z</time>
      </trkpt>
      <trkpt lat="43.51408" lon="6.67271">
        <ele>135.5</ele>
        <time>2025-10-26T09:09:27Z</time>
      </trkpt>
      <trkpt lat="43.51408" lon="6.67273">
        <ele>135.5</ele>
        <time>2025-10-26T09:09:28Z</time>
      </trkpt>
      <trkpt lat="43.51409" lon="6.67274">
        <ele>135.6</ele>
        <time>2025-10-26T09:09:29Z</time>
      </trkpt>
      <trkpt lat="43.51409" lon="6.67276">
        <ele>135.6</ele>
        <time>2025-10-26T09:09:30Z</time>
      </trkpt>
      <trkpt lat="43.5141" lon="6.67277">
        <ele>135.7</ele>
        <time>2025-10-26T09:09:31Z</time>
      </trkpt>
      <trkpt lat="43.5141" lon="6.67279">
        <ele>135.7</ele>
        <time>2025-10-26T09:09:32Z</time>
      </trkpt>
      <trkpt lat="43.51411" lon="6.6728">
        <ele>135.7</ele>
        <time>2025-10-26T09:09:33Z</time>
      </trkpt>
      <trkpt lat="43.51411" lon="6.67281">
        <ele>135.8</ele>
        <time>2025-10-26T09:09:34Z</time>
      </trkpt>
      <trkpt lat="43.51411" lon="6.67282">
        <ele>135.9</ele>
        <time>2025-10-26T09:09:35Z</time>
      </trkpt>
      <trkpt lat="43.51412" lon="6.67283">
        <ele>136</ele>
        <time>2025-10-26T09:09:36Z</time>
      </trkpt>
      <trkpt lat="43.51412" lon="6.67284">
        <ele>136.1</ele>
        <time>2025-10-26T09:09:37Z</time>
      </trkpt>
      <trkpt lat="43.51413" lon="6.67285">
        <ele>136.2</ele>
        <time>2025-10-26T09:09:38Z</time>
      </trkpt>
      <trkpt lat="43.51413" lon="6.67285">
        <ele>136.3</ele>
        <time>2025-10-26T09:09:39Z</time>
      </trkpt>
      <trkpt lat="43.51414" lon="6.67285">
        <ele>136.3</ele>
        <time>2025-10-26T09:09:40Z</time>
      </trkpt>
      <trkpt lat="43.51414" lon="6.67286">
        <ele>136.3</ele>
        <time>2025-10-26T09:09:41Z</time>
      </trkpt>
      <trkpt lat="43.51414" lon="6.67287">
        <ele>136.4</ele>
        <time>2025-10-26T09:09:42Z</time>
      </trkpt>
      <trkpt lat="43.51414" lon="6.67288">
        <ele>136.5</ele>
        <time>2025-10-26T09:09:43Z</time>
      </trkpt>
      <trkpt lat="43.51415" lon="6.67289">
        <ele>136.6</ele>
        <time>2025-10-26T09:09:44Z</time>
      </trkpt>
      <trkpt lat="43.51415" lon="6.6729">
        <ele>136.7</ele>
        <time>2025-10-26T09:09:45Z</time>
      </trkpt>
      <trkpt lat="43.51415" lon="6.67291">
        <ele>136.8</ele>
        <time>2025-10-26T09:09:46Z</time>
      </trkpt>
      <trkpt lat="43.51415" lon="6.67292">
        <ele>136.8</ele>
        <time>2025-10-26T09:09:47Z</time>
      </trkpt>
      <trkpt lat="43.51415" lon="6.67292">
        <ele>137</ele>
        <time>2025-10-26T09:09:48Z</time>
      </trkpt>
      <trkpt lat="43.51415" lon="6.67293">
        <ele>137.1</ele>
        <time>2025-10-26T09:09:49Z</time>
      </trkpt>
      <trkpt lat="43.51416" lon="6.67293">
        <ele>137.2</ele>
        <time>2025-10-26T09:09:50Z</time>
      </trkpt>
      <trkpt lat="43.51416" lon="6.67294">
        <ele>137.2</ele>
        <time>2025-10-26T09:09:51Z</time>
      </trkpt>
      <trkpt lat="43.51415" lon="6.67295">
        <ele>137.3</ele>
        <time>2025-10-26T09:09:52Z</time>
      </trkpt>
      <trkpt lat="43.51415" lon="6.67296">
        <ele>137.3</ele>
        <time>2025-10-26T09:09:53Z</time>
      </trkpt>
      <trkpt lat="43.51415" lon="6.67297">
        <ele>137.5</ele>
        <time>2025-10-26T09:09:54Z</time>
      </trkpt>
      <trkpt lat="43.51414" lon="6.67297">
        <ele>137.7</ele>
        <time>2025-10-26T09:09:55Z</time>
      </trkpt>
      <trkpt lat="43.51414" lon="6.67298">
        <ele>137.8</ele>
        <time>2025-10-26T09:09:56Z</time>
      </trkpt>
      <trkpt lat="43.51415" lon="6.67299">
        <ele>138</ele>
        <time>2025-10-26T09:09:57Z</time>
      </trkpt>
      <trkpt lat="43.51415" lon="6.673">
        <ele>138.1</ele>
        <time>2025-10-26T09:09:58Z</time>
      </trkpt>
      <trkpt lat="43.51416" lon="6.67301">
        <ele>138.2</ele>
        <time>2025-10-26T09:09:59Z</time>
      </trkpt>
      <trkpt lat="43.51416" lon="6.67303">
        <ele>138.3</ele>
        <time>2025-10-26T09:10:00Z</time>
      </trkpt>
      <trkpt lat="43.51417" lon="6.67304">
        <ele>138.6</ele>
        <time>2025-10-26T09:10:01Z</time>
      </trkpt>
      <trkpt lat="43.51416" lon="6.67305">
        <ele>138.6</ele>
        <time>2025-10-26T09:10:02Z</time>
      </trkpt>
      <trkpt lat="43.51416" lon="6.67306">
        <ele>138.6</ele>
        <time>2025-10-26T09:10:03Z</time>
      </trkpt>
      <trkpt lat="43.51417" lon="6.67308">
        <ele>138.4</ele>
        <time>2025-10-26T09:10:04Z</time>
      </trkpt>
      <trkpt lat="43.51416" lon="6.67309">
        <ele>138.5</ele>
        <time>2025-10-26T09:10:05Z</time>
      </trkpt>
      <trkpt lat="43.51416" lon="6.67309">
        <ele>138.5</ele>
        <time>2025-10-26T09:10:06Z</time>
      </trkpt>
      <trkpt lat="43.51416" lon="6.6731">
        <ele>138.5</ele>
        <time>2025-10-26T09:10:07Z</time>
      </trkpt>
      <trkpt lat="43.51416" lon="6.67311">
        <ele>138.5</ele>
        <time>2025-10-26T09:10:08Z</time>
      </trkpt>
      <trkpt lat="43.51415" lon="6.67313">
        <ele>138.5</ele>
        <time>2025-10-26T09:10:09Z</time>
      </trkpt>
      <trkpt lat="43.51415" lon="6.67315">
        <ele>138.6</ele>
        <time>2025-10-26T09:10:10Z</time>
      </trkpt>
      <trkpt lat="43.51416" lon="6.67316">
        <ele>138.6</ele>
        <time>2025-10-26T09:10:11Z</time>
      </trkpt>
      <trkpt lat="43.51416" lon="6.67318">
        <ele>138.7</ele>
        <time>2025-10-26T09:10:12Z</time>
      </trkpt>
      <trkpt lat="43.51416" lon="6.67319">
        <ele>138.8</ele>
        <time>2025-10-26T09:10:13Z</time>
      </trkpt>
      <trkpt lat="43.51416" lon="6.6732">
        <ele>138.8</ele>
        <time>2025-10-26T09:10:14Z</time>
      </trkpt>
      <trkpt lat="43.51416" lon="6.67322">
        <ele>138.8</ele>
        <time>2025-10-26T09:10:15Z</time>
      </trkpt>
      <trkpt lat="43.51415" lon="6.67323">
        <ele>138.8</ele>
        <time>2025-10-26T09:10:16Z</time>
      </trkpt>
      <trkpt lat="43.51415" lon="6.67325">
        <ele>138.8</ele>
        <time>2025-10-26T09:10:17Z</time>
      </trkpt>
      <trkpt lat="43.51414" lon="6.67326">
        <ele>138.9</ele>
        <time>2025-10-26T09:10:18Z</time>
      </trkpt>
      <trkpt lat="43.51414" lon="6.67327">
        <ele>138.9</ele>
        <time>2025-10-26T09:10:19Z</time>
      </trkpt>
      <trkpt lat="43.51412" lon="6.67328">
        <ele>139</ele>
        <time>2025-10-26T09:10:20Z</time>
      </trkpt>
      <trkpt lat="43.51412" lon="6.67329">
        <ele>139</ele>
        <time>2025-10-26T09:10:21Z</time>
      </trkpt>
      <trkpt lat="43.51411" lon="6.6733">
        <ele>139.1</ele>
        <time>2025-10-26T09:10:22Z</time>
      </trkpt>
      <trkpt lat="43.51411" lon="6.67331">
        <ele>139.1</ele>
        <time>2025-10-26T09:10:23Z</time>
      </trkpt>
      <trkpt lat="43.5141" lon="6.67333">
        <ele>139.1</ele>
        <time>2025-10-26T09:10:24Z</time>
      </trkpt>
      <trkpt lat="43.5141" lon="6.67333">
        <ele>139.2</ele>
        <time>2025-10-26T09:10:25Z</time>
      </trkpt>
      <trkpt lat="43.5141" lon="6.67334">
        <ele>139.2</ele>
        <time>2025-10-26T09:10:26Z</time>
      </trkpt>
      <trkpt lat="43.51409" lon="6.67336">
        <ele>139.2</ele>
        <time>2025-10-26T09:10:27Z</time>
      </trkpt>
      <trkpt lat="43.51409" lon="6.67337">
        <ele>139.2</ele>
        <time>2025-10-26T09:10:28Z</time>
      </trkpt>
      <trkpt lat="43.51408" lon="6.67339">
        <ele>139.3</ele>
        <time>2025-10-26T09:10:29Z</time>
      </trkpt>
      <trkpt lat="43.51407" lon="6.6734">
        <ele>139.3</ele>
        <time>2025-10-26T09:10:30Z</time>
      </trkpt>
      <trkpt lat="43.51406" lon="6.67341">
        <ele>139.4</ele>
        <time>2025-10-26T09:10:31Z</time>
      </trkpt>
      <trkpt lat="43.51405" lon="6.67341">
        <ele>139.4</ele>
        <time>2025-10-26T09:10:32Z</time>
      </trkpt>
      <trkpt lat="43.51405" lon="6.67342">
        <ele>139.5</ele>
        <time>2025-10-26T09:10:33Z</time>
      </trkpt>
      <trkpt lat="43.51404" lon="6.67343">
        <ele>139.6</ele>
        <time>2025-10-26T09:10:34Z</time>
      </trkpt>
      <trkpt lat="43.51403" lon="6.67344">
        <ele>139.9</ele>
        <time>2025-10-26T09:10:35Z</time>
      </trkpt>
      <trkpt lat="43.51403" lon="6.67346">
        <ele>140.1</ele>
        <time>2025-10-26T09:10:36Z</time>
      </trkpt>
      <trkpt lat="43.51403" lon="6.67348">
        <ele>140.2</ele>
        <time>2025-10-26T09:10:37Z</time>
      </trkpt>
      <trkpt lat="43.51402" lon="6.67348">
        <ele>140.3</ele>
        <time>2025-10-26T09:10:38Z</time>
      </trkpt>
      <trkpt lat="43.51402" lon="6.67349">
        <ele>140.3</ele>
        <time>2025-10-26T09:10:39Z</time>
      </trkpt>
      <trkpt lat="43.51401" lon="6.6735">
        <ele>140.6</ele>
        <time>2025-10-26T09:10:40Z</time>
      </trkpt>
      <trkpt lat="43.51401" lon="6.67352">
        <ele>140.7</ele>
        <time>2025-10-26T09:10:41Z</time>
      </trkpt>
      <trkpt lat="43.514" lon="6.67353">
        <ele>140.8</ele>
        <time>2025-10-26T09:10:42Z</time>
      </trkpt>
      <trkpt lat="43.514" lon="6.67355">
        <ele>140.9</ele>
        <time>2025-10-26T09:10:43Z</time>
      </trkpt>
      <trkpt lat="43.514" lon="6.67356">
        <ele>141</ele>
        <time>2025-10-26T09:10:44Z</time>
      </trkpt>
      <trkpt lat="43.514" lon="6.67358">
        <ele>141.1</ele>
        <time>2025-10-26T09:10:45Z</time>
      </trkpt>
      <trkpt lat="43.514" lon="6.6736">
        <ele>141.2</ele>
        <time>2025-10-26T09:10:46Z</time>
      </trkpt>
      <trkpt lat="43.51399" lon="6.67361">
        <ele>141.3</ele>
        <time>2025-10-26T09:10:47Z</time>
      </trkpt>
      <trkpt lat="43.51399" lon="6.67363">
        <ele>141.3</ele>
        <time>2025-10-26T09:10:48Z</time>
      </trkpt>
      <trkpt lat="43.51399" lon="6.67364">
        <ele>141.4</ele>
        <time>2025-10-26T09:10:49Z</time>
      </trkpt>
      <trkpt lat="43.51398" lon="6.67366">
        <ele>141.4</ele>
        <time>2025-10-26T09:10:50Z</time>
      </trkpt>
      <trkpt lat="43.51398" lon="6.67367">
        <ele>141.4</ele>
        <time>2025-10-26T09:10:51Z</time>
      </trkpt>
      <trkpt lat="43.51398" lon="6.67368">
        <ele>141.4</ele>
        <time>2025-10-26T09:10:52Z</time>
      </trkpt>
      <trkpt lat="43.51398" lon="6.67369">
        <ele>141.4</ele>
        <time>2025-10-26T09:10:53Z</time>
      </trkpt>
      <trkpt lat="43.51398" lon="6.67371">
        <ele>141.4</ele>
        <time>2025-10-26T09:10:54Z</time>
      </trkpt>
      <trkpt lat="43.51397" lon="6.67372">
        <ele>141.4</ele>
        <time>2025-10-26T09:10:55Z</time>
      </trkpt>
      <trkpt lat="43.51397" lon="6.67373">
        <ele>141.3</ele>
        <time>2025-10-26T09:10:56Z</time>
      </trkpt>
      <trkpt lat="43.51397" lon="6.67375">
        <ele>141.3</ele>
        <time>2025-10-26T09:10:57Z</time>
      </trkpt>
      <trkpt lat="43.51397" lon="6.67376">
        <ele>141.2</ele>
        <time>2025-10-26T09:10:58Z</time>
      </trkpt>
      <trkpt lat="43.51397" lon="6.67377">
        <ele>141.3</ele>
        <time>2025-10-26T09:10:59Z</time>
      </trkpt>
      <trkpt lat="43.51397" lon="6.67379">
        <ele>141.4</ele>
        <time>2025-10-26T09:11:00Z</time>
      </trkpt>
      <trkpt lat="43.51397" lon="6.6738">
        <ele>141.5</ele>
        <time>2025-10-26T09:11:01Z</time>
      </trkpt>
      <trkpt lat="43.51396" lon="6.6738">
        <ele>141.6</ele>
        <time>2025-10-26T09:11:02Z</time>
      </trkpt>
      <trkpt lat="43.51396" lon="6.67382">
        <ele>141.7</ele>
        <time>2025-10-26T09:11:03Z</time>
      </trkpt>
      <trkpt lat="43.51396" lon="6.67384">
        <ele>141.7</ele>
        <time>2025-10-26T09:11:04Z</time>
      </trkpt>
      <trkpt lat="43.51396" lon="6.67385">
        <ele>141.8</ele>
        <time>2025-10-26T09:11:05Z</time>
      </trkpt>
      <trkpt lat="43.51396" lon="6.67387">
        <ele>141.8</ele>
        <time>2025-10-26T09:11:06Z</time>
      </trkpt>
      <trkpt lat="43.51396" lon="6.67388">
        <ele>141.8</ele>
        <time>2025-10-26T09:11:07Z</time>
      </trkpt>
      <trkpt lat="43.51396" lon="6.6739">
        <ele>141.8</ele>
        <time>2025-10-26T09:11:08Z</time>
      </trkpt>
      <trkpt lat="43.51395" lon="6.67391">
        <ele>142</ele>
        <time>2025-10-26T09:11:09Z</time>
      </trkpt>
      <trkpt lat="43.51396" lon="6.67392">
        <ele>142</ele>
        <time>2025-10-26T09:11:10Z</time>
      </trkpt>
      <trkpt lat="43.51396" lon="6.67393">
        <ele>142.1</ele>
        <time>2025-10-26T09:11:11Z</time>
      </trkpt>
      <trkpt lat="43.51396" lon="6.67394">
        <ele>142.2</ele>
        <time>2025-10-26T09:11:12Z</time>
      </trkpt>
      <trkpt lat="43.51395" lon="6.67393">
        <ele>142.2</ele>
        <time>2025-10-26T09:11:13Z</time>
      </trkpt>
      <trkpt lat="43.51395" lon="6.67395">
        <ele>142.2</ele>
        <time>2025-10-26T09:11:14Z</time>
      </trkpt>
      <trkpt lat="43.51395" lon="6.67396">
        <ele>142.1</ele>
        <time>2025-10-26T09:11:15Z</time>
      </trkpt>
      <trkpt lat="43.51394" lon="6.67397">
        <ele>142.2</ele>
        <time>2025-10-26T09:11:16Z</time>
      </trkpt>
      <trkpt lat="43.51394" lon="6.67399">
        <ele>142.3</ele>
        <time>2025-10-26T09:11:17Z</time>
      </trkpt>
      <trkpt lat="43.51394" lon="6.674">
        <ele>142.5</ele>
        <time>2025-10-26T09:11:18Z</time>
      </trkpt>
      <trkpt lat="43.51394" lon="6.67401">
        <ele>142.6</ele>
        <time>2025-10-26T09:11:19Z</time>
      </trkpt>
      <trkpt lat="43.51394" lon="6.67402">
        <ele>142.6</ele>
        <time>2025-10-26T09:11:20Z</time>
      </trkpt>
      <trkpt lat="43.51394" lon="6.67404">
        <ele>142.7</ele>
        <time>2025-10-26T09:11:21Z</time>
      </trkpt>
      <trkpt lat="43.51394" lon="6.67405">
        <ele>142.7</ele>
        <time>2025-10-26T09:11:22Z</time>
      </trkpt>
      <trkpt lat="43.51394" lon="6.67407">
        <ele>142.9</ele>
        <time>2025-10-26T09:11:23Z</time>
      </trkpt>
      <trkpt lat="43.51394" lon="6.67408">
        <ele>142.9</ele>
        <time>2025-10-26T09:11:24Z</time>
      </trkpt>
      <trkpt lat="43.51394" lon="6.67409">
        <ele>143</ele>
        <time>2025-10-26T09:11:25Z</time>
      </trkpt>
      <trkpt lat="43.51394" lon="6.6741">
        <ele>143</ele>
        <time>2025-10-26T09:11:26Z</time>
      </trkpt>
      <trkpt lat="43.51393" lon="6.67411">
        <ele>143</ele>
        <time>2025-10-26T09:11:27Z</time>
      </trkpt>
      <trkpt lat="43.51393" lon="6.67413">
        <ele>143.2</ele>
        <time>2025-10-26T09:11:28Z</time>
      </trkpt>
      <trkpt lat="43.51393" lon="6.67414">
        <ele>143.3</ele>
        <time>2025-10-26T09:11:29Z</time>
      </trkpt>
      <trkpt lat="43.51392" lon="6.67416">
        <ele>143.4</ele>
        <time>2025-10-26T09:11:30Z</time>
      </trkpt>
      <trkpt lat="43.51392" lon="6.67417">
        <ele>143.5</ele>
        <time>2025-10-26T09:11:31Z</time>
      </trkpt>
      <trkpt lat="43.51392" lon="6.67418">
        <ele>143.5</ele>
        <time>2025-10-26T09:11:32Z</time>
      </trkpt>
      <trkpt lat="43.51391" lon="6.67419">
        <ele>143.6</ele>
        <time>2025-10-26T09:11:33Z</time>
      </trkpt>
      <trkpt lat="43.5139" lon="6.67421">
        <ele>143.7</ele>
        <time>2025-10-26T09:11:34Z</time>
      </trkpt>
      <trkpt lat="43.5139" lon="6.67422">
        <ele>143.6</ele>
        <time>2025-10-26T09:11:35Z</time>
      </trkpt>
      <trkpt lat="43.51388" lon="6.67422">
        <ele>143.6</ele>
        <time>2025-10-26T09:11:36Z</time>
      </trkpt>
      <trkpt lat="43.51387" lon="6.67423">
        <ele>143.6</ele>
        <time>2025-10-26T09:11:37Z</time>
      </trkpt>
      <trkpt lat="43.51386" lon="6.67424">
        <ele>143.6</ele>
        <time>2025-10-26T09:11:38Z</time>
      </trkpt>
      <trkpt lat="43.51386" lon="6.67425">
        <ele>143.6</ele>
        <time>2025-10-26T09:11:39Z</time>
      </trkpt>
      <trkpt lat="43.51385" lon="6.67426">
        <ele>143.6</ele>
        <time>2025-10-26T09:11:40Z</time>
      </trkpt>
      <trkpt lat="43.51384" lon="6.67427">
        <ele>143.7</ele>
        <time>2025-10-26T09:11:41Z</time>
      </trkpt>
      <trkpt lat="43.51383" lon="6.67428">
        <ele>143.7</ele>
        <time>2025-10-26T09:11:42Z</time>
      </trkpt>
      <trkpt lat="43.51382" lon="6.6743">
        <ele>143.7</ele>
        <time>2025-10-26T09:11:43Z</time>
      </trkpt>
      <trkpt lat="43.51381" lon="6.67431">
        <ele>143.7</ele>
        <time>2025-10-26T09:11:44Z</time>
      </trkpt>
      <trkpt lat="43.5138" lon="6.67432">
        <ele>143.7</ele>
        <time>2025-10-26T09:11:45Z</time>
      </trkpt>
      <trkpt lat="43.51379" lon="6.67433">
        <ele>143.8</ele>
        <time>2025-10-26T09:11:46Z</time>
      </trkpt>
      <trkpt lat="43.51378" lon="6.67434">
        <ele>143.8</ele>
        <time>2025-10-26T09:11:47Z</time>
      </trkpt>
      <trkpt lat="43.51377" lon="6.67435">
        <ele>144</ele>
        <time>2025-10-26T09:11:48Z</time>
      </trkpt>
      <trkpt lat="43.51376" lon="6.67435">
        <ele>144.1</ele>
        <time>2025-10-26T09:11:49Z</time>
      </trkpt>
      <trkpt lat="43.51375" lon="6.67436">
        <ele>144.2</ele>
        <time>2025-10-26T09:11:50Z</time>
      </trkpt>
      <trkpt lat="43.51374" lon="6.67437">
        <ele>144.2</ele>
        <time>2025-10-26T09:11:51Z</time>
      </trkpt>
      <trkpt lat="43.51373" lon="6.67437">
        <ele>144.3</ele>
        <time>2025-10-26T09:11:52Z</time>
      </trkpt>
      <trkpt lat="43.51373" lon="6.67438">
        <ele>144.5</ele>
        <time>2025-10-26T09:11:53Z</time>
      </trkpt>
      <trkpt lat="43.51372" lon="6.67439">
        <ele>144.6</ele>
        <time>2025-10-26T09:11:54Z</time>
      </trkpt>
      <trkpt lat="43.51371" lon="6.6744">
        <ele>144.7</ele>
        <time>2025-10-26T09:11:55Z</time>
      </trkpt>
      <trkpt lat="43.5137" lon="6.67441">
        <ele>144.8</ele>
        <time>2025-10-26T09:11:56Z</time>
      </trkpt>
      <trkpt lat="43.51369" lon="6.67442">
        <ele>144.9</ele>
        <time>2025-10-26T09:11:57Z</time>
      </trkpt>
      <trkpt lat="43.51368" lon="6.67442">
        <ele>144.9</ele>
        <time>2025-10-26T09:11:58Z</time>
      </trkpt>
      <trkpt lat="43.51367" lon="6.67443">
        <ele>144.8</ele>
        <time>2025-10-26T09:11:59Z</time>
      </trkpt>
      <trkpt lat="43.51366" lon="6.67444">
        <ele>144.9</ele>
        <time>2025-10-26T09:12:00Z</time>
      </trkpt>
      <trkpt lat="43.51364" lon="6.67446">
        <ele>144.9</ele>
        <time>2025-10-26T09:12:01Z</time>
      </trkpt>
      <trkpt lat="43.51363" lon="6.67447">
        <ele>144.9</ele>
        <time>2025-10-26T09:12:02Z</time>
      </trkpt>
      <trkpt lat="43.51362" lon="6.67447">
        <ele>144.9</ele>
        <time>2025-10-26T09:12:03Z</time>
      </trkpt>
      <trkpt lat="43.51361" lon="6.67448">
        <ele>145</ele>
        <time>2025-10-26T09:12:04Z</time>
      </trkpt>
      <trkpt lat="43.5136" lon="6.67449">
        <ele>145</ele>
        <time>2025-10-26T09:12:05Z</time>
      </trkpt>
      <trkpt lat="43.51359" lon="6.6745">
        <ele>145</ele>
        <time>2025-10-26T09:12:06Z</time>
      </trkpt>
      <trkpt lat="43.51358" lon="6.6745">
        <ele>144.9</ele>
        <time>2025-10-26T09:12:07Z</time>
      </trkpt>
      <trkpt lat="43.51357" lon="6.67451">
        <ele>144.9</ele>
        <time>2025-10-26T09:12:08Z</time>
      </trkpt>
      <trkpt lat="43.51356" lon="6.67452">
        <ele>144.9</ele>
        <time>2025-10-26T09:12:09Z</time>
      </trkpt>
      <trkpt lat="43.51355" lon="6.67452">
        <ele>144.8</ele>
        <time>2025-10-26T09:12:10Z</time>
      </trkpt>
      <trkpt lat="43.51354" lon="6.67453">
        <ele>144.8</ele>
        <time>2025-10-26T09:12:11Z</time>
      </trkpt>
      <trkpt lat="43.51353" lon="6.67454">
        <ele>144.9</ele>
        <time>2025-10-26T09:12:12Z</time>
      </trkpt>
      <trkpt lat="43.51353" lon="6.67455">
        <ele>144.9</ele>
        <time>2025-10-26T09:12:13Z</time>
      </trkpt>
      <trkpt lat="43.51352" lon="6.67456">
        <ele>144.9</ele>
        <time>2025-10-26T09:12:14Z</time>
      </trkpt>
      <trkpt lat="43.51351" lon="6.67457">
        <ele>144.9</ele>
        <time>2025-10-26T09:12:15Z</time>
      </trkpt>
      <trkpt lat="43.5135" lon="6.67457">
        <ele>144.9</ele>
        <time>2025-10-26T09:12:16Z</time>
      </trkpt>
      <trkpt lat="43.51349" lon="6.67458">
        <ele>145</ele>
        <time>2025-10-26T09:12:17Z</time>
      </trkpt>
      <trkpt lat="43.51348" lon="6.67457">
        <ele>145</ele>
        <time>2025-10-26T09:12:18Z</time>
      </trkpt>
      <trkpt lat="43.51347" lon="6.67457">
        <ele>145.1</ele>
        <time>2025-10-26T09:12:19Z</time>
      </trkpt>
      <trkpt lat="43.51346" lon="6.67457">
        <ele>145</ele>
        <time>2025-10-26T09:12:20Z</time>
      </trkpt>
      <trkpt lat="43.51344" lon="6.67457">
        <ele>145</ele>
        <time>2025-10-26T09:12:21Z</time>
      </trkpt>
      <trkpt lat="43.51344" lon="6.67458">
        <ele>145.1</ele>
        <time>2025-10-26T09:12:22Z</time>
      </trkpt>
      <trkpt lat="43.51343" lon="6.67459">
        <ele>145.1</ele>
        <time>2025-10-26T09:12:23Z</time>
      </trkpt>
      <trkpt lat="43.51342" lon="6.67459">
        <ele>145.2</ele>
        <time>2025-10-26T09:12:24Z</time>
      </trkpt>
      <trkpt lat="43.51342" lon="6.6746">
        <ele>145.3</ele>
        <time>2025-10-26T09:12:25Z</time>
      </trkpt>
      <trkpt lat="43.51342" lon="6.6746">
        <ele>145.3</ele>
        <time>2025-10-26T09:12:26Z</time>
      </trkpt>
      <trkpt lat="43.51342" lon="6.6746">
        <ele>145.4</ele>
        <time>2025-10-26T09:12:27Z</time>
      </trkpt>
      <trkpt lat="43.51342" lon="6.6746">
        <ele>145.6</ele>
        <time>2025-10-26T09:12:28Z</time>
      </trkpt>
      <trkpt lat="43.51342" lon="6.67461">
        <ele>145.7</ele>
        <time>2025-10-26T09:12:29Z</time>
      </trkpt>
      <trkpt lat="43.51341" lon="6.67461">
        <ele>145.9</ele>
        <time>2025-10-26T09:12:30Z</time>
      </trkpt>
      <trkpt lat="43.51341" lon="6.67461">
        <ele>146</ele>
        <time>2025-10-26T09:12:31Z</time>
      </trkpt>
      <trkpt lat="43.51341" lon="6.67461">
        <ele>146.2</ele>
        <time>2025-10-26T09:12:32Z</time>
      </trkpt>
      <trkpt lat="43.51341" lon="6.67461">
        <ele>146.3</ele>
        <time>2025-10-26T09:12:33Z</time>
      </trkpt>
      <trkpt lat="43.51341" lon="6.67461">
        <ele>146.4</ele>
        <time>2025-10-26T09:12:34Z</time>
      </trkpt>
      <trkpt lat="43.51341" lon="6.67462">
        <ele>146.5</ele>
        <time>2025-10-26T09:12:35Z</time>
      </trkpt>
      <trkpt lat="43.5134" lon="6.67463">
        <ele>146.5</ele>
        <time>2025-10-26T09:12:36Z</time>
      </trkpt>
      <trkpt lat="43.5134" lon="6.67463">
        <ele>146.6</ele>
        <time>2025-10-26T09:12:37Z</time>
      </trkpt>
      <trkpt lat="43.51339" lon="6.67463">
        <ele>146.5</ele>
        <time>2025-10-26T09:12:38Z</time>
      </trkpt>
      <trkpt lat="43.51339" lon="6.67464">
        <ele>146.5</ele>
        <time>2025-10-26T09:12:39Z</time>
      </trkpt>
      <trkpt lat="43.51339" lon="6.67463">
        <ele>146.5</ele>
        <time>2025-10-26T09:12:40Z</time>
      </trkpt>
      <trkpt lat="43.51339" lon="6.67464">
        <ele>146.5</ele>
        <time>2025-10-26T09:12:41Z</time>
      </trkpt>
      <trkpt lat="43.51339" lon="6.67464">
        <ele>146.5</ele>
        <time>2025-10-26T09:12:42Z</time>
      </trkpt>
      <trkpt lat="43.51339" lon="6.67464">
        <ele>146.4</ele>
        <time>2025-10-26T09:12:43Z</time>
      </trkpt>
      <trkpt lat="43.51338" lon="6.67464">
        <ele>146.3</ele>
        <time>2025-10-26T09:12:44Z</time>
      </trkpt>
      <trkpt lat="43.51338" lon="6.67464">
        <ele>146.1</ele>
        <time>2025-10-26T09:12:45Z</time>
      </trkpt>
      <trkpt lat="43.51338" lon="6.67463">
        <ele>146</ele>
        <time>2025-10-26T09:12:46Z</time>
      </trkpt>
      <trkpt lat="43.51338" lon="6.67463">
        <ele>145.9</ele>
        <time>2025-10-26T09:12:47Z</time>
      </trkpt>
      <trkpt lat="43.51338" lon="6.67463">
        <ele>145.9</ele>
        <time>2025-10-26T09:12:48Z</time>
      </trkpt>
      <trkpt lat="43.51339" lon="6.67464">
        <ele>145.8</ele>
        <time>2025-10-26T09:12:49Z</time>
      </trkpt>
      <trkpt lat="43.51339" lon="6.67464">
        <ele>145.8</ele>
        <time>2025-10-26T09:12:50Z</time>
      </trkpt>
      <trkpt lat="43.51339" lon="6.67464">
        <ele>145.9</ele>
        <time>2025-10-26T09:12:51Z</time>
      </trkpt>
      <trkpt lat="43.51339" lon="6.67464">
        <ele>145.9</ele>
        <time>2025-10-26T09:12:52Z</time>
      </trkpt>
      <trkpt lat="43.5134" lon="6.67464">
        <ele>145.9</ele>
        <time>2025-10-26T09:12:53Z</time>
      </trkpt>
      <trkpt lat="43.5134" lon="6.67464">
        <ele>145.8</ele>
        <time>2025-10-26T09:12:54Z</time>
      </trkpt>
      <trkpt lat="43.5134" lon="6.67464">
        <ele>145.8</ele>
        <time>2025-10-26T09:12:55Z</time>
      </trkpt>
      <trkpt lat="43.5134" lon="6.67464">
        <ele>145.7</ele>
        <time>2025-10-26T09:12:56Z</time>
      </trkpt>
      <trkpt lat="43.5134" lon="6.67464">
        <ele>145.7</ele>
        <time>2025-10-26T09:12:57Z</time>
      </trkpt>
      <trkpt lat="43.51339" lon="6.67464">
        <ele>145.7</ele>
        <time>2025-10-26T09:12:58Z</time>
      </trkpt>
      <trkpt lat="43.51339" lon="6.67464">
        <ele>145.7</ele>
        <time>2025-10-26T09:12:59Z</time>
      </trkpt>
      <trkpt lat="43.51339" lon="6.67464">
        <ele>145.6</ele>
        <time>2025-10-26T09:13:00Z</time>
      </trkpt>
      <trkpt lat="43.51339" lon="6.67464">
        <ele>145.6</ele>
        <time>2025-10-26T09:13:01Z</time>
      </trkpt>
      <trkpt lat="43.51339" lon="6.67464">
        <ele>145.6</ele>
        <time>2025-10-26T09:13:02Z</time>
      </trkpt>
      <trkpt lat="43.51339" lon="6.67464">
        <ele>145.6</ele>
        <time>2025-10-26T09:13:03Z</time>
      </trkpt>
      <trkpt lat="43.51339" lon="6.67464">
        <ele>145.6</ele>
        <time>2025-10-26T09:13:04Z</time>
      </trkpt>
      <trkpt lat="43.51339" lon="6.67464">
        <ele>145.7</ele>
        <time>2025-10-26T09:13:05Z</time>
      </trkpt>
      <trkpt lat="43.51339" lon="6.67464">
        <ele>145.8</ele>
        <time>2025-10-26T09:13:06Z</time>
      </trkpt>
      <trkpt lat="43.51338" lon="6.67464">
        <ele>145.9</ele>
        <time>2025-10-26T09:13:07Z</time>
      </trkpt>
      <trkpt lat="43.51338" lon="6.67463">
        <ele>145.9</ele>
        <time>2025-10-26T09:13:08Z</time>
      </trkpt>
      <trkpt lat="43.51338" lon="6.67464">
        <ele>145.9</ele>
        <time>2025-10-26T09:13:09Z</time>
      </trkpt>
      <trkpt lat="43.51338" lon="6.67464">
        <ele>145.8</ele>
        <time>2025-10-26T09:13:10Z</time>
      </trkpt>
      <trkpt lat="43.51337" lon="6.67464">
        <ele>145.7</ele>
        <time>2025-10-26T09:13:11Z</time>
      </trkpt>
      <trkpt lat="43.51336" lon="6.67465">
        <ele>145.7</ele>
        <time>2025-10-26T09:13:12Z</time>
      </trkpt>
      <trkpt lat="43.51336" lon="6.67465">
        <ele>145.6</ele>
        <time>2025-10-26T09:13:13Z</time>
      </trkpt>
      <trkpt lat="43.51335" lon="6.67466">
        <ele>145.6</ele>
        <time>2025-10-26T09:13:14Z</time>
      </trkpt>
      <trkpt lat="43.51334" lon="6.67467">
        <ele>145.6</ele>
        <time>2025-10-26T09:13:15Z</time>
      </trkpt>
      <trkpt lat="43.51333" lon="6.67467">
        <ele>145.6</ele>
        <time>2025-10-26T09:13:16Z</time>
      </trkpt>
      <trkpt lat="43.51332" lon="6.67468">
        <ele>145.6</ele>
        <time>2025-10-26T09:13:17Z</time>
      </trkpt>
      <trkpt lat="43.51331" lon="6.67468">
        <ele>145.6</ele>
        <time>2025-10-26T09:13:18Z</time>
      </trkpt>
      <trkpt lat="43.5133" lon="6.67469">
        <ele>145.6</ele>
        <time>2025-10-26T09:13:19Z</time>
      </trkpt>
      <trkpt lat="43.51329" lon="6.6747">
        <ele>145.5</ele>
        <time>2025-10-26T09:13:20Z</time>
      </trkpt>
      <trkpt lat="43.51327" lon="6.6747">
        <ele>145.5</ele>
        <time>2025-10-26T09:13:21Z</time>
      </trkpt>
      <trkpt lat="43.51326" lon="6.67471">
        <ele>145.6</ele>
        <time>2025-10-26T09:13:22Z</time>
      </trkpt>
      <trkpt lat="43.51325" lon="6.67472">
        <ele>145.6</ele>
        <time>2025-10-26T09:13:23Z</time>
      </trkpt>
      <trkpt lat="43.51324" lon="6.67473">
        <ele>145.7</ele>
        <time>2025-10-26T09:13:24Z</time>
      </trkpt>
      <trkpt lat="43.51323" lon="6.67475">
        <ele>145.7</ele>
        <time>2025-10-26T09:13:25Z</time>
      </trkpt>
      <trkpt lat="43.51322" lon="6.67476">
        <ele>145.7</ele>
        <time>2025-10-26T09:13:26Z</time>
      </trkpt>
      <trkpt lat="43.51321" lon="6.67478">
        <ele>145.7</ele>
        <time>2025-10-26T09:13:27Z</time>
      </trkpt>
      <trkpt lat="43.5132" lon="6.67479">
        <ele>145.7</ele>
        <time>2025-10-26T09:13:28Z</time>
      </trkpt>
      <trkpt lat="43.5132" lon="6.6748">
        <ele>145.6</ele>
        <time>2025-10-26T09:13:29Z</time>
      </trkpt>
      <trkpt lat="43.5132" lon="6.6748">
        <ele>145.6</ele>
        <time>2025-10-26T09:13:30Z</time>
      </trkpt>
      <trkpt lat="43.5132" lon="6.6748">
        <ele>145.5</ele>
        <time>2025-10-26T09:13:31Z</time>
      </trkpt>
      <trkpt lat="43.5132" lon="6.67481">
        <ele>145.5</ele>
        <time>2025-10-26T09:13:32Z</time>
      </trkpt>
      <trkpt lat="43.51319" lon="6.67482">
        <ele>145.4</ele>
        <time>2025-10-26T09:13:33Z</time>
      </trkpt>
      <trkpt lat="43.51319" lon="6.67483">
        <ele>145.4</ele>
        <time>2025-10-26T09:13:34Z</time>
      </trkpt>
      <trkpt lat="43.51318" lon="6.67485">
        <ele>145.3</ele>
        <time>2025-10-26T09:13:35Z</time>
      </trkpt>
      <trkpt lat="43.51318" lon="6.67486">
        <ele>145.3</ele>
        <time>2025-10-26T09:13:36Z</time>
      </trkpt>
      <trkpt lat="43.51318" lon="6.67488">
        <ele>145.2</ele>
        <time>2025-10-26T09:13:37Z</time>
      </trkpt>
      <trkpt lat="43.51317" lon="6.6749">
        <ele>145.2</ele>
        <time>2025-10-26T09:13:38Z</time>
      </trkpt>
      <trkpt lat="43.51317" lon="6.67492">
        <ele>145.1</ele>
        <time>2025-10-26T09:13:39Z</time>
      </trkpt>
      <trkpt lat="43.51316" lon="6.67494">
        <ele>144.8</ele>
        <time>2025-10-26T09:13:40Z</time>
      </trkpt>
      <trkpt lat="43.51316" lon="6.67496">
        <ele>144.7</ele>
        <time>2025-10-26T09:13:41Z</time>
      </trkpt>
      <trkpt lat="43.51315" lon="6.67497">
        <ele>144.9</ele>
        <time>2025-10-26T09:13:42Z</time>
      </trkpt>
      <trkpt lat="43.51315" lon="6.67499">
        <ele>144.8</ele>
        <time>2025-10-26T09:13:43Z</time>
      </trkpt>
      <trkpt lat="43.51314" lon="6.67501">
        <ele>144.8</ele>
        <time>2025-10-26T09:13:44Z</time>
      </trkpt>
      <trkpt lat="43.51313" lon="6.67502">
        <ele>144.6</ele>
        <time>2025-10-26T09:13:45Z</time>
      </trkpt>
      <trkpt lat="43.51313" lon="6.67504">
        <ele>144.5</ele>
        <time>2025-10-26T09:13:46Z</time>
      </trkpt>
      <trkpt lat="43.51312" lon="6.67507">
        <ele>144.4</ele>
        <time>2025-10-26T09:13:47Z</time>
      </trkpt>
      <trkpt lat="43.51312" lon="6.67509">
        <ele>144.3</ele>
        <time>2025-10-26T09:13:48Z</time>
      </trkpt>
      <trkpt lat="43.51312" lon="6.6751">
        <ele>144.3</ele>
        <time>2025-10-26T09:13:49Z</time>
      </trkpt>
      <trkpt lat="43.51312" lon="6.67511">
        <ele>144.2</ele>
        <time>2025-10-26T09:13:50Z</time>
      </trkpt>
      <trkpt lat="43.51312" lon="6.67513">
        <ele>144.2</ele>
        <time>2025-10-26T09:13:51Z</time>
      </trkpt>
      <trkpt lat="43.51312" lon="6.67515">
        <ele>144.1</ele>
        <time>2025-10-26T09:13:52Z</time>
      </trkpt>
      <trkpt lat="43.51312" lon="6.67516">
        <ele>144</ele>
        <time>2025-10-26T09:13:53Z</time>
      </trkpt>
      <trkpt lat="43.51311" lon="6.67518">
        <ele>143.9</ele>
        <time>2025-10-26T09:13:54Z</time>
      </trkpt>
      <trkpt lat="43.51312" lon="6.6752">
        <ele>144</ele>
        <time>2025-10-26T09:13:55Z</time>
      </trkpt>
      <trkpt lat="43.51312" lon="6.67521">
        <ele>144.1</ele>
        <time>2025-10-26T09:13:56Z</time>
      </trkpt>
      <trkpt lat="43.51312" lon="6.67522">
        <ele>144.1</ele>
        <time>2025-10-26T09:13:57Z</time>
      </trkpt>
      <trkpt lat="43.51312" lon="6.67524">
        <ele>144</ele>
        <time>2025-10-26T09:13:58Z</time>
      </trkpt>
      <trkpt lat="43.51313" lon="6.67525">
        <ele>144</ele>
        <time>2025-10-26T09:13:59Z</time>
      </trkpt>
      <trkpt lat="43.51313" lon="6.67527">
        <ele>144.1</ele>
        <time>2025-10-26T09:14:00Z</time>
      </trkpt>
      <trkpt lat="43.51314" lon="6.67528">
        <ele>143.9</ele>
        <time>2025-10-26T09:14:01Z</time>
      </trkpt>
      <trkpt lat="43.51314" lon="6.67529">
        <ele>143.8</ele>
        <time>2025-10-26T09:14:02Z</time>
      </trkpt>
      <trkpt lat="43.51315" lon="6.6753">
        <ele>143.6</ele>
        <time>2025-10-26T09:14:03Z</time>
      </trkpt>
      <trkpt lat="43.51316" lon="6.67531">
        <ele>143.2</ele>
        <time>2025-10-26T09:14:04Z</time>
      </trkpt>
      <trkpt lat="43.51316" lon="6.67533">
        <ele>142.9</ele>
        <time>2025-10-26T09:14:05Z</time>
      </trkpt>
      <trkpt lat="43.51317" lon="6.67535">
        <ele>142.7</ele>
        <time>2025-10-26T09:14:06Z</time>
      </trkpt>
      <trkpt lat="43.51317" lon="6.67536">
        <ele>142.5</ele>
        <time>2025-10-26T09:14:07Z</time>
      </trkpt>
      <trkpt lat="43.51318" lon="6.67537">
        <ele>142.2</ele>
        <time>2025-10-26T09:14:08Z</time>
      </trkpt>
      <trkpt lat="43.51318" lon="6.67537">
        <ele>141.9</ele>
        <time>2025-10-26T09:14:09Z</time>
      </trkpt>
      <trkpt lat="43.51318" lon="6.67538">
        <ele>141.7</ele>
        <time>2025-10-26T09:14:10Z</time>
      </trkpt>
      <trkpt lat="43.51318" lon="6.67538">
        <ele>141.4</ele>
        <time>2025-10-26T09:14:11Z</time>
      </trkpt>
      <trkpt lat="43.51319" lon="6.67539">
        <ele>141.1</ele>
        <time>2025-10-26T09:14:12Z</time>
      </trkpt>
      <trkpt lat="43.51319" lon="6.67539">
        <ele>140.9</ele>
        <time>2025-10-26T09:14:13Z</time>
      </trkpt>
      <trkpt lat="43.51319" lon="6.6754">
        <ele>140.7</ele>
        <time>2025-10-26T09:14:14Z</time>
      </trkpt>
      <trkpt lat="43.5132" lon="6.6754">
        <ele>140.5</ele>
        <time>2025-10-26T09:14:15Z</time>
      </trkpt>
      <trkpt lat="43.5132" lon="6.67541">
        <ele>140.3</ele>
        <time>2025-10-26T09:14:16Z</time>
      </trkpt>
      <trkpt lat="43.51321" lon="6.67541">
        <ele>140.2</ele>
        <time>2025-10-26T09:14:17Z</time>
      </trkpt>
      <trkpt lat="43.51321" lon="6.67542">
        <ele>140</ele>
        <time>2025-10-26T09:14:18Z</time>
      </trkpt>
      <trkpt lat="43.51322" lon="6.67543">
        <ele>139.8</ele>
        <time>2025-10-26T09:14:19Z</time>
      </trkpt>
      <trkpt lat="43.51322" lon="6.67543">
        <ele>139.7</ele>
        <time>2025-10-26T09:14:20Z</time>
      </trkpt>
      <trkpt lat="43.51322" lon="6.67544">
        <ele>139.6</ele>
        <time>2025-10-26T09:14:21Z</time>
      </trkpt>
      <trkpt lat="43.51323" lon="6.67545">
        <ele>139.4</ele>
        <time>2025-10-26T09:14:22Z</time>
      </trkpt>
      <trkpt lat="43.51323" lon="6.67546">
        <ele>139.3</ele>
        <time>2025-10-26T09:14:23Z</time>
      </trkpt>
      <trkpt lat="43.51324" lon="6.67547">
        <ele>139.2</ele>
        <time>2025-10-26T09:14:24Z</time>
      </trkpt>
      <trkpt lat="43.51324" lon="6.67548">
        <ele>138.9</ele>
        <time>2025-10-26T09:14:25Z</time>
      </trkpt>
      <trkpt lat="43.51324" lon="6.67549">
        <ele>138.8</ele>
        <time>2025-10-26T09:14:26Z</time>
      </trkpt>
      <trkpt lat="43.51324" lon="6.67551">
        <ele>138.8</ele>
        <time>2025-10-26T09:14:27Z</time>
      </trkpt>
      <trkpt lat="43.51324" lon="6.67552">
        <ele>138.7</ele>
        <time>2025-10-26T09:14:28Z</time>
      </trkpt>
      <trkpt lat="43.51325" lon="6.67554">
        <ele>138.6</ele>
        <time>2025-10-26T09:14:29Z</time>
      </trkpt>
      <trkpt lat="43.51325" lon="6.67555">
        <ele>138.6</ele>
        <time>2025-10-26T09:14:30Z</time>
      </trkpt>
      <trkpt lat="43.51325" lon="6.67557">
        <ele>138.5</ele>
        <time>2025-10-26T09:14:31Z</time>
      </trkpt>
      <trkpt lat="43.51326" lon="6.67558">
        <ele>138.3</ele>
        <time>2025-10-26T09:14:32Z</time>
      </trkpt>
      <trkpt lat="43.51326" lon="6.67559">
        <ele>138.2</ele>
        <time>2025-10-26T09:14:33Z</time>
      </trkpt>
      <trkpt lat="43.51326" lon="6.6756">
        <ele>138.1</ele>
        <time>2025-10-26T09:14:34Z</time>
      </trkpt>
      <trkpt lat="43.51327" lon="6.67561">
        <ele>137.8</ele>
        <time>2025-10-26T09:14:35Z</time>
      </trkpt>
      <trkpt lat="43.51327" lon="6.67562">
        <ele>137.6</ele>
        <time>2025-10-26T09:14:36Z</time>
      </trkpt>
      <trkpt lat="43.51327" lon="6.67563">
        <ele>137.4</ele>
        <time>2025-10-26T09:14:37Z</time>
      </trkpt>
      <trkpt lat="43.51327" lon="6.67565">
        <ele>137.3</ele>
        <time>2025-10-26T09:14:38Z</time>
      </trkpt>
      <trkpt lat="43.51327" lon="6.67566">
        <ele>137.2</ele>
        <time>2025-10-26T09:14:39Z</time>
      </trkpt>
      <trkpt lat="43.51327" lon="6.67568">
        <ele>137.1</ele>
        <time>2025-10-26T09:14:40Z</time>
      </trkpt>
      <trkpt lat="43.51327" lon="6.6757">
        <ele>137</ele>
        <time>2025-10-26T09:14:41Z</time>
      </trkpt>
      <trkpt lat="43.51328" lon="6.67572">
        <ele>136.8</ele>
        <time>2025-10-26T09:14:42Z</time>
      </trkpt>
      <trkpt lat="43.51328" lon="6.67573">
        <ele>136.8</ele>
        <time>2025-10-26T09:14:43Z</time>
      </trkpt>
      <trkpt lat="43.51328" lon="6.67575">
        <ele>136.8</ele>
        <time>2025-10-26T09:14:44Z</time>
      </trkpt>
      <trkpt lat="43.51328" lon="6.67576">
        <ele>136.7</ele>
        <time>2025-10-26T09:14:45Z</time>
      </trkpt>
      <trkpt lat="43.51328" lon="6.67578">
        <ele>136.7</ele>
        <time>2025-10-26T09:14:46Z</time>
      </trkpt>
      <trkpt lat="43.51328" lon="6.67581">
        <ele>136.5</ele>
        <time>2025-10-26T09:14:47Z</time>
      </trkpt>
      <trkpt lat="43.51329" lon="6.67582">
        <ele>136.5</ele>
        <time>2025-10-26T09:14:48Z</time>
      </trkpt>
      <trkpt lat="43.51329" lon="6.67584">
        <ele>136.4</ele>
        <time>2025-10-26T09:14:49Z</time>
      </trkpt>
      <trkpt lat="43.51329" lon="6.67585">
        <ele>136.4</ele>
        <time>2025-10-26T09:14:50Z</time>
      </trkpt>
      <trkpt lat="43.5133" lon="6.67587">
        <ele>136.4</ele>
        <time>2025-10-26T09:14:51Z</time>
      </trkpt>
      <trkpt lat="43.5133" lon="6.67588">
        <ele>136.3</ele>
        <time>2025-10-26T09:14:52Z</time>
      </trkpt>
      <trkpt lat="43.5133" lon="6.67589">
        <ele>136.2</ele>
        <time>2025-10-26T09:14:53Z</time>
      </trkpt>
      <trkpt lat="43.51331" lon="6.6759">
        <ele>136.1</ele>
        <time>2025-10-26T09:14:54Z</time>
      </trkpt>
      <trkpt lat="43.51331" lon="6.67591">
        <ele>136</ele>
        <time>2025-10-26T09:14:55Z</time>
      </trkpt>
      <trkpt lat="43.51331" lon="6.67593">
        <ele>135.8</ele>
        <time>2025-10-26T09:14:56Z</time>
      </trkpt>
      <trkpt lat="43.51331" lon="6.67595">
        <ele>135.7</ele>
        <time>2025-10-26T09:14:57Z</time>
      </trkpt>
      <trkpt lat="43.51331" lon="6.67596">
        <ele>135.5</ele>
        <time>2025-10-26T09:14:58Z</time>
      </trkpt>
      <trkpt lat="43.51331" lon="6.67598">
        <ele>135.4</ele>
        <time>2025-10-26T09:14:59Z</time>
      </trkpt>
      <trkpt lat="43.5133" lon="6.67599">
        <ele>135.3</ele>
        <time>2025-10-26T09:15:00Z</time>
      </trkpt>
      <trkpt lat="43.5133" lon="6.676">
        <ele>135.3</ele>
        <time>2025-10-26T09:15:01Z</time>
      </trkpt>
      <trkpt lat="43.5133" lon="6.67601">
        <ele>135.3</ele>
        <time>2025-10-26T09:15:02Z</time>
      </trkpt>
      <trkpt lat="43.51329" lon="6.67603">
        <ele>135.3</ele>
        <time>2025-10-26T09:15:03Z</time>
      </trkpt>
      <trkpt lat="43.51329" lon="6.67604">
        <ele>135.3</ele>
        <time>2025-10-26T09:15:04Z</time>
      </trkpt>
      <trkpt lat="43.51329" lon="6.67605">
        <ele>135.3</ele>
        <time>2025-10-26T09:15:05Z</time>
      </trkpt>
      <trkpt lat="43.51329" lon="6.67606">
        <ele>135.2</ele>
        <time>2025-10-26T09:15:06Z</time>
      </trkpt>
      <trkpt lat="43.51329" lon="6.67607">
        <ele>135.3</ele>
        <time>2025-10-26T09:15:07Z</time>
      </trkpt>
      <trkpt lat="43.51328" lon="6.67608">
        <ele>135.3</ele>
        <time>2025-10-26T09:15:08Z</time>
      </trkpt>
      <trkpt lat="43.51328" lon="6.67609">
        <ele>135.2</ele>
        <time>2025-10-26T09:15:09Z</time>
      </trkpt>
      <trkpt lat="43.51327" lon="6.6761">
        <ele>135.2</ele>
        <time>2025-10-26T09:15:10Z</time>
      </trkpt>
      <trkpt lat="43.51326" lon="6.67611">
        <ele>135.1</ele>
        <time>2025-10-26T09:15:11Z</time>
      </trkpt>
      <trkpt lat="43.51326" lon="6.67611">
        <ele>134.9</ele>
        <time>2025-10-26T09:15:12Z</time>
      </trkpt>
      <trkpt lat="43.51325" lon="6.67612">
        <ele>134.8</ele>
        <time>2025-10-26T09:15:13Z</time>
      </trkpt>
      <trkpt lat="43.51324" lon="6.67612">
        <ele>134.6</ele>
        <time>2025-10-26T09:15:14Z</time>
      </trkpt>
      <trkpt lat="43.51324" lon="6.67613">
        <ele>134.5</ele>
        <time>2025-10-26T09:15:15Z</time>
      </trkpt>
      <trkpt lat="43.51323" lon="6.67614">
        <ele>134.5</ele>
        <time>2025-10-26T09:15:16Z</time>
      </trkpt>
      <trkpt lat="43.51323" lon="6.67614">
        <ele>134.4</ele>
        <time>2025-10-26T09:15:17Z</time>
      </trkpt>
      <trkpt lat="43.51322" lon="6.67616">
        <ele>134.3</ele>
        <time>2025-10-26T09:15:18Z</time>
      </trkpt>
      <trkpt lat="43.51322" lon="6.67616">
        <ele>134.2</ele>
        <time>2025-10-26T09:15:19Z</time>
      </trkpt>
      <trkpt lat="43.51321" lon="6.67617">
        <ele>134.1</ele>
        <time>2025-10-26T09:15:20Z</time>
      </trkpt>
      <trkpt lat="43.51321" lon="6.67618">
        <ele>134</ele>
        <time>2025-10-26T09:15:21Z</time>
      </trkpt>
      <trkpt lat="43.5132" lon="6.67619">
        <ele>133.8</ele>
        <time>2025-10-26T09:15:22Z</time>
      </trkpt>
      <trkpt lat="43.5132" lon="6.6762">
        <ele>133.6</ele>
        <time>2025-10-26T09:15:23Z</time>
      </trkpt>
      <trkpt lat="43.51319" lon="6.6762">
        <ele>133.8</ele>
        <time>2025-10-26T09:15:24Z</time>
      </trkpt>
      <trkpt lat="43.51319" lon="6.67622">
        <ele>133.6</ele>
        <time>2025-10-26T09:15:25Z</time>
      </trkpt>
      <trkpt lat="43.51318" lon="6.67623">
        <ele>133.5</ele>
        <time>2025-10-26T09:15:26Z</time>
      </trkpt>
      <trkpt lat="43.51318" lon="6.67624">
        <ele>133.4</ele>
        <time>2025-10-26T09:15:27Z</time>
      </trkpt>
      <trkpt lat="43.51317" lon="6.67625">
        <ele>133.2</ele>
        <time>2025-10-26T09:15:28Z</time>
      </trkpt>
      <trkpt lat="43.51317" lon="6.67625">
        <ele>133.1</ele>
        <time>2025-10-26T09:15:29Z</time>
      </trkpt>
      <trkpt lat="43.51316" lon="6.67626">
        <ele>132.9</ele>
        <time>2025-10-26T09:15:30Z</time>
      </trkpt>
      <trkpt lat="43.51315" lon="6.67626">
        <ele>132.8</ele>
        <time>2025-10-26T09:15:31Z</time>
      </trkpt>
      <trkpt lat="43.51314" lon="6.67628">
        <ele>132.6</ele>
        <time>2025-10-26T09:15:32Z</time>
      </trkpt>
      <trkpt lat="43.51312" lon="6.67628">
        <ele>132.5</ele>
        <time>2025-10-26T09:15:33Z</time>
      </trkpt>
      <trkpt lat="43.51311" lon="6.67629">
        <ele>132.4</ele>
        <time>2025-10-26T09:15:34Z</time>
      </trkpt>
      <trkpt lat="43.5131" lon="6.6763">
        <ele>132.3</ele>
        <time>2025-10-26T09:15:35Z</time>
      </trkpt>
      <trkpt lat="43.51309" lon="6.67631">
        <ele>132.2</ele>
        <time>2025-10-26T09:15:36Z</time>
      </trkpt>
      <trkpt lat="43.51308" lon="6.67631">
        <ele>132.1</ele>
        <time>2025-10-26T09:15:37Z</time>
      </trkpt>
      <trkpt lat="43.51308" lon="6.67632">
        <ele>132.1</ele>
        <time>2025-10-26T09:15:38Z</time>
      </trkpt>
      <trkpt lat="43.51306" lon="6.67633">
        <ele>132.1</ele>
        <time>2025-10-26T09:15:39Z</time>
      </trkpt>
      <trkpt lat="43.51306" lon="6.67634">
        <ele>132</ele>
        <time>2025-10-26T09:15:40Z</time>
      </trkpt>
      <trkpt lat="43.51305" lon="6.67634">
        <ele>132</ele>
        <time>2025-10-26T09:15:41Z</time>
      </trkpt>
      <trkpt lat="43.51304" lon="6.67634">
        <ele>131.9</ele>
        <time>2025-10-26T09:15:42Z</time>
      </trkpt>
      <trkpt lat="43.51302" lon="6.67635">
        <ele>131.8</ele>
        <time>2025-10-26T09:15:43Z</time>
      </trkpt>
      <trkpt lat="43.51301" lon="6.67636">
        <ele>131.8</ele>
        <time>2025-10-26T09:15:44Z</time>
      </trkpt>
      <trkpt lat="43.513" lon="6.67637">
        <ele>131.7</ele>
        <time>2025-10-26T09:15:45Z</time>
      </trkpt>
      <trkpt lat="43.51299" lon="6.67638">
        <ele>131.7</ele>
        <time>2025-10-26T09:15:46Z</time>
      </trkpt>
      <trkpt lat="43.51299" lon="6.67638">
        <ele>131.6</ele>
        <time>2025-10-26T09:15:47Z</time>
      </trkpt>
      <trkpt lat="43.51297" lon="6.67638">
        <ele>131.6</ele>
        <time>2025-10-26T09:15:48Z</time>
      </trkpt>
      <trkpt lat="43.51296" lon="6.6764">
        <ele>131.5</ele>
        <time>2025-10-26T09:15:49Z</time>
      </trkpt>
      <trkpt lat="43.51295" lon="6.67641">
        <ele>131.4</ele>
        <time>2025-10-26T09:15:50Z</time>
      </trkpt>
      <trkpt lat="43.51294" lon="6.67642">
        <ele>131.4</ele>
        <time>2025-10-26T09:15:51Z</time>
      </trkpt>
      <trkpt lat="43.51293" lon="6.67643">
        <ele>131.3</ele>
        <time>2025-10-26T09:15:52Z</time>
      </trkpt>
      <trkpt lat="43.51292" lon="6.67645">
        <ele>131.3</ele>
        <time>2025-10-26T09:15:53Z</time>
      </trkpt>
      <trkpt lat="43.51291" lon="6.67646">
        <ele>131.2</ele>
        <time>2025-10-26T09:15:54Z</time>
      </trkpt>
      <trkpt lat="43.51291" lon="6.67648">
        <ele>131.1</ele>
        <time>2025-10-26T09:15:55Z</time>
      </trkpt>
      <trkpt lat="43.5129" lon="6.67649">
        <ele>131.1</ele>
        <time>2025-10-26T09:15:56Z</time>
      </trkpt>
      <trkpt lat="43.5129" lon="6.6765">
        <ele>131.1</ele>
        <time>2025-10-26T09:15:57Z</time>
      </trkpt>
      <trkpt lat="43.5129" lon="6.67652">
        <ele>131</ele>
        <time>2025-10-26T09:15:58Z</time>
      </trkpt>
      <trkpt lat="43.5129" lon="6.67653">
        <ele>130.9</ele>
        <time>2025-10-26T09:15:59Z</time>
      </trkpt>
      <trkpt lat="43.5129" lon="6.67655">
        <ele>130.8</ele>
        <time>2025-10-26T09:16:00Z</time>
      </trkpt>
      <trkpt lat="43.5129" lon="6.67656">
        <ele>130.7</ele>
        <time>2025-10-26T09:16:01Z</time>
      </trkpt>
      <trkpt lat="43.51289" lon="6.67658">
        <ele>130.6</ele>
        <time>2025-10-26T09:16:02Z</time>
      </trkpt>
      <trkpt lat="43.51288" lon="6.6766">
        <ele>130.5</ele>
        <time>2025-10-26T09:16:03Z</time>
      </trkpt>
      <trkpt lat="43.51288" lon="6.67661">
        <ele>130.4</ele>
        <time>2025-10-26T09:16:04Z</time>
      </trkpt>
      <trkpt lat="43.51288" lon="6.67662">
        <ele>130.4</ele>
        <time>2025-10-26T09:16:05Z</time>
      </trkpt>
      <trkpt lat="43.51287" lon="6.67663">
        <ele>130.3</ele>
        <time>2025-10-26T09:16:06Z</time>
      </trkpt>
      <trkpt lat="43.51286" lon="6.67664">
        <ele>130.3</ele>
        <time>2025-10-26T09:16:07Z</time>
      </trkpt>
      <trkpt lat="43.51286" lon="6.67664">
        <ele>130.4</ele>
        <time>2025-10-26T09:16:08Z</time>
      </trkpt>
      <trkpt lat="43.51285" lon="6.67666">
        <ele>130.4</ele>
        <time>2025-10-26T09:16:09Z</time>
      </trkpt>
      <trkpt lat="43.51284" lon="6.67667">
        <ele>130.3</ele>
        <time>2025-10-26T09:16:10Z</time>
      </trkpt>
      <trkpt lat="43.51283" lon="6.67668">
        <ele>130.3</ele>
        <time>2025-10-26T09:16:11Z</time>
      </trkpt>
      <trkpt lat="43.51282" lon="6.67668">
        <ele>130.3</ele>
        <time>2025-10-26T09:16:12Z</time>
      </trkpt>
      <trkpt lat="43.51281" lon="6.67669">
        <ele>130.3</ele>
        <time>2025-10-26T09:16:13Z</time>
      </trkpt>
      <trkpt lat="43.5128" lon="6.6767">
        <ele>130.3</ele>
        <time>2025-10-26T09:16:14Z</time>
      </trkpt>
      <trkpt lat="43.51279" lon="6.67672">
        <ele>130.2</ele>
        <time>2025-10-26T09:16:15Z</time>
      </trkpt>
      <trkpt lat="43.51278" lon="6.67673">
        <ele>130.2</ele>
        <time>2025-10-26T09:16:16Z</time>
      </trkpt>
      <trkpt lat="43.51278" lon="6.67674">
        <ele>130.2</ele>
        <time>2025-10-26T09:16:17Z</time>
      </trkpt>
      <trkpt lat="43.51277" lon="6.67676">
        <ele>130.3</ele>
        <time>2025-10-26T09:16:18Z</time>
      </trkpt>
      <trkpt lat="43.51276" lon="6.67677">
        <ele>130.2</ele>
        <time>2025-10-26T09:16:19Z</time>
      </trkpt>
      <trkpt lat="43.51275" lon="6.67678">
        <ele>130.3</ele>
        <time>2025-10-26T09:16:20Z</time>
      </trkpt>
      <trkpt lat="43.51274" lon="6.67679">
        <ele>130.4</ele>
        <time>2025-10-26T09:16:21Z</time>
      </trkpt>
      <trkpt lat="43.51273" lon="6.6768">
        <ele>130.5</ele>
        <time>2025-10-26T09:16:22Z</time>
      </trkpt>
      <trkpt lat="43.51272" lon="6.67682">
        <ele>130.6</ele>
        <time>2025-10-26T09:16:23Z</time>
      </trkpt>
      <trkpt lat="43.51271" lon="6.67683">
        <ele>130.7</ele>
        <time>2025-10-26T09:16:24Z</time>
      </trkpt>
      <trkpt lat="43.5127" lon="6.67684">
        <ele>130.8</ele>
        <time>2025-10-26T09:16:25Z</time>
      </trkpt>
      <trkpt lat="43.5127" lon="6.67685">
        <ele>131</ele>
        <time>2025-10-26T09:16:26Z</time>
      </trkpt>
      <trkpt lat="43.51269" lon="6.67686">
        <ele>131.3</ele>
        <time>2025-10-26T09:16:27Z</time>
      </trkpt>
      <trkpt lat="43.51269" lon="6.67687">
        <ele>131.4</ele>
        <time>2025-10-26T09:16:28Z</time>
      </trkpt>
      <trkpt lat="43.51268" lon="6.67689">
        <ele>131.6</ele>
        <time>2025-10-26T09:16:29Z</time>
      </trkpt>
      <trkpt lat="43.51268" lon="6.67689">
        <ele>131.7</ele>
        <time>2025-10-26T09:16:30Z</time>
      </trkpt>
      <trkpt lat="43.51268" lon="6.6769">
        <ele>131.8</ele>
        <time>2025-10-26T09:16:31Z</time>
      </trkpt>
      <trkpt lat="43.51268" lon="6.67693">
        <ele>131.9</ele>
        <time>2025-10-26T09:16:32Z</time>
      </trkpt>
      <trkpt lat="43.51267" lon="6.67694">
        <ele>132.1</ele>
        <time>2025-10-26T09:16:33Z</time>
      </trkpt>
      <trkpt lat="43.51267" lon="6.67696">
        <ele>132.1</ele>
        <time>2025-10-26T09:16:34Z</time>
      </trkpt>
      <trkpt lat="43.51268" lon="6.67699">
        <ele>132.2</ele>
        <time>2025-10-26T09:16:35Z</time>
      </trkpt>
      <trkpt lat="43.51268" lon="6.677">
        <ele>132.3</ele>
        <time>2025-10-26T09:16:36Z</time>
      </trkpt>
      <trkpt lat="43.51268" lon="6.67701">
        <ele>132.3</ele>
        <time>2025-10-26T09:16:37Z</time>
      </trkpt>
      <trkpt lat="43.51268" lon="6.67702">
        <ele>132.5</ele>
        <time>2025-10-26T09:16:38Z</time>
      </trkpt>
      <trkpt lat="43.51268" lon="6.67704">
        <ele>132.6</ele>
        <time>2025-10-26T09:16:39Z</time>
      </trkpt>
      <trkpt lat="43.51268" lon="6.67705">
        <ele>132.7</ele>
        <time>2025-10-26T09:16:40Z</time>
      </trkpt>
      <trkpt lat="43.51268" lon="6.67707">
        <ele>132.7</ele>
        <time>2025-10-26T09:16:41Z</time>
      </trkpt>
      <trkpt lat="43.51268" lon="6.67708">
        <ele>132.7</ele>
        <time>2025-10-26T09:16:42Z</time>
      </trkpt>
      <trkpt lat="43.51268" lon="6.67709">
        <ele>132.8</ele>
        <time>2025-10-26T09:16:43Z</time>
      </trkpt>
      <trkpt lat="43.51268" lon="6.6771">
        <ele>132.7</ele>
        <time>2025-10-26T09:16:44Z</time>
      </trkpt>
      <trkpt lat="43.51268" lon="6.67712">
        <ele>132.5</ele>
        <time>2025-10-26T09:16:45Z</time>
      </trkpt>
      <trkpt lat="43.51268" lon="6.67713">
        <ele>132.5</ele>
        <time>2025-10-26T09:16:46Z</time>
      </trkpt>
      <trkpt lat="43.51269" lon="6.67714">
        <ele>132.4</ele>
        <time>2025-10-26T09:16:47Z</time>
      </trkpt>
      <trkpt lat="43.51268" lon="6.67716">
        <ele>132.3</ele>
        <time>2025-10-26T09:16:48Z</time>
      </trkpt>
      <trkpt lat="43.51268" lon="6.67717">
        <ele>132.2</ele>
        <time>2025-10-26T09:16:49Z</time>
      </trkpt>
      <trkpt lat="43.51268" lon="6.67718">
        <ele>132.1</ele>
        <time>2025-10-26T09:16:50Z</time>
      </trkpt>
      <trkpt lat="43.51268" lon="6.6772">
        <ele>132</ele>
        <time>2025-10-26T09:16:51Z</time>
      </trkpt>
      <trkpt lat="43.51268" lon="6.67722">
        <ele>131.9</ele>
        <time>2025-10-26T09:16:52Z</time>
      </trkpt>
      <trkpt lat="43.51268" lon="6.67724">
        <ele>131.8</ele>
        <time>2025-10-26T09:16:53Z</time>
      </trkpt>
      <trkpt lat="43.51269" lon="6.67726">
        <ele>131.7</ele>
        <time>2025-10-26T09:16:54Z</time>
      </trkpt>
      <trkpt lat="43.51269" lon="6.67729">
        <ele>131.6</ele>
        <time>2025-10-26T09:16:55Z</time>
      </trkpt>
      <trkpt lat="43.51269" lon="6.6773">
        <ele>131.5</ele>
        <time>2025-10-26T09:16:56Z</time>
      </trkpt>
      <trkpt lat="43.51269" lon="6.67732">
        <ele>131.4</ele>
        <time>2025-10-26T09:16:57Z</time>
      </trkpt>
      <trkpt lat="43.51268" lon="6.67734">
        <ele>131.3</ele>
        <time>2025-10-26T09:16:58Z</time>
      </trkpt>
      <trkpt lat="43.51269" lon="6.67736">
        <ele>131.3</ele>
        <time>2025-10-26T09:16:59Z</time>
      </trkpt>
      <trkpt lat="43.51269" lon="6.67737">
        <ele>131.3</ele>
        <time>2025-10-26T09:17:00Z</time>
      </trkpt>
      <trkpt lat="43.5127" lon="6.67739">
        <ele>131.3</ele>
        <time>2025-10-26T09:17:01Z</time>
      </trkpt>
      <trkpt lat="43.51271" lon="6.67741">
        <ele>131.2</ele>
        <time>2025-10-26T09:17:02Z</time>
      </trkpt>
      <trkpt lat="43.5127" lon="6.67743">
        <ele>131</ele>
        <time>2025-10-26T09:17:03Z</time>
      </trkpt>
      <trkpt lat="43.5127" lon="6.67744">
        <ele>130.9</ele>
        <time>2025-10-26T09:17:04Z</time>
      </trkpt>
      <trkpt lat="43.5127" lon="6.67746">
        <ele>130.8</ele>
        <time>2025-10-26T09:17:05Z</time>
      </trkpt>
      <trkpt lat="43.51269" lon="6.67748">
        <ele>131.2</ele>
        <time>2025-10-26T09:17:06Z</time>
      </trkpt>
      <trkpt lat="43.51269" lon="6.67749">
        <ele>131.2</ele>
        <time>2025-10-26T09:17:07Z</time>
      </trkpt>
      <trkpt lat="43.51269" lon="6.6775">
        <ele>131.2</ele>
        <time>2025-10-26T09:17:08Z</time>
      </trkpt>
      <trkpt lat="43.51268" lon="6.67752">
        <ele>131.2</ele>
        <time>2025-10-26T09:17:09Z</time>
      </trkpt>
      <trkpt lat="43.51268" lon="6.67754">
        <ele>131.5</ele>
        <time>2025-10-26T09:17:10Z</time>
      </trkpt>
      <trkpt lat="43.51267" lon="6.67756">
        <ele>131.4</ele>
        <time>2025-10-26T09:17:11Z</time>
      </trkpt>
      <trkpt lat="43.51267" lon="6.67758">
        <ele>131.4</ele>
        <time>2025-10-26T09:17:12Z</time>
      </trkpt>
      <trkpt lat="43.51266" lon="6.6776">
        <ele>131.4</ele>
        <time>2025-10-26T09:17:13Z</time>
      </trkpt>
      <trkpt lat="43.51266" lon="6.67762">
        <ele>131.4</ele>
        <time>2025-10-26T09:17:14Z</time>
      </trkpt>
      <trkpt lat="43.51266" lon="6.67763">
        <ele>131.5</ele>
        <time>2025-10-26T09:17:15Z</time>
      </trkpt>
      <trkpt lat="43.51267" lon="6.67765">
        <ele>131.5</ele>
        <time>2025-10-26T09:17:16Z</time>
      </trkpt>
      <trkpt lat="43.51266" lon="6.67766">
        <ele>131.5</ele>
        <time>2025-10-26T09:17:17Z</time>
      </trkpt>
      <trkpt lat="43.51266" lon="6.67768">
        <ele>131.5</ele>
        <time>2025-10-26T09:17:18Z</time>
      </trkpt>
      <trkpt lat="43.51265" lon="6.6777">
        <ele>131.5</ele>
        <time>2025-10-26T09:17:19Z</time>
      </trkpt>
      <trkpt lat="43.51265" lon="6.67772">
        <ele>131.5</ele>
        <time>2025-10-26T09:17:20Z</time>
      </trkpt>
      <trkpt lat="43.51265" lon="6.67774">
        <ele>131.5</ele>
        <time>2025-10-26T09:17:21Z</time>
      </trkpt>
      <trkpt lat="43.51266" lon="6.67776">
        <ele>131.5</ele>
        <time>2025-10-26T09:17:22Z</time>
      </trkpt>
      <trkpt lat="43.51266" lon="6.67778">
        <ele>131.5</ele>
        <time>2025-10-26T09:17:23Z</time>
      </trkpt>
      <trkpt lat="43.51265" lon="6.6778">
        <ele>131.3</ele>
        <time>2025-10-26T09:17:24Z</time>
      </trkpt>
      <trkpt lat="43.51265" lon="6.67781">
        <ele>131.3</ele>
        <time>2025-10-26T09:17:25Z</time>
      </trkpt>
      <trkpt lat="43.51264" lon="6.67783">
        <ele>131.4</ele>
        <time>2025-10-26T09:17:26Z</time>
      </trkpt>
      <trkpt lat="43.51264" lon="6.67785">
        <ele>131.5</ele>
        <time>2025-10-26T09:17:27Z</time>
      </trkpt>
      <trkpt lat="43.51264" lon="6.67786">
        <ele>131.6</ele>
        <time>2025-10-26T09:17:28Z</time>
      </trkpt>
      <trkpt lat="43.51264" lon="6.67788">
        <ele>131.6</ele>
        <time>2025-10-26T09:17:29Z</time>
      </trkpt>
      <trkpt lat="43.51263" lon="6.67791">
        <ele>131.6</ele>
        <time>2025-10-26T09:17:30Z</time>
      </trkpt>
      <trkpt lat="43.51263" lon="6.67793">
        <ele>131.7</ele>
        <time>2025-10-26T09:17:31Z</time>
      </trkpt>
      <trkpt lat="43.51263" lon="6.67795">
        <ele>131.7</ele>
        <time>2025-10-26T09:17:32Z</time>
      </trkpt>
      <trkpt lat="43.51262" lon="6.67796">
        <ele>131.6</ele>
        <time>2025-10-26T09:17:33Z</time>
      </trkpt>
      <trkpt lat="43.51262" lon="6.67798">
        <ele>131.6</ele>
        <time>2025-10-26T09:17:34Z</time>
      </trkpt>
      <trkpt lat="43.51262" lon="6.678">
        <ele>131.6</ele>
        <time>2025-10-26T09:17:35Z</time>
      </trkpt>
      <trkpt lat="43.51261" lon="6.67802">
        <ele>131.7</ele>
        <time>2025-10-26T09:17:36Z</time>
      </trkpt>
      <trkpt lat="43.51261" lon="6.67804">
        <ele>131.7</ele>
        <time>2025-10-26T09:17:37Z</time>
      </trkpt>
      <trkpt lat="43.51261" lon="6.67806">
        <ele>131.7</ele>
        <time>2025-10-26T09:17:38Z</time>
      </trkpt>
      <trkpt lat="43.5126" lon="6.67808">
        <ele>131.7</ele>
        <time>2025-10-26T09:17:39Z</time>
      </trkpt>
      <trkpt lat="43.5126" lon="6.6781">
        <ele>131.7</ele>
        <time>2025-10-26T09:17:40Z</time>
      </trkpt>
      <trkpt lat="43.5126" lon="6.67811">
        <ele>131.7</ele>
        <time>2025-10-26T09:17:41Z</time>
      </trkpt>
      <trkpt lat="43.5126" lon="6.67813">
        <ele>131.6</ele>
        <time>2025-10-26T09:17:42Z</time>
      </trkpt>
      <trkpt lat="43.5126" lon="6.67814">
        <ele>131.6</ele>
        <time>2025-10-26T09:17:43Z</time>
      </trkpt>
      <trkpt lat="43.5126" lon="6.67815">
        <ele>131.7</ele>
        <time>2025-10-26T09:17:44Z</time>
      </trkpt>
      <trkpt lat="43.5126" lon="6.67817">
        <ele>131.7</ele>
        <time>2025-10-26T09:17:45Z</time>
      </trkpt>
      <trkpt lat="43.51259" lon="6.67819">
        <ele>131.7</ele>
        <time>2025-10-26T09:17:46Z</time>
      </trkpt>
      <trkpt lat="43.5126" lon="6.6782">
        <ele>131.6</ele>
        <time>2025-10-26T09:17:47Z</time>
      </trkpt>
      <trkpt lat="43.51259" lon="6.67822">
        <ele>131.5</ele>
        <time>2025-10-26T09:17:48Z</time>
      </trkpt>
      <trkpt lat="43.51259" lon="6.67824">
        <ele>131.5</ele>
        <time>2025-10-26T09:17:49Z</time>
      </trkpt>
      <trkpt lat="43.5126" lon="6.67825">
        <ele>131.5</ele>
        <time>2025-10-26T09:17:50Z</time>
      </trkpt>
      <trkpt lat="43.51259" lon="6.67826">
        <ele>131.5</ele>
        <time>2025-10-26T09:17:51Z</time>
      </trkpt>
      <trkpt lat="43.51259" lon="6.67828">
        <ele>131.5</ele>
        <time>2025-10-26T09:17:52Z</time>
      </trkpt>
      <trkpt lat="43.51259" lon="6.6783">
        <ele>131.6</ele>
        <time>2025-10-26T09:17:53Z</time>
      </trkpt>
      <trkpt lat="43.51259" lon="6.67832">
        <ele>131.5</ele>
        <time>2025-10-26T09:17:54Z</time>
      </trkpt>
      <trkpt lat="43.51259" lon="6.67834">
        <ele>131.4</ele>
        <time>2025-10-26T09:17:55Z</time>
      </trkpt>
      <trkpt lat="43.51258" lon="6.67835">
        <ele>131.4</ele>
        <time>2025-10-26T09:17:56Z</time>
      </trkpt>
      <trkpt lat="43.51258" lon="6.67837">
        <ele>131.4</ele>
        <time>2025-10-26T09:17:57Z</time>
      </trkpt>
      <trkpt lat="43.51258" lon="6.67838">
        <ele>131.4</ele>
        <time>2025-10-26T09:17:58Z</time>
      </trkpt>
      <trkpt lat="43.51257" lon="6.67839">
        <ele>131.6</ele>
        <time>2025-10-26T09:17:59Z</time>
      </trkpt>
      <trkpt lat="43.51257" lon="6.6784">
        <ele>131.6</ele>
        <time>2025-10-26T09:18:00Z</time>
      </trkpt>
      <trkpt lat="43.51256" lon="6.67842">
        <ele>131.6</ele>
        <time>2025-10-26T09:18:01Z</time>
      </trkpt>
      <trkpt lat="43.51256" lon="6.67843">
        <ele>131.7</ele>
        <time>2025-10-26T09:18:02Z</time>
      </trkpt>
      <trkpt lat="43.51255" lon="6.67846">
        <ele>131.7</ele>
        <time>2025-10-26T09:18:03Z</time>
      </trkpt>
      <trkpt lat="43.51255" lon="6.67848">
        <ele>131.9</ele>
        <time>2025-10-26T09:18:04Z</time>
      </trkpt>
      <trkpt lat="43.51254" lon="6.67849">
        <ele>131.9</ele>
        <time>2025-10-26T09:18:05Z</time>
      </trkpt>
      <trkpt lat="43.51253" lon="6.6785">
        <ele>132</ele>
        <time>2025-10-26T09:18:06Z</time>
      </trkpt>
      <trkpt lat="43.51253" lon="6.67853">
        <ele>132.2</ele>
        <time>2025-10-26T09:18:07Z</time>
      </trkpt>
      <trkpt lat="43.51253" lon="6.67855">
        <ele>132.4</ele>
        <time>2025-10-26T09:18:08Z</time>
      </trkpt>
      <trkpt lat="43.51253" lon="6.67858">
        <ele>132.6</ele>
        <time>2025-10-26T09:18:09Z</time>
      </trkpt>
      <trkpt lat="43.51254" lon="6.6786">
        <ele>132.8</ele>
        <time>2025-10-26T09:18:10Z</time>
      </trkpt>
      <trkpt lat="43.51254" lon="6.67862">
        <ele>133</ele>
        <time>2025-10-26T09:18:11Z</time>
      </trkpt>
      <trkpt lat="43.51254" lon="6.67864">
        <ele>133.1</ele>
        <time>2025-10-26T09:18:12Z</time>
      </trkpt>
      <trkpt lat="43.51253" lon="6.67865">
        <ele>133.1</ele>
        <time>2025-10-26T09:18:13Z</time>
      </trkpt>
      <trkpt lat="43.51253" lon="6.67866">
        <ele>133.1</ele>
        <time>2025-10-26T09:18:14Z</time>
      </trkpt>
      <trkpt lat="43.51253" lon="6.67868">
        <ele>133</ele>
        <time>2025-10-26T09:18:15Z</time>
      </trkpt>
      <trkpt lat="43.51253" lon="6.67871">
        <ele>132.9</ele>
        <time>2025-10-26T09:18:16Z</time>
      </trkpt>
      <trkpt lat="43.51254" lon="6.67874">
        <ele>132.8</ele>
        <time>2025-10-26T09:18:17Z</time>
      </trkpt>
      <trkpt lat="43.51254" lon="6.67875">
        <ele>132.9</ele>
        <time>2025-10-26T09:18:18Z</time>
      </trkpt>
      <trkpt lat="43.51254" lon="6.67877">
        <ele>133</ele>
        <time>2025-10-26T09:18:19Z</time>
      </trkpt>
      <trkpt lat="43.51254" lon="6.67879">
        <ele>132.9</ele>
        <time>2025-10-26T09:18:20Z</time>
      </trkpt>
      <trkpt lat="43.51254" lon="6.67881">
        <ele>132.9</ele>
        <time>2025-10-26T09:18:21Z</time>
      </trkpt>
      <trkpt lat="43.51254" lon="6.67883">
        <ele>132.9</ele>
        <time>2025-10-26T09:18:22Z</time>
      </trkpt>
      <trkpt lat="43.51254" lon="6.67884">
        <ele>132.7</ele>
        <time>2025-10-26T09:18:23Z</time>
      </trkpt>
      <trkpt lat="43.51254" lon="6.67885">
        <ele>132.5</ele>
        <time>2025-10-26T09:18:24Z</time>
      </trkpt>
      <trkpt lat="43.51254" lon="6.67886">
        <ele>132.4</ele>
        <time>2025-10-26T09:18:25Z</time>
      </trkpt>
      <trkpt lat="43.51254" lon="6.67887">
        <ele>132.3</ele>
        <time>2025-10-26T09:18:26Z</time>
      </trkpt>
      <trkpt lat="43.51254" lon="6.67889">
        <ele>132.2</ele>
        <time>2025-10-26T09:18:27Z</time>
      </trkpt>
      <trkpt lat="43.51254" lon="6.6789">
        <ele>132.2</ele>
        <time>2025-10-26T09:18:28Z</time>
      </trkpt>
      <trkpt lat="43.51254" lon="6.67892">
        <ele>132.1</ele>
        <time>2025-10-26T09:18:29Z</time>
      </trkpt>
      <trkpt lat="43.51254" lon="6.67893">
        <ele>132</ele>
        <time>2025-10-26T09:18:30Z</time>
      </trkpt>
      <trkpt lat="43.51254" lon="6.67895">
        <ele>131.9</ele>
        <time>2025-10-26T09:18:31Z</time>
      </trkpt>
      <trkpt lat="43.51253" lon="6.67897">
        <ele>131.8</ele>
        <time>2025-10-26T09:18:32Z</time>
      </trkpt>
      <trkpt lat="43.51253" lon="6.67899">
        <ele>131.7</ele>
        <time>2025-10-26T09:18:33Z</time>
      </trkpt>
      <trkpt lat="43.51253" lon="6.679">
        <ele>131.6</ele>
        <time>2025-10-26T09:18:34Z</time>
      </trkpt>
      <trkpt lat="43.51253" lon="6.67901">
        <ele>131.6</ele>
        <time>2025-10-26T09:18:35Z</time>
      </trkpt>
      <trkpt lat="43.51253" lon="6.67903">
        <ele>131.5</ele>
        <time>2025-10-26T09:18:36Z</time>
      </trkpt>
      <trkpt lat="43.51252" lon="6.67905">
        <ele>131.5</ele>
        <time>2025-10-26T09:18:37Z</time>
      </trkpt>
      <trkpt lat="43.51252" lon="6.67906">
        <ele>131.5</ele>
        <time>2025-10-26T09:18:38Z</time>
      </trkpt>
      <trkpt lat="43.51253" lon="6.67908">
        <ele>131.5</ele>
        <time>2025-10-26T09:18:39Z</time>
      </trkpt>
      <trkpt lat="43.51253" lon="6.67909">
        <ele>131.4</ele>
        <time>2025-10-26T09:18:40Z</time>
      </trkpt>
      <trkpt lat="43.51253" lon="6.67911">
        <ele>131.3</ele>
        <time>2025-10-26T09:18:41Z</time>
      </trkpt>
      <trkpt lat="43.51252" lon="6.67913">
        <ele>131.3</ele>
        <time>2025-10-26T09:18:42Z</time>
      </trkpt>
      <trkpt lat="43.51252" lon="6.67914">
        <ele>131.3</ele>
        <time>2025-10-26T09:18:43Z</time>
      </trkpt>
      <trkpt lat="43.51252" lon="6.67915">
        <ele>131.2</ele>
        <time>2025-10-26T09:18:44Z</time>
      </trkpt>
      <trkpt lat="43.51251" lon="6.67916">
        <ele>131.1</ele>
        <time>2025-10-26T09:18:45Z</time>
      </trkpt>
      <trkpt lat="43.5125" lon="6.67917">
        <ele>131.1</ele>
        <time>2025-10-26T09:18:46Z</time>
      </trkpt>
      <trkpt lat="43.51249" lon="6.67919">
        <ele>131.1</ele>
        <time>2025-10-26T09:18:47Z</time>
      </trkpt>
      <trkpt lat="43.51249" lon="6.6792">
        <ele>131.1</ele>
        <time>2025-10-26T09:18:48Z</time>
      </trkpt>
      <trkpt lat="43.51248" lon="6.67921">
        <ele>131.1</ele>
        <time>2025-10-26T09:18:49Z</time>
      </trkpt>
      <trkpt lat="43.51248" lon="6.67921">
        <ele>131.1</ele>
        <time>2025-10-26T09:18:50Z</time>
      </trkpt>
      <trkpt lat="43.51247" lon="6.67923">
        <ele>131.1</ele>
        <time>2025-10-26T09:18:51Z</time>
      </trkpt>
      <trkpt lat="43.51247" lon="6.67924">
        <ele>131</ele>
        <time>2025-10-26T09:18:52Z</time>
      </trkpt>
      <trkpt lat="43.51247" lon="6.67925">
        <ele>131</ele>
        <time>2025-10-26T09:18:53Z</time>
      </trkpt>
      <trkpt lat="43.51247" lon="6.67926">
        <ele>131</ele>
        <time>2025-10-26T09:18:54Z</time>
      </trkpt>
      <trkpt lat="43.51247" lon="6.67927">
        <ele>131</ele>
        <time>2025-10-26T09:18:55Z</time>
      </trkpt>
      <trkpt lat="43.51246" lon="6.67927">
        <ele>131.2</ele>
        <time>2025-10-26T09:18:56Z</time>
      </trkpt>
      <trkpt lat="43.51246" lon="6.67928">
        <ele>131.3</ele>
        <time>2025-10-26T09:18:57Z</time>
      </trkpt>
      <trkpt lat="43.51245" lon="6.67929">
        <ele>131.4</ele>
        <time>2025-10-26T09:18:58Z</time>
      </trkpt>
      <trkpt lat="43.51244" lon="6.6793">
        <ele>131.5</ele>
        <time>2025-10-26T09:18:59Z</time>
      </trkpt>
      <trkpt lat="43.51244" lon="6.67932">
        <ele>131.6</ele>
        <time>2025-10-26T09:19:00Z</time>
      </trkpt>
      <trkpt lat="43.51243" lon="6.67933">
        <ele>131.6</ele>
        <time>2025-10-26T09:19:01Z</time>
      </trkpt>
      <trkpt lat="43.51243" lon="6.67934">
        <ele>131.5</ele>
        <time>2025-10-26T09:19:02Z</time>
      </trkpt>
      <trkpt lat="43.51242" lon="6.67936">
        <ele>131.5</ele>
        <time>2025-10-26T09:19:03Z</time>
      </trkpt>
      <trkpt lat="43.51241" lon="6.67937">
        <ele>131.3</ele>
        <time>2025-10-26T09:19:04Z</time>
      </trkpt>
      <trkpt lat="43.5124" lon="6.67938">
        <ele>131.3</ele>
        <time>2025-10-26T09:19:05Z</time>
      </trkpt>
      <trkpt lat="43.51239" lon="6.67939">
        <ele>131</ele>
        <time>2025-10-26T09:19:06Z</time>
      </trkpt>
      <trkpt lat="43.51239" lon="6.6794">
        <ele>130.8</ele>
        <time>2025-10-26T09:19:07Z</time>
      </trkpt>
      <trkpt lat="43.51239" lon="6.67942">
        <ele>130.6</ele>
        <time>2025-10-26T09:19:08Z</time>
      </trkpt>
      <trkpt lat="43.51238" lon="6.67942">
        <ele>130.3</ele>
        <time>2025-10-26T09:19:09Z</time>
      </trkpt>
      <trkpt lat="43.51238" lon="6.67944">
        <ele>130.1</ele>
        <time>2025-10-26T09:19:10Z</time>
      </trkpt>
      <trkpt lat="43.51237" lon="6.67945">
        <ele>129.9</ele>
        <time>2025-10-26T09:19:11Z</time>
      </trkpt>
      <trkpt lat="43.51237" lon="6.67946">
        <ele>129.8</ele>
        <time>2025-10-26T09:19:12Z</time>
      </trkpt>
      <trkpt lat="43.51236" lon="6.67946">
        <ele>129.2</ele>
        <time>2025-10-26T09:19:13Z</time>
      </trkpt>
      <trkpt lat="43.51235" lon="6.67948">
        <ele>128.8</ele>
        <time>2025-10-26T09:19:14Z</time>
      </trkpt>
      <trkpt lat="43.51234" lon="6.67948">
        <ele>128.6</ele>
        <time>2025-10-26T09:19:15Z</time>
      </trkpt>
      <trkpt lat="43.51233" lon="6.67949">
        <ele>128.4</ele>
        <time>2025-10-26T09:19:16Z</time>
      </trkpt>
      <trkpt lat="43.51233" lon="6.67949">
        <ele>128.2</ele>
        <time>2025-10-26T09:19:17Z</time>
      </trkpt>
      <trkpt lat="43.51232" lon="6.67949">
        <ele>127.9</ele>
        <time>2025-10-26T09:19:18Z</time>
      </trkpt>
      <trkpt lat="43.51232" lon="6.67948">
        <ele>127.8</ele>
        <time>2025-10-26T09:19:19Z</time>
      </trkpt>
      <trkpt lat="43.51231" lon="6.67948">
        <ele>127.7</ele>
        <time>2025-10-26T09:19:20Z</time>
      </trkpt>
      <trkpt lat="43.51231" lon="6.67948">
        <ele>127.6</ele>
        <time>2025-10-26T09:19:21Z</time>
      </trkpt>
      <trkpt lat="43.5123" lon="6.67948">
        <ele>127.4</ele>
        <time>2025-10-26T09:19:22Z</time>
      </trkpt>
      <trkpt lat="43.5123" lon="6.67948">
        <ele>127.2</ele>
        <time>2025-10-26T09:19:23Z</time>
      </trkpt>
      <trkpt lat="43.5123" lon="6.67948">
        <ele>127.1</ele>
        <time>2025-10-26T09:19:24Z</time>
      </trkpt>
      <trkpt lat="43.5123" lon="6.67948">
        <ele>127.1</ele>
        <time>2025-10-26T09:19:25Z</time>
      </trkpt>
      <trkpt lat="43.5123" lon="6.67947">
        <ele>127</ele>
        <time>2025-10-26T09:19:26Z</time>
      </trkpt>
      <trkpt lat="43.51231" lon="6.67947">
        <ele>126.9</ele>
        <time>2025-10-26T09:19:27Z</time>
      </trkpt>
      <trkpt lat="43.51231" lon="6.67947">
        <ele>126.8</ele>
        <time>2025-10-26T09:19:28Z</time>
      </trkpt>
      <trkpt lat="43.51231" lon="6.67948">
        <ele>126.8</ele>
        <time>2025-10-26T09:19:29Z</time>
      </trkpt>
      <trkpt lat="43.51231" lon="6.67948">
        <ele>126.7</ele>
        <time>2025-10-26T09:19:30Z</time>
      </trkpt>
      <trkpt lat="43.51231" lon="6.67948">
        <ele>126.7</ele>
        <time>2025-10-26T09:19:31Z</time>
      </trkpt>
      <trkpt lat="43.51231" lon="6.67948">
        <ele>126.6</ele>
        <time>2025-10-26T09:19:32Z</time>
      </trkpt>
      <trkpt lat="43.51231" lon="6.67948">
        <ele>126.6</ele>
        <time>2025-10-26T09:19:33Z</time>
      </trkpt>
      <trkpt lat="43.51232" lon="6.67947">
        <ele>126.5</ele>
        <time>2025-10-26T09:19:34Z</time>
      </trkpt>
      <trkpt lat="43.51232" lon="6.67947">
        <ele>126.4</ele>
        <time>2025-10-26T09:19:35Z</time>
      </trkpt>
      <trkpt lat="43.51232" lon="6.67947">
        <ele>126.3</ele>
        <time>2025-10-26T09:19:36Z</time>
      </trkpt>
      <trkpt lat="43.51232" lon="6.67947">
        <ele>126.4</ele>
        <time>2025-10-26T09:19:37Z</time>
      </trkpt>
      <trkpt lat="43.51232" lon="6.67947">
        <ele>126.4</ele>
        <time>2025-10-26T09:19:38Z</time>
      </trkpt>
      <trkpt lat="43.51232" lon="6.67947">
        <ele>126.4</ele>
        <time>2025-10-26T09:19:39Z</time>
      </trkpt>
      <trkpt lat="43.51232" lon="6.67947">
        <ele>126.4</ele>
        <time>2025-10-26T09:19:40Z</time>
      </trkpt>
      <trkpt lat="43.51233" lon="6.67948">
        <ele>126.4</ele>
        <time>2025-10-26T09:19:41Z</time>
      </trkpt>
      <trkpt lat="43.51233" lon="6.67948">
        <ele>126.5</ele>
        <time>2025-10-26T09:19:42Z</time>
      </trkpt>
      <trkpt lat="43.51234" lon="6.67949">
        <ele>126.5</ele>
        <time>2025-10-26T09:19:43Z</time>
      </trkpt>
      <trkpt lat="43.51234" lon="6.67949">
        <ele>126.4</ele>
        <time>2025-10-26T09:19:44Z</time>
      </trkpt>
      <trkpt lat="43.51234" lon="6.6795">
        <ele>126.4</ele>
        <time>2025-10-26T09:19:45Z</time>
      </trkpt>
      <trkpt lat="43.51234" lon="6.6795">
        <ele>126.4</ele>
        <time>2025-10-26T09:19:46Z</time>
      </trkpt>
      <trkpt lat="43.51234" lon="6.67949">
        <ele>126.5</ele>
        <time>2025-10-26T09:19:47Z</time>
      </trkpt>
      <trkpt lat="43.51234" lon="6.67949">
        <ele>126.5</ele>
        <time>2025-10-26T09:19:48Z</time>
      </trkpt>
      <trkpt lat="43.51234" lon="6.67949">
        <ele>126.5</ele>
        <time>2025-10-26T09:19:49Z</time>
      </trkpt>
      <trkpt lat="43.51234" lon="6.67949">
        <ele>126.5</ele>
        <time>2025-10-26T09:19:50Z</time>
      </trkpt>
      <trkpt lat="43.51234" lon="6.67949">
        <ele>126.5</ele>
        <time>2025-10-26T09:19:51Z</time>
      </trkpt>
      <trkpt lat="43.51235" lon="6.6795">
        <ele>126.6</ele>
        <time>2025-10-26T09:19:52Z</time>
      </trkpt>
      <trkpt lat="43.51235" lon="6.6795">
        <ele>126.6</ele>
        <time>2025-10-26T09:19:53Z</time>
      </trkpt>
      <trkpt lat="43.51235" lon="6.6795">
        <ele>126.6</ele>
        <time>2025-10-26T09:19:54Z</time>
      </trkpt>
      <trkpt lat="43.51235" lon="6.6795">
        <ele>126.7</ele>
        <time>2025-10-26T09:19:55Z</time>
      </trkpt>
      <trkpt lat="43.51235" lon="6.6795">
        <ele>126.7</ele>
        <time>2025-10-26T09:19:56Z</time>
      </trkpt>
      <trkpt lat="43.51234" lon="6.67951">
        <ele>126.7</ele>
        <time>2025-10-26T09:19:57Z</time>
      </trkpt>
      <trkpt lat="43.51234" lon="6.67951">
        <ele>126.7</ele>
        <time>2025-10-26T09:19:58Z</time>
      </trkpt>
      <trkpt lat="43.51233" lon="6.67951">
        <ele>126.7</ele>
        <time>2025-10-26T09:19:59Z</time>
      </trkpt>
      <trkpt lat="43.51233" lon="6.67952">
        <ele>126.7</ele>
        <time>2025-10-26T09:20:00Z</time>
      </trkpt>
      <trkpt lat="43.51233" lon="6.67951">
        <ele>126.8</ele>
        <time>2025-10-26T09:20:01Z</time>
      </trkpt>
      <trkpt lat="43.51233" lon="6.67951">
        <ele>126.8</ele>
        <time>2025-10-26T09:20:02Z</time>
      </trkpt>
      <trkpt lat="43.51232" lon="6.67951">
        <ele>126.8</ele>
        <time>2025-10-26T09:20:03Z</time>
      </trkpt>
      <trkpt lat="43.51232" lon="6.67951">
        <ele>126.8</ele>
        <time>2025-10-26T09:20:04Z</time>
      </trkpt>
      <trkpt lat="43.51232" lon="6.67951">
        <ele>126.8</ele>
        <time>2025-10-26T09:20:05Z</time>
      </trkpt>
      <trkpt lat="43.51232" lon="6.6795">
        <ele>126.7</ele>
        <time>2025-10-26T09:20:06Z</time>
      </trkpt>
      <trkpt lat="43.51232" lon="6.67951">
        <ele>126.6</ele>
        <time>2025-10-26T09:20:07Z</time>
      </trkpt>
      <trkpt lat="43.51232" lon="6.67951">
        <ele>126.7</ele>
        <time>2025-10-26T09:20:08Z</time>
      </trkpt>
      <trkpt lat="43.51231" lon="6.67952">
        <ele>126.6</ele>
        <time>2025-10-26T09:20:09Z</time>
      </trkpt>
      <trkpt lat="43.51231" lon="6.67952">
        <ele>126.6</ele>
        <time>2025-10-26T09:20:10Z</time>
      </trkpt>
      <trkpt lat="43.5123" lon="6.67952">
        <ele>126.5</ele>
        <time>2025-10-26T09:20:11Z</time>
      </trkpt>
      <trkpt lat="43.5123" lon="6.67952">
        <ele>126.4</ele>
        <time>2025-10-26T09:20:12Z</time>
      </trkpt>
      <trkpt lat="43.5123" lon="6.67953">
        <ele>126.4</ele>
        <time>2025-10-26T09:20:13Z</time>
      </trkpt>
      <trkpt lat="43.5123" lon="6.67953">
        <ele>126.4</ele>
        <time>2025-10-26T09:20:14Z</time>
      </trkpt>
      <trkpt lat="43.5123" lon="6.67953">
        <ele>126.5</ele>
        <time>2025-10-26T09:20:15Z</time>
      </trkpt>
      <trkpt lat="43.5123" lon="6.67953">
        <ele>126.4</ele>
        <time>2025-10-26T09:20:16Z</time>
      </trkpt>
      <trkpt lat="43.5123" lon="6.67953">
        <ele>126.4</ele>
        <time>2025-10-26T09:20:17Z</time>
      </trkpt>
      <trkpt lat="43.5123" lon="6.67954">
        <ele>126.4</ele>
        <time>2025-10-26T09:20:18Z</time>
      </trkpt>
      <trkpt lat="43.5123" lon="6.67954">
        <ele>126.5</ele>
        <time>2025-10-26T09:20:19Z</time>
      </trkpt>
      <trkpt lat="43.5123" lon="6.67954">
        <ele>126.5</ele>
        <time>2025-10-26T09:20:20Z</time>
      </trkpt>
      <trkpt lat="43.5123" lon="6.67955">
        <ele>126.5</ele>
        <time>2025-10-26T09:20:21Z</time>
      </trkpt>
      <trkpt lat="43.5123" lon="6.67955">
        <ele>126.5</ele>
        <time>2025-10-26T09:20:22Z</time>
      </trkpt>
      <trkpt lat="43.5123" lon="6.67955">
        <ele>126.5</ele>
        <time>2025-10-26T09:20:23Z</time>
      </trkpt>
      <trkpt lat="43.5123" lon="6.67955">
        <ele>126.5</ele>
        <time>2025-10-26T09:20:24Z</time>
      </trkpt>
      <trkpt lat="43.5123" lon="6.67955">
        <ele>126.5</ele>
        <time>2025-10-26T09:20:25Z</time>
      </trkpt>
      <trkpt lat="43.5123" lon="6.67955">
        <ele>126.5</ele>
        <time>2025-10-26T09:20:26Z</time>
      </trkpt>
      <trkpt lat="43.5123" lon="6.67955">
        <ele>126.6</ele>
        <time>2025-10-26T09:20:27Z</time>
      </trkpt>
      <trkpt lat="43.5123" lon="6.67955">
        <ele>126.6</ele>
        <time>2025-10-26T09:20:28Z</time>
      </trkpt>
      <trkpt lat="43.5123" lon="6.67955">
        <ele>126.5</ele>
        <time>2025-10-26T09:20:29Z</time>
      </trkpt>
      <trkpt lat="43.5123" lon="6.67956">
        <ele>126.5</ele>
        <time>2025-10-26T09:20:30Z</time>
      </trkpt>
      <trkpt lat="43.5123" lon="6.67956">
        <ele>126.5</ele>
        <time>2025-10-26T09:20:31Z</time>
      </trkpt>
      <trkpt lat="43.5123" lon="6.67956">
        <ele>126.4</ele>
        <time>2025-10-26T09:20:32Z</time>
      </trkpt>
      <trkpt lat="43.51231" lon="6.67956">
        <ele>126.4</ele>
        <time>2025-10-26T09:20:33Z</time>
      </trkpt>
      <trkpt lat="43.51231" lon="6.67956">
        <ele>126.3</ele>
        <time>2025-10-26T09:20:34Z</time>
      </trkpt>
      <trkpt lat="43.51231" lon="6.67956">
        <ele>126.3</ele>
        <time>2025-10-26T09:20:35Z</time>
      </trkpt>
      <trkpt lat="43.51231" lon="6.67956">
        <ele>126.3</ele>
        <time>2025-10-26T09:20:36Z</time>
      </trkpt>
      <trkpt lat="43.51231" lon="6.67956">
        <ele>126.2</ele>
        <time>2025-10-26T09:20:37Z</time>
      </trkpt>
      <trkpt lat="43.51231" lon="6.67956">
        <ele>126.2</ele>
        <time>2025-10-26T09:20:38Z</time>
      </trkpt>
      <trkpt lat="43.51231" lon="6.67956">
        <ele>126.2</ele>
        <time>2025-10-26T09:20:39Z</time>
      </trkpt>
      <trkpt lat="43.51231" lon="6.67956">
        <ele>126.2</ele>
        <time>2025-10-26T09:20:40Z</time>
      </trkpt>
      <trkpt lat="43.51231" lon="6.67956">
        <ele>126.2</ele>
        <time>2025-10-26T09:20:41Z</time>
      </trkpt>
      <trkpt lat="43.51231" lon="6.67956">
        <ele>126.2</ele>
        <time>2025-10-26T09:20:42Z</time>
      </trkpt>
      <trkpt lat="43.51231" lon="6.67956">
        <ele>126.3</ele>
        <time>2025-10-26T09:20:43Z</time>
      </trkpt>
      <trkpt lat="43.51232" lon="6.67956">
        <ele>126.4</ele>
        <time>2025-10-26T09:20:44Z</time>
      </trkpt>
      <trkpt lat="43.51232" lon="6.67956">
        <ele>126.4</ele>
        <time>2025-10-26T09:20:45Z</time>
      </trkpt>
      <trkpt lat="43.51231" lon="6.67956">
        <ele>126.4</ele>
        <time>2025-10-26T09:20:46Z</time>
      </trkpt>
      <trkpt lat="43.51231" lon="6.67956">
        <ele>126.5</ele>
        <time>2025-10-26T09:20:47Z</time>
      </trkpt>
      <trkpt lat="43.51231" lon="6.67956">
        <ele>126.5</ele>
        <time>2025-10-26T09:20:48Z</time>
      </trkpt>
      <trkpt lat="43.51232" lon="6.67956">
        <ele>126.5</ele>
        <time>2025-10-26T09:20:49Z</time>
      </trkpt>
      <trkpt lat="43.51231" lon="6.67957">
        <ele>126.5</ele>
        <time>2025-10-26T09:20:50Z</time>
      </trkpt>
      <trkpt lat="43.51231" lon="6.67957">
        <ele>126.5</ele>
        <time>2025-10-26T09:20:51Z</time>
      </trkpt>
      <trkpt lat="43.5123" lon="6.67956">
        <ele>126.5</ele>
        <time>2025-10-26T09:20:52Z</time>
      </trkpt>
      <trkpt lat="43.51229" lon="6.67956">
        <ele>126.5</ele>
        <time>2025-10-26T09:20:53Z</time>
      </trkpt>
      <trkpt lat="43.5123" lon="6.67956">
        <ele>126.4</ele>
        <time>2025-10-26T09:20:54Z</time>
      </trkpt>
      <trkpt lat="43.51229" lon="6.67956">
        <ele>126.4</ele>
        <time>2025-10-26T09:20:55Z</time>
      </trkpt>
      <trkpt lat="43.51229" lon="6.67956">
        <ele>126.3</ele>
        <time>2025-10-26T09:20:56Z</time>
      </trkpt>
      <trkpt lat="43.51229" lon="6.67956">
        <ele>126.3</ele>
        <time>2025-10-26T09:20:57Z</time>
      </trkpt>
      <trkpt lat="43.51229" lon="6.67956">
        <ele>126.2</ele>
        <time>2025-10-26T09:20:58Z</time>
      </trkpt>
      <trkpt lat="43.5123" lon="6.67956">
        <ele>126.3</ele>
        <time>2025-10-26T09:20:59Z</time>
      </trkpt>
      <trkpt lat="43.51231" lon="6.67955">
        <ele>126.3</ele>
        <time>2025-10-26T09:21:00Z</time>
      </trkpt>
      <trkpt lat="43.51231" lon="6.67955">
        <ele>126.4</ele>
        <time>2025-10-26T09:21:01Z</time>
      </trkpt>
      <trkpt lat="43.51232" lon="6.67955">
        <ele>126.4</ele>
        <time>2025-10-26T09:21:02Z</time>
      </trkpt>
      <trkpt lat="43.51232" lon="6.67955">
        <ele>126.5</ele>
        <time>2025-10-26T09:21:03Z</time>
      </trkpt>
      <trkpt lat="43.51232" lon="6.67955">
        <ele>126.5</ele>
        <time>2025-10-26T09:21:04Z</time>
      </trkpt>
      <trkpt lat="43.51232" lon="6.67955">
        <ele>126.6</ele>
        <time>2025-10-26T09:21:05Z</time>
      </trkpt>
      <trkpt lat="43.51232" lon="6.67955">
        <ele>126.6</ele>
        <time>2025-10-26T09:21:06Z</time>
      </trkpt>
      <trkpt lat="43.51233" lon="6.67955">
        <ele>126.6</ele>
        <time>2025-10-26T09:21:07Z</time>
      </trkpt>
      <trkpt lat="43.51232" lon="6.67955">
        <ele>126.5</ele>
        <time>2025-10-26T09:21:08Z</time>
      </trkpt>
      <trkpt lat="43.51232" lon="6.67955">
        <ele>126.5</ele>
        <time>2025-10-26T09:21:09Z</time>
      </trkpt>
      <trkpt lat="43.51232" lon="6.67954">
        <ele>126.5</ele>
        <time>2025-10-26T09:21:10Z</time>
      </trkpt>
      <trkpt lat="43.51232" lon="6.67954">
        <ele>126.5</ele>
        <time>2025-10-26T09:21:11Z</time>
      </trkpt>
      <trkpt lat="43.51232" lon="6.67954">
        <ele>126.5</ele>
        <time>2025-10-26T09:21:12Z</time>
      </trkpt>
      <trkpt lat="43.51232" lon="6.67954">
        <ele>126.5</ele>
        <time>2025-10-26T09:21:13Z</time>
      </trkpt>
      <trkpt lat="43.51233" lon="6.67954">
        <ele>126.3</ele>
        <time>2025-10-26T09:21:14Z</time>
      </trkpt>
      <trkpt lat="43.51232" lon="6.67954">
        <ele>126.2</ele>
        <time>2025-10-26T09:21:15Z</time>
      </trkpt>
      <trkpt lat="43.51232" lon="6.67954">
        <ele>126.1</ele>
        <time>2025-10-26T09:21:16Z</time>
      </trkpt>
      <trkpt lat="43.51233" lon="6.67954">
        <ele>126.1</ele>
        <time>2025-10-26T09:21:17Z</time>
      </trkpt>
      <trkpt lat="43.51233" lon="6.67954">
        <ele>126.1</ele>
        <time>2025-10-26T09:21:18Z</time>
      </trkpt>
      <trkpt lat="43.51233" lon="6.67954">
        <ele>126.1</ele>
        <time>2025-10-26T09:21:19Z</time>
      </trkpt>
      <trkpt lat="43.51233" lon="6.67954">
        <ele>126.2</ele>
        <time>2025-10-26T09:21:20Z</time>
      </trkpt>
      <trkpt lat="43.51233" lon="6.67954">
        <ele>126.3</ele>
        <time>2025-10-26T09:21:21Z</time>
      </trkpt>
      <trkpt lat="43.51233" lon="6.67954">
        <ele>126.3</ele>
        <time>2025-10-26T09:21:22Z</time>
      </trkpt>
      <trkpt lat="43.51233" lon="6.67954">
        <ele>126.4</ele>
        <time>2025-10-26T09:21:23Z</time>
      </trkpt>
      <trkpt lat="43.51233" lon="6.67954">
        <ele>126.4</ele>
        <time>2025-10-26T09:21:24Z</time>
      </trkpt>
      <trkpt lat="43.51233" lon="6.67954">
        <ele>126.4</ele>
        <time>2025-10-26T09:21:25Z</time>
      </trkpt>
      <trkpt lat="43.51233" lon="6.67954">
        <ele>126.3</ele>
        <time>2025-10-26T09:21:26Z</time>
      </trkpt>
      <trkpt lat="43.51233" lon="6.67954">
        <ele>126.3</ele>
        <time>2025-10-26T09:21:27Z</time>
      </trkpt>
      <trkpt lat="43.51234" lon="6.67954">
        <ele>126.3</ele>
        <time>2025-10-26T09:21:28Z</time>
      </trkpt>
      <trkpt lat="43.51234" lon="6.67954">
        <ele>126.2</ele>
        <time>2025-10-26T09:21:29Z</time>
      </trkpt>
      <trkpt lat="43.51234" lon="6.67954">
        <ele>126.2</ele>
        <time>2025-10-26T09:21:30Z</time>
      </trkpt>
      <trkpt lat="43.51233" lon="6.67954">
        <ele>126.2</ele>
        <time>2025-10-26T09:21:31Z</time>
      </trkpt>
      <trkpt lat="43.51234" lon="6.67954">
        <ele>126.2</ele>
        <time>2025-10-26T09:21:32Z</time>
      </trkpt>
      <trkpt lat="43.51234" lon="6.67953">
        <ele>126.2</ele>
        <time>2025-10-26T09:21:33Z</time>
      </trkpt>
      <trkpt lat="43.51234" lon="6.67954">
        <ele>126.2</ele>
        <time>2025-10-26T09:21:34Z</time>
      </trkpt>
      <trkpt lat="43.51233" lon="6.67954">
        <ele>126.2</ele>
        <time>2025-10-26T09:21:35Z</time>
      </trkpt>
      <trkpt lat="43.51233" lon="6.67954">
        <ele>126.2</ele>
        <time>2025-10-26T09:21:36Z</time>
      </trkpt>
      <trkpt lat="43.51234" lon="6.67954">
        <ele>126.2</ele>
        <time>2025-10-26T09:21:37Z</time>
      </trkpt>
      <trkpt lat="43.51234" lon="6.67954">
        <ele>126.1</ele>
        <time>2025-10-26T09:21:38Z</time>
      </trkpt>
      <trkpt lat="43.51234" lon="6.67954">
        <ele>126.1</ele>
        <time>2025-10-26T09:21:39Z</time>
      </trkpt>
      <trkpt lat="43.51233" lon="6.67954">
        <ele>126.2</ele>
        <time>2025-10-26T09:21:40Z</time>
      </trkpt>
      <trkpt lat="43.51233" lon="6.67954">
        <ele>126.1</ele>
        <time>2025-10-26T09:21:41Z</time>
      </trkpt>
      <trkpt lat="43.51234" lon="6.67954">
        <ele>126.1</ele>
        <time>2025-10-26T09:21:42Z</time>
      </trkpt>
      <trkpt lat="43.51234" lon="6.67954">
        <ele>126.2</ele>
        <time>2025-10-26T09:21:43Z</time>
      </trkpt>
      <trkpt lat="43.51234" lon="6.67954">
        <ele>126.2</ele>
        <time>2025-10-26T09:21:44Z</time>
      </trkpt>
      <trkpt lat="43.51234" lon="6.67954">
        <ele>126.2</ele>
        <time>2025-10-26T09:21:45Z</time>
      </trkpt>
      <trkpt lat="43.51234" lon="6.67954">
        <ele>126.2</ele>
        <time>2025-10-26T09:21:46Z</time>
      </trkpt>
      <trkpt lat="43.51234" lon="6.67954">
        <ele>126.3</ele>
        <time>2025-10-26T09:21:47Z</time>
      </trkpt>
      <trkpt lat="43.51234" lon="6.67954">
        <ele>126.2</ele>
        <time>2025-10-26T09:21:48Z</time>
      </trkpt>
      <trkpt lat="43.51234" lon="6.67954">
        <ele>126.2</ele>
        <time>2025-10-26T09:21:49Z</time>
      </trkpt>
      <trkpt lat="43.51234" lon="6.67954">
        <ele>126.2</ele>
        <time>2025-10-26T09:21:50Z</time>
      </trkpt>
      <trkpt lat="43.51234" lon="6.67954">
        <ele>126.2</ele>
        <time>2025-10-26T09:21:51Z</time>
      </trkpt>
      <trkpt lat="43.51234" lon="6.67954">
        <ele>126.2</ele>
        <time>2025-10-26T09:21:52Z</time>
      </trkpt>
      <trkpt lat="43.51234" lon="6.67954">
        <ele>126.2</ele>
        <time>2025-10-26T09:21:53Z</time>
      </trkpt>
      <trkpt lat="43.51234" lon="6.67954">
        <ele>126.2</ele>
        <time>2025-10-26T09:21:54Z</time>
      </trkpt>
      <trkpt lat="43.51234" lon="6.67954">
        <ele>126.2</ele>
        <time>2025-10-26T09:21:55Z</time>
      </trkpt>
      <trkpt lat="43.51234" lon="6.67954">
        <ele>126.1</ele>
        <time>2025-10-26T09:21:56Z</time>
      </trkpt>
      <trkpt lat="43.51233" lon="6.67954">
        <ele>126.1</ele>
        <time>2025-10-26T09:21:57Z</time>
      </trkpt>
      <trkpt lat="43.51233" lon="6.67954">
        <ele>126.1</ele>
        <time>2025-10-26T09:21:58Z</time>
      </trkpt>
      <trkpt lat="43.51233" lon="6.67954">
        <ele>126.1</ele>
        <time>2025-10-26T09:21:59Z</time>
      </trkpt>
      <trkpt lat="43.51232" lon="6.67953">
        <ele>126</ele>
        <time>2025-10-26T09:22:00Z</time>
      </trkpt>
      <trkpt lat="43.51233" lon="6.67953">
        <ele>126</ele>
        <time>2025-10-26T09:22:01Z</time>
      </trkpt>
      <trkpt lat="43.51233" lon="6.67954">
        <ele>126</ele>
        <time>2025-10-26T09:22:02Z</time>
      </trkpt>
      <trkpt lat="43.51233" lon="6.67953">
        <ele>125.9</ele>
        <time>2025-10-26T09:22:03Z</time>
      </trkpt>
      <trkpt lat="43.51233" lon="6.67953">
        <ele>125.9</ele>
        <time>2025-10-26T09:22:04Z</time>
      </trkpt>
      <trkpt lat="43.51233" lon="6.67953">
        <ele>125.9</ele>
        <time>2025-10-26T09:22:05Z</time>
      </trkpt>
      <trkpt lat="43.51233" lon="6.67953">
        <ele>125.9</ele>
        <time>2025-10-26T09:22:06Z</time>
      </trkpt>
      <trkpt lat="43.51233" lon="6.67953">
        <ele>125.8</ele>
        <time>2025-10-26T09:22:07Z</time>
      </trkpt>
      <trkpt lat="43.51233" lon="6.67954">
        <ele>125.8</ele>
        <time>2025-10-26T09:22:08Z</time>
      </trkpt>
      <trkpt lat="43.51233" lon="6.67954">
        <ele>125.7</ele>
        <time>2025-10-26T09:22:09Z</time>
      </trkpt>
      <trkpt lat="43.51233" lon="6.67953">
        <ele>125.7</ele>
        <time>2025-10-26T09:22:10Z</time>
      </trkpt>
      <trkpt lat="43.51234" lon="6.67953">
        <ele>125.6</ele>
        <time>2025-10-26T09:22:11Z</time>
      </trkpt>
      <trkpt lat="43.51234" lon="6.67953">
        <ele>125.6</ele>
        <time>2025-10-26T09:22:12Z</time>
      </trkpt>
      <trkpt lat="43.51234" lon="6.67953">
        <ele>125.6</ele>
        <time>2025-10-26T09:22:13Z</time>
      </trkpt>
      <trkpt lat="43.51234" lon="6.67953">
        <ele>125.6</ele>
        <time>2025-10-26T09:22:14Z</time>
      </trkpt>
      <trkpt lat="43.51234" lon="6.67953">
        <ele>125.6</ele>
        <time>2025-10-26T09:22:15Z</time>
      </trkpt>
      <trkpt lat="43.51233" lon="6.67953">
        <ele>125.6</ele>
        <time>2025-10-26T09:22:16Z</time>
      </trkpt>
      <trkpt lat="43.51234" lon="6.67952">
        <ele>125.5</ele>
        <time>2025-10-26T09:22:17Z</time>
      </trkpt>
      <trkpt lat="43.51234" lon="6.67952">
        <ele>125.5</ele>
        <time>2025-10-26T09:22:18Z</time>
      </trkpt>
      <trkpt lat="43.51234" lon="6.67952">
        <ele>125.5</ele>
        <time>2025-10-26T09:22:19Z</time>
      </trkpt>
      <trkpt lat="43.51234" lon="6.67952">
        <ele>125.6</ele>
        <time>2025-10-26T09:22:20Z</time>
      </trkpt>
      <trkpt lat="43.51234" lon="6.67952">
        <ele>125.7</ele>
        <time>2025-10-26T09:22:21Z</time>
      </trkpt>
      <trkpt lat="43.51234" lon="6.67953">
        <ele>125.8</ele>
        <time>2025-10-26T09:22:22Z</time>
      </trkpt>
      <trkpt lat="43.51234" lon="6.67953">
        <ele>125.9</ele>
        <time>2025-10-26T09:22:23Z</time>
      </trkpt>
      <trkpt lat="43.51234" lon="6.67953">
        <ele>126</ele>
        <time>2025-10-26T09:22:24Z</time>
      </trkpt>
      <trkpt lat="43.51234" lon="6.67953">
        <ele>126</ele>
        <time>2025-10-26T09:22:25Z</time>
      </trkpt>
      <trkpt lat="43.51234" lon="6.67953">
        <ele>126.1</ele>
        <time>2025-10-26T09:22:26Z</time>
      </trkpt>
      <trkpt lat="43.51234" lon="6.67953">
        <ele>126.1</ele>
        <time>2025-10-26T09:22:27Z</time>
      </trkpt>
      <trkpt lat="43.51234" lon="6.67953">
        <ele>126.2</ele>
        <time>2025-10-26T09:22:28Z</time>
      </trkpt>
      <trkpt lat="43.51234" lon="6.67953">
        <ele>126.2</ele>
        <time>2025-10-26T09:22:29Z</time>
      </trkpt>
      <trkpt lat="43.51234" lon="6.67954">
        <ele>126.2</ele>
        <time>2025-10-26T09:22:30Z</time>
      </trkpt>
      <trkpt lat="43.51234" lon="6.67954">
        <ele>126.2</ele>
        <time>2025-10-26T09:22:31Z</time>
      </trkpt>
      <trkpt lat="43.51234" lon="6.67954">
        <ele>126.2</ele>
        <time>2025-10-26T09:22:32Z</time>
      </trkpt>
      <trkpt lat="43.51234" lon="6.67954">
        <ele>126.3</ele>
        <time>2025-10-26T09:22:33Z</time>
      </trkpt>
      <trkpt lat="43.51234" lon="6.67954">
        <ele>126.2</ele>
        <time>2025-10-26T09:22:34Z</time>
      </trkpt>
      <trkpt lat="43.51234" lon="6.67954">
        <ele>126.1</ele>
        <time>2025-10-26T09:22:35Z</time>
      </trkpt>
      <trkpt lat="43.51234" lon="6.67953">
        <ele>126.1</ele>
        <time>2025-10-26T09:22:36Z</time>
      </trkpt>
      <trkpt lat="43.51234" lon="6.67953">
        <ele>126</ele>
        <time>2025-10-26T09:22:37Z</time>
      </trkpt>
      <trkpt lat="43.51234" lon="6.67954">
        <ele>125.9</ele>
        <time>2025-10-26T09:22:38Z</time>
      </trkpt>
      <trkpt lat="43.51234" lon="6.67953">
        <ele>126</ele>
        <time>2025-10-26T09:22:39Z</time>
      </trkpt>
      <trkpt lat="43.51234" lon="6.67953">
        <ele>126.1</ele>
        <time>2025-10-26T09:22:40Z</time>
      </trkpt>
      <trkpt lat="43.51234" lon="6.67953">
        <ele>126.2</ele>
        <time>2025-10-26T09:22:41Z</time>
      </trkpt>
      <trkpt lat="43.51234" lon="6.67953">
        <ele>126.1</ele>
        <time>2025-10-26T09:22:42Z</time>
      </trkpt>
      <trkpt lat="43.51234" lon="6.67953">
        <ele>126.1</ele>
        <time>2025-10-26T09:22:43Z</time>
      </trkpt>
      <trkpt lat="43.51234" lon="6.67953">
        <ele>126</ele>
        <time>2025-10-26T09:22:44Z</time>
      </trkpt>
      <trkpt lat="43.51234" lon="6.67954">
        <ele>126</ele>
        <time>2025-10-26T09:22:45Z</time>
      </trkpt>
      <trkpt lat="43.51234" lon="6.67954">
        <ele>126</ele>
        <time>2025-10-26T09:22:46Z</time>
      </trkpt>
      <trkpt lat="43.51234" lon="6.67953">
        <ele>126</ele>
        <time>2025-10-26T09:22:47Z</time>
      </trkpt>
      <trkpt lat="43.51234" lon="6.67953">
        <ele>126</ele>
        <time>2025-10-26T09:22:48Z</time>
      </trkpt>
      <trkpt lat="43.51234" lon="6.67953">
        <ele>126.1</ele>
        <time>2025-10-26T09:22:49Z</time>
      </trkpt>
      <trkpt lat="43.51234" lon="6.67954">
        <ele>126.1</ele>
        <time>2025-10-26T09:22:50Z</time>
      </trkpt>
      <trkpt lat="43.51234" lon="6.67954">
        <ele>126.2</ele>
        <time>2025-10-26T09:22:51Z</time>
      </trkpt>
      <trkpt lat="43.51234" lon="6.67954">
        <ele>126.1</ele>
        <time>2025-10-26T09:22:52Z</time>
      </trkpt>
      <trkpt lat="43.51234" lon="6.67954">
        <ele>126.1</ele>
        <time>2025-10-26T09:22:53Z</time>
      </trkpt>
      <trkpt lat="43.51234" lon="6.67954">
        <ele>126.1</ele>
        <time>2025-10-26T09:22:54Z</time>
      </trkpt>
      <trkpt lat="43.51233" lon="6.67955">
        <ele>126.1</ele>
        <time>2025-10-26T09:22:55Z</time>
      </trkpt>
      <trkpt lat="43.51233" lon="6.67955">
        <ele>126.1</ele>
        <time>2025-10-26T09:22:56Z</time>
      </trkpt>
      <trkpt lat="43.51232" lon="6.67955">
        <ele>126.1</ele>
        <time>2025-10-26T09:22:57Z</time>
      </trkpt>
      <trkpt lat="43.51232" lon="6.67954">
        <ele>126.1</ele>
        <time>2025-10-26T09:22:58Z</time>
      </trkpt>
      <trkpt lat="43.51232" lon="6.67954">
        <ele>126.1</ele>
        <time>2025-10-26T09:22:59Z</time>
      </trkpt>
      <trkpt lat="43.51231" lon="6.67953">
        <ele>126.1</ele>
        <time>2025-10-26T09:23:00Z</time>
      </trkpt>
      <trkpt lat="43.51231" lon="6.67953">
        <ele>126.1</ele>
        <time>2025-10-26T09:23:01Z</time>
      </trkpt>
      <trkpt lat="43.51231" lon="6.67953">
        <ele>126.1</ele>
        <time>2025-10-26T09:23:02Z</time>
      </trkpt>
      <trkpt lat="43.51231" lon="6.67953">
        <ele>126.1</ele>
        <time>2025-10-26T09:23:03Z</time>
      </trkpt>
      <trkpt lat="43.51231" lon="6.67953">
        <ele>126.2</ele>
        <time>2025-10-26T09:23:04Z</time>
      </trkpt>
      <trkpt lat="43.5123" lon="6.67953">
        <ele>126.1</ele>
        <time>2025-10-26T09:23:05Z</time>
      </trkpt>
      <trkpt lat="43.5123" lon="6.67952">
        <ele>126.1</ele>
        <time>2025-10-26T09:23:06Z</time>
      </trkpt>
      <trkpt lat="43.5123" lon="6.67952">
        <ele>126.1</ele>
        <time>2025-10-26T09:23:07Z</time>
      </trkpt>
      <trkpt lat="43.5123" lon="6.67952">
        <ele>126.1</ele>
        <time>2025-10-26T09:23:08Z</time>
      </trkpt>
      <trkpt lat="43.51229" lon="6.67952">
        <ele>126.1</ele>
        <time>2025-10-26T09:23:09Z</time>
      </trkpt>
      <trkpt lat="43.51229" lon="6.67951">
        <ele>126.1</ele>
        <time>2025-10-26T09:23:10Z</time>
      </trkpt>
      <trkpt lat="43.51229" lon="6.67951">
        <ele>126.1</ele>
        <time>2025-10-26T09:23:11Z</time>
      </trkpt>
      <trkpt lat="43.51229" lon="6.67951">
        <ele>126</ele>
        <time>2025-10-26T09:23:12Z</time>
      </trkpt>
      <trkpt lat="43.51229" lon="6.67951">
        <ele>126</ele>
        <time>2025-10-26T09:23:13Z</time>
      </trkpt>
      <trkpt lat="43.51229" lon="6.67951">
        <ele>126</ele>
        <time>2025-10-26T09:23:14Z</time>
      </trkpt>
      <trkpt lat="43.51228" lon="6.67951">
        <ele>126</ele>
        <time>2025-10-26T09:23:15Z</time>
      </trkpt>
      <trkpt lat="43.51229" lon="6.67951">
        <ele>126</ele>
        <time>2025-10-26T09:23:16Z</time>
      </trkpt>
      <trkpt lat="43.51229" lon="6.6795">
        <ele>126</ele>
        <time>2025-10-26T09:23:17Z</time>
      </trkpt>
      <trkpt lat="43.51229" lon="6.6795">
        <ele>125.9</ele>
        <time>2025-10-26T09:23:18Z</time>
      </trkpt>
      <trkpt lat="43.51229" lon="6.6795">
        <ele>125.9</ele>
        <time>2025-10-26T09:23:19Z</time>
      </trkpt>
      <trkpt lat="43.51229" lon="6.6795">
        <ele>125.9</ele>
        <time>2025-10-26T09:23:20Z</time>
      </trkpt>
      <trkpt lat="43.51229" lon="6.6795">
        <ele>125.9</ele>
        <time>2025-10-26T09:23:21Z</time>
      </trkpt>
      <trkpt lat="43.51228" lon="6.6795">
        <ele>125.9</ele>
        <time>2025-10-26T09:23:22Z</time>
      </trkpt>
      <trkpt lat="43.51228" lon="6.6795">
        <ele>125.9</ele>
        <time>2025-10-26T09:23:23Z</time>
      </trkpt>
      <trkpt lat="43.51228" lon="6.6795">
        <ele>125.9</ele>
        <time>2025-10-26T09:23:24Z</time>
      </trkpt>
      <trkpt lat="43.51228" lon="6.6795">
        <ele>125.9</ele>
        <time>2025-10-26T09:23:25Z</time>
      </trkpt>
      <trkpt lat="43.51228" lon="6.6795">
        <ele>125.9</ele>
        <time>2025-10-26T09:23:26Z</time>
      </trkpt>
      <trkpt lat="43.51228" lon="6.6795">
        <ele>125.9</ele>
        <time>2025-10-26T09:23:27Z</time>
      </trkpt>
      <trkpt lat="43.51228" lon="6.67951">
        <ele>125.9</ele>
        <time>2025-10-26T09:23:28Z</time>
      </trkpt>
      <trkpt lat="43.51228" lon="6.67952">
        <ele>125.9</ele>
        <time>2025-10-26T09:23:29Z</time>
      </trkpt>
      <trkpt lat="43.51228" lon="6.67952">
        <ele>125.9</ele>
        <time>2025-10-26T09:23:30Z</time>
      </trkpt>
      <trkpt lat="43.51229" lon="6.67953">
        <ele>125.9</ele>
        <time>2025-10-26T09:23:31Z</time>
      </trkpt>
      <trkpt lat="43.51228" lon="6.67954">
        <ele>125.9</ele>
        <time>2025-10-26T09:23:32Z</time>
      </trkpt>
      <trkpt lat="43.51228" lon="6.67954">
        <ele>125.9</ele>
        <time>2025-10-26T09:23:33Z</time>
      </trkpt>
      <trkpt lat="43.51228" lon="6.67954">
        <ele>126.1</ele>
        <time>2025-10-26T09:23:34Z</time>
      </trkpt>
      <trkpt lat="43.51228" lon="6.67955">
        <ele>126.1</ele>
        <time>2025-10-26T09:23:35Z</time>
      </trkpt>
      <trkpt lat="43.51227" lon="6.67955">
        <ele>126.2</ele>
        <time>2025-10-26T09:23:36Z</time>
      </trkpt>
      <trkpt lat="43.51227" lon="6.67956">
        <ele>126.2</ele>
        <time>2025-10-26T09:23:37Z</time>
      </trkpt>
      <trkpt lat="43.51226" lon="6.67956">
        <ele>126.2</ele>
        <time>2025-10-26T09:23:38Z</time>
      </trkpt>
      <trkpt lat="43.51226" lon="6.67956">
        <ele>126.2</ele>
        <time>2025-10-26T09:23:39Z</time>
      </trkpt>
      <trkpt lat="43.51226" lon="6.67956">
        <ele>126.2</ele>
        <time>2025-10-26T09:23:40Z</time>
      </trkpt>
      <trkpt lat="43.51226" lon="6.67956">
        <ele>126.2</ele>
        <time>2025-10-26T09:23:41Z</time>
      </trkpt>
      <trkpt lat="43.51226" lon="6.67956">
        <ele>126.1</ele>
        <time>2025-10-26T09:23:42Z</time>
      </trkpt>
      <trkpt lat="43.51225" lon="6.67956">
        <ele>126</ele>
        <time>2025-10-26T09:23:43Z</time>
      </trkpt>
      <trkpt lat="43.51225" lon="6.67956">
        <ele>125.9</ele>
        <time>2025-10-26T09:23:44Z</time>
      </trkpt>
      <trkpt lat="43.51225" lon="6.67957">
        <ele>125.9</ele>
        <time>2025-10-26T09:23:45Z</time>
      </trkpt>
      <trkpt lat="43.51226" lon="6.67957">
        <ele>125.9</ele>
        <time>2025-10-26T09:23:46Z</time>
      </trkpt>
      <trkpt lat="43.51226" lon="6.67956">
        <ele>125.9</ele>
        <time>2025-10-26T09:23:47Z</time>
      </trkpt>
      <trkpt lat="43.51226" lon="6.67956">
        <ele>125.9</ele>
        <time>2025-10-26T09:23:48Z</time>
      </trkpt>
      <trkpt lat="43.51226" lon="6.67956">
        <ele>126</ele>
        <time>2025-10-26T09:23:49Z</time>
      </trkpt>
      <trkpt lat="43.51226" lon="6.67956">
        <ele>126.1</ele>
        <time>2025-10-26T09:23:50Z</time>
      </trkpt>
      <trkpt lat="43.51226" lon="6.67956">
        <ele>126.2</ele>
        <time>2025-10-26T09:23:51Z</time>
      </trkpt>
      <trkpt lat="43.51226" lon="6.67956">
        <ele>126.2</ele>
        <time>2025-10-26T09:23:52Z</time>
      </trkpt>
      <trkpt lat="43.51226" lon="6.67957">
        <ele>126.3</ele>
        <time>2025-10-26T09:23:53Z</time>
      </trkpt>
      <trkpt lat="43.51226" lon="6.67957">
        <ele>126.4</ele>
        <time>2025-10-26T09:23:54Z</time>
      </trkpt>
      <trkpt lat="43.51227" lon="6.67956">
        <ele>126.4</ele>
        <time>2025-10-26T09:23:55Z</time>
      </trkpt>
      <trkpt lat="43.51227" lon="6.67956">
        <ele>126.4</ele>
        <time>2025-10-26T09:23:56Z</time>
      </trkpt>
      <trkpt lat="43.51227" lon="6.67956">
        <ele>126.4</ele>
        <time>2025-10-26T09:23:57Z</time>
      </trkpt>
      <trkpt lat="43.51227" lon="6.67956">
        <ele>126.3</ele>
        <time>2025-10-26T09:23:58Z</time>
      </trkpt>
      <trkpt lat="43.51227" lon="6.67956">
        <ele>126.2</ele>
        <time>2025-10-26T09:23:59Z</time>
      </trkpt>
      <trkpt lat="43.51227" lon="6.67955">
        <ele>126.2</ele>
        <time>2025-10-26T09:24:00Z</time>
      </trkpt>
      <trkpt lat="43.51227" lon="6.67955">
        <ele>126.1</ele>
        <time>2025-10-26T09:24:01Z</time>
      </trkpt>
      <trkpt lat="43.51227" lon="6.67955">
        <ele>126.1</ele>
        <time>2025-10-26T09:24:02Z</time>
      </trkpt>
      <trkpt lat="43.51227" lon="6.67956">
        <ele>126.1</ele>
        <time>2025-10-26T09:24:03Z</time>
      </trkpt>
      <trkpt lat="43.51227" lon="6.67956">
        <ele>126.1</ele>
        <time>2025-10-26T09:24:04Z</time>
      </trkpt>
      <trkpt lat="43.51226" lon="6.67956">
        <ele>126.1</ele>
        <time>2025-10-26T09:24:05Z</time>
      </trkpt>
      <trkpt lat="43.51226" lon="6.67956">
        <ele>126.1</ele>
        <time>2025-10-26T09:24:06Z</time>
      </trkpt>
      <trkpt lat="43.51226" lon="6.67956">
        <ele>126.1</ele>
        <time>2025-10-26T09:24:07Z</time>
      </trkpt>
      <trkpt lat="43.51227" lon="6.67956">
        <ele>126.1</ele>
        <time>2025-10-26T09:24:08Z</time>
      </trkpt>
      <trkpt lat="43.51227" lon="6.67956">
        <ele>126.1</ele>
        <time>2025-10-26T09:24:09Z</time>
      </trkpt>
      <trkpt lat="43.51227" lon="6.67956">
        <ele>126</ele>
        <time>2025-10-26T09:24:10Z</time>
      </trkpt>
      <trkpt lat="43.51227" lon="6.67955">
        <ele>125.9</ele>
        <time>2025-10-26T09:24:11Z</time>
      </trkpt>
      <trkpt lat="43.51227" lon="6.67956">
        <ele>125.8</ele>
        <time>2025-10-26T09:24:12Z</time>
      </trkpt>
      <trkpt lat="43.51227" lon="6.67955">
        <ele>125.7</ele>
        <time>2025-10-26T09:24:13Z</time>
      </trkpt>
      <trkpt lat="43.51227" lon="6.67955">
        <ele>125.6</ele>
        <time>2025-10-26T09:24:14Z</time>
      </trkpt>
      <trkpt lat="43.51227" lon="6.67955">
        <ele>125.5</ele>
        <time>2025-10-26T09:24:15Z</time>
      </trkpt>
      <trkpt lat="43.51227" lon="6.67955">
        <ele>125.5</ele>
        <time>2025-10-26T09:24:16Z</time>
      </trkpt>
      <trkpt lat="43.51227" lon="6.67955">
        <ele>125.5</ele>
        <time>2025-10-26T09:24:17Z</time>
      </trkpt>
      <trkpt lat="43.51227" lon="6.67955">
        <ele>125.5</ele>
        <time>2025-10-26T09:24:18Z</time>
      </trkpt>
      <trkpt lat="43.51227" lon="6.67954">
        <ele>125.6</ele>
        <time>2025-10-26T09:24:19Z</time>
      </trkpt>
      <trkpt lat="43.51228" lon="6.67954">
        <ele>125.7</ele>
        <time>2025-10-26T09:24:20Z</time>
      </trkpt>
      <trkpt lat="43.51228" lon="6.67954">
        <ele>125.8</ele>
        <time>2025-10-26T09:24:21Z</time>
      </trkpt>
      <trkpt lat="43.51228" lon="6.67954">
        <ele>125.9</ele>
        <time>2025-10-26T09:24:22Z</time>
      </trkpt>
      <trkpt lat="43.51228" lon="6.67954">
        <ele>126</ele>
        <time>2025-10-26T09:24:23Z</time>
      </trkpt>
      <trkpt lat="43.51228" lon="6.67954">
        <ele>126.1</ele>
        <time>2025-10-26T09:24:24Z</time>
      </trkpt>
      <trkpt lat="43.51228" lon="6.67953">
        <ele>126.1</ele>
        <time>2025-10-26T09:24:25Z</time>
      </trkpt>
      <trkpt lat="43.51228" lon="6.67953">
        <ele>126.2</ele>
        <time>2025-10-26T09:24:26Z</time>
      </trkpt>
      <trkpt lat="43.51228" lon="6.67953">
        <ele>126.3</ele>
        <time>2025-10-26T09:24:27Z</time>
      </trkpt>
      <trkpt lat="43.51228" lon="6.67953">
        <ele>126.4</ele>
        <time>2025-10-26T09:24:28Z</time>
      </trkpt>
      <trkpt lat="43.51228" lon="6.67953">
        <ele>126.4</ele>
        <time>2025-10-26T09:24:29Z</time>
      </trkpt>
      <trkpt lat="43.51228" lon="6.67953">
        <ele>126.5</ele>
        <time>2025-10-26T09:24:30Z</time>
      </trkpt>
      <trkpt lat="43.51228" lon="6.67953">
        <ele>126.5</ele>
        <time>2025-10-26T09:24:31Z</time>
      </trkpt>
      <trkpt lat="43.51228" lon="6.67953">
        <ele>126.5</ele>
        <time>2025-10-26T09:24:32Z</time>
      </trkpt>
      <trkpt lat="43.51228" lon="6.67953">
        <ele>126.5</ele>
        <time>2025-10-26T09:24:33Z</time>
      </trkpt>
      <trkpt lat="43.51228" lon="6.67953">
        <ele>126.5</ele>
        <time>2025-10-26T09:24:34Z</time>
      </trkpt>
      <trkpt lat="43.51228" lon="6.67953">
        <ele>126.4</ele>
        <time>2025-10-26T09:24:35Z</time>
      </trkpt>
      <trkpt lat="43.51228" lon="6.67953">
        <ele>126.4</ele>
        <time>2025-10-26T09:24:36Z</time>
      </trkpt>
      <trkpt lat="43.51228" lon="6.67953">
        <ele>126.4</ele>
        <time>2025-10-26T09:24:37Z</time>
      </trkpt>
      <trkpt lat="43.51228" lon="6.67953">
        <ele>126.3</ele>
        <time>2025-10-26T09:24:38Z</time>
      </trkpt>
      <trkpt lat="43.51228" lon="6.67952">
        <ele>126.3</ele>
        <time>2025-10-26T09:24:39Z</time>
      </trkpt>
      <trkpt lat="43.51228" lon="6.67952">
        <ele>126.4</ele>
        <time>2025-10-26T09:24:40Z</time>
      </trkpt>
      <trkpt lat="43.51229" lon="6.67952">
        <ele>126.2</ele>
        <time>2025-10-26T09:24:41Z</time>
      </trkpt>
      <trkpt lat="43.51229" lon="6.67952">
        <ele>126.2</ele>
        <time>2025-10-26T09:24:42Z</time>
      </trkpt>
      <trkpt lat="43.51229" lon="6.67952">
        <ele>126.1</ele>
        <time>2025-10-26T09:24:43Z</time>
      </trkpt>
      <trkpt lat="43.51229" lon="6.67953">
        <ele>126</ele>
        <time>2025-10-26T09:24:44Z</time>
      </trkpt>
      <trkpt lat="43.51229" lon="6.67953">
        <ele>126</ele>
        <time>2025-10-26T09:24:45Z</time>
      </trkpt>
      <trkpt lat="43.51229" lon="6.67953">
        <ele>125.9</ele>
        <time>2025-10-26T09:24:46Z</time>
      </trkpt>
      <trkpt lat="43.51229" lon="6.67954">
        <ele>125.9</ele>
        <time>2025-10-26T09:24:47Z</time>
      </trkpt>
      <trkpt lat="43.51229" lon="6.67954">
        <ele>125.9</ele>
        <time>2025-10-26T09:24:48Z</time>
      </trkpt>
      <trkpt lat="43.51229" lon="6.67954">
        <ele>126</ele>
        <time>2025-10-26T09:24:49Z</time>
      </trkpt>
      <trkpt lat="43.51229" lon="6.67954">
        <ele>125.9</ele>
        <time>2025-10-26T09:24:50Z</time>
      </trkpt>
      <trkpt lat="43.51228" lon="6.67954">
        <ele>125.8</ele>
        <time>2025-10-26T09:24:51Z</time>
      </trkpt>
      <trkpt lat="43.51228" lon="6.67954">
        <ele>125.8</ele>
        <time>2025-10-26T09:24:52Z</time>
      </trkpt>
      <trkpt lat="43.51228" lon="6.67955">
        <ele>125.8</ele>
        <time>2025-10-26T09:24:53Z</time>
      </trkpt>
      <trkpt lat="43.51228" lon="6.67955">
        <ele>125.9</ele>
        <time>2025-10-26T09:24:54Z</time>
      </trkpt>
      <trkpt lat="43.51228" lon="6.67955">
        <ele>125.9</ele>
        <time>2025-10-26T09:24:55Z</time>
      </trkpt>
      <trkpt lat="43.51228" lon="6.67954">
        <ele>126</ele>
        <time>2025-10-26T09:24:56Z</time>
      </trkpt>
      <trkpt lat="43.51228" lon="6.67954">
        <ele>126</ele>
        <time>2025-10-26T09:24:57Z</time>
      </trkpt>
      <trkpt lat="43.51228" lon="6.67954">
        <ele>126.1</ele>
        <time>2025-10-26T09:24:58Z</time>
      </trkpt>
      <trkpt lat="43.51227" lon="6.67955">
        <ele>126</ele>
        <time>2025-10-26T09:24:59Z</time>
      </trkpt>
      <trkpt lat="43.51227" lon="6.67955">
        <ele>126</ele>
        <time>2025-10-26T09:25:00Z</time>
      </trkpt>
      <trkpt lat="43.51228" lon="6.67956">
        <ele>125.9</ele>
        <time>2025-10-26T09:25:01Z</time>
      </trkpt>
      <trkpt lat="43.51227" lon="6.67958">
        <ele>125.9</ele>
        <time>2025-10-26T09:25:02Z</time>
      </trkpt>
      <trkpt lat="43.51227" lon="6.67959">
        <ele>125.9</ele>
        <time>2025-10-26T09:25:03Z</time>
      </trkpt>
      <trkpt lat="43.51227" lon="6.67959">
        <ele>125.8</ele>
        <time>2025-10-26T09:25:04Z</time>
      </trkpt>
      <trkpt lat="43.51226" lon="6.67959">
        <ele>125.8</ele>
        <time>2025-10-26T09:25:05Z</time>
      </trkpt>
      <trkpt lat="43.51226" lon="6.6796">
        <ele>125.9</ele>
        <time>2025-10-26T09:25:06Z</time>
      </trkpt>
      <trkpt lat="43.51226" lon="6.6796">
        <ele>125.9</ele>
        <time>2025-10-26T09:25:07Z</time>
      </trkpt>
      <trkpt lat="43.51226" lon="6.6796">
        <ele>125.9</ele>
        <time>2025-10-26T09:25:08Z</time>
      </trkpt>
      <trkpt lat="43.51226" lon="6.6796">
        <ele>125.9</ele>
        <time>2025-10-26T09:25:09Z</time>
      </trkpt>
      <trkpt lat="43.51227" lon="6.6796">
        <ele>126</ele>
        <time>2025-10-26T09:25:10Z</time>
      </trkpt>
      <trkpt lat="43.51226" lon="6.6796">
        <ele>126.1</ele>
        <time>2025-10-26T09:25:11Z</time>
      </trkpt>
      <trkpt lat="43.51226" lon="6.6796">
        <ele>126.2</ele>
        <time>2025-10-26T09:25:12Z</time>
      </trkpt>
      <trkpt lat="43.51226" lon="6.6796">
        <ele>126.2</ele>
        <time>2025-10-26T09:25:13Z</time>
      </trkpt>
      <trkpt lat="43.51226" lon="6.6796">
        <ele>126.2</ele>
        <time>2025-10-26T09:25:14Z</time>
      </trkpt>
      <trkpt lat="43.51226" lon="6.67961">
        <ele>126.2</ele>
        <time>2025-10-26T09:25:15Z</time>
      </trkpt>
      <trkpt lat="43.51226" lon="6.67961">
        <ele>126.1</ele>
        <time>2025-10-26T09:25:16Z</time>
      </trkpt>
      <trkpt lat="43.51226" lon="6.67961">
        <ele>126.2</ele>
        <time>2025-10-26T09:25:17Z</time>
      </trkpt>
      <trkpt lat="43.51226" lon="6.67961">
        <ele>126.1</ele>
        <time>2025-10-26T09:25:18Z</time>
      </trkpt>
      <trkpt lat="43.51226" lon="6.67961">
        <ele>126.1</ele>
        <time>2025-10-26T09:25:19Z</time>
      </trkpt>
      <trkpt lat="43.51226" lon="6.67961">
        <ele>126.1</ele>
        <time>2025-10-26T09:25:20Z</time>
      </trkpt>
      <trkpt lat="43.51226" lon="6.67961">
        <ele>126.1</ele>
        <time>2025-10-26T09:25:21Z</time>
      </trkpt>
      <trkpt lat="43.51226" lon="6.67961">
        <ele>126</ele>
        <time>2025-10-26T09:25:22Z</time>
      </trkpt>
      <trkpt lat="43.51227" lon="6.67962">
        <ele>126</ele>
        <time>2025-10-26T09:25:23Z</time>
      </trkpt>
      <trkpt lat="43.51227" lon="6.67962">
        <ele>126</ele>
        <time>2025-10-26T09:25:24Z</time>
      </trkpt>
      <trkpt lat="43.51228" lon="6.67962">
        <ele>126.1</ele>
        <time>2025-10-26T09:25:25Z</time>
      </trkpt>
      <trkpt lat="43.51228" lon="6.67962">
        <ele>126.1</ele>
        <time>2025-10-26T09:25:26Z</time>
      </trkpt>
      <trkpt lat="43.51228" lon="6.67962">
        <ele>126</ele>
        <time>2025-10-26T09:25:27Z</time>
      </trkpt>
      <trkpt lat="43.51228" lon="6.67962">
        <ele>126</ele>
        <time>2025-10-26T09:25:28Z</time>
      </trkpt>
      <trkpt lat="43.51228" lon="6.67963">
        <ele>126</ele>
        <time>2025-10-26T09:25:29Z</time>
      </trkpt>
      <trkpt lat="43.51228" lon="6.67963">
        <ele>126</ele>
        <time>2025-10-26T09:25:30Z</time>
      </trkpt>
      <trkpt lat="43.51229" lon="6.67963">
        <ele>126</ele>
        <time>2025-10-26T09:25:31Z</time>
      </trkpt>
      <trkpt lat="43.51229" lon="6.67963">
        <ele>126</ele>
        <time>2025-10-26T09:25:32Z</time>
      </trkpt>
      <trkpt lat="43.51229" lon="6.67963">
        <ele>126.1</ele>
        <time>2025-10-26T09:25:33Z</time>
      </trkpt>
      <trkpt lat="43.51229" lon="6.67963">
        <ele>126.2</ele>
        <time>2025-10-26T09:25:34Z</time>
      </trkpt>
      <trkpt lat="43.51229" lon="6.67963">
        <ele>126.2</ele>
        <time>2025-10-26T09:25:35Z</time>
      </trkpt>
      <trkpt lat="43.51229" lon="6.67963">
        <ele>126.3</ele>
        <time>2025-10-26T09:25:36Z</time>
      </trkpt>
      <trkpt lat="43.51229" lon="6.67963">
        <ele>126.2</ele>
        <time>2025-10-26T09:25:37Z</time>
      </trkpt>
      <trkpt lat="43.51229" lon="6.67963">
        <ele>126.2</ele>
        <time>2025-10-26T09:25:38Z</time>
      </trkpt>
      <trkpt lat="43.5123" lon="6.67963">
        <ele>126.1</ele>
        <time>2025-10-26T09:25:39Z</time>
      </trkpt>
      <trkpt lat="43.5123" lon="6.67963">
        <ele>126.1</ele>
        <time>2025-10-26T09:25:40Z</time>
      </trkpt>
      <trkpt lat="43.5123" lon="6.67963">
        <ele>126</ele>
        <time>2025-10-26T09:25:41Z</time>
      </trkpt>
      <trkpt lat="43.5123" lon="6.67964">
        <ele>126.1</ele>
        <time>2025-10-26T09:25:42Z</time>
      </trkpt>
      <trkpt lat="43.5123" lon="6.67964">
        <ele>126.1</ele>
        <time>2025-10-26T09:25:43Z</time>
      </trkpt>
      <trkpt lat="43.5123" lon="6.67964">
        <ele>126.1</ele>
        <time>2025-10-26T09:25:44Z</time>
      </trkpt>
      <trkpt lat="43.5123" lon="6.67964">
        <ele>126</ele>
        <time>2025-10-26T09:25:45Z</time>
      </trkpt>
      <trkpt lat="43.5123" lon="6.67964">
        <ele>126</ele>
        <time>2025-10-26T09:25:46Z</time>
      </trkpt>
      <trkpt lat="43.5123" lon="6.67964">
        <ele>126</ele>
        <time>2025-10-26T09:25:47Z</time>
      </trkpt>
      <trkpt lat="43.5123" lon="6.67964">
        <ele>126</ele>
        <time>2025-10-26T09:25:48Z</time>
      </trkpt>
      <trkpt lat="43.5123" lon="6.67964">
        <ele>126.1</ele>
        <time>2025-10-26T09:25:49Z</time>
      </trkpt>
      <trkpt lat="43.5123" lon="6.67963">
        <ele>126.1</ele>
        <time>2025-10-26T09:25:50Z</time>
      </trkpt>
      <trkpt lat="43.5123" lon="6.67963">
        <ele>126.1</ele>
        <time>2025-10-26T09:25:51Z</time>
      </trkpt>
      <trkpt lat="43.5123" lon="6.67963">
        <ele>126.2</ele>
        <time>2025-10-26T09:25:52Z</time>
      </trkpt>
      <trkpt lat="43.5123" lon="6.67963">
        <ele>126.2</ele>
        <time>2025-10-26T09:25:53Z</time>
      </trkpt>
      <trkpt lat="43.5123" lon="6.67963">
        <ele>126.2</ele>
        <time>2025-10-26T09:25:54Z</time>
      </trkpt>
      <trkpt lat="43.5123" lon="6.67963">
        <ele>126.3</ele>
        <time>2025-10-26T09:25:55Z</time>
      </trkpt>
      <trkpt lat="43.51229" lon="6.67962">
        <ele>126.3</ele>
        <time>2025-10-26T09:25:56Z</time>
      </trkpt>
      <trkpt lat="43.51229" lon="6.67962">
        <ele>126.3</ele>
        <time>2025-10-26T09:25:57Z</time>
      </trkpt>
      <trkpt lat="43.51229" lon="6.67963">
        <ele>126.3</ele>
        <time>2025-10-26T09:25:58Z</time>
      </trkpt>
      <trkpt lat="43.51229" lon="6.67963">
        <ele>126.3</ele>
        <time>2025-10-26T09:25:59Z</time>
      </trkpt>
      <trkpt lat="43.51229" lon="6.67963">
        <ele>126.3</ele>
        <time>2025-10-26T09:26:00Z</time>
      </trkpt>
      <trkpt lat="43.51229" lon="6.67963">
        <ele>126.2</ele>
        <time>2025-10-26T09:26:01Z</time>
      </trkpt>
      <trkpt lat="43.51229" lon="6.67963">
        <ele>126.1</ele>
        <time>2025-10-26T09:26:02Z</time>
      </trkpt>
      <trkpt lat="43.51229" lon="6.67963">
        <ele>126.1</ele>
        <time>2025-10-26T09:26:03Z</time>
      </trkpt>
      <trkpt lat="43.5123" lon="6.67963">
        <ele>126</ele>
        <time>2025-10-26T09:26:04Z</time>
      </trkpt>
      <trkpt lat="43.5123" lon="6.67963">
        <ele>125.9</ele>
        <time>2025-10-26T09:26:05Z</time>
      </trkpt>
      <trkpt lat="43.5123" lon="6.67963">
        <ele>125.9</ele>
        <time>2025-10-26T09:26:06Z</time>
      </trkpt>
      <trkpt lat="43.5123" lon="6.67963">
        <ele>125.9</ele>
        <time>2025-10-26T09:26:07Z</time>
      </trkpt>
      <trkpt lat="43.51231" lon="6.67964">
        <ele>125.8</ele>
        <time>2025-10-26T09:26:08Z</time>
      </trkpt>
      <trkpt lat="43.51231" lon="6.67964">
        <ele>125.7</ele>
        <time>2025-10-26T09:26:09Z</time>
      </trkpt>
      <trkpt lat="43.51231" lon="6.67964">
        <ele>125.6</ele>
        <time>2025-10-26T09:26:10Z</time>
      </trkpt>
      <trkpt lat="43.5123" lon="6.67964">
        <ele>125.6</ele>
        <time>2025-10-26T09:26:11Z</time>
      </trkpt>
      <trkpt lat="43.5123" lon="6.67963">
        <ele>125.6</ele>
        <time>2025-10-26T09:26:12Z</time>
      </trkpt>
      <trkpt lat="43.51231" lon="6.67963">
        <ele>125.5</ele>
        <time>2025-10-26T09:26:13Z</time>
      </trkpt>
      <trkpt lat="43.51231" lon="6.67963">
        <ele>125.5</ele>
        <time>2025-10-26T09:26:14Z</time>
      </trkpt>
      <trkpt lat="43.51231" lon="6.67963">
        <ele>125.5</ele>
        <time>2025-10-26T09:26:15Z</time>
      </trkpt>
      <trkpt lat="43.51231" lon="6.67963">
        <ele>125.5</ele>
        <time>2025-10-26T09:26:16Z</time>
      </trkpt>
      <trkpt lat="43.51231" lon="6.67963">
        <ele>125.5</ele>
        <time>2025-10-26T09:26:17Z</time>
      </trkpt>
      <trkpt lat="43.51231" lon="6.67963">
        <ele>125.5</ele>
        <time>2025-10-26T09:26:18Z</time>
      </trkpt>
      <trkpt lat="43.51231" lon="6.67964">
        <ele>125.5</ele>
        <time>2025-10-26T09:26:19Z</time>
      </trkpt>
      <trkpt lat="43.51231" lon="6.67964">
        <ele>125.5</ele>
        <time>2025-10-26T09:26:20Z</time>
      </trkpt>
      <trkpt lat="43.51231" lon="6.67964">
        <ele>125.5</ele>
        <time>2025-10-26T09:26:21Z</time>
      </trkpt>
      <trkpt lat="43.51231" lon="6.67964">
        <ele>125.6</ele>
        <time>2025-10-26T09:26:22Z</time>
      </trkpt>
      <trkpt lat="43.51231" lon="6.67964">
        <ele>125.7</ele>
        <time>2025-10-26T09:26:23Z</time>
      </trkpt>
      <trkpt lat="43.51231" lon="6.67964">
        <ele>125.8</ele>
        <time>2025-10-26T09:26:24Z</time>
      </trkpt>
      <trkpt lat="43.51231" lon="6.67964">
        <ele>125.8</ele>
        <time>2025-10-26T09:26:25Z</time>
      </trkpt>
      <trkpt lat="43.51231" lon="6.67964">
        <ele>125.8</ele>
        <time>2025-10-26T09:26:26Z</time>
      </trkpt>
      <trkpt lat="43.51231" lon="6.67964">
        <ele>125.9</ele>
        <time>2025-10-26T09:26:27Z</time>
      </trkpt>
      <trkpt lat="43.51231" lon="6.67964">
        <ele>125.9</ele>
        <time>2025-10-26T09:26:28Z</time>
      </trkpt>
      <trkpt lat="43.51231" lon="6.67964">
        <ele>125.9</ele>
        <time>2025-10-26T09:26:29Z</time>
      </trkpt>
      <trkpt lat="43.51232" lon="6.67964">
        <ele>125.9</ele>
        <time>2025-10-26T09:26:30Z</time>
      </trkpt>
      <trkpt lat="43.51232" lon="6.67964">
        <ele>125.9</ele>
        <time>2025-10-26T09:26:31Z</time>
      </trkpt>
      <trkpt lat="43.51232" lon="6.67964">
        <ele>125.9</ele>
        <time>2025-10-26T09:26:32Z</time>
      </trkpt>
      <trkpt lat="43.51232" lon="6.67964">
        <ele>125.9</ele>
        <time>2025-10-26T09:26:33Z</time>
      </trkpt>
      <trkpt lat="43.51232" lon="6.67964">
        <ele>126</ele>
        <time>2025-10-26T09:26:34Z</time>
      </trkpt>
      <trkpt lat="43.51232" lon="6.67964">
        <ele>126</ele>
        <time>2025-10-26T09:26:35Z</time>
      </trkpt>
      <trkpt lat="43.51232" lon="6.67965">
        <ele>126</ele>
        <time>2025-10-26T09:26:36Z</time>
      </trkpt>
      <trkpt lat="43.51232" lon="6.67965">
        <ele>125.9</ele>
        <time>2025-10-26T09:26:37Z</time>
      </trkpt>
      <trkpt lat="43.51232" lon="6.67965">
        <ele>125.9</ele>
        <time>2025-10-26T09:26:38Z</time>
      </trkpt>
      <trkpt lat="43.51231" lon="6.67965">
        <ele>126</ele>
        <time>2025-10-26T09:26:39Z</time>
      </trkpt>
      <trkpt lat="43.51231" lon="6.67965">
        <ele>126</ele>
        <time>2025-10-26T09:26:40Z</time>
      </trkpt>
      <trkpt lat="43.51231" lon="6.67965">
        <ele>126.1</ele>
        <time>2025-10-26T09:26:41Z</time>
      </trkpt>
      <trkpt lat="43.51232" lon="6.67965">
        <ele>126.1</ele>
        <time>2025-10-26T09:26:42Z</time>
      </trkpt>
      <trkpt lat="43.51231" lon="6.67965">
        <ele>126.1</ele>
        <time>2025-10-26T09:26:43Z</time>
      </trkpt>
      <trkpt lat="43.51231" lon="6.67964">
        <ele>126.1</ele>
        <time>2025-10-26T09:26:44Z</time>
      </trkpt>
      <trkpt lat="43.51231" lon="6.67964">
        <ele>126.1</ele>
        <time>2025-10-26T09:26:45Z</time>
      </trkpt>
      <trkpt lat="43.51231" lon="6.67964">
        <ele>126.1</ele>
        <time>2025-10-26T09:26:46Z</time>
      </trkpt>
      <trkpt lat="43.51231" lon="6.67964">
        <ele>126.1</ele>
        <time>2025-10-26T09:26:47Z</time>
      </trkpt>
      <trkpt lat="43.51231" lon="6.67964">
        <ele>126.1</ele>
        <time>2025-10-26T09:26:48Z</time>
      </trkpt>
      <trkpt lat="43.51231" lon="6.67964">
        <ele>126</ele>
        <time>2025-10-26T09:26:49Z</time>
      </trkpt>
      <trkpt lat="43.51231" lon="6.67964">
        <ele>125.9</ele>
        <time>2025-10-26T09:26:50Z</time>
      </trkpt>
      <trkpt lat="43.51231" lon="6.67964">
        <ele>125.9</ele>
        <time>2025-10-26T09:26:51Z</time>
      </trkpt>
      <trkpt lat="43.51231" lon="6.67964">
        <ele>125.8</ele>
        <time>2025-10-26T09:26:52Z</time>
      </trkpt>
      <trkpt lat="43.51231" lon="6.67964">
        <ele>125.8</ele>
        <time>2025-10-26T09:26:53Z</time>
      </trkpt>
      <trkpt lat="43.51231" lon="6.67964">
        <ele>125.8</ele>
        <time>2025-10-26T09:26:54Z</time>
      </trkpt>
      <trkpt lat="43.51231" lon="6.67963">
        <ele>125.8</ele>
        <time>2025-10-26T09:26:55Z</time>
      </trkpt>
      <trkpt lat="43.51231" lon="6.67963">
        <ele>125.9</ele>
        <time>2025-10-26T09:26:56Z</time>
      </trkpt>
      <trkpt lat="43.5123" lon="6.67963">
        <ele>126</ele>
        <time>2025-10-26T09:26:57Z</time>
      </trkpt>
      <trkpt lat="43.5123" lon="6.67963">
        <ele>126</ele>
        <time>2025-10-26T09:26:58Z</time>
      </trkpt>
      <trkpt lat="43.5123" lon="6.67963">
        <ele>126</ele>
        <time>2025-10-26T09:26:59Z</time>
      </trkpt>
      <trkpt lat="43.51229" lon="6.67964">
        <ele>126</ele>
        <time>2025-10-26T09:27:00Z</time>
      </trkpt>
      <trkpt lat="43.51229" lon="6.67964">
        <ele>125.9</ele>
        <time>2025-10-26T09:27:01Z</time>
      </trkpt>
      <trkpt lat="43.51229" lon="6.67965">
        <ele>125.7</ele>
        <time>2025-10-26T09:27:02Z</time>
      </trkpt>
      <trkpt lat="43.51228" lon="6.67965">
        <ele>125.6</ele>
        <time>2025-10-26T09:27:03Z</time>
      </trkpt>
      <trkpt lat="43.51227" lon="6.67966">
        <ele>125.6</ele>
        <time>2025-10-26T09:27:04Z</time>
      </trkpt>
      <trkpt lat="43.51227" lon="6.67966">
        <ele>125.5</ele>
        <time>2025-10-26T09:27:05Z</time>
      </trkpt>
      <trkpt lat="43.51227" lon="6.67967">
        <ele>125.5</ele>
        <time>2025-10-26T09:27:06Z</time>
      </trkpt>
      <trkpt lat="43.51226" lon="6.67967">
        <ele>125.5</ele>
        <time>2025-10-26T09:27:07Z</time>
      </trkpt>
      <trkpt lat="43.51225" lon="6.67967">
        <ele>125.7</ele>
        <time>2025-10-26T09:27:08Z</time>
      </trkpt>
      <trkpt lat="43.51225" lon="6.67967">
        <ele>125.9</ele>
        <time>2025-10-26T09:27:09Z</time>
      </trkpt>
      <trkpt lat="43.51225" lon="6.67967">
        <ele>126</ele>
        <time>2025-10-26T09:27:10Z</time>
      </trkpt>
      <trkpt lat="43.51224" lon="6.67967">
        <ele>126</ele>
        <time>2025-10-26T09:27:11Z</time>
      </trkpt>
      <trkpt lat="43.51223" lon="6.67967">
        <ele>126</ele>
        <time>2025-10-26T09:27:12Z</time>
      </trkpt>
      <trkpt lat="43.51222" lon="6.67966">
        <ele>126.1</ele>
        <time>2025-10-26T09:27:13Z</time>
      </trkpt>
      <trkpt lat="43.51221" lon="6.67966">
        <ele>126.1</ele>
        <time>2025-10-26T09:27:14Z</time>
      </trkpt>
      <trkpt lat="43.5122" lon="6.67966">
        <ele>126.3</ele>
        <time>2025-10-26T09:27:15Z</time>
      </trkpt>
      <trkpt lat="43.5122" lon="6.67965">
        <ele>126.4</ele>
        <time>2025-10-26T09:27:16Z</time>
      </trkpt>
      <trkpt lat="43.51219" lon="6.67965">
        <ele>126.5</ele>
        <time>2025-10-26T09:27:17Z</time>
      </trkpt>
      <trkpt lat="43.51218" lon="6.67965">
        <ele>126.5</ele>
        <time>2025-10-26T09:27:18Z</time>
      </trkpt>
      <trkpt lat="43.51217" lon="6.67964">
        <ele>126.6</ele>
        <time>2025-10-26T09:27:19Z</time>
      </trkpt>
      <trkpt lat="43.51217" lon="6.67963">
        <ele>126.7</ele>
        <time>2025-10-26T09:27:20Z</time>
      </trkpt>
      <trkpt lat="43.51216" lon="6.67963">
        <ele>126.9</ele>
        <time>2025-10-26T09:27:21Z</time>
      </trkpt>
      <trkpt lat="43.51215" lon="6.67962">
        <ele>127</ele>
        <time>2025-10-26T09:27:22Z</time>
      </trkpt>
      <trkpt lat="43.51214" lon="6.67962">
        <ele>127.1</ele>
        <time>2025-10-26T09:27:23Z</time>
      </trkpt>
      <trkpt lat="43.51214" lon="6.67962">
        <ele>127.2</ele>
        <time>2025-10-26T09:27:24Z</time>
      </trkpt>
      <trkpt lat="43.51213" lon="6.67961">
        <ele>127.4</ele>
        <time>2025-10-26T09:27:25Z</time>
      </trkpt>
      <trkpt lat="43.51212" lon="6.67961">
        <ele>127.5</ele>
        <time>2025-10-26T09:27:26Z</time>
      </trkpt>
      <trkpt lat="43.51211" lon="6.67961">
        <ele>127.8</ele>
        <time>2025-10-26T09:27:27Z</time>
      </trkpt>
      <trkpt lat="43.5121" lon="6.67961">
        <ele>127.9</ele>
        <time>2025-10-26T09:27:28Z</time>
      </trkpt>
      <trkpt lat="43.51209" lon="6.6796">
        <ele>128.1</ele>
        <time>2025-10-26T09:27:29Z</time>
      </trkpt>
      <trkpt lat="43.51208" lon="6.6796">
        <ele>128.3</ele>
        <time>2025-10-26T09:27:30Z</time>
      </trkpt>
      <trkpt lat="43.51208" lon="6.6796">
        <ele>128.5</ele>
        <time>2025-10-26T09:27:31Z</time>
      </trkpt>
      <trkpt lat="43.51207" lon="6.6796">
        <ele>128.6</ele>
        <time>2025-10-26T09:27:32Z</time>
      </trkpt>
      <trkpt lat="43.51206" lon="6.6796">
        <ele>128.8</ele>
        <time>2025-10-26T09:27:33Z</time>
      </trkpt>
      <trkpt lat="43.51205" lon="6.6796">
        <ele>128.9</ele>
        <time>2025-10-26T09:27:34Z</time>
      </trkpt>
      <trkpt lat="43.51204" lon="6.6796">
        <ele>129.2</ele>
        <time>2025-10-26T09:27:35Z</time>
      </trkpt>
      <trkpt lat="43.51203" lon="6.6796">
        <ele>129.3</ele>
        <time>2025-10-26T09:27:36Z</time>
      </trkpt>
      <trkpt lat="43.51202" lon="6.6796">
        <ele>129.5</ele>
        <time>2025-10-26T09:27:37Z</time>
      </trkpt>
      <trkpt lat="43.51201" lon="6.67961">
        <ele>129.7</ele>
        <time>2025-10-26T09:27:38Z</time>
      </trkpt>
      <trkpt lat="43.512" lon="6.67961">
        <ele>129.9</ele>
        <time>2025-10-26T09:27:39Z</time>
      </trkpt>
      <trkpt lat="43.51198" lon="6.67962">
        <ele>130.1</ele>
        <time>2025-10-26T09:27:40Z</time>
      </trkpt>
      <trkpt lat="43.51197" lon="6.67962">
        <ele>130.2</ele>
        <time>2025-10-26T09:27:41Z</time>
      </trkpt>
      <trkpt lat="43.51196" lon="6.67962">
        <ele>130.3</ele>
        <time>2025-10-26T09:27:42Z</time>
      </trkpt>
      <trkpt lat="43.51195" lon="6.67963">
        <ele>130.3</ele>
        <time>2025-10-26T09:27:43Z</time>
      </trkpt>
      <trkpt lat="43.51194" lon="6.67963">
        <ele>130.4</ele>
        <time>2025-10-26T09:27:44Z</time>
      </trkpt>
      <trkpt lat="43.51193" lon="6.67963">
        <ele>130.3</ele>
        <time>2025-10-26T09:27:45Z</time>
      </trkpt>
      <trkpt lat="43.51192" lon="6.67964">
        <ele>130.4</ele>
        <time>2025-10-26T09:27:46Z</time>
      </trkpt>
      <trkpt lat="43.51191" lon="6.67965">
        <ele>130.5</ele>
        <time>2025-10-26T09:27:47Z</time>
      </trkpt>
      <trkpt lat="43.51191" lon="6.67966">
        <ele>130.5</ele>
        <time>2025-10-26T09:27:48Z</time>
      </trkpt>
      <trkpt lat="43.5119" lon="6.67967">
        <ele>130.4</ele>
        <time>2025-10-26T09:27:49Z</time>
      </trkpt>
      <trkpt lat="43.5119" lon="6.67969">
        <ele>130.4</ele>
        <time>2025-10-26T09:27:50Z</time>
      </trkpt>
      <trkpt lat="43.5119" lon="6.6797">
        <ele>130.4</ele>
        <time>2025-10-26T09:27:51Z</time>
      </trkpt>
      <trkpt lat="43.5119" lon="6.67972">
        <ele>130.4</ele>
        <time>2025-10-26T09:27:52Z</time>
      </trkpt>
      <trkpt lat="43.51191" lon="6.67974">
        <ele>130.3</ele>
        <time>2025-10-26T09:27:53Z</time>
      </trkpt>
      <trkpt lat="43.51191" lon="6.67975">
        <ele>130.4</ele>
        <time>2025-10-26T09:27:54Z</time>
      </trkpt>
      <trkpt lat="43.51192" lon="6.67976">
        <ele>130.5</ele>
        <time>2025-10-26T09:27:55Z</time>
      </trkpt>
      <trkpt lat="43.51193" lon="6.67978">
        <ele>130.5</ele>
        <time>2025-10-26T09:27:56Z</time>
      </trkpt>
      <trkpt lat="43.51193" lon="6.67979">
        <ele>130.5</ele>
        <time>2025-10-26T09:27:57Z</time>
      </trkpt>
      <trkpt lat="43.51194" lon="6.6798">
        <ele>130.5</ele>
        <time>2025-10-26T09:27:58Z</time>
      </trkpt>
      <trkpt lat="43.51194" lon="6.67981">
        <ele>130.6</ele>
        <time>2025-10-26T09:27:59Z</time>
      </trkpt>
      <trkpt lat="43.51195" lon="6.67982">
        <ele>130.6</ele>
        <time>2025-10-26T09:28:00Z</time>
      </trkpt>
      <trkpt lat="43.51196" lon="6.67983">
        <ele>130.8</ele>
        <time>2025-10-26T09:28:01Z</time>
      </trkpt>
      <trkpt lat="43.51195" lon="6.67984">
        <ele>130.9</ele>
        <time>2025-10-26T09:28:02Z</time>
      </trkpt>
      <trkpt lat="43.51196" lon="6.67985">
        <ele>131</ele>
        <time>2025-10-26T09:28:03Z</time>
      </trkpt>
      <trkpt lat="43.51197" lon="6.67986">
        <ele>131.1</ele>
        <time>2025-10-26T09:28:04Z</time>
      </trkpt>
      <trkpt lat="43.51198" lon="6.67987">
        <ele>131.1</ele>
        <time>2025-10-26T09:28:05Z</time>
      </trkpt>
      <trkpt lat="43.51198" lon="6.67988">
        <ele>131.1</ele>
        <time>2025-10-26T09:28:06Z</time>
      </trkpt>
      <trkpt lat="43.51199" lon="6.6799">
        <ele>131.2</ele>
        <time>2025-10-26T09:28:07Z</time>
      </trkpt>
      <trkpt lat="43.512" lon="6.67991">
        <ele>131.3</ele>
        <time>2025-10-26T09:28:08Z</time>
      </trkpt>
      <trkpt lat="43.512" lon="6.67992">
        <ele>131.4</ele>
        <time>2025-10-26T09:28:09Z</time>
      </trkpt>
      <trkpt lat="43.512" lon="6.67993">
        <ele>131.4</ele>
        <time>2025-10-26T09:28:10Z</time>
      </trkpt>
      <trkpt lat="43.51201" lon="6.67994">
        <ele>131.3</ele>
        <time>2025-10-26T09:28:11Z</time>
      </trkpt>
      <trkpt lat="43.51201" lon="6.67994">
        <ele>131.3</ele>
        <time>2025-10-26T09:28:12Z</time>
      </trkpt>
      <trkpt lat="43.51202" lon="6.67995">
        <ele>131.4</ele>
        <time>2025-10-26T09:28:13Z</time>
      </trkpt>
      <trkpt lat="43.51201" lon="6.67995">
        <ele>131.6</ele>
        <time>2025-10-26T09:28:14Z</time>
      </trkpt>
      <trkpt lat="43.51202" lon="6.67998">
        <ele>131.7</ele>
        <time>2025-10-26T09:28:15Z</time>
      </trkpt>
      <trkpt lat="43.51202" lon="6.67999">
        <ele>131.8</ele>
        <time>2025-10-26T09:28:16Z</time>
      </trkpt>
      <trkpt lat="43.51203" lon="6.68">
        <ele>131.9</ele>
        <time>2025-10-26T09:28:17Z</time>
      </trkpt>
      <trkpt lat="43.51203" lon="6.68001">
        <ele>132</ele>
        <time>2025-10-26T09:28:18Z</time>
      </trkpt>
      <trkpt lat="43.51204" lon="6.68003">
        <ele>132.2</ele>
        <time>2025-10-26T09:28:19Z</time>
      </trkpt>
      <trkpt lat="43.51204" lon="6.68004">
        <ele>132.3</ele>
        <time>2025-10-26T09:28:20Z</time>
      </trkpt>
      <trkpt lat="43.51205" lon="6.68006">
        <ele>132.4</ele>
        <time>2025-10-26T09:28:21Z</time>
      </trkpt>
      <trkpt lat="43.51205" lon="6.68007">
        <ele>132.5</ele>
        <time>2025-10-26T09:28:22Z</time>
      </trkpt>
      <trkpt lat="43.51205" lon="6.68009">
        <ele>132.7</ele>
        <time>2025-10-26T09:28:23Z</time>
      </trkpt>
      <trkpt lat="43.51206" lon="6.6801">
        <ele>132.8</ele>
        <time>2025-10-26T09:28:24Z</time>
      </trkpt>
      <trkpt lat="43.51206" lon="6.68011">
        <ele>132.9</ele>
        <time>2025-10-26T09:28:25Z</time>
      </trkpt>
      <trkpt lat="43.51207" lon="6.68013">
        <ele>133</ele>
        <time>2025-10-26T09:28:26Z</time>
      </trkpt>
      <trkpt lat="43.51207" lon="6.68014">
        <ele>133.2</ele>
        <time>2025-10-26T09:28:27Z</time>
      </trkpt>
      <trkpt lat="43.51208" lon="6.68014">
        <ele>133.3</ele>
        <time>2025-10-26T09:28:28Z</time>
      </trkpt>
      <trkpt lat="43.51208" lon="6.68015">
        <ele>133.3</ele>
        <time>2025-10-26T09:28:29Z</time>
      </trkpt>
      <trkpt lat="43.51208" lon="6.68015">
        <ele>133.3</ele>
        <time>2025-10-26T09:28:30Z</time>
      </trkpt>
      <trkpt lat="43.51208" lon="6.68016">
        <ele>133.3</ele>
        <time>2025-10-26T09:28:31Z</time>
      </trkpt>
      <trkpt lat="43.51209" lon="6.68017">
        <ele>133.3</ele>
        <time>2025-10-26T09:28:32Z</time>
      </trkpt>
      <trkpt lat="43.51209" lon="6.68018">
        <ele>133.3</ele>
        <time>2025-10-26T09:28:33Z</time>
      </trkpt>
      <trkpt lat="43.51209" lon="6.68018">
        <ele>133.3</ele>
        <time>2025-10-26T09:28:34Z</time>
      </trkpt>
      <trkpt lat="43.51209" lon="6.68019">
        <ele>133.3</ele>
        <time>2025-10-26T09:28:35Z</time>
      </trkpt>
      <trkpt lat="43.51209" lon="6.6802">
        <ele>133.3</ele>
        <time>2025-10-26T09:28:36Z</time>
      </trkpt>
      <trkpt lat="43.51209" lon="6.68021">
        <ele>133.4</ele>
        <time>2025-10-26T09:28:37Z</time>
      </trkpt>
      <trkpt lat="43.51209" lon="6.68021">
        <ele>133.4</ele>
        <time>2025-10-26T09:28:38Z</time>
      </trkpt>
      <trkpt lat="43.51209" lon="6.68021">
        <ele>133.4</ele>
        <time>2025-10-26T09:28:39Z</time>
      </trkpt>
      <trkpt lat="43.51209" lon="6.68022">
        <ele>133.4</ele>
        <time>2025-10-26T09:28:40Z</time>
      </trkpt>
      <trkpt lat="43.51209" lon="6.68022">
        <ele>133.5</ele>
        <time>2025-10-26T09:28:41Z</time>
      </trkpt>
      <trkpt lat="43.51209" lon="6.68023">
        <ele>133.6</ele>
        <time>2025-10-26T09:28:42Z</time>
      </trkpt>
      <trkpt lat="43.51209" lon="6.68023">
        <ele>133.6</ele>
        <time>2025-10-26T09:28:43Z</time>
      </trkpt>
      <trkpt lat="43.51209" lon="6.68023">
        <ele>133.7</ele>
        <time>2025-10-26T09:28:44Z</time>
      </trkpt>
      <trkpt lat="43.51208" lon="6.68024">
        <ele>133.8</ele>
        <time>2025-10-26T09:28:45Z</time>
      </trkpt>
      <trkpt lat="43.51209" lon="6.68025">
        <ele>133.9</ele>
        <time>2025-10-26T09:28:46Z</time>
      </trkpt>
      <trkpt lat="43.51209" lon="6.68025">
        <ele>133.9</ele>
        <time>2025-10-26T09:28:47Z</time>
      </trkpt>
      <trkpt lat="43.51209" lon="6.68025">
        <ele>134</ele>
        <time>2025-10-26T09:28:48Z</time>
      </trkpt>
      <trkpt lat="43.51209" lon="6.68026">
        <ele>134.1</ele>
        <time>2025-10-26T09:28:49Z</time>
      </trkpt>
      <trkpt lat="43.51209" lon="6.68027">
        <ele>134.1</ele>
        <time>2025-10-26T09:28:50Z</time>
      </trkpt>
      <trkpt lat="43.51209" lon="6.68028">
        <ele>134.2</ele>
        <time>2025-10-26T09:28:51Z</time>
      </trkpt>
      <trkpt lat="43.51209" lon="6.6803">
        <ele>134.2</ele>
        <time>2025-10-26T09:28:52Z</time>
      </trkpt>
      <trkpt lat="43.5121" lon="6.68031">
        <ele>134.2</ele>
        <time>2025-10-26T09:28:53Z</time>
      </trkpt>
      <trkpt lat="43.5121" lon="6.68032">
        <ele>134.2</ele>
        <time>2025-10-26T09:28:54Z</time>
      </trkpt>
      <trkpt lat="43.51211" lon="6.68033">
        <ele>134.3</ele>
        <time>2025-10-26T09:28:55Z</time>
      </trkpt>
      <trkpt lat="43.5121" lon="6.68033">
        <ele>134.3</ele>
        <time>2025-10-26T09:28:56Z</time>
      </trkpt>
      <trkpt lat="43.51211" lon="6.68034">
        <ele>134.3</ele>
        <time>2025-10-26T09:28:57Z</time>
      </trkpt>
      <trkpt lat="43.51212" lon="6.68034">
        <ele>134.3</ele>
        <time>2025-10-26T09:28:58Z</time>
      </trkpt>
      <trkpt lat="43.51212" lon="6.68034">
        <ele>134.2</ele>
        <time>2025-10-26T09:28:59Z</time>
      </trkpt>
      <trkpt lat="43.51212" lon="6.68035">
        <ele>134.2</ele>
        <time>2025-10-26T09:29:00Z</time>
      </trkpt>
      <trkpt lat="43.51212" lon="6.68035">
        <ele>134.2</ele>
        <time>2025-10-26T09:29:01Z</time>
      </trkpt>
      <trkpt lat="43.51212" lon="6.68036">
        <ele>134.1</ele>
        <time>2025-10-26T09:29:02Z</time>
      </trkpt>
      <trkpt lat="43.51212" lon="6.68036">
        <ele>134.1</ele>
        <time>2025-10-26T09:29:03Z</time>
      </trkpt>
      <trkpt lat="43.51212" lon="6.68035">
        <ele>134.1</ele>
        <time>2025-10-26T09:29:04Z</time>
      </trkpt>
      <trkpt lat="43.51213" lon="6.68036">
        <ele>134.1</ele>
        <time>2025-10-26T09:29:05Z</time>
      </trkpt>
      <trkpt lat="43.51213" lon="6.68035">
        <ele>134.2</ele>
        <time>2025-10-26T09:29:06Z</time>
      </trkpt>
      <trkpt lat="43.51215" lon="6.68034">
        <ele>134.2</ele>
        <time>2025-10-26T09:29:07Z</time>
      </trkpt>
      <trkpt lat="43.51215" lon="6.68035">
        <ele>134.1</ele>
        <time>2025-10-26T09:29:08Z</time>
      </trkpt>
      <trkpt lat="43.51215" lon="6.68035">
        <ele>134.1</ele>
        <time>2025-10-26T09:29:09Z</time>
      </trkpt>
      <trkpt lat="43.51215" lon="6.68036">
        <ele>134</ele>
        <time>2025-10-26T09:29:10Z</time>
      </trkpt>
      <trkpt lat="43.51216" lon="6.68037">
        <ele>134</ele>
        <time>2025-10-26T09:29:11Z</time>
      </trkpt>
      <trkpt lat="43.51216" lon="6.68039">
        <ele>134</ele>
        <time>2025-10-26T09:29:12Z</time>
      </trkpt>
      <trkpt lat="43.51216" lon="6.6804">
        <ele>134</ele>
        <time>2025-10-26T09:29:13Z</time>
      </trkpt>
      <trkpt lat="43.51216" lon="6.68041">
        <ele>134</ele>
        <time>2025-10-26T09:29:14Z</time>
      </trkpt>
      <trkpt lat="43.51216" lon="6.68042">
        <ele>134.1</ele>
        <time>2025-10-26T09:29:15Z</time>
      </trkpt>
      <trkpt lat="43.51216" lon="6.68043">
        <ele>134.1</ele>
        <time>2025-10-26T09:29:16Z</time>
      </trkpt>
      <trkpt lat="43.51217" lon="6.68044">
        <ele>134.2</ele>
        <time>2025-10-26T09:29:17Z</time>
      </trkpt>
      <trkpt lat="43.51217" lon="6.68046">
        <ele>134.2</ele>
        <time>2025-10-26T09:29:18Z</time>
      </trkpt>
      <trkpt lat="43.51217" lon="6.68047">
        <ele>134.4</ele>
        <time>2025-10-26T09:29:19Z</time>
      </trkpt>
      <trkpt lat="43.51218" lon="6.68049">
        <ele>134.5</ele>
        <time>2025-10-26T09:29:20Z</time>
      </trkpt>
      <trkpt lat="43.51218" lon="6.6805">
        <ele>134.6</ele>
        <time>2025-10-26T09:29:21Z</time>
      </trkpt>
      <trkpt lat="43.51219" lon="6.68051">
        <ele>134.8</ele>
        <time>2025-10-26T09:29:22Z</time>
      </trkpt>
      <trkpt lat="43.5122" lon="6.68053">
        <ele>135</ele>
        <time>2025-10-26T09:29:23Z</time>
      </trkpt>
      <trkpt lat="43.51221" lon="6.68054">
        <ele>135.1</ele>
        <time>2025-10-26T09:29:24Z</time>
      </trkpt>
      <trkpt lat="43.51222" lon="6.68055">
        <ele>135.2</ele>
        <time>2025-10-26T09:29:25Z</time>
      </trkpt>
      <trkpt lat="43.51222" lon="6.68056">
        <ele>135.2</ele>
        <time>2025-10-26T09:29:26Z</time>
      </trkpt>
      <trkpt lat="43.51222" lon="6.68058">
        <ele>135.2</ele>
        <time>2025-10-26T09:29:27Z</time>
      </trkpt>
      <trkpt lat="43.51223" lon="6.68059">
        <ele>135.3</ele>
        <time>2025-10-26T09:29:28Z</time>
      </trkpt>
      <trkpt lat="43.51224" lon="6.6806">
        <ele>135.4</ele>
        <time>2025-10-26T09:29:29Z</time>
      </trkpt>
      <trkpt lat="43.51224" lon="6.68061">
        <ele>135.5</ele>
        <time>2025-10-26T09:29:30Z</time>
      </trkpt>
      <trkpt lat="43.51224" lon="6.68062">
        <ele>135.6</ele>
        <time>2025-10-26T09:29:31Z</time>
      </trkpt>
      <trkpt lat="43.51225" lon="6.68063">
        <ele>135.6</ele>
        <time>2025-10-26T09:29:32Z</time>
      </trkpt>
      <trkpt lat="43.51225" lon="6.68064">
        <ele>135.7</ele>
        <time>2025-10-26T09:29:33Z</time>
      </trkpt>
      <trkpt lat="43.51226" lon="6.68064">
        <ele>135.7</ele>
        <time>2025-10-26T09:29:34Z</time>
      </trkpt>
      <trkpt lat="43.51227" lon="6.68065">
        <ele>135.7</ele>
        <time>2025-10-26T09:29:35Z</time>
      </trkpt>
      <trkpt lat="43.51228" lon="6.68067">
        <ele>135.7</ele>
        <time>2025-10-26T09:29:36Z</time>
      </trkpt>
      <trkpt lat="43.51229" lon="6.68068">
        <ele>135.7</ele>
        <time>2025-10-26T09:29:37Z</time>
      </trkpt>
      <trkpt lat="43.51229" lon="6.6807">
        <ele>135.7</ele>
        <time>2025-10-26T09:29:38Z</time>
      </trkpt>
      <trkpt lat="43.5123" lon="6.68071">
        <ele>135.7</ele>
        <time>2025-10-26T09:29:39Z</time>
      </trkpt>
      <trkpt lat="43.51231" lon="6.68072">
        <ele>135.7</ele>
        <time>2025-10-26T09:29:40Z</time>
      </trkpt>
      <trkpt lat="43.51231" lon="6.68073">
        <ele>135.7</ele>
        <time>2025-10-26T09:29:41Z</time>
      </trkpt>
      <trkpt lat="43.51232" lon="6.68074">
        <ele>135.7</ele>
        <time>2025-10-26T09:29:42Z</time>
      </trkpt>
      <trkpt lat="43.51232" lon="6.68075">
        <ele>135.7</ele>
        <time>2025-10-26T09:29:43Z</time>
      </trkpt>
      <trkpt lat="43.51232" lon="6.68076">
        <ele>135.6</ele>
        <time>2025-10-26T09:29:44Z</time>
      </trkpt>
      <trkpt lat="43.51233" lon="6.68078">
        <ele>135.6</ele>
        <time>2025-10-26T09:29:45Z</time>
      </trkpt>
      <trkpt lat="43.51233" lon="6.68079">
        <ele>135.6</ele>
        <time>2025-10-26T09:29:46Z</time>
      </trkpt>
      <trkpt lat="43.51234" lon="6.6808">
        <ele>135.6</ele>
        <time>2025-10-26T09:29:47Z</time>
      </trkpt>
      <trkpt lat="43.51234" lon="6.68082">
        <ele>135.6</ele>
        <time>2025-10-26T09:29:48Z</time>
      </trkpt>
      <trkpt lat="43.51235" lon="6.68083">
        <ele>135.7</ele>
        <time>2025-10-26T09:29:49Z</time>
      </trkpt>
      <trkpt lat="43.51236" lon="6.68085">
        <ele>135.8</ele>
        <time>2025-10-26T09:29:50Z</time>
      </trkpt>
      <trkpt lat="43.51237" lon="6.68087">
        <ele>135.9</ele>
        <time>2025-10-26T09:29:51Z</time>
      </trkpt>
      <trkpt lat="43.51237" lon="6.68088">
        <ele>136.1</ele>
        <time>2025-10-26T09:29:52Z</time>
      </trkpt>
      <trkpt lat="43.51238" lon="6.68089">
        <ele>136.2</ele>
        <time>2025-10-26T09:29:53Z</time>
      </trkpt>
      <trkpt lat="43.51239" lon="6.6809">
        <ele>136.3</ele>
        <time>2025-10-26T09:29:54Z</time>
      </trkpt>
      <trkpt lat="43.51239" lon="6.68091">
        <ele>136.4</ele>
        <time>2025-10-26T09:29:55Z</time>
      </trkpt>
      <trkpt lat="43.51239" lon="6.68093">
        <ele>136.5</ele>
        <time>2025-10-26T09:29:56Z</time>
      </trkpt>
      <trkpt lat="43.51239" lon="6.68095">
        <ele>136.6</ele>
        <time>2025-10-26T09:29:57Z</time>
      </trkpt>
      <trkpt lat="43.51239" lon="6.68097">
        <ele>136.7</ele>
        <time>2025-10-26T09:29:58Z</time>
      </trkpt>
      <trkpt lat="43.51239" lon="6.68098">
        <ele>136.8</ele>
        <time>2025-10-26T09:29:59Z</time>
      </trkpt>
      <trkpt lat="43.5124" lon="6.681">
        <ele>136.8</ele>
        <time>2025-10-26T09:30:00Z</time>
      </trkpt>
      <trkpt lat="43.5124" lon="6.68101">
        <ele>136.8</ele>
        <time>2025-10-26T09:30:01Z</time>
      </trkpt>
      <trkpt lat="43.51239" lon="6.68102">
        <ele>136.8</ele>
        <time>2025-10-26T09:30:02Z</time>
      </trkpt>
      <trkpt lat="43.51239" lon="6.68103">
        <ele>136.8</ele>
        <time>2025-10-26T09:30:03Z</time>
      </trkpt>
      <trkpt lat="43.51239" lon="6.68104">
        <ele>136.7</ele>
        <time>2025-10-26T09:30:04Z</time>
      </trkpt>
      <trkpt lat="43.51239" lon="6.68105">
        <ele>136.7</ele>
        <time>2025-10-26T09:30:05Z</time>
      </trkpt>
      <trkpt lat="43.51239" lon="6.68105">
        <ele>136.6</ele>
        <time>2025-10-26T09:30:06Z</time>
      </trkpt>
      <trkpt lat="43.5124" lon="6.68106">
        <ele>136.5</ele>
        <time>2025-10-26T09:30:07Z</time>
      </trkpt>
      <trkpt lat="43.5124" lon="6.68107">
        <ele>136.5</ele>
        <time>2025-10-26T09:30:08Z</time>
      </trkpt>
      <trkpt lat="43.5124" lon="6.68108">
        <ele>136.4</ele>
        <time>2025-10-26T09:30:09Z</time>
      </trkpt>
      <trkpt lat="43.5124" lon="6.68109">
        <ele>136.4</ele>
        <time>2025-10-26T09:30:10Z</time>
      </trkpt>
      <trkpt lat="43.51241" lon="6.6811">
        <ele>136.5</ele>
        <time>2025-10-26T09:30:11Z</time>
      </trkpt>
      <trkpt lat="43.51241" lon="6.68111">
        <ele>136.5</ele>
        <time>2025-10-26T09:30:12Z</time>
      </trkpt>
      <trkpt lat="43.51241" lon="6.68112">
        <ele>136.6</ele>
        <time>2025-10-26T09:30:13Z</time>
      </trkpt>
      <trkpt lat="43.51241" lon="6.68113">
        <ele>136.6</ele>
        <time>2025-10-26T09:30:14Z</time>
      </trkpt>
      <trkpt lat="43.51241" lon="6.68114">
        <ele>136.6</ele>
        <time>2025-10-26T09:30:15Z</time>
      </trkpt>
      <trkpt lat="43.51241" lon="6.68115">
        <ele>136.6</ele>
        <time>2025-10-26T09:30:16Z</time>
      </trkpt>
      <trkpt lat="43.51241" lon="6.68116">
        <ele>136.6</ele>
        <time>2025-10-26T09:30:17Z</time>
      </trkpt>
      <trkpt lat="43.51241" lon="6.68117">
        <ele>136.5</ele>
        <time>2025-10-26T09:30:18Z</time>
      </trkpt>
      <trkpt lat="43.51241" lon="6.68117">
        <ele>136.6</ele>
        <time>2025-10-26T09:30:19Z</time>
      </trkpt>
      <trkpt lat="43.51241" lon="6.68119">
        <ele>136.6</ele>
        <time>2025-10-26T09:30:20Z</time>
      </trkpt>
      <trkpt lat="43.51241" lon="6.6812">
        <ele>136.6</ele>
        <time>2025-10-26T09:30:21Z</time>
      </trkpt>
      <trkpt lat="43.51241" lon="6.68121">
        <ele>136.6</ele>
        <time>2025-10-26T09:30:22Z</time>
      </trkpt>
      <trkpt lat="43.51241" lon="6.68122">
        <ele>136.6</ele>
        <time>2025-10-26T09:30:23Z</time>
      </trkpt>
      <trkpt lat="43.51241" lon="6.68123">
        <ele>136.6</ele>
        <time>2025-10-26T09:30:24Z</time>
      </trkpt>
      <trkpt lat="43.51241" lon="6.68124">
        <ele>136.7</ele>
        <time>2025-10-26T09:30:25Z</time>
      </trkpt>
      <trkpt lat="43.51242" lon="6.68125">
        <ele>136.7</ele>
        <time>2025-10-26T09:30:26Z</time>
      </trkpt>
      <trkpt lat="43.51242" lon="6.68127">
        <ele>136.8</ele>
        <time>2025-10-26T09:30:27Z</time>
      </trkpt>
      <trkpt lat="43.51242" lon="6.68128">
        <ele>136.8</ele>
        <time>2025-10-26T09:30:28Z</time>
      </trkpt>
      <trkpt lat="43.51242" lon="6.68129">
        <ele>136.9</ele>
        <time>2025-10-26T09:30:29Z</time>
      </trkpt>
      <trkpt lat="43.51242" lon="6.68131">
        <ele>136.9</ele>
        <time>2025-10-26T09:30:30Z</time>
      </trkpt>
      <trkpt lat="43.51242" lon="6.68132">
        <ele>137</ele>
        <time>2025-10-26T09:30:31Z</time>
      </trkpt>
      <trkpt lat="43.51242" lon="6.68133">
        <ele>137</ele>
        <time>2025-10-26T09:30:32Z</time>
      </trkpt>
      <trkpt lat="43.51243" lon="6.68134">
        <ele>137</ele>
        <time>2025-10-26T09:30:33Z</time>
      </trkpt>
      <trkpt lat="43.51242" lon="6.68135">
        <ele>137.1</ele>
        <time>2025-10-26T09:30:34Z</time>
      </trkpt>
      <trkpt lat="43.51242" lon="6.68136">
        <ele>137.1</ele>
        <time>2025-10-26T09:30:35Z</time>
      </trkpt>
      <trkpt lat="43.51243" lon="6.68138">
        <ele>137.2</ele>
        <time>2025-10-26T09:30:36Z</time>
      </trkpt>
      <trkpt lat="43.51243" lon="6.68139">
        <ele>137.3</ele>
        <time>2025-10-26T09:30:37Z</time>
      </trkpt>
      <trkpt lat="43.51243" lon="6.6814">
        <ele>137.2</ele>
        <time>2025-10-26T09:30:38Z</time>
      </trkpt>
      <trkpt lat="43.51244" lon="6.68141">
        <ele>137.3</ele>
        <time>2025-10-26T09:30:39Z</time>
      </trkpt>
      <trkpt lat="43.51244" lon="6.68142">
        <ele>137.3</ele>
        <time>2025-10-26T09:30:40Z</time>
      </trkpt>
      <trkpt lat="43.51243" lon="6.68143">
        <ele>137.3</ele>
        <time>2025-10-26T09:30:41Z</time>
      </trkpt>
      <trkpt lat="43.51244" lon="6.68144">
        <ele>137.3</ele>
        <time>2025-10-26T09:30:42Z</time>
      </trkpt>
      <trkpt lat="43.51244" lon="6.68146">
        <ele>137.5</ele>
        <time>2025-10-26T09:30:43Z</time>
      </trkpt>
      <trkpt lat="43.51244" lon="6.68147">
        <ele>137.5</ele>
        <time>2025-10-26T09:30:44Z</time>
      </trkpt>
      <trkpt lat="43.51244" lon="6.68149">
        <ele>137.5</ele>
        <time>2025-10-26T09:30:45Z</time>
      </trkpt>
      <trkpt lat="43.51244" lon="6.68149">
        <ele>137.5</ele>
        <time>2025-10-26T09:30:46Z</time>
      </trkpt>
      <trkpt lat="43.51244" lon="6.68151">
        <ele>137.6</ele>
        <time>2025-10-26T09:30:47Z</time>
      </trkpt>
      <trkpt lat="43.51244" lon="6.68152">
        <ele>137.6</ele>
        <time>2025-10-26T09:30:48Z</time>
      </trkpt>
      <trkpt lat="43.51244" lon="6.68153">
        <ele>137.6</ele>
        <time>2025-10-26T09:30:49Z</time>
      </trkpt>
      <trkpt lat="43.51244" lon="6.68154">
        <ele>137.7</ele>
        <time>2025-10-26T09:30:50Z</time>
      </trkpt>
      <trkpt lat="43.51244" lon="6.68154">
        <ele>137.7</ele>
        <time>2025-10-26T09:30:51Z</time>
      </trkpt>
      <trkpt lat="43.51244" lon="6.68155">
        <ele>137.8</ele>
        <time>2025-10-26T09:30:52Z</time>
      </trkpt>
      <trkpt lat="43.51244" lon="6.68157">
        <ele>137.8</ele>
        <time>2025-10-26T09:30:53Z</time>
      </trkpt>
      <trkpt lat="43.51244" lon="6.68158">
        <ele>138</ele>
        <time>2025-10-26T09:30:54Z</time>
      </trkpt>
      <trkpt lat="43.51244" lon="6.6816">
        <ele>138.2</ele>
        <time>2025-10-26T09:30:55Z</time>
      </trkpt>
      <trkpt lat="43.51245" lon="6.68162">
        <ele>138.2</ele>
        <time>2025-10-26T09:30:56Z</time>
      </trkpt>
      <trkpt lat="43.51245" lon="6.68163">
        <ele>138.4</ele>
        <time>2025-10-26T09:30:57Z</time>
      </trkpt>
      <trkpt lat="43.51245" lon="6.68165">
        <ele>138.5</ele>
        <time>2025-10-26T09:30:58Z</time>
      </trkpt>
      <trkpt lat="43.51245" lon="6.68166">
        <ele>138.5</ele>
        <time>2025-10-26T09:30:59Z</time>
      </trkpt>
      <trkpt lat="43.51245" lon="6.68168">
        <ele>138.6</ele>
        <time>2025-10-26T09:31:00Z</time>
      </trkpt>
      <trkpt lat="43.51245" lon="6.68169">
        <ele>138.6</ele>
        <time>2025-10-26T09:31:01Z</time>
      </trkpt>
      <trkpt lat="43.51246" lon="6.68171">
        <ele>138.6</ele>
        <time>2025-10-26T09:31:02Z</time>
      </trkpt>
      <trkpt lat="43.51246" lon="6.68172">
        <ele>138.6</ele>
        <time>2025-10-26T09:31:03Z</time>
      </trkpt>
      <trkpt lat="43.51246" lon="6.68174">
        <ele>138.6</ele>
        <time>2025-10-26T09:31:04Z</time>
      </trkpt>
      <trkpt lat="43.51246" lon="6.68176">
        <ele>138.6</ele>
        <time>2025-10-26T09:31:05Z</time>
      </trkpt>
      <trkpt lat="43.51246" lon="6.68178">
        <ele>138.6</ele>
        <time>2025-10-26T09:31:06Z</time>
      </trkpt>
      <trkpt lat="43.51247" lon="6.6818">
        <ele>138.7</ele>
        <time>2025-10-26T09:31:07Z</time>
      </trkpt>
      <trkpt lat="43.51247" lon="6.68182">
        <ele>138.7</ele>
        <time>2025-10-26T09:31:08Z</time>
      </trkpt>
      <trkpt lat="43.51247" lon="6.68183">
        <ele>138.7</ele>
        <time>2025-10-26T09:31:09Z</time>
      </trkpt>
      <trkpt lat="43.51247" lon="6.68185">
        <ele>138.8</ele>
        <time>2025-10-26T09:31:10Z</time>
      </trkpt>
      <trkpt lat="43.51248" lon="6.68186">
        <ele>138.8</ele>
        <time>2025-10-26T09:31:11Z</time>
      </trkpt>
      <trkpt lat="43.51248" lon="6.68188">
        <ele>138.7</ele>
        <time>2025-10-26T09:31:12Z</time>
      </trkpt>
      <trkpt lat="43.51248" lon="6.68188">
        <ele>138.7</ele>
        <time>2025-10-26T09:31:13Z</time>
      </trkpt>
      <trkpt lat="43.51248" lon="6.68189">
        <ele>138.7</ele>
        <time>2025-10-26T09:31:14Z</time>
      </trkpt>
      <trkpt lat="43.51249" lon="6.6819">
        <ele>138.7</ele>
        <time>2025-10-26T09:31:15Z</time>
      </trkpt>
      <trkpt lat="43.51249" lon="6.68192">
        <ele>138.8</ele>
        <time>2025-10-26T09:31:16Z</time>
      </trkpt>
      <trkpt lat="43.51248" lon="6.68193">
        <ele>138.8</ele>
        <time>2025-10-26T09:31:17Z</time>
      </trkpt>
      <trkpt lat="43.51248" lon="6.68194">
        <ele>138.7</ele>
        <time>2025-10-26T09:31:18Z</time>
      </trkpt>
      <trkpt lat="43.51249" lon="6.68195">
        <ele>138.8</ele>
        <time>2025-10-26T09:31:19Z</time>
      </trkpt>
      <trkpt lat="43.51249" lon="6.68196">
        <ele>138.9</ele>
        <time>2025-10-26T09:31:20Z</time>
      </trkpt>
      <trkpt lat="43.51249" lon="6.68197">
        <ele>139</ele>
        <time>2025-10-26T09:31:21Z</time>
      </trkpt>
      <trkpt lat="43.51249" lon="6.68199">
        <ele>139</ele>
        <time>2025-10-26T09:31:22Z</time>
      </trkpt>
      <trkpt lat="43.51249" lon="6.68199">
        <ele>139</ele>
        <time>2025-10-26T09:31:23Z</time>
      </trkpt>
      <trkpt lat="43.5125" lon="6.68201">
        <ele>139.1</ele>
        <time>2025-10-26T09:31:24Z</time>
      </trkpt>
      <trkpt lat="43.5125" lon="6.68203">
        <ele>139.3</ele>
        <time>2025-10-26T09:31:25Z</time>
      </trkpt>
      <trkpt lat="43.5125" lon="6.68204">
        <ele>139.3</ele>
        <time>2025-10-26T09:31:26Z</time>
      </trkpt>
      <trkpt lat="43.5125" lon="6.68205">
        <ele>139.3</ele>
        <time>2025-10-26T09:31:27Z</time>
      </trkpt>
      <trkpt lat="43.5125" lon="6.68207">
        <ele>139.3</ele>
        <time>2025-10-26T09:31:28Z</time>
      </trkpt>
      <trkpt lat="43.5125" lon="6.68208">
        <ele>139.5</ele>
        <time>2025-10-26T09:31:29Z</time>
      </trkpt>
      <trkpt lat="43.5125" lon="6.68209">
        <ele>139.6</ele>
        <time>2025-10-26T09:31:30Z</time>
      </trkpt>
      <trkpt lat="43.5125" lon="6.6821">
        <ele>139.7</ele>
        <time>2025-10-26T09:31:31Z</time>
      </trkpt>
      <trkpt lat="43.51251" lon="6.6821">
        <ele>139.7</ele>
        <time>2025-10-26T09:31:32Z</time>
      </trkpt>
      <trkpt lat="43.51251" lon="6.68212">
        <ele>139.8</ele>
        <time>2025-10-26T09:31:33Z</time>
      </trkpt>
      <trkpt lat="43.51251" lon="6.68213">
        <ele>139.9</ele>
        <time>2025-10-26T09:31:34Z</time>
      </trkpt>
      <trkpt lat="43.51252" lon="6.68214">
        <ele>140</ele>
        <time>2025-10-26T09:31:35Z</time>
      </trkpt>
      <trkpt lat="43.51253" lon="6.68214">
        <ele>140.1</ele>
        <time>2025-10-26T09:31:36Z</time>
      </trkpt>
      <trkpt lat="43.51253" lon="6.68215">
        <ele>140.1</ele>
        <time>2025-10-26T09:31:37Z</time>
      </trkpt>
      <trkpt lat="43.51254" lon="6.68216">
        <ele>140.3</ele>
        <time>2025-10-26T09:31:38Z</time>
      </trkpt>
      <trkpt lat="43.51254" lon="6.68217">
        <ele>140.4</ele>
        <time>2025-10-26T09:31:39Z</time>
      </trkpt>
      <trkpt lat="43.51255" lon="6.68218">
        <ele>140.6</ele>
        <time>2025-10-26T09:31:40Z</time>
      </trkpt>
      <trkpt lat="43.51256" lon="6.6822">
        <ele>140.8</ele>
        <time>2025-10-26T09:31:41Z</time>
      </trkpt>
      <trkpt lat="43.51256" lon="6.68221">
        <ele>140.9</ele>
        <time>2025-10-26T09:31:42Z</time>
      </trkpt>
      <trkpt lat="43.51256" lon="6.68222">
        <ele>141.1</ele>
        <time>2025-10-26T09:31:43Z</time>
      </trkpt>
      <trkpt lat="43.51257" lon="6.68223">
        <ele>141.1</ele>
        <time>2025-10-26T09:31:44Z</time>
      </trkpt>
      <trkpt lat="43.51257" lon="6.68224">
        <ele>141.2</ele>
        <time>2025-10-26T09:31:45Z</time>
      </trkpt>
      <trkpt lat="43.51257" lon="6.68225">
        <ele>141.2</ele>
        <time>2025-10-26T09:31:46Z</time>
      </trkpt>
      <trkpt lat="43.51257" lon="6.68227">
        <ele>141.3</ele>
        <time>2025-10-26T09:31:47Z</time>
      </trkpt>
      <trkpt lat="43.51257" lon="6.68228">
        <ele>141.4</ele>
        <time>2025-10-26T09:31:48Z</time>
      </trkpt>
      <trkpt lat="43.51257" lon="6.68229">
        <ele>141.6</ele>
        <time>2025-10-26T09:31:49Z</time>
      </trkpt>
      <trkpt lat="43.51258" lon="6.6823">
        <ele>141.7</ele>
        <time>2025-10-26T09:31:50Z</time>
      </trkpt>
      <trkpt lat="43.51258" lon="6.68232">
        <ele>141.9</ele>
        <time>2025-10-26T09:31:51Z</time>
      </trkpt>
      <trkpt lat="43.51259" lon="6.68233">
        <ele>142.1</ele>
        <time>2025-10-26T09:31:52Z</time>
      </trkpt>
      <trkpt lat="43.51259" lon="6.68234">
        <ele>142.3</ele>
        <time>2025-10-26T09:31:53Z</time>
      </trkpt>
      <trkpt lat="43.51259" lon="6.68236">
        <ele>142.5</ele>
        <time>2025-10-26T09:31:54Z</time>
      </trkpt>
      <trkpt lat="43.51259" lon="6.68237">
        <ele>142.6</ele>
        <time>2025-10-26T09:31:55Z</time>
      </trkpt>
      <trkpt lat="43.5126" lon="6.68237">
        <ele>142.7</ele>
        <time>2025-10-26T09:31:56Z</time>
      </trkpt>
      <trkpt lat="43.51261" lon="6.68238">
        <ele>142.7</ele>
        <time>2025-10-26T09:31:57Z</time>
      </trkpt>
      <trkpt lat="43.51261" lon="6.68239">
        <ele>143</ele>
        <time>2025-10-26T09:31:58Z</time>
      </trkpt>
      <trkpt lat="43.51261" lon="6.68241">
        <ele>143.2</ele>
        <time>2025-10-26T09:31:59Z</time>
      </trkpt>
      <trkpt lat="43.51261" lon="6.68242">
        <ele>143.3</ele>
        <time>2025-10-26T09:32:00Z</time>
      </trkpt>
      <trkpt lat="43.51261" lon="6.68243">
        <ele>143.4</ele>
        <time>2025-10-26T09:32:01Z</time>
      </trkpt>
      <trkpt lat="43.5126" lon="6.68244">
        <ele>143.5</ele>
        <time>2025-10-26T09:32:02Z</time>
      </trkpt>
      <trkpt lat="43.5126" lon="6.68245">
        <ele>143.7</ele>
        <time>2025-10-26T09:32:03Z</time>
      </trkpt>
      <trkpt lat="43.5126" lon="6.68247">
        <ele>143.8</ele>
        <time>2025-10-26T09:32:04Z</time>
      </trkpt>
      <trkpt lat="43.51259" lon="6.68247">
        <ele>144.1</ele>
        <time>2025-10-26T09:32:05Z</time>
      </trkpt>
      <trkpt lat="43.51258" lon="6.68248">
        <ele>144</ele>
        <time>2025-10-26T09:32:06Z</time>
      </trkpt>
      <trkpt lat="43.51258" lon="6.68249">
        <ele>144</ele>
        <time>2025-10-26T09:32:07Z</time>
      </trkpt>
      <trkpt lat="43.51258" lon="6.6825">
        <ele>144</ele>
        <time>2025-10-26T09:32:08Z</time>
      </trkpt>
      <trkpt lat="43.51259" lon="6.6825">
        <ele>144</ele>
        <time>2025-10-26T09:32:09Z</time>
      </trkpt>
      <trkpt lat="43.51259" lon="6.68252">
        <ele>143.8</ele>
        <time>2025-10-26T09:32:10Z</time>
      </trkpt>
      <trkpt lat="43.5126" lon="6.68254">
        <ele>143.7</ele>
        <time>2025-10-26T09:32:11Z</time>
      </trkpt>
      <trkpt lat="43.51259" lon="6.68255">
        <ele>143.5</ele>
        <time>2025-10-26T09:32:12Z</time>
      </trkpt>
      <trkpt lat="43.51259" lon="6.68256">
        <ele>143.3</ele>
        <time>2025-10-26T09:32:13Z</time>
      </trkpt>
      <trkpt lat="43.51259" lon="6.68258">
        <ele>143.3</ele>
        <time>2025-10-26T09:32:14Z</time>
      </trkpt>
      <trkpt lat="43.5126" lon="6.68259">
        <ele>143.2</ele>
        <time>2025-10-26T09:32:15Z</time>
      </trkpt>
      <trkpt lat="43.5126" lon="6.68259">
        <ele>143.1</ele>
        <time>2025-10-26T09:32:16Z</time>
      </trkpt>
      <trkpt lat="43.5126" lon="6.6826">
        <ele>143.1</ele>
        <time>2025-10-26T09:32:17Z</time>
      </trkpt>
      <trkpt lat="43.51259" lon="6.6826">
        <ele>143</ele>
        <time>2025-10-26T09:32:18Z</time>
      </trkpt>
      <trkpt lat="43.5126" lon="6.68259">
        <ele>142.9</ele>
        <time>2025-10-26T09:32:19Z</time>
      </trkpt>
      <trkpt lat="43.5126" lon="6.68259">
        <ele>142.9</ele>
        <time>2025-10-26T09:32:20Z</time>
      </trkpt>
      <trkpt lat="43.51259" lon="6.68259">
        <ele>142.7</ele>
        <time>2025-10-26T09:32:21Z</time>
      </trkpt>
      <trkpt lat="43.51259" lon="6.68259">
        <ele>142.6</ele>
        <time>2025-10-26T09:32:22Z</time>
      </trkpt>
      <trkpt lat="43.51259" lon="6.68259">
        <ele>142.6</ele>
        <time>2025-10-26T09:32:23Z</time>
      </trkpt>
      <trkpt lat="43.51258" lon="6.68259">
        <ele>142.6</ele>
        <time>2025-10-26T09:32:24Z</time>
      </trkpt>
      <trkpt lat="43.51258" lon="6.68259">
        <ele>142.5</ele>
        <time>2025-10-26T09:32:25Z</time>
      </trkpt>
      <trkpt lat="43.51258" lon="6.68259">
        <ele>142.5</ele>
        <time>2025-10-26T09:32:26Z</time>
      </trkpt>
      <trkpt lat="43.51258" lon="6.68259">
        <ele>142.5</ele>
        <time>2025-10-26T09:32:27Z</time>
      </trkpt>
      <trkpt lat="43.51258" lon="6.68259">
        <ele>142.5</ele>
        <time>2025-10-26T09:32:28Z</time>
      </trkpt>
      <trkpt lat="43.51258" lon="6.68259">
        <ele>142.5</ele>
        <time>2025-10-26T09:32:29Z</time>
      </trkpt>
      <trkpt lat="43.51257" lon="6.6826">
        <ele>142.6</ele>
        <time>2025-10-26T09:32:30Z</time>
      </trkpt>
      <trkpt lat="43.51257" lon="6.68261">
        <ele>142.6</ele>
        <time>2025-10-26T09:32:31Z</time>
      </trkpt>
      <trkpt lat="43.51257" lon="6.68261">
        <ele>142.6</ele>
        <time>2025-10-26T09:32:32Z</time>
      </trkpt>
      <trkpt lat="43.51258" lon="6.68262">
        <ele>142.7</ele>
        <time>2025-10-26T09:32:33Z</time>
      </trkpt>
      <trkpt lat="43.51259" lon="6.68262">
        <ele>142.7</ele>
        <time>2025-10-26T09:32:34Z</time>
      </trkpt>
      <trkpt lat="43.51259" lon="6.68263">
        <ele>142.7</ele>
        <time>2025-10-26T09:32:35Z</time>
      </trkpt>
      <trkpt lat="43.51259" lon="6.68262">
        <ele>142.6</ele>
        <time>2025-10-26T09:32:36Z</time>
      </trkpt>
      <trkpt lat="43.5126" lon="6.68262">
        <ele>142.5</ele>
        <time>2025-10-26T09:32:37Z</time>
      </trkpt>
      <trkpt lat="43.51261" lon="6.68262">
        <ele>142.4</ele>
        <time>2025-10-26T09:32:38Z</time>
      </trkpt>
      <trkpt lat="43.51261" lon="6.68262">
        <ele>142.4</ele>
        <time>2025-10-26T09:32:39Z</time>
      </trkpt>
      <trkpt lat="43.51261" lon="6.68263">
        <ele>142.3</ele>
        <time>2025-10-26T09:32:40Z</time>
      </trkpt>
      <trkpt lat="43.51261" lon="6.68263">
        <ele>142.2</ele>
        <time>2025-10-26T09:32:41Z</time>
      </trkpt>
      <trkpt lat="43.51261" lon="6.68263">
        <ele>142.2</ele>
        <time>2025-10-26T09:32:42Z</time>
      </trkpt>
      <trkpt lat="43.51262" lon="6.68263">
        <ele>142.1</ele>
        <time>2025-10-26T09:32:43Z</time>
      </trkpt>
      <trkpt lat="43.51262" lon="6.68263">
        <ele>142.1</ele>
        <time>2025-10-26T09:32:44Z</time>
      </trkpt>
      <trkpt lat="43.51262" lon="6.68264">
        <ele>142.1</ele>
        <time>2025-10-26T09:32:45Z</time>
      </trkpt>
      <trkpt lat="43.51262" lon="6.68263">
        <ele>142.1</ele>
        <time>2025-10-26T09:32:46Z</time>
      </trkpt>
      <trkpt lat="43.51263" lon="6.68263">
        <ele>142.1</ele>
        <time>2025-10-26T09:32:47Z</time>
      </trkpt>
      <trkpt lat="43.51263" lon="6.68263">
        <ele>142.1</ele>
        <time>2025-10-26T09:32:48Z</time>
      </trkpt>
      <trkpt lat="43.51263" lon="6.68263">
        <ele>142.1</ele>
        <time>2025-10-26T09:32:49Z</time>
      </trkpt>
      <trkpt lat="43.51264" lon="6.68264">
        <ele>142.2</ele>
        <time>2025-10-26T09:32:50Z</time>
      </trkpt>
      <trkpt lat="43.51264" lon="6.68264">
        <ele>142.3</ele>
        <time>2025-10-26T09:32:51Z</time>
      </trkpt>
      <trkpt lat="43.51265" lon="6.68264">
        <ele>142.3</ele>
        <time>2025-10-26T09:32:52Z</time>
      </trkpt>
      <trkpt lat="43.51265" lon="6.68264">
        <ele>142.3</ele>
        <time>2025-10-26T09:32:53Z</time>
      </trkpt>
      <trkpt lat="43.51265" lon="6.68264">
        <ele>142.3</ele>
        <time>2025-10-26T09:32:54Z</time>
      </trkpt>
      <trkpt lat="43.51265" lon="6.68265">
        <ele>142.3</ele>
        <time>2025-10-26T09:32:55Z</time>
      </trkpt>
      <trkpt lat="43.51266" lon="6.68265">
        <ele>142.3</ele>
        <time>2025-10-26T09:32:56Z</time>
      </trkpt>
      <trkpt lat="43.51266" lon="6.68265">
        <ele>142.3</ele>
        <time>2025-10-26T09:32:57Z</time>
      </trkpt>
      <trkpt lat="43.51266" lon="6.68265">
        <ele>142.3</ele>
        <time>2025-10-26T09:32:58Z</time>
      </trkpt>
      <trkpt lat="43.51266" lon="6.68265">
        <ele>142.3</ele>
        <time>2025-10-26T09:32:59Z</time>
      </trkpt>
      <trkpt lat="43.51267" lon="6.68265">
        <ele>142.3</ele>
        <time>2025-10-26T09:33:00Z</time>
      </trkpt>
      <trkpt lat="43.51267" lon="6.68265">
        <ele>142.3</ele>
        <time>2025-10-26T09:33:01Z</time>
      </trkpt>
      <trkpt lat="43.51267" lon="6.68265">
        <ele>142.3</ele>
        <time>2025-10-26T09:33:02Z</time>
      </trkpt>
      <trkpt lat="43.51267" lon="6.68266">
        <ele>142.4</ele>
        <time>2025-10-26T09:33:03Z</time>
      </trkpt>
      <trkpt lat="43.51267" lon="6.68265">
        <ele>142.4</ele>
        <time>2025-10-26T09:33:04Z</time>
      </trkpt>
      <trkpt lat="43.51267" lon="6.68265">
        <ele>142.4</ele>
        <time>2025-10-26T09:33:05Z</time>
      </trkpt>
      <trkpt lat="43.51267" lon="6.68266">
        <ele>142.4</ele>
        <time>2025-10-26T09:33:06Z</time>
      </trkpt>
      <trkpt lat="43.51267" lon="6.68266">
        <ele>142.4</ele>
        <time>2025-10-26T09:33:07Z</time>
      </trkpt>
      <trkpt lat="43.51267" lon="6.68265">
        <ele>142.4</ele>
        <time>2025-10-26T09:33:08Z</time>
      </trkpt>
      <trkpt lat="43.51267" lon="6.68265">
        <ele>142.5</ele>
        <time>2025-10-26T09:33:09Z</time>
      </trkpt>
      <trkpt lat="43.51267" lon="6.68266">
        <ele>142.5</ele>
        <time>2025-10-26T09:33:10Z</time>
      </trkpt>
      <trkpt lat="43.51267" lon="6.68267">
        <ele>142.5</ele>
        <time>2025-10-26T09:33:11Z</time>
      </trkpt>
      <trkpt lat="43.51267" lon="6.68267">
        <ele>142.5</ele>
        <time>2025-10-26T09:33:12Z</time>
      </trkpt>
      <trkpt lat="43.51267" lon="6.68267">
        <ele>142.6</ele>
        <time>2025-10-26T09:33:13Z</time>
      </trkpt>
      <trkpt lat="43.51267" lon="6.68267">
        <ele>142.5</ele>
        <time>2025-10-26T09:33:14Z</time>
      </trkpt>
      <trkpt lat="43.51267" lon="6.68267">
        <ele>142.5</ele>
        <time>2025-10-26T09:33:15Z</time>
      </trkpt>
      <trkpt lat="43.51267" lon="6.68267">
        <ele>142.4</ele>
        <time>2025-10-26T09:33:16Z</time>
      </trkpt>
      <trkpt lat="43.51266" lon="6.68267">
        <ele>142.4</ele>
        <time>2025-10-26T09:33:17Z</time>
      </trkpt>
      <trkpt lat="43.51267" lon="6.68267">
        <ele>142.4</ele>
        <time>2025-10-26T09:33:18Z</time>
      </trkpt>
      <trkpt lat="43.51266" lon="6.68267">
        <ele>142.5</ele>
        <time>2025-10-26T09:33:19Z</time>
      </trkpt>
      <trkpt lat="43.51266" lon="6.68267">
        <ele>142.5</ele>
        <time>2025-10-26T09:33:20Z</time>
      </trkpt>
      <trkpt lat="43.51266" lon="6.68267">
        <ele>142.5</ele>
        <time>2025-10-26T09:33:21Z</time>
      </trkpt>
      <trkpt lat="43.51266" lon="6.68268">
        <ele>142.5</ele>
        <time>2025-10-26T09:33:22Z</time>
      </trkpt>
      <trkpt lat="43.51266" lon="6.68268">
        <ele>142.5</ele>
        <time>2025-10-26T09:33:23Z</time>
      </trkpt>
      <trkpt lat="43.51266" lon="6.68268">
        <ele>142.5</ele>
        <time>2025-10-26T09:33:24Z</time>
      </trkpt>
      <trkpt lat="43.51266" lon="6.68268">
        <ele>142.5</ele>
        <time>2025-10-26T09:33:25Z</time>
      </trkpt>
      <trkpt lat="43.51266" lon="6.68268">
        <ele>142.5</ele>
        <time>2025-10-26T09:33:26Z</time>
      </trkpt>
      <trkpt lat="43.51265" lon="6.68269">
        <ele>142.5</ele>
        <time>2025-10-26T09:33:27Z</time>
      </trkpt>
      <trkpt lat="43.51265" lon="6.68268">
        <ele>142.4</ele>
        <time>2025-10-26T09:33:28Z</time>
      </trkpt>
      <trkpt lat="43.51265" lon="6.68268">
        <ele>142.4</ele>
        <time>2025-10-26T09:33:29Z</time>
      </trkpt>
      <trkpt lat="43.51265" lon="6.68269">
        <ele>142.4</ele>
        <time>2025-10-26T09:33:30Z</time>
      </trkpt>
      <trkpt lat="43.51265" lon="6.68268">
        <ele>142.3</ele>
        <time>2025-10-26T09:33:31Z</time>
      </trkpt>
      <trkpt lat="43.51265" lon="6.68268">
        <ele>142.5</ele>
        <time>2025-10-26T09:33:32Z</time>
      </trkpt>
      <trkpt lat="43.51265" lon="6.68267">
        <ele>142.6</ele>
        <time>2025-10-26T09:33:33Z</time>
      </trkpt>
      <trkpt lat="43.51265" lon="6.68267">
        <ele>142.6</ele>
        <time>2025-10-26T09:33:34Z</time>
      </trkpt>
      <trkpt lat="43.51265" lon="6.68267">
        <ele>142.6</ele>
        <time>2025-10-26T09:33:35Z</time>
      </trkpt>
      <trkpt lat="43.51265" lon="6.68268">
        <ele>142.7</ele>
        <time>2025-10-26T09:33:36Z</time>
      </trkpt>
      <trkpt lat="43.51266" lon="6.68268">
        <ele>142.7</ele>
        <time>2025-10-26T09:33:37Z</time>
      </trkpt>
      <trkpt lat="43.51265" lon="6.68268">
        <ele>142.7</ele>
        <time>2025-10-26T09:33:38Z</time>
      </trkpt>
      <trkpt lat="43.51265" lon="6.68267">
        <ele>142.7</ele>
        <time>2025-10-26T09:33:39Z</time>
      </trkpt>
      <trkpt lat="43.51265" lon="6.68267">
        <ele>142.8</ele>
        <time>2025-10-26T09:33:40Z</time>
      </trkpt>
      <trkpt lat="43.51266" lon="6.68267">
        <ele>142.8</ele>
        <time>2025-10-26T09:33:41Z</time>
      </trkpt>
      <trkpt lat="43.51265" lon="6.68267">
        <ele>142.8</ele>
        <time>2025-10-26T09:33:42Z</time>
      </trkpt>
      <trkpt lat="43.51265" lon="6.68267">
        <ele>142.7</ele>
        <time>2025-10-26T09:33:43Z</time>
      </trkpt>
      <trkpt lat="43.51266" lon="6.68267">
        <ele>142.6</ele>
        <time>2025-10-26T09:33:44Z</time>
      </trkpt>
      <trkpt lat="43.51266" lon="6.68267">
        <ele>142.5</ele>
        <time>2025-10-26T09:33:45Z</time>
      </trkpt>
      <trkpt lat="43.51265" lon="6.68267">
        <ele>142.4</ele>
        <time>2025-10-26T09:33:46Z</time>
      </trkpt>
      <trkpt lat="43.51265" lon="6.68268">
        <ele>142.4</ele>
        <time>2025-10-26T09:33:47Z</time>
      </trkpt>
      <trkpt lat="43.51265" lon="6.68268">
        <ele>142.4</ele>
        <time>2025-10-26T09:33:48Z</time>
      </trkpt>
      <trkpt lat="43.51266" lon="6.68268">
        <ele>142.4</ele>
        <time>2025-10-26T09:33:49Z</time>
      </trkpt>
      <trkpt lat="43.51266" lon="6.68268">
        <ele>142.4</ele>
        <time>2025-10-26T09:33:50Z</time>
      </trkpt>
      <trkpt lat="43.51266" lon="6.68267">
        <ele>142.4</ele>
        <time>2025-10-26T09:33:51Z</time>
      </trkpt>
      <trkpt lat="43.51266" lon="6.68267">
        <ele>142.5</ele>
        <time>2025-10-26T09:33:52Z</time>
      </trkpt>
      <trkpt lat="43.51266" lon="6.68266">
        <ele>142.6</ele>
        <time>2025-10-26T09:33:53Z</time>
      </trkpt>
      <trkpt lat="43.51266" lon="6.68266">
        <ele>142.8</ele>
        <time>2025-10-26T09:33:54Z</time>
      </trkpt>
      <trkpt lat="43.51266" lon="6.68266">
        <ele>142.9</ele>
        <time>2025-10-26T09:33:55Z</time>
      </trkpt>
      <trkpt lat="43.51266" lon="6.68266">
        <ele>143</ele>
        <time>2025-10-26T09:33:56Z</time>
      </trkpt>
      <trkpt lat="43.51265" lon="6.68266">
        <ele>143.1</ele>
        <time>2025-10-26T09:33:57Z</time>
      </trkpt>
      <trkpt lat="43.51265" lon="6.68266">
        <ele>143.1</ele>
        <time>2025-10-26T09:33:58Z</time>
      </trkpt>
      <trkpt lat="43.51265" lon="6.68265">
        <ele>143.1</ele>
        <time>2025-10-26T09:33:59Z</time>
      </trkpt>
      <trkpt lat="43.51265" lon="6.68265">
        <ele>143.2</ele>
        <time>2025-10-26T09:34:00Z</time>
      </trkpt>
      <trkpt lat="43.51265" lon="6.68264">
        <ele>143.3</ele>
        <time>2025-10-26T09:34:01Z</time>
      </trkpt>
      <trkpt lat="43.51264" lon="6.68264">
        <ele>143.3</ele>
        <time>2025-10-26T09:34:02Z</time>
      </trkpt>
      <trkpt lat="43.51264" lon="6.68263">
        <ele>143.4</ele>
        <time>2025-10-26T09:34:03Z</time>
      </trkpt>
      <trkpt lat="43.51264" lon="6.68263">
        <ele>143.5</ele>
        <time>2025-10-26T09:34:04Z</time>
      </trkpt>
      <trkpt lat="43.51265" lon="6.68262">
        <ele>143.5</ele>
        <time>2025-10-26T09:34:05Z</time>
      </trkpt>
      <trkpt lat="43.51265" lon="6.68262">
        <ele>143.7</ele>
        <time>2025-10-26T09:34:06Z</time>
      </trkpt>
      <trkpt lat="43.51265" lon="6.68262">
        <ele>143.8</ele>
        <time>2025-10-26T09:34:07Z</time>
      </trkpt>
      <trkpt lat="43.51266" lon="6.68261">
        <ele>143.9</ele>
        <time>2025-10-26T09:34:08Z</time>
      </trkpt>
      <trkpt lat="43.51266" lon="6.6826">
        <ele>143.9</ele>
        <time>2025-10-26T09:34:09Z</time>
      </trkpt>
      <trkpt lat="43.51266" lon="6.68259">
        <ele>143.9</ele>
        <time>2025-10-26T09:34:10Z</time>
      </trkpt>
      <trkpt lat="43.51266" lon="6.68258">
        <ele>143.9</ele>
        <time>2025-10-26T09:34:11Z</time>
      </trkpt>
      <trkpt lat="43.51267" lon="6.68257">
        <ele>144</ele>
        <time>2025-10-26T09:34:12Z</time>
      </trkpt>
      <trkpt lat="43.51267" lon="6.68256">
        <ele>144.1</ele>
        <time>2025-10-26T09:34:13Z</time>
      </trkpt>
      <trkpt lat="43.51267" lon="6.68256">
        <ele>144.1</ele>
        <time>2025-10-26T09:34:14Z</time>
      </trkpt>
      <trkpt lat="43.51267" lon="6.68255">
        <ele>144.1</ele>
        <time>2025-10-26T09:34:15Z</time>
      </trkpt>
      <trkpt lat="43.51266" lon="6.68255">
        <ele>144.1</ele>
        <time>2025-10-26T09:34:16Z</time>
      </trkpt>
      <trkpt lat="43.51266" lon="6.68255">
        <ele>144.1</ele>
        <time>2025-10-26T09:34:17Z</time>
      </trkpt>
      <trkpt lat="43.51266" lon="6.68255">
        <ele>144.1</ele>
        <time>2025-10-26T09:34:18Z</time>
      </trkpt>
      <trkpt lat="43.51266" lon="6.68255">
        <ele>144.1</ele>
        <time>2025-10-26T09:34:19Z</time>
      </trkpt>
      <trkpt lat="43.51265" lon="6.68256">
        <ele>144.1</ele>
        <time>2025-10-26T09:34:20Z</time>
      </trkpt>
      <trkpt lat="43.51264" lon="6.68257">
        <ele>144.1</ele>
        <time>2025-10-26T09:34:21Z</time>
      </trkpt>
      <trkpt lat="43.51265" lon="6.68256">
        <ele>144</ele>
        <time>2025-10-26T09:34:22Z</time>
      </trkpt>
      <trkpt lat="43.51265" lon="6.68256">
        <ele>144</ele>
        <time>2025-10-26T09:34:23Z</time>
      </trkpt>
      <trkpt lat="43.51265" lon="6.68256">
        <ele>144.1</ele>
        <time>2025-10-26T09:34:24Z</time>
      </trkpt>
      <trkpt lat="43.51266" lon="6.68255">
        <ele>144.2</ele>
        <time>2025-10-26T09:34:25Z</time>
      </trkpt>
      <trkpt lat="43.51266" lon="6.68256">
        <ele>144.2</ele>
        <time>2025-10-26T09:34:26Z</time>
      </trkpt>
      <trkpt lat="43.51266" lon="6.68256">
        <ele>144.4</ele>
        <time>2025-10-26T09:34:27Z</time>
      </trkpt>
      <trkpt lat="43.51266" lon="6.68255">
        <ele>144.5</ele>
        <time>2025-10-26T09:34:28Z</time>
      </trkpt>
      <trkpt lat="43.51266" lon="6.68255">
        <ele>144.5</ele>
        <time>2025-10-26T09:34:29Z</time>
      </trkpt>
      <trkpt lat="43.51266" lon="6.68256">
        <ele>144.6</ele>
        <time>2025-10-26T09:34:30Z</time>
      </trkpt>
      <trkpt lat="43.51266" lon="6.68256">
        <ele>144.6</ele>
        <time>2025-10-26T09:34:31Z</time>
      </trkpt>
      <trkpt lat="43.51267" lon="6.68256">
        <ele>144.7</ele>
        <time>2025-10-26T09:34:32Z</time>
      </trkpt>
      <trkpt lat="43.51267" lon="6.68256">
        <ele>144.7</ele>
        <time>2025-10-26T09:34:33Z</time>
      </trkpt>
      <trkpt lat="43.51267" lon="6.68255">
        <ele>144.8</ele>
        <time>2025-10-26T09:34:34Z</time>
      </trkpt>
      <trkpt lat="43.51268" lon="6.68255">
        <ele>144.8</ele>
        <time>2025-10-26T09:34:35Z</time>
      </trkpt>
      <trkpt lat="43.51269" lon="6.68256">
        <ele>144.8</ele>
        <time>2025-10-26T09:34:36Z</time>
      </trkpt>
      <trkpt lat="43.51269" lon="6.68256">
        <ele>144.8</ele>
        <time>2025-10-26T09:34:37Z</time>
      </trkpt>
      <trkpt lat="43.51269" lon="6.68256">
        <ele>144.8</ele>
        <time>2025-10-26T09:34:38Z</time>
      </trkpt>
      <trkpt lat="43.51269" lon="6.68256">
        <ele>144.7</ele>
        <time>2025-10-26T09:34:39Z</time>
      </trkpt>
      <trkpt lat="43.51269" lon="6.68255">
        <ele>144.6</ele>
        <time>2025-10-26T09:34:40Z</time>
      </trkpt>
      <trkpt lat="43.5127" lon="6.68254">
        <ele>144.6</ele>
        <time>2025-10-26T09:34:41Z</time>
      </trkpt>
      <trkpt lat="43.5127" lon="6.68254">
        <ele>144.6</ele>
        <time>2025-10-26T09:34:42Z</time>
      </trkpt>
      <trkpt lat="43.5127" lon="6.68254">
        <ele>144.6</ele>
        <time>2025-10-26T09:34:43Z</time>
      </trkpt>
      <trkpt lat="43.5127" lon="6.68254">
        <ele>144.7</ele>
        <time>2025-10-26T09:34:44Z</time>
      </trkpt>
      <trkpt lat="43.5127" lon="6.68254">
        <ele>144.6</ele>
        <time>2025-10-26T09:34:45Z</time>
      </trkpt>
      <trkpt lat="43.5127" lon="6.68254">
        <ele>144.7</ele>
        <time>2025-10-26T09:34:46Z</time>
      </trkpt>
      <trkpt lat="43.5127" lon="6.68254">
        <ele>144.7</ele>
        <time>2025-10-26T09:34:47Z</time>
      </trkpt>
      <trkpt lat="43.51269" lon="6.68255">
        <ele>144.8</ele>
        <time>2025-10-26T09:34:48Z</time>
      </trkpt>
      <trkpt lat="43.51269" lon="6.68255">
        <ele>144.9</ele>
        <time>2025-10-26T09:34:49Z</time>
      </trkpt>
      <trkpt lat="43.51269" lon="6.68255">
        <ele>144.8</ele>
        <time>2025-10-26T09:34:50Z</time>
      </trkpt>
      <trkpt lat="43.51269" lon="6.68255">
        <ele>144.9</ele>
        <time>2025-10-26T09:34:51Z</time>
      </trkpt>
      <trkpt lat="43.51269" lon="6.68255">
        <ele>144.9</ele>
        <time>2025-10-26T09:34:52Z</time>
      </trkpt>
      <trkpt lat="43.51269" lon="6.68255">
        <ele>144.9</ele>
        <time>2025-10-26T09:34:53Z</time>
      </trkpt>
      <trkpt lat="43.51269" lon="6.68255">
        <ele>144.9</ele>
        <time>2025-10-26T09:34:54Z</time>
      </trkpt>
      <trkpt lat="43.51269" lon="6.68255">
        <ele>145</ele>
        <time>2025-10-26T09:34:55Z</time>
      </trkpt>
      <trkpt lat="43.51269" lon="6.68255">
        <ele>145</ele>
        <time>2025-10-26T09:34:56Z</time>
      </trkpt>
      <trkpt lat="43.51269" lon="6.68255">
        <ele>145</ele>
        <time>2025-10-26T09:34:57Z</time>
      </trkpt>
      <trkpt lat="43.51269" lon="6.68256">
        <ele>145</ele>
        <time>2025-10-26T09:34:58Z</time>
      </trkpt>
      <trkpt lat="43.5127" lon="6.68256">
        <ele>145.1</ele>
        <time>2025-10-26T09:34:59Z</time>
      </trkpt>
      <trkpt lat="43.5127" lon="6.68255">
        <ele>145</ele>
        <time>2025-10-26T09:35:00Z</time>
      </trkpt>
      <trkpt lat="43.5127" lon="6.68255">
        <ele>145.1</ele>
        <time>2025-10-26T09:35:01Z</time>
      </trkpt>
      <trkpt lat="43.5127" lon="6.68255">
        <ele>145.1</ele>
        <time>2025-10-26T09:35:02Z</time>
      </trkpt>
      <trkpt lat="43.5127" lon="6.68255">
        <ele>145.1</ele>
        <time>2025-10-26T09:35:03Z</time>
      </trkpt>
      <trkpt lat="43.5127" lon="6.68255">
        <ele>144.9</ele>
        <time>2025-10-26T09:35:04Z</time>
      </trkpt>
      <trkpt lat="43.5127" lon="6.68255">
        <ele>144.8</ele>
        <time>2025-10-26T09:35:05Z</time>
      </trkpt>
      <trkpt lat="43.5127" lon="6.68255">
        <ele>144.8</ele>
        <time>2025-10-26T09:35:06Z</time>
      </trkpt>
      <trkpt lat="43.5127" lon="6.68255">
        <ele>144.7</ele>
        <time>2025-10-26T09:35:07Z</time>
      </trkpt>
      <trkpt lat="43.51271" lon="6.68255">
        <ele>144.7</ele>
        <time>2025-10-26T09:35:08Z</time>
      </trkpt>
      <trkpt lat="43.51271" lon="6.68255">
        <ele>144.6</ele>
        <time>2025-10-26T09:35:09Z</time>
      </trkpt>
      <trkpt lat="43.5127" lon="6.68255">
        <ele>144.6</ele>
        <time>2025-10-26T09:35:10Z</time>
      </trkpt>
      <trkpt lat="43.5127" lon="6.68255">
        <ele>144.6</ele>
        <time>2025-10-26T09:35:11Z</time>
      </trkpt>
      <trkpt lat="43.5127" lon="6.68255">
        <ele>144.6</ele>
        <time>2025-10-26T09:35:12Z</time>
      </trkpt>
      <trkpt lat="43.5127" lon="6.68255">
        <ele>144.6</ele>
        <time>2025-10-26T09:35:13Z</time>
      </trkpt>
      <trkpt lat="43.51271" lon="6.68255">
        <ele>144.7</ele>
        <time>2025-10-26T09:35:14Z</time>
      </trkpt>
      <trkpt lat="43.51271" lon="6.68255">
        <ele>144.8</ele>
        <time>2025-10-26T09:35:15Z</time>
      </trkpt>
      <trkpt lat="43.51271" lon="6.68255">
        <ele>144.9</ele>
        <time>2025-10-26T09:35:16Z</time>
      </trkpt>
      <trkpt lat="43.51271" lon="6.68255">
        <ele>144.9</ele>
        <time>2025-10-26T09:35:17Z</time>
      </trkpt>
      <trkpt lat="43.51271" lon="6.68255">
        <ele>144.9</ele>
        <time>2025-10-26T09:35:18Z</time>
      </trkpt>
      <trkpt lat="43.51272" lon="6.68256">
        <ele>145</ele>
        <time>2025-10-26T09:35:19Z</time>
      </trkpt>
      <trkpt lat="43.51272" lon="6.68256">
        <ele>145</ele>
        <time>2025-10-26T09:35:20Z</time>
      </trkpt>
      <trkpt lat="43.51272" lon="6.68256">
        <ele>144.9</ele>
        <time>2025-10-26T09:35:21Z</time>
      </trkpt>
      <trkpt lat="43.51272" lon="6.68256">
        <ele>144.9</ele>
        <time>2025-10-26T09:35:22Z</time>
      </trkpt>
      <trkpt lat="43.51272" lon="6.68256">
        <ele>144.8</ele>
        <time>2025-10-26T09:35:23Z</time>
      </trkpt>
      <trkpt lat="43.51272" lon="6.68256">
        <ele>144.8</ele>
        <time>2025-10-26T09:35:24Z</time>
      </trkpt>
      <trkpt lat="43.51273" lon="6.68256">
        <ele>144.8</ele>
        <time>2025-10-26T09:35:25Z</time>
      </trkpt>
      <trkpt lat="43.51273" lon="6.68255">
        <ele>144.8</ele>
        <time>2025-10-26T09:35:26Z</time>
      </trkpt>
      <trkpt lat="43.51273" lon="6.68255">
        <ele>144.8</ele>
        <time>2025-10-26T09:35:27Z</time>
      </trkpt>
      <trkpt lat="43.51273" lon="6.68255">
        <ele>144.9</ele>
        <time>2025-10-26T09:35:28Z</time>
      </trkpt>
      <trkpt lat="43.51273" lon="6.68255">
        <ele>144.9</ele>
        <time>2025-10-26T09:35:29Z</time>
      </trkpt>
      <trkpt lat="43.51273" lon="6.68255">
        <ele>144.9</ele>
        <time>2025-10-26T09:35:30Z</time>
      </trkpt>
      <trkpt lat="43.51274" lon="6.68255">
        <ele>144.9</ele>
        <time>2025-10-26T09:35:31Z</time>
      </trkpt>
      <trkpt lat="43.51274" lon="6.68256">
        <ele>144.9</ele>
        <time>2025-10-26T09:35:32Z</time>
      </trkpt>
      <trkpt lat="43.51273" lon="6.68256">
        <ele>144.9</ele>
        <time>2025-10-26T09:35:33Z</time>
      </trkpt>
      <trkpt lat="43.51273" lon="6.68256">
        <ele>144.9</ele>
        <time>2025-10-26T09:35:34Z</time>
      </trkpt>
      <trkpt lat="43.51273" lon="6.68256">
        <ele>144.9</ele>
        <time>2025-10-26T09:35:35Z</time>
      </trkpt>
      <trkpt lat="43.51273" lon="6.68256">
        <ele>145</ele>
        <time>2025-10-26T09:35:36Z</time>
      </trkpt>
      <trkpt lat="43.51273" lon="6.68256">
        <ele>145.2</ele>
        <time>2025-10-26T09:35:37Z</time>
      </trkpt>
      <trkpt lat="43.51273" lon="6.68256">
        <ele>145.3</ele>
        <time>2025-10-26T09:35:38Z</time>
      </trkpt>
      <trkpt lat="43.51273" lon="6.68256">
        <ele>145.3</ele>
        <time>2025-10-26T09:35:39Z</time>
      </trkpt>
      <trkpt lat="43.51273" lon="6.68256">
        <ele>145.3</ele>
        <time>2025-10-26T09:35:40Z</time>
      </trkpt>
      <trkpt lat="43.51273" lon="6.68256">
        <ele>145.2</ele>
        <time>2025-10-26T09:35:41Z</time>
      </trkpt>
      <trkpt lat="43.51273" lon="6.68256">
        <ele>145.2</ele>
        <time>2025-10-26T09:35:42Z</time>
      </trkpt>
      <trkpt lat="43.51273" lon="6.68256">
        <ele>145.2</ele>
        <time>2025-10-26T09:35:43Z</time>
      </trkpt>
      <trkpt lat="43.51274" lon="6.68256">
        <ele>145.2</ele>
        <time>2025-10-26T09:35:44Z</time>
      </trkpt>
      <trkpt lat="43.51274" lon="6.68256">
        <ele>145.2</ele>
        <time>2025-10-26T09:35:45Z</time>
      </trkpt>
      <trkpt lat="43.51274" lon="6.68256">
        <ele>145.2</ele>
        <time>2025-10-26T09:35:46Z</time>
      </trkpt>
      <trkpt lat="43.51274" lon="6.68256">
        <ele>145.2</ele>
        <time>2025-10-26T09:35:47Z</time>
      </trkpt>
      <trkpt lat="43.51274" lon="6.68256">
        <ele>145.2</ele>
        <time>2025-10-26T09:35:48Z</time>
      </trkpt>
      <trkpt lat="43.51274" lon="6.68255">
        <ele>145.1</ele>
        <time>2025-10-26T09:35:49Z</time>
      </trkpt>
      <trkpt lat="43.51274" lon="6.68255">
        <ele>145</ele>
        <time>2025-10-26T09:35:50Z</time>
      </trkpt>
      <trkpt lat="43.51274" lon="6.68255">
        <ele>144.9</ele>
        <time>2025-10-26T09:35:51Z</time>
      </trkpt>
      <trkpt lat="43.51275" lon="6.68255">
        <ele>144.9</ele>
        <time>2025-10-26T09:35:52Z</time>
      </trkpt>
      <trkpt lat="43.51275" lon="6.68255">
        <ele>144.8</ele>
        <time>2025-10-26T09:35:53Z</time>
      </trkpt>
      <trkpt lat="43.51275" lon="6.68255">
        <ele>144.7</ele>
        <time>2025-10-26T09:35:54Z</time>
      </trkpt>
      <trkpt lat="43.51275" lon="6.68255">
        <ele>144.6</ele>
        <time>2025-10-26T09:35:55Z</time>
      </trkpt>
      <trkpt lat="43.51275" lon="6.68255">
        <ele>144.6</ele>
        <time>2025-10-26T09:35:56Z</time>
      </trkpt>
      <trkpt lat="43.51275" lon="6.68255">
        <ele>144.6</ele>
        <time>2025-10-26T09:35:57Z</time>
      </trkpt>
      <trkpt lat="43.51275" lon="6.68255">
        <ele>144.5</ele>
        <time>2025-10-26T09:35:58Z</time>
      </trkpt>
      <trkpt lat="43.51274" lon="6.68256">
        <ele>144.5</ele>
        <time>2025-10-26T09:35:59Z</time>
      </trkpt>
      <trkpt lat="43.51274" lon="6.68256">
        <ele>144.5</ele>
        <time>2025-10-26T09:36:00Z</time>
      </trkpt>
      <trkpt lat="43.51274" lon="6.68256">
        <ele>144.6</ele>
        <time>2025-10-26T09:36:01Z</time>
      </trkpt>
      <trkpt lat="43.51274" lon="6.68256">
        <ele>144.6</ele>
        <time>2025-10-26T09:36:02Z</time>
      </trkpt>
      <trkpt lat="43.51275" lon="6.68257">
        <ele>144.7</ele>
        <time>2025-10-26T09:36:03Z</time>
      </trkpt>
      <trkpt lat="43.51275" lon="6.68257">
        <ele>144.8</ele>
        <time>2025-10-26T09:36:04Z</time>
      </trkpt>
      <trkpt lat="43.51275" lon="6.68257">
        <ele>144.9</ele>
        <time>2025-10-26T09:36:05Z</time>
      </trkpt>
      <trkpt lat="43.51275" lon="6.68257">
        <ele>144.9</ele>
        <time>2025-10-26T09:36:06Z</time>
      </trkpt>
      <trkpt lat="43.51275" lon="6.68257">
        <ele>145</ele>
        <time>2025-10-26T09:36:07Z</time>
      </trkpt>
      <trkpt lat="43.51275" lon="6.68257">
        <ele>145.2</ele>
        <time>2025-10-26T09:36:08Z</time>
      </trkpt>
      <trkpt lat="43.51275" lon="6.68258">
        <ele>145.4</ele>
        <time>2025-10-26T09:36:09Z</time>
      </trkpt>
      <trkpt lat="43.51276" lon="6.68259">
        <ele>145.5</ele>
        <time>2025-10-26T09:36:10Z</time>
      </trkpt>
      <trkpt lat="43.51277" lon="6.6826">
        <ele>145.6</ele>
        <time>2025-10-26T09:36:11Z</time>
      </trkpt>
      <trkpt lat="43.51278" lon="6.68261">
        <ele>145.7</ele>
        <time>2025-10-26T09:36:12Z</time>
      </trkpt>
      <trkpt lat="43.51278" lon="6.68261">
        <ele>145.8</ele>
        <time>2025-10-26T09:36:13Z</time>
      </trkpt>
      <trkpt lat="43.51279" lon="6.68262">
        <ele>145.8</ele>
        <time>2025-10-26T09:36:14Z</time>
      </trkpt>
      <trkpt lat="43.51279" lon="6.68262">
        <ele>145.9</ele>
        <time>2025-10-26T09:36:15Z</time>
      </trkpt>
      <trkpt lat="43.51279" lon="6.68262">
        <ele>145.9</ele>
        <time>2025-10-26T09:36:16Z</time>
      </trkpt>
      <trkpt lat="43.5128" lon="6.68262">
        <ele>145.9</ele>
        <time>2025-10-26T09:36:17Z</time>
      </trkpt>
      <trkpt lat="43.51281" lon="6.68263">
        <ele>146</ele>
        <time>2025-10-26T09:36:18Z</time>
      </trkpt>
      <trkpt lat="43.51281" lon="6.68263">
        <ele>146</ele>
        <time>2025-10-26T09:36:19Z</time>
      </trkpt>
      <trkpt lat="43.51281" lon="6.68264">
        <ele>146</ele>
        <time>2025-10-26T09:36:20Z</time>
      </trkpt>
      <trkpt lat="43.51282" lon="6.68264">
        <ele>146.1</ele>
        <time>2025-10-26T09:36:21Z</time>
      </trkpt>
      <trkpt lat="43.51283" lon="6.68264">
        <ele>146.1</ele>
        <time>2025-10-26T09:36:22Z</time>
      </trkpt>
      <trkpt lat="43.51284" lon="6.68264">
        <ele>146.2</ele>
        <time>2025-10-26T09:36:23Z</time>
      </trkpt>
      <trkpt lat="43.51284" lon="6.68264">
        <ele>146.3</ele>
        <time>2025-10-26T09:36:24Z</time>
      </trkpt>
      <trkpt lat="43.51284" lon="6.68265">
        <ele>146.4</ele>
        <time>2025-10-26T09:36:25Z</time>
      </trkpt>
      <trkpt lat="43.51285" lon="6.68265">
        <ele>146.5</ele>
        <time>2025-10-26T09:36:26Z</time>
      </trkpt>
      <trkpt lat="43.51285" lon="6.68266">
        <ele>146.6</ele>
        <time>2025-10-26T09:36:27Z</time>
      </trkpt>
      <trkpt lat="43.51286" lon="6.68266">
        <ele>146.7</ele>
        <time>2025-10-26T09:36:28Z</time>
      </trkpt>
      <trkpt lat="43.51286" lon="6.68267">
        <ele>146.7</ele>
        <time>2025-10-26T09:36:29Z</time>
      </trkpt>
      <trkpt lat="43.51286" lon="6.68267">
        <ele>146.7</ele>
        <time>2025-10-26T09:36:30Z</time>
      </trkpt>
      <trkpt lat="43.51286" lon="6.68268">
        <ele>146.8</ele>
        <time>2025-10-26T09:36:31Z</time>
      </trkpt>
      <trkpt lat="43.51287" lon="6.68268">
        <ele>147</ele>
        <time>2025-10-26T09:36:32Z</time>
      </trkpt>
      <trkpt lat="43.51288" lon="6.68268">
        <ele>147.1</ele>
        <time>2025-10-26T09:36:33Z</time>
      </trkpt>
      <trkpt lat="43.51289" lon="6.68268">
        <ele>147.2</ele>
        <time>2025-10-26T09:36:34Z</time>
      </trkpt>
      <trkpt lat="43.51289" lon="6.68268">
        <ele>147.4</ele>
        <time>2025-10-26T09:36:35Z</time>
      </trkpt>
      <trkpt lat="43.5129" lon="6.68269">
        <ele>147.5</ele>
        <time>2025-10-26T09:36:36Z</time>
      </trkpt>
      <trkpt lat="43.51291" lon="6.6827">
        <ele>147.5</ele>
        <time>2025-10-26T09:36:37Z</time>
      </trkpt>
      <trkpt lat="43.51292" lon="6.68271">
        <ele>147.7</ele>
        <time>2025-10-26T09:36:38Z</time>
      </trkpt>
      <trkpt lat="43.51293" lon="6.68271">
        <ele>147.8</ele>
        <time>2025-10-26T09:36:39Z</time>
      </trkpt>
      <trkpt lat="43.51293" lon="6.68272">
        <ele>147.9</ele>
        <time>2025-10-26T09:36:40Z</time>
      </trkpt>
      <trkpt lat="43.51294" lon="6.68272">
        <ele>148</ele>
        <time>2025-10-26T09:36:41Z</time>
      </trkpt>
      <trkpt lat="43.51295" lon="6.68273">
        <ele>148</ele>
        <time>2025-10-26T09:36:42Z</time>
      </trkpt>
      <trkpt lat="43.51295" lon="6.68274">
        <ele>148</ele>
        <time>2025-10-26T09:36:43Z</time>
      </trkpt>
      <trkpt lat="43.51296" lon="6.68274">
        <ele>148.1</ele>
        <time>2025-10-26T09:36:44Z</time>
      </trkpt>
      <trkpt lat="43.51297" lon="6.68275">
        <ele>148.1</ele>
        <time>2025-10-26T09:36:45Z</time>
      </trkpt>
      <trkpt lat="43.51298" lon="6.68275">
        <ele>148.1</ele>
        <time>2025-10-26T09:36:46Z</time>
      </trkpt>
      <trkpt lat="43.51299" lon="6.68275">
        <ele>148.2</ele>
        <time>2025-10-26T09:36:47Z</time>
      </trkpt>
      <trkpt lat="43.513" lon="6.68275">
        <ele>148.3</ele>
        <time>2025-10-26T09:36:48Z</time>
      </trkpt>
      <trkpt lat="43.513" lon="6.68275">
        <ele>148.3</ele>
        <time>2025-10-26T09:36:49Z</time>
      </trkpt>
      <trkpt lat="43.51301" lon="6.68276">
        <ele>148.4</ele>
        <time>2025-10-26T09:36:50Z</time>
      </trkpt>
      <trkpt lat="43.51302" lon="6.68276">
        <ele>148.4</ele>
        <time>2025-10-26T09:36:51Z</time>
      </trkpt>
      <trkpt lat="43.51303" lon="6.68277">
        <ele>148.5</ele>
        <time>2025-10-26T09:36:52Z</time>
      </trkpt>
      <trkpt lat="43.51304" lon="6.68277">
        <ele>148.6</ele>
        <time>2025-10-26T09:36:53Z</time>
      </trkpt>
      <trkpt lat="43.51304" lon="6.68277">
        <ele>148.7</ele>
        <time>2025-10-26T09:36:54Z</time>
      </trkpt>
      <trkpt lat="43.51306" lon="6.68277">
        <ele>148.8</ele>
        <time>2025-10-26T09:36:55Z</time>
      </trkpt>
      <trkpt lat="43.51306" lon="6.68278">
        <ele>148.9</ele>
        <time>2025-10-26T09:36:56Z</time>
      </trkpt>
      <trkpt lat="43.51307" lon="6.68278">
        <ele>149.1</ele>
        <time>2025-10-26T09:36:57Z</time>
      </trkpt>
      <trkpt lat="43.51308" lon="6.68279">
        <ele>149.3</ele>
        <time>2025-10-26T09:36:58Z</time>
      </trkpt>
      <trkpt lat="43.51308" lon="6.68279">
        <ele>149.4</ele>
        <time>2025-10-26T09:36:59Z</time>
      </trkpt>
      <trkpt lat="43.51309" lon="6.6828">
        <ele>149.5</ele>
        <time>2025-10-26T09:37:00Z</time>
      </trkpt>
      <trkpt lat="43.5131" lon="6.68281">
        <ele>149.6</ele>
        <time>2025-10-26T09:37:01Z</time>
      </trkpt>
      <trkpt lat="43.51311" lon="6.68281">
        <ele>149.7</ele>
        <time>2025-10-26T09:37:02Z</time>
      </trkpt>
      <trkpt lat="43.51312" lon="6.68281">
        <ele>149.7</ele>
        <time>2025-10-26T09:37:03Z</time>
      </trkpt>
      <trkpt lat="43.51313" lon="6.68281">
        <ele>149.7</ele>
        <time>2025-10-26T09:37:04Z</time>
      </trkpt>
      <trkpt lat="43.51314" lon="6.68282">
        <ele>149.8</ele>
        <time>2025-10-26T09:37:05Z</time>
      </trkpt>
      <trkpt lat="43.51315" lon="6.68282">
        <ele>149.9</ele>
        <time>2025-10-26T09:37:06Z</time>
      </trkpt>
      <trkpt lat="43.51316" lon="6.68282">
        <ele>150.1</ele>
        <time>2025-10-26T09:37:07Z</time>
      </trkpt>
      <trkpt lat="43.51317" lon="6.68282">
        <ele>150.2</ele>
        <time>2025-10-26T09:37:08Z</time>
      </trkpt>
      <trkpt lat="43.51318" lon="6.68283">
        <ele>150.4</ele>
        <time>2025-10-26T09:37:09Z</time>
      </trkpt>
      <trkpt lat="43.51319" lon="6.68283">
        <ele>150.5</ele>
        <time>2025-10-26T09:37:10Z</time>
      </trkpt>
      <trkpt lat="43.5132" lon="6.68283">
        <ele>150.6</ele>
        <time>2025-10-26T09:37:11Z</time>
      </trkpt>
      <trkpt lat="43.51321" lon="6.68283">
        <ele>150.7</ele>
        <time>2025-10-26T09:37:12Z</time>
      </trkpt>
      <trkpt lat="43.51322" lon="6.68283">
        <ele>150.9</ele>
        <time>2025-10-26T09:37:13Z</time>
      </trkpt>
      <trkpt lat="43.51323" lon="6.68284">
        <ele>151.1</ele>
        <time>2025-10-26T09:37:14Z</time>
      </trkpt>
      <trkpt lat="43.51323" lon="6.68284">
        <ele>151.2</ele>
        <time>2025-10-26T09:37:15Z</time>
      </trkpt>
      <trkpt lat="43.51324" lon="6.68284">
        <ele>151.2</ele>
        <time>2025-10-26T09:37:16Z</time>
      </trkpt>
      <trkpt lat="43.51325" lon="6.68285">
        <ele>151.3</ele>
        <time>2025-10-26T09:37:17Z</time>
      </trkpt>
      <trkpt lat="43.51326" lon="6.68285">
        <ele>151.3</ele>
        <time>2025-10-26T09:37:18Z</time>
      </trkpt>
      <trkpt lat="43.51327" lon="6.68285">
        <ele>151.3</ele>
        <time>2025-10-26T09:37:19Z</time>
      </trkpt>
      <trkpt lat="43.51327" lon="6.68286">
        <ele>151.3</ele>
        <time>2025-10-26T09:37:20Z</time>
      </trkpt>
      <trkpt lat="43.51328" lon="6.68286">
        <ele>151.3</ele>
        <time>2025-10-26T09:37:21Z</time>
      </trkpt>
      <trkpt lat="43.51328" lon="6.68285">
        <ele>151.4</ele>
        <time>2025-10-26T09:37:22Z</time>
      </trkpt>
      <trkpt lat="43.51329" lon="6.68284">
        <ele>151.5</ele>
        <time>2025-10-26T09:37:23Z</time>
      </trkpt>
      <trkpt lat="43.5133" lon="6.68284">
        <ele>151.5</ele>
        <time>2025-10-26T09:37:24Z</time>
      </trkpt>
      <trkpt lat="43.51331" lon="6.68284">
        <ele>151.5</ele>
        <time>2025-10-26T09:37:25Z</time>
      </trkpt>
      <trkpt lat="43.51331" lon="6.68284">
        <ele>151.5</ele>
        <time>2025-10-26T09:37:26Z</time>
      </trkpt>
      <trkpt lat="43.51332" lon="6.68284">
        <ele>151.5</ele>
        <time>2025-10-26T09:37:27Z</time>
      </trkpt>
      <trkpt lat="43.51333" lon="6.68282">
        <ele>151.6</ele>
        <time>2025-10-26T09:37:28Z</time>
      </trkpt>
      <trkpt lat="43.51333" lon="6.68282">
        <ele>151.6</ele>
        <time>2025-10-26T09:37:29Z</time>
      </trkpt>
      <trkpt lat="43.51333" lon="6.68282">
        <ele>151.5</ele>
        <time>2025-10-26T09:37:30Z</time>
      </trkpt>
      <trkpt lat="43.51333" lon="6.68281">
        <ele>151.6</ele>
        <time>2025-10-26T09:37:31Z</time>
      </trkpt>
      <trkpt lat="43.51334" lon="6.68281">
        <ele>151.6</ele>
        <time>2025-10-26T09:37:32Z</time>
      </trkpt>
      <trkpt lat="43.51335" lon="6.68281">
        <ele>151.7</ele>
        <time>2025-10-26T09:37:33Z</time>
      </trkpt>
      <trkpt lat="43.51335" lon="6.6828">
        <ele>151.7</ele>
        <time>2025-10-26T09:37:34Z</time>
      </trkpt>
      <trkpt lat="43.51335" lon="6.6828">
        <ele>151.9</ele>
        <time>2025-10-26T09:37:35Z</time>
      </trkpt>
      <trkpt lat="43.51335" lon="6.6828">
        <ele>151.9</ele>
        <time>2025-10-26T09:37:36Z</time>
      </trkpt>
      <trkpt lat="43.51335" lon="6.6828">
        <ele>151.8</ele>
        <time>2025-10-26T09:37:37Z</time>
      </trkpt>
      <trkpt lat="43.51336" lon="6.6828">
        <ele>151.7</ele>
        <time>2025-10-26T09:37:38Z</time>
      </trkpt>
      <trkpt lat="43.51336" lon="6.6828">
        <ele>151.7</ele>
        <time>2025-10-26T09:37:39Z</time>
      </trkpt>
      <trkpt lat="43.51336" lon="6.6828">
        <ele>151.6</ele>
        <time>2025-10-26T09:37:40Z</time>
      </trkpt>
      <trkpt lat="43.51336" lon="6.6828">
        <ele>151.5</ele>
        <time>2025-10-26T09:37:41Z</time>
      </trkpt>
      <trkpt lat="43.51336" lon="6.6828">
        <ele>151.5</ele>
        <time>2025-10-26T09:37:42Z</time>
      </trkpt>
      <trkpt lat="43.51336" lon="6.6828">
        <ele>151.6</ele>
        <time>2025-10-26T09:37:43Z</time>
      </trkpt>
      <trkpt lat="43.51336" lon="6.6828">
        <ele>151.6</ele>
        <time>2025-10-26T09:37:44Z</time>
      </trkpt>
      <trkpt lat="43.51336" lon="6.6828">
        <ele>151.7</ele>
        <time>2025-10-26T09:37:45Z</time>
      </trkpt>
      <trkpt lat="43.51335" lon="6.68281">
        <ele>151.7</ele>
        <time>2025-10-26T09:37:46Z</time>
      </trkpt>
      <trkpt lat="43.51335" lon="6.68281">
        <ele>151.7</ele>
        <time>2025-10-26T09:37:47Z</time>
      </trkpt>
      <trkpt lat="43.51336" lon="6.6828">
        <ele>151.8</ele>
        <time>2025-10-26T09:37:48Z</time>
      </trkpt>
      <trkpt lat="43.51337" lon="6.6828">
        <ele>151.9</ele>
        <time>2025-10-26T09:37:49Z</time>
      </trkpt>
      <trkpt lat="43.51337" lon="6.6828">
        <ele>152</ele>
        <time>2025-10-26T09:37:50Z</time>
      </trkpt>
      <trkpt lat="43.51338" lon="6.68279">
        <ele>152.1</ele>
        <time>2025-10-26T09:37:51Z</time>
      </trkpt>
      <trkpt lat="43.51338" lon="6.68279">
        <ele>152.3</ele>
        <time>2025-10-26T09:37:52Z</time>
      </trkpt>
      <trkpt lat="43.51339" lon="6.68279">
        <ele>152.4</ele>
        <time>2025-10-26T09:37:53Z</time>
      </trkpt>
      <trkpt lat="43.51339" lon="6.6828">
        <ele>152.5</ele>
        <time>2025-10-26T09:37:54Z</time>
      </trkpt>
      <trkpt lat="43.51339" lon="6.6828">
        <ele>152.5</ele>
        <time>2025-10-26T09:37:55Z</time>
      </trkpt>
      <trkpt lat="43.51339" lon="6.6828">
        <ele>152.6</ele>
        <time>2025-10-26T09:37:56Z</time>
      </trkpt>
      <trkpt lat="43.51339" lon="6.68281">
        <ele>152.7</ele>
        <time>2025-10-26T09:37:57Z</time>
      </trkpt>
      <trkpt lat="43.51339" lon="6.68281">
        <ele>152.8</ele>
        <time>2025-10-26T09:37:58Z</time>
      </trkpt>
      <trkpt lat="43.51341" lon="6.6828">
        <ele>152.9</ele>
        <time>2025-10-26T09:37:59Z</time>
      </trkpt>
      <trkpt lat="43.51341" lon="6.6828">
        <ele>152.9</ele>
        <time>2025-10-26T09:38:00Z</time>
      </trkpt>
      <trkpt lat="43.51342" lon="6.6828">
        <ele>152.9</ele>
        <time>2025-10-26T09:38:01Z</time>
      </trkpt>
      <trkpt lat="43.51343" lon="6.6828">
        <ele>152.9</ele>
        <time>2025-10-26T09:38:02Z</time>
      </trkpt>
      <trkpt lat="43.51343" lon="6.6828">
        <ele>152.8</ele>
        <time>2025-10-26T09:38:03Z</time>
      </trkpt>
      <trkpt lat="43.51343" lon="6.68281">
        <ele>152.8</ele>
        <time>2025-10-26T09:38:04Z</time>
      </trkpt>
      <trkpt lat="43.51344" lon="6.68281">
        <ele>152.8</ele>
        <time>2025-10-26T09:38:05Z</time>
      </trkpt>
      <trkpt lat="43.51345" lon="6.68282">
        <ele>152.9</ele>
        <time>2025-10-26T09:38:06Z</time>
      </trkpt>
      <trkpt lat="43.51346" lon="6.68283">
        <ele>153</ele>
        <time>2025-10-26T09:38:07Z</time>
      </trkpt>
      <trkpt lat="43.51347" lon="6.68282">
        <ele>152.9</ele>
        <time>2025-10-26T09:38:08Z</time>
      </trkpt>
      <trkpt lat="43.51348" lon="6.68282">
        <ele>153</ele>
        <time>2025-10-26T09:38:09Z</time>
      </trkpt>
      <trkpt lat="43.51349" lon="6.68282">
        <ele>153</ele>
        <time>2025-10-26T09:38:10Z</time>
      </trkpt>
      <trkpt lat="43.5135" lon="6.68282">
        <ele>153.1</ele>
        <time>2025-10-26T09:38:11Z</time>
      </trkpt>
      <trkpt lat="43.51352" lon="6.68281">
        <ele>153.3</ele>
        <time>2025-10-26T09:38:12Z</time>
      </trkpt>
      <trkpt lat="43.51353" lon="6.6828">
        <ele>153.5</ele>
        <time>2025-10-26T09:38:13Z</time>
      </trkpt>
      <trkpt lat="43.51354" lon="6.68279">
        <ele>153.6</ele>
        <time>2025-10-26T09:38:14Z</time>
      </trkpt>
      <trkpt lat="43.51355" lon="6.68279">
        <ele>153.7</ele>
        <time>2025-10-26T09:38:15Z</time>
      </trkpt>
      <trkpt lat="43.51356" lon="6.68278">
        <ele>153.7</ele>
        <time>2025-10-26T09:38:16Z</time>
      </trkpt>
      <trkpt lat="43.51356" lon="6.68277">
        <ele>153.8</ele>
        <time>2025-10-26T09:38:17Z</time>
      </trkpt>
      <trkpt lat="43.51356" lon="6.68275">
        <ele>153.9</ele>
        <time>2025-10-26T09:38:18Z</time>
      </trkpt>
      <trkpt lat="43.51355" lon="6.68274">
        <ele>153.9</ele>
        <time>2025-10-26T09:38:19Z</time>
      </trkpt>
      <trkpt lat="43.51355" lon="6.68273">
        <ele>154</ele>
        <time>2025-10-26T09:38:20Z</time>
      </trkpt>
      <trkpt lat="43.51356" lon="6.68271">
        <ele>154</ele>
        <time>2025-10-26T09:38:21Z</time>
      </trkpt>
      <trkpt lat="43.51355" lon="6.6827">
        <ele>154.1</ele>
        <time>2025-10-26T09:38:22Z</time>
      </trkpt>
      <trkpt lat="43.51355" lon="6.6827">
        <ele>154.1</ele>
        <time>2025-10-26T09:38:23Z</time>
      </trkpt>
      <trkpt lat="43.51354" lon="6.68269">
        <ele>154.1</ele>
        <time>2025-10-26T09:38:24Z</time>
      </trkpt>
      <trkpt lat="43.51354" lon="6.68268">
        <ele>154.2</ele>
        <time>2025-10-26T09:38:25Z</time>
      </trkpt>
      <trkpt lat="43.51354" lon="6.68267">
        <ele>154.2</ele>
        <time>2025-10-26T09:38:26Z</time>
      </trkpt>
      <trkpt lat="43.51353" lon="6.68266">
        <ele>154.3</ele>
        <time>2025-10-26T09:38:27Z</time>
      </trkpt>
      <trkpt lat="43.51352" lon="6.68265">
        <ele>154.4</ele>
        <time>2025-10-26T09:38:28Z</time>
      </trkpt>
      <trkpt lat="43.51352" lon="6.68262">
        <ele>154.4</ele>
        <time>2025-10-26T09:38:29Z</time>
      </trkpt>
      <trkpt lat="43.51351" lon="6.6826">
        <ele>154.5</ele>
        <time>2025-10-26T09:38:30Z</time>
      </trkpt>
      <trkpt lat="43.5135" lon="6.68259">
        <ele>154.5</ele>
        <time>2025-10-26T09:38:31Z</time>
      </trkpt>
      <trkpt lat="43.5135" lon="6.68258">
        <ele>154.7</ele>
        <time>2025-10-26T09:38:32Z</time>
      </trkpt>
      <trkpt lat="43.5135" lon="6.68257">
        <ele>154.8</ele>
        <time>2025-10-26T09:38:33Z</time>
      </trkpt>
      <trkpt lat="43.51349" lon="6.68255">
        <ele>154.9</ele>
        <time>2025-10-26T09:38:34Z</time>
      </trkpt>
      <trkpt lat="43.51349" lon="6.68254">
        <ele>154.9</ele>
        <time>2025-10-26T09:38:35Z</time>
      </trkpt>
      <trkpt lat="43.51348" lon="6.68253">
        <ele>155</ele>
        <time>2025-10-26T09:38:36Z</time>
      </trkpt>
      <trkpt lat="43.51348" lon="6.68251">
        <ele>155</ele>
        <time>2025-10-26T09:38:37Z</time>
      </trkpt>
      <trkpt lat="43.51348" lon="6.68249">
        <ele>155</ele>
        <time>2025-10-26T09:38:38Z</time>
      </trkpt>
      <trkpt lat="43.51347" lon="6.68248">
        <ele>155</ele>
        <time>2025-10-26T09:38:39Z</time>
      </trkpt>
      <trkpt lat="43.51347" lon="6.68247">
        <ele>155</ele>
        <time>2025-10-26T09:38:40Z</time>
      </trkpt>
      <trkpt lat="43.51346" lon="6.68246">
        <ele>154.9</ele>
        <time>2025-10-26T09:38:41Z</time>
      </trkpt>
      <trkpt lat="43.51345" lon="6.68244">
        <ele>154.9</ele>
        <time>2025-10-26T09:38:42Z</time>
      </trkpt>
      <trkpt lat="43.51344" lon="6.68244">
        <ele>155</ele>
        <time>2025-10-26T09:38:43Z</time>
      </trkpt>
      <trkpt lat="43.51344" lon="6.68243">
        <ele>155</ele>
        <time>2025-10-26T09:38:44Z</time>
      </trkpt>
      <trkpt lat="43.51344" lon="6.68241">
        <ele>155.1</ele>
        <time>2025-10-26T09:38:45Z</time>
      </trkpt>
      <trkpt lat="43.51343" lon="6.6824">
        <ele>155.1</ele>
        <time>2025-10-26T09:38:46Z</time>
      </trkpt>
      <trkpt lat="43.51343" lon="6.68238">
        <ele>155.2</ele>
        <time>2025-10-26T09:38:47Z</time>
      </trkpt>
      <trkpt lat="43.51343" lon="6.68237">
        <ele>155.2</ele>
        <time>2025-10-26T09:38:48Z</time>
      </trkpt>
      <trkpt lat="43.51342" lon="6.68236">
        <ele>155.3</ele>
        <time>2025-10-26T09:38:49Z</time>
      </trkpt>
      <trkpt lat="43.51342" lon="6.68234">
        <ele>155.3</ele>
        <time>2025-10-26T09:38:50Z</time>
      </trkpt>
      <trkpt lat="43.51342" lon="6.68233">
        <ele>155.4</ele>
        <time>2025-10-26T09:38:51Z</time>
      </trkpt>
      <trkpt lat="43.51341" lon="6.68232">
        <ele>155.4</ele>
        <time>2025-10-26T09:38:52Z</time>
      </trkpt>
      <trkpt lat="43.5134" lon="6.6823">
        <ele>155.5</ele>
        <time>2025-10-26T09:38:53Z</time>
      </trkpt>
      <trkpt lat="43.51339" lon="6.68229">
        <ele>155.6</ele>
        <time>2025-10-26T09:38:54Z</time>
      </trkpt>
      <trkpt lat="43.5134" lon="6.68228">
        <ele>155.7</ele>
        <time>2025-10-26T09:38:55Z</time>
      </trkpt>
      <trkpt lat="43.51339" lon="6.68226">
        <ele>155.7</ele>
        <time>2025-10-26T09:38:56Z</time>
      </trkpt>
      <trkpt lat="43.51339" lon="6.68224">
        <ele>155.8</ele>
        <time>2025-10-26T09:38:57Z</time>
      </trkpt>
      <trkpt lat="43.51339" lon="6.68223">
        <ele>155.8</ele>
        <time>2025-10-26T09:38:58Z</time>
      </trkpt>
      <trkpt lat="43.51338" lon="6.68222">
        <ele>155.9</ele>
        <time>2025-10-26T09:38:59Z</time>
      </trkpt>
      <trkpt lat="43.51338" lon="6.6822">
        <ele>156</ele>
        <time>2025-10-26T09:39:00Z</time>
      </trkpt>
      <trkpt lat="43.51338" lon="6.68219">
        <ele>156</ele>
        <time>2025-10-26T09:39:01Z</time>
      </trkpt>
      <trkpt lat="43.51338" lon="6.68217">
        <ele>156.1</ele>
        <time>2025-10-26T09:39:02Z</time>
      </trkpt>
      <trkpt lat="43.51339" lon="6.68215">
        <ele>156.1</ele>
        <time>2025-10-26T09:39:03Z</time>
      </trkpt>
      <trkpt lat="43.51339" lon="6.68214">
        <ele>156.3</ele>
        <time>2025-10-26T09:39:04Z</time>
      </trkpt>
      <trkpt lat="43.51339" lon="6.68212">
        <ele>156.4</ele>
        <time>2025-10-26T09:39:05Z</time>
      </trkpt>
      <trkpt lat="43.51339" lon="6.68211">
        <ele>156.5</ele>
        <time>2025-10-26T09:39:06Z</time>
      </trkpt>
      <trkpt lat="43.5134" lon="6.68209">
        <ele>156.5</ele>
        <time>2025-10-26T09:39:07Z</time>
      </trkpt>
      <trkpt lat="43.51339" lon="6.68208">
        <ele>156.6</ele>
        <time>2025-10-26T09:39:08Z</time>
      </trkpt>
      <trkpt lat="43.51339" lon="6.68206">
        <ele>156.7</ele>
        <time>2025-10-26T09:39:09Z</time>
      </trkpt>
      <trkpt lat="43.5134" lon="6.68205">
        <ele>156.8</ele>
        <time>2025-10-26T09:39:10Z</time>
      </trkpt>
      <trkpt lat="43.5134" lon="6.68204">
        <ele>156.7</ele>
        <time>2025-10-26T09:39:11Z</time>
      </trkpt>
      <trkpt lat="43.5134" lon="6.68202">
        <ele>156.8</ele>
        <time>2025-10-26T09:39:12Z</time>
      </trkpt>
      <trkpt lat="43.51341" lon="6.682">
        <ele>156.8</ele>
        <time>2025-10-26T09:39:13Z</time>
      </trkpt>
      <trkpt lat="43.51341" lon="6.68199">
        <ele>156.7</ele>
        <time>2025-10-26T09:39:14Z</time>
      </trkpt>
      <trkpt lat="43.51341" lon="6.68198">
        <ele>156.7</ele>
        <time>2025-10-26T09:39:15Z</time>
      </trkpt>
      <trkpt lat="43.51341" lon="6.68196">
        <ele>156.8</ele>
        <time>2025-10-26T09:39:16Z</time>
      </trkpt>
      <trkpt lat="43.51341" lon="6.68195">
        <ele>156.9</ele>
        <time>2025-10-26T09:39:17Z</time>
      </trkpt>
      <trkpt lat="43.51341" lon="6.68193">
        <ele>157</ele>
        <time>2025-10-26T09:39:18Z</time>
      </trkpt>
      <trkpt lat="43.51342" lon="6.68192">
        <ele>156.9</ele>
        <time>2025-10-26T09:39:19Z</time>
      </trkpt>
      <trkpt lat="43.51342" lon="6.6819">
        <ele>156.9</ele>
        <time>2025-10-26T09:39:20Z</time>
      </trkpt>
      <trkpt lat="43.51343" lon="6.68189">
        <ele>156.9</ele>
        <time>2025-10-26T09:39:21Z</time>
      </trkpt>
      <trkpt lat="43.51343" lon="6.68187">
        <ele>157</ele>
        <time>2025-10-26T09:39:22Z</time>
      </trkpt>
      <trkpt lat="43.51343" lon="6.68186">
        <ele>157</ele>
        <time>2025-10-26T09:39:23Z</time>
      </trkpt>
      <trkpt lat="43.51343" lon="6.68186">
        <ele>157.1</ele>
        <time>2025-10-26T09:39:24Z</time>
      </trkpt>
      <trkpt lat="43.51343" lon="6.68186">
        <ele>157.2</ele>
        <time>2025-10-26T09:39:25Z</time>
      </trkpt>
      <trkpt lat="43.51343" lon="6.68186">
        <ele>157.3</ele>
        <time>2025-10-26T09:39:26Z</time>
      </trkpt>
      <trkpt lat="43.51343" lon="6.68186">
        <ele>157.4</ele>
        <time>2025-10-26T09:39:27Z</time>
      </trkpt>
      <trkpt lat="43.51343" lon="6.68186">
        <ele>157.5</ele>
        <time>2025-10-26T09:39:28Z</time>
      </trkpt>
      <trkpt lat="43.51343" lon="6.68186">
        <ele>157.5</ele>
        <time>2025-10-26T09:39:29Z</time>
      </trkpt>
      <trkpt lat="43.51343" lon="6.68186">
        <ele>157.6</ele>
        <time>2025-10-26T09:39:30Z</time>
      </trkpt>
      <trkpt lat="43.51344" lon="6.68186">
        <ele>157.7</ele>
        <time>2025-10-26T09:39:31Z</time>
      </trkpt>
      <trkpt lat="43.51344" lon="6.68186">
        <ele>157.7</ele>
        <time>2025-10-26T09:39:32Z</time>
      </trkpt>
      <trkpt lat="43.51344" lon="6.68186">
        <ele>157.7</ele>
        <time>2025-10-26T09:39:33Z</time>
      </trkpt>
      <trkpt lat="43.51345" lon="6.68186">
        <ele>157.8</ele>
        <time>2025-10-26T09:39:34Z</time>
      </trkpt>
      <trkpt lat="43.51345" lon="6.68186">
        <ele>157.8</ele>
        <time>2025-10-26T09:39:35Z</time>
      </trkpt>
      <trkpt lat="43.51345" lon="6.68186">
        <ele>157.9</ele>
        <time>2025-10-26T09:39:36Z</time>
      </trkpt>
      <trkpt lat="43.51345" lon="6.68186">
        <ele>157.9</ele>
        <time>2025-10-26T09:39:37Z</time>
      </trkpt>
      <trkpt lat="43.51346" lon="6.68187">
        <ele>157.9</ele>
        <time>2025-10-26T09:39:38Z</time>
      </trkpt>
      <trkpt lat="43.51345" lon="6.68187">
        <ele>157.9</ele>
        <time>2025-10-26T09:39:39Z</time>
      </trkpt>
      <trkpt lat="43.51345" lon="6.68187">
        <ele>157.9</ele>
        <time>2025-10-26T09:39:40Z</time>
      </trkpt>
      <trkpt lat="43.51345" lon="6.68187">
        <ele>157.9</ele>
        <time>2025-10-26T09:39:41Z</time>
      </trkpt>
      <trkpt lat="43.51345" lon="6.68187">
        <ele>157.9</ele>
        <time>2025-10-26T09:39:42Z</time>
      </trkpt>
      <trkpt lat="43.51345" lon="6.68187">
        <ele>157.9</ele>
        <time>2025-10-26T09:39:43Z</time>
      </trkpt>
      <trkpt lat="43.51345" lon="6.68187">
        <ele>157.8</ele>
        <time>2025-10-26T09:39:44Z</time>
      </trkpt>
      <trkpt lat="43.51345" lon="6.68187">
        <ele>157.9</ele>
        <time>2025-10-26T09:39:45Z</time>
      </trkpt>
      <trkpt lat="43.51345" lon="6.68187">
        <ele>157.8</ele>
        <time>2025-10-26T09:39:46Z</time>
      </trkpt>
      <trkpt lat="43.51345" lon="6.68187">
        <ele>157.7</ele>
        <time>2025-10-26T09:39:47Z</time>
      </trkpt>
      <trkpt lat="43.51345" lon="6.68187">
        <ele>157.7</ele>
        <time>2025-10-26T09:39:48Z</time>
      </trkpt>
      <trkpt lat="43.51345" lon="6.68187">
        <ele>157.7</ele>
        <time>2025-10-26T09:39:49Z</time>
      </trkpt>
      <trkpt lat="43.51345" lon="6.68187">
        <ele>157.7</ele>
        <time>2025-10-26T09:39:50Z</time>
      </trkpt>
      <trkpt lat="43.51344" lon="6.68187">
        <ele>157.8</ele>
        <time>2025-10-26T09:39:51Z</time>
      </trkpt>
      <trkpt lat="43.51344" lon="6.68187">
        <ele>157.8</ele>
        <time>2025-10-26T09:39:52Z</time>
      </trkpt>
      <trkpt lat="43.51344" lon="6.68187">
        <ele>157.8</ele>
        <time>2025-10-26T09:39:53Z</time>
      </trkpt>
      <trkpt lat="43.51345" lon="6.68187">
        <ele>157.8</ele>
        <time>2025-10-26T09:39:54Z</time>
      </trkpt>
      <trkpt lat="43.51344" lon="6.68187">
        <ele>157.7</ele>
        <time>2025-10-26T09:39:55Z</time>
      </trkpt>
      <trkpt lat="43.51344" lon="6.68188">
        <ele>157.7</ele>
        <time>2025-10-26T09:39:56Z</time>
      </trkpt>
      <trkpt lat="43.51345" lon="6.68188">
        <ele>157.7</ele>
        <time>2025-10-26T09:39:57Z</time>
      </trkpt>
      <trkpt lat="43.51346" lon="6.68187">
        <ele>157.7</ele>
        <time>2025-10-26T09:39:58Z</time>
      </trkpt>
      <trkpt lat="43.51346" lon="6.68187">
        <ele>157.7</ele>
        <time>2025-10-26T09:39:59Z</time>
      </trkpt>
      <trkpt lat="43.51347" lon="6.68186">
        <ele>157.6</ele>
        <time>2025-10-26T09:40:00Z</time>
      </trkpt>
      <trkpt lat="43.51348" lon="6.68185">
        <ele>157.7</ele>
        <time>2025-10-26T09:40:01Z</time>
      </trkpt>
      <trkpt lat="43.51348" lon="6.68184">
        <ele>157.7</ele>
        <time>2025-10-26T09:40:02Z</time>
      </trkpt>
      <trkpt lat="43.51349" lon="6.68183">
        <ele>157.8</ele>
        <time>2025-10-26T09:40:03Z</time>
      </trkpt>
      <trkpt lat="43.51349" lon="6.68182">
        <ele>157.6</ele>
        <time>2025-10-26T09:40:04Z</time>
      </trkpt>
      <trkpt lat="43.5135" lon="6.68181">
        <ele>157.5</ele>
        <time>2025-10-26T09:40:05Z</time>
      </trkpt>
      <trkpt lat="43.5135" lon="6.6818">
        <ele>157.5</ele>
        <time>2025-10-26T09:40:06Z</time>
      </trkpt>
      <trkpt lat="43.51351" lon="6.68179">
        <ele>157.4</ele>
        <time>2025-10-26T09:40:07Z</time>
      </trkpt>
      <trkpt lat="43.51352" lon="6.68178">
        <ele>157.4</ele>
        <time>2025-10-26T09:40:08Z</time>
      </trkpt>
      <trkpt lat="43.51353" lon="6.68177">
        <ele>157.4</ele>
        <time>2025-10-26T09:40:09Z</time>
      </trkpt>
      <trkpt lat="43.51353" lon="6.68176">
        <ele>157.4</ele>
        <time>2025-10-26T09:40:10Z</time>
      </trkpt>
      <trkpt lat="43.51354" lon="6.68175">
        <ele>157.4</ele>
        <time>2025-10-26T09:40:11Z</time>
      </trkpt>
      <trkpt lat="43.51354" lon="6.68174">
        <ele>157.4</ele>
        <time>2025-10-26T09:40:12Z</time>
      </trkpt>
      <trkpt lat="43.51355" lon="6.68173">
        <ele>157.3</ele>
        <time>2025-10-26T09:40:13Z</time>
      </trkpt>
      <trkpt lat="43.51356" lon="6.68171">
        <ele>157.2</ele>
        <time>2025-10-26T09:40:14Z</time>
      </trkpt>
      <trkpt lat="43.51357" lon="6.6817">
        <ele>157.3</ele>
        <time>2025-10-26T09:40:15Z</time>
      </trkpt>
      <trkpt lat="43.51358" lon="6.68169">
        <ele>157.3</ele>
        <time>2025-10-26T09:40:16Z</time>
      </trkpt>
      <trkpt lat="43.51358" lon="6.68168">
        <ele>157.3</ele>
        <time>2025-10-26T09:40:17Z</time>
      </trkpt>
      <trkpt lat="43.51359" lon="6.68167">
        <ele>157.2</ele>
        <time>2025-10-26T09:40:18Z</time>
      </trkpt>
      <trkpt lat="43.51359" lon="6.68167">
        <ele>157.4</ele>
        <time>2025-10-26T09:40:19Z</time>
      </trkpt>
      <trkpt lat="43.5136" lon="6.68166">
        <ele>157.3</ele>
        <time>2025-10-26T09:40:20Z</time>
      </trkpt>
      <trkpt lat="43.51361" lon="6.68166">
        <ele>157.2</ele>
        <time>2025-10-26T09:40:21Z</time>
      </trkpt>
      <trkpt lat="43.51361" lon="6.68165">
        <ele>157.2</ele>
        <time>2025-10-26T09:40:22Z</time>
      </trkpt>
      <trkpt lat="43.51363" lon="6.68164">
        <ele>157.2</ele>
        <time>2025-10-26T09:40:23Z</time>
      </trkpt>
      <trkpt lat="43.51363" lon="6.68163">
        <ele>157.2</ele>
        <time>2025-10-26T09:40:24Z</time>
      </trkpt>
      <trkpt lat="43.51364" lon="6.68162">
        <ele>157.2</ele>
        <time>2025-10-26T09:40:25Z</time>
      </trkpt>
      <trkpt lat="43.51365" lon="6.68161">
        <ele>157.4</ele>
        <time>2025-10-26T09:40:26Z</time>
      </trkpt>
      <trkpt lat="43.51366" lon="6.68161">
        <ele>157.5</ele>
        <time>2025-10-26T09:40:27Z</time>
      </trkpt>
      <trkpt lat="43.51367" lon="6.6816">
        <ele>157.7</ele>
        <time>2025-10-26T09:40:28Z</time>
      </trkpt>
      <trkpt lat="43.51367" lon="6.68159">
        <ele>157.9</ele>
        <time>2025-10-26T09:40:29Z</time>
      </trkpt>
      <trkpt lat="43.51368" lon="6.68159">
        <ele>157.9</ele>
        <time>2025-10-26T09:40:30Z</time>
      </trkpt>
      <trkpt lat="43.51369" lon="6.68158">
        <ele>158.1</ele>
        <time>2025-10-26T09:40:31Z</time>
      </trkpt>
      <trkpt lat="43.51371" lon="6.68157">
        <ele>158</ele>
        <time>2025-10-26T09:40:32Z</time>
      </trkpt>
      <trkpt lat="43.51372" lon="6.68156">
        <ele>158.1</ele>
        <time>2025-10-26T09:40:33Z</time>
      </trkpt>
      <trkpt lat="43.51372" lon="6.68156">
        <ele>158.1</ele>
        <time>2025-10-26T09:40:34Z</time>
      </trkpt>
      <trkpt lat="43.51373" lon="6.68155">
        <ele>158</ele>
        <time>2025-10-26T09:40:35Z</time>
      </trkpt>
      <trkpt lat="43.51374" lon="6.68154">
        <ele>157.9</ele>
        <time>2025-10-26T09:40:36Z</time>
      </trkpt>
      <trkpt lat="43.51375" lon="6.68154">
        <ele>158</ele>
        <time>2025-10-26T09:40:37Z</time>
      </trkpt>
      <trkpt lat="43.51376" lon="6.68153">
        <ele>158.1</ele>
        <time>2025-10-26T09:40:38Z</time>
      </trkpt>
      <trkpt lat="43.51377" lon="6.68152">
        <ele>158.1</ele>
        <time>2025-10-26T09:40:39Z</time>
      </trkpt>
      <trkpt lat="43.51378" lon="6.68152">
        <ele>158.2</ele>
        <time>2025-10-26T09:40:40Z</time>
      </trkpt>
      <trkpt lat="43.51379" lon="6.68151">
        <ele>158.2</ele>
        <time>2025-10-26T09:40:41Z</time>
      </trkpt>
      <trkpt lat="43.51379" lon="6.68151">
        <ele>158.2</ele>
        <time>2025-10-26T09:40:42Z</time>
      </trkpt>
      <trkpt lat="43.5138" lon="6.6815">
        <ele>158.2</ele>
        <time>2025-10-26T09:40:43Z</time>
      </trkpt>
      <trkpt lat="43.5138" lon="6.6815">
        <ele>158.2</ele>
        <time>2025-10-26T09:40:44Z</time>
      </trkpt>
      <trkpt lat="43.5138" lon="6.6815">
        <ele>158.2</ele>
        <time>2025-10-26T09:40:45Z</time>
      </trkpt>
      <trkpt lat="43.5138" lon="6.6815">
        <ele>158.4</ele>
        <time>2025-10-26T09:40:46Z</time>
      </trkpt>
      <trkpt lat="43.51381" lon="6.6815">
        <ele>158.5</ele>
        <time>2025-10-26T09:40:47Z</time>
      </trkpt>
      <trkpt lat="43.51381" lon="6.6815">
        <ele>158.5</ele>
        <time>2025-10-26T09:40:48Z</time>
      </trkpt>
      <trkpt lat="43.51381" lon="6.68149">
        <ele>158.7</ele>
        <time>2025-10-26T09:40:49Z</time>
      </trkpt>
      <trkpt lat="43.51382" lon="6.68149">
        <ele>158.8</ele>
        <time>2025-10-26T09:40:50Z</time>
      </trkpt>
      <trkpt lat="43.51383" lon="6.68149">
        <ele>159</ele>
        <time>2025-10-26T09:40:51Z</time>
      </trkpt>
      <trkpt lat="43.51383" lon="6.68148">
        <ele>159.2</ele>
        <time>2025-10-26T09:40:52Z</time>
      </trkpt>
      <trkpt lat="43.51384" lon="6.68148">
        <ele>159.3</ele>
        <time>2025-10-26T09:40:53Z</time>
      </trkpt>
      <trkpt lat="43.51385" lon="6.68148">
        <ele>159.5</ele>
        <time>2025-10-26T09:40:54Z</time>
      </trkpt>
      <trkpt lat="43.51386" lon="6.68148">
        <ele>159.6</ele>
        <time>2025-10-26T09:40:55Z</time>
      </trkpt>
      <trkpt lat="43.51386" lon="6.68148">
        <ele>159.7</ele>
        <time>2025-10-26T09:40:56Z</time>
      </trkpt>
      <trkpt lat="43.51387" lon="6.68148">
        <ele>159.8</ele>
        <time>2025-10-26T09:40:57Z</time>
      </trkpt>
      <trkpt lat="43.51389" lon="6.68147">
        <ele>159.8</ele>
        <time>2025-10-26T09:40:58Z</time>
      </trkpt>
      <trkpt lat="43.5139" lon="6.68147">
        <ele>159.7</ele>
        <time>2025-10-26T09:40:59Z</time>
      </trkpt>
      <trkpt lat="43.51391" lon="6.68146">
        <ele>159.7</ele>
        <time>2025-10-26T09:41:00Z</time>
      </trkpt>
      <trkpt lat="43.51393" lon="6.68145">
        <ele>159.7</ele>
        <time>2025-10-26T09:41:01Z</time>
      </trkpt>
      <trkpt lat="43.51394" lon="6.68145">
        <ele>159.7</ele>
        <time>2025-10-26T09:41:02Z</time>
      </trkpt>
      <trkpt lat="43.51395" lon="6.68143">
        <ele>159.9</ele>
        <time>2025-10-26T09:41:03Z</time>
      </trkpt>
      <trkpt lat="43.51396" lon="6.68142">
        <ele>159.9</ele>
        <time>2025-10-26T09:41:04Z</time>
      </trkpt>
      <trkpt lat="43.51397" lon="6.68142">
        <ele>159.9</ele>
        <time>2025-10-26T09:41:05Z</time>
      </trkpt>
      <trkpt lat="43.51397" lon="6.68141">
        <ele>159.9</ele>
        <time>2025-10-26T09:41:06Z</time>
      </trkpt>
      <trkpt lat="43.51398" lon="6.6814">
        <ele>160</ele>
        <time>2025-10-26T09:41:07Z</time>
      </trkpt>
      <trkpt lat="43.51398" lon="6.6814">
        <ele>160.2</ele>
        <time>2025-10-26T09:41:08Z</time>
      </trkpt>
      <trkpt lat="43.51399" lon="6.68139">
        <ele>160.4</ele>
        <time>2025-10-26T09:41:09Z</time>
      </trkpt>
      <trkpt lat="43.514" lon="6.68138">
        <ele>160.6</ele>
        <time>2025-10-26T09:41:10Z</time>
      </trkpt>
      <trkpt lat="43.514" lon="6.68138">
        <ele>160.9</ele>
        <time>2025-10-26T09:41:11Z</time>
      </trkpt>
      <trkpt lat="43.51401" lon="6.68138">
        <ele>161</ele>
        <time>2025-10-26T09:41:12Z</time>
      </trkpt>
      <trkpt lat="43.51402" lon="6.68137">
        <ele>161.2</ele>
        <time>2025-10-26T09:41:13Z</time>
      </trkpt>
      <trkpt lat="43.51404" lon="6.68136">
        <ele>161.4</ele>
        <time>2025-10-26T09:41:14Z</time>
      </trkpt>
      <trkpt lat="43.51405" lon="6.68135">
        <ele>161.5</ele>
        <time>2025-10-26T09:41:15Z</time>
      </trkpt>
      <trkpt lat="43.51407" lon="6.68134">
        <ele>161.7</ele>
        <time>2025-10-26T09:41:16Z</time>
      </trkpt>
      <trkpt lat="43.51408" lon="6.68134">
        <ele>161.9</ele>
        <time>2025-10-26T09:41:17Z</time>
      </trkpt>
      <trkpt lat="43.5141" lon="6.68133">
        <ele>162</ele>
        <time>2025-10-26T09:41:18Z</time>
      </trkpt>
      <trkpt lat="43.5141" lon="6.68132">
        <ele>162.2</ele>
        <time>2025-10-26T09:41:19Z</time>
      </trkpt>
      <trkpt lat="43.51412" lon="6.68131">
        <ele>162.5</ele>
        <time>2025-10-26T09:41:20Z</time>
      </trkpt>
      <trkpt lat="43.51414" lon="6.6813">
        <ele>162.7</ele>
        <time>2025-10-26T09:41:21Z</time>
      </trkpt>
      <trkpt lat="43.51415" lon="6.68129">
        <ele>162.8</ele>
        <time>2025-10-26T09:41:22Z</time>
      </trkpt>
      <trkpt lat="43.51416" lon="6.68128">
        <ele>162.9</ele>
        <time>2025-10-26T09:41:23Z</time>
      </trkpt>
      <trkpt lat="43.51417" lon="6.68128">
        <ele>163</ele>
        <time>2025-10-26T09:41:24Z</time>
      </trkpt>
      <trkpt lat="43.51418" lon="6.68127">
        <ele>163.1</ele>
        <time>2025-10-26T09:41:25Z</time>
      </trkpt>
      <trkpt lat="43.51418" lon="6.68127">
        <ele>163.3</ele>
        <time>2025-10-26T09:41:26Z</time>
      </trkpt>
      <trkpt lat="43.51419" lon="6.68127">
        <ele>163.3</ele>
        <time>2025-10-26T09:41:27Z</time>
      </trkpt>
      <trkpt lat="43.51419" lon="6.68127">
        <ele>163.3</ele>
        <time>2025-10-26T09:41:28Z</time>
      </trkpt>
      <trkpt lat="43.5142" lon="6.68127">
        <ele>163.3</ele>
        <time>2025-10-26T09:41:29Z</time>
      </trkpt>
      <trkpt lat="43.51421" lon="6.68127">
        <ele>163.3</ele>
        <time>2025-10-26T09:41:30Z</time>
      </trkpt>
      <trkpt lat="43.51422" lon="6.68127">
        <ele>163.4</ele>
        <time>2025-10-26T09:41:31Z</time>
      </trkpt>
      <trkpt lat="43.51424" lon="6.68127">
        <ele>163.6</ele>
        <time>2025-10-26T09:41:32Z</time>
      </trkpt>
      <trkpt lat="43.51425" lon="6.68126">
        <ele>163.7</ele>
        <time>2025-10-26T09:41:33Z</time>
      </trkpt>
      <trkpt lat="43.51426" lon="6.68126">
        <ele>163.7</ele>
        <time>2025-10-26T09:41:34Z</time>
      </trkpt>
      <trkpt lat="43.51428" lon="6.68125">
        <ele>163.8</ele>
        <time>2025-10-26T09:41:35Z</time>
      </trkpt>
      <trkpt lat="43.5143" lon="6.68124">
        <ele>163.9</ele>
        <time>2025-10-26T09:41:36Z</time>
      </trkpt>
      <trkpt lat="43.51431" lon="6.68123">
        <ele>163.9</ele>
        <time>2025-10-26T09:41:37Z</time>
      </trkpt>
      <trkpt lat="43.51432" lon="6.68123">
        <ele>164</ele>
        <time>2025-10-26T09:41:38Z</time>
      </trkpt>
      <trkpt lat="43.51433" lon="6.68123">
        <ele>164</ele>
        <time>2025-10-26T09:41:39Z</time>
      </trkpt>
      <trkpt lat="43.51434" lon="6.68123">
        <ele>164</ele>
        <time>2025-10-26T09:41:40Z</time>
      </trkpt>
      <trkpt lat="43.51434" lon="6.68122">
        <ele>164.1</ele>
        <time>2025-10-26T09:41:41Z</time>
      </trkpt>
      <trkpt lat="43.51435" lon="6.68122">
        <ele>164.2</ele>
        <time>2025-10-26T09:41:42Z</time>
      </trkpt>
      <trkpt lat="43.51436" lon="6.68121">
        <ele>164.3</ele>
        <time>2025-10-26T09:41:43Z</time>
      </trkpt>
      <trkpt lat="43.51437" lon="6.68121">
        <ele>164.4</ele>
        <time>2025-10-26T09:41:44Z</time>
      </trkpt>
      <trkpt lat="43.51438" lon="6.68121">
        <ele>164.4</ele>
        <time>2025-10-26T09:41:45Z</time>
      </trkpt>
      <trkpt lat="43.51439" lon="6.6812">
        <ele>164.5</ele>
        <time>2025-10-26T09:41:46Z</time>
      </trkpt>
      <trkpt lat="43.51441" lon="6.68119">
        <ele>164.6</ele>
        <time>2025-10-26T09:41:47Z</time>
      </trkpt>
      <trkpt lat="43.51442" lon="6.68118">
        <ele>164.7</ele>
        <time>2025-10-26T09:41:48Z</time>
      </trkpt>
      <trkpt lat="43.51443" lon="6.68118">
        <ele>164.9</ele>
        <time>2025-10-26T09:41:49Z</time>
      </trkpt>
      <trkpt lat="43.51444" lon="6.68117">
        <ele>165.2</ele>
        <time>2025-10-26T09:41:50Z</time>
      </trkpt>
      <trkpt lat="43.51444" lon="6.68117">
        <ele>165.4</ele>
        <time>2025-10-26T09:41:51Z</time>
      </trkpt>
      <trkpt lat="43.51444" lon="6.68117">
        <ele>165.5</ele>
        <time>2025-10-26T09:41:52Z</time>
      </trkpt>
      <trkpt lat="43.51445" lon="6.68117">
        <ele>165.5</ele>
        <time>2025-10-26T09:41:53Z</time>
      </trkpt>
      <trkpt lat="43.51445" lon="6.68115">
        <ele>165.6</ele>
        <time>2025-10-26T09:41:54Z</time>
      </trkpt>
      <trkpt lat="43.51446" lon="6.68114">
        <ele>165.7</ele>
        <time>2025-10-26T09:41:55Z</time>
      </trkpt>
      <trkpt lat="43.51447" lon="6.68114">
        <ele>165.7</ele>
        <time>2025-10-26T09:41:56Z</time>
      </trkpt>
      <trkpt lat="43.51448" lon="6.68113">
        <ele>165.8</ele>
        <time>2025-10-26T09:41:57Z</time>
      </trkpt>
      <trkpt lat="43.51449" lon="6.68111">
        <ele>165.7</ele>
        <time>2025-10-26T09:41:58Z</time>
      </trkpt>
      <trkpt lat="43.51451" lon="6.6811">
        <ele>165.7</ele>
        <time>2025-10-26T09:41:59Z</time>
      </trkpt>
      <trkpt lat="43.51452" lon="6.68108">
        <ele>165.6</ele>
        <time>2025-10-26T09:42:00Z</time>
      </trkpt>
      <trkpt lat="43.51453" lon="6.68107">
        <ele>165.5</ele>
        <time>2025-10-26T09:42:01Z</time>
      </trkpt>
      <trkpt lat="43.51453" lon="6.68105">
        <ele>165.3</ele>
        <time>2025-10-26T09:42:02Z</time>
      </trkpt>
      <trkpt lat="43.51453" lon="6.68105">
        <ele>165.4</ele>
        <time>2025-10-26T09:42:03Z</time>
      </trkpt>
      <trkpt lat="43.51452" lon="6.68104">
        <ele>165.4</ele>
        <time>2025-10-26T09:42:04Z</time>
      </trkpt>
      <trkpt lat="43.51451" lon="6.68102">
        <ele>165.2</ele>
        <time>2025-10-26T09:42:05Z</time>
      </trkpt>
      <trkpt lat="43.51451" lon="6.68101">
        <ele>165.1</ele>
        <time>2025-10-26T09:42:06Z</time>
      </trkpt>
      <trkpt lat="43.5145" lon="6.681">
        <ele>165.1</ele>
        <time>2025-10-26T09:42:07Z</time>
      </trkpt>
      <trkpt lat="43.51449" lon="6.68099">
        <ele>165.1</ele>
        <time>2025-10-26T09:42:08Z</time>
      </trkpt>
      <trkpt lat="43.51449" lon="6.68099">
        <ele>165.1</ele>
        <time>2025-10-26T09:42:09Z</time>
      </trkpt>
      <trkpt lat="43.51448" lon="6.68098">
        <ele>164.9</ele>
        <time>2025-10-26T09:42:10Z</time>
      </trkpt>
      <trkpt lat="43.51447" lon="6.68097">
        <ele>165</ele>
        <time>2025-10-26T09:42:11Z</time>
      </trkpt>
      <trkpt lat="43.51446" lon="6.68096">
        <ele>165</ele>
        <time>2025-10-26T09:42:12Z</time>
      </trkpt>
      <trkpt lat="43.51446" lon="6.68095">
        <ele>165</ele>
        <time>2025-10-26T09:42:13Z</time>
      </trkpt>
      <trkpt lat="43.51445" lon="6.68095">
        <ele>165</ele>
        <time>2025-10-26T09:42:14Z</time>
      </trkpt>
      <trkpt lat="43.51444" lon="6.68094">
        <ele>165</ele>
        <time>2025-10-26T09:42:15Z</time>
      </trkpt>
      <trkpt lat="43.51444" lon="6.68093">
        <ele>165.1</ele>
        <time>2025-10-26T09:42:16Z</time>
      </trkpt>
      <trkpt lat="43.51443" lon="6.68092">
        <ele>165.1</ele>
        <time>2025-10-26T09:42:17Z</time>
      </trkpt>
      <trkpt lat="43.51442" lon="6.68091">
        <ele>165.1</ele>
        <time>2025-10-26T09:42:18Z</time>
      </trkpt>
      <trkpt lat="43.51441" lon="6.6809">
        <ele>165</ele>
        <time>2025-10-26T09:42:19Z</time>
      </trkpt>
      <trkpt lat="43.51441" lon="6.68089">
        <ele>165</ele>
        <time>2025-10-26T09:42:20Z</time>
      </trkpt>
      <trkpt lat="43.5144" lon="6.68088">
        <ele>164.9</ele>
        <time>2025-10-26T09:42:21Z</time>
      </trkpt>
      <trkpt lat="43.51439" lon="6.68087">
        <ele>164.8</ele>
        <time>2025-10-26T09:42:22Z</time>
      </trkpt>
      <trkpt lat="43.51438" lon="6.68086">
        <ele>164.8</ele>
        <time>2025-10-26T09:42:23Z</time>
      </trkpt>
      <trkpt lat="43.51437" lon="6.68086">
        <ele>164.7</ele>
        <time>2025-10-26T09:42:24Z</time>
      </trkpt>
      <trkpt lat="43.51436" lon="6.68085">
        <ele>164.6</ele>
        <time>2025-10-26T09:42:25Z</time>
      </trkpt>
      <trkpt lat="43.51435" lon="6.68084">
        <ele>164.6</ele>
        <time>2025-10-26T09:42:26Z</time>
      </trkpt>
      <trkpt lat="43.51434" lon="6.68083">
        <ele>164.6</ele>
        <time>2025-10-26T09:42:27Z</time>
      </trkpt>
      <trkpt lat="43.51433" lon="6.68082">
        <ele>164.5</ele>
        <time>2025-10-26T09:42:28Z</time>
      </trkpt>
      <trkpt lat="43.51432" lon="6.68082">
        <ele>164.5</ele>
        <time>2025-10-26T09:42:29Z</time>
      </trkpt>
      <trkpt lat="43.51432" lon="6.68081">
        <ele>164.5</ele>
        <time>2025-10-26T09:42:30Z</time>
      </trkpt>
      <trkpt lat="43.51431" lon="6.6808">
        <ele>164.6</ele>
        <time>2025-10-26T09:42:31Z</time>
      </trkpt>
      <trkpt lat="43.5143" lon="6.68079">
        <ele>164.6</ele>
        <time>2025-10-26T09:42:32Z</time>
      </trkpt>
      <trkpt lat="43.51429" lon="6.68079">
        <ele>164.5</ele>
        <time>2025-10-26T09:42:33Z</time>
      </trkpt>
      <trkpt lat="43.51428" lon="6.68078">
        <ele>164.6</ele>
        <time>2025-10-26T09:42:34Z</time>
      </trkpt>
      <trkpt lat="43.51427" lon="6.68077">
        <ele>164.6</ele>
        <time>2025-10-26T09:42:35Z</time>
      </trkpt>
      <trkpt lat="43.51426" lon="6.68076">
        <ele>164.7</ele>
        <time>2025-10-26T09:42:36Z</time>
      </trkpt>
      <trkpt lat="43.51425" lon="6.68075">
        <ele>164.6</ele>
        <time>2025-10-26T09:42:37Z</time>
      </trkpt>
      <trkpt lat="43.51424" lon="6.68074">
        <ele>164.6</ele>
        <time>2025-10-26T09:42:38Z</time>
      </trkpt>
      <trkpt lat="43.51423" lon="6.68073">
        <ele>164.6</ele>
        <time>2025-10-26T09:42:39Z</time>
      </trkpt>
      <trkpt lat="43.51422" lon="6.68073">
        <ele>164.7</ele>
        <time>2025-10-26T09:42:40Z</time>
      </trkpt>
      <trkpt lat="43.51422" lon="6.68072">
        <ele>164.7</ele>
        <time>2025-10-26T09:42:41Z</time>
      </trkpt>
      <trkpt lat="43.51421" lon="6.6807">
        <ele>164.7</ele>
        <time>2025-10-26T09:42:42Z</time>
      </trkpt>
      <trkpt lat="43.5142" lon="6.68069">
        <ele>164.7</ele>
        <time>2025-10-26T09:42:43Z</time>
      </trkpt>
      <trkpt lat="43.51419" lon="6.68069">
        <ele>164.8</ele>
        <time>2025-10-26T09:42:44Z</time>
      </trkpt>
      <trkpt lat="43.51418" lon="6.68068">
        <ele>164.8</ele>
        <time>2025-10-26T09:42:45Z</time>
      </trkpt>
      <trkpt lat="43.51417" lon="6.68067">
        <ele>164.9</ele>
        <time>2025-10-26T09:42:46Z</time>
      </trkpt>
      <trkpt lat="43.51416" lon="6.68066">
        <ele>164.9</ele>
        <time>2025-10-26T09:42:47Z</time>
      </trkpt>
      <trkpt lat="43.51415" lon="6.68065">
        <ele>164.9</ele>
        <time>2025-10-26T09:42:48Z</time>
      </trkpt>
      <trkpt lat="43.51414" lon="6.68064">
        <ele>164.9</ele>
        <time>2025-10-26T09:42:49Z</time>
      </trkpt>
      <trkpt lat="43.51413" lon="6.68063">
        <ele>164.8</ele>
        <time>2025-10-26T09:42:50Z</time>
      </trkpt>
      <trkpt lat="43.51412" lon="6.68062">
        <ele>164.8</ele>
        <time>2025-10-26T09:42:51Z</time>
      </trkpt>
      <trkpt lat="43.51411" lon="6.68061">
        <ele>164.8</ele>
        <time>2025-10-26T09:42:52Z</time>
      </trkpt>
      <trkpt lat="43.5141" lon="6.6806">
        <ele>164.7</ele>
        <time>2025-10-26T09:42:53Z</time>
      </trkpt>
      <trkpt lat="43.51409" lon="6.68059">
        <ele>164.6</ele>
        <time>2025-10-26T09:42:54Z</time>
      </trkpt>
      <trkpt lat="43.51408" lon="6.68058">
        <ele>164.5</ele>
        <time>2025-10-26T09:42:55Z</time>
      </trkpt>
      <trkpt lat="43.51407" lon="6.68058">
        <ele>164.5</ele>
        <time>2025-10-26T09:42:56Z</time>
      </trkpt>
      <trkpt lat="43.51406" lon="6.68057">
        <ele>164.4</ele>
        <time>2025-10-26T09:42:57Z</time>
      </trkpt>
      <trkpt lat="43.51406" lon="6.68056">
        <ele>164.4</ele>
        <time>2025-10-26T09:42:58Z</time>
      </trkpt>
      <trkpt lat="43.51405" lon="6.68054">
        <ele>164.4</ele>
        <time>2025-10-26T09:42:59Z</time>
      </trkpt>
      <trkpt lat="43.51404" lon="6.68053">
        <ele>164.4</ele>
        <time>2025-10-26T09:43:00Z</time>
      </trkpt>
      <trkpt lat="43.51403" lon="6.68053">
        <ele>164.4</ele>
        <time>2025-10-26T09:43:01Z</time>
      </trkpt>
      <trkpt lat="43.51402" lon="6.68051">
        <ele>164.5</ele>
        <time>2025-10-26T09:43:02Z</time>
      </trkpt>
      <trkpt lat="43.51401" lon="6.68051">
        <ele>164.6</ele>
        <time>2025-10-26T09:43:03Z</time>
      </trkpt>
      <trkpt lat="43.514" lon="6.6805">
        <ele>164.6</ele>
        <time>2025-10-26T09:43:04Z</time>
      </trkpt>
      <trkpt lat="43.51399" lon="6.68048">
        <ele>164.6</ele>
        <time>2025-10-26T09:43:05Z</time>
      </trkpt>
      <trkpt lat="43.51398" lon="6.68047">
        <ele>164.7</ele>
        <time>2025-10-26T09:43:06Z</time>
      </trkpt>
      <trkpt lat="43.51397" lon="6.68046">
        <ele>164.7</ele>
        <time>2025-10-26T09:43:07Z</time>
      </trkpt>
      <trkpt lat="43.51396" lon="6.68046">
        <ele>164.6</ele>
        <time>2025-10-26T09:43:08Z</time>
      </trkpt>
      <trkpt lat="43.51395" lon="6.68045">
        <ele>164.6</ele>
        <time>2025-10-26T09:43:09Z</time>
      </trkpt>
      <trkpt lat="43.51395" lon="6.68044">
        <ele>164.6</ele>
        <time>2025-10-26T09:43:10Z</time>
      </trkpt>
      <trkpt lat="43.51394" lon="6.68042">
        <ele>164.7</ele>
        <time>2025-10-26T09:43:11Z</time>
      </trkpt>
      <trkpt lat="43.51393" lon="6.68041">
        <ele>164.7</ele>
        <time>2025-10-26T09:43:12Z</time>
      </trkpt>
      <trkpt lat="43.51392" lon="6.6804">
        <ele>164.7</ele>
        <time>2025-10-26T09:43:13Z</time>
      </trkpt>
      <trkpt lat="43.51391" lon="6.68038">
        <ele>164.7</ele>
        <time>2025-10-26T09:43:14Z</time>
      </trkpt>
      <trkpt lat="43.5139" lon="6.68036">
        <ele>164.6</ele>
        <time>2025-10-26T09:43:15Z</time>
      </trkpt>
      <trkpt lat="43.5139" lon="6.68035">
        <ele>164.6</ele>
        <time>2025-10-26T09:43:16Z</time>
      </trkpt>
      <trkpt lat="43.51389" lon="6.68034">
        <ele>164.6</ele>
        <time>2025-10-26T09:43:17Z</time>
      </trkpt>
      <trkpt lat="43.51389" lon="6.68032">
        <ele>164.6</ele>
        <time>2025-10-26T09:43:18Z</time>
      </trkpt>
      <trkpt lat="43.51389" lon="6.6803">
        <ele>164.5</ele>
        <time>2025-10-26T09:43:19Z</time>
      </trkpt>
      <trkpt lat="43.51388" lon="6.68028">
        <ele>164.7</ele>
        <time>2025-10-26T09:43:20Z</time>
      </trkpt>
      <trkpt lat="43.51388" lon="6.68027">
        <ele>164.7</ele>
        <time>2025-10-26T09:43:21Z</time>
      </trkpt>
      <trkpt lat="43.51388" lon="6.68025">
        <ele>164.7</ele>
        <time>2025-10-26T09:43:22Z</time>
      </trkpt>
      <trkpt lat="43.51388" lon="6.68023">
        <ele>164.8</ele>
        <time>2025-10-26T09:43:23Z</time>
      </trkpt>
      <trkpt lat="43.51387" lon="6.68022">
        <ele>164.8</ele>
        <time>2025-10-26T09:43:24Z</time>
      </trkpt>
      <trkpt lat="43.51387" lon="6.6802">
        <ele>164.9</ele>
        <time>2025-10-26T09:43:25Z</time>
      </trkpt>
      <trkpt lat="43.51386" lon="6.68019">
        <ele>164.9</ele>
        <time>2025-10-26T09:43:26Z</time>
      </trkpt>
      <trkpt lat="43.51386" lon="6.68018">
        <ele>164.9</ele>
        <time>2025-10-26T09:43:27Z</time>
      </trkpt>
      <trkpt lat="43.51385" lon="6.68016">
        <ele>165</ele>
        <time>2025-10-26T09:43:28Z</time>
      </trkpt>
      <trkpt lat="43.51385" lon="6.68015">
        <ele>165.1</ele>
        <time>2025-10-26T09:43:29Z</time>
      </trkpt>
      <trkpt lat="43.51384" lon="6.68014">
        <ele>165.1</ele>
        <time>2025-10-26T09:43:30Z</time>
      </trkpt>
      <trkpt lat="43.51384" lon="6.68013">
        <ele>165.1</ele>
        <time>2025-10-26T09:43:31Z</time>
      </trkpt>
      <trkpt lat="43.51384" lon="6.68011">
        <ele>165</ele>
        <time>2025-10-26T09:43:32Z</time>
      </trkpt>
      <trkpt lat="43.51383" lon="6.6801">
        <ele>165</ele>
        <time>2025-10-26T09:43:33Z</time>
      </trkpt>
      <trkpt lat="43.51383" lon="6.68008">
        <ele>165.1</ele>
        <time>2025-10-26T09:43:34Z</time>
      </trkpt>
      <trkpt lat="43.51382" lon="6.68007">
        <ele>165.2</ele>
        <time>2025-10-26T09:43:35Z</time>
      </trkpt>
      <trkpt lat="43.51381" lon="6.68006">
        <ele>165.3</ele>
        <time>2025-10-26T09:43:36Z</time>
      </trkpt>
      <trkpt lat="43.51381" lon="6.68005">
        <ele>165.3</ele>
        <time>2025-10-26T09:43:37Z</time>
      </trkpt>
      <trkpt lat="43.5138" lon="6.68004">
        <ele>165.3</ele>
        <time>2025-10-26T09:43:38Z</time>
      </trkpt>
      <trkpt lat="43.51379" lon="6.68003">
        <ele>165.4</ele>
        <time>2025-10-26T09:43:39Z</time>
      </trkpt>
      <trkpt lat="43.51379" lon="6.68002">
        <ele>165.4</ele>
        <time>2025-10-26T09:43:40Z</time>
      </trkpt>
      <trkpt lat="43.51378" lon="6.68001">
        <ele>165.5</ele>
        <time>2025-10-26T09:43:41Z</time>
      </trkpt>
      <trkpt lat="43.51377" lon="6.68001">
        <ele>165.6</ele>
        <time>2025-10-26T09:43:42Z</time>
      </trkpt>
      <trkpt lat="43.51377" lon="6.68001">
        <ele>165.6</ele>
        <time>2025-10-26T09:43:43Z</time>
      </trkpt>
      <trkpt lat="43.51376" lon="6.68">
        <ele>165.7</ele>
        <time>2025-10-26T09:43:44Z</time>
      </trkpt>
      <trkpt lat="43.51375" lon="6.68">
        <ele>165.7</ele>
        <time>2025-10-26T09:43:45Z</time>
      </trkpt>
      <trkpt lat="43.51374" lon="6.68">
        <ele>165.7</ele>
        <time>2025-10-26T09:43:46Z</time>
      </trkpt>
      <trkpt lat="43.51374" lon="6.67999">
        <ele>165.7</ele>
        <time>2025-10-26T09:43:47Z</time>
      </trkpt>
      <trkpt lat="43.51373" lon="6.67999">
        <ele>165.7</ele>
        <time>2025-10-26T09:43:48Z</time>
      </trkpt>
      <trkpt lat="43.51372" lon="6.67999">
        <ele>165.7</ele>
        <time>2025-10-26T09:43:49Z</time>
      </trkpt>
      <trkpt lat="43.51371" lon="6.67999">
        <ele>165.7</ele>
        <time>2025-10-26T09:43:50Z</time>
      </trkpt>
      <trkpt lat="43.5137" lon="6.67999">
        <ele>165.8</ele>
        <time>2025-10-26T09:43:51Z</time>
      </trkpt>
      <trkpt lat="43.51369" lon="6.67998">
        <ele>165.8</ele>
        <time>2025-10-26T09:43:52Z</time>
      </trkpt>
      <trkpt lat="43.51368" lon="6.67998">
        <ele>165.7</ele>
        <time>2025-10-26T09:43:53Z</time>
      </trkpt>
      <trkpt lat="43.51367" lon="6.67997">
        <ele>165.7</ele>
        <time>2025-10-26T09:43:54Z</time>
      </trkpt>
      <trkpt lat="43.51366" lon="6.67997">
        <ele>165.7</ele>
        <time>2025-10-26T09:43:55Z</time>
      </trkpt>
      <trkpt lat="43.51365" lon="6.67996">
        <ele>165.7</ele>
        <time>2025-10-26T09:43:56Z</time>
      </trkpt>
      <trkpt lat="43.51364" lon="6.67996">
        <ele>165.6</ele>
        <time>2025-10-26T09:43:57Z</time>
      </trkpt>
      <trkpt lat="43.51363" lon="6.67995">
        <ele>165.5</ele>
        <time>2025-10-26T09:43:58Z</time>
      </trkpt>
      <trkpt lat="43.51362" lon="6.67995">
        <ele>165.4</ele>
        <time>2025-10-26T09:43:59Z</time>
      </trkpt>
      <trkpt lat="43.51361" lon="6.67995">
        <ele>165.3</ele>
        <time>2025-10-26T09:44:00Z</time>
      </trkpt>
      <trkpt lat="43.5136" lon="6.67995">
        <ele>165.4</ele>
        <time>2025-10-26T09:44:01Z</time>
      </trkpt>
      <trkpt lat="43.51359" lon="6.67995">
        <ele>165.3</ele>
        <time>2025-10-26T09:44:02Z</time>
      </trkpt>
      <trkpt lat="43.51359" lon="6.67995">
        <ele>165.3</ele>
        <time>2025-10-26T09:44:03Z</time>
      </trkpt>
      <trkpt lat="43.51358" lon="6.67996">
        <ele>165.2</ele>
        <time>2025-10-26T09:44:04Z</time>
      </trkpt>
      <trkpt lat="43.51357" lon="6.67995">
        <ele>165.3</ele>
        <time>2025-10-26T09:44:05Z</time>
      </trkpt>
      <trkpt lat="43.51356" lon="6.67996">
        <ele>165.3</ele>
        <time>2025-10-26T09:44:06Z</time>
      </trkpt>
      <trkpt lat="43.51355" lon="6.67997">
        <ele>165.4</ele>
        <time>2025-10-26T09:44:07Z</time>
      </trkpt>
      <trkpt lat="43.51354" lon="6.67997">
        <ele>165.3</ele>
        <time>2025-10-26T09:44:08Z</time>
      </trkpt>
      <trkpt lat="43.51353" lon="6.67998">
        <ele>165.3</ele>
        <time>2025-10-26T09:44:09Z</time>
      </trkpt>
      <trkpt lat="43.51352" lon="6.67998">
        <ele>165.3</ele>
        <time>2025-10-26T09:44:10Z</time>
      </trkpt>
      <trkpt lat="43.51352" lon="6.67999">
        <ele>165.3</ele>
        <time>2025-10-26T09:44:11Z</time>
      </trkpt>
      <trkpt lat="43.5135" lon="6.67999">
        <ele>165.4</ele>
        <time>2025-10-26T09:44:12Z</time>
      </trkpt>
      <trkpt lat="43.5135" lon="6.67999">
        <ele>165.4</ele>
        <time>2025-10-26T09:44:13Z</time>
      </trkpt>
      <trkpt lat="43.51348" lon="6.67998">
        <ele>165.3</ele>
        <time>2025-10-26T09:44:14Z</time>
      </trkpt>
      <trkpt lat="43.51347" lon="6.67998">
        <ele>165.2</ele>
        <time>2025-10-26T09:44:15Z</time>
      </trkpt>
      <trkpt lat="43.51347" lon="6.67998">
        <ele>165</ele>
        <time>2025-10-26T09:44:16Z</time>
      </trkpt>
      <trkpt lat="43.51347" lon="6.67997">
        <ele>165</ele>
        <time>2025-10-26T09:44:17Z</time>
      </trkpt>
      <trkpt lat="43.51347" lon="6.67998">
        <ele>165</ele>
        <time>2025-10-26T09:44:18Z</time>
      </trkpt>
      <trkpt lat="43.51346" lon="6.67999">
        <ele>164.9</ele>
        <time>2025-10-26T09:44:19Z</time>
      </trkpt>
      <trkpt lat="43.51346" lon="6.67999">
        <ele>164.9</ele>
        <time>2025-10-26T09:44:20Z</time>
      </trkpt>
      <trkpt lat="43.51346" lon="6.68">
        <ele>164.9</ele>
        <time>2025-10-26T09:44:21Z</time>
      </trkpt>
      <trkpt lat="43.51346" lon="6.68">
        <ele>165</ele>
        <time>2025-10-26T09:44:22Z</time>
      </trkpt>
      <trkpt lat="43.51346" lon="6.68001">
        <ele>165.3</ele>
        <time>2025-10-26T09:44:23Z</time>
      </trkpt>
      <trkpt lat="43.51346" lon="6.68001">
        <ele>165.5</ele>
        <time>2025-10-26T09:44:24Z</time>
      </trkpt>
      <trkpt lat="43.51346" lon="6.68001">
        <ele>165.8</ele>
        <time>2025-10-26T09:44:25Z</time>
      </trkpt>
      <trkpt lat="43.51346" lon="6.68001">
        <ele>165.9</ele>
        <time>2025-10-26T09:44:26Z</time>
      </trkpt>
      <trkpt lat="43.51346" lon="6.68001">
        <ele>166.1</ele>
        <time>2025-10-26T09:44:27Z</time>
      </trkpt>
      <trkpt lat="43.51346" lon="6.68001">
        <ele>166.1</ele>
        <time>2025-10-26T09:44:28Z</time>
      </trkpt>
      <trkpt lat="43.51346" lon="6.68001">
        <ele>166.2</ele>
        <time>2025-10-26T09:44:29Z</time>
      </trkpt>
      <trkpt lat="43.51346" lon="6.68001">
        <ele>166.2</ele>
        <time>2025-10-26T09:44:30Z</time>
      </trkpt>
      <trkpt lat="43.51347" lon="6.68001">
        <ele>166.1</ele>
        <time>2025-10-26T09:44:31Z</time>
      </trkpt>
      <trkpt lat="43.51346" lon="6.68001">
        <ele>166</ele>
        <time>2025-10-26T09:44:32Z</time>
      </trkpt>
      <trkpt lat="43.51346" lon="6.68001">
        <ele>166</ele>
        <time>2025-10-26T09:44:33Z</time>
      </trkpt>
      <trkpt lat="43.51346" lon="6.68002">
        <ele>165.9</ele>
        <time>2025-10-26T09:44:34Z</time>
      </trkpt>
      <trkpt lat="43.51346" lon="6.68002">
        <ele>165.8</ele>
        <time>2025-10-26T09:44:35Z</time>
      </trkpt>
      <trkpt lat="43.51346" lon="6.68002">
        <ele>165.7</ele>
        <time>2025-10-26T09:44:36Z</time>
      </trkpt>
      <trkpt lat="43.51347" lon="6.68002">
        <ele>165.7</ele>
        <time>2025-10-26T09:44:37Z</time>
      </trkpt>
      <trkpt lat="43.51347" lon="6.68003">
        <ele>165.6</ele>
        <time>2025-10-26T09:44:38Z</time>
      </trkpt>
      <trkpt lat="43.51347" lon="6.68003">
        <ele>165.6</ele>
        <time>2025-10-26T09:44:39Z</time>
      </trkpt>
      <trkpt lat="43.51346" lon="6.68003">
        <ele>165.5</ele>
        <time>2025-10-26T09:44:40Z</time>
      </trkpt>
      <trkpt lat="43.51346" lon="6.68003">
        <ele>165.5</ele>
        <time>2025-10-26T09:44:41Z</time>
      </trkpt>
      <trkpt lat="43.51346" lon="6.68003">
        <ele>165.3</ele>
        <time>2025-10-26T09:44:42Z</time>
      </trkpt>
      <trkpt lat="43.51345" lon="6.68003">
        <ele>165.2</ele>
        <time>2025-10-26T09:44:43Z</time>
      </trkpt>
      <trkpt lat="43.51345" lon="6.68004">
        <ele>165.1</ele>
        <time>2025-10-26T09:44:44Z</time>
      </trkpt>
      <trkpt lat="43.51345" lon="6.68004">
        <ele>165.2</ele>
        <time>2025-10-26T09:44:45Z</time>
      </trkpt>
      <trkpt lat="43.51345" lon="6.68004">
        <ele>165.2</ele>
        <time>2025-10-26T09:44:46Z</time>
      </trkpt>
      <trkpt lat="43.51345" lon="6.68004">
        <ele>165.4</ele>
        <time>2025-10-26T09:44:47Z</time>
      </trkpt>
      <trkpt lat="43.51345" lon="6.68004">
        <ele>165.5</ele>
        <time>2025-10-26T09:44:48Z</time>
      </trkpt>
      <trkpt lat="43.51345" lon="6.68004">
        <ele>165.5</ele>
        <time>2025-10-26T09:44:49Z</time>
      </trkpt>
      <trkpt lat="43.51345" lon="6.68004">
        <ele>165.6</ele>
        <time>2025-10-26T09:44:50Z</time>
      </trkpt>
      <trkpt lat="43.51345" lon="6.68004">
        <ele>165.7</ele>
        <time>2025-10-26T09:44:51Z</time>
      </trkpt>
      <trkpt lat="43.51345" lon="6.68005">
        <ele>165.7</ele>
        <time>2025-10-26T09:44:52Z</time>
      </trkpt>
      <trkpt lat="43.51345" lon="6.68005">
        <ele>165.7</ele>
        <time>2025-10-26T09:44:53Z</time>
      </trkpt>
      <trkpt lat="43.51346" lon="6.68005">
        <ele>165.6</ele>
        <time>2025-10-26T09:44:54Z</time>
      </trkpt>
      <trkpt lat="43.51346" lon="6.68005">
        <ele>165.6</ele>
        <time>2025-10-26T09:44:55Z</time>
      </trkpt>
      <trkpt lat="43.51346" lon="6.68005">
        <ele>165.7</ele>
        <time>2025-10-26T09:44:56Z</time>
      </trkpt>
      <trkpt lat="43.51346" lon="6.68005">
        <ele>165.8</ele>
        <time>2025-10-26T09:44:57Z</time>
      </trkpt>
      <trkpt lat="43.51346" lon="6.68005">
        <ele>165.8</ele>
        <time>2025-10-26T09:44:58Z</time>
      </trkpt>
      <trkpt lat="43.51346" lon="6.68005">
        <ele>165.8</ele>
        <time>2025-10-26T09:44:59Z</time>
      </trkpt>
      <trkpt lat="43.51346" lon="6.68005">
        <ele>165.8</ele>
        <time>2025-10-26T09:45:00Z</time>
      </trkpt>
      <trkpt lat="43.51346" lon="6.68005">
        <ele>165.8</ele>
        <time>2025-10-26T09:45:01Z</time>
      </trkpt>
      <trkpt lat="43.51346" lon="6.68005">
        <ele>165.8</ele>
        <time>2025-10-26T09:45:02Z</time>
      </trkpt>
      <trkpt lat="43.51346" lon="6.68005">
        <ele>165.8</ele>
        <time>2025-10-26T09:45:03Z</time>
      </trkpt>
      <trkpt lat="43.51345" lon="6.68005">
        <ele>165.6</ele>
        <time>2025-10-26T09:45:04Z</time>
      </trkpt>
      <trkpt lat="43.51345" lon="6.68005">
        <ele>165.6</ele>
        <time>2025-10-26T09:45:05Z</time>
      </trkpt>
      <trkpt lat="43.51345" lon="6.68005">
        <ele>165.6</ele>
        <time>2025-10-26T09:45:06Z</time>
      </trkpt>
      <trkpt lat="43.51345" lon="6.68005">
        <ele>165.6</ele>
        <time>2025-10-26T09:45:07Z</time>
      </trkpt>
      <trkpt lat="43.51345" lon="6.68005">
        <ele>165.5</ele>
        <time>2025-10-26T09:45:08Z</time>
      </trkpt>
      <trkpt lat="43.51345" lon="6.68005">
        <ele>165.6</ele>
        <time>2025-10-26T09:45:09Z</time>
      </trkpt>
      <trkpt lat="43.51345" lon="6.68005">
        <ele>165.6</ele>
        <time>2025-10-26T09:45:10Z</time>
      </trkpt>
      <trkpt lat="43.51346" lon="6.68005">
        <ele>165.6</ele>
        <time>2025-10-26T09:45:11Z</time>
      </trkpt>
      <trkpt lat="43.51346" lon="6.68005">
        <ele>165.6</ele>
        <time>2025-10-26T09:45:12Z</time>
      </trkpt>
      <trkpt lat="43.51346" lon="6.68005">
        <ele>165.7</ele>
        <time>2025-10-26T09:45:13Z</time>
      </trkpt>
      <trkpt lat="43.51346" lon="6.68005">
        <ele>165.6</ele>
        <time>2025-10-26T09:45:14Z</time>
      </trkpt>
      <trkpt lat="43.51346" lon="6.68005">
        <ele>165.6</ele>
        <time>2025-10-26T09:45:15Z</time>
      </trkpt>
      <trkpt lat="43.51347" lon="6.68005">
        <ele>165.5</ele>
        <time>2025-10-26T09:45:16Z</time>
      </trkpt>
      <trkpt lat="43.51347" lon="6.68005">
        <ele>165.4</ele>
        <time>2025-10-26T09:45:17Z</time>
      </trkpt>
      <trkpt lat="43.51347" lon="6.68005">
        <ele>165.4</ele>
        <time>2025-10-26T09:45:18Z</time>
      </trkpt>
      <trkpt lat="43.51347" lon="6.68005">
        <ele>165.3</ele>
        <time>2025-10-26T09:45:19Z</time>
      </trkpt>
      <trkpt lat="43.51347" lon="6.68006">
        <ele>165.2</ele>
        <time>2025-10-26T09:45:20Z</time>
      </trkpt>
      <trkpt lat="43.51348" lon="6.68006">
        <ele>165.1</ele>
        <time>2025-10-26T09:45:21Z</time>
      </trkpt>
      <trkpt lat="43.51348" lon="6.68006">
        <ele>165.1</ele>
        <time>2025-10-26T09:45:22Z</time>
      </trkpt>
      <trkpt lat="43.51348" lon="6.68006">
        <ele>165</ele>
        <time>2025-10-26T09:45:23Z</time>
      </trkpt>
      <trkpt lat="43.51348" lon="6.68006">
        <ele>165.1</ele>
        <time>2025-10-26T09:45:24Z</time>
      </trkpt>
      <trkpt lat="43.51348" lon="6.68006">
        <ele>165.2</ele>
        <time>2025-10-26T09:45:25Z</time>
      </trkpt>
      <trkpt lat="43.51348" lon="6.68006">
        <ele>165.2</ele>
        <time>2025-10-26T09:45:26Z</time>
      </trkpt>
      <trkpt lat="43.51348" lon="6.68006">
        <ele>165.3</ele>
        <time>2025-10-26T09:45:27Z</time>
      </trkpt>
      <trkpt lat="43.51347" lon="6.68006">
        <ele>165.2</ele>
        <time>2025-10-26T09:45:28Z</time>
      </trkpt>
      <trkpt lat="43.51347" lon="6.68006">
        <ele>165.1</ele>
        <time>2025-10-26T09:45:29Z</time>
      </trkpt>
      <trkpt lat="43.51347" lon="6.68006">
        <ele>165.1</ele>
        <time>2025-10-26T09:45:30Z</time>
      </trkpt>
      <trkpt lat="43.51347" lon="6.68006">
        <ele>165.2</ele>
        <time>2025-10-26T09:45:31Z</time>
      </trkpt>
      <trkpt lat="43.51346" lon="6.68006">
        <ele>165.3</ele>
        <time>2025-10-26T09:45:32Z</time>
      </trkpt>
      <trkpt lat="43.51346" lon="6.68006">
        <ele>165.3</ele>
        <time>2025-10-26T09:45:33Z</time>
      </trkpt>
      <trkpt lat="43.51346" lon="6.68006">
        <ele>165.3</ele>
        <time>2025-10-26T09:45:34Z</time>
      </trkpt>
      <trkpt lat="43.51346" lon="6.68006">
        <ele>165.5</ele>
        <time>2025-10-26T09:45:35Z</time>
      </trkpt>
      <trkpt lat="43.51346" lon="6.68006">
        <ele>165.5</ele>
        <time>2025-10-26T09:45:36Z</time>
      </trkpt>
      <trkpt lat="43.51346" lon="6.68006">
        <ele>165.6</ele>
        <time>2025-10-26T09:45:37Z</time>
      </trkpt>
      <trkpt lat="43.51346" lon="6.68006">
        <ele>165.6</ele>
        <time>2025-10-26T09:45:38Z</time>
      </trkpt>
      <trkpt lat="43.51345" lon="6.68006">
        <ele>165.6</ele>
        <time>2025-10-26T09:45:39Z</time>
      </trkpt>
      <trkpt lat="43.51345" lon="6.68006">
        <ele>165.7</ele>
        <time>2025-10-26T09:45:40Z</time>
      </trkpt>
      <trkpt lat="43.51345" lon="6.68006">
        <ele>165.5</ele>
        <time>2025-10-26T09:45:41Z</time>
      </trkpt>
      <trkpt lat="43.51344" lon="6.68006">
        <ele>165.4</ele>
        <time>2025-10-26T09:45:42Z</time>
      </trkpt>
      <trkpt lat="43.51344" lon="6.68006">
        <ele>165.2</ele>
        <time>2025-10-26T09:45:43Z</time>
      </trkpt>
      <trkpt lat="43.51344" lon="6.68006">
        <ele>165.1</ele>
        <time>2025-10-26T09:45:44Z</time>
      </trkpt>
      <trkpt lat="43.51344" lon="6.68006">
        <ele>165</ele>
        <time>2025-10-26T09:45:45Z</time>
      </trkpt>
      <trkpt lat="43.51343" lon="6.68006">
        <ele>164.9</ele>
        <time>2025-10-26T09:45:46Z</time>
      </trkpt>
      <trkpt lat="43.51343" lon="6.68006">
        <ele>164.9</ele>
        <time>2025-10-26T09:45:47Z</time>
      </trkpt>
      <trkpt lat="43.51343" lon="6.68006">
        <ele>164.9</ele>
        <time>2025-10-26T09:45:48Z</time>
      </trkpt>
      <trkpt lat="43.51343" lon="6.68006">
        <ele>165</ele>
        <time>2025-10-26T09:45:49Z</time>
      </trkpt>
      <trkpt lat="43.51343" lon="6.68006">
        <ele>165</ele>
        <time>2025-10-26T09:45:50Z</time>
      </trkpt>
      <trkpt lat="43.51343" lon="6.68006">
        <ele>165.1</ele>
        <time>2025-10-26T09:45:51Z</time>
      </trkpt>
      <trkpt lat="43.51343" lon="6.68006">
        <ele>165.2</ele>
        <time>2025-10-26T09:45:52Z</time>
      </trkpt>
      <trkpt lat="43.51343" lon="6.68006">
        <ele>165.2</ele>
        <time>2025-10-26T09:45:53Z</time>
      </trkpt>
      <trkpt lat="43.51343" lon="6.68006">
        <ele>165.4</ele>
        <time>2025-10-26T09:45:54Z</time>
      </trkpt>
      <trkpt lat="43.51343" lon="6.68006">
        <ele>165.5</ele>
        <time>2025-10-26T09:45:55Z</time>
      </trkpt>
      <trkpt lat="43.51343" lon="6.68005">
        <ele>165.5</ele>
        <time>2025-10-26T09:45:56Z</time>
      </trkpt>
      <trkpt lat="43.51344" lon="6.68005">
        <ele>165.6</ele>
        <time>2025-10-26T09:45:57Z</time>
      </trkpt>
      <trkpt lat="43.51344" lon="6.68005">
        <ele>165.6</ele>
        <time>2025-10-26T09:45:58Z</time>
      </trkpt>
      <trkpt lat="43.51343" lon="6.68005">
        <ele>165.7</ele>
        <time>2025-10-26T09:45:59Z</time>
      </trkpt>
      <trkpt lat="43.51344" lon="6.68005">
        <ele>165.6</ele>
        <time>2025-10-26T09:46:00Z</time>
      </trkpt>
      <trkpt lat="43.51344" lon="6.68005">
        <ele>165.6</ele>
        <time>2025-10-26T09:46:01Z</time>
      </trkpt>
      <trkpt lat="43.51344" lon="6.68005">
        <ele>165.7</ele>
        <time>2025-10-26T09:46:02Z</time>
      </trkpt>
      <trkpt lat="43.51344" lon="6.68005">
        <ele>165.7</ele>
        <time>2025-10-26T09:46:03Z</time>
      </trkpt>
      <trkpt lat="43.51344" lon="6.68005">
        <ele>165.6</ele>
        <time>2025-10-26T09:46:04Z</time>
      </trkpt>
      <trkpt lat="43.51344" lon="6.68005">
        <ele>165.6</ele>
        <time>2025-10-26T09:46:05Z</time>
      </trkpt>
      <trkpt lat="43.51344" lon="6.68005">
        <ele>165.6</ele>
        <time>2025-10-26T09:46:06Z</time>
      </trkpt>
      <trkpt lat="43.51344" lon="6.68005">
        <ele>165.6</ele>
        <time>2025-10-26T09:46:07Z</time>
      </trkpt>
      <trkpt lat="43.51344" lon="6.68005">
        <ele>165.5</ele>
        <time>2025-10-26T09:46:08Z</time>
      </trkpt>
      <trkpt lat="43.51344" lon="6.68005">
        <ele>165.5</ele>
        <time>2025-10-26T09:46:09Z</time>
      </trkpt>
      <trkpt lat="43.51344" lon="6.68005">
        <ele>165.4</ele>
        <time>2025-10-26T09:46:10Z</time>
      </trkpt>
      <trkpt lat="43.51344" lon="6.68005">
        <ele>165.2</ele>
        <time>2025-10-26T09:46:11Z</time>
      </trkpt>
      <trkpt lat="43.51344" lon="6.68005">
        <ele>165.1</ele>
        <time>2025-10-26T09:46:12Z</time>
      </trkpt>
      <trkpt lat="43.51344" lon="6.68005">
        <ele>164.9</ele>
        <time>2025-10-26T09:46:13Z</time>
      </trkpt>
      <trkpt lat="43.51344" lon="6.68005">
        <ele>164.8</ele>
        <time>2025-10-26T09:46:14Z</time>
      </trkpt>
      <trkpt lat="43.51344" lon="6.68005">
        <ele>164.7</ele>
        <time>2025-10-26T09:46:15Z</time>
      </trkpt>
      <trkpt lat="43.51344" lon="6.68005">
        <ele>164.9</ele>
        <time>2025-10-26T09:46:16Z</time>
      </trkpt>
      <trkpt lat="43.51344" lon="6.68005">
        <ele>165.1</ele>
        <time>2025-10-26T09:46:17Z</time>
      </trkpt>
      <trkpt lat="43.51344" lon="6.68005">
        <ele>165.3</ele>
        <time>2025-10-26T09:46:18Z</time>
      </trkpt>
      <trkpt lat="43.51345" lon="6.68005">
        <ele>165.6</ele>
        <time>2025-10-26T09:46:19Z</time>
      </trkpt>
      <trkpt lat="43.51345" lon="6.68004">
        <ele>165.8</ele>
        <time>2025-10-26T09:46:20Z</time>
      </trkpt>
      <trkpt lat="43.51346" lon="6.68004">
        <ele>166</ele>
        <time>2025-10-26T09:46:21Z</time>
      </trkpt>
      <trkpt lat="43.51346" lon="6.68004">
        <ele>166.2</ele>
        <time>2025-10-26T09:46:22Z</time>
      </trkpt>
      <trkpt lat="43.51345" lon="6.68005">
        <ele>166.3</ele>
        <time>2025-10-26T09:46:23Z</time>
      </trkpt>
      <trkpt lat="43.51345" lon="6.68005">
        <ele>166.3</ele>
        <time>2025-10-26T09:46:24Z</time>
      </trkpt>
      <trkpt lat="43.51345" lon="6.68005">
        <ele>166.3</ele>
        <time>2025-10-26T09:46:25Z</time>
      </trkpt>
      <trkpt lat="43.51346" lon="6.68004">
        <ele>166.3</ele>
        <time>2025-10-26T09:46:26Z</time>
      </trkpt>
      <trkpt lat="43.51346" lon="6.68004">
        <ele>166</ele>
        <time>2025-10-26T09:46:27Z</time>
      </trkpt>
      <trkpt lat="43.51345" lon="6.68004">
        <ele>166</ele>
        <time>2025-10-26T09:46:28Z</time>
      </trkpt>
      <trkpt lat="43.51345" lon="6.68004">
        <ele>166.1</ele>
        <time>2025-10-26T09:46:29Z</time>
      </trkpt>
      <trkpt lat="43.51345" lon="6.68004">
        <ele>166</ele>
        <time>2025-10-26T09:46:30Z</time>
      </trkpt>
      <trkpt lat="43.51345" lon="6.68004">
        <ele>166.1</ele>
        <time>2025-10-26T09:46:31Z</time>
      </trkpt>
      <trkpt lat="43.51345" lon="6.68004">
        <ele>166.1</ele>
        <time>2025-10-26T09:46:32Z</time>
      </trkpt>
      <trkpt lat="43.51345" lon="6.68004">
        <ele>166.2</ele>
        <time>2025-10-26T09:46:33Z</time>
      </trkpt>
      <trkpt lat="43.51345" lon="6.68005">
        <ele>166.2</ele>
        <time>2025-10-26T09:46:34Z</time>
      </trkpt>
      <trkpt lat="43.51345" lon="6.68005">
        <ele>166.2</ele>
        <time>2025-10-26T09:46:35Z</time>
      </trkpt>
      <trkpt lat="43.51345" lon="6.68005">
        <ele>166.1</ele>
        <time>2025-10-26T09:46:36Z</time>
      </trkpt>
      <trkpt lat="43.51345" lon="6.68005">
        <ele>166.1</ele>
        <time>2025-10-26T09:46:37Z</time>
      </trkpt>
      <trkpt lat="43.51345" lon="6.68005">
        <ele>166</ele>
        <time>2025-10-26T09:46:38Z</time>
      </trkpt>
      <trkpt lat="43.51345" lon="6.68005">
        <ele>166</ele>
        <time>2025-10-26T09:46:39Z</time>
      </trkpt>
      <trkpt lat="43.51345" lon="6.68005">
        <ele>166</ele>
        <time>2025-10-26T09:46:40Z</time>
      </trkpt>
      <trkpt lat="43.51344" lon="6.68006">
        <ele>165.8</ele>
        <time>2025-10-26T09:46:41Z</time>
      </trkpt>
      <trkpt lat="43.51345" lon="6.68006">
        <ele>165.6</ele>
        <time>2025-10-26T09:46:42Z</time>
      </trkpt>
      <trkpt lat="43.51345" lon="6.68006">
        <ele>165.6</ele>
        <time>2025-10-26T09:46:43Z</time>
      </trkpt>
      <trkpt lat="43.51345" lon="6.68006">
        <ele>165.5</ele>
        <time>2025-10-26T09:46:44Z</time>
      </trkpt>
      <trkpt lat="43.51345" lon="6.68005">
        <ele>165.5</ele>
        <time>2025-10-26T09:46:45Z</time>
      </trkpt>
      <trkpt lat="43.51345" lon="6.68005">
        <ele>165.5</ele>
        <time>2025-10-26T09:46:46Z</time>
      </trkpt>
      <trkpt lat="43.51345" lon="6.68005">
        <ele>165.5</ele>
        <time>2025-10-26T09:46:47Z</time>
      </trkpt>
      <trkpt lat="43.51345" lon="6.68005">
        <ele>165.5</ele>
        <time>2025-10-26T09:46:48Z</time>
      </trkpt>
      <trkpt lat="43.51346" lon="6.68006">
        <ele>165.5</ele>
        <time>2025-10-26T09:46:49Z</time>
      </trkpt>
      <trkpt lat="43.51346" lon="6.68005">
        <ele>165.5</ele>
        <time>2025-10-26T09:46:50Z</time>
      </trkpt>
      <trkpt lat="43.51346" lon="6.68006">
        <ele>165.6</ele>
        <time>2025-10-26T09:46:51Z</time>
      </trkpt>
      <trkpt lat="43.51346" lon="6.68006">
        <ele>165.6</ele>
        <time>2025-10-26T09:46:52Z</time>
      </trkpt>
      <trkpt lat="43.51347" lon="6.68006">
        <ele>165.6</ele>
        <time>2025-10-26T09:46:53Z</time>
      </trkpt>
      <trkpt lat="43.51347" lon="6.68006">
        <ele>165.6</ele>
        <time>2025-10-26T09:46:54Z</time>
      </trkpt>
      <trkpt lat="43.51347" lon="6.68006">
        <ele>165.6</ele>
        <time>2025-10-26T09:46:55Z</time>
      </trkpt>
      <trkpt lat="43.51347" lon="6.68006">
        <ele>165.7</ele>
        <time>2025-10-26T09:46:56Z</time>
      </trkpt>
      <trkpt lat="43.51347" lon="6.68006">
        <ele>165.6</ele>
        <time>2025-10-26T09:46:57Z</time>
      </trkpt>
      <trkpt lat="43.51346" lon="6.68006">
        <ele>165.6</ele>
        <time>2025-10-26T09:46:58Z</time>
      </trkpt>
      <trkpt lat="43.51346" lon="6.68006">
        <ele>165.7</ele>
        <time>2025-10-26T09:46:59Z</time>
      </trkpt>
      <trkpt lat="43.51346" lon="6.68006">
        <ele>165.9</ele>
        <time>2025-10-26T09:47:00Z</time>
      </trkpt>
      <trkpt lat="43.51347" lon="6.68006">
        <ele>165.9</ele>
        <time>2025-10-26T09:47:01Z</time>
      </trkpt>
      <trkpt lat="43.51346" lon="6.68006">
        <ele>165.7</ele>
        <time>2025-10-26T09:47:02Z</time>
      </trkpt>
      <trkpt lat="43.51346" lon="6.68006">
        <ele>165.6</ele>
        <time>2025-10-26T09:47:03Z</time>
      </trkpt>
      <trkpt lat="43.51346" lon="6.68007">
        <ele>165.8</ele>
        <time>2025-10-26T09:47:04Z</time>
      </trkpt>
      <trkpt lat="43.51346" lon="6.68007">
        <ele>166</ele>
        <time>2025-10-26T09:47:05Z</time>
      </trkpt>
      <trkpt lat="43.51345" lon="6.68007">
        <ele>166.1</ele>
        <time>2025-10-26T09:47:06Z</time>
      </trkpt>
      <trkpt lat="43.51345" lon="6.68007">
        <ele>166.2</ele>
        <time>2025-10-26T09:47:07Z</time>
      </trkpt>
      <trkpt lat="43.51345" lon="6.68007">
        <ele>166.5</ele>
        <time>2025-10-26T09:47:08Z</time>
      </trkpt>
      <trkpt lat="43.51345" lon="6.68007">
        <ele>166.4</ele>
        <time>2025-10-26T09:47:09Z</time>
      </trkpt>
      <trkpt lat="43.51345" lon="6.68007">
        <ele>166.2</ele>
        <time>2025-10-26T09:47:10Z</time>
      </trkpt>
      <trkpt lat="43.51345" lon="6.68007">
        <ele>166.5</ele>
        <time>2025-10-26T09:47:11Z</time>
      </trkpt>
      <trkpt lat="43.51344" lon="6.68006">
        <ele>166.6</ele>
        <time>2025-10-26T09:47:12Z</time>
      </trkpt>
      <trkpt lat="43.51344" lon="6.68006">
        <ele>166.7</ele>
        <time>2025-10-26T09:47:13Z</time>
      </trkpt>
      <trkpt lat="43.51344" lon="6.68006">
        <ele>166.6</ele>
        <time>2025-10-26T09:47:14Z</time>
      </trkpt>
      <trkpt lat="43.51344" lon="6.68006">
        <ele>166.6</ele>
        <time>2025-10-26T09:47:15Z</time>
      </trkpt>
      <trkpt lat="43.51344" lon="6.68006">
        <ele>166.5</ele>
        <time>2025-10-26T09:47:16Z</time>
      </trkpt>
      <trkpt lat="43.51344" lon="6.68006">
        <ele>166.3</ele>
        <time>2025-10-26T09:47:17Z</time>
      </trkpt>
      <trkpt lat="43.51344" lon="6.68006">
        <ele>166.2</ele>
        <time>2025-10-26T09:47:18Z</time>
      </trkpt>
      <trkpt lat="43.51344" lon="6.68006">
        <ele>166.1</ele>
        <time>2025-10-26T09:47:19Z</time>
      </trkpt>
      <trkpt lat="43.51344" lon="6.68006">
        <ele>166.1</ele>
        <time>2025-10-26T09:47:20Z</time>
      </trkpt>
      <trkpt lat="43.51344" lon="6.68006">
        <ele>165.7</ele>
        <time>2025-10-26T09:47:21Z</time>
      </trkpt>
      <trkpt lat="43.51344" lon="6.68006">
        <ele>165.5</ele>
        <time>2025-10-26T09:47:22Z</time>
      </trkpt>
      <trkpt lat="43.51344" lon="6.68005">
        <ele>165.3</ele>
        <time>2025-10-26T09:47:23Z</time>
      </trkpt>
      <trkpt lat="43.51344" lon="6.68005">
        <ele>165.3</ele>
        <time>2025-10-26T09:47:24Z</time>
      </trkpt>
      <trkpt lat="43.51344" lon="6.68005">
        <ele>165.3</ele>
        <time>2025-10-26T09:47:25Z</time>
      </trkpt>
      <trkpt lat="43.51344" lon="6.68005">
        <ele>165.4</ele>
        <time>2025-10-26T09:47:26Z</time>
      </trkpt>
      <trkpt lat="43.51343" lon="6.68005">
        <ele>165.4</ele>
        <time>2025-10-26T09:47:27Z</time>
      </trkpt>
      <trkpt lat="43.51344" lon="6.68005">
        <ele>165.4</ele>
        <time>2025-10-26T09:47:28Z</time>
      </trkpt>
      <trkpt lat="43.51344" lon="6.68005">
        <ele>165.4</ele>
        <time>2025-10-26T09:47:29Z</time>
      </trkpt>
      <trkpt lat="43.51344" lon="6.68005">
        <ele>165.3</ele>
        <time>2025-10-26T09:47:30Z</time>
      </trkpt>
      <trkpt lat="43.51344" lon="6.68005">
        <ele>165.2</ele>
        <time>2025-10-26T09:47:31Z</time>
      </trkpt>
      <trkpt lat="43.51345" lon="6.68005">
        <ele>165.3</ele>
        <time>2025-10-26T09:47:32Z</time>
      </trkpt>
      <trkpt lat="43.51345" lon="6.68005">
        <ele>165.3</ele>
        <time>2025-10-26T09:47:33Z</time>
      </trkpt>
      <trkpt lat="43.51345" lon="6.68005">
        <ele>165.2</ele>
        <time>2025-10-26T09:47:34Z</time>
      </trkpt>
      <trkpt lat="43.51344" lon="6.68005">
        <ele>165</ele>
        <time>2025-10-26T09:47:35Z</time>
      </trkpt>
      <trkpt lat="43.51344" lon="6.68005">
        <ele>165</ele>
        <time>2025-10-26T09:47:36Z</time>
      </trkpt>
      <trkpt lat="43.51344" lon="6.68006">
        <ele>165</ele>
        <time>2025-10-26T09:47:37Z</time>
      </trkpt>
      <trkpt lat="43.51344" lon="6.68007">
        <ele>165</ele>
        <time>2025-10-26T09:47:38Z</time>
      </trkpt>
      <trkpt lat="43.51344" lon="6.68008">
        <ele>165</ele>
        <time>2025-10-26T09:47:39Z</time>
      </trkpt>
      <trkpt lat="43.51343" lon="6.68009">
        <ele>165.1</ele>
        <time>2025-10-26T09:47:40Z</time>
      </trkpt>
      <trkpt lat="43.51343" lon="6.68009">
        <ele>165.1</ele>
        <time>2025-10-26T09:47:41Z</time>
      </trkpt>
      <trkpt lat="43.51343" lon="6.68009">
        <ele>164.9</ele>
        <time>2025-10-26T09:47:42Z</time>
      </trkpt>
      <trkpt lat="43.51343" lon="6.6801">
        <ele>164.9</ele>
        <time>2025-10-26T09:47:43Z</time>
      </trkpt>
      <trkpt lat="43.51343" lon="6.6801">
        <ele>165</ele>
        <time>2025-10-26T09:47:44Z</time>
      </trkpt>
      <trkpt lat="43.51343" lon="6.68011">
        <ele>165.2</ele>
        <time>2025-10-26T09:47:45Z</time>
      </trkpt>
      <trkpt lat="43.51343" lon="6.68011">
        <ele>165.5</ele>
        <time>2025-10-26T09:47:46Z</time>
      </trkpt>
      <trkpt lat="43.51343" lon="6.68011">
        <ele>165.8</ele>
        <time>2025-10-26T09:47:47Z</time>
      </trkpt>
      <trkpt lat="43.51343" lon="6.68011">
        <ele>166.1</ele>
        <time>2025-10-26T09:47:48Z</time>
      </trkpt>
      <trkpt lat="43.51343" lon="6.68012">
        <ele>166.2</ele>
        <time>2025-10-26T09:47:49Z</time>
      </trkpt>
      <trkpt lat="43.51342" lon="6.68012">
        <ele>166.3</ele>
        <time>2025-10-26T09:47:50Z</time>
      </trkpt>
      <trkpt lat="43.51342" lon="6.68012">
        <ele>166.5</ele>
        <time>2025-10-26T09:47:51Z</time>
      </trkpt>
      <trkpt lat="43.51342" lon="6.68012">
        <ele>166.5</ele>
        <time>2025-10-26T09:47:52Z</time>
      </trkpt>
      <trkpt lat="43.51342" lon="6.68012">
        <ele>166.6</ele>
        <time>2025-10-26T09:47:53Z</time>
      </trkpt>
      <trkpt lat="43.51342" lon="6.68013">
        <ele>166.7</ele>
        <time>2025-10-26T09:47:54Z</time>
      </trkpt>
      <trkpt lat="43.51343" lon="6.68013">
        <ele>166.7</ele>
        <time>2025-10-26T09:47:55Z</time>
      </trkpt>
      <trkpt lat="43.51344" lon="6.68013">
        <ele>166.7</ele>
        <time>2025-10-26T09:47:56Z</time>
      </trkpt>
      <trkpt lat="43.51344" lon="6.68013">
        <ele>166.4</ele>
        <time>2025-10-26T09:47:57Z</time>
      </trkpt>
      <trkpt lat="43.51344" lon="6.68014">
        <ele>166.2</ele>
        <time>2025-10-26T09:47:58Z</time>
      </trkpt>
      <trkpt lat="43.51344" lon="6.68015">
        <ele>166</ele>
        <time>2025-10-26T09:47:59Z</time>
      </trkpt>
      <trkpt lat="43.51344" lon="6.68015">
        <ele>165.9</ele>
        <time>2025-10-26T09:48:00Z</time>
      </trkpt>
      <trkpt lat="43.51344" lon="6.68016">
        <ele>165.8</ele>
        <time>2025-10-26T09:48:01Z</time>
      </trkpt>
      <trkpt lat="43.51344" lon="6.68016">
        <ele>165.7</ele>
        <time>2025-10-26T09:48:02Z</time>
      </trkpt>
      <trkpt lat="43.51344" lon="6.68016">
        <ele>165.7</ele>
        <time>2025-10-26T09:48:03Z</time>
      </trkpt>
      <trkpt lat="43.51344" lon="6.68016">
        <ele>165.7</ele>
        <time>2025-10-26T09:48:04Z</time>
      </trkpt>
      <trkpt lat="43.51344" lon="6.68016">
        <ele>165.9</ele>
        <time>2025-10-26T09:48:05Z</time>
      </trkpt>
      <trkpt lat="43.51345" lon="6.68016">
        <ele>166</ele>
        <time>2025-10-26T09:48:06Z</time>
      </trkpt>
      <trkpt lat="43.51345" lon="6.68016">
        <ele>166</ele>
        <time>2025-10-26T09:48:07Z</time>
      </trkpt>
      <trkpt lat="43.51344" lon="6.68016">
        <ele>165.8</ele>
        <time>2025-10-26T09:48:08Z</time>
      </trkpt>
      <trkpt lat="43.51344" lon="6.68016">
        <ele>165.8</ele>
        <time>2025-10-26T09:48:09Z</time>
      </trkpt>
      <trkpt lat="43.51344" lon="6.68016">
        <ele>165.7</ele>
        <time>2025-10-26T09:48:10Z</time>
      </trkpt>
      <trkpt lat="43.51345" lon="6.68017">
        <ele>166</ele>
        <time>2025-10-26T09:48:11Z</time>
      </trkpt>
      <trkpt lat="43.51344" lon="6.68017">
        <ele>166</ele>
        <time>2025-10-26T09:48:12Z</time>
      </trkpt>
      <trkpt lat="43.51344" lon="6.68017">
        <ele>166</ele>
        <time>2025-10-26T09:48:13Z</time>
      </trkpt>
      <trkpt lat="43.51344" lon="6.68017">
        <ele>165.9</ele>
        <time>2025-10-26T09:48:14Z</time>
      </trkpt>
      <trkpt lat="43.51344" lon="6.68017">
        <ele>165.8</ele>
        <time>2025-10-26T09:48:15Z</time>
      </trkpt>
      <trkpt lat="43.51345" lon="6.68017">
        <ele>165.7</ele>
        <time>2025-10-26T09:48:16Z</time>
      </trkpt>
      <trkpt lat="43.51345" lon="6.68017">
        <ele>165.7</ele>
        <time>2025-10-26T09:48:17Z</time>
      </trkpt>
      <trkpt lat="43.51345" lon="6.68017">
        <ele>165.7</ele>
        <time>2025-10-26T09:48:18Z</time>
      </trkpt>
      <trkpt lat="43.51345" lon="6.68017">
        <ele>165.7</ele>
        <time>2025-10-26T09:48:19Z</time>
      </trkpt>
      <trkpt lat="43.51345" lon="6.68017">
        <ele>165.7</ele>
        <time>2025-10-26T09:48:20Z</time>
      </trkpt>
      <trkpt lat="43.51345" lon="6.68017">
        <ele>165.7</ele>
        <time>2025-10-26T09:48:21Z</time>
      </trkpt>
      <trkpt lat="43.51345" lon="6.68018">
        <ele>165.7</ele>
        <time>2025-10-26T09:48:22Z</time>
      </trkpt>
      <trkpt lat="43.51345" lon="6.68018">
        <ele>165.7</ele>
        <time>2025-10-26T09:48:23Z</time>
      </trkpt>
      <trkpt lat="43.51344" lon="6.6802">
        <ele>165.7</ele>
        <time>2025-10-26T09:48:24Z</time>
      </trkpt>
      <trkpt lat="43.51344" lon="6.6802">
        <ele>165.7</ele>
        <time>2025-10-26T09:48:25Z</time>
      </trkpt>
      <trkpt lat="43.51343" lon="6.6802">
        <ele>165.8</ele>
        <time>2025-10-26T09:48:26Z</time>
      </trkpt>
      <trkpt lat="43.51343" lon="6.68021">
        <ele>165.8</ele>
        <time>2025-10-26T09:48:27Z</time>
      </trkpt>
      <trkpt lat="43.51342" lon="6.68021">
        <ele>165.9</ele>
        <time>2025-10-26T09:48:28Z</time>
      </trkpt>
      <trkpt lat="43.51342" lon="6.68021">
        <ele>166</ele>
        <time>2025-10-26T09:48:29Z</time>
      </trkpt>
      <trkpt lat="43.51342" lon="6.68021">
        <ele>166.1</ele>
        <time>2025-10-26T09:48:30Z</time>
      </trkpt>
      <trkpt lat="43.51343" lon="6.68021">
        <ele>166.2</ele>
        <time>2025-10-26T09:48:31Z</time>
      </trkpt>
      <trkpt lat="43.51343" lon="6.68021">
        <ele>166.2</ele>
        <time>2025-10-26T09:48:32Z</time>
      </trkpt>
      <trkpt lat="43.51343" lon="6.68021">
        <ele>166.3</ele>
        <time>2025-10-26T09:48:33Z</time>
      </trkpt>
      <trkpt lat="43.51343" lon="6.68021">
        <ele>166.3</ele>
        <time>2025-10-26T09:48:34Z</time>
      </trkpt>
      <trkpt lat="43.51343" lon="6.68022">
        <ele>166.4</ele>
        <time>2025-10-26T09:48:35Z</time>
      </trkpt>
      <trkpt lat="43.51343" lon="6.68022">
        <ele>166.5</ele>
        <time>2025-10-26T09:48:36Z</time>
      </trkpt>
      <trkpt lat="43.51342" lon="6.68022">
        <ele>166.5</ele>
        <time>2025-10-26T09:48:37Z</time>
      </trkpt>
      <trkpt lat="43.51342" lon="6.68022">
        <ele>166.5</ele>
        <time>2025-10-26T09:48:38Z</time>
      </trkpt>
      <trkpt lat="43.51342" lon="6.68021">
        <ele>166.4</ele>
        <time>2025-10-26T09:48:39Z</time>
      </trkpt>
      <trkpt lat="43.51342" lon="6.68021">
        <ele>166.5</ele>
        <time>2025-10-26T09:48:40Z</time>
      </trkpt>
      <trkpt lat="43.51342" lon="6.68021">
        <ele>166.6</ele>
        <time>2025-10-26T09:48:41Z</time>
      </trkpt>
      <trkpt lat="43.51342" lon="6.68022">
        <ele>166.8</ele>
        <time>2025-10-26T09:48:42Z</time>
      </trkpt>
      <trkpt lat="43.51342" lon="6.68022">
        <ele>166.9</ele>
        <time>2025-10-26T09:48:43Z</time>
      </trkpt>
      <trkpt lat="43.51342" lon="6.68021">
        <ele>166.9</ele>
        <time>2025-10-26T09:48:44Z</time>
      </trkpt>
      <trkpt lat="43.51342" lon="6.68021">
        <ele>167</ele>
        <time>2025-10-26T09:48:45Z</time>
      </trkpt>
      <trkpt lat="43.51342" lon="6.68021">
        <ele>167.1</ele>
        <time>2025-10-26T09:48:46Z</time>
      </trkpt>
      <trkpt lat="43.51341" lon="6.68021">
        <ele>167.1</ele>
        <time>2025-10-26T09:48:47Z</time>
      </trkpt>
      <trkpt lat="43.51341" lon="6.68021">
        <ele>167.1</ele>
        <time>2025-10-26T09:48:48Z</time>
      </trkpt>
      <trkpt lat="43.51341" lon="6.68021">
        <ele>167.1</ele>
        <time>2025-10-26T09:48:49Z</time>
      </trkpt>
      <trkpt lat="43.51341" lon="6.6802">
        <ele>167</ele>
        <time>2025-10-26T09:48:50Z</time>
      </trkpt>
      <trkpt lat="43.51341" lon="6.68021">
        <ele>166.9</ele>
        <time>2025-10-26T09:48:51Z</time>
      </trkpt>
      <trkpt lat="43.51341" lon="6.6802">
        <ele>166.8</ele>
        <time>2025-10-26T09:48:52Z</time>
      </trkpt>
      <trkpt lat="43.51341" lon="6.6802">
        <ele>166.6</ele>
        <time>2025-10-26T09:48:53Z</time>
      </trkpt>
      <trkpt lat="43.51341" lon="6.6802">
        <ele>166.5</ele>
        <time>2025-10-26T09:48:54Z</time>
      </trkpt>
      <trkpt lat="43.51341" lon="6.6802">
        <ele>166.3</ele>
        <time>2025-10-26T09:48:55Z</time>
      </trkpt>
      <trkpt lat="43.51341" lon="6.6802">
        <ele>166.3</ele>
        <time>2025-10-26T09:48:56Z</time>
      </trkpt>
      <trkpt lat="43.51341" lon="6.6802">
        <ele>166.4</ele>
        <time>2025-10-26T09:48:57Z</time>
      </trkpt>
      <trkpt lat="43.51341" lon="6.68019">
        <ele>166.4</ele>
        <time>2025-10-26T09:48:58Z</time>
      </trkpt>
      <trkpt lat="43.51341" lon="6.68019">
        <ele>166.3</ele>
        <time>2025-10-26T09:48:59Z</time>
      </trkpt>
      <trkpt lat="43.5134" lon="6.6802">
        <ele>166</ele>
        <time>2025-10-26T09:49:00Z</time>
      </trkpt>
      <trkpt lat="43.5134" lon="6.6802">
        <ele>165.9</ele>
        <time>2025-10-26T09:49:01Z</time>
      </trkpt>
      <trkpt lat="43.5134" lon="6.68021">
        <ele>166</ele>
        <time>2025-10-26T09:49:02Z</time>
      </trkpt>
      <trkpt lat="43.5134" lon="6.68021">
        <ele>166.1</ele>
        <time>2025-10-26T09:49:03Z</time>
      </trkpt>
      <trkpt lat="43.5134" lon="6.68022">
        <ele>166.3</ele>
        <time>2025-10-26T09:49:04Z</time>
      </trkpt>
      <trkpt lat="43.51339" lon="6.68022">
        <ele>166.4</ele>
        <time>2025-10-26T09:49:05Z</time>
      </trkpt>
      <trkpt lat="43.51339" lon="6.68022">
        <ele>166.5</ele>
        <time>2025-10-26T09:49:06Z</time>
      </trkpt>
      <trkpt lat="43.51339" lon="6.68022">
        <ele>166.6</ele>
        <time>2025-10-26T09:49:07Z</time>
      </trkpt>
      <trkpt lat="43.51339" lon="6.68022">
        <ele>166.6</ele>
        <time>2025-10-26T09:49:08Z</time>
      </trkpt>
      <trkpt lat="43.51338" lon="6.68022">
        <ele>166.7</ele>
        <time>2025-10-26T09:49:09Z</time>
      </trkpt>
      <trkpt lat="43.51338" lon="6.68022">
        <ele>166.7</ele>
        <time>2025-10-26T09:49:10Z</time>
      </trkpt>
      <trkpt lat="43.51338" lon="6.68022">
        <ele>166.8</ele>
        <time>2025-10-26T09:49:11Z</time>
      </trkpt>
      <trkpt lat="43.51337" lon="6.68022">
        <ele>166.9</ele>
        <time>2025-10-26T09:49:12Z</time>
      </trkpt>
      <trkpt lat="43.51337" lon="6.68022">
        <ele>167</ele>
        <time>2025-10-26T09:49:13Z</time>
      </trkpt>
      <trkpt lat="43.51337" lon="6.68022">
        <ele>167</ele>
        <time>2025-10-26T09:49:14Z</time>
      </trkpt>
      <trkpt lat="43.51337" lon="6.68022">
        <ele>167</ele>
        <time>2025-10-26T09:49:15Z</time>
      </trkpt>
      <trkpt lat="43.51337" lon="6.68022">
        <ele>167</ele>
        <time>2025-10-26T09:49:16Z</time>
      </trkpt>
      <trkpt lat="43.51337" lon="6.68022">
        <ele>167.1</ele>
        <time>2025-10-26T09:49:17Z</time>
      </trkpt>
      <trkpt lat="43.51337" lon="6.68022">
        <ele>167.1</ele>
        <time>2025-10-26T09:49:18Z</time>
      </trkpt>
      <trkpt lat="43.51337" lon="6.68023">
        <ele>167</ele>
        <time>2025-10-26T09:49:19Z</time>
      </trkpt>
      <trkpt lat="43.51338" lon="6.68024">
        <ele>167</ele>
        <time>2025-10-26T09:49:20Z</time>
      </trkpt>
      <trkpt lat="43.51338" lon="6.68025">
        <ele>166.9</ele>
        <time>2025-10-26T09:49:21Z</time>
      </trkpt>
      <trkpt lat="43.51338" lon="6.68026">
        <ele>166.9</ele>
        <time>2025-10-26T09:49:22Z</time>
      </trkpt>
      <trkpt lat="43.51338" lon="6.68027">
        <ele>166.8</ele>
        <time>2025-10-26T09:49:23Z</time>
      </trkpt>
      <trkpt lat="43.51338" lon="6.68028">
        <ele>166.9</ele>
        <time>2025-10-26T09:49:24Z</time>
      </trkpt>
      <trkpt lat="43.51338" lon="6.68029">
        <ele>167</ele>
        <time>2025-10-26T09:49:25Z</time>
      </trkpt>
      <trkpt lat="43.51339" lon="6.6803">
        <ele>167.3</ele>
        <time>2025-10-26T09:49:26Z</time>
      </trkpt>
      <trkpt lat="43.51339" lon="6.6803">
        <ele>167.5</ele>
        <time>2025-10-26T09:49:27Z</time>
      </trkpt>
      <trkpt lat="43.5134" lon="6.68031">
        <ele>167.8</ele>
        <time>2025-10-26T09:49:28Z</time>
      </trkpt>
      <trkpt lat="43.5134" lon="6.68031">
        <ele>168</ele>
        <time>2025-10-26T09:49:29Z</time>
      </trkpt>
      <trkpt lat="43.51341" lon="6.68031">
        <ele>168.2</ele>
        <time>2025-10-26T09:49:30Z</time>
      </trkpt>
      <trkpt lat="43.51341" lon="6.68032">
        <ele>168.4</ele>
        <time>2025-10-26T09:49:31Z</time>
      </trkpt>
      <trkpt lat="43.51342" lon="6.68033">
        <ele>168.5</ele>
        <time>2025-10-26T09:49:32Z</time>
      </trkpt>
      <trkpt lat="43.51342" lon="6.68032">
        <ele>168.6</ele>
        <time>2025-10-26T09:49:33Z</time>
      </trkpt>
      <trkpt lat="43.51342" lon="6.68032">
        <ele>168.6</ele>
        <time>2025-10-26T09:49:34Z</time>
      </trkpt>
      <trkpt lat="43.51342" lon="6.68032">
        <ele>168.6</ele>
        <time>2025-10-26T09:49:35Z</time>
      </trkpt>
      <trkpt lat="43.51342" lon="6.68033">
        <ele>168.7</ele>
        <time>2025-10-26T09:49:36Z</time>
      </trkpt>
      <trkpt lat="43.51342" lon="6.68033">
        <ele>168.7</ele>
        <time>2025-10-26T09:49:37Z</time>
      </trkpt>
      <trkpt lat="43.51342" lon="6.68033">
        <ele>168.8</ele>
        <time>2025-10-26T09:49:38Z</time>
      </trkpt>
      <trkpt lat="43.51342" lon="6.68033">
        <ele>168.8</ele>
        <time>2025-10-26T09:49:39Z</time>
      </trkpt>
      <trkpt lat="43.51342" lon="6.68033">
        <ele>168.9</ele>
        <time>2025-10-26T09:49:40Z</time>
      </trkpt>
      <trkpt lat="43.51342" lon="6.68033">
        <ele>169</ele>
        <time>2025-10-26T09:49:41Z</time>
      </trkpt>
      <trkpt lat="43.51342" lon="6.68034">
        <ele>169.1</ele>
        <time>2025-10-26T09:49:42Z</time>
      </trkpt>
      <trkpt lat="43.51342" lon="6.68034">
        <ele>169.1</ele>
        <time>2025-10-26T09:49:43Z</time>
      </trkpt>
      <trkpt lat="43.51342" lon="6.68034">
        <ele>169.1</ele>
        <time>2025-10-26T09:49:44Z</time>
      </trkpt>
      <trkpt lat="43.51342" lon="6.68034">
        <ele>169.2</ele>
        <time>2025-10-26T09:49:45Z</time>
      </trkpt>
      <trkpt lat="43.51342" lon="6.68034">
        <ele>169.2</ele>
        <time>2025-10-26T09:49:46Z</time>
      </trkpt>
      <trkpt lat="43.51342" lon="6.68034">
        <ele>169.2</ele>
        <time>2025-10-26T09:49:47Z</time>
      </trkpt>
      <trkpt lat="43.51342" lon="6.68034">
        <ele>169.2</ele>
        <time>2025-10-26T09:49:48Z</time>
      </trkpt>
      <trkpt lat="43.51342" lon="6.68034">
        <ele>169.2</ele>
        <time>2025-10-26T09:49:49Z</time>
      </trkpt>
      <trkpt lat="43.51342" lon="6.68034">
        <ele>169.2</ele>
        <time>2025-10-26T09:49:50Z</time>
      </trkpt>
      <trkpt lat="43.51342" lon="6.68034">
        <ele>169.3</ele>
        <time>2025-10-26T09:49:51Z</time>
      </trkpt>
      <trkpt lat="43.51342" lon="6.68034">
        <ele>169.3</ele>
        <time>2025-10-26T09:49:52Z</time>
      </trkpt>
      <trkpt lat="43.51342" lon="6.68034">
        <ele>169.4</ele>
        <time>2025-10-26T09:49:53Z</time>
      </trkpt>
      <trkpt lat="43.51342" lon="6.68035">
        <ele>169.4</ele>
        <time>2025-10-26T09:49:54Z</time>
      </trkpt>
      <trkpt lat="43.51342" lon="6.68035">
        <ele>169.4</ele>
        <time>2025-10-26T09:49:55Z</time>
      </trkpt>
      <trkpt lat="43.51342" lon="6.68035">
        <ele>169.3</ele>
        <time>2025-10-26T09:49:56Z</time>
      </trkpt>
      <trkpt lat="43.51342" lon="6.68035">
        <ele>169.3</ele>
        <time>2025-10-26T09:49:57Z</time>
      </trkpt>
      <trkpt lat="43.51342" lon="6.68035">
        <ele>169.3</ele>
        <time>2025-10-26T09:49:58Z</time>
      </trkpt>
      <trkpt lat="43.51342" lon="6.68035">
        <ele>169.3</ele>
        <time>2025-10-26T09:49:59Z</time>
      </trkpt>
      <trkpt lat="43.51342" lon="6.68035">
        <ele>169.4</ele>
        <time>2025-10-26T09:50:00Z</time>
      </trkpt>
      <trkpt lat="43.51342" lon="6.68035">
        <ele>169.4</ele>
        <time>2025-10-26T09:50:01Z</time>
      </trkpt>
      <trkpt lat="43.51342" lon="6.68035">
        <ele>169.3</ele>
        <time>2025-10-26T09:50:02Z</time>
      </trkpt>
      <trkpt lat="43.51342" lon="6.68035">
        <ele>169.4</ele>
        <time>2025-10-26T09:50:03Z</time>
      </trkpt>
      <trkpt lat="43.51342" lon="6.68035">
        <ele>169.5</ele>
        <time>2025-10-26T09:50:04Z</time>
      </trkpt>
      <trkpt lat="43.51342" lon="6.68035">
        <ele>169.4</ele>
        <time>2025-10-26T09:50:05Z</time>
      </trkpt>
      <trkpt lat="43.51342" lon="6.68035">
        <ele>169.4</ele>
        <time>2025-10-26T09:50:06Z</time>
      </trkpt>
      <trkpt lat="43.51342" lon="6.68035">
        <ele>169.4</ele>
        <time>2025-10-26T09:50:07Z</time>
      </trkpt>
      <trkpt lat="43.51342" lon="6.68035">
        <ele>169.4</ele>
        <time>2025-10-26T09:50:08Z</time>
      </trkpt>
      <trkpt lat="43.51342" lon="6.68035">
        <ele>169.3</ele>
        <time>2025-10-26T09:50:09Z</time>
      </trkpt>
      <trkpt lat="43.51342" lon="6.68035">
        <ele>169.3</ele>
        <time>2025-10-26T09:50:10Z</time>
      </trkpt>
      <trkpt lat="43.51342" lon="6.68035">
        <ele>169.3</ele>
        <time>2025-10-26T09:50:11Z</time>
      </trkpt>
      <trkpt lat="43.51342" lon="6.68035">
        <ele>169.2</ele>
        <time>2025-10-26T09:50:12Z</time>
      </trkpt>
      <trkpt lat="43.51343" lon="6.68035">
        <ele>169.3</ele>
        <time>2025-10-26T09:50:13Z</time>
      </trkpt>
      <trkpt lat="43.51343" lon="6.68035">
        <ele>169.2</ele>
        <time>2025-10-26T09:50:14Z</time>
      </trkpt>
      <trkpt lat="43.51343" lon="6.68035">
        <ele>169.2</ele>
        <time>2025-10-26T09:50:15Z</time>
      </trkpt>
      <trkpt lat="43.51343" lon="6.68035">
        <ele>169.1</ele>
        <time>2025-10-26T09:50:16Z</time>
      </trkpt>
      <trkpt lat="43.51343" lon="6.68035">
        <ele>169.2</ele>
        <time>2025-10-26T09:50:17Z</time>
      </trkpt>
      <trkpt lat="43.51343" lon="6.68036">
        <ele>169.3</ele>
        <time>2025-10-26T09:50:18Z</time>
      </trkpt>
      <trkpt lat="43.51343" lon="6.68036">
        <ele>169.3</ele>
        <time>2025-10-26T09:50:19Z</time>
      </trkpt>
      <trkpt lat="43.51343" lon="6.68036">
        <ele>169.2</ele>
        <time>2025-10-26T09:50:20Z</time>
      </trkpt>
      <trkpt lat="43.51343" lon="6.68037">
        <ele>169.3</ele>
        <time>2025-10-26T09:50:21Z</time>
      </trkpt>
      <trkpt lat="43.51344" lon="6.68037">
        <ele>169.3</ele>
        <time>2025-10-26T09:50:22Z</time>
      </trkpt>
      <trkpt lat="43.51344" lon="6.68037">
        <ele>169.4</ele>
        <time>2025-10-26T09:50:23Z</time>
      </trkpt>
      <trkpt lat="43.51344" lon="6.68037">
        <ele>169.4</ele>
        <time>2025-10-26T09:50:24Z</time>
      </trkpt>
      <trkpt lat="43.51344" lon="6.68037">
        <ele>169.5</ele>
        <time>2025-10-26T09:50:25Z</time>
      </trkpt>
      <trkpt lat="43.51344" lon="6.68037">
        <ele>169.6</ele>
        <time>2025-10-26T09:50:26Z</time>
      </trkpt>
      <trkpt lat="43.51344" lon="6.68037">
        <ele>169.7</ele>
        <time>2025-10-26T09:50:27Z</time>
      </trkpt>
      <trkpt lat="43.51344" lon="6.68037">
        <ele>169.7</ele>
        <time>2025-10-26T09:50:28Z</time>
      </trkpt>
      <trkpt lat="43.51344" lon="6.68038">
        <ele>169.7</ele>
        <time>2025-10-26T09:50:29Z</time>
      </trkpt>
      <trkpt lat="43.51344" lon="6.68038">
        <ele>169.7</ele>
        <time>2025-10-26T09:50:30Z</time>
      </trkpt>
      <trkpt lat="43.51344" lon="6.68038">
        <ele>169.7</ele>
        <time>2025-10-26T09:50:31Z</time>
      </trkpt>
      <trkpt lat="43.51344" lon="6.68038">
        <ele>169.6</ele>
        <time>2025-10-26T09:50:32Z</time>
      </trkpt>
      <trkpt lat="43.51345" lon="6.68038">
        <ele>169.7</ele>
        <time>2025-10-26T09:50:33Z</time>
      </trkpt>
      <trkpt lat="43.51345" lon="6.68038">
        <ele>169.7</ele>
        <time>2025-10-26T09:50:34Z</time>
      </trkpt>
      <trkpt lat="43.51345" lon="6.68038">
        <ele>169.7</ele>
        <time>2025-10-26T09:50:35Z</time>
      </trkpt>
      <trkpt lat="43.51345" lon="6.68038">
        <ele>169.7</ele>
        <time>2025-10-26T09:50:36Z</time>
      </trkpt>
      <trkpt lat="43.51345" lon="6.68038">
        <ele>169.6</ele>
        <time>2025-10-26T09:50:37Z</time>
      </trkpt>
      <trkpt lat="43.51345" lon="6.68038">
        <ele>169.6</ele>
        <time>2025-10-26T09:50:38Z</time>
      </trkpt>
      <trkpt lat="43.51345" lon="6.68038">
        <ele>169.6</ele>
        <time>2025-10-26T09:50:39Z</time>
      </trkpt>
      <trkpt lat="43.51345" lon="6.68038">
        <ele>169.6</ele>
        <time>2025-10-26T09:50:40Z</time>
      </trkpt>
      <trkpt lat="43.51345" lon="6.68038">
        <ele>169.6</ele>
        <time>2025-10-26T09:50:41Z</time>
      </trkpt>
      <trkpt lat="43.51345" lon="6.68038">
        <ele>169.6</ele>
        <time>2025-10-26T09:50:42Z</time>
      </trkpt>
      <trkpt lat="43.51345" lon="6.68038">
        <ele>169.6</ele>
        <time>2025-10-26T09:50:43Z</time>
      </trkpt>
      <trkpt lat="43.51345" lon="6.68038">
        <ele>169.7</ele>
        <time>2025-10-26T09:50:44Z</time>
      </trkpt>
      <trkpt lat="43.51346" lon="6.68038">
        <ele>169.7</ele>
        <time>2025-10-26T09:50:45Z</time>
      </trkpt>
      <trkpt lat="43.51346" lon="6.68037">
        <ele>169.7</ele>
        <time>2025-10-26T09:50:46Z</time>
      </trkpt>
      <trkpt lat="43.51345" lon="6.68037">
        <ele>169.9</ele>
        <time>2025-10-26T09:50:47Z</time>
      </trkpt>
      <trkpt lat="43.51345" lon="6.68036">
        <ele>170.3</ele>
        <time>2025-10-26T09:50:48Z</time>
      </trkpt>
      <trkpt lat="43.51345" lon="6.68036">
        <ele>170.6</ele>
        <time>2025-10-26T09:50:49Z</time>
      </trkpt>
      <trkpt lat="43.51345" lon="6.68035">
        <ele>170.6</ele>
        <time>2025-10-26T09:50:50Z</time>
      </trkpt>
      <trkpt lat="43.51345" lon="6.68034">
        <ele>170.5</ele>
        <time>2025-10-26T09:50:51Z</time>
      </trkpt>
      <trkpt lat="43.51345" lon="6.68034">
        <ele>170.4</ele>
        <time>2025-10-26T09:50:52Z</time>
      </trkpt>
      <trkpt lat="43.51345" lon="6.68033">
        <ele>170.1</ele>
        <time>2025-10-26T09:50:53Z</time>
      </trkpt>
      <trkpt lat="43.51345" lon="6.68033">
        <ele>169.9</ele>
        <time>2025-10-26T09:50:54Z</time>
      </trkpt>
      <trkpt lat="43.51345" lon="6.68033">
        <ele>169.7</ele>
        <time>2025-10-26T09:50:55Z</time>
      </trkpt>
      <trkpt lat="43.51345" lon="6.68032">
        <ele>169.5</ele>
        <time>2025-10-26T09:50:56Z</time>
      </trkpt>
      <trkpt lat="43.51345" lon="6.68032">
        <ele>169.2</ele>
        <time>2025-10-26T09:50:57Z</time>
      </trkpt>
      <trkpt lat="43.51345" lon="6.68032">
        <ele>169</ele>
        <time>2025-10-26T09:50:58Z</time>
      </trkpt>
      <trkpt lat="43.51345" lon="6.68032">
        <ele>168.8</ele>
        <time>2025-10-26T09:50:59Z</time>
      </trkpt>
      <trkpt lat="43.51345" lon="6.68032">
        <ele>168.7</ele>
        <time>2025-10-26T09:51:00Z</time>
      </trkpt>
      <trkpt lat="43.51345" lon="6.68032">
        <ele>168.6</ele>
        <time>2025-10-26T09:51:01Z</time>
      </trkpt>
      <trkpt lat="43.51345" lon="6.68032">
        <ele>168.6</ele>
        <time>2025-10-26T09:51:02Z</time>
      </trkpt>
      <trkpt lat="43.51345" lon="6.68032">
        <ele>168.5</ele>
        <time>2025-10-26T09:51:03Z</time>
      </trkpt>
      <trkpt lat="43.51345" lon="6.68032">
        <ele>168.5</ele>
        <time>2025-10-26T09:51:04Z</time>
      </trkpt>
      <trkpt lat="43.51345" lon="6.68032">
        <ele>168.4</ele>
        <time>2025-10-26T09:51:05Z</time>
      </trkpt>
      <trkpt lat="43.51345" lon="6.68032">
        <ele>168.3</ele>
        <time>2025-10-26T09:51:06Z</time>
      </trkpt>
      <trkpt lat="43.51345" lon="6.68032">
        <ele>168.1</ele>
        <time>2025-10-26T09:51:07Z</time>
      </trkpt>
      <trkpt lat="43.51345" lon="6.68032">
        <ele>168.2</ele>
        <time>2025-10-26T09:51:08Z</time>
      </trkpt>
      <trkpt lat="43.51345" lon="6.68032">
        <ele>168.3</ele>
        <time>2025-10-26T09:51:09Z</time>
      </trkpt>
      <trkpt lat="43.51345" lon="6.68032">
        <ele>168.4</ele>
        <time>2025-10-26T09:51:10Z</time>
      </trkpt>
      <trkpt lat="43.51345" lon="6.68032">
        <ele>168.4</ele>
        <time>2025-10-26T09:51:11Z</time>
      </trkpt>
      <trkpt lat="43.51345" lon="6.68032">
        <ele>168.5</ele>
        <time>2025-10-26T09:51:12Z</time>
      </trkpt>
      <trkpt lat="43.51345" lon="6.68032">
        <ele>168.4</ele>
        <time>2025-10-26T09:51:13Z</time>
      </trkpt>
      <trkpt lat="43.51345" lon="6.68031">
        <ele>168.5</ele>
        <time>2025-10-26T09:51:14Z</time>
      </trkpt>
      <trkpt lat="43.51345" lon="6.68032">
        <ele>168.5</ele>
        <time>2025-10-26T09:51:15Z</time>
      </trkpt>
      <trkpt lat="43.51345" lon="6.68032">
        <ele>168.5</ele>
        <time>2025-10-26T09:51:16Z</time>
      </trkpt>
      <trkpt lat="43.51345" lon="6.68032">
        <ele>168.6</ele>
        <time>2025-10-26T09:51:17Z</time>
      </trkpt>
      <trkpt lat="43.51345" lon="6.68032">
        <ele>168.6</ele>
        <time>2025-10-26T09:51:18Z</time>
      </trkpt>
      <trkpt lat="43.51345" lon="6.68032">
        <ele>168.6</ele>
        <time>2025-10-26T09:51:19Z</time>
      </trkpt>
      <trkpt lat="43.51344" lon="6.68032">
        <ele>168.6</ele>
        <time>2025-10-26T09:51:20Z</time>
      </trkpt>
      <trkpt lat="43.51344" lon="6.68032">
        <ele>168.6</ele>
        <time>2025-10-26T09:51:21Z</time>
      </trkpt>
      <trkpt lat="43.51344" lon="6.68032">
        <ele>168.6</ele>
        <time>2025-10-26T09:51:22Z</time>
      </trkpt>
      <trkpt lat="43.51344" lon="6.68032">
        <ele>168.6</ele>
        <time>2025-10-26T09:51:23Z</time>
      </trkpt>
      <trkpt lat="43.51344" lon="6.68032">
        <ele>168.6</ele>
        <time>2025-10-26T09:51:24Z</time>
      </trkpt>
      <trkpt lat="43.51344" lon="6.68032">
        <ele>168.6</ele>
        <time>2025-10-26T09:51:25Z</time>
      </trkpt>
      <trkpt lat="43.51344" lon="6.68032">
        <ele>168.5</ele>
        <time>2025-10-26T09:51:26Z</time>
      </trkpt>
      <trkpt lat="43.51344" lon="6.68032">
        <ele>168.5</ele>
        <time>2025-10-26T09:51:27Z</time>
      </trkpt>
      <trkpt lat="43.51344" lon="6.68032">
        <ele>168.5</ele>
        <time>2025-10-26T09:51:28Z</time>
      </trkpt>
      <trkpt lat="43.51344" lon="6.68032">
        <ele>168.5</ele>
        <time>2025-10-26T09:51:29Z</time>
      </trkpt>
      <trkpt lat="43.51344" lon="6.68032">
        <ele>168.6</ele>
        <time>2025-10-26T09:51:30Z</time>
      </trkpt>
      <trkpt lat="43.51344" lon="6.68032">
        <ele>168.7</ele>
        <time>2025-10-26T09:51:31Z</time>
      </trkpt>
      <trkpt lat="43.51344" lon="6.68032">
        <ele>168.7</ele>
        <time>2025-10-26T09:51:32Z</time>
      </trkpt>
      <trkpt lat="43.51344" lon="6.68032">
        <ele>168.7</ele>
        <time>2025-10-26T09:51:33Z</time>
      </trkpt>
      <trkpt lat="43.51344" lon="6.68031">
        <ele>168.8</ele>
        <time>2025-10-26T09:51:34Z</time>
      </trkpt>
      <trkpt lat="43.51344" lon="6.68032">
        <ele>168.8</ele>
        <time>2025-10-26T09:51:35Z</time>
      </trkpt>
      <trkpt lat="43.51344" lon="6.68032">
        <ele>168.7</ele>
        <time>2025-10-26T09:51:36Z</time>
      </trkpt>
      <trkpt lat="43.51345" lon="6.68032">
        <ele>168.7</ele>
        <time>2025-10-26T09:51:37Z</time>
      </trkpt>
      <trkpt lat="43.51345" lon="6.68032">
        <ele>168.6</ele>
        <time>2025-10-26T09:51:38Z</time>
      </trkpt>
      <trkpt lat="43.51345" lon="6.68032">
        <ele>168.7</ele>
        <time>2025-10-26T09:51:39Z</time>
      </trkpt>
      <trkpt lat="43.51345" lon="6.68032">
        <ele>168.6</ele>
        <time>2025-10-26T09:51:40Z</time>
      </trkpt>
      <trkpt lat="43.51344" lon="6.68032">
        <ele>168.7</ele>
        <time>2025-10-26T09:51:41Z</time>
      </trkpt>
      <trkpt lat="43.51344" lon="6.68031">
        <ele>168.7</ele>
        <time>2025-10-26T09:51:42Z</time>
      </trkpt>
      <trkpt lat="43.51344" lon="6.68031">
        <ele>168.8</ele>
        <time>2025-10-26T09:51:43Z</time>
      </trkpt>
      <trkpt lat="43.51344" lon="6.68031">
        <ele>168.8</ele>
        <time>2025-10-26T09:51:44Z</time>
      </trkpt>
      <trkpt lat="43.51344" lon="6.68031">
        <ele>168.8</ele>
        <time>2025-10-26T09:51:45Z</time>
      </trkpt>
      <trkpt lat="43.51344" lon="6.68031">
        <ele>168.8</ele>
        <time>2025-10-26T09:51:46Z</time>
      </trkpt>
      <trkpt lat="43.51344" lon="6.68031">
        <ele>168.7</ele>
        <time>2025-10-26T09:51:47Z</time>
      </trkpt>
      <trkpt lat="43.51344" lon="6.68031">
        <ele>168.6</ele>
        <time>2025-10-26T09:51:48Z</time>
      </trkpt>
      <trkpt lat="43.51344" lon="6.68032">
        <ele>168.7</ele>
        <time>2025-10-26T09:51:49Z</time>
      </trkpt>
      <trkpt lat="43.51344" lon="6.68032">
        <ele>168.7</ele>
        <time>2025-10-26T09:51:50Z</time>
      </trkpt>
      <trkpt lat="43.51344" lon="6.68032">
        <ele>168.7</ele>
        <time>2025-10-26T09:51:51Z</time>
      </trkpt>
      <trkpt lat="43.51344" lon="6.68031">
        <ele>168.8</ele>
        <time>2025-10-26T09:51:52Z</time>
      </trkpt>
      <trkpt lat="43.51344" lon="6.68031">
        <ele>168.8</ele>
        <time>2025-10-26T09:51:53Z</time>
      </trkpt>
      <trkpt lat="43.51343" lon="6.68031">
        <ele>168.9</ele>
        <time>2025-10-26T09:51:54Z</time>
      </trkpt>
      <trkpt lat="43.51343" lon="6.68031">
        <ele>169</ele>
        <time>2025-10-26T09:51:55Z</time>
      </trkpt>
      <trkpt lat="43.51343" lon="6.6803">
        <ele>169</ele>
        <time>2025-10-26T09:51:56Z</time>
      </trkpt>
      <trkpt lat="43.51343" lon="6.6803">
        <ele>169</ele>
        <time>2025-10-26T09:51:57Z</time>
      </trkpt>
      <trkpt lat="43.51343" lon="6.6803">
        <ele>168.8</ele>
        <time>2025-10-26T09:51:58Z</time>
      </trkpt>
      <trkpt lat="43.51343" lon="6.6803">
        <ele>168.7</ele>
        <time>2025-10-26T09:51:59Z</time>
      </trkpt>
      <trkpt lat="43.51343" lon="6.6803">
        <ele>168.6</ele>
        <time>2025-10-26T09:52:00Z</time>
      </trkpt>
      <trkpt lat="43.51343" lon="6.68029">
        <ele>168.5</ele>
        <time>2025-10-26T09:52:01Z</time>
      </trkpt>
      <trkpt lat="43.51343" lon="6.68029">
        <ele>168.4</ele>
        <time>2025-10-26T09:52:02Z</time>
      </trkpt>
      <trkpt lat="43.51343" lon="6.68029">
        <ele>168.2</ele>
        <time>2025-10-26T09:52:03Z</time>
      </trkpt>
      <trkpt lat="43.51343" lon="6.68029">
        <ele>168.1</ele>
        <time>2025-10-26T09:52:04Z</time>
      </trkpt>
      <trkpt lat="43.51343" lon="6.68029">
        <ele>168</ele>
        <time>2025-10-26T09:52:05Z</time>
      </trkpt>
      <trkpt lat="43.51343" lon="6.68028">
        <ele>167.9</ele>
        <time>2025-10-26T09:52:06Z</time>
      </trkpt>
      <trkpt lat="43.51343" lon="6.68026">
        <ele>167.7</ele>
        <time>2025-10-26T09:52:07Z</time>
      </trkpt>
      <trkpt lat="43.51343" lon="6.68024">
        <ele>167.6</ele>
        <time>2025-10-26T09:52:08Z</time>
      </trkpt>
      <trkpt lat="43.51343" lon="6.68024">
        <ele>167.4</ele>
        <time>2025-10-26T09:52:09Z</time>
      </trkpt>
      <trkpt lat="43.51343" lon="6.68023">
        <ele>167.2</ele>
        <time>2025-10-26T09:52:10Z</time>
      </trkpt>
      <trkpt lat="43.51344" lon="6.68023">
        <ele>167</ele>
        <time>2025-10-26T09:52:11Z</time>
      </trkpt>
      <trkpt lat="43.51344" lon="6.68023">
        <ele>166.8</ele>
        <time>2025-10-26T09:52:12Z</time>
      </trkpt>
      <trkpt lat="43.51344" lon="6.68022">
        <ele>166.7</ele>
        <time>2025-10-26T09:52:13Z</time>
      </trkpt>
      <trkpt lat="43.51344" lon="6.68022">
        <ele>166.7</ele>
        <time>2025-10-26T09:52:14Z</time>
      </trkpt>
      <trkpt lat="43.51344" lon="6.68022">
        <ele>166.6</ele>
        <time>2025-10-26T09:52:15Z</time>
      </trkpt>
      <trkpt lat="43.51344" lon="6.68022">
        <ele>166.7</ele>
        <time>2025-10-26T09:52:16Z</time>
      </trkpt>
      <trkpt lat="43.51344" lon="6.68022">
        <ele>166.6</ele>
        <time>2025-10-26T09:52:17Z</time>
      </trkpt>
      <trkpt lat="43.51344" lon="6.68022">
        <ele>166.6</ele>
        <time>2025-10-26T09:52:18Z</time>
      </trkpt>
      <trkpt lat="43.51344" lon="6.68022">
        <ele>166.5</ele>
        <time>2025-10-26T09:52:19Z</time>
      </trkpt>
      <trkpt lat="43.51344" lon="6.68021">
        <ele>166.5</ele>
        <time>2025-10-26T09:52:20Z</time>
      </trkpt>
      <trkpt lat="43.51343" lon="6.68021">
        <ele>166.4</ele>
        <time>2025-10-26T09:52:21Z</time>
      </trkpt>
      <trkpt lat="43.51343" lon="6.68021">
        <ele>166.4</ele>
        <time>2025-10-26T09:52:22Z</time>
      </trkpt>
      <trkpt lat="43.51343" lon="6.68021">
        <ele>166.3</ele>
        <time>2025-10-26T09:52:23Z</time>
      </trkpt>
      <trkpt lat="43.51343" lon="6.68021">
        <ele>166.2</ele>
        <time>2025-10-26T09:52:24Z</time>
      </trkpt>
      <trkpt lat="43.51343" lon="6.68021">
        <ele>166.1</ele>
        <time>2025-10-26T09:52:25Z</time>
      </trkpt>
      <trkpt lat="43.51343" lon="6.68021">
        <ele>166.1</ele>
        <time>2025-10-26T09:52:26Z</time>
      </trkpt>
      <trkpt lat="43.51344" lon="6.68021">
        <ele>166.1</ele>
        <time>2025-10-26T09:52:27Z</time>
      </trkpt>
      <trkpt lat="43.51344" lon="6.68021">
        <ele>166.2</ele>
        <time>2025-10-26T09:52:28Z</time>
      </trkpt>
      <trkpt lat="43.51345" lon="6.6802">
        <ele>166.2</ele>
        <time>2025-10-26T09:52:29Z</time>
      </trkpt>
      <trkpt lat="43.51345" lon="6.68019">
        <ele>166.1</ele>
        <time>2025-10-26T09:52:30Z</time>
      </trkpt>
      <trkpt lat="43.51346" lon="6.68019">
        <ele>166</ele>
        <time>2025-10-26T09:52:31Z</time>
      </trkpt>
      <trkpt lat="43.51346" lon="6.68019">
        <ele>165.9</ele>
        <time>2025-10-26T09:52:32Z</time>
      </trkpt>
      <trkpt lat="43.51346" lon="6.68018">
        <ele>165.9</ele>
        <time>2025-10-26T09:52:33Z</time>
      </trkpt>
      <trkpt lat="43.51346" lon="6.68017">
        <ele>166</ele>
        <time>2025-10-26T09:52:34Z</time>
      </trkpt>
      <trkpt lat="43.51347" lon="6.68017">
        <ele>166</ele>
        <time>2025-10-26T09:52:35Z</time>
      </trkpt>
      <trkpt lat="43.51347" lon="6.68016">
        <ele>166</ele>
        <time>2025-10-26T09:52:36Z</time>
      </trkpt>
      <trkpt lat="43.51347" lon="6.68016">
        <ele>166</ele>
        <time>2025-10-26T09:52:37Z</time>
      </trkpt>
      <trkpt lat="43.51348" lon="6.68015">
        <ele>166</ele>
        <time>2025-10-26T09:52:38Z</time>
      </trkpt>
      <trkpt lat="43.51349" lon="6.68015">
        <ele>166.1</ele>
        <time>2025-10-26T09:52:39Z</time>
      </trkpt>
      <trkpt lat="43.51349" lon="6.68014">
        <ele>166.1</ele>
        <time>2025-10-26T09:52:40Z</time>
      </trkpt>
      <trkpt lat="43.51349" lon="6.68013">
        <ele>166.1</ele>
        <time>2025-10-26T09:52:41Z</time>
      </trkpt>
      <trkpt lat="43.51349" lon="6.68012">
        <ele>166.2</ele>
        <time>2025-10-26T09:52:42Z</time>
      </trkpt>
      <trkpt lat="43.5135" lon="6.68011">
        <ele>166.2</ele>
        <time>2025-10-26T09:52:43Z</time>
      </trkpt>
      <trkpt lat="43.5135" lon="6.68011">
        <ele>166.2</ele>
        <time>2025-10-26T09:52:44Z</time>
      </trkpt>
      <trkpt lat="43.5135" lon="6.6801">
        <ele>166.2</ele>
        <time>2025-10-26T09:52:45Z</time>
      </trkpt>
      <trkpt lat="43.5135" lon="6.68009">
        <ele>166.2</ele>
        <time>2025-10-26T09:52:46Z</time>
      </trkpt>
      <trkpt lat="43.51351" lon="6.68009">
        <ele>166.2</ele>
        <time>2025-10-26T09:52:47Z</time>
      </trkpt>
      <trkpt lat="43.51351" lon="6.68009">
        <ele>166.2</ele>
        <time>2025-10-26T09:52:48Z</time>
      </trkpt>
      <trkpt lat="43.51351" lon="6.68009">
        <ele>166.2</ele>
        <time>2025-10-26T09:52:49Z</time>
      </trkpt>
      <trkpt lat="43.51351" lon="6.68009">
        <ele>166.2</ele>
        <time>2025-10-26T09:52:50Z</time>
      </trkpt>
      <trkpt lat="43.51351" lon="6.68009">
        <ele>166.2</ele>
        <time>2025-10-26T09:52:51Z</time>
      </trkpt>
      <trkpt lat="43.51352" lon="6.68008">
        <ele>165.9</ele>
        <time>2025-10-26T09:52:52Z</time>
      </trkpt>
      <trkpt lat="43.51351" lon="6.68008">
        <ele>165.9</ele>
        <time>2025-10-26T09:52:53Z</time>
      </trkpt>
      <trkpt lat="43.51351" lon="6.68008">
        <ele>165.7</ele>
        <time>2025-10-26T09:52:54Z</time>
      </trkpt>
      <trkpt lat="43.51351" lon="6.68008">
        <ele>165.8</ele>
        <time>2025-10-26T09:52:55Z</time>
      </trkpt>
      <trkpt lat="43.51351" lon="6.68007">
        <ele>165.8</ele>
        <time>2025-10-26T09:52:56Z</time>
      </trkpt>
      <trkpt lat="43.51351" lon="6.68007">
        <ele>165.8</ele>
        <time>2025-10-26T09:52:57Z</time>
      </trkpt>
      <trkpt lat="43.5135" lon="6.68007">
        <ele>165.8</ele>
        <time>2025-10-26T09:52:58Z</time>
      </trkpt>
      <trkpt lat="43.5135" lon="6.68007">
        <ele>165.8</ele>
        <time>2025-10-26T09:52:59Z</time>
      </trkpt>
      <trkpt lat="43.5135" lon="6.68006">
        <ele>165.7</ele>
        <time>2025-10-26T09:53:00Z</time>
      </trkpt>
      <trkpt lat="43.5135" lon="6.68006">
        <ele>165.7</ele>
        <time>2025-10-26T09:53:01Z</time>
      </trkpt>
      <trkpt lat="43.5135" lon="6.68006">
        <ele>165.6</ele>
        <time>2025-10-26T09:53:02Z</time>
      </trkpt>
      <trkpt lat="43.5135" lon="6.68007">
        <ele>165.7</ele>
        <time>2025-10-26T09:53:03Z</time>
      </trkpt>
      <trkpt lat="43.5135" lon="6.68007">
        <ele>165.7</ele>
        <time>2025-10-26T09:53:04Z</time>
      </trkpt>
      <trkpt lat="43.5135" lon="6.68008">
        <ele>165.6</ele>
        <time>2025-10-26T09:53:05Z</time>
      </trkpt>
      <trkpt lat="43.5135" lon="6.68009">
        <ele>165.5</ele>
        <time>2025-10-26T09:53:06Z</time>
      </trkpt>
      <trkpt lat="43.5135" lon="6.68009">
        <ele>165.5</ele>
        <time>2025-10-26T09:53:07Z</time>
      </trkpt>
      <trkpt lat="43.51351" lon="6.68009">
        <ele>165.6</ele>
        <time>2025-10-26T09:53:08Z</time>
      </trkpt>
      <trkpt lat="43.51351" lon="6.6801">
        <ele>165.6</ele>
        <time>2025-10-26T09:53:09Z</time>
      </trkpt>
      <trkpt lat="43.51351" lon="6.68009">
        <ele>165.6</ele>
        <time>2025-10-26T09:53:10Z</time>
      </trkpt>
      <trkpt lat="43.51351" lon="6.6801">
        <ele>165.6</ele>
        <time>2025-10-26T09:53:11Z</time>
      </trkpt>
      <trkpt lat="43.51351" lon="6.6801">
        <ele>165.6</ele>
        <time>2025-10-26T09:53:12Z</time>
      </trkpt>
      <trkpt lat="43.51352" lon="6.68009">
        <ele>165.7</ele>
        <time>2025-10-26T09:53:13Z</time>
      </trkpt>
      <trkpt lat="43.51352" lon="6.68009">
        <ele>165.7</ele>
        <time>2025-10-26T09:53:14Z</time>
      </trkpt>
      <trkpt lat="43.51353" lon="6.68008">
        <ele>165.6</ele>
        <time>2025-10-26T09:53:15Z</time>
      </trkpt>
      <trkpt lat="43.51353" lon="6.68008">
        <ele>165.6</ele>
        <time>2025-10-26T09:53:16Z</time>
      </trkpt>
      <trkpt lat="43.51353" lon="6.68008">
        <ele>165.6</ele>
        <time>2025-10-26T09:53:17Z</time>
      </trkpt>
      <trkpt lat="43.51353" lon="6.68008">
        <ele>165.6</ele>
        <time>2025-10-26T09:53:18Z</time>
      </trkpt>
      <trkpt lat="43.51354" lon="6.68007">
        <ele>165.7</ele>
        <time>2025-10-26T09:53:19Z</time>
      </trkpt>
      <trkpt lat="43.51354" lon="6.68006">
        <ele>165.8</ele>
        <time>2025-10-26T09:53:20Z</time>
      </trkpt>
      <trkpt lat="43.51354" lon="6.68005">
        <ele>165.8</ele>
        <time>2025-10-26T09:53:21Z</time>
      </trkpt>
      <trkpt lat="43.51355" lon="6.68004">
        <ele>165.8</ele>
        <time>2025-10-26T09:53:22Z</time>
      </trkpt>
      <trkpt lat="43.51355" lon="6.68004">
        <ele>165.8</ele>
        <time>2025-10-26T09:53:23Z</time>
      </trkpt>
      <trkpt lat="43.51356" lon="6.68004">
        <ele>165.9</ele>
        <time>2025-10-26T09:53:24Z</time>
      </trkpt>
      <trkpt lat="43.51356" lon="6.68004">
        <ele>165.8</ele>
        <time>2025-10-26T09:53:25Z</time>
      </trkpt>
      <trkpt lat="43.51356" lon="6.68003">
        <ele>165.8</ele>
        <time>2025-10-26T09:53:26Z</time>
      </trkpt>
      <trkpt lat="43.51357" lon="6.68002">
        <ele>165.8</ele>
        <time>2025-10-26T09:53:27Z</time>
      </trkpt>
      <trkpt lat="43.51357" lon="6.68002">
        <ele>165.8</ele>
        <time>2025-10-26T09:53:28Z</time>
      </trkpt>
      <trkpt lat="43.51358" lon="6.68001">
        <ele>165.8</ele>
        <time>2025-10-26T09:53:29Z</time>
      </trkpt>
      <trkpt lat="43.51359" lon="6.68">
        <ele>165.8</ele>
        <time>2025-10-26T09:53:30Z</time>
      </trkpt>
      <trkpt lat="43.51359" lon="6.68">
        <ele>165.8</ele>
        <time>2025-10-26T09:53:31Z</time>
      </trkpt>
      <trkpt lat="43.5136" lon="6.68">
        <ele>165.8</ele>
        <time>2025-10-26T09:53:32Z</time>
      </trkpt>
      <trkpt lat="43.5136" lon="6.68">
        <ele>165.7</ele>
        <time>2025-10-26T09:53:33Z</time>
      </trkpt>
      <trkpt lat="43.51361" lon="6.68">
        <ele>165.7</ele>
        <time>2025-10-26T09:53:34Z</time>
      </trkpt>
      <trkpt lat="43.51361" lon="6.68">
        <ele>165.7</ele>
        <time>2025-10-26T09:53:35Z</time>
      </trkpt>
      <trkpt lat="43.51362" lon="6.68">
        <ele>165.7</ele>
        <time>2025-10-26T09:53:36Z</time>
      </trkpt>
      <trkpt lat="43.51363" lon="6.68">
        <ele>165.6</ele>
        <time>2025-10-26T09:53:37Z</time>
      </trkpt>
      <trkpt lat="43.51363" lon="6.68">
        <ele>165.6</ele>
        <time>2025-10-26T09:53:38Z</time>
      </trkpt>
      <trkpt lat="43.51364" lon="6.68">
        <ele>165.7</ele>
        <time>2025-10-26T09:53:39Z</time>
      </trkpt>
      <trkpt lat="43.51365" lon="6.68001">
        <ele>165.7</ele>
        <time>2025-10-26T09:53:40Z</time>
      </trkpt>
      <trkpt lat="43.51366" lon="6.68001">
        <ele>165.8</ele>
        <time>2025-10-26T09:53:41Z</time>
      </trkpt>
      <trkpt lat="43.51367" lon="6.68001">
        <ele>165.8</ele>
        <time>2025-10-26T09:53:42Z</time>
      </trkpt>
      <trkpt lat="43.51368" lon="6.68">
        <ele>165.7</ele>
        <time>2025-10-26T09:53:43Z</time>
      </trkpt>
      <trkpt lat="43.51369" lon="6.68">
        <ele>165.6</ele>
        <time>2025-10-26T09:53:44Z</time>
      </trkpt>
      <trkpt lat="43.51369" lon="6.68">
        <ele>165.5</ele>
        <time>2025-10-26T09:53:45Z</time>
      </trkpt>
      <trkpt lat="43.5137" lon="6.67999">
        <ele>165.6</ele>
        <time>2025-10-26T09:53:46Z</time>
      </trkpt>
      <trkpt lat="43.51371" lon="6.67998">
        <ele>165.7</ele>
        <time>2025-10-26T09:53:47Z</time>
      </trkpt>
      <trkpt lat="43.51371" lon="6.67997">
        <ele>165.7</ele>
        <time>2025-10-26T09:53:48Z</time>
      </trkpt>
      <trkpt lat="43.51371" lon="6.67997">
        <ele>165.7</ele>
        <time>2025-10-26T09:53:49Z</time>
      </trkpt>
      <trkpt lat="43.51371" lon="6.67997">
        <ele>165.8</ele>
        <time>2025-10-26T09:53:50Z</time>
      </trkpt>
      <trkpt lat="43.51371" lon="6.67996">
        <ele>165.7</ele>
        <time>2025-10-26T09:53:51Z</time>
      </trkpt>
      <trkpt lat="43.51371" lon="6.67996">
        <ele>165.7</ele>
        <time>2025-10-26T09:53:52Z</time>
      </trkpt>
      <trkpt lat="43.51372" lon="6.67996">
        <ele>165.7</ele>
        <time>2025-10-26T09:53:53Z</time>
      </trkpt>
      <trkpt lat="43.51372" lon="6.67995">
        <ele>165.7</ele>
        <time>2025-10-26T09:53:54Z</time>
      </trkpt>
      <trkpt lat="43.51373" lon="6.67995">
        <ele>165.8</ele>
        <time>2025-10-26T09:53:55Z</time>
      </trkpt>
      <trkpt lat="43.51373" lon="6.67995">
        <ele>165.8</ele>
        <time>2025-10-26T09:53:56Z</time>
      </trkpt>
      <trkpt lat="43.51373" lon="6.67995">
        <ele>165.8</ele>
        <time>2025-10-26T09:53:57Z</time>
      </trkpt>
      <trkpt lat="43.51374" lon="6.67995">
        <ele>165.8</ele>
        <time>2025-10-26T09:53:58Z</time>
      </trkpt>
      <trkpt lat="43.51374" lon="6.67994">
        <ele>165.8</ele>
        <time>2025-10-26T09:53:59Z</time>
      </trkpt>
      <trkpt lat="43.51374" lon="6.67994">
        <ele>165.8</ele>
        <time>2025-10-26T09:54:00Z</time>
      </trkpt>
      <trkpt lat="43.51374" lon="6.67994">
        <ele>165.8</ele>
        <time>2025-10-26T09:54:01Z</time>
      </trkpt>
      <trkpt lat="43.51374" lon="6.67994">
        <ele>165.9</ele>
        <time>2025-10-26T09:54:02Z</time>
      </trkpt>
      <trkpt lat="43.51374" lon="6.67994">
        <ele>165.9</ele>
        <time>2025-10-26T09:54:03Z</time>
      </trkpt>
      <trkpt lat="43.51374" lon="6.67995">
        <ele>165.9</ele>
        <time>2025-10-26T09:54:04Z</time>
      </trkpt>
      <trkpt lat="43.51374" lon="6.67995">
        <ele>165.9</ele>
        <time>2025-10-26T09:54:05Z</time>
      </trkpt>
      <trkpt lat="43.51374" lon="6.67995">
        <ele>165.9</ele>
        <time>2025-10-26T09:54:06Z</time>
      </trkpt>
      <trkpt lat="43.51373" lon="6.67995">
        <ele>165.9</ele>
        <time>2025-10-26T09:54:07Z</time>
      </trkpt>
      <trkpt lat="43.51373" lon="6.67995">
        <ele>166</ele>
        <time>2025-10-26T09:54:08Z</time>
      </trkpt>
      <trkpt lat="43.51373" lon="6.67995">
        <ele>166.1</ele>
        <time>2025-10-26T09:54:09Z</time>
      </trkpt>
      <trkpt lat="43.51372" lon="6.67995">
        <ele>166</ele>
        <time>2025-10-26T09:54:10Z</time>
      </trkpt>
      <trkpt lat="43.51372" lon="6.67994">
        <ele>165.9</ele>
        <time>2025-10-26T09:54:11Z</time>
      </trkpt>
      <trkpt lat="43.51372" lon="6.67994">
        <ele>165.9</ele>
        <time>2025-10-26T09:54:12Z</time>
      </trkpt>
      <trkpt lat="43.51371" lon="6.67994">
        <ele>165.8</ele>
        <time>2025-10-26T09:54:13Z</time>
      </trkpt>
      <trkpt lat="43.51372" lon="6.67994">
        <ele>165.8</ele>
        <time>2025-10-26T09:54:14Z</time>
      </trkpt>
      <trkpt lat="43.51372" lon="6.67995">
        <ele>165.7</ele>
        <time>2025-10-26T09:54:15Z</time>
      </trkpt>
      <trkpt lat="43.51372" lon="6.67995">
        <ele>165.7</ele>
        <time>2025-10-26T09:54:16Z</time>
      </trkpt>
      <trkpt lat="43.51373" lon="6.67995">
        <ele>165.8</ele>
        <time>2025-10-26T09:54:17Z</time>
      </trkpt>
      <trkpt lat="43.51373" lon="6.67995">
        <ele>165.9</ele>
        <time>2025-10-26T09:54:18Z</time>
      </trkpt>
      <trkpt lat="43.51374" lon="6.67995">
        <ele>166</ele>
        <time>2025-10-26T09:54:19Z</time>
      </trkpt>
      <trkpt lat="43.51374" lon="6.67995">
        <ele>166</ele>
        <time>2025-10-26T09:54:20Z</time>
      </trkpt>
      <trkpt lat="43.51374" lon="6.67994">
        <ele>166.1</ele>
        <time>2025-10-26T09:54:21Z</time>
      </trkpt>
      <trkpt lat="43.51374" lon="6.67994">
        <ele>166.1</ele>
        <time>2025-10-26T09:54:22Z</time>
      </trkpt>
      <trkpt lat="43.51374" lon="6.67994">
        <ele>166.1</ele>
        <time>2025-10-26T09:54:23Z</time>
      </trkpt>
      <trkpt lat="43.51374" lon="6.67994">
        <ele>166.2</ele>
        <time>2025-10-26T09:54:24Z</time>
      </trkpt>
      <trkpt lat="43.51374" lon="6.67994">
        <ele>166.2</ele>
        <time>2025-10-26T09:54:25Z</time>
      </trkpt>
      <trkpt lat="43.51375" lon="6.67995">
        <ele>166.1</ele>
        <time>2025-10-26T09:54:26Z</time>
      </trkpt>
      <trkpt lat="43.51375" lon="6.67995">
        <ele>166</ele>
        <time>2025-10-26T09:54:27Z</time>
      </trkpt>
      <trkpt lat="43.51376" lon="6.67995">
        <ele>166</ele>
        <time>2025-10-26T09:54:28Z</time>
      </trkpt>
      <trkpt lat="43.51376" lon="6.67995">
        <ele>165.9</ele>
        <time>2025-10-26T09:54:29Z</time>
      </trkpt>
      <trkpt lat="43.51376" lon="6.67996">
        <ele>165.9</ele>
        <time>2025-10-26T09:54:30Z</time>
      </trkpt>
      <trkpt lat="43.51376" lon="6.67997">
        <ele>165.9</ele>
        <time>2025-10-26T09:54:31Z</time>
      </trkpt>
      <trkpt lat="43.51376" lon="6.67997">
        <ele>165.9</ele>
        <time>2025-10-26T09:54:32Z</time>
      </trkpt>
      <trkpt lat="43.51376" lon="6.67998">
        <ele>165.9</ele>
        <time>2025-10-26T09:54:33Z</time>
      </trkpt>
      <trkpt lat="43.51377" lon="6.67999">
        <ele>165.9</ele>
        <time>2025-10-26T09:54:34Z</time>
      </trkpt>
      <trkpt lat="43.51377" lon="6.68">
        <ele>165.9</ele>
        <time>2025-10-26T09:54:35Z</time>
      </trkpt>
      <trkpt lat="43.51377" lon="6.68001">
        <ele>165.9</ele>
        <time>2025-10-26T09:54:36Z</time>
      </trkpt>
      <trkpt lat="43.51377" lon="6.68002">
        <ele>166</ele>
        <time>2025-10-26T09:54:37Z</time>
      </trkpt>
      <trkpt lat="43.51377" lon="6.68002">
        <ele>166</ele>
        <time>2025-10-26T09:54:38Z</time>
      </trkpt>
      <trkpt lat="43.51378" lon="6.68003">
        <ele>166</ele>
        <time>2025-10-26T09:54:39Z</time>
      </trkpt>
      <trkpt lat="43.51379" lon="6.68003">
        <ele>166</ele>
        <time>2025-10-26T09:54:40Z</time>
      </trkpt>
      <trkpt lat="43.51379" lon="6.68004">
        <ele>165.9</ele>
        <time>2025-10-26T09:54:41Z</time>
      </trkpt>
      <trkpt lat="43.51379" lon="6.68005">
        <ele>165.9</ele>
        <time>2025-10-26T09:54:42Z</time>
      </trkpt>
      <trkpt lat="43.5138" lon="6.68006">
        <ele>165.8</ele>
        <time>2025-10-26T09:54:43Z</time>
      </trkpt>
      <trkpt lat="43.5138" lon="6.68007">
        <ele>165.6</ele>
        <time>2025-10-26T09:54:44Z</time>
      </trkpt>
      <trkpt lat="43.51381" lon="6.68008">
        <ele>165.5</ele>
        <time>2025-10-26T09:54:45Z</time>
      </trkpt>
      <trkpt lat="43.51381" lon="6.68009">
        <ele>165.4</ele>
        <time>2025-10-26T09:54:46Z</time>
      </trkpt>
      <trkpt lat="43.51381" lon="6.6801">
        <ele>165.3</ele>
        <time>2025-10-26T09:54:47Z</time>
      </trkpt>
      <trkpt lat="43.51382" lon="6.68011">
        <ele>165.2</ele>
        <time>2025-10-26T09:54:48Z</time>
      </trkpt>
      <trkpt lat="43.51382" lon="6.68011">
        <ele>165.2</ele>
        <time>2025-10-26T09:54:49Z</time>
      </trkpt>
      <trkpt lat="43.51382" lon="6.68012">
        <ele>165.1</ele>
        <time>2025-10-26T09:54:50Z</time>
      </trkpt>
      <trkpt lat="43.51383" lon="6.68013">
        <ele>165.1</ele>
        <time>2025-10-26T09:54:51Z</time>
      </trkpt>
      <trkpt lat="43.51383" lon="6.68014">
        <ele>165</ele>
        <time>2025-10-26T09:54:52Z</time>
      </trkpt>
      <trkpt lat="43.51383" lon="6.68015">
        <ele>165.1</ele>
        <time>2025-10-26T09:54:53Z</time>
      </trkpt>
      <trkpt lat="43.51383" lon="6.68016">
        <ele>165.1</ele>
        <time>2025-10-26T09:54:54Z</time>
      </trkpt>
      <trkpt lat="43.51383" lon="6.68017">
        <ele>165.1</ele>
        <time>2025-10-26T09:54:55Z</time>
      </trkpt>
      <trkpt lat="43.51384" lon="6.68018">
        <ele>165.1</ele>
        <time>2025-10-26T09:54:56Z</time>
      </trkpt>
      <trkpt lat="43.51384" lon="6.68019">
        <ele>165.1</ele>
        <time>2025-10-26T09:54:57Z</time>
      </trkpt>
      <trkpt lat="43.51385" lon="6.6802">
        <ele>165.2</ele>
        <time>2025-10-26T09:54:58Z</time>
      </trkpt>
      <trkpt lat="43.51385" lon="6.68021">
        <ele>165.2</ele>
        <time>2025-10-26T09:54:59Z</time>
      </trkpt>
      <trkpt lat="43.51385" lon="6.68022">
        <ele>165.2</ele>
        <time>2025-10-26T09:55:00Z</time>
      </trkpt>
      <trkpt lat="43.51386" lon="6.68023">
        <ele>165.3</ele>
        <time>2025-10-26T09:55:01Z</time>
      </trkpt>
      <trkpt lat="43.51386" lon="6.68024">
        <ele>165.3</ele>
        <time>2025-10-26T09:55:02Z</time>
      </trkpt>
      <trkpt lat="43.51386" lon="6.68025">
        <ele>165.3</ele>
        <time>2025-10-26T09:55:03Z</time>
      </trkpt>
      <trkpt lat="43.51387" lon="6.68025">
        <ele>165.3</ele>
        <time>2025-10-26T09:55:04Z</time>
      </trkpt>
      <trkpt lat="43.51387" lon="6.68027">
        <ele>165.3</ele>
        <time>2025-10-26T09:55:05Z</time>
      </trkpt>
      <trkpt lat="43.51387" lon="6.68027">
        <ele>165.3</ele>
        <time>2025-10-26T09:55:06Z</time>
      </trkpt>
      <trkpt lat="43.51387" lon="6.68028">
        <ele>165.3</ele>
        <time>2025-10-26T09:55:07Z</time>
      </trkpt>
      <trkpt lat="43.51388" lon="6.68029">
        <ele>165.2</ele>
        <time>2025-10-26T09:55:08Z</time>
      </trkpt>
      <trkpt lat="43.51388" lon="6.6803">
        <ele>165.3</ele>
        <time>2025-10-26T09:55:09Z</time>
      </trkpt>
      <trkpt lat="43.51389" lon="6.68031">
        <ele>165.4</ele>
        <time>2025-10-26T09:55:10Z</time>
      </trkpt>
      <trkpt lat="43.51389" lon="6.68032">
        <ele>165.2</ele>
        <time>2025-10-26T09:55:11Z</time>
      </trkpt>
      <trkpt lat="43.51389" lon="6.68034">
        <ele>165.2</ele>
        <time>2025-10-26T09:55:12Z</time>
      </trkpt>
      <trkpt lat="43.5139" lon="6.68035">
        <ele>165.1</ele>
        <time>2025-10-26T09:55:13Z</time>
      </trkpt>
      <trkpt lat="43.5139" lon="6.68036">
        <ele>165.1</ele>
        <time>2025-10-26T09:55:14Z</time>
      </trkpt>
      <trkpt lat="43.5139" lon="6.68037">
        <ele>165</ele>
        <time>2025-10-26T09:55:15Z</time>
      </trkpt>
      <trkpt lat="43.51391" lon="6.68038">
        <ele>165</ele>
        <time>2025-10-26T09:55:16Z</time>
      </trkpt>
      <trkpt lat="43.51391" lon="6.68039">
        <ele>165</ele>
        <time>2025-10-26T09:55:17Z</time>
      </trkpt>
      <trkpt lat="43.51392" lon="6.6804">
        <ele>165</ele>
        <time>2025-10-26T09:55:18Z</time>
      </trkpt>
      <trkpt lat="43.51392" lon="6.68041">
        <ele>164.9</ele>
        <time>2025-10-26T09:55:19Z</time>
      </trkpt>
      <trkpt lat="43.51393" lon="6.68042">
        <ele>164.9</ele>
        <time>2025-10-26T09:55:20Z</time>
      </trkpt>
      <trkpt lat="43.51394" lon="6.68042">
        <ele>164.8</ele>
        <time>2025-10-26T09:55:21Z</time>
      </trkpt>
      <trkpt lat="43.51393" lon="6.68043">
        <ele>164.8</ele>
        <time>2025-10-26T09:55:22Z</time>
      </trkpt>
      <trkpt lat="43.51394" lon="6.68044">
        <ele>164.7</ele>
        <time>2025-10-26T09:55:23Z</time>
      </trkpt>
      <trkpt lat="43.51395" lon="6.68045">
        <ele>164.7</ele>
        <time>2025-10-26T09:55:24Z</time>
      </trkpt>
      <trkpt lat="43.51395" lon="6.68046">
        <ele>164.6</ele>
        <time>2025-10-26T09:55:25Z</time>
      </trkpt>
      <trkpt lat="43.51395" lon="6.68047">
        <ele>164.6</ele>
        <time>2025-10-26T09:55:26Z</time>
      </trkpt>
      <trkpt lat="43.51396" lon="6.68048">
        <ele>164.6</ele>
        <time>2025-10-26T09:55:27Z</time>
      </trkpt>
      <trkpt lat="43.51397" lon="6.68048">
        <ele>164.8</ele>
        <time>2025-10-26T09:55:28Z</time>
      </trkpt>
      <trkpt lat="43.51398" lon="6.68049">
        <ele>164.9</ele>
        <time>2025-10-26T09:55:29Z</time>
      </trkpt>
      <trkpt lat="43.51398" lon="6.6805">
        <ele>164.9</ele>
        <time>2025-10-26T09:55:30Z</time>
      </trkpt>
      <trkpt lat="43.51399" lon="6.6805">
        <ele>164.9</ele>
        <time>2025-10-26T09:55:31Z</time>
      </trkpt>
      <trkpt lat="43.514" lon="6.68051">
        <ele>164.9</ele>
        <time>2025-10-26T09:55:32Z</time>
      </trkpt>
      <trkpt lat="43.51401" lon="6.68052">
        <ele>164.8</ele>
        <time>2025-10-26T09:55:33Z</time>
      </trkpt>
      <trkpt lat="43.51401" lon="6.68053">
        <ele>164.8</ele>
        <time>2025-10-26T09:55:34Z</time>
      </trkpt>
      <trkpt lat="43.51402" lon="6.68054">
        <ele>164.7</ele>
        <time>2025-10-26T09:55:35Z</time>
      </trkpt>
      <trkpt lat="43.51402" lon="6.68055">
        <ele>164.6</ele>
        <time>2025-10-26T09:55:36Z</time>
      </trkpt>
      <trkpt lat="43.51403" lon="6.68056">
        <ele>164.7</ele>
        <time>2025-10-26T09:55:37Z</time>
      </trkpt>
      <trkpt lat="43.51404" lon="6.68057">
        <ele>164.5</ele>
        <time>2025-10-26T09:55:38Z</time>
      </trkpt>
      <trkpt lat="43.51405" lon="6.68057">
        <ele>164.5</ele>
        <time>2025-10-26T09:55:39Z</time>
      </trkpt>
      <trkpt lat="43.51405" lon="6.68057">
        <ele>164.5</ele>
        <time>2025-10-26T09:55:40Z</time>
      </trkpt>
      <trkpt lat="43.51405" lon="6.68058">
        <ele>164.5</ele>
        <time>2025-10-26T09:55:41Z</time>
      </trkpt>
      <trkpt lat="43.51405" lon="6.68059">
        <ele>164.5</ele>
        <time>2025-10-26T09:55:42Z</time>
      </trkpt>
      <trkpt lat="43.51406" lon="6.6806">
        <ele>164.4</ele>
        <time>2025-10-26T09:55:43Z</time>
      </trkpt>
      <trkpt lat="43.51407" lon="6.6806">
        <ele>164.5</ele>
        <time>2025-10-26T09:55:44Z</time>
      </trkpt>
      <trkpt lat="43.51408" lon="6.6806">
        <ele>164.6</ele>
        <time>2025-10-26T09:55:45Z</time>
      </trkpt>
      <trkpt lat="43.51408" lon="6.6806">
        <ele>164.6</ele>
        <time>2025-10-26T09:55:46Z</time>
      </trkpt>
      <trkpt lat="43.51409" lon="6.68061">
        <ele>164.7</ele>
        <time>2025-10-26T09:55:47Z</time>
      </trkpt>
      <trkpt lat="43.51409" lon="6.68062">
        <ele>164.7</ele>
        <time>2025-10-26T09:55:48Z</time>
      </trkpt>
      <trkpt lat="43.5141" lon="6.68062">
        <ele>164.7</ele>
        <time>2025-10-26T09:55:49Z</time>
      </trkpt>
      <trkpt lat="43.5141" lon="6.68063">
        <ele>164.8</ele>
        <time>2025-10-26T09:55:50Z</time>
      </trkpt>
      <trkpt lat="43.51411" lon="6.68063">
        <ele>164.9</ele>
        <time>2025-10-26T09:55:51Z</time>
      </trkpt>
      <trkpt lat="43.51412" lon="6.68064">
        <ele>165</ele>
        <time>2025-10-26T09:55:52Z</time>
      </trkpt>
      <trkpt lat="43.51412" lon="6.68065">
        <ele>165.1</ele>
        <time>2025-10-26T09:55:53Z</time>
      </trkpt>
      <trkpt lat="43.51413" lon="6.68065">
        <ele>165.2</ele>
        <time>2025-10-26T09:55:54Z</time>
      </trkpt>
      <trkpt lat="43.51413" lon="6.68066">
        <ele>165.3</ele>
        <time>2025-10-26T09:55:55Z</time>
      </trkpt>
      <trkpt lat="43.51414" lon="6.68066">
        <ele>165.4</ele>
        <time>2025-10-26T09:55:56Z</time>
      </trkpt>
      <trkpt lat="43.51415" lon="6.68067">
        <ele>165.4</ele>
        <time>2025-10-26T09:55:57Z</time>
      </trkpt>
      <trkpt lat="43.51416" lon="6.68067">
        <ele>165.5</ele>
        <time>2025-10-26T09:55:58Z</time>
      </trkpt>
      <trkpt lat="43.51417" lon="6.68067">
        <ele>165.3</ele>
        <time>2025-10-26T09:55:59Z</time>
      </trkpt>
      <trkpt lat="43.51418" lon="6.68068">
        <ele>165.4</ele>
        <time>2025-10-26T09:56:00Z</time>
      </trkpt>
      <trkpt lat="43.5142" lon="6.68069">
        <ele>165.4</ele>
        <time>2025-10-26T09:56:01Z</time>
      </trkpt>
      <trkpt lat="43.51422" lon="6.68069">
        <ele>165.5</ele>
        <time>2025-10-26T09:56:02Z</time>
      </trkpt>
      <trkpt lat="43.51423" lon="6.6807">
        <ele>165.5</ele>
        <time>2025-10-26T09:56:03Z</time>
      </trkpt>
      <trkpt lat="43.51424" lon="6.6807">
        <ele>165.5</ele>
        <time>2025-10-26T09:56:04Z</time>
      </trkpt>
      <trkpt lat="43.51425" lon="6.68071">
        <ele>165.5</ele>
        <time>2025-10-26T09:56:05Z</time>
      </trkpt>
      <trkpt lat="43.51425" lon="6.68072">
        <ele>165.6</ele>
        <time>2025-10-26T09:56:06Z</time>
      </trkpt>
      <trkpt lat="43.51426" lon="6.68072">
        <ele>165.6</ele>
        <time>2025-10-26T09:56:07Z</time>
      </trkpt>
      <trkpt lat="43.51426" lon="6.68073">
        <ele>165.6</ele>
        <time>2025-10-26T09:56:08Z</time>
      </trkpt>
      <trkpt lat="43.51426" lon="6.68074">
        <ele>165.7</ele>
        <time>2025-10-26T09:56:09Z</time>
      </trkpt>
      <trkpt lat="43.51427" lon="6.68075">
        <ele>165.7</ele>
        <time>2025-10-26T09:56:10Z</time>
      </trkpt>
      <trkpt lat="43.51428" lon="6.68076">
        <ele>165.7</ele>
        <time>2025-10-26T09:56:11Z</time>
      </trkpt>
      <trkpt lat="43.51428" lon="6.68077">
        <ele>165.7</ele>
        <time>2025-10-26T09:56:12Z</time>
      </trkpt>
      <trkpt lat="43.51429" lon="6.68078">
        <ele>165.7</ele>
        <time>2025-10-26T09:56:13Z</time>
      </trkpt>
      <trkpt lat="43.5143" lon="6.68078">
        <ele>165.8</ele>
        <time>2025-10-26T09:56:14Z</time>
      </trkpt>
      <trkpt lat="43.51431" lon="6.6808">
        <ele>165.8</ele>
        <time>2025-10-26T09:56:15Z</time>
      </trkpt>
      <trkpt lat="43.51431" lon="6.6808">
        <ele>165.9</ele>
        <time>2025-10-26T09:56:16Z</time>
      </trkpt>
      <trkpt lat="43.51432" lon="6.68081">
        <ele>165.9</ele>
        <time>2025-10-26T09:56:17Z</time>
      </trkpt>
      <trkpt lat="43.51432" lon="6.68081">
        <ele>165.8</ele>
        <time>2025-10-26T09:56:18Z</time>
      </trkpt>
      <trkpt lat="43.51433" lon="6.68082">
        <ele>165.7</ele>
        <time>2025-10-26T09:56:19Z</time>
      </trkpt>
      <trkpt lat="43.51434" lon="6.68083">
        <ele>165.8</ele>
        <time>2025-10-26T09:56:20Z</time>
      </trkpt>
      <trkpt lat="43.51434" lon="6.68084">
        <ele>165.8</ele>
        <time>2025-10-26T09:56:21Z</time>
      </trkpt>
      <trkpt lat="43.51435" lon="6.68085">
        <ele>165.8</ele>
        <time>2025-10-26T09:56:22Z</time>
      </trkpt>
      <trkpt lat="43.51435" lon="6.68086">
        <ele>165.9</ele>
        <time>2025-10-26T09:56:23Z</time>
      </trkpt>
      <trkpt lat="43.51436" lon="6.68086">
        <ele>165.9</ele>
        <time>2025-10-26T09:56:24Z</time>
      </trkpt>
      <trkpt lat="43.51437" lon="6.68087">
        <ele>165.9</ele>
        <time>2025-10-26T09:56:25Z</time>
      </trkpt>
      <trkpt lat="43.51438" lon="6.68089">
        <ele>166</ele>
        <time>2025-10-26T09:56:26Z</time>
      </trkpt>
      <trkpt lat="43.51439" lon="6.6809">
        <ele>165.9</ele>
        <time>2025-10-26T09:56:27Z</time>
      </trkpt>
      <trkpt lat="43.5144" lon="6.68091">
        <ele>165.9</ele>
        <time>2025-10-26T09:56:28Z</time>
      </trkpt>
      <trkpt lat="43.51441" lon="6.68092">
        <ele>165.8</ele>
        <time>2025-10-26T09:56:29Z</time>
      </trkpt>
      <trkpt lat="43.51441" lon="6.68093">
        <ele>165.8</ele>
        <time>2025-10-26T09:56:30Z</time>
      </trkpt>
      <trkpt lat="43.51442" lon="6.68093">
        <ele>165.7</ele>
        <time>2025-10-26T09:56:31Z</time>
      </trkpt>
      <trkpt lat="43.51442" lon="6.68094">
        <ele>165.7</ele>
        <time>2025-10-26T09:56:32Z</time>
      </trkpt>
      <trkpt lat="43.51443" lon="6.68095">
        <ele>165.7</ele>
        <time>2025-10-26T09:56:33Z</time>
      </trkpt>
      <trkpt lat="43.51444" lon="6.68096">
        <ele>165.7</ele>
        <time>2025-10-26T09:56:34Z</time>
      </trkpt>
      <trkpt lat="43.51444" lon="6.68098">
        <ele>165.6</ele>
        <time>2025-10-26T09:56:35Z</time>
      </trkpt>
      <trkpt lat="43.51444" lon="6.68098">
        <ele>165.6</ele>
        <time>2025-10-26T09:56:36Z</time>
      </trkpt>
      <trkpt lat="43.51445" lon="6.68098">
        <ele>165.6</ele>
        <time>2025-10-26T09:56:37Z</time>
      </trkpt>
      <trkpt lat="43.51447" lon="6.68099">
        <ele>165.6</ele>
        <time>2025-10-26T09:56:38Z</time>
      </trkpt>
      <trkpt lat="43.51448" lon="6.68099">
        <ele>165.7</ele>
        <time>2025-10-26T09:56:39Z</time>
      </trkpt>
      <trkpt lat="43.51448" lon="6.68101">
        <ele>165.7</ele>
        <time>2025-10-26T09:56:40Z</time>
      </trkpt>
      <trkpt lat="43.51449" lon="6.68101">
        <ele>165.8</ele>
        <time>2025-10-26T09:56:41Z</time>
      </trkpt>
      <trkpt lat="43.51449" lon="6.68102">
        <ele>165.9</ele>
        <time>2025-10-26T09:56:42Z</time>
      </trkpt>
      <trkpt lat="43.5145" lon="6.68103">
        <ele>165.9</ele>
        <time>2025-10-26T09:56:43Z</time>
      </trkpt>
      <trkpt lat="43.51451" lon="6.68102">
        <ele>165.9</ele>
        <time>2025-10-26T09:56:44Z</time>
      </trkpt>
      <trkpt lat="43.51452" lon="6.68102">
        <ele>165.9</ele>
        <time>2025-10-26T09:56:45Z</time>
      </trkpt>
      <trkpt lat="43.51452" lon="6.68102">
        <ele>165.8</ele>
        <time>2025-10-26T09:56:46Z</time>
      </trkpt>
      <trkpt lat="43.51452" lon="6.68103">
        <ele>165.8</ele>
        <time>2025-10-26T09:56:47Z</time>
      </trkpt>
      <trkpt lat="43.51452" lon="6.68103">
        <ele>165.8</ele>
        <time>2025-10-26T09:56:48Z</time>
      </trkpt>
      <trkpt lat="43.51452" lon="6.68103">
        <ele>165.7</ele>
        <time>2025-10-26T09:56:49Z</time>
      </trkpt>
      <trkpt lat="43.51452" lon="6.68104">
        <ele>165.7</ele>
        <time>2025-10-26T09:56:50Z</time>
      </trkpt>
      <trkpt lat="43.51451" lon="6.68104">
        <ele>165.7</ele>
        <time>2025-10-26T09:56:51Z</time>
      </trkpt>
      <trkpt lat="43.5145" lon="6.68105">
        <ele>165.8</ele>
        <time>2025-10-26T09:56:52Z</time>
      </trkpt>
      <trkpt lat="43.5145" lon="6.68106">
        <ele>165.8</ele>
        <time>2025-10-26T09:56:53Z</time>
      </trkpt>
      <trkpt lat="43.51449" lon="6.68107">
        <ele>165.9</ele>
        <time>2025-10-26T09:56:54Z</time>
      </trkpt>
      <trkpt lat="43.51449" lon="6.68107">
        <ele>166</ele>
        <time>2025-10-26T09:56:55Z</time>
      </trkpt>
      <trkpt lat="43.51448" lon="6.68108">
        <ele>166.1</ele>
        <time>2025-10-26T09:56:56Z</time>
      </trkpt>
      <trkpt lat="43.51447" lon="6.68108">
        <ele>166.2</ele>
        <time>2025-10-26T09:56:57Z</time>
      </trkpt>
      <trkpt lat="43.51446" lon="6.68109">
        <ele>166.2</ele>
        <time>2025-10-26T09:56:58Z</time>
      </trkpt>
      <trkpt lat="43.51445" lon="6.6811">
        <ele>166.3</ele>
        <time>2025-10-26T09:56:59Z</time>
      </trkpt>
      <trkpt lat="43.51445" lon="6.6811">
        <ele>166.2</ele>
        <time>2025-10-26T09:57:00Z</time>
      </trkpt>
      <trkpt lat="43.51444" lon="6.68111">
        <ele>166.1</ele>
        <time>2025-10-26T09:57:01Z</time>
      </trkpt>
      <trkpt lat="43.51443" lon="6.68111">
        <ele>166</ele>
        <time>2025-10-26T09:57:02Z</time>
      </trkpt>
      <trkpt lat="43.51442" lon="6.68112">
        <ele>166</ele>
        <time>2025-10-26T09:57:03Z</time>
      </trkpt>
      <trkpt lat="43.51441" lon="6.68112">
        <ele>165.8</ele>
        <time>2025-10-26T09:57:04Z</time>
      </trkpt>
      <trkpt lat="43.5144" lon="6.68113">
        <ele>165.7</ele>
        <time>2025-10-26T09:57:05Z</time>
      </trkpt>
      <trkpt lat="43.5144" lon="6.68113">
        <ele>165.6</ele>
        <time>2025-10-26T09:57:06Z</time>
      </trkpt>
      <trkpt lat="43.51439" lon="6.68114">
        <ele>165.4</ele>
        <time>2025-10-26T09:57:07Z</time>
      </trkpt>
      <trkpt lat="43.51438" lon="6.68114">
        <ele>165.3</ele>
        <time>2025-10-26T09:57:08Z</time>
      </trkpt>
      <trkpt lat="43.51437" lon="6.68114">
        <ele>165.2</ele>
        <time>2025-10-26T09:57:09Z</time>
      </trkpt>
      <trkpt lat="43.51436" lon="6.68114">
        <ele>165.1</ele>
        <time>2025-10-26T09:57:10Z</time>
      </trkpt>
      <trkpt lat="43.51435" lon="6.68115">
        <ele>165</ele>
        <time>2025-10-26T09:57:11Z</time>
      </trkpt>
      <trkpt lat="43.51434" lon="6.68115">
        <ele>165</ele>
        <time>2025-10-26T09:57:12Z</time>
      </trkpt>
      <trkpt lat="43.51433" lon="6.68116">
        <ele>164.9</ele>
        <time>2025-10-26T09:57:13Z</time>
      </trkpt>
      <trkpt lat="43.51433" lon="6.68116">
        <ele>164.9</ele>
        <time>2025-10-26T09:57:14Z</time>
      </trkpt>
      <trkpt lat="43.51432" lon="6.68116">
        <ele>164.9</ele>
        <time>2025-10-26T09:57:15Z</time>
      </trkpt>
      <trkpt lat="43.51431" lon="6.68116">
        <ele>165</ele>
        <time>2025-10-26T09:57:16Z</time>
      </trkpt>
      <trkpt lat="43.5143" lon="6.68116">
        <ele>165</ele>
        <time>2025-10-26T09:57:17Z</time>
      </trkpt>
      <trkpt lat="43.51429" lon="6.68116">
        <ele>165</ele>
        <time>2025-10-26T09:57:18Z</time>
      </trkpt>
      <trkpt lat="43.51428" lon="6.68117">
        <ele>164.9</ele>
        <time>2025-10-26T09:57:19Z</time>
      </trkpt>
      <trkpt lat="43.51427" lon="6.68117">
        <ele>164.8</ele>
        <time>2025-10-26T09:57:20Z</time>
      </trkpt>
      <trkpt lat="43.51426" lon="6.68117">
        <ele>164.7</ele>
        <time>2025-10-26T09:57:21Z</time>
      </trkpt>
      <trkpt lat="43.51426" lon="6.68117">
        <ele>164.6</ele>
        <time>2025-10-26T09:57:22Z</time>
      </trkpt>
      <trkpt lat="43.51425" lon="6.68117">
        <ele>164.5</ele>
        <time>2025-10-26T09:57:23Z</time>
      </trkpt>
      <trkpt lat="43.51424" lon="6.68117">
        <ele>164.4</ele>
        <time>2025-10-26T09:57:24Z</time>
      </trkpt>
      <trkpt lat="43.51423" lon="6.68118">
        <ele>164.3</ele>
        <time>2025-10-26T09:57:25Z</time>
      </trkpt>
      <trkpt lat="43.51422" lon="6.68118">
        <ele>164.1</ele>
        <time>2025-10-26T09:57:26Z</time>
      </trkpt>
      <trkpt lat="43.51422" lon="6.68119">
        <ele>164</ele>
        <time>2025-10-26T09:57:27Z</time>
      </trkpt>
      <trkpt lat="43.51421" lon="6.68119">
        <ele>163.9</ele>
        <time>2025-10-26T09:57:28Z</time>
      </trkpt>
      <trkpt lat="43.5142" lon="6.6812">
        <ele>164</ele>
        <time>2025-10-26T09:57:29Z</time>
      </trkpt>
      <trkpt lat="43.51419" lon="6.6812">
        <ele>164.1</ele>
        <time>2025-10-26T09:57:30Z</time>
      </trkpt>
      <trkpt lat="43.51419" lon="6.68121">
        <ele>164.1</ele>
        <time>2025-10-26T09:57:31Z</time>
      </trkpt>
      <trkpt lat="43.51417" lon="6.68121">
        <ele>164.1</ele>
        <time>2025-10-26T09:57:32Z</time>
      </trkpt>
      <trkpt lat="43.51417" lon="6.68122">
        <ele>163.9</ele>
        <time>2025-10-26T09:57:33Z</time>
      </trkpt>
      <trkpt lat="43.51416" lon="6.68123">
        <ele>163.8</ele>
        <time>2025-10-26T09:57:34Z</time>
      </trkpt>
      <trkpt lat="43.51415" lon="6.68123">
        <ele>163.7</ele>
        <time>2025-10-26T09:57:35Z</time>
      </trkpt>
      <trkpt lat="43.51414" lon="6.68124">
        <ele>163.6</ele>
        <time>2025-10-26T09:57:36Z</time>
      </trkpt>
      <trkpt lat="43.51413" lon="6.68124">
        <ele>163.4</ele>
        <time>2025-10-26T09:57:37Z</time>
      </trkpt>
      <trkpt lat="43.51412" lon="6.68125">
        <ele>163.2</ele>
        <time>2025-10-26T09:57:38Z</time>
      </trkpt>
      <trkpt lat="43.51412" lon="6.68126">
        <ele>163</ele>
        <time>2025-10-26T09:57:39Z</time>
      </trkpt>
      <trkpt lat="43.51411" lon="6.68126">
        <ele>162.7</ele>
        <time>2025-10-26T09:57:40Z</time>
      </trkpt>
      <trkpt lat="43.5141" lon="6.68127">
        <ele>162.5</ele>
        <time>2025-10-26T09:57:41Z</time>
      </trkpt>
      <trkpt lat="43.51409" lon="6.68128">
        <ele>162.4</ele>
        <time>2025-10-26T09:57:42Z</time>
      </trkpt>
      <trkpt lat="43.51408" lon="6.68129">
        <ele>162.2</ele>
        <time>2025-10-26T09:57:43Z</time>
      </trkpt>
      <trkpt lat="43.51407" lon="6.68129">
        <ele>161.9</ele>
        <time>2025-10-26T09:57:44Z</time>
      </trkpt>
      <trkpt lat="43.51406" lon="6.6813">
        <ele>161.8</ele>
        <time>2025-10-26T09:57:45Z</time>
      </trkpt>
      <trkpt lat="43.51405" lon="6.6813">
        <ele>161.7</ele>
        <time>2025-10-26T09:57:46Z</time>
      </trkpt>
      <trkpt lat="43.51404" lon="6.6813">
        <ele>161.6</ele>
        <time>2025-10-26T09:57:47Z</time>
      </trkpt>
      <trkpt lat="43.51403" lon="6.68131">
        <ele>161.6</ele>
        <time>2025-10-26T09:57:48Z</time>
      </trkpt>
      <trkpt lat="43.51402" lon="6.68131">
        <ele>161.6</ele>
        <time>2025-10-26T09:57:49Z</time>
      </trkpt>
      <trkpt lat="43.51401" lon="6.68132">
        <ele>161.6</ele>
        <time>2025-10-26T09:57:50Z</time>
      </trkpt>
      <trkpt lat="43.514" lon="6.68132">
        <ele>161.5</ele>
        <time>2025-10-26T09:57:51Z</time>
      </trkpt>
      <trkpt lat="43.51399" lon="6.68133">
        <ele>161.5</ele>
        <time>2025-10-26T09:57:52Z</time>
      </trkpt>
      <trkpt lat="43.51398" lon="6.68133">
        <ele>161.5</ele>
        <time>2025-10-26T09:57:53Z</time>
      </trkpt>
      <trkpt lat="43.51397" lon="6.68134">
        <ele>161.5</ele>
        <time>2025-10-26T09:57:54Z</time>
      </trkpt>
      <trkpt lat="43.51396" lon="6.68134">
        <ele>161.5</ele>
        <time>2025-10-26T09:57:55Z</time>
      </trkpt>
      <trkpt lat="43.51395" lon="6.68134">
        <ele>161.5</ele>
        <time>2025-10-26T09:57:56Z</time>
      </trkpt>
      <trkpt lat="43.51394" lon="6.68134">
        <ele>161.5</ele>
        <time>2025-10-26T09:57:57Z</time>
      </trkpt>
      <trkpt lat="43.51393" lon="6.68135">
        <ele>161.4</ele>
        <time>2025-10-26T09:57:58Z</time>
      </trkpt>
      <trkpt lat="43.51392" lon="6.68135">
        <ele>161.4</ele>
        <time>2025-10-26T09:57:59Z</time>
      </trkpt>
      <trkpt lat="43.51391" lon="6.68136">
        <ele>161.4</ele>
        <time>2025-10-26T09:58:00Z</time>
      </trkpt>
      <trkpt lat="43.5139" lon="6.68136">
        <ele>161.3</ele>
        <time>2025-10-26T09:58:01Z</time>
      </trkpt>
      <trkpt lat="43.51388" lon="6.68137">
        <ele>161.3</ele>
        <time>2025-10-26T09:58:02Z</time>
      </trkpt>
      <trkpt lat="43.51388" lon="6.68137">
        <ele>161.2</ele>
        <time>2025-10-26T09:58:03Z</time>
      </trkpt>
      <trkpt lat="43.51387" lon="6.68138">
        <ele>161.1</ele>
        <time>2025-10-26T09:58:04Z</time>
      </trkpt>
      <trkpt lat="43.51386" lon="6.68138">
        <ele>160.9</ele>
        <time>2025-10-26T09:58:05Z</time>
      </trkpt>
      <trkpt lat="43.51385" lon="6.68139">
        <ele>160.8</ele>
        <time>2025-10-26T09:58:06Z</time>
      </trkpt>
      <trkpt lat="43.51384" lon="6.68139">
        <ele>160.5</ele>
        <time>2025-10-26T09:58:07Z</time>
      </trkpt>
      <trkpt lat="43.51383" lon="6.6814">
        <ele>160.3</ele>
        <time>2025-10-26T09:58:08Z</time>
      </trkpt>
      <trkpt lat="43.51382" lon="6.6814">
        <ele>160.2</ele>
        <time>2025-10-26T09:58:09Z</time>
      </trkpt>
      <trkpt lat="43.51381" lon="6.68141">
        <ele>160.2</ele>
        <time>2025-10-26T09:58:10Z</time>
      </trkpt>
      <trkpt lat="43.5138" lon="6.68142">
        <ele>160.1</ele>
        <time>2025-10-26T09:58:11Z</time>
      </trkpt>
      <trkpt lat="43.51379" lon="6.68143">
        <ele>160</ele>
        <time>2025-10-26T09:58:12Z</time>
      </trkpt>
      <trkpt lat="43.51379" lon="6.68143">
        <ele>160</ele>
        <time>2025-10-26T09:58:13Z</time>
      </trkpt>
      <trkpt lat="43.51378" lon="6.68144">
        <ele>159.9</ele>
        <time>2025-10-26T09:58:14Z</time>
      </trkpt>
      <trkpt lat="43.51377" lon="6.68145">
        <ele>159.7</ele>
        <time>2025-10-26T09:58:15Z</time>
      </trkpt>
      <trkpt lat="43.51376" lon="6.68145">
        <ele>159.7</ele>
        <time>2025-10-26T09:58:16Z</time>
      </trkpt>
      <trkpt lat="43.51375" lon="6.68146">
        <ele>159.6</ele>
        <time>2025-10-26T09:58:17Z</time>
      </trkpt>
      <trkpt lat="43.51374" lon="6.68147">
        <ele>159.5</ele>
        <time>2025-10-26T09:58:18Z</time>
      </trkpt>
      <trkpt lat="43.51373" lon="6.68148">
        <ele>159.5</ele>
        <time>2025-10-26T09:58:19Z</time>
      </trkpt>
      <trkpt lat="43.51372" lon="6.68148">
        <ele>159.4</ele>
        <time>2025-10-26T09:58:20Z</time>
      </trkpt>
      <trkpt lat="43.51371" lon="6.68149">
        <ele>159.4</ele>
        <time>2025-10-26T09:58:21Z</time>
      </trkpt>
      <trkpt lat="43.5137" lon="6.68149">
        <ele>159.3</ele>
        <time>2025-10-26T09:58:22Z</time>
      </trkpt>
      <trkpt lat="43.51369" lon="6.6815">
        <ele>159.2</ele>
        <time>2025-10-26T09:58:23Z</time>
      </trkpt>
      <trkpt lat="43.51368" lon="6.6815">
        <ele>159.2</ele>
        <time>2025-10-26T09:58:24Z</time>
      </trkpt>
      <trkpt lat="43.51367" lon="6.6815">
        <ele>159.1</ele>
        <time>2025-10-26T09:58:25Z</time>
      </trkpt>
      <trkpt lat="43.51365" lon="6.68151">
        <ele>159.1</ele>
        <time>2025-10-26T09:58:26Z</time>
      </trkpt>
      <trkpt lat="43.51364" lon="6.68151">
        <ele>159.2</ele>
        <time>2025-10-26T09:58:27Z</time>
      </trkpt>
      <trkpt lat="43.51363" lon="6.68152">
        <ele>159.1</ele>
        <time>2025-10-26T09:58:28Z</time>
      </trkpt>
      <trkpt lat="43.51362" lon="6.68152">
        <ele>159</ele>
        <time>2025-10-26T09:58:29Z</time>
      </trkpt>
      <trkpt lat="43.51361" lon="6.68153">
        <ele>159</ele>
        <time>2025-10-26T09:58:30Z</time>
      </trkpt>
      <trkpt lat="43.51361" lon="6.68154">
        <ele>158.9</ele>
        <time>2025-10-26T09:58:31Z</time>
      </trkpt>
      <trkpt lat="43.5136" lon="6.68154">
        <ele>158.9</ele>
        <time>2025-10-26T09:58:32Z</time>
      </trkpt>
      <trkpt lat="43.51359" lon="6.68155">
        <ele>159</ele>
        <time>2025-10-26T09:58:33Z</time>
      </trkpt>
      <trkpt lat="43.51358" lon="6.68156">
        <ele>159</ele>
        <time>2025-10-26T09:58:34Z</time>
      </trkpt>
      <trkpt lat="43.51357" lon="6.68156">
        <ele>158.9</ele>
        <time>2025-10-26T09:58:35Z</time>
      </trkpt>
      <trkpt lat="43.51356" lon="6.68158">
        <ele>159.1</ele>
        <time>2025-10-26T09:58:36Z</time>
      </trkpt>
      <trkpt lat="43.51355" lon="6.68159">
        <ele>159.1</ele>
        <time>2025-10-26T09:58:37Z</time>
      </trkpt>
      <trkpt lat="43.51354" lon="6.6816">
        <ele>159.2</ele>
        <time>2025-10-26T09:58:38Z</time>
      </trkpt>
      <trkpt lat="43.51353" lon="6.68161">
        <ele>159.2</ele>
        <time>2025-10-26T09:58:39Z</time>
      </trkpt>
      <trkpt lat="43.51352" lon="6.68162">
        <ele>159.2</ele>
        <time>2025-10-26T09:58:40Z</time>
      </trkpt>
      <trkpt lat="43.51351" lon="6.68162">
        <ele>159.2</ele>
        <time>2025-10-26T09:58:41Z</time>
      </trkpt>
      <trkpt lat="43.51351" lon="6.68163">
        <ele>159.1</ele>
        <time>2025-10-26T09:58:42Z</time>
      </trkpt>
      <trkpt lat="43.51349" lon="6.68164">
        <ele>159.1</ele>
        <time>2025-10-26T09:58:43Z</time>
      </trkpt>
      <trkpt lat="43.51349" lon="6.68165">
        <ele>159.1</ele>
        <time>2025-10-26T09:58:44Z</time>
      </trkpt>
      <trkpt lat="43.51348" lon="6.68167">
        <ele>159.1</ele>
        <time>2025-10-26T09:58:45Z</time>
      </trkpt>
      <trkpt lat="43.51348" lon="6.68169">
        <ele>159.1</ele>
        <time>2025-10-26T09:58:46Z</time>
      </trkpt>
      <trkpt lat="43.51348" lon="6.6817">
        <ele>159</ele>
        <time>2025-10-26T09:58:47Z</time>
      </trkpt>
      <trkpt lat="43.51347" lon="6.68171">
        <ele>159</ele>
        <time>2025-10-26T09:58:48Z</time>
      </trkpt>
      <trkpt lat="43.51346" lon="6.68172">
        <ele>158.9</ele>
        <time>2025-10-26T09:58:49Z</time>
      </trkpt>
      <trkpt lat="43.51345" lon="6.68173">
        <ele>158.9</ele>
        <time>2025-10-26T09:58:50Z</time>
      </trkpt>
      <trkpt lat="43.51344" lon="6.68174">
        <ele>158.9</ele>
        <time>2025-10-26T09:58:51Z</time>
      </trkpt>
      <trkpt lat="43.51343" lon="6.68175">
        <ele>158.9</ele>
        <time>2025-10-26T09:58:52Z</time>
      </trkpt>
      <trkpt lat="43.51342" lon="6.68176">
        <ele>158.8</ele>
        <time>2025-10-26T09:58:53Z</time>
      </trkpt>
      <trkpt lat="43.51341" lon="6.68177">
        <ele>158.7</ele>
        <time>2025-10-26T09:58:54Z</time>
      </trkpt>
      <trkpt lat="43.51341" lon="6.68179">
        <ele>158.6</ele>
        <time>2025-10-26T09:58:55Z</time>
      </trkpt>
      <trkpt lat="43.51341" lon="6.6818">
        <ele>158.6</ele>
        <time>2025-10-26T09:58:56Z</time>
      </trkpt>
      <trkpt lat="43.51341" lon="6.68181">
        <ele>158.7</ele>
        <time>2025-10-26T09:58:57Z</time>
      </trkpt>
      <trkpt lat="43.5134" lon="6.68183">
        <ele>158.5</ele>
        <time>2025-10-26T09:58:58Z</time>
      </trkpt>
      <trkpt lat="43.5134" lon="6.68185">
        <ele>158.4</ele>
        <time>2025-10-26T09:58:59Z</time>
      </trkpt>
      <trkpt lat="43.5134" lon="6.68186">
        <ele>158.3</ele>
        <time>2025-10-26T09:59:00Z</time>
      </trkpt>
      <trkpt lat="43.5134" lon="6.68188">
        <ele>158.3</ele>
        <time>2025-10-26T09:59:01Z</time>
      </trkpt>
      <trkpt lat="43.5134" lon="6.68189">
        <ele>158.2</ele>
        <time>2025-10-26T09:59:02Z</time>
      </trkpt>
      <trkpt lat="43.5134" lon="6.6819">
        <ele>158.2</ele>
        <time>2025-10-26T09:59:03Z</time>
      </trkpt>
      <trkpt lat="43.51339" lon="6.68192">
        <ele>157.9</ele>
        <time>2025-10-26T09:59:04Z</time>
      </trkpt>
      <trkpt lat="43.51339" lon="6.68194">
        <ele>157.8</ele>
        <time>2025-10-26T09:59:05Z</time>
      </trkpt>
      <trkpt lat="43.51339" lon="6.68195">
        <ele>157.7</ele>
        <time>2025-10-26T09:59:06Z</time>
      </trkpt>
      <trkpt lat="43.51339" lon="6.68197">
        <ele>157.6</ele>
        <time>2025-10-26T09:59:07Z</time>
      </trkpt>
      <trkpt lat="43.51338" lon="6.68199">
        <ele>157.4</ele>
        <time>2025-10-26T09:59:08Z</time>
      </trkpt>
      <trkpt lat="43.51338" lon="6.682">
        <ele>157.4</ele>
        <time>2025-10-26T09:59:09Z</time>
      </trkpt>
      <trkpt lat="43.51338" lon="6.68202">
        <ele>157.3</ele>
        <time>2025-10-26T09:59:10Z</time>
      </trkpt>
      <trkpt lat="43.51338" lon="6.68203">
        <ele>157.2</ele>
        <time>2025-10-26T09:59:11Z</time>
      </trkpt>
      <trkpt lat="43.51338" lon="6.68205">
        <ele>157.3</ele>
        <time>2025-10-26T09:59:12Z</time>
      </trkpt>
      <trkpt lat="43.51338" lon="6.68207">
        <ele>157.3</ele>
        <time>2025-10-26T09:59:13Z</time>
      </trkpt>
      <trkpt lat="43.51339" lon="6.68209">
        <ele>157.3</ele>
        <time>2025-10-26T09:59:14Z</time>
      </trkpt>
      <trkpt lat="43.51339" lon="6.6821">
        <ele>157.2</ele>
        <time>2025-10-26T09:59:15Z</time>
      </trkpt>
      <trkpt lat="43.51339" lon="6.68212">
        <ele>157.1</ele>
        <time>2025-10-26T09:59:16Z</time>
      </trkpt>
      <trkpt lat="43.51339" lon="6.68213">
        <ele>157.1</ele>
        <time>2025-10-26T09:59:17Z</time>
      </trkpt>
      <trkpt lat="43.51339" lon="6.68215">
        <ele>157</ele>
        <time>2025-10-26T09:59:18Z</time>
      </trkpt>
      <trkpt lat="43.51339" lon="6.68215">
        <ele>157</ele>
        <time>2025-10-26T09:59:19Z</time>
      </trkpt>
      <trkpt lat="43.51339" lon="6.68216">
        <ele>157</ele>
        <time>2025-10-26T09:59:20Z</time>
      </trkpt>
      <trkpt lat="43.51339" lon="6.68217">
        <ele>156.9</ele>
        <time>2025-10-26T09:59:21Z</time>
      </trkpt>
      <trkpt lat="43.51339" lon="6.68219">
        <ele>156.8</ele>
        <time>2025-10-26T09:59:22Z</time>
      </trkpt>
      <trkpt lat="43.51339" lon="6.6822">
        <ele>156.7</ele>
        <time>2025-10-26T09:59:23Z</time>
      </trkpt>
      <trkpt lat="43.51339" lon="6.6822">
        <ele>156.7</ele>
        <time>2025-10-26T09:59:24Z</time>
      </trkpt>
      <trkpt lat="43.5134" lon="6.68221">
        <ele>156.8</ele>
        <time>2025-10-26T09:59:25Z</time>
      </trkpt>
      <trkpt lat="43.5134" lon="6.68222">
        <ele>156.9</ele>
        <time>2025-10-26T09:59:26Z</time>
      </trkpt>
      <trkpt lat="43.5134" lon="6.68224">
        <ele>156.9</ele>
        <time>2025-10-26T09:59:27Z</time>
      </trkpt>
      <trkpt lat="43.51341" lon="6.68226">
        <ele>156.9</ele>
        <time>2025-10-26T09:59:28Z</time>
      </trkpt>
      <trkpt lat="43.51342" lon="6.68227">
        <ele>156.9</ele>
        <time>2025-10-26T09:59:29Z</time>
      </trkpt>
      <trkpt lat="43.51342" lon="6.68228">
        <ele>156.9</ele>
        <time>2025-10-26T09:59:30Z</time>
      </trkpt>
      <trkpt lat="43.51343" lon="6.68229">
        <ele>156.9</ele>
        <time>2025-10-26T09:59:31Z</time>
      </trkpt>
      <trkpt lat="43.51344" lon="6.6823">
        <ele>156.9</ele>
        <time>2025-10-26T09:59:32Z</time>
      </trkpt>
      <trkpt lat="43.51345" lon="6.68231">
        <ele>156.9</ele>
        <time>2025-10-26T09:59:33Z</time>
      </trkpt>
      <trkpt lat="43.51345" lon="6.68232">
        <ele>156.8</ele>
        <time>2025-10-26T09:59:34Z</time>
      </trkpt>
      <trkpt lat="43.51345" lon="6.68233">
        <ele>156.9</ele>
        <time>2025-10-26T09:59:35Z</time>
      </trkpt>
      <trkpt lat="43.51346" lon="6.68234">
        <ele>156.8</ele>
        <time>2025-10-26T09:59:36Z</time>
      </trkpt>
      <trkpt lat="43.51346" lon="6.68235">
        <ele>156.8</ele>
        <time>2025-10-26T09:59:37Z</time>
      </trkpt>
      <trkpt lat="43.51346" lon="6.68236">
        <ele>156.8</ele>
        <time>2025-10-26T09:59:38Z</time>
      </trkpt>
      <trkpt lat="43.51346" lon="6.68238">
        <ele>156.7</ele>
        <time>2025-10-26T09:59:39Z</time>
      </trkpt>
      <trkpt lat="43.51347" lon="6.68239">
        <ele>156.7</ele>
        <time>2025-10-26T09:59:40Z</time>
      </trkpt>
      <trkpt lat="43.51348" lon="6.68241">
        <ele>156.7</ele>
        <time>2025-10-26T09:59:41Z</time>
      </trkpt>
      <trkpt lat="43.51349" lon="6.68242">
        <ele>156.6</ele>
        <time>2025-10-26T09:59:42Z</time>
      </trkpt>
      <trkpt lat="43.5135" lon="6.68244">
        <ele>156.6</ele>
        <time>2025-10-26T09:59:43Z</time>
      </trkpt>
      <trkpt lat="43.51351" lon="6.68245">
        <ele>156.6</ele>
        <time>2025-10-26T09:59:44Z</time>
      </trkpt>
      <trkpt lat="43.51351" lon="6.68247">
        <ele>156.6</ele>
        <time>2025-10-26T09:59:45Z</time>
      </trkpt>
      <trkpt lat="43.51352" lon="6.68248">
        <ele>156.5</ele>
        <time>2025-10-26T09:59:46Z</time>
      </trkpt>
      <trkpt lat="43.51353" lon="6.6825">
        <ele>156.4</ele>
        <time>2025-10-26T09:59:47Z</time>
      </trkpt>
      <trkpt lat="43.51353" lon="6.68251">
        <ele>156.3</ele>
        <time>2025-10-26T09:59:48Z</time>
      </trkpt>
      <trkpt lat="43.51353" lon="6.68252">
        <ele>156.3</ele>
        <time>2025-10-26T09:59:49Z</time>
      </trkpt>
      <trkpt lat="43.51354" lon="6.68253">
        <ele>156.3</ele>
        <time>2025-10-26T09:59:50Z</time>
      </trkpt>
      <trkpt lat="43.51355" lon="6.68255">
        <ele>156.3</ele>
        <time>2025-10-26T09:59:51Z</time>
      </trkpt>
      <trkpt lat="43.51356" lon="6.68256">
        <ele>156.3</ele>
        <time>2025-10-26T09:59:52Z</time>
      </trkpt>
      <trkpt lat="43.51356" lon="6.68257">
        <ele>156.2</ele>
        <time>2025-10-26T09:59:53Z</time>
      </trkpt>
      <trkpt lat="43.51357" lon="6.68259">
        <ele>156.2</ele>
        <time>2025-10-26T09:59:54Z</time>
      </trkpt>
      <trkpt lat="43.51357" lon="6.6826">
        <ele>156.2</ele>
        <time>2025-10-26T09:59:55Z</time>
      </trkpt>
      <trkpt lat="43.51357" lon="6.68262">
        <ele>156.2</ele>
        <time>2025-10-26T09:59:56Z</time>
      </trkpt>
      <trkpt lat="43.51357" lon="6.68263">
        <ele>156.2</ele>
        <time>2025-10-26T09:59:57Z</time>
      </trkpt>
      <trkpt lat="43.51358" lon="6.68265">
        <ele>156.2</ele>
        <time>2025-10-26T09:59:58Z</time>
      </trkpt>
      <trkpt lat="43.51358" lon="6.68265">
        <ele>156</ele>
        <time>2025-10-26T09:59:59Z</time>
      </trkpt>
      <trkpt lat="43.51357" lon="6.68266">
        <ele>155.9</ele>
        <time>2025-10-26T10:00:00Z</time>
      </trkpt>
      <trkpt lat="43.51357" lon="6.68267">
        <ele>155.8</ele>
        <time>2025-10-26T10:00:01Z</time>
      </trkpt>
      <trkpt lat="43.51357" lon="6.68268">
        <ele>155.8</ele>
        <time>2025-10-26T10:00:02Z</time>
      </trkpt>
      <trkpt lat="43.51356" lon="6.68269">
        <ele>155.7</ele>
        <time>2025-10-26T10:00:03Z</time>
      </trkpt>
      <trkpt lat="43.51355" lon="6.6827">
        <ele>155.6</ele>
        <time>2025-10-26T10:00:04Z</time>
      </trkpt>
      <trkpt lat="43.51354" lon="6.6827">
        <ele>155.5</ele>
        <time>2025-10-26T10:00:05Z</time>
      </trkpt>
      <trkpt lat="43.51353" lon="6.68271">
        <ele>155.5</ele>
        <time>2025-10-26T10:00:06Z</time>
      </trkpt>
      <trkpt lat="43.51353" lon="6.68272">
        <ele>155.2</ele>
        <time>2025-10-26T10:00:07Z</time>
      </trkpt>
      <trkpt lat="43.51352" lon="6.68273">
        <ele>155.1</ele>
        <time>2025-10-26T10:00:08Z</time>
      </trkpt>
      <trkpt lat="43.51351" lon="6.68273">
        <ele>154.8</ele>
        <time>2025-10-26T10:00:09Z</time>
      </trkpt>
      <trkpt lat="43.51351" lon="6.68273">
        <ele>154.6</ele>
        <time>2025-10-26T10:00:10Z</time>
      </trkpt>
      <trkpt lat="43.51351" lon="6.68273">
        <ele>154.5</ele>
        <time>2025-10-26T10:00:11Z</time>
      </trkpt>
      <trkpt lat="43.5135" lon="6.68273">
        <ele>154.4</ele>
        <time>2025-10-26T10:00:12Z</time>
      </trkpt>
      <trkpt lat="43.51348" lon="6.68274">
        <ele>154.3</ele>
        <time>2025-10-26T10:00:13Z</time>
      </trkpt>
      <trkpt lat="43.51347" lon="6.68274">
        <ele>154.2</ele>
        <time>2025-10-26T10:00:14Z</time>
      </trkpt>
      <trkpt lat="43.51347" lon="6.68275">
        <ele>154</ele>
        <time>2025-10-26T10:00:15Z</time>
      </trkpt>
      <trkpt lat="43.51346" lon="6.68275">
        <ele>153.9</ele>
        <time>2025-10-26T10:00:16Z</time>
      </trkpt>
      <trkpt lat="43.51345" lon="6.68274">
        <ele>153.8</ele>
        <time>2025-10-26T10:00:17Z</time>
      </trkpt>
      <trkpt lat="43.51344" lon="6.68274">
        <ele>153.7</ele>
        <time>2025-10-26T10:00:18Z</time>
      </trkpt>
      <trkpt lat="43.51343" lon="6.68275">
        <ele>153.5</ele>
        <time>2025-10-26T10:00:19Z</time>
      </trkpt>
      <trkpt lat="43.51343" lon="6.68275">
        <ele>153.3</ele>
        <time>2025-10-26T10:00:20Z</time>
      </trkpt>
      <trkpt lat="43.51343" lon="6.68275">
        <ele>153.1</ele>
        <time>2025-10-26T10:00:21Z</time>
      </trkpt>
      <trkpt lat="43.51343" lon="6.68276">
        <ele>153</ele>
        <time>2025-10-26T10:00:22Z</time>
      </trkpt>
      <trkpt lat="43.51343" lon="6.68276">
        <ele>152.9</ele>
        <time>2025-10-26T10:00:23Z</time>
      </trkpt>
      <trkpt lat="43.51342" lon="6.68275">
        <ele>152.8</ele>
        <time>2025-10-26T10:00:24Z</time>
      </trkpt>
      <trkpt lat="43.51341" lon="6.68275">
        <ele>152.8</ele>
        <time>2025-10-26T10:00:25Z</time>
      </trkpt>
      <trkpt lat="43.51341" lon="6.68275">
        <ele>152.8</ele>
        <time>2025-10-26T10:00:26Z</time>
      </trkpt>
      <trkpt lat="43.51341" lon="6.68275">
        <ele>152.8</ele>
        <time>2025-10-26T10:00:27Z</time>
      </trkpt>
      <trkpt lat="43.51341" lon="6.68275">
        <ele>152.8</ele>
        <time>2025-10-26T10:00:28Z</time>
      </trkpt>
      <trkpt lat="43.51341" lon="6.68275">
        <ele>152.9</ele>
        <time>2025-10-26T10:00:29Z</time>
      </trkpt>
      <trkpt lat="43.51341" lon="6.68275">
        <ele>152.9</ele>
        <time>2025-10-26T10:00:30Z</time>
      </trkpt>
      <trkpt lat="43.51341" lon="6.68275">
        <ele>153</ele>
        <time>2025-10-26T10:00:31Z</time>
      </trkpt>
      <trkpt lat="43.51341" lon="6.68275">
        <ele>153</ele>
        <time>2025-10-26T10:00:32Z</time>
      </trkpt>
      <trkpt lat="43.5134" lon="6.68276">
        <ele>153</ele>
        <time>2025-10-26T10:00:33Z</time>
      </trkpt>
      <trkpt lat="43.51339" lon="6.68275">
        <ele>152.9</ele>
        <time>2025-10-26T10:00:34Z</time>
      </trkpt>
      <trkpt lat="43.51339" lon="6.68276">
        <ele>152.9</ele>
        <time>2025-10-26T10:00:35Z</time>
      </trkpt>
      <trkpt lat="43.51339" lon="6.68276">
        <ele>152.9</ele>
        <time>2025-10-26T10:00:36Z</time>
      </trkpt>
      <trkpt lat="43.51338" lon="6.68276">
        <ele>152.9</ele>
        <time>2025-10-26T10:00:37Z</time>
      </trkpt>
      <trkpt lat="43.51337" lon="6.68276">
        <ele>152.8</ele>
        <time>2025-10-26T10:00:38Z</time>
      </trkpt>
      <trkpt lat="43.51337" lon="6.68276">
        <ele>152.8</ele>
        <time>2025-10-26T10:00:39Z</time>
      </trkpt>
      <trkpt lat="43.51337" lon="6.68276">
        <ele>152.8</ele>
        <time>2025-10-26T10:00:40Z</time>
      </trkpt>
      <trkpt lat="43.51336" lon="6.68276">
        <ele>152.8</ele>
        <time>2025-10-26T10:00:41Z</time>
      </trkpt>
      <trkpt lat="43.51336" lon="6.68276">
        <ele>152.8</ele>
        <time>2025-10-26T10:00:42Z</time>
      </trkpt>
      <trkpt lat="43.51336" lon="6.68276">
        <ele>152.8</ele>
        <time>2025-10-26T10:00:43Z</time>
      </trkpt>
      <trkpt lat="43.51336" lon="6.68276">
        <ele>152.8</ele>
        <time>2025-10-26T10:00:44Z</time>
      </trkpt>
      <trkpt lat="43.51336" lon="6.68276">
        <ele>152.7</ele>
        <time>2025-10-26T10:00:45Z</time>
      </trkpt>
      <trkpt lat="43.51336" lon="6.68276">
        <ele>152.7</ele>
        <time>2025-10-26T10:00:46Z</time>
      </trkpt>
      <trkpt lat="43.51336" lon="6.68276">
        <ele>152.7</ele>
        <time>2025-10-26T10:00:47Z</time>
      </trkpt>
      <trkpt lat="43.51336" lon="6.68276">
        <ele>152.7</ele>
        <time>2025-10-26T10:00:48Z</time>
      </trkpt>
      <trkpt lat="43.51335" lon="6.68276">
        <ele>152.7</ele>
        <time>2025-10-26T10:00:49Z</time>
      </trkpt>
      <trkpt lat="43.51336" lon="6.68277">
        <ele>152.6</ele>
        <time>2025-10-26T10:00:50Z</time>
      </trkpt>
      <trkpt lat="43.51336" lon="6.68277">
        <ele>152.6</ele>
        <time>2025-10-26T10:00:51Z</time>
      </trkpt>
      <trkpt lat="43.51336" lon="6.68277">
        <ele>152.6</ele>
        <time>2025-10-26T10:00:52Z</time>
      </trkpt>
      <trkpt lat="43.51336" lon="6.68278">
        <ele>152.7</ele>
        <time>2025-10-26T10:00:53Z</time>
      </trkpt>
      <trkpt lat="43.51336" lon="6.68278">
        <ele>152.7</ele>
        <time>2025-10-26T10:00:54Z</time>
      </trkpt>
      <trkpt lat="43.51336" lon="6.68278">
        <ele>152.8</ele>
        <time>2025-10-26T10:00:55Z</time>
      </trkpt>
      <trkpt lat="43.51336" lon="6.68278">
        <ele>152.9</ele>
        <time>2025-10-26T10:00:56Z</time>
      </trkpt>
      <trkpt lat="43.51336" lon="6.68278">
        <ele>152.9</ele>
        <time>2025-10-26T10:00:57Z</time>
      </trkpt>
      <trkpt lat="43.51336" lon="6.68279">
        <ele>153</ele>
        <time>2025-10-26T10:00:58Z</time>
      </trkpt>
      <trkpt lat="43.51336" lon="6.68279">
        <ele>153</ele>
        <time>2025-10-26T10:00:59Z</time>
      </trkpt>
      <trkpt lat="43.51336" lon="6.68279">
        <ele>153</ele>
        <time>2025-10-26T10:01:00Z</time>
      </trkpt>
      <trkpt lat="43.51336" lon="6.68279">
        <ele>152.9</ele>
        <time>2025-10-26T10:01:01Z</time>
      </trkpt>
      <trkpt lat="43.51336" lon="6.6828">
        <ele>152.9</ele>
        <time>2025-10-26T10:01:02Z</time>
      </trkpt>
      <trkpt lat="43.51336" lon="6.6828">
        <ele>152.9</ele>
        <time>2025-10-26T10:01:03Z</time>
      </trkpt>
      <trkpt lat="43.51336" lon="6.6828">
        <ele>152.9</ele>
        <time>2025-10-26T10:01:04Z</time>
      </trkpt>
      <trkpt lat="43.51336" lon="6.6828">
        <ele>152.9</ele>
        <time>2025-10-26T10:01:05Z</time>
      </trkpt>
      <trkpt lat="43.51336" lon="6.6828">
        <ele>152.9</ele>
        <time>2025-10-26T10:01:06Z</time>
      </trkpt>
      <trkpt lat="43.51336" lon="6.6828">
        <ele>152.9</ele>
        <time>2025-10-26T10:01:07Z</time>
      </trkpt>
      <trkpt lat="43.51337" lon="6.6828">
        <ele>152.9</ele>
        <time>2025-10-26T10:01:08Z</time>
      </trkpt>
      <trkpt lat="43.51337" lon="6.6828">
        <ele>152.9</ele>
        <time>2025-10-26T10:01:09Z</time>
      </trkpt>
      <trkpt lat="43.51337" lon="6.6828">
        <ele>152.9</ele>
        <time>2025-10-26T10:01:10Z</time>
      </trkpt>
      <trkpt lat="43.51337" lon="6.6828">
        <ele>152.8</ele>
        <time>2025-10-26T10:01:11Z</time>
      </trkpt>
      <trkpt lat="43.51337" lon="6.6828">
        <ele>152.8</ele>
        <time>2025-10-26T10:01:12Z</time>
      </trkpt>
      <trkpt lat="43.51337" lon="6.6828">
        <ele>152.7</ele>
        <time>2025-10-26T10:01:13Z</time>
      </trkpt>
      <trkpt lat="43.51337" lon="6.6828">
        <ele>152.7</ele>
        <time>2025-10-26T10:01:14Z</time>
      </trkpt>
      <trkpt lat="43.51337" lon="6.6828">
        <ele>152.7</ele>
        <time>2025-10-26T10:01:15Z</time>
      </trkpt>
      <trkpt lat="43.51337" lon="6.68279">
        <ele>152.7</ele>
        <time>2025-10-26T10:01:16Z</time>
      </trkpt>
      <trkpt lat="43.51338" lon="6.68279">
        <ele>152.6</ele>
        <time>2025-10-26T10:01:17Z</time>
      </trkpt>
      <trkpt lat="43.51338" lon="6.68279">
        <ele>152.7</ele>
        <time>2025-10-26T10:01:18Z</time>
      </trkpt>
      <trkpt lat="43.51338" lon="6.68279">
        <ele>152.7</ele>
        <time>2025-10-26T10:01:19Z</time>
      </trkpt>
      <trkpt lat="43.51338" lon="6.68278">
        <ele>152.7</ele>
        <time>2025-10-26T10:01:20Z</time>
      </trkpt>
      <trkpt lat="43.51338" lon="6.68279">
        <ele>152.8</ele>
        <time>2025-10-26T10:01:21Z</time>
      </trkpt>
      <trkpt lat="43.51337" lon="6.68279">
        <ele>152.7</ele>
        <time>2025-10-26T10:01:22Z</time>
      </trkpt>
      <trkpt lat="43.51337" lon="6.68279">
        <ele>152.7</ele>
        <time>2025-10-26T10:01:23Z</time>
      </trkpt>
      <trkpt lat="43.51338" lon="6.68278">
        <ele>152.7</ele>
        <time>2025-10-26T10:01:24Z</time>
      </trkpt>
      <trkpt lat="43.51338" lon="6.68278">
        <ele>152.7</ele>
        <time>2025-10-26T10:01:25Z</time>
      </trkpt>
      <trkpt lat="43.51338" lon="6.68278">
        <ele>152.7</ele>
        <time>2025-10-26T10:01:26Z</time>
      </trkpt>
      <trkpt lat="43.51338" lon="6.68278">
        <ele>152.8</ele>
        <time>2025-10-26T10:01:27Z</time>
      </trkpt>
      <trkpt lat="43.51338" lon="6.68278">
        <ele>152.7</ele>
        <time>2025-10-26T10:01:28Z</time>
      </trkpt>
      <trkpt lat="43.51338" lon="6.68278">
        <ele>152.8</ele>
        <time>2025-10-26T10:01:29Z</time>
      </trkpt>
      <trkpt lat="43.51338" lon="6.68278">
        <ele>152.8</ele>
        <time>2025-10-26T10:01:30Z</time>
      </trkpt>
      <trkpt lat="43.51338" lon="6.68278">
        <ele>152.9</ele>
        <time>2025-10-26T10:01:31Z</time>
      </trkpt>
      <trkpt lat="43.51338" lon="6.68278">
        <ele>152.8</ele>
        <time>2025-10-26T10:01:32Z</time>
      </trkpt>
      <trkpt lat="43.51338" lon="6.68278">
        <ele>152.8</ele>
        <time>2025-10-26T10:01:33Z</time>
      </trkpt>
      <trkpt lat="43.51338" lon="6.68278">
        <ele>152.7</ele>
        <time>2025-10-26T10:01:34Z</time>
      </trkpt>
      <trkpt lat="43.51337" lon="6.68279">
        <ele>152.6</ele>
        <time>2025-10-26T10:01:35Z</time>
      </trkpt>
      <trkpt lat="43.51337" lon="6.68279">
        <ele>152.5</ele>
        <time>2025-10-26T10:01:36Z</time>
      </trkpt>
      <trkpt lat="43.51336" lon="6.6828">
        <ele>152.5</ele>
        <time>2025-10-26T10:01:37Z</time>
      </trkpt>
      <trkpt lat="43.51336" lon="6.68281">
        <ele>152.4</ele>
        <time>2025-10-26T10:01:38Z</time>
      </trkpt>
      <trkpt lat="43.51337" lon="6.68282">
        <ele>152.4</ele>
        <time>2025-10-26T10:01:39Z</time>
      </trkpt>
      <trkpt lat="43.51337" lon="6.68283">
        <ele>152.4</ele>
        <time>2025-10-26T10:01:40Z</time>
      </trkpt>
      <trkpt lat="43.51337" lon="6.68284">
        <ele>152.4</ele>
        <time>2025-10-26T10:01:41Z</time>
      </trkpt>
      <trkpt lat="43.51337" lon="6.68284">
        <ele>152.4</ele>
        <time>2025-10-26T10:01:42Z</time>
      </trkpt>
      <trkpt lat="43.51337" lon="6.68284">
        <ele>152.4</ele>
        <time>2025-10-26T10:01:43Z</time>
      </trkpt>
      <trkpt lat="43.51337" lon="6.68284">
        <ele>152.5</ele>
        <time>2025-10-26T10:01:44Z</time>
      </trkpt>
      <trkpt lat="43.51337" lon="6.68285">
        <ele>152.5</ele>
        <time>2025-10-26T10:01:45Z</time>
      </trkpt>
      <trkpt lat="43.51336" lon="6.68286">
        <ele>152.5</ele>
        <time>2025-10-26T10:01:46Z</time>
      </trkpt>
      <trkpt lat="43.51336" lon="6.68287">
        <ele>152.4</ele>
        <time>2025-10-26T10:01:47Z</time>
      </trkpt>
      <trkpt lat="43.51336" lon="6.68287">
        <ele>152.3</ele>
        <time>2025-10-26T10:01:48Z</time>
      </trkpt>
      <trkpt lat="43.51336" lon="6.68288">
        <ele>152.2</ele>
        <time>2025-10-26T10:01:49Z</time>
      </trkpt>
      <trkpt lat="43.51335" lon="6.6829">
        <ele>152.2</ele>
        <time>2025-10-26T10:01:50Z</time>
      </trkpt>
      <trkpt lat="43.51335" lon="6.68292">
        <ele>151.9</ele>
        <time>2025-10-26T10:01:51Z</time>
      </trkpt>
      <trkpt lat="43.51335" lon="6.68294">
        <ele>151.6</ele>
        <time>2025-10-26T10:01:52Z</time>
      </trkpt>
      <trkpt lat="43.51336" lon="6.68295">
        <ele>151.3</ele>
        <time>2025-10-26T10:01:53Z</time>
      </trkpt>
      <trkpt lat="43.51336" lon="6.68296">
        <ele>151</ele>
        <time>2025-10-26T10:01:54Z</time>
      </trkpt>
      <trkpt lat="43.51336" lon="6.68297">
        <ele>150.8</ele>
        <time>2025-10-26T10:01:55Z</time>
      </trkpt>
      <trkpt lat="43.51336" lon="6.68299">
        <ele>150.7</ele>
        <time>2025-10-26T10:01:56Z</time>
      </trkpt>
      <trkpt lat="43.51336" lon="6.68299">
        <ele>150.6</ele>
        <time>2025-10-26T10:01:57Z</time>
      </trkpt>
      <trkpt lat="43.51336" lon="6.683">
        <ele>150.5</ele>
        <time>2025-10-26T10:01:58Z</time>
      </trkpt>
      <trkpt lat="43.51335" lon="6.68302">
        <ele>150.5</ele>
        <time>2025-10-26T10:01:59Z</time>
      </trkpt>
      <trkpt lat="43.51335" lon="6.68302">
        <ele>150.4</ele>
        <time>2025-10-26T10:02:00Z</time>
      </trkpt>
      <trkpt lat="43.51335" lon="6.68304">
        <ele>150.5</ele>
        <time>2025-10-26T10:02:01Z</time>
      </trkpt>
      <trkpt lat="43.51334" lon="6.68305">
        <ele>150.7</ele>
        <time>2025-10-26T10:02:02Z</time>
      </trkpt>
      <trkpt lat="43.51334" lon="6.68306">
        <ele>150.8</ele>
        <time>2025-10-26T10:02:03Z</time>
      </trkpt>
      <trkpt lat="43.51334" lon="6.68307">
        <ele>151</ele>
        <time>2025-10-26T10:02:04Z</time>
      </trkpt>
      <trkpt lat="43.51333" lon="6.68307">
        <ele>151.2</ele>
        <time>2025-10-26T10:02:05Z</time>
      </trkpt>
      <trkpt lat="43.51333" lon="6.68309">
        <ele>151.4</ele>
        <time>2025-10-26T10:02:06Z</time>
      </trkpt>
      <trkpt lat="43.51333" lon="6.68309">
        <ele>151.5</ele>
        <time>2025-10-26T10:02:07Z</time>
      </trkpt>
      <trkpt lat="43.51333" lon="6.6831">
        <ele>151.6</ele>
        <time>2025-10-26T10:02:08Z</time>
      </trkpt>
      <trkpt lat="43.51333" lon="6.68311">
        <ele>151.8</ele>
        <time>2025-10-26T10:02:09Z</time>
      </trkpt>
      <trkpt lat="43.51332" lon="6.68311">
        <ele>152</ele>
        <time>2025-10-26T10:02:10Z</time>
      </trkpt>
      <trkpt lat="43.51333" lon="6.68312">
        <ele>152.1</ele>
        <time>2025-10-26T10:02:11Z</time>
      </trkpt>
      <trkpt lat="43.51333" lon="6.68313">
        <ele>152.2</ele>
        <time>2025-10-26T10:02:12Z</time>
      </trkpt>
      <trkpt lat="43.51333" lon="6.68314">
        <ele>152.3</ele>
        <time>2025-10-26T10:02:13Z</time>
      </trkpt>
      <trkpt lat="43.51333" lon="6.68315">
        <ele>152.4</ele>
        <time>2025-10-26T10:02:14Z</time>
      </trkpt>
      <trkpt lat="43.51333" lon="6.68316">
        <ele>152.6</ele>
        <time>2025-10-26T10:02:15Z</time>
      </trkpt>
      <trkpt lat="43.51334" lon="6.68317">
        <ele>152.7</ele>
        <time>2025-10-26T10:02:16Z</time>
      </trkpt>
      <trkpt lat="43.51334" lon="6.68318">
        <ele>152.8</ele>
        <time>2025-10-26T10:02:17Z</time>
      </trkpt>
      <trkpt lat="43.51334" lon="6.68318">
        <ele>152.8</ele>
        <time>2025-10-26T10:02:18Z</time>
      </trkpt>
      <trkpt lat="43.51333" lon="6.68318">
        <ele>152.9</ele>
        <time>2025-10-26T10:02:19Z</time>
      </trkpt>
      <trkpt lat="43.51334" lon="6.68318">
        <ele>152.9</ele>
        <time>2025-10-26T10:02:20Z</time>
      </trkpt>
      <trkpt lat="43.51333" lon="6.68318">
        <ele>153</ele>
        <time>2025-10-26T10:02:21Z</time>
      </trkpt>
      <trkpt lat="43.51333" lon="6.68319">
        <ele>152.9</ele>
        <time>2025-10-26T10:02:22Z</time>
      </trkpt>
      <trkpt lat="43.51332" lon="6.68319">
        <ele>153</ele>
        <time>2025-10-26T10:02:23Z</time>
      </trkpt>
      <trkpt lat="43.51332" lon="6.68319">
        <ele>153</ele>
        <time>2025-10-26T10:02:24Z</time>
      </trkpt>
      <trkpt lat="43.51332" lon="6.68319">
        <ele>153</ele>
        <time>2025-10-26T10:02:25Z</time>
      </trkpt>
      <trkpt lat="43.51331" lon="6.68319">
        <ele>153.1</ele>
        <time>2025-10-26T10:02:26Z</time>
      </trkpt>
      <trkpt lat="43.51331" lon="6.6832">
        <ele>153.3</ele>
        <time>2025-10-26T10:02:27Z</time>
      </trkpt>
      <trkpt lat="43.5133" lon="6.68321">
        <ele>153.4</ele>
        <time>2025-10-26T10:02:28Z</time>
      </trkpt>
      <trkpt lat="43.5133" lon="6.68322">
        <ele>153.4</ele>
        <time>2025-10-26T10:02:29Z</time>
      </trkpt>
      <trkpt lat="43.51331" lon="6.68323">
        <ele>153.5</ele>
        <time>2025-10-26T10:02:30Z</time>
      </trkpt>
      <trkpt lat="43.5133" lon="6.68324">
        <ele>153.6</ele>
        <time>2025-10-26T10:02:31Z</time>
      </trkpt>
      <trkpt lat="43.5133" lon="6.68325">
        <ele>153.7</ele>
        <time>2025-10-26T10:02:32Z</time>
      </trkpt>
      <trkpt lat="43.5133" lon="6.68326">
        <ele>153.7</ele>
        <time>2025-10-26T10:02:33Z</time>
      </trkpt>
      <trkpt lat="43.51329" lon="6.68327">
        <ele>153.7</ele>
        <time>2025-10-26T10:02:34Z</time>
      </trkpt>
      <trkpt lat="43.51329" lon="6.68328">
        <ele>153.8</ele>
        <time>2025-10-26T10:02:35Z</time>
      </trkpt>
      <trkpt lat="43.5133" lon="6.6833">
        <ele>153.9</ele>
        <time>2025-10-26T10:02:36Z</time>
      </trkpt>
      <trkpt lat="43.51329" lon="6.68331">
        <ele>153.9</ele>
        <time>2025-10-26T10:02:37Z</time>
      </trkpt>
      <trkpt lat="43.51329" lon="6.68332">
        <ele>153.9</ele>
        <time>2025-10-26T10:02:38Z</time>
      </trkpt>
      <trkpt lat="43.51329" lon="6.68333">
        <ele>153.9</ele>
        <time>2025-10-26T10:02:39Z</time>
      </trkpt>
      <trkpt lat="43.5133" lon="6.68334">
        <ele>154</ele>
        <time>2025-10-26T10:02:40Z</time>
      </trkpt>
      <trkpt lat="43.5133" lon="6.68335">
        <ele>154</ele>
        <time>2025-10-26T10:02:41Z</time>
      </trkpt>
      <trkpt lat="43.5133" lon="6.68337">
        <ele>154.1</ele>
        <time>2025-10-26T10:02:42Z</time>
      </trkpt>
      <trkpt lat="43.5133" lon="6.68338">
        <ele>154.2</ele>
        <time>2025-10-26T10:02:43Z</time>
      </trkpt>
      <trkpt lat="43.5133" lon="6.68339">
        <ele>154.2</ele>
        <time>2025-10-26T10:02:44Z</time>
      </trkpt>
      <trkpt lat="43.51331" lon="6.6834">
        <ele>154.2</ele>
        <time>2025-10-26T10:02:45Z</time>
      </trkpt>
      <trkpt lat="43.5133" lon="6.68341">
        <ele>154.2</ele>
        <time>2025-10-26T10:02:46Z</time>
      </trkpt>
      <trkpt lat="43.5133" lon="6.68341">
        <ele>154.2</ele>
        <time>2025-10-26T10:02:47Z</time>
      </trkpt>
      <trkpt lat="43.5133" lon="6.68343">
        <ele>154.2</ele>
        <time>2025-10-26T10:02:48Z</time>
      </trkpt>
      <trkpt lat="43.5133" lon="6.68343">
        <ele>154.3</ele>
        <time>2025-10-26T10:02:49Z</time>
      </trkpt>
      <trkpt lat="43.51331" lon="6.68343">
        <ele>154.2</ele>
        <time>2025-10-26T10:02:50Z</time>
      </trkpt>
      <trkpt lat="43.51332" lon="6.68343">
        <ele>154.2</ele>
        <time>2025-10-26T10:02:51Z</time>
      </trkpt>
      <trkpt lat="43.51332" lon="6.68343">
        <ele>154.1</ele>
        <time>2025-10-26T10:02:52Z</time>
      </trkpt>
      <trkpt lat="43.51332" lon="6.68345">
        <ele>154.1</ele>
        <time>2025-10-26T10:02:53Z</time>
      </trkpt>
      <trkpt lat="43.51332" lon="6.68346">
        <ele>154</ele>
        <time>2025-10-26T10:02:54Z</time>
      </trkpt>
      <trkpt lat="43.51333" lon="6.68347">
        <ele>154</ele>
        <time>2025-10-26T10:02:55Z</time>
      </trkpt>
      <trkpt lat="43.51333" lon="6.68348">
        <ele>154</ele>
        <time>2025-10-26T10:02:56Z</time>
      </trkpt>
      <trkpt lat="43.51334" lon="6.68349">
        <ele>154</ele>
        <time>2025-10-26T10:02:57Z</time>
      </trkpt>
      <trkpt lat="43.51334" lon="6.6835">
        <ele>154.1</ele>
        <time>2025-10-26T10:02:58Z</time>
      </trkpt>
      <trkpt lat="43.51334" lon="6.68351">
        <ele>154.1</ele>
        <time>2025-10-26T10:02:59Z</time>
      </trkpt>
      <trkpt lat="43.51334" lon="6.68352">
        <ele>154</ele>
        <time>2025-10-26T10:03:00Z</time>
      </trkpt>
      <trkpt lat="43.51334" lon="6.68354">
        <ele>154</ele>
        <time>2025-10-26T10:03:01Z</time>
      </trkpt>
      <trkpt lat="43.51334" lon="6.68354">
        <ele>153.9</ele>
        <time>2025-10-26T10:03:02Z</time>
      </trkpt>
      <trkpt lat="43.51334" lon="6.68355">
        <ele>153.7</ele>
        <time>2025-10-26T10:03:03Z</time>
      </trkpt>
      <trkpt lat="43.51333" lon="6.68356">
        <ele>153.6</ele>
        <time>2025-10-26T10:03:04Z</time>
      </trkpt>
      <trkpt lat="43.51334" lon="6.68357">
        <ele>153.5</ele>
        <time>2025-10-26T10:03:05Z</time>
      </trkpt>
      <trkpt lat="43.51334" lon="6.68358">
        <ele>153.3</ele>
        <time>2025-10-26T10:03:06Z</time>
      </trkpt>
      <trkpt lat="43.51333" lon="6.68359">
        <ele>153.2</ele>
        <time>2025-10-26T10:03:07Z</time>
      </trkpt>
      <trkpt lat="43.51333" lon="6.68359">
        <ele>153.1</ele>
        <time>2025-10-26T10:03:08Z</time>
      </trkpt>
      <trkpt lat="43.51333" lon="6.6836">
        <ele>153.1</ele>
        <time>2025-10-26T10:03:09Z</time>
      </trkpt>
      <trkpt lat="43.51333" lon="6.68361">
        <ele>153</ele>
        <time>2025-10-26T10:03:10Z</time>
      </trkpt>
      <trkpt lat="43.51333" lon="6.68362">
        <ele>152.8</ele>
        <time>2025-10-26T10:03:11Z</time>
      </trkpt>
      <trkpt lat="43.51332" lon="6.68363">
        <ele>152.7</ele>
        <time>2025-10-26T10:03:12Z</time>
      </trkpt>
      <trkpt lat="43.51332" lon="6.68364">
        <ele>152.5</ele>
        <time>2025-10-26T10:03:13Z</time>
      </trkpt>
      <trkpt lat="43.51332" lon="6.68365">
        <ele>152.3</ele>
        <time>2025-10-26T10:03:14Z</time>
      </trkpt>
      <trkpt lat="43.51332" lon="6.68366">
        <ele>152.1</ele>
        <time>2025-10-26T10:03:15Z</time>
      </trkpt>
      <trkpt lat="43.51333" lon="6.68367">
        <ele>151.9</ele>
        <time>2025-10-26T10:03:16Z</time>
      </trkpt>
      <trkpt lat="43.51333" lon="6.68368">
        <ele>151.7</ele>
        <time>2025-10-26T10:03:17Z</time>
      </trkpt>
      <trkpt lat="43.51333" lon="6.68368">
        <ele>151.6</ele>
        <time>2025-10-26T10:03:18Z</time>
      </trkpt>
      <trkpt lat="43.51333" lon="6.68369">
        <ele>151.3</ele>
        <time>2025-10-26T10:03:19Z</time>
      </trkpt>
      <trkpt lat="43.51333" lon="6.6837">
        <ele>151.2</ele>
        <time>2025-10-26T10:03:20Z</time>
      </trkpt>
      <trkpt lat="43.51332" lon="6.68371">
        <ele>151</ele>
        <time>2025-10-26T10:03:21Z</time>
      </trkpt>
      <trkpt lat="43.51332" lon="6.68372">
        <ele>150.8</ele>
        <time>2025-10-26T10:03:22Z</time>
      </trkpt>
      <trkpt lat="43.51332" lon="6.68373">
        <ele>150.7</ele>
        <time>2025-10-26T10:03:23Z</time>
      </trkpt>
      <trkpt lat="43.51332" lon="6.68374">
        <ele>150.6</ele>
        <time>2025-10-26T10:03:24Z</time>
      </trkpt>
      <trkpt lat="43.51332" lon="6.68374">
        <ele>150.6</ele>
        <time>2025-10-26T10:03:25Z</time>
      </trkpt>
      <trkpt lat="43.51332" lon="6.68375">
        <ele>150.5</ele>
        <time>2025-10-26T10:03:26Z</time>
      </trkpt>
      <trkpt lat="43.51331" lon="6.68375">
        <ele>150.5</ele>
        <time>2025-10-26T10:03:27Z</time>
      </trkpt>
      <trkpt lat="43.51331" lon="6.68376">
        <ele>150.5</ele>
        <time>2025-10-26T10:03:28Z</time>
      </trkpt>
      <trkpt lat="43.51331" lon="6.68376">
        <ele>150.4</ele>
        <time>2025-10-26T10:03:29Z</time>
      </trkpt>
      <trkpt lat="43.5133" lon="6.68377">
        <ele>150.3</ele>
        <time>2025-10-26T10:03:30Z</time>
      </trkpt>
      <trkpt lat="43.5133" lon="6.68377">
        <ele>150.3</ele>
        <time>2025-10-26T10:03:31Z</time>
      </trkpt>
      <trkpt lat="43.5133" lon="6.68378">
        <ele>150.3</ele>
        <time>2025-10-26T10:03:32Z</time>
      </trkpt>
      <trkpt lat="43.5133" lon="6.68378">
        <ele>150.3</ele>
        <time>2025-10-26T10:03:33Z</time>
      </trkpt>
      <trkpt lat="43.5133" lon="6.68377">
        <ele>150.3</ele>
        <time>2025-10-26T10:03:34Z</time>
      </trkpt>
      <trkpt lat="43.5133" lon="6.68378">
        <ele>150.5</ele>
        <time>2025-10-26T10:03:35Z</time>
      </trkpt>
      <trkpt lat="43.5133" lon="6.68378">
        <ele>150.7</ele>
        <time>2025-10-26T10:03:36Z</time>
      </trkpt>
      <trkpt lat="43.5133" lon="6.68378">
        <ele>150.8</ele>
        <time>2025-10-26T10:03:37Z</time>
      </trkpt>
      <trkpt lat="43.5133" lon="6.68379">
        <ele>150.8</ele>
        <time>2025-10-26T10:03:38Z</time>
      </trkpt>
      <trkpt lat="43.5133" lon="6.6838">
        <ele>150.9</ele>
        <time>2025-10-26T10:03:39Z</time>
      </trkpt>
      <trkpt lat="43.5133" lon="6.6838">
        <ele>150.9</ele>
        <time>2025-10-26T10:03:40Z</time>
      </trkpt>
      <trkpt lat="43.5133" lon="6.68381">
        <ele>151</ele>
        <time>2025-10-26T10:03:41Z</time>
      </trkpt>
      <trkpt lat="43.51329" lon="6.68381">
        <ele>151</ele>
        <time>2025-10-26T10:03:42Z</time>
      </trkpt>
      <trkpt lat="43.5133" lon="6.68382">
        <ele>151</ele>
        <time>2025-10-26T10:03:43Z</time>
      </trkpt>
      <trkpt lat="43.5133" lon="6.68383">
        <ele>151</ele>
        <time>2025-10-26T10:03:44Z</time>
      </trkpt>
      <trkpt lat="43.5133" lon="6.68384">
        <ele>151</ele>
        <time>2025-10-26T10:03:45Z</time>
      </trkpt>
      <trkpt lat="43.5133" lon="6.68385">
        <ele>151.1</ele>
        <time>2025-10-26T10:03:46Z</time>
      </trkpt>
      <trkpt lat="43.5133" lon="6.68386">
        <ele>151.2</ele>
        <time>2025-10-26T10:03:47Z</time>
      </trkpt>
      <trkpt lat="43.5133" lon="6.68386">
        <ele>151.3</ele>
        <time>2025-10-26T10:03:48Z</time>
      </trkpt>
      <trkpt lat="43.5133" lon="6.68387">
        <ele>151.4</ele>
        <time>2025-10-26T10:03:49Z</time>
      </trkpt>
      <trkpt lat="43.5133" lon="6.68388">
        <ele>151.5</ele>
        <time>2025-10-26T10:03:50Z</time>
      </trkpt>
      <trkpt lat="43.5133" lon="6.68388">
        <ele>151.7</ele>
        <time>2025-10-26T10:03:51Z</time>
      </trkpt>
      <trkpt lat="43.5133" lon="6.68388">
        <ele>151.8</ele>
        <time>2025-10-26T10:03:52Z</time>
      </trkpt>
      <trkpt lat="43.5133" lon="6.68389">
        <ele>152</ele>
        <time>2025-10-26T10:03:53Z</time>
      </trkpt>
      <trkpt lat="43.5133" lon="6.68389">
        <ele>152.3</ele>
        <time>2025-10-26T10:03:54Z</time>
      </trkpt>
      <trkpt lat="43.5133" lon="6.68388">
        <ele>152.5</ele>
        <time>2025-10-26T10:03:55Z</time>
      </trkpt>
      <trkpt lat="43.5133" lon="6.68389">
        <ele>152.6</ele>
        <time>2025-10-26T10:03:56Z</time>
      </trkpt>
      <trkpt lat="43.51331" lon="6.68389">
        <ele>152.8</ele>
        <time>2025-10-26T10:03:57Z</time>
      </trkpt>
      <trkpt lat="43.51331" lon="6.6839">
        <ele>152.8</ele>
        <time>2025-10-26T10:03:58Z</time>
      </trkpt>
      <trkpt lat="43.51331" lon="6.68391">
        <ele>153.1</ele>
        <time>2025-10-26T10:03:59Z</time>
      </trkpt>
      <trkpt lat="43.51332" lon="6.68392">
        <ele>153.3</ele>
        <time>2025-10-26T10:04:00Z</time>
      </trkpt>
      <trkpt lat="43.51333" lon="6.68393">
        <ele>153.4</ele>
        <time>2025-10-26T10:04:01Z</time>
      </trkpt>
      <trkpt lat="43.51333" lon="6.68394">
        <ele>153.4</ele>
        <time>2025-10-26T10:04:02Z</time>
      </trkpt>
      <trkpt lat="43.51333" lon="6.68395">
        <ele>153.5</ele>
        <time>2025-10-26T10:04:03Z</time>
      </trkpt>
      <trkpt lat="43.51334" lon="6.68395">
        <ele>153.6</ele>
        <time>2025-10-26T10:04:04Z</time>
      </trkpt>
      <trkpt lat="43.51334" lon="6.68395">
        <ele>153.7</ele>
        <time>2025-10-26T10:04:05Z</time>
      </trkpt>
      <trkpt lat="43.51335" lon="6.68396">
        <ele>153.9</ele>
        <time>2025-10-26T10:04:06Z</time>
      </trkpt>
      <trkpt lat="43.51334" lon="6.68396">
        <ele>154</ele>
        <time>2025-10-26T10:04:07Z</time>
      </trkpt>
      <trkpt lat="43.51334" lon="6.68396">
        <ele>154.3</ele>
        <time>2025-10-26T10:04:08Z</time>
      </trkpt>
      <trkpt lat="43.51334" lon="6.68396">
        <ele>154.5</ele>
        <time>2025-10-26T10:04:09Z</time>
      </trkpt>
      <trkpt lat="43.51335" lon="6.68397">
        <ele>154.6</ele>
        <time>2025-10-26T10:04:10Z</time>
      </trkpt>
      <trkpt lat="43.51336" lon="6.68397">
        <ele>154.7</ele>
        <time>2025-10-26T10:04:11Z</time>
      </trkpt>
      <trkpt lat="43.51337" lon="6.68398">
        <ele>155.2</ele>
        <time>2025-10-26T10:04:12Z</time>
      </trkpt>
      <trkpt lat="43.51337" lon="6.68399">
        <ele>155.4</ele>
        <time>2025-10-26T10:04:13Z</time>
      </trkpt>
      <trkpt lat="43.51338" lon="6.684">
        <ele>155.8</ele>
        <time>2025-10-26T10:04:14Z</time>
      </trkpt>
      <trkpt lat="43.51338" lon="6.68401">
        <ele>156.2</ele>
        <time>2025-10-26T10:04:15Z</time>
      </trkpt>
      <trkpt lat="43.51338" lon="6.68401">
        <ele>156.5</ele>
        <time>2025-10-26T10:04:16Z</time>
      </trkpt>
      <trkpt lat="43.51339" lon="6.68402">
        <ele>156.8</ele>
        <time>2025-10-26T10:04:17Z</time>
      </trkpt>
      <trkpt lat="43.5134" lon="6.68403">
        <ele>157</ele>
        <time>2025-10-26T10:04:18Z</time>
      </trkpt>
      <trkpt lat="43.51342" lon="6.68403">
        <ele>157.2</ele>
        <time>2025-10-26T10:04:19Z</time>
      </trkpt>
      <trkpt lat="43.51343" lon="6.68403">
        <ele>157.3</ele>
        <time>2025-10-26T10:04:20Z</time>
      </trkpt>
      <trkpt lat="43.51343" lon="6.68403">
        <ele>157.4</ele>
        <time>2025-10-26T10:04:21Z</time>
      </trkpt>
      <trkpt lat="43.51344" lon="6.68404">
        <ele>157.5</ele>
        <time>2025-10-26T10:04:22Z</time>
      </trkpt>
      <trkpt lat="43.51344" lon="6.68404">
        <ele>157.6</ele>
        <time>2025-10-26T10:04:23Z</time>
      </trkpt>
      <trkpt lat="43.51345" lon="6.68404">
        <ele>157.7</ele>
        <time>2025-10-26T10:04:24Z</time>
      </trkpt>
      <trkpt lat="43.51345" lon="6.68405">
        <ele>157.7</ele>
        <time>2025-10-26T10:04:25Z</time>
      </trkpt>
      <trkpt lat="43.51345" lon="6.68405">
        <ele>157.7</ele>
        <time>2025-10-26T10:04:26Z</time>
      </trkpt>
      <trkpt lat="43.51346" lon="6.68405">
        <ele>157.8</ele>
        <time>2025-10-26T10:04:27Z</time>
      </trkpt>
      <trkpt lat="43.51346" lon="6.68405">
        <ele>157.8</ele>
        <time>2025-10-26T10:04:28Z</time>
      </trkpt>
      <trkpt lat="43.51346" lon="6.68405">
        <ele>157.8</ele>
        <time>2025-10-26T10:04:29Z</time>
      </trkpt>
      <trkpt lat="43.51346" lon="6.68404">
        <ele>157.8</ele>
        <time>2025-10-26T10:04:30Z</time>
      </trkpt>
      <trkpt lat="43.51346" lon="6.68404">
        <ele>157.9</ele>
        <time>2025-10-26T10:04:31Z</time>
      </trkpt>
      <trkpt lat="43.51346" lon="6.68404">
        <ele>157.9</ele>
        <time>2025-10-26T10:04:32Z</time>
      </trkpt>
      <trkpt lat="43.51346" lon="6.68405">
        <ele>157.9</ele>
        <time>2025-10-26T10:04:33Z</time>
      </trkpt>
      <trkpt lat="43.51346" lon="6.68405">
        <ele>157.9</ele>
        <time>2025-10-26T10:04:34Z</time>
      </trkpt>
      <trkpt lat="43.51346" lon="6.68406">
        <ele>157.9</ele>
        <time>2025-10-26T10:04:35Z</time>
      </trkpt>
      <trkpt lat="43.51346" lon="6.68406">
        <ele>158</ele>
        <time>2025-10-26T10:04:36Z</time>
      </trkpt>
      <trkpt lat="43.51346" lon="6.68406">
        <ele>158.1</ele>
        <time>2025-10-26T10:04:37Z</time>
      </trkpt>
      <trkpt lat="43.51346" lon="6.68407">
        <ele>158.2</ele>
        <time>2025-10-26T10:04:38Z</time>
      </trkpt>
      <trkpt lat="43.51346" lon="6.68409">
        <ele>158.5</ele>
        <time>2025-10-26T10:04:39Z</time>
      </trkpt>
      <trkpt lat="43.51347" lon="6.68409">
        <ele>158.6</ele>
        <time>2025-10-26T10:04:40Z</time>
      </trkpt>
      <trkpt lat="43.51347" lon="6.6841">
        <ele>158.6</ele>
        <time>2025-10-26T10:04:41Z</time>
      </trkpt>
      <trkpt lat="43.51346" lon="6.68411">
        <ele>158.9</ele>
        <time>2025-10-26T10:04:42Z</time>
      </trkpt>
      <trkpt lat="43.51347" lon="6.68412">
        <ele>159.1</ele>
        <time>2025-10-26T10:04:43Z</time>
      </trkpt>
      <trkpt lat="43.51347" lon="6.68413">
        <ele>159.3</ele>
        <time>2025-10-26T10:04:44Z</time>
      </trkpt>
      <trkpt lat="43.51346" lon="6.68413">
        <ele>159.5</ele>
        <time>2025-10-26T10:04:45Z</time>
      </trkpt>
      <trkpt lat="43.51345" lon="6.68414">
        <ele>159.7</ele>
        <time>2025-10-26T10:04:46Z</time>
      </trkpt>
      <trkpt lat="43.51344" lon="6.68414">
        <ele>159.9</ele>
        <time>2025-10-26T10:04:47Z</time>
      </trkpt>
      <trkpt lat="43.51344" lon="6.68414">
        <ele>160.2</ele>
        <time>2025-10-26T10:04:48Z</time>
      </trkpt>
      <trkpt lat="43.51343" lon="6.68414">
        <ele>160.5</ele>
        <time>2025-10-26T10:04:49Z</time>
      </trkpt>
      <trkpt lat="43.51343" lon="6.68414">
        <ele>160.5</ele>
        <time>2025-10-26T10:04:50Z</time>
      </trkpt>
      <trkpt lat="43.51342" lon="6.68413">
        <ele>160.6</ele>
        <time>2025-10-26T10:04:51Z</time>
      </trkpt>
      <trkpt lat="43.51341" lon="6.68413">
        <ele>160.7</ele>
        <time>2025-10-26T10:04:52Z</time>
      </trkpt>
      <trkpt lat="43.5134" lon="6.68413">
        <ele>160.8</ele>
        <time>2025-10-26T10:04:53Z</time>
      </trkpt>
      <trkpt lat="43.5134" lon="6.68413">
        <ele>161</ele>
        <time>2025-10-26T10:04:54Z</time>
      </trkpt>
      <trkpt lat="43.5134" lon="6.68413">
        <ele>161.2</ele>
        <time>2025-10-26T10:04:55Z</time>
      </trkpt>
      <trkpt lat="43.5134" lon="6.68413">
        <ele>161.4</ele>
        <time>2025-10-26T10:04:56Z</time>
      </trkpt>
      <trkpt lat="43.5134" lon="6.68413">
        <ele>161.6</ele>
        <time>2025-10-26T10:04:57Z</time>
      </trkpt>
      <trkpt lat="43.5134" lon="6.68413">
        <ele>161.8</ele>
        <time>2025-10-26T10:04:58Z</time>
      </trkpt>
      <trkpt lat="43.5134" lon="6.68413">
        <ele>161.9</ele>
        <time>2025-10-26T10:04:59Z</time>
      </trkpt>
      <trkpt lat="43.5134" lon="6.68414">
        <ele>161.9</ele>
        <time>2025-10-26T10:05:00Z</time>
      </trkpt>
      <trkpt lat="43.5134" lon="6.68414">
        <ele>162</ele>
        <time>2025-10-26T10:05:01Z</time>
      </trkpt>
      <trkpt lat="43.5134" lon="6.68414">
        <ele>162.1</ele>
        <time>2025-10-26T10:05:02Z</time>
      </trkpt>
      <trkpt lat="43.5134" lon="6.68414">
        <ele>162.1</ele>
        <time>2025-10-26T10:05:03Z</time>
      </trkpt>
      <trkpt lat="43.51339" lon="6.68415">
        <ele>162.2</ele>
        <time>2025-10-26T10:05:04Z</time>
      </trkpt>
      <trkpt lat="43.51339" lon="6.68415">
        <ele>162.2</ele>
        <time>2025-10-26T10:05:05Z</time>
      </trkpt>
      <trkpt lat="43.51339" lon="6.68415">
        <ele>162.1</ele>
        <time>2025-10-26T10:05:06Z</time>
      </trkpt>
      <trkpt lat="43.51339" lon="6.68415">
        <ele>162</ele>
        <time>2025-10-26T10:05:07Z</time>
      </trkpt>
      <trkpt lat="43.51339" lon="6.68416">
        <ele>161.9</ele>
        <time>2025-10-26T10:05:08Z</time>
      </trkpt>
      <trkpt lat="43.51338" lon="6.68416">
        <ele>161.9</ele>
        <time>2025-10-26T10:05:09Z</time>
      </trkpt>
      <trkpt lat="43.51338" lon="6.68416">
        <ele>161.8</ele>
        <time>2025-10-26T10:05:10Z</time>
      </trkpt>
      <trkpt lat="43.51338" lon="6.68416">
        <ele>161.8</ele>
        <time>2025-10-26T10:05:11Z</time>
      </trkpt>
      <trkpt lat="43.51338" lon="6.68416">
        <ele>162</ele>
        <time>2025-10-26T10:05:12Z</time>
      </trkpt>
      <trkpt lat="43.51338" lon="6.68416">
        <ele>162.1</ele>
        <time>2025-10-26T10:05:13Z</time>
      </trkpt>
      <trkpt lat="43.51338" lon="6.68416">
        <ele>162.1</ele>
        <time>2025-10-26T10:05:14Z</time>
      </trkpt>
      <trkpt lat="43.51338" lon="6.68416">
        <ele>162.2</ele>
        <time>2025-10-26T10:05:15Z</time>
      </trkpt>
      <trkpt lat="43.51338" lon="6.68417">
        <ele>162.3</ele>
        <time>2025-10-26T10:05:16Z</time>
      </trkpt>
      <trkpt lat="43.51338" lon="6.68417">
        <ele>162.3</ele>
        <time>2025-10-26T10:05:17Z</time>
      </trkpt>
      <trkpt lat="43.51338" lon="6.68417">
        <ele>162.3</ele>
        <time>2025-10-26T10:05:18Z</time>
      </trkpt>
      <trkpt lat="43.51338" lon="6.68417">
        <ele>162.2</ele>
        <time>2025-10-26T10:05:19Z</time>
      </trkpt>
      <trkpt lat="43.51338" lon="6.68417">
        <ele>162.2</ele>
        <time>2025-10-26T10:05:20Z</time>
      </trkpt>
      <trkpt lat="43.51338" lon="6.68417">
        <ele>162.2</ele>
        <time>2025-10-26T10:05:21Z</time>
      </trkpt>
      <trkpt lat="43.51338" lon="6.68417">
        <ele>162.2</ele>
        <time>2025-10-26T10:05:22Z</time>
      </trkpt>
      <trkpt lat="43.51338" lon="6.68417">
        <ele>162.2</ele>
        <time>2025-10-26T10:05:23Z</time>
      </trkpt>
      <trkpt lat="43.51338" lon="6.68417">
        <ele>162.3</ele>
        <time>2025-10-26T10:05:24Z</time>
      </trkpt>
      <trkpt lat="43.51338" lon="6.68417">
        <ele>162.3</ele>
        <time>2025-10-26T10:05:25Z</time>
      </trkpt>
      <trkpt lat="43.51338" lon="6.68418">
        <ele>162.3</ele>
        <time>2025-10-26T10:05:26Z</time>
      </trkpt>
      <trkpt lat="43.51339" lon="6.68418">
        <ele>162.3</ele>
        <time>2025-10-26T10:05:27Z</time>
      </trkpt>
      <trkpt lat="43.51339" lon="6.68418">
        <ele>162.4</ele>
        <time>2025-10-26T10:05:28Z</time>
      </trkpt>
      <trkpt lat="43.51339" lon="6.68418">
        <ele>162.3</ele>
        <time>2025-10-26T10:05:29Z</time>
      </trkpt>
      <trkpt lat="43.51339" lon="6.68418">
        <ele>162.3</ele>
        <time>2025-10-26T10:05:30Z</time>
      </trkpt>
      <trkpt lat="43.51339" lon="6.68418">
        <ele>162.3</ele>
        <time>2025-10-26T10:05:31Z</time>
      </trkpt>
      <trkpt lat="43.51339" lon="6.68418">
        <ele>162.3</ele>
        <time>2025-10-26T10:05:32Z</time>
      </trkpt>
      <trkpt lat="43.51339" lon="6.68419">
        <ele>162.3</ele>
        <time>2025-10-26T10:05:33Z</time>
      </trkpt>
      <trkpt lat="43.51339" lon="6.68419">
        <ele>162.2</ele>
        <time>2025-10-26T10:05:34Z</time>
      </trkpt>
      <trkpt lat="43.51339" lon="6.68419">
        <ele>162.3</ele>
        <time>2025-10-26T10:05:35Z</time>
      </trkpt>
      <trkpt lat="43.51339" lon="6.68419">
        <ele>162.4</ele>
        <time>2025-10-26T10:05:36Z</time>
      </trkpt>
      <trkpt lat="43.51339" lon="6.68419">
        <ele>162.4</ele>
        <time>2025-10-26T10:05:37Z</time>
      </trkpt>
      <trkpt lat="43.51339" lon="6.6842">
        <ele>162.4</ele>
        <time>2025-10-26T10:05:38Z</time>
      </trkpt>
      <trkpt lat="43.51339" lon="6.6842">
        <ele>162.5</ele>
        <time>2025-10-26T10:05:39Z</time>
      </trkpt>
      <trkpt lat="43.51339" lon="6.68419">
        <ele>162.5</ele>
        <time>2025-10-26T10:05:40Z</time>
      </trkpt>
      <trkpt lat="43.51338" lon="6.6842">
        <ele>162.6</ele>
        <time>2025-10-26T10:05:41Z</time>
      </trkpt>
      <trkpt lat="43.51338" lon="6.6842">
        <ele>162.6</ele>
        <time>2025-10-26T10:05:42Z</time>
      </trkpt>
      <trkpt lat="43.51338" lon="6.6842">
        <ele>162.6</ele>
        <time>2025-10-26T10:05:43Z</time>
      </trkpt>
      <trkpt lat="43.51338" lon="6.68421">
        <ele>162.5</ele>
        <time>2025-10-26T10:05:44Z</time>
      </trkpt>
      <trkpt lat="43.51338" lon="6.68421">
        <ele>162.6</ele>
        <time>2025-10-26T10:05:45Z</time>
      </trkpt>
      <trkpt lat="43.51338" lon="6.68422">
        <ele>162.6</ele>
        <time>2025-10-26T10:05:46Z</time>
      </trkpt>
      <trkpt lat="43.51339" lon="6.68422">
        <ele>162.7</ele>
        <time>2025-10-26T10:05:47Z</time>
      </trkpt>
      <trkpt lat="43.51339" lon="6.68423">
        <ele>162.9</ele>
        <time>2025-10-26T10:05:48Z</time>
      </trkpt>
      <trkpt lat="43.51339" lon="6.68424">
        <ele>162.9</ele>
        <time>2025-10-26T10:05:49Z</time>
      </trkpt>
      <trkpt lat="43.51339" lon="6.68425">
        <ele>163</ele>
        <time>2025-10-26T10:05:50Z</time>
      </trkpt>
      <trkpt lat="43.51339" lon="6.68425">
        <ele>163</ele>
        <time>2025-10-26T10:05:51Z</time>
      </trkpt>
      <trkpt lat="43.51339" lon="6.68425">
        <ele>163</ele>
        <time>2025-10-26T10:05:52Z</time>
      </trkpt>
      <trkpt lat="43.5134" lon="6.68425">
        <ele>162.9</ele>
        <time>2025-10-26T10:05:53Z</time>
      </trkpt>
      <trkpt lat="43.5134" lon="6.68426">
        <ele>162.7</ele>
        <time>2025-10-26T10:05:54Z</time>
      </trkpt>
      <trkpt lat="43.5134" lon="6.68426">
        <ele>162.7</ele>
        <time>2025-10-26T10:05:55Z</time>
      </trkpt>
      <trkpt lat="43.5134" lon="6.68426">
        <ele>162.5</ele>
        <time>2025-10-26T10:05:56Z</time>
      </trkpt>
      <trkpt lat="43.5134" lon="6.68426">
        <ele>162.4</ele>
        <time>2025-10-26T10:05:57Z</time>
      </trkpt>
      <trkpt lat="43.51341" lon="6.68427">
        <ele>162.5</ele>
        <time>2025-10-26T10:05:58Z</time>
      </trkpt>
      <trkpt lat="43.51341" lon="6.68427">
        <ele>162.6</ele>
        <time>2025-10-26T10:05:59Z</time>
      </trkpt>
      <trkpt lat="43.51342" lon="6.68428">
        <ele>162.7</ele>
        <time>2025-10-26T10:06:00Z</time>
      </trkpt>
      <trkpt lat="43.51343" lon="6.68429">
        <ele>162.8</ele>
        <time>2025-10-26T10:06:01Z</time>
      </trkpt>
      <trkpt lat="43.51343" lon="6.6843">
        <ele>162.9</ele>
        <time>2025-10-26T10:06:02Z</time>
      </trkpt>
      <trkpt lat="43.51343" lon="6.68431">
        <ele>162.9</ele>
        <time>2025-10-26T10:06:03Z</time>
      </trkpt>
      <trkpt lat="43.51343" lon="6.68432">
        <ele>163</ele>
        <time>2025-10-26T10:06:04Z</time>
      </trkpt>
      <trkpt lat="43.51344" lon="6.68434">
        <ele>163.1</ele>
        <time>2025-10-26T10:06:05Z</time>
      </trkpt>
      <trkpt lat="43.51343" lon="6.68434">
        <ele>163.2</ele>
        <time>2025-10-26T10:06:06Z</time>
      </trkpt>
      <trkpt lat="43.51343" lon="6.68435">
        <ele>163.3</ele>
        <time>2025-10-26T10:06:07Z</time>
      </trkpt>
      <trkpt lat="43.51343" lon="6.68436">
        <ele>163.4</ele>
        <time>2025-10-26T10:06:08Z</time>
      </trkpt>
      <trkpt lat="43.51343" lon="6.68438">
        <ele>163.5</ele>
        <time>2025-10-26T10:06:09Z</time>
      </trkpt>
      <trkpt lat="43.51344" lon="6.68439">
        <ele>163.7</ele>
        <time>2025-10-26T10:06:10Z</time>
      </trkpt>
      <trkpt lat="43.51344" lon="6.6844">
        <ele>163.7</ele>
        <time>2025-10-26T10:06:11Z</time>
      </trkpt>
      <trkpt lat="43.51345" lon="6.68441">
        <ele>163.8</ele>
        <time>2025-10-26T10:06:12Z</time>
      </trkpt>
      <trkpt lat="43.51346" lon="6.68442">
        <ele>163.8</ele>
        <time>2025-10-26T10:06:13Z</time>
      </trkpt>
      <trkpt lat="43.51346" lon="6.68443">
        <ele>163.9</ele>
        <time>2025-10-26T10:06:14Z</time>
      </trkpt>
      <trkpt lat="43.51347" lon="6.68444">
        <ele>164</ele>
        <time>2025-10-26T10:06:15Z</time>
      </trkpt>
      <trkpt lat="43.51347" lon="6.68445">
        <ele>164.2</ele>
        <time>2025-10-26T10:06:16Z</time>
      </trkpt>
      <trkpt lat="43.51347" lon="6.68446">
        <ele>164.2</ele>
        <time>2025-10-26T10:06:17Z</time>
      </trkpt>
      <trkpt lat="43.51348" lon="6.68448">
        <ele>164.2</ele>
        <time>2025-10-26T10:06:18Z</time>
      </trkpt>
      <trkpt lat="43.51348" lon="6.68449">
        <ele>164.3</ele>
        <time>2025-10-26T10:06:19Z</time>
      </trkpt>
      <trkpt lat="43.51348" lon="6.68449">
        <ele>164.3</ele>
        <time>2025-10-26T10:06:20Z</time>
      </trkpt>
      <trkpt lat="43.51349" lon="6.6845">
        <ele>164.3</ele>
        <time>2025-10-26T10:06:21Z</time>
      </trkpt>
      <trkpt lat="43.51349" lon="6.6845">
        <ele>164.3</ele>
        <time>2025-10-26T10:06:22Z</time>
      </trkpt>
      <trkpt lat="43.51349" lon="6.6845">
        <ele>164.4</ele>
        <time>2025-10-26T10:06:23Z</time>
      </trkpt>
      <trkpt lat="43.51349" lon="6.6845">
        <ele>164.5</ele>
        <time>2025-10-26T10:06:24Z</time>
      </trkpt>
      <trkpt lat="43.51349" lon="6.6845">
        <ele>164.8</ele>
        <time>2025-10-26T10:06:25Z</time>
      </trkpt>
      <trkpt lat="43.51349" lon="6.6845">
        <ele>164.9</ele>
        <time>2025-10-26T10:06:26Z</time>
      </trkpt>
      <trkpt lat="43.51349" lon="6.6845">
        <ele>164.9</ele>
        <time>2025-10-26T10:06:27Z</time>
      </trkpt>
      <trkpt lat="43.51349" lon="6.6845">
        <ele>165</ele>
        <time>2025-10-26T10:06:28Z</time>
      </trkpt>
      <trkpt lat="43.51349" lon="6.68451">
        <ele>165</ele>
        <time>2025-10-26T10:06:29Z</time>
      </trkpt>
      <trkpt lat="43.5135" lon="6.68451">
        <ele>165.1</ele>
        <time>2025-10-26T10:06:30Z</time>
      </trkpt>
      <trkpt lat="43.5135" lon="6.68451">
        <ele>165.1</ele>
        <time>2025-10-26T10:06:31Z</time>
      </trkpt>
      <trkpt lat="43.5135" lon="6.68451">
        <ele>165.2</ele>
        <time>2025-10-26T10:06:32Z</time>
      </trkpt>
      <trkpt lat="43.5135" lon="6.68451">
        <ele>165.4</ele>
        <time>2025-10-26T10:06:33Z</time>
      </trkpt>
      <trkpt lat="43.5135" lon="6.68451">
        <ele>165.5</ele>
        <time>2025-10-26T10:06:34Z</time>
      </trkpt>
      <trkpt lat="43.5135" lon="6.68452">
        <ele>165.7</ele>
        <time>2025-10-26T10:06:35Z</time>
      </trkpt>
      <trkpt lat="43.5135" lon="6.68452">
        <ele>165.7</ele>
        <time>2025-10-26T10:06:36Z</time>
      </trkpt>
      <trkpt lat="43.5135" lon="6.68452">
        <ele>165.7</ele>
        <time>2025-10-26T10:06:37Z</time>
      </trkpt>
      <trkpt lat="43.5135" lon="6.68452">
        <ele>165.7</ele>
        <time>2025-10-26T10:06:38Z</time>
      </trkpt>
      <trkpt lat="43.5135" lon="6.68452">
        <ele>165.7</ele>
        <time>2025-10-26T10:06:39Z</time>
      </trkpt>
      <trkpt lat="43.5135" lon="6.68452">
        <ele>165.7</ele>
        <time>2025-10-26T10:06:40Z</time>
      </trkpt>
      <trkpt lat="43.5135" lon="6.68452">
        <ele>165.7</ele>
        <time>2025-10-26T10:06:41Z</time>
      </trkpt>
      <trkpt lat="43.51351" lon="6.68452">
        <ele>165.7</ele>
        <time>2025-10-26T10:06:42Z</time>
      </trkpt>
      <trkpt lat="43.51351" lon="6.68453">
        <ele>165.7</ele>
        <time>2025-10-26T10:06:43Z</time>
      </trkpt>
      <trkpt lat="43.51351" lon="6.68454">
        <ele>165.8</ele>
        <time>2025-10-26T10:06:44Z</time>
      </trkpt>
      <trkpt lat="43.51351" lon="6.68455">
        <ele>165.9</ele>
        <time>2025-10-26T10:06:45Z</time>
      </trkpt>
      <trkpt lat="43.51352" lon="6.68455">
        <ele>166</ele>
        <time>2025-10-26T10:06:46Z</time>
      </trkpt>
      <trkpt lat="43.51352" lon="6.68456">
        <ele>166.1</ele>
        <time>2025-10-26T10:06:47Z</time>
      </trkpt>
      <trkpt lat="43.51353" lon="6.68457">
        <ele>166.1</ele>
        <time>2025-10-26T10:06:48Z</time>
      </trkpt>
      <trkpt lat="43.51353" lon="6.68458">
        <ele>166.3</ele>
        <time>2025-10-26T10:06:49Z</time>
      </trkpt>
      <trkpt lat="43.51353" lon="6.68459">
        <ele>166.4</ele>
        <time>2025-10-26T10:06:50Z</time>
      </trkpt>
      <trkpt lat="43.51354" lon="6.6846">
        <ele>166.5</ele>
        <time>2025-10-26T10:06:51Z</time>
      </trkpt>
      <trkpt lat="43.51354" lon="6.68461">
        <ele>166.6</ele>
        <time>2025-10-26T10:06:52Z</time>
      </trkpt>
      <trkpt lat="43.51354" lon="6.68462">
        <ele>166.8</ele>
        <time>2025-10-26T10:06:53Z</time>
      </trkpt>
      <trkpt lat="43.51354" lon="6.68463">
        <ele>166.8</ele>
        <time>2025-10-26T10:06:54Z</time>
      </trkpt>
      <trkpt lat="43.51354" lon="6.68464">
        <ele>166.9</ele>
        <time>2025-10-26T10:06:55Z</time>
      </trkpt>
      <trkpt lat="43.51355" lon="6.68465">
        <ele>167.1</ele>
        <time>2025-10-26T10:06:56Z</time>
      </trkpt>
      <trkpt lat="43.51355" lon="6.68467">
        <ele>167.2</ele>
        <time>2025-10-26T10:06:57Z</time>
      </trkpt>
      <trkpt lat="43.51356" lon="6.68468">
        <ele>167.3</ele>
        <time>2025-10-26T10:06:58Z</time>
      </trkpt>
      <trkpt lat="43.51357" lon="6.6847">
        <ele>167.4</ele>
        <time>2025-10-26T10:06:59Z</time>
      </trkpt>
      <trkpt lat="43.51356" lon="6.68471">
        <ele>167.5</ele>
        <time>2025-10-26T10:07:00Z</time>
      </trkpt>
      <trkpt lat="43.51356" lon="6.68473">
        <ele>167.8</ele>
        <time>2025-10-26T10:07:01Z</time>
      </trkpt>
      <trkpt lat="43.51356" lon="6.68474">
        <ele>168</ele>
        <time>2025-10-26T10:07:02Z</time>
      </trkpt>
      <trkpt lat="43.51356" lon="6.68475">
        <ele>168.3</ele>
        <time>2025-10-26T10:07:03Z</time>
      </trkpt>
      <trkpt lat="43.51357" lon="6.68477">
        <ele>168.3</ele>
        <time>2025-10-26T10:07:04Z</time>
      </trkpt>
      <trkpt lat="43.51357" lon="6.68478">
        <ele>168.5</ele>
        <time>2025-10-26T10:07:05Z</time>
      </trkpt>
      <trkpt lat="43.51357" lon="6.68479">
        <ele>168.6</ele>
        <time>2025-10-26T10:07:06Z</time>
      </trkpt>
      <trkpt lat="43.51358" lon="6.6848">
        <ele>168.6</ele>
        <time>2025-10-26T10:07:07Z</time>
      </trkpt>
      <trkpt lat="43.51357" lon="6.68481">
        <ele>168.6</ele>
        <time>2025-10-26T10:07:08Z</time>
      </trkpt>
      <trkpt lat="43.51357" lon="6.68482">
        <ele>168.7</ele>
        <time>2025-10-26T10:07:09Z</time>
      </trkpt>
      <trkpt lat="43.51358" lon="6.68482">
        <ele>168.7</ele>
        <time>2025-10-26T10:07:10Z</time>
      </trkpt>
      <trkpt lat="43.51358" lon="6.68483">
        <ele>168.7</ele>
        <time>2025-10-26T10:07:11Z</time>
      </trkpt>
      <trkpt lat="43.51358" lon="6.68483">
        <ele>168.7</ele>
        <time>2025-10-26T10:07:12Z</time>
      </trkpt>
      <trkpt lat="43.51358" lon="6.68483">
        <ele>168.6</ele>
        <time>2025-10-26T10:07:13Z</time>
      </trkpt>
      <trkpt lat="43.51358" lon="6.68483">
        <ele>168.5</ele>
        <time>2025-10-26T10:07:14Z</time>
      </trkpt>
      <trkpt lat="43.51358" lon="6.68485">
        <ele>168.5</ele>
        <time>2025-10-26T10:07:15Z</time>
      </trkpt>
      <trkpt lat="43.51358" lon="6.68486">
        <ele>168.4</ele>
        <time>2025-10-26T10:07:16Z</time>
      </trkpt>
      <trkpt lat="43.51359" lon="6.68487">
        <ele>168.4</ele>
        <time>2025-10-26T10:07:17Z</time>
      </trkpt>
      <trkpt lat="43.51359" lon="6.68489">
        <ele>168.3</ele>
        <time>2025-10-26T10:07:18Z</time>
      </trkpt>
      <trkpt lat="43.5136" lon="6.6849">
        <ele>168.5</ele>
        <time>2025-10-26T10:07:19Z</time>
      </trkpt>
      <trkpt lat="43.5136" lon="6.68491">
        <ele>168.6</ele>
        <time>2025-10-26T10:07:20Z</time>
      </trkpt>
      <trkpt lat="43.51361" lon="6.68492">
        <ele>168.6</ele>
        <time>2025-10-26T10:07:21Z</time>
      </trkpt>
      <trkpt lat="43.51362" lon="6.68493">
        <ele>168.6</ele>
        <time>2025-10-26T10:07:22Z</time>
      </trkpt>
      <trkpt lat="43.51362" lon="6.68494">
        <ele>168.7</ele>
        <time>2025-10-26T10:07:23Z</time>
      </trkpt>
      <trkpt lat="43.51363" lon="6.68494">
        <ele>168.9</ele>
        <time>2025-10-26T10:07:24Z</time>
      </trkpt>
      <trkpt lat="43.51363" lon="6.68495">
        <ele>169.1</ele>
        <time>2025-10-26T10:07:25Z</time>
      </trkpt>
      <trkpt lat="43.51364" lon="6.68495">
        <ele>169.3</ele>
        <time>2025-10-26T10:07:26Z</time>
      </trkpt>
      <trkpt lat="43.51364" lon="6.68495">
        <ele>169.4</ele>
        <time>2025-10-26T10:07:27Z</time>
      </trkpt>
      <trkpt lat="43.51364" lon="6.68496">
        <ele>169.5</ele>
        <time>2025-10-26T10:07:28Z</time>
      </trkpt>
      <trkpt lat="43.51365" lon="6.68496">
        <ele>169.6</ele>
        <time>2025-10-26T10:07:29Z</time>
      </trkpt>
      <trkpt lat="43.51364" lon="6.68496">
        <ele>169.6</ele>
        <time>2025-10-26T10:07:30Z</time>
      </trkpt>
      <trkpt lat="43.51364" lon="6.68497">
        <ele>169.5</ele>
        <time>2025-10-26T10:07:31Z</time>
      </trkpt>
      <trkpt lat="43.51364" lon="6.68497">
        <ele>169.4</ele>
        <time>2025-10-26T10:07:32Z</time>
      </trkpt>
      <trkpt lat="43.51364" lon="6.68498">
        <ele>169.3</ele>
        <time>2025-10-26T10:07:33Z</time>
      </trkpt>
      <trkpt lat="43.51364" lon="6.68498">
        <ele>169.1</ele>
        <time>2025-10-26T10:07:34Z</time>
      </trkpt>
      <trkpt lat="43.51364" lon="6.68499">
        <ele>169</ele>
        <time>2025-10-26T10:07:35Z</time>
      </trkpt>
      <trkpt lat="43.51364" lon="6.68499">
        <ele>168.8</ele>
        <time>2025-10-26T10:07:36Z</time>
      </trkpt>
      <trkpt lat="43.51364" lon="6.685">
        <ele>168.8</ele>
        <time>2025-10-26T10:07:37Z</time>
      </trkpt>
      <trkpt lat="43.51365" lon="6.685">
        <ele>168.8</ele>
        <time>2025-10-26T10:07:38Z</time>
      </trkpt>
      <trkpt lat="43.51365" lon="6.68501">
        <ele>168.8</ele>
        <time>2025-10-26T10:07:39Z</time>
      </trkpt>
      <trkpt lat="43.51365" lon="6.68502">
        <ele>169</ele>
        <time>2025-10-26T10:07:40Z</time>
      </trkpt>
      <trkpt lat="43.51366" lon="6.68502">
        <ele>169.1</ele>
        <time>2025-10-26T10:07:41Z</time>
      </trkpt>
      <trkpt lat="43.51367" lon="6.68502">
        <ele>169.2</ele>
        <time>2025-10-26T10:07:42Z</time>
      </trkpt>
      <trkpt lat="43.51367" lon="6.68502">
        <ele>169.3</ele>
        <time>2025-10-26T10:07:43Z</time>
      </trkpt>
      <trkpt lat="43.51368" lon="6.68502">
        <ele>169.4</ele>
        <time>2025-10-26T10:07:44Z</time>
      </trkpt>
      <trkpt lat="43.51369" lon="6.68502">
        <ele>169.4</ele>
        <time>2025-10-26T10:07:45Z</time>
      </trkpt>
      <trkpt lat="43.5137" lon="6.68502">
        <ele>169.5</ele>
        <time>2025-10-26T10:07:46Z</time>
      </trkpt>
      <trkpt lat="43.51371" lon="6.68503">
        <ele>169.5</ele>
        <time>2025-10-26T10:07:47Z</time>
      </trkpt>
      <trkpt lat="43.51372" lon="6.68503">
        <ele>169.5</ele>
        <time>2025-10-26T10:07:48Z</time>
      </trkpt>
      <trkpt lat="43.51373" lon="6.68504">
        <ele>169.6</ele>
        <time>2025-10-26T10:07:49Z</time>
      </trkpt>
      <trkpt lat="43.51374" lon="6.68504">
        <ele>169.6</ele>
        <time>2025-10-26T10:07:50Z</time>
      </trkpt>
      <trkpt lat="43.51375" lon="6.68504">
        <ele>169.6</ele>
        <time>2025-10-26T10:07:51Z</time>
      </trkpt>
      <trkpt lat="43.51375" lon="6.68505">
        <ele>169.6</ele>
        <time>2025-10-26T10:07:52Z</time>
      </trkpt>
      <trkpt lat="43.51376" lon="6.68506">
        <ele>169.7</ele>
        <time>2025-10-26T10:07:53Z</time>
      </trkpt>
      <trkpt lat="43.51377" lon="6.68506">
        <ele>169.8</ele>
        <time>2025-10-26T10:07:54Z</time>
      </trkpt>
      <trkpt lat="43.51377" lon="6.68507">
        <ele>169.8</ele>
        <time>2025-10-26T10:07:55Z</time>
      </trkpt>
      <trkpt lat="43.51378" lon="6.68508">
        <ele>170</ele>
        <time>2025-10-26T10:07:56Z</time>
      </trkpt>
      <trkpt lat="43.51379" lon="6.68509">
        <ele>170</ele>
        <time>2025-10-26T10:07:57Z</time>
      </trkpt>
      <trkpt lat="43.5138" lon="6.68509">
        <ele>170.1</ele>
        <time>2025-10-26T10:07:58Z</time>
      </trkpt>
      <trkpt lat="43.51381" lon="6.6851">
        <ele>170.3</ele>
        <time>2025-10-26T10:07:59Z</time>
      </trkpt>
      <trkpt lat="43.51381" lon="6.68511">
        <ele>170.4</ele>
        <time>2025-10-26T10:08:00Z</time>
      </trkpt>
      <trkpt lat="43.51382" lon="6.68511">
        <ele>170.6</ele>
        <time>2025-10-26T10:08:01Z</time>
      </trkpt>
      <trkpt lat="43.51382" lon="6.68513">
        <ele>170.8</ele>
        <time>2025-10-26T10:08:02Z</time>
      </trkpt>
      <trkpt lat="43.51382" lon="6.68514">
        <ele>171</ele>
        <time>2025-10-26T10:08:03Z</time>
      </trkpt>
      <trkpt lat="43.51383" lon="6.68514">
        <ele>171.1</ele>
        <time>2025-10-26T10:08:04Z</time>
      </trkpt>
      <trkpt lat="43.51383" lon="6.68515">
        <ele>171.3</ele>
        <time>2025-10-26T10:08:05Z</time>
      </trkpt>
      <trkpt lat="43.51383" lon="6.68515">
        <ele>171.4</ele>
        <time>2025-10-26T10:08:06Z</time>
      </trkpt>
      <trkpt lat="43.51383" lon="6.68517">
        <ele>171.6</ele>
        <time>2025-10-26T10:08:07Z</time>
      </trkpt>
      <trkpt lat="43.51383" lon="6.68518">
        <ele>171.8</ele>
        <time>2025-10-26T10:08:08Z</time>
      </trkpt>
      <trkpt lat="43.51383" lon="6.68519">
        <ele>171.9</ele>
        <time>2025-10-26T10:08:09Z</time>
      </trkpt>
      <trkpt lat="43.51384" lon="6.68521">
        <ele>172.1</ele>
        <time>2025-10-26T10:08:10Z</time>
      </trkpt>
      <trkpt lat="43.51384" lon="6.68522">
        <ele>172.3</ele>
        <time>2025-10-26T10:08:11Z</time>
      </trkpt>
      <trkpt lat="43.51385" lon="6.68523">
        <ele>172.5</ele>
        <time>2025-10-26T10:08:12Z</time>
      </trkpt>
      <trkpt lat="43.51385" lon="6.68524">
        <ele>172.7</ele>
        <time>2025-10-26T10:08:13Z</time>
      </trkpt>
      <trkpt lat="43.51386" lon="6.68525">
        <ele>172.8</ele>
        <time>2025-10-26T10:08:14Z</time>
      </trkpt>
      <trkpt lat="43.51387" lon="6.68525">
        <ele>173</ele>
        <time>2025-10-26T10:08:15Z</time>
      </trkpt>
      <trkpt lat="43.51388" lon="6.68527">
        <ele>173.1</ele>
        <time>2025-10-26T10:08:16Z</time>
      </trkpt>
      <trkpt lat="43.51388" lon="6.68527">
        <ele>173.2</ele>
        <time>2025-10-26T10:08:17Z</time>
      </trkpt>
      <trkpt lat="43.51387" lon="6.68527">
        <ele>173.3</ele>
        <time>2025-10-26T10:08:18Z</time>
      </trkpt>
      <trkpt lat="43.51387" lon="6.68527">
        <ele>173.4</ele>
        <time>2025-10-26T10:08:19Z</time>
      </trkpt>
      <trkpt lat="43.51386" lon="6.68528">
        <ele>173.4</ele>
        <time>2025-10-26T10:08:20Z</time>
      </trkpt>
      <trkpt lat="43.51386" lon="6.68528">
        <ele>173.5</ele>
        <time>2025-10-26T10:08:21Z</time>
      </trkpt>
      <trkpt lat="43.51386" lon="6.68528">
        <ele>173.5</ele>
        <time>2025-10-26T10:08:22Z</time>
      </trkpt>
      <trkpt lat="43.51386" lon="6.68529">
        <ele>173.6</ele>
        <time>2025-10-26T10:08:23Z</time>
      </trkpt>
      <trkpt lat="43.51386" lon="6.68529">
        <ele>173.6</ele>
        <time>2025-10-26T10:08:24Z</time>
      </trkpt>
      <trkpt lat="43.51386" lon="6.68529">
        <ele>173.6</ele>
        <time>2025-10-26T10:08:25Z</time>
      </trkpt>
      <trkpt lat="43.51386" lon="6.6853">
        <ele>173.6</ele>
        <time>2025-10-26T10:08:26Z</time>
      </trkpt>
      <trkpt lat="43.51386" lon="6.6853">
        <ele>173.6</ele>
        <time>2025-10-26T10:08:27Z</time>
      </trkpt>
      <trkpt lat="43.51387" lon="6.68531">
        <ele>173.6</ele>
        <time>2025-10-26T10:08:28Z</time>
      </trkpt>
      <trkpt lat="43.51387" lon="6.68531">
        <ele>173.6</ele>
        <time>2025-10-26T10:08:29Z</time>
      </trkpt>
      <trkpt lat="43.51387" lon="6.68531">
        <ele>173.7</ele>
        <time>2025-10-26T10:08:30Z</time>
      </trkpt>
      <trkpt lat="43.51387" lon="6.68532">
        <ele>173.7</ele>
        <time>2025-10-26T10:08:31Z</time>
      </trkpt>
      <trkpt lat="43.51388" lon="6.68533">
        <ele>173.8</ele>
        <time>2025-10-26T10:08:32Z</time>
      </trkpt>
      <trkpt lat="43.51388" lon="6.68533">
        <ele>173.7</ele>
        <time>2025-10-26T10:08:33Z</time>
      </trkpt>
      <trkpt lat="43.51388" lon="6.68534">
        <ele>173.7</ele>
        <time>2025-10-26T10:08:34Z</time>
      </trkpt>
      <trkpt lat="43.51389" lon="6.68533">
        <ele>173.7</ele>
        <time>2025-10-26T10:08:35Z</time>
      </trkpt>
      <trkpt lat="43.51389" lon="6.68533">
        <ele>173.8</ele>
        <time>2025-10-26T10:08:36Z</time>
      </trkpt>
      <trkpt lat="43.51389" lon="6.68533">
        <ele>173.8</ele>
        <time>2025-10-26T10:08:37Z</time>
      </trkpt>
      <trkpt lat="43.51389" lon="6.68534">
        <ele>173.9</ele>
        <time>2025-10-26T10:08:38Z</time>
      </trkpt>
      <trkpt lat="43.51389" lon="6.68535">
        <ele>174</ele>
        <time>2025-10-26T10:08:39Z</time>
      </trkpt>
      <trkpt lat="43.51389" lon="6.68536">
        <ele>174.2</ele>
        <time>2025-10-26T10:08:40Z</time>
      </trkpt>
      <trkpt lat="43.51389" lon="6.68537">
        <ele>174.3</ele>
        <time>2025-10-26T10:08:41Z</time>
      </trkpt>
      <trkpt lat="43.51389" lon="6.68538">
        <ele>174.5</ele>
        <time>2025-10-26T10:08:42Z</time>
      </trkpt>
      <trkpt lat="43.51389" lon="6.68539">
        <ele>174.6</ele>
        <time>2025-10-26T10:08:43Z</time>
      </trkpt>
      <trkpt lat="43.51389" lon="6.6854">
        <ele>174.8</ele>
        <time>2025-10-26T10:08:44Z</time>
      </trkpt>
      <trkpt lat="43.51389" lon="6.6854">
        <ele>174.9</ele>
        <time>2025-10-26T10:08:45Z</time>
      </trkpt>
      <trkpt lat="43.51389" lon="6.68541">
        <ele>175.1</ele>
        <time>2025-10-26T10:08:46Z</time>
      </trkpt>
      <trkpt lat="43.5139" lon="6.68542">
        <ele>175.3</ele>
        <time>2025-10-26T10:08:47Z</time>
      </trkpt>
      <trkpt lat="43.51389" lon="6.68543">
        <ele>175.5</ele>
        <time>2025-10-26T10:08:48Z</time>
      </trkpt>
      <trkpt lat="43.51389" lon="6.68544">
        <ele>175.6</ele>
        <time>2025-10-26T10:08:49Z</time>
      </trkpt>
      <trkpt lat="43.51389" lon="6.68545">
        <ele>175.9</ele>
        <time>2025-10-26T10:08:50Z</time>
      </trkpt>
      <trkpt lat="43.51389" lon="6.68546">
        <ele>176</ele>
        <time>2025-10-26T10:08:51Z</time>
      </trkpt>
      <trkpt lat="43.5139" lon="6.68547">
        <ele>176.2</ele>
        <time>2025-10-26T10:08:52Z</time>
      </trkpt>
      <trkpt lat="43.5139" lon="6.68549">
        <ele>176.4</ele>
        <time>2025-10-26T10:08:53Z</time>
      </trkpt>
      <trkpt lat="43.5139" lon="6.6855">
        <ele>176.7</ele>
        <time>2025-10-26T10:08:54Z</time>
      </trkpt>
      <trkpt lat="43.51391" lon="6.6855">
        <ele>177.1</ele>
        <time>2025-10-26T10:08:55Z</time>
      </trkpt>
      <trkpt lat="43.51391" lon="6.68551">
        <ele>177.3</ele>
        <time>2025-10-26T10:08:56Z</time>
      </trkpt>
      <trkpt lat="43.51391" lon="6.68552">
        <ele>177.4</ele>
        <time>2025-10-26T10:08:57Z</time>
      </trkpt>
      <trkpt lat="43.51391" lon="6.68553">
        <ele>177.5</ele>
        <time>2025-10-26T10:08:58Z</time>
      </trkpt>
      <trkpt lat="43.51391" lon="6.68555">
        <ele>177.8</ele>
        <time>2025-10-26T10:08:59Z</time>
      </trkpt>
      <trkpt lat="43.51391" lon="6.68556">
        <ele>178.1</ele>
        <time>2025-10-26T10:09:00Z</time>
      </trkpt>
      <trkpt lat="43.51392" lon="6.68557">
        <ele>178.3</ele>
        <time>2025-10-26T10:09:01Z</time>
      </trkpt>
      <trkpt lat="43.51392" lon="6.68558">
        <ele>178.4</ele>
        <time>2025-10-26T10:09:02Z</time>
      </trkpt>
      <trkpt lat="43.51392" lon="6.68559">
        <ele>178.6</ele>
        <time>2025-10-26T10:09:03Z</time>
      </trkpt>
      <trkpt lat="43.51392" lon="6.6856">
        <ele>178.8</ele>
        <time>2025-10-26T10:09:04Z</time>
      </trkpt>
      <trkpt lat="43.51391" lon="6.68561">
        <ele>179</ele>
        <time>2025-10-26T10:09:05Z</time>
      </trkpt>
      <trkpt lat="43.5139" lon="6.68561">
        <ele>179.2</ele>
        <time>2025-10-26T10:09:06Z</time>
      </trkpt>
      <trkpt lat="43.5139" lon="6.68562">
        <ele>179.5</ele>
        <time>2025-10-26T10:09:07Z</time>
      </trkpt>
      <trkpt lat="43.51389" lon="6.68563">
        <ele>179.7</ele>
        <time>2025-10-26T10:09:08Z</time>
      </trkpt>
      <trkpt lat="43.51388" lon="6.68564">
        <ele>180</ele>
        <time>2025-10-26T10:09:09Z</time>
      </trkpt>
      <trkpt lat="43.51388" lon="6.68564">
        <ele>180.3</ele>
        <time>2025-10-26T10:09:10Z</time>
      </trkpt>
      <trkpt lat="43.51388" lon="6.68565">
        <ele>180.5</ele>
        <time>2025-10-26T10:09:11Z</time>
      </trkpt>
      <trkpt lat="43.51388" lon="6.68567">
        <ele>180.7</ele>
        <time>2025-10-26T10:09:12Z</time>
      </trkpt>
      <trkpt lat="43.51388" lon="6.68568">
        <ele>180.8</ele>
        <time>2025-10-26T10:09:13Z</time>
      </trkpt>
      <trkpt lat="43.51388" lon="6.68569">
        <ele>181</ele>
        <time>2025-10-26T10:09:14Z</time>
      </trkpt>
      <trkpt lat="43.51389" lon="6.6857">
        <ele>181.2</ele>
        <time>2025-10-26T10:09:15Z</time>
      </trkpt>
      <trkpt lat="43.51389" lon="6.6857">
        <ele>181.3</ele>
        <time>2025-10-26T10:09:16Z</time>
      </trkpt>
      <trkpt lat="43.51389" lon="6.6857">
        <ele>181.4</ele>
        <time>2025-10-26T10:09:17Z</time>
      </trkpt>
      <trkpt lat="43.51389" lon="6.68571">
        <ele>181.5</ele>
        <time>2025-10-26T10:09:18Z</time>
      </trkpt>
      <trkpt lat="43.51389" lon="6.68571">
        <ele>181.6</ele>
        <time>2025-10-26T10:09:19Z</time>
      </trkpt>
      <trkpt lat="43.5139" lon="6.68571">
        <ele>181.6</ele>
        <time>2025-10-26T10:09:20Z</time>
      </trkpt>
      <trkpt lat="43.51391" lon="6.68572">
        <ele>181.7</ele>
        <time>2025-10-26T10:09:21Z</time>
      </trkpt>
      <trkpt lat="43.51392" lon="6.68573">
        <ele>181.7</ele>
        <time>2025-10-26T10:09:22Z</time>
      </trkpt>
      <trkpt lat="43.51392" lon="6.68573">
        <ele>181.8</ele>
        <time>2025-10-26T10:09:23Z</time>
      </trkpt>
      <trkpt lat="43.51393" lon="6.68574">
        <ele>181.8</ele>
        <time>2025-10-26T10:09:24Z</time>
      </trkpt>
      <trkpt lat="43.51393" lon="6.68575">
        <ele>181.8</ele>
        <time>2025-10-26T10:09:25Z</time>
      </trkpt>
      <trkpt lat="43.51394" lon="6.68575">
        <ele>182</ele>
        <time>2025-10-26T10:09:26Z</time>
      </trkpt>
      <trkpt lat="43.51394" lon="6.68575">
        <ele>182.1</ele>
        <time>2025-10-26T10:09:27Z</time>
      </trkpt>
      <trkpt lat="43.51394" lon="6.68575">
        <ele>182.2</ele>
        <time>2025-10-26T10:09:28Z</time>
      </trkpt>
      <trkpt lat="43.51394" lon="6.68576">
        <ele>182.2</ele>
        <time>2025-10-26T10:09:29Z</time>
      </trkpt>
      <trkpt lat="43.51394" lon="6.68576">
        <ele>182.3</ele>
        <time>2025-10-26T10:09:30Z</time>
      </trkpt>
      <trkpt lat="43.51394" lon="6.68576">
        <ele>182.3</ele>
        <time>2025-10-26T10:09:31Z</time>
      </trkpt>
      <trkpt lat="43.51394" lon="6.68576">
        <ele>182.3</ele>
        <time>2025-10-26T10:09:32Z</time>
      </trkpt>
      <trkpt lat="43.51395" lon="6.68576">
        <ele>182.3</ele>
        <time>2025-10-26T10:09:33Z</time>
      </trkpt>
      <trkpt lat="43.51395" lon="6.68576">
        <ele>182.4</ele>
        <time>2025-10-26T10:09:34Z</time>
      </trkpt>
      <trkpt lat="43.51395" lon="6.68576">
        <ele>182.4</ele>
        <time>2025-10-26T10:09:35Z</time>
      </trkpt>
      <trkpt lat="43.51395" lon="6.68576">
        <ele>182.5</ele>
        <time>2025-10-26T10:09:36Z</time>
      </trkpt>
      <trkpt lat="43.51395" lon="6.68576">
        <ele>182.6</ele>
        <time>2025-10-26T10:09:37Z</time>
      </trkpt>
      <trkpt lat="43.51395" lon="6.68576">
        <ele>182.7</ele>
        <time>2025-10-26T10:09:38Z</time>
      </trkpt>
      <trkpt lat="43.51395" lon="6.68576">
        <ele>182.7</ele>
        <time>2025-10-26T10:09:39Z</time>
      </trkpt>
      <trkpt lat="43.51395" lon="6.68576">
        <ele>182.7</ele>
        <time>2025-10-26T10:09:40Z</time>
      </trkpt>
      <trkpt lat="43.51395" lon="6.68576">
        <ele>182.6</ele>
        <time>2025-10-26T10:09:41Z</time>
      </trkpt>
      <trkpt lat="43.51396" lon="6.68576">
        <ele>182.6</ele>
        <time>2025-10-26T10:09:42Z</time>
      </trkpt>
      <trkpt lat="43.51396" lon="6.68576">
        <ele>182.5</ele>
        <time>2025-10-26T10:09:43Z</time>
      </trkpt>
      <trkpt lat="43.51396" lon="6.68576">
        <ele>182.5</ele>
        <time>2025-10-26T10:09:44Z</time>
      </trkpt>
      <trkpt lat="43.51396" lon="6.68576">
        <ele>182.5</ele>
        <time>2025-10-26T10:09:45Z</time>
      </trkpt>
      <trkpt lat="43.51396" lon="6.68576">
        <ele>182.5</ele>
        <time>2025-10-26T10:09:46Z</time>
      </trkpt>
      <trkpt lat="43.51396" lon="6.68576">
        <ele>182.5</ele>
        <time>2025-10-26T10:09:47Z</time>
      </trkpt>
      <trkpt lat="43.51396" lon="6.68576">
        <ele>182.4</ele>
        <time>2025-10-26T10:09:48Z</time>
      </trkpt>
      <trkpt lat="43.51396" lon="6.68576">
        <ele>182.4</ele>
        <time>2025-10-26T10:09:49Z</time>
      </trkpt>
      <trkpt lat="43.51396" lon="6.68576">
        <ele>182.4</ele>
        <time>2025-10-26T10:09:50Z</time>
      </trkpt>
      <trkpt lat="43.51396" lon="6.68576">
        <ele>182.3</ele>
        <time>2025-10-26T10:09:51Z</time>
      </trkpt>
      <trkpt lat="43.51396" lon="6.68576">
        <ele>182.2</ele>
        <time>2025-10-26T10:09:52Z</time>
      </trkpt>
      <trkpt lat="43.51396" lon="6.68576">
        <ele>182.3</ele>
        <time>2025-10-26T10:09:53Z</time>
      </trkpt>
      <trkpt lat="43.51396" lon="6.68576">
        <ele>182.2</ele>
        <time>2025-10-26T10:09:54Z</time>
      </trkpt>
      <trkpt lat="43.51396" lon="6.68576">
        <ele>182.1</ele>
        <time>2025-10-26T10:09:55Z</time>
      </trkpt>
      <trkpt lat="43.51396" lon="6.68576">
        <ele>182.1</ele>
        <time>2025-10-26T10:09:56Z</time>
      </trkpt>
      <trkpt lat="43.51396" lon="6.68576">
        <ele>182</ele>
        <time>2025-10-26T10:09:57Z</time>
      </trkpt>
      <trkpt lat="43.51396" lon="6.68576">
        <ele>182</ele>
        <time>2025-10-26T10:09:58Z</time>
      </trkpt>
      <trkpt lat="43.51396" lon="6.68575">
        <ele>182.1</ele>
        <time>2025-10-26T10:09:59Z</time>
      </trkpt>
      <trkpt lat="43.51396" lon="6.68576">
        <ele>182.1</ele>
        <time>2025-10-26T10:10:00Z</time>
      </trkpt>
      <trkpt lat="43.51396" lon="6.68576">
        <ele>182.1</ele>
        <time>2025-10-26T10:10:01Z</time>
      </trkpt>
      <trkpt lat="43.51396" lon="6.68575">
        <ele>182.2</ele>
        <time>2025-10-26T10:10:02Z</time>
      </trkpt>
      <trkpt lat="43.51396" lon="6.68575">
        <ele>182.2</ele>
        <time>2025-10-26T10:10:03Z</time>
      </trkpt>
      <trkpt lat="43.51396" lon="6.68575">
        <ele>182.2</ele>
        <time>2025-10-26T10:10:04Z</time>
      </trkpt>
      <trkpt lat="43.51396" lon="6.68575">
        <ele>182.2</ele>
        <time>2025-10-26T10:10:05Z</time>
      </trkpt>
      <trkpt lat="43.51396" lon="6.68575">
        <ele>182.3</ele>
        <time>2025-10-26T10:10:06Z</time>
      </trkpt>
      <trkpt lat="43.51396" lon="6.68575">
        <ele>182.3</ele>
        <time>2025-10-26T10:10:07Z</time>
      </trkpt>
      <trkpt lat="43.51395" lon="6.68575">
        <ele>182.4</ele>
        <time>2025-10-26T10:10:08Z</time>
      </trkpt>
      <trkpt lat="43.51395" lon="6.68575">
        <ele>182.4</ele>
        <time>2025-10-26T10:10:09Z</time>
      </trkpt>
      <trkpt lat="43.51395" lon="6.68575">
        <ele>182.5</ele>
        <time>2025-10-26T10:10:10Z</time>
      </trkpt>
      <trkpt lat="43.51395" lon="6.68576">
        <ele>182.6</ele>
        <time>2025-10-26T10:10:11Z</time>
      </trkpt>
      <trkpt lat="43.51395" lon="6.68576">
        <ele>182.6</ele>
        <time>2025-10-26T10:10:12Z</time>
      </trkpt>
      <trkpt lat="43.51395" lon="6.68576">
        <ele>182.6</ele>
        <time>2025-10-26T10:10:13Z</time>
      </trkpt>
      <trkpt lat="43.51395" lon="6.68576">
        <ele>182.6</ele>
        <time>2025-10-26T10:10:14Z</time>
      </trkpt>
      <trkpt lat="43.51395" lon="6.68576">
        <ele>182.6</ele>
        <time>2025-10-26T10:10:15Z</time>
      </trkpt>
      <trkpt lat="43.51395" lon="6.68576">
        <ele>182.6</ele>
        <time>2025-10-26T10:10:16Z</time>
      </trkpt>
      <trkpt lat="43.51395" lon="6.68576">
        <ele>182.5</ele>
        <time>2025-10-26T10:10:17Z</time>
      </trkpt>
      <trkpt lat="43.51395" lon="6.68575">
        <ele>182.4</ele>
        <time>2025-10-26T10:10:18Z</time>
      </trkpt>
      <trkpt lat="43.51395" lon="6.68575">
        <ele>182.4</ele>
        <time>2025-10-26T10:10:19Z</time>
      </trkpt>
      <trkpt lat="43.51395" lon="6.68576">
        <ele>182.3</ele>
        <time>2025-10-26T10:10:20Z</time>
      </trkpt>
      <trkpt lat="43.51395" lon="6.68576">
        <ele>182.2</ele>
        <time>2025-10-26T10:10:21Z</time>
      </trkpt>
      <trkpt lat="43.51395" lon="6.68575">
        <ele>182.3</ele>
        <time>2025-10-26T10:10:22Z</time>
      </trkpt>
      <trkpt lat="43.51395" lon="6.68575">
        <ele>182.2</ele>
        <time>2025-10-26T10:10:23Z</time>
      </trkpt>
      <trkpt lat="43.51395" lon="6.68575">
        <ele>182.2</ele>
        <time>2025-10-26T10:10:24Z</time>
      </trkpt>
      <trkpt lat="43.51395" lon="6.68575">
        <ele>182.2</ele>
        <time>2025-10-26T10:10:25Z</time>
      </trkpt>
      <trkpt lat="43.51395" lon="6.68575">
        <ele>182.2</ele>
        <time>2025-10-26T10:10:26Z</time>
      </trkpt>
      <trkpt lat="43.51395" lon="6.68576">
        <ele>182.1</ele>
        <time>2025-10-26T10:10:27Z</time>
      </trkpt>
      <trkpt lat="43.51395" lon="6.68576">
        <ele>182</ele>
        <time>2025-10-26T10:10:28Z</time>
      </trkpt>
      <trkpt lat="43.51395" lon="6.68576">
        <ele>182</ele>
        <time>2025-10-26T10:10:29Z</time>
      </trkpt>
      <trkpt lat="43.51396" lon="6.68576">
        <ele>182</ele>
        <time>2025-10-26T10:10:30Z</time>
      </trkpt>
      <trkpt lat="43.51396" lon="6.68576">
        <ele>182</ele>
        <time>2025-10-26T10:10:31Z</time>
      </trkpt>
      <trkpt lat="43.51396" lon="6.68576">
        <ele>182</ele>
        <time>2025-10-26T10:10:32Z</time>
      </trkpt>
      <trkpt lat="43.51396" lon="6.68576">
        <ele>181.9</ele>
        <time>2025-10-26T10:10:33Z</time>
      </trkpt>
      <trkpt lat="43.51396" lon="6.68576">
        <ele>182</ele>
        <time>2025-10-26T10:10:34Z</time>
      </trkpt>
      <trkpt lat="43.51396" lon="6.68576">
        <ele>181.9</ele>
        <time>2025-10-26T10:10:35Z</time>
      </trkpt>
      <trkpt lat="43.51396" lon="6.68576">
        <ele>181.9</ele>
        <time>2025-10-26T10:10:36Z</time>
      </trkpt>
      <trkpt lat="43.51396" lon="6.68576">
        <ele>181.9</ele>
        <time>2025-10-26T10:10:37Z</time>
      </trkpt>
      <trkpt lat="43.51396" lon="6.68576">
        <ele>181.9</ele>
        <time>2025-10-26T10:10:38Z</time>
      </trkpt>
      <trkpt lat="43.51397" lon="6.68576">
        <ele>181.9</ele>
        <time>2025-10-26T10:10:39Z</time>
      </trkpt>
      <trkpt lat="43.51397" lon="6.68577">
        <ele>181.9</ele>
        <time>2025-10-26T10:10:40Z</time>
      </trkpt>
      <trkpt lat="43.51397" lon="6.68578">
        <ele>181.9</ele>
        <time>2025-10-26T10:10:41Z</time>
      </trkpt>
      <trkpt lat="43.51398" lon="6.68578">
        <ele>181.9</ele>
        <time>2025-10-26T10:10:42Z</time>
      </trkpt>
      <trkpt lat="43.51398" lon="6.68579">
        <ele>182</ele>
        <time>2025-10-26T10:10:43Z</time>
      </trkpt>
      <trkpt lat="43.51398" lon="6.68579">
        <ele>182</ele>
        <time>2025-10-26T10:10:44Z</time>
      </trkpt>
      <trkpt lat="43.51398" lon="6.68579">
        <ele>182</ele>
        <time>2025-10-26T10:10:45Z</time>
      </trkpt>
      <trkpt lat="43.51398" lon="6.68579">
        <ele>182</ele>
        <time>2025-10-26T10:10:46Z</time>
      </trkpt>
      <trkpt lat="43.51398" lon="6.68579">
        <ele>182</ele>
        <time>2025-10-26T10:10:47Z</time>
      </trkpt>
      <trkpt lat="43.51398" lon="6.68579">
        <ele>182</ele>
        <time>2025-10-26T10:10:48Z</time>
      </trkpt>
      <trkpt lat="43.51398" lon="6.68579">
        <ele>182</ele>
        <time>2025-10-26T10:10:49Z</time>
      </trkpt>
      <trkpt lat="43.51398" lon="6.68579">
        <ele>182</ele>
        <time>2025-10-26T10:10:50Z</time>
      </trkpt>
      <trkpt lat="43.51398" lon="6.68579">
        <ele>182</ele>
        <time>2025-10-26T10:10:51Z</time>
      </trkpt>
      <trkpt lat="43.51398" lon="6.68579">
        <ele>182.1</ele>
        <time>2025-10-26T10:10:52Z</time>
      </trkpt>
      <trkpt lat="43.51398" lon="6.68579">
        <ele>182.1</ele>
        <time>2025-10-26T10:10:53Z</time>
      </trkpt>
      <trkpt lat="43.51398" lon="6.68579">
        <ele>182.2</ele>
        <time>2025-10-26T10:10:54Z</time>
      </trkpt>
      <trkpt lat="43.51398" lon="6.68579">
        <ele>182.1</ele>
        <time>2025-10-26T10:10:55Z</time>
      </trkpt>
      <trkpt lat="43.51398" lon="6.68579">
        <ele>182.1</ele>
        <time>2025-10-26T10:10:56Z</time>
      </trkpt>
      <trkpt lat="43.51398" lon="6.68578">
        <ele>182</ele>
        <time>2025-10-26T10:10:57Z</time>
      </trkpt>
      <trkpt lat="43.51398" lon="6.68578">
        <ele>182</ele>
        <time>2025-10-26T10:10:58Z</time>
      </trkpt>
      <trkpt lat="43.51398" lon="6.68578">
        <ele>181.9</ele>
        <time>2025-10-26T10:10:59Z</time>
      </trkpt>
      <trkpt lat="43.51398" lon="6.68579">
        <ele>182</ele>
        <time>2025-10-26T10:11:00Z</time>
      </trkpt>
      <trkpt lat="43.51398" lon="6.68579">
        <ele>182.1</ele>
        <time>2025-10-26T10:11:01Z</time>
      </trkpt>
      <trkpt lat="43.51398" lon="6.68579">
        <ele>182.1</ele>
        <time>2025-10-26T10:11:02Z</time>
      </trkpt>
      <trkpt lat="43.51398" lon="6.68579">
        <ele>182</ele>
        <time>2025-10-26T10:11:03Z</time>
      </trkpt>
      <trkpt lat="43.51398" lon="6.68579">
        <ele>182.1</ele>
        <time>2025-10-26T10:11:04Z</time>
      </trkpt>
      <trkpt lat="43.51398" lon="6.68579">
        <ele>182.1</ele>
        <time>2025-10-26T10:11:05Z</time>
      </trkpt>
      <trkpt lat="43.51398" lon="6.68579">
        <ele>182.1</ele>
        <time>2025-10-26T10:11:06Z</time>
      </trkpt>
      <trkpt lat="43.51398" lon="6.68579">
        <ele>182</ele>
        <time>2025-10-26T10:11:07Z</time>
      </trkpt>
      <trkpt lat="43.51398" lon="6.68579">
        <ele>182</ele>
        <time>2025-10-26T10:11:08Z</time>
      </trkpt>
      <trkpt lat="43.51398" lon="6.68579">
        <ele>182</ele>
        <time>2025-10-26T10:11:09Z</time>
      </trkpt>
      <trkpt lat="43.51398" lon="6.68579">
        <ele>182</ele>
        <time>2025-10-26T10:11:10Z</time>
      </trkpt>
      <trkpt lat="43.51398" lon="6.68579">
        <ele>182</ele>
        <time>2025-10-26T10:11:11Z</time>
      </trkpt>
      <trkpt lat="43.51399" lon="6.68579">
        <ele>182</ele>
        <time>2025-10-26T10:11:12Z</time>
      </trkpt>
      <trkpt lat="43.51399" lon="6.68579">
        <ele>181.9</ele>
        <time>2025-10-26T10:11:13Z</time>
      </trkpt>
      <trkpt lat="43.51399" lon="6.68579">
        <ele>181.9</ele>
        <time>2025-10-26T10:11:14Z</time>
      </trkpt>
      <trkpt lat="43.51399" lon="6.68579">
        <ele>181.9</ele>
        <time>2025-10-26T10:11:15Z</time>
      </trkpt>
      <trkpt lat="43.51399" lon="6.68579">
        <ele>182</ele>
        <time>2025-10-26T10:11:16Z</time>
      </trkpt>
      <trkpt lat="43.51399" lon="6.68579">
        <ele>182.1</ele>
        <time>2025-10-26T10:11:17Z</time>
      </trkpt>
      <trkpt lat="43.51399" lon="6.68579">
        <ele>182</ele>
        <time>2025-10-26T10:11:18Z</time>
      </trkpt>
      <trkpt lat="43.51398" lon="6.68579">
        <ele>182</ele>
        <time>2025-10-26T10:11:19Z</time>
      </trkpt>
      <trkpt lat="43.51398" lon="6.68579">
        <ele>182.1</ele>
        <time>2025-10-26T10:11:20Z</time>
      </trkpt>
      <trkpt lat="43.51398" lon="6.68579">
        <ele>182.2</ele>
        <time>2025-10-26T10:11:21Z</time>
      </trkpt>
      <trkpt lat="43.51399" lon="6.68579">
        <ele>182.1</ele>
        <time>2025-10-26T10:11:22Z</time>
      </trkpt>
      <trkpt lat="43.51399" lon="6.68579">
        <ele>182</ele>
        <time>2025-10-26T10:11:23Z</time>
      </trkpt>
      <trkpt lat="43.51399" lon="6.68579">
        <ele>182</ele>
        <time>2025-10-26T10:11:24Z</time>
      </trkpt>
      <trkpt lat="43.51399" lon="6.68579">
        <ele>182</ele>
        <time>2025-10-26T10:11:25Z</time>
      </trkpt>
      <trkpt lat="43.51399" lon="6.68579">
        <ele>181.9</ele>
        <time>2025-10-26T10:11:26Z</time>
      </trkpt>
      <trkpt lat="43.51398" lon="6.68579">
        <ele>181.9</ele>
        <time>2025-10-26T10:11:27Z</time>
      </trkpt>
      <trkpt lat="43.51398" lon="6.68578">
        <ele>181.9</ele>
        <time>2025-10-26T10:11:28Z</time>
      </trkpt>
      <trkpt lat="43.51398" lon="6.68578">
        <ele>181.9</ele>
        <time>2025-10-26T10:11:29Z</time>
      </trkpt>
      <trkpt lat="43.51398" lon="6.68578">
        <ele>181.9</ele>
        <time>2025-10-26T10:11:30Z</time>
      </trkpt>
      <trkpt lat="43.51398" lon="6.68578">
        <ele>181.9</ele>
        <time>2025-10-26T10:11:31Z</time>
      </trkpt>
      <trkpt lat="43.51398" lon="6.68578">
        <ele>182</ele>
        <time>2025-10-26T10:11:32Z</time>
      </trkpt>
      <trkpt lat="43.51398" lon="6.68578">
        <ele>182</ele>
        <time>2025-10-26T10:11:33Z</time>
      </trkpt>
      <trkpt lat="43.51398" lon="6.68578">
        <ele>182</ele>
        <time>2025-10-26T10:11:34Z</time>
      </trkpt>
      <trkpt lat="43.51398" lon="6.68578">
        <ele>182</ele>
        <time>2025-10-26T10:11:35Z</time>
      </trkpt>
      <trkpt lat="43.51398" lon="6.68578">
        <ele>181.9</ele>
        <time>2025-10-26T10:11:36Z</time>
      </trkpt>
      <trkpt lat="43.51398" lon="6.68578">
        <ele>181.9</ele>
        <time>2025-10-26T10:11:37Z</time>
      </trkpt>
      <trkpt lat="43.51398" lon="6.68578">
        <ele>181.9</ele>
        <time>2025-10-26T10:11:38Z</time>
      </trkpt>
      <trkpt lat="43.51398" lon="6.68579">
        <ele>181.9</ele>
        <time>2025-10-26T10:11:39Z</time>
      </trkpt>
      <trkpt lat="43.51398" lon="6.68578">
        <ele>181.9</ele>
        <time>2025-10-26T10:11:40Z</time>
      </trkpt>
      <trkpt lat="43.51398" lon="6.68579">
        <ele>181.9</ele>
        <time>2025-10-26T10:11:41Z</time>
      </trkpt>
      <trkpt lat="43.51398" lon="6.68579">
        <ele>181.9</ele>
        <time>2025-10-26T10:11:42Z</time>
      </trkpt>
      <trkpt lat="43.51398" lon="6.68579">
        <ele>181.9</ele>
        <time>2025-10-26T10:11:43Z</time>
      </trkpt>
      <trkpt lat="43.51398" lon="6.68579">
        <ele>181.9</ele>
        <time>2025-10-26T10:11:44Z</time>
      </trkpt>
      <trkpt lat="43.51398" lon="6.68579">
        <ele>181.9</ele>
        <time>2025-10-26T10:11:45Z</time>
      </trkpt>
      <trkpt lat="43.51398" lon="6.68579">
        <ele>181.9</ele>
        <time>2025-10-26T10:11:46Z</time>
      </trkpt>
      <trkpt lat="43.51398" lon="6.68579">
        <ele>182</ele>
        <time>2025-10-26T10:11:47Z</time>
      </trkpt>
      <trkpt lat="43.51398" lon="6.68579">
        <ele>182</ele>
        <time>2025-10-26T10:11:48Z</time>
      </trkpt>
      <trkpt lat="43.51398" lon="6.6858">
        <ele>182</ele>
        <time>2025-10-26T10:11:49Z</time>
      </trkpt>
      <trkpt lat="43.51398" lon="6.6858">
        <ele>182</ele>
        <time>2025-10-26T10:11:50Z</time>
      </trkpt>
      <trkpt lat="43.51398" lon="6.6858">
        <ele>182</ele>
        <time>2025-10-26T10:11:51Z</time>
      </trkpt>
      <trkpt lat="43.51398" lon="6.6858">
        <ele>182</ele>
        <time>2025-10-26T10:11:52Z</time>
      </trkpt>
      <trkpt lat="43.51398" lon="6.6858">
        <ele>182</ele>
        <time>2025-10-26T10:11:53Z</time>
      </trkpt>
      <trkpt lat="43.51398" lon="6.6858">
        <ele>181.9</ele>
        <time>2025-10-26T10:11:54Z</time>
      </trkpt>
      <trkpt lat="43.51398" lon="6.6858">
        <ele>181.9</ele>
        <time>2025-10-26T10:11:55Z</time>
      </trkpt>
      <trkpt lat="43.51398" lon="6.6858">
        <ele>181.9</ele>
        <time>2025-10-26T10:11:56Z</time>
      </trkpt>
      <trkpt lat="43.51398" lon="6.6858">
        <ele>182</ele>
        <time>2025-10-26T10:11:57Z</time>
      </trkpt>
      <trkpt lat="43.51398" lon="6.6858">
        <ele>182</ele>
        <time>2025-10-26T10:11:58Z</time>
      </trkpt>
      <trkpt lat="43.51398" lon="6.6858">
        <ele>182</ele>
        <time>2025-10-26T10:11:59Z</time>
      </trkpt>
      <trkpt lat="43.51398" lon="6.6858">
        <ele>182.1</ele>
        <time>2025-10-26T10:12:00Z</time>
      </trkpt>
      <trkpt lat="43.51399" lon="6.6858">
        <ele>182</ele>
        <time>2025-10-26T10:12:01Z</time>
      </trkpt>
      <trkpt lat="43.51399" lon="6.6858">
        <ele>182</ele>
        <time>2025-10-26T10:12:02Z</time>
      </trkpt>
      <trkpt lat="43.51399" lon="6.68581">
        <ele>182</ele>
        <time>2025-10-26T10:12:03Z</time>
      </trkpt>
      <trkpt lat="43.51399" lon="6.68581">
        <ele>182</ele>
        <time>2025-10-26T10:12:04Z</time>
      </trkpt>
      <trkpt lat="43.51399" lon="6.68581">
        <ele>182</ele>
        <time>2025-10-26T10:12:05Z</time>
      </trkpt>
      <trkpt lat="43.51399" lon="6.68581">
        <ele>182</ele>
        <time>2025-10-26T10:12:06Z</time>
      </trkpt>
      <trkpt lat="43.51399" lon="6.68581">
        <ele>181.9</ele>
        <time>2025-10-26T10:12:07Z</time>
      </trkpt>
      <trkpt lat="43.514" lon="6.68581">
        <ele>181.9</ele>
        <time>2025-10-26T10:12:08Z</time>
      </trkpt>
      <trkpt lat="43.514" lon="6.68581">
        <ele>181.8</ele>
        <time>2025-10-26T10:12:09Z</time>
      </trkpt>
      <trkpt lat="43.51401" lon="6.68582">
        <ele>181.8</ele>
        <time>2025-10-26T10:12:10Z</time>
      </trkpt>
      <trkpt lat="43.51402" lon="6.68582">
        <ele>181.9</ele>
        <time>2025-10-26T10:12:11Z</time>
      </trkpt>
      <trkpt lat="43.51402" lon="6.68582">
        <ele>182</ele>
        <time>2025-10-26T10:12:12Z</time>
      </trkpt>
      <trkpt lat="43.51403" lon="6.68581">
        <ele>182.1</ele>
        <time>2025-10-26T10:12:13Z</time>
      </trkpt>
      <trkpt lat="43.51403" lon="6.68581">
        <ele>182.2</ele>
        <time>2025-10-26T10:12:14Z</time>
      </trkpt>
      <trkpt lat="43.51403" lon="6.6858">
        <ele>182.2</ele>
        <time>2025-10-26T10:12:15Z</time>
      </trkpt>
      <trkpt lat="43.51404" lon="6.68579">
        <ele>182.3</ele>
        <time>2025-10-26T10:12:16Z</time>
      </trkpt>
      <trkpt lat="43.51403" lon="6.68578">
        <ele>182.4</ele>
        <time>2025-10-26T10:12:17Z</time>
      </trkpt>
      <trkpt lat="43.51404" lon="6.68578">
        <ele>182.2</ele>
        <time>2025-10-26T10:12:18Z</time>
      </trkpt>
      <trkpt lat="43.51404" lon="6.68577">
        <ele>182.2</ele>
        <time>2025-10-26T10:12:19Z</time>
      </trkpt>
      <trkpt lat="43.51404" lon="6.68577">
        <ele>182.1</ele>
        <time>2025-10-26T10:12:20Z</time>
      </trkpt>
      <trkpt lat="43.51405" lon="6.68577">
        <ele>182.2</ele>
        <time>2025-10-26T10:12:21Z</time>
      </trkpt>
      <trkpt lat="43.51405" lon="6.68577">
        <ele>182.2</ele>
        <time>2025-10-26T10:12:22Z</time>
      </trkpt>
      <trkpt lat="43.51405" lon="6.68576">
        <ele>182.2</ele>
        <time>2025-10-26T10:12:23Z</time>
      </trkpt>
      <trkpt lat="43.51405" lon="6.68576">
        <ele>182.2</ele>
        <time>2025-10-26T10:12:24Z</time>
      </trkpt>
      <trkpt lat="43.51405" lon="6.68576">
        <ele>182.2</ele>
        <time>2025-10-26T10:12:25Z</time>
      </trkpt>
      <trkpt lat="43.51405" lon="6.68576">
        <ele>182.1</ele>
        <time>2025-10-26T10:12:26Z</time>
      </trkpt>
      <trkpt lat="43.51405" lon="6.68575">
        <ele>182</ele>
        <time>2025-10-26T10:12:27Z</time>
      </trkpt>
      <trkpt lat="43.51405" lon="6.68575">
        <ele>181.9</ele>
        <time>2025-10-26T10:12:28Z</time>
      </trkpt>
      <trkpt lat="43.51404" lon="6.68574">
        <ele>181.9</ele>
        <time>2025-10-26T10:12:29Z</time>
      </trkpt>
      <trkpt lat="43.51404" lon="6.68574">
        <ele>181.9</ele>
        <time>2025-10-26T10:12:30Z</time>
      </trkpt>
      <trkpt lat="43.51404" lon="6.68574">
        <ele>181.8</ele>
        <time>2025-10-26T10:12:31Z</time>
      </trkpt>
      <trkpt lat="43.51404" lon="6.68574">
        <ele>181.9</ele>
        <time>2025-10-26T10:12:32Z</time>
      </trkpt>
      <trkpt lat="43.51404" lon="6.68574">
        <ele>181.8</ele>
        <time>2025-10-26T10:12:33Z</time>
      </trkpt>
      <trkpt lat="43.51405" lon="6.68573">
        <ele>181.8</ele>
        <time>2025-10-26T10:12:34Z</time>
      </trkpt>
      <trkpt lat="43.51404" lon="6.68573">
        <ele>181.7</ele>
        <time>2025-10-26T10:12:35Z</time>
      </trkpt>
      <trkpt lat="43.51404" lon="6.68573">
        <ele>181.7</ele>
        <time>2025-10-26T10:12:36Z</time>
      </trkpt>
      <trkpt lat="43.51404" lon="6.68572">
        <ele>181.7</ele>
        <time>2025-10-26T10:12:37Z</time>
      </trkpt>
      <trkpt lat="43.51404" lon="6.68572">
        <ele>181.7</ele>
        <time>2025-10-26T10:12:38Z</time>
      </trkpt>
      <trkpt lat="43.51404" lon="6.68572">
        <ele>181.7</ele>
        <time>2025-10-26T10:12:39Z</time>
      </trkpt>
      <trkpt lat="43.51405" lon="6.68572">
        <ele>181.6</ele>
        <time>2025-10-26T10:12:40Z</time>
      </trkpt>
      <trkpt lat="43.51405" lon="6.68572">
        <ele>181.6</ele>
        <time>2025-10-26T10:12:41Z</time>
      </trkpt>
      <trkpt lat="43.51405" lon="6.68572">
        <ele>181.6</ele>
        <time>2025-10-26T10:12:42Z</time>
      </trkpt>
      <trkpt lat="43.51405" lon="6.68572">
        <ele>181.6</ele>
        <time>2025-10-26T10:12:43Z</time>
      </trkpt>
      <trkpt lat="43.51405" lon="6.68571">
        <ele>181.5</ele>
        <time>2025-10-26T10:12:44Z</time>
      </trkpt>
      <trkpt lat="43.51405" lon="6.68571">
        <ele>181.6</ele>
        <time>2025-10-26T10:12:45Z</time>
      </trkpt>
      <trkpt lat="43.51405" lon="6.6857">
        <ele>181.5</ele>
        <time>2025-10-26T10:12:46Z</time>
      </trkpt>
      <trkpt lat="43.51405" lon="6.6857">
        <ele>181.6</ele>
        <time>2025-10-26T10:12:47Z</time>
      </trkpt>
      <trkpt lat="43.51405" lon="6.68569">
        <ele>181.6</ele>
        <time>2025-10-26T10:12:48Z</time>
      </trkpt>
      <trkpt lat="43.51404" lon="6.68569">
        <ele>181.5</ele>
        <time>2025-10-26T10:12:49Z</time>
      </trkpt>
      <trkpt lat="43.51405" lon="6.68569">
        <ele>181.5</ele>
        <time>2025-10-26T10:12:50Z</time>
      </trkpt>
      <trkpt lat="43.51405" lon="6.68569">
        <ele>181.4</ele>
        <time>2025-10-26T10:12:51Z</time>
      </trkpt>
      <trkpt lat="43.51405" lon="6.68568">
        <ele>181.4</ele>
        <time>2025-10-26T10:12:52Z</time>
      </trkpt>
      <trkpt lat="43.51405" lon="6.68568">
        <ele>181.3</ele>
        <time>2025-10-26T10:12:53Z</time>
      </trkpt>
      <trkpt lat="43.51405" lon="6.68568">
        <ele>181.3</ele>
        <time>2025-10-26T10:12:54Z</time>
      </trkpt>
      <trkpt lat="43.51405" lon="6.68568">
        <ele>181.2</ele>
        <time>2025-10-26T10:12:55Z</time>
      </trkpt>
      <trkpt lat="43.51405" lon="6.68568">
        <ele>181.3</ele>
        <time>2025-10-26T10:12:56Z</time>
      </trkpt>
      <trkpt lat="43.51405" lon="6.68568">
        <ele>181.3</ele>
        <time>2025-10-26T10:12:57Z</time>
      </trkpt>
      <trkpt lat="43.51405" lon="6.68568">
        <ele>181.3</ele>
        <time>2025-10-26T10:12:58Z</time>
      </trkpt>
      <trkpt lat="43.51405" lon="6.68568">
        <ele>181.3</ele>
        <time>2025-10-26T10:12:59Z</time>
      </trkpt>
      <trkpt lat="43.51405" lon="6.68568">
        <ele>181.3</ele>
        <time>2025-10-26T10:13:00Z</time>
      </trkpt>
      <trkpt lat="43.51405" lon="6.68567">
        <ele>181.3</ele>
        <time>2025-10-26T10:13:01Z</time>
      </trkpt>
      <trkpt lat="43.51405" lon="6.68568">
        <ele>181.3</ele>
        <time>2025-10-26T10:13:02Z</time>
      </trkpt>
      <trkpt lat="43.51405" lon="6.68568">
        <ele>181.4</ele>
        <time>2025-10-26T10:13:03Z</time>
      </trkpt>
      <trkpt lat="43.51405" lon="6.68567">
        <ele>181.4</ele>
        <time>2025-10-26T10:13:04Z</time>
      </trkpt>
      <trkpt lat="43.51405" lon="6.68567">
        <ele>181.4</ele>
        <time>2025-10-26T10:13:05Z</time>
      </trkpt>
      <trkpt lat="43.51404" lon="6.68567">
        <ele>181.4</ele>
        <time>2025-10-26T10:13:06Z</time>
      </trkpt>
      <trkpt lat="43.51405" lon="6.68567">
        <ele>181.4</ele>
        <time>2025-10-26T10:13:07Z</time>
      </trkpt>
      <trkpt lat="43.51405" lon="6.68567">
        <ele>181.5</ele>
        <time>2025-10-26T10:13:08Z</time>
      </trkpt>
      <trkpt lat="43.51405" lon="6.68567">
        <ele>181.5</ele>
        <time>2025-10-26T10:13:09Z</time>
      </trkpt>
      <trkpt lat="43.51405" lon="6.68566">
        <ele>181.5</ele>
        <time>2025-10-26T10:13:10Z</time>
      </trkpt>
      <trkpt lat="43.51404" lon="6.68566">
        <ele>181.5</ele>
        <time>2025-10-26T10:13:11Z</time>
      </trkpt>
      <trkpt lat="43.51404" lon="6.68566">
        <ele>181.5</ele>
        <time>2025-10-26T10:13:12Z</time>
      </trkpt>
      <trkpt lat="43.51404" lon="6.68566">
        <ele>181.4</ele>
        <time>2025-10-26T10:13:13Z</time>
      </trkpt>
      <trkpt lat="43.51405" lon="6.68566">
        <ele>181.4</ele>
        <time>2025-10-26T10:13:14Z</time>
      </trkpt>
      <trkpt lat="43.51405" lon="6.68566">
        <ele>181.4</ele>
        <time>2025-10-26T10:13:15Z</time>
      </trkpt>
      <trkpt lat="43.51405" lon="6.68567">
        <ele>181.4</ele>
        <time>2025-10-26T10:13:16Z</time>
      </trkpt>
      <trkpt lat="43.51405" lon="6.68567">
        <ele>181.4</ele>
        <time>2025-10-26T10:13:17Z</time>
      </trkpt>
      <trkpt lat="43.51405" lon="6.68567">
        <ele>181.4</ele>
        <time>2025-10-26T10:13:18Z</time>
      </trkpt>
      <trkpt lat="43.51405" lon="6.68567">
        <ele>181.4</ele>
        <time>2025-10-26T10:13:19Z</time>
      </trkpt>
      <trkpt lat="43.51405" lon="6.68567">
        <ele>181.5</ele>
        <time>2025-10-26T10:13:20Z</time>
      </trkpt>
      <trkpt lat="43.51405" lon="6.68567">
        <ele>181.5</ele>
        <time>2025-10-26T10:13:21Z</time>
      </trkpt>
      <trkpt lat="43.51405" lon="6.68567">
        <ele>181.6</ele>
        <time>2025-10-26T10:13:22Z</time>
      </trkpt>
      <trkpt lat="43.51406" lon="6.68567">
        <ele>181.5</ele>
        <time>2025-10-26T10:13:23Z</time>
      </trkpt>
      <trkpt lat="43.51406" lon="6.68568">
        <ele>181.6</ele>
        <time>2025-10-26T10:13:24Z</time>
      </trkpt>
      <trkpt lat="43.51406" lon="6.68568">
        <ele>181.7</ele>
        <time>2025-10-26T10:13:25Z</time>
      </trkpt>
      <trkpt lat="43.51406" lon="6.68568">
        <ele>181.7</ele>
        <time>2025-10-26T10:13:26Z</time>
      </trkpt>
      <trkpt lat="43.51406" lon="6.68568">
        <ele>181.8</ele>
        <time>2025-10-26T10:13:27Z</time>
      </trkpt>
      <trkpt lat="43.51405" lon="6.68568">
        <ele>181.9</ele>
        <time>2025-10-26T10:13:28Z</time>
      </trkpt>
      <trkpt lat="43.51406" lon="6.68568">
        <ele>181.9</ele>
        <time>2025-10-26T10:13:29Z</time>
      </trkpt>
      <trkpt lat="43.51406" lon="6.68569">
        <ele>181.8</ele>
        <time>2025-10-26T10:13:30Z</time>
      </trkpt>
      <trkpt lat="43.51406" lon="6.68569">
        <ele>181.7</ele>
        <time>2025-10-26T10:13:31Z</time>
      </trkpt>
      <trkpt lat="43.51406" lon="6.68569">
        <ele>181.7</ele>
        <time>2025-10-26T10:13:32Z</time>
      </trkpt>
      <trkpt lat="43.51406" lon="6.68569">
        <ele>181.7</ele>
        <time>2025-10-26T10:13:33Z</time>
      </trkpt>
      <trkpt lat="43.51407" lon="6.68569">
        <ele>181.6</ele>
        <time>2025-10-26T10:13:34Z</time>
      </trkpt>
      <trkpt lat="43.51406" lon="6.68569">
        <ele>181.6</ele>
        <time>2025-10-26T10:13:35Z</time>
      </trkpt>
      <trkpt lat="43.51407" lon="6.68568">
        <ele>181.4</ele>
        <time>2025-10-26T10:13:36Z</time>
      </trkpt>
      <trkpt lat="43.51407" lon="6.68567">
        <ele>181.3</ele>
        <time>2025-10-26T10:13:37Z</time>
      </trkpt>
      <trkpt lat="43.51407" lon="6.68567">
        <ele>181.4</ele>
        <time>2025-10-26T10:13:38Z</time>
      </trkpt>
      <trkpt lat="43.51406" lon="6.68568">
        <ele>181.4</ele>
        <time>2025-10-26T10:13:39Z</time>
      </trkpt>
      <trkpt lat="43.51407" lon="6.68568">
        <ele>181.5</ele>
        <time>2025-10-26T10:13:40Z</time>
      </trkpt>
      <trkpt lat="43.51406" lon="6.68568">
        <ele>181.5</ele>
        <time>2025-10-26T10:13:41Z</time>
      </trkpt>
      <trkpt lat="43.51406" lon="6.68569">
        <ele>181.5</ele>
        <time>2025-10-26T10:13:42Z</time>
      </trkpt>
      <trkpt lat="43.51406" lon="6.68569">
        <ele>181.6</ele>
        <time>2025-10-26T10:13:43Z</time>
      </trkpt>
      <trkpt lat="43.51406" lon="6.68569">
        <ele>181.6</ele>
        <time>2025-10-26T10:13:44Z</time>
      </trkpt>
      <trkpt lat="43.51406" lon="6.68569">
        <ele>181.5</ele>
        <time>2025-10-26T10:13:45Z</time>
      </trkpt>
      <trkpt lat="43.51406" lon="6.68569">
        <ele>181.4</ele>
        <time>2025-10-26T10:13:46Z</time>
      </trkpt>
      <trkpt lat="43.51406" lon="6.6857">
        <ele>181.4</ele>
        <time>2025-10-26T10:13:47Z</time>
      </trkpt>
      <trkpt lat="43.51406" lon="6.6857">
        <ele>181.4</ele>
        <time>2025-10-26T10:13:48Z</time>
      </trkpt>
      <trkpt lat="43.51405" lon="6.6857">
        <ele>181.4</ele>
        <time>2025-10-26T10:13:49Z</time>
      </trkpt>
      <trkpt lat="43.51405" lon="6.68571">
        <ele>181.4</ele>
        <time>2025-10-26T10:13:50Z</time>
      </trkpt>
      <trkpt lat="43.51405" lon="6.68571">
        <ele>181.4</ele>
        <time>2025-10-26T10:13:51Z</time>
      </trkpt>
      <trkpt lat="43.51405" lon="6.68571">
        <ele>181.3</ele>
        <time>2025-10-26T10:13:52Z</time>
      </trkpt>
      <trkpt lat="43.51405" lon="6.68572">
        <ele>181.3</ele>
        <time>2025-10-26T10:13:53Z</time>
      </trkpt>
      <trkpt lat="43.51405" lon="6.68572">
        <ele>181.3</ele>
        <time>2025-10-26T10:13:54Z</time>
      </trkpt>
      <trkpt lat="43.51405" lon="6.68572">
        <ele>181.3</ele>
        <time>2025-10-26T10:13:55Z</time>
      </trkpt>
      <trkpt lat="43.51405" lon="6.68572">
        <ele>181.3</ele>
        <time>2025-10-26T10:13:56Z</time>
      </trkpt>
      <trkpt lat="43.51405" lon="6.68572">
        <ele>181.2</ele>
        <time>2025-10-26T10:13:57Z</time>
      </trkpt>
      <trkpt lat="43.51405" lon="6.68572">
        <ele>181.3</ele>
        <time>2025-10-26T10:13:58Z</time>
      </trkpt>
      <trkpt lat="43.51405" lon="6.68572">
        <ele>181.3</ele>
        <time>2025-10-26T10:13:59Z</time>
      </trkpt>
      <trkpt lat="43.51405" lon="6.68572">
        <ele>181.3</ele>
        <time>2025-10-26T10:14:00Z</time>
      </trkpt>
      <trkpt lat="43.51405" lon="6.68572">
        <ele>181.3</ele>
        <time>2025-10-26T10:14:01Z</time>
      </trkpt>
      <trkpt lat="43.51405" lon="6.68571">
        <ele>181.3</ele>
        <time>2025-10-26T10:14:02Z</time>
      </trkpt>
      <trkpt lat="43.51406" lon="6.68571">
        <ele>181.3</ele>
        <time>2025-10-26T10:14:03Z</time>
      </trkpt>
      <trkpt lat="43.51406" lon="6.68571">
        <ele>181.4</ele>
        <time>2025-10-26T10:14:04Z</time>
      </trkpt>
      <trkpt lat="43.51406" lon="6.6857">
        <ele>181.4</ele>
        <time>2025-10-26T10:14:05Z</time>
      </trkpt>
      <trkpt lat="43.51406" lon="6.6857">
        <ele>181.4</ele>
        <time>2025-10-26T10:14:06Z</time>
      </trkpt>
      <trkpt lat="43.51406" lon="6.68569">
        <ele>181.4</ele>
        <time>2025-10-26T10:14:07Z</time>
      </trkpt>
      <trkpt lat="43.51406" lon="6.6857">
        <ele>181.4</ele>
        <time>2025-10-26T10:14:08Z</time>
      </trkpt>
      <trkpt lat="43.51406" lon="6.68569">
        <ele>181.6</ele>
        <time>2025-10-26T10:14:09Z</time>
      </trkpt>
      <trkpt lat="43.51405" lon="6.68569">
        <ele>181.5</ele>
        <time>2025-10-26T10:14:10Z</time>
      </trkpt>
      <trkpt lat="43.51405" lon="6.68568">
        <ele>181.5</ele>
        <time>2025-10-26T10:14:11Z</time>
      </trkpt>
      <trkpt lat="43.51405" lon="6.68569">
        <ele>181.4</ele>
        <time>2025-10-26T10:14:12Z</time>
      </trkpt>
      <trkpt lat="43.51405" lon="6.68569">
        <ele>181.4</ele>
        <time>2025-10-26T10:14:13Z</time>
      </trkpt>
      <trkpt lat="43.51405" lon="6.68569">
        <ele>181.4</ele>
        <time>2025-10-26T10:14:14Z</time>
      </trkpt>
      <trkpt lat="43.51405" lon="6.68569">
        <ele>181.3</ele>
        <time>2025-10-26T10:14:15Z</time>
      </trkpt>
      <trkpt lat="43.51405" lon="6.68569">
        <ele>181.3</ele>
        <time>2025-10-26T10:14:16Z</time>
      </trkpt>
      <trkpt lat="43.51405" lon="6.6857">
        <ele>181.2</ele>
        <time>2025-10-26T10:14:17Z</time>
      </trkpt>
      <trkpt lat="43.51405" lon="6.6857">
        <ele>181.3</ele>
        <time>2025-10-26T10:14:18Z</time>
      </trkpt>
      <trkpt lat="43.51404" lon="6.6857">
        <ele>181.4</ele>
        <time>2025-10-26T10:14:19Z</time>
      </trkpt>
      <trkpt lat="43.51405" lon="6.68569">
        <ele>181.4</ele>
        <time>2025-10-26T10:14:20Z</time>
      </trkpt>
      <trkpt lat="43.51404" lon="6.6857">
        <ele>181.3</ele>
        <time>2025-10-26T10:14:21Z</time>
      </trkpt>
      <trkpt lat="43.51404" lon="6.6857">
        <ele>181.2</ele>
        <time>2025-10-26T10:14:22Z</time>
      </trkpt>
      <trkpt lat="43.51404" lon="6.68571">
        <ele>181.2</ele>
        <time>2025-10-26T10:14:23Z</time>
      </trkpt>
      <trkpt lat="43.51403" lon="6.68571">
        <ele>181.2</ele>
        <time>2025-10-26T10:14:24Z</time>
      </trkpt>
      <trkpt lat="43.51403" lon="6.68571">
        <ele>181.1</ele>
        <time>2025-10-26T10:14:25Z</time>
      </trkpt>
      <trkpt lat="43.51403" lon="6.68571">
        <ele>181.1</ele>
        <time>2025-10-26T10:14:26Z</time>
      </trkpt>
      <trkpt lat="43.51403" lon="6.68571">
        <ele>181</ele>
        <time>2025-10-26T10:14:27Z</time>
      </trkpt>
      <trkpt lat="43.51403" lon="6.68571">
        <ele>180.9</ele>
        <time>2025-10-26T10:14:28Z</time>
      </trkpt>
      <trkpt lat="43.51402" lon="6.68571">
        <ele>180.9</ele>
        <time>2025-10-26T10:14:29Z</time>
      </trkpt>
      <trkpt lat="43.51402" lon="6.68571">
        <ele>180.8</ele>
        <time>2025-10-26T10:14:30Z</time>
      </trkpt>
      <trkpt lat="43.51403" lon="6.68571">
        <ele>180.8</ele>
        <time>2025-10-26T10:14:31Z</time>
      </trkpt>
      <trkpt lat="43.51403" lon="6.68571">
        <ele>180.7</ele>
        <time>2025-10-26T10:14:32Z</time>
      </trkpt>
      <trkpt lat="43.51403" lon="6.68571">
        <ele>180.7</ele>
        <time>2025-10-26T10:14:33Z</time>
      </trkpt>
      <trkpt lat="43.51404" lon="6.68571">
        <ele>180.7</ele>
        <time>2025-10-26T10:14:34Z</time>
      </trkpt>
      <trkpt lat="43.51403" lon="6.68572">
        <ele>180.6</ele>
        <time>2025-10-26T10:14:35Z</time>
      </trkpt>
      <trkpt lat="43.51402" lon="6.68573">
        <ele>180.6</ele>
        <time>2025-10-26T10:14:36Z</time>
      </trkpt>
      <trkpt lat="43.51402" lon="6.68573">
        <ele>180.6</ele>
        <time>2025-10-26T10:14:37Z</time>
      </trkpt>
      <trkpt lat="43.51402" lon="6.68573">
        <ele>180.5</ele>
        <time>2025-10-26T10:14:38Z</time>
      </trkpt>
      <trkpt lat="43.51402" lon="6.68573">
        <ele>180.6</ele>
        <time>2025-10-26T10:14:39Z</time>
      </trkpt>
      <trkpt lat="43.51402" lon="6.68572">
        <ele>180.6</ele>
        <time>2025-10-26T10:14:40Z</time>
      </trkpt>
      <trkpt lat="43.51403" lon="6.68572">
        <ele>180.6</ele>
        <time>2025-10-26T10:14:41Z</time>
      </trkpt>
      <trkpt lat="43.51403" lon="6.68572">
        <ele>180.5</ele>
        <time>2025-10-26T10:14:42Z</time>
      </trkpt>
      <trkpt lat="43.51403" lon="6.68572">
        <ele>180.5</ele>
        <time>2025-10-26T10:14:43Z</time>
      </trkpt>
      <trkpt lat="43.51403" lon="6.68572">
        <ele>180.4</ele>
        <time>2025-10-26T10:14:44Z</time>
      </trkpt>
      <trkpt lat="43.51404" lon="6.68571">
        <ele>180.4</ele>
        <time>2025-10-26T10:14:45Z</time>
      </trkpt>
      <trkpt lat="43.51404" lon="6.68571">
        <ele>180.3</ele>
        <time>2025-10-26T10:14:46Z</time>
      </trkpt>
      <trkpt lat="43.51405" lon="6.68571">
        <ele>180.3</ele>
        <time>2025-10-26T10:14:47Z</time>
      </trkpt>
      <trkpt lat="43.51405" lon="6.68571">
        <ele>180.4</ele>
        <time>2025-10-26T10:14:48Z</time>
      </trkpt>
      <trkpt lat="43.51405" lon="6.68572">
        <ele>180.5</ele>
        <time>2025-10-26T10:14:49Z</time>
      </trkpt>
      <trkpt lat="43.51405" lon="6.68571">
        <ele>180.6</ele>
        <time>2025-10-26T10:14:50Z</time>
      </trkpt>
      <trkpt lat="43.51404" lon="6.68571">
        <ele>180.6</ele>
        <time>2025-10-26T10:14:51Z</time>
      </trkpt>
      <trkpt lat="43.51404" lon="6.68571">
        <ele>180.7</ele>
        <time>2025-10-26T10:14:52Z</time>
      </trkpt>
      <trkpt lat="43.51404" lon="6.68571">
        <ele>180.7</ele>
        <time>2025-10-26T10:14:53Z</time>
      </trkpt>
      <trkpt lat="43.51405" lon="6.68571">
        <ele>180.8</ele>
        <time>2025-10-26T10:14:54Z</time>
      </trkpt>
      <trkpt lat="43.51405" lon="6.68571">
        <ele>180.8</ele>
        <time>2025-10-26T10:14:55Z</time>
      </trkpt>
      <trkpt lat="43.51406" lon="6.68571">
        <ele>180.8</ele>
        <time>2025-10-26T10:14:56Z</time>
      </trkpt>
      <trkpt lat="43.51406" lon="6.68571">
        <ele>180.9</ele>
        <time>2025-10-26T10:14:57Z</time>
      </trkpt>
      <trkpt lat="43.51406" lon="6.68572">
        <ele>181.1</ele>
        <time>2025-10-26T10:14:58Z</time>
      </trkpt>
      <trkpt lat="43.51407" lon="6.68571">
        <ele>181.3</ele>
        <time>2025-10-26T10:14:59Z</time>
      </trkpt>
      <trkpt lat="43.51408" lon="6.68569">
        <ele>181.4</ele>
        <time>2025-10-26T10:15:00Z</time>
      </trkpt>
      <trkpt lat="43.51409" lon="6.68567">
        <ele>181.6</ele>
        <time>2025-10-26T10:15:01Z</time>
      </trkpt>
      <trkpt lat="43.5141" lon="6.68565">
        <ele>181.7</ele>
        <time>2025-10-26T10:15:02Z</time>
      </trkpt>
      <trkpt lat="43.5141" lon="6.68564">
        <ele>181.8</ele>
        <time>2025-10-26T10:15:03Z</time>
      </trkpt>
      <trkpt lat="43.51409" lon="6.68563">
        <ele>181.8</ele>
        <time>2025-10-26T10:15:04Z</time>
      </trkpt>
      <trkpt lat="43.51409" lon="6.68561">
        <ele>181.8</ele>
        <time>2025-10-26T10:15:05Z</time>
      </trkpt>
      <trkpt lat="43.51409" lon="6.6856">
        <ele>181.8</ele>
        <time>2025-10-26T10:15:06Z</time>
      </trkpt>
      <trkpt lat="43.51409" lon="6.68559">
        <ele>181.8</ele>
        <time>2025-10-26T10:15:07Z</time>
      </trkpt>
      <trkpt lat="43.51409" lon="6.68559">
        <ele>181.8</ele>
        <time>2025-10-26T10:15:08Z</time>
      </trkpt>
      <trkpt lat="43.51409" lon="6.68559">
        <ele>181.8</ele>
        <time>2025-10-26T10:15:09Z</time>
      </trkpt>
      <trkpt lat="43.51409" lon="6.68558">
        <ele>181.8</ele>
        <time>2025-10-26T10:15:10Z</time>
      </trkpt>
      <trkpt lat="43.51409" lon="6.68558">
        <ele>181.9</ele>
        <time>2025-10-26T10:15:11Z</time>
      </trkpt>
      <trkpt lat="43.51408" lon="6.68558">
        <ele>181.9</ele>
        <time>2025-10-26T10:15:12Z</time>
      </trkpt>
      <trkpt lat="43.51409" lon="6.68559">
        <ele>181.9</ele>
        <time>2025-10-26T10:15:13Z</time>
      </trkpt>
      <trkpt lat="43.51409" lon="6.68559">
        <ele>181.9</ele>
        <time>2025-10-26T10:15:14Z</time>
      </trkpt>
      <trkpt lat="43.51408" lon="6.68559">
        <ele>181.8</ele>
        <time>2025-10-26T10:15:15Z</time>
      </trkpt>
      <trkpt lat="43.51408" lon="6.68559">
        <ele>181.8</ele>
        <time>2025-10-26T10:15:16Z</time>
      </trkpt>
      <trkpt lat="43.51408" lon="6.68559">
        <ele>181.8</ele>
        <time>2025-10-26T10:15:17Z</time>
      </trkpt>
      <trkpt lat="43.51408" lon="6.68559">
        <ele>181.8</ele>
        <time>2025-10-26T10:15:18Z</time>
      </trkpt>
      <trkpt lat="43.51408" lon="6.68559">
        <ele>181.8</ele>
        <time>2025-10-26T10:15:19Z</time>
      </trkpt>
      <trkpt lat="43.51408" lon="6.68559">
        <ele>181.8</ele>
        <time>2025-10-26T10:15:20Z</time>
      </trkpt>
      <trkpt lat="43.51408" lon="6.68559">
        <ele>181.7</ele>
        <time>2025-10-26T10:15:21Z</time>
      </trkpt>
      <trkpt lat="43.51407" lon="6.6856">
        <ele>181.7</ele>
        <time>2025-10-26T10:15:22Z</time>
      </trkpt>
      <trkpt lat="43.51407" lon="6.6856">
        <ele>181.8</ele>
        <time>2025-10-26T10:15:23Z</time>
      </trkpt>
      <trkpt lat="43.51407" lon="6.6856">
        <ele>181.8</ele>
        <time>2025-10-26T10:15:24Z</time>
      </trkpt>
      <trkpt lat="43.51406" lon="6.68561">
        <ele>181.8</ele>
        <time>2025-10-26T10:15:25Z</time>
      </trkpt>
      <trkpt lat="43.51406" lon="6.68561">
        <ele>181.8</ele>
        <time>2025-10-26T10:15:26Z</time>
      </trkpt>
      <trkpt lat="43.51406" lon="6.68561">
        <ele>181.9</ele>
        <time>2025-10-26T10:15:27Z</time>
      </trkpt>
      <trkpt lat="43.51406" lon="6.68562">
        <ele>181.8</ele>
        <time>2025-10-26T10:15:28Z</time>
      </trkpt>
      <trkpt lat="43.51405" lon="6.68562">
        <ele>181.8</ele>
        <time>2025-10-26T10:15:29Z</time>
      </trkpt>
      <trkpt lat="43.51405" lon="6.68563">
        <ele>181.8</ele>
        <time>2025-10-26T10:15:30Z</time>
      </trkpt>
      <trkpt lat="43.51404" lon="6.68564">
        <ele>181.8</ele>
        <time>2025-10-26T10:15:31Z</time>
      </trkpt>
      <trkpt lat="43.51404" lon="6.68564">
        <ele>181.7</ele>
        <time>2025-10-26T10:15:32Z</time>
      </trkpt>
      <trkpt lat="43.51404" lon="6.68564">
        <ele>181.7</ele>
        <time>2025-10-26T10:15:33Z</time>
      </trkpt>
      <trkpt lat="43.51403" lon="6.68565">
        <ele>181.6</ele>
        <time>2025-10-26T10:15:34Z</time>
      </trkpt>
      <trkpt lat="43.51402" lon="6.68566">
        <ele>181.6</ele>
        <time>2025-10-26T10:15:35Z</time>
      </trkpt>
      <trkpt lat="43.51402" lon="6.68566">
        <ele>181.5</ele>
        <time>2025-10-26T10:15:36Z</time>
      </trkpt>
      <trkpt lat="43.51401" lon="6.68567">
        <ele>181.5</ele>
        <time>2025-10-26T10:15:37Z</time>
      </trkpt>
      <trkpt lat="43.51402" lon="6.68568">
        <ele>181.6</ele>
        <time>2025-10-26T10:15:38Z</time>
      </trkpt>
      <trkpt lat="43.51401" lon="6.68569">
        <ele>181.6</ele>
        <time>2025-10-26T10:15:39Z</time>
      </trkpt>
      <trkpt lat="43.51401" lon="6.68569">
        <ele>181.7</ele>
        <time>2025-10-26T10:15:40Z</time>
      </trkpt>
      <trkpt lat="43.51401" lon="6.6857">
        <ele>181.7</ele>
        <time>2025-10-26T10:15:41Z</time>
      </trkpt>
      <trkpt lat="43.514" lon="6.6857">
        <ele>181.8</ele>
        <time>2025-10-26T10:15:42Z</time>
      </trkpt>
      <trkpt lat="43.514" lon="6.6857">
        <ele>181.9</ele>
        <time>2025-10-26T10:15:43Z</time>
      </trkpt>
      <trkpt lat="43.514" lon="6.68571">
        <ele>181.9</ele>
        <time>2025-10-26T10:15:44Z</time>
      </trkpt>
      <trkpt lat="43.514" lon="6.68571">
        <ele>181.9</ele>
        <time>2025-10-26T10:15:45Z</time>
      </trkpt>
      <trkpt lat="43.514" lon="6.68571">
        <ele>181.9</ele>
        <time>2025-10-26T10:15:46Z</time>
      </trkpt>
      <trkpt lat="43.514" lon="6.68572">
        <ele>181.9</ele>
        <time>2025-10-26T10:15:47Z</time>
      </trkpt>
      <trkpt lat="43.514" lon="6.68572">
        <ele>181.9</ele>
        <time>2025-10-26T10:15:48Z</time>
      </trkpt>
      <trkpt lat="43.514" lon="6.68572">
        <ele>181.9</ele>
        <time>2025-10-26T10:15:49Z</time>
      </trkpt>
      <trkpt lat="43.51399" lon="6.68573">
        <ele>181.9</ele>
        <time>2025-10-26T10:15:50Z</time>
      </trkpt>
      <trkpt lat="43.51399" lon="6.68573">
        <ele>181.9</ele>
        <time>2025-10-26T10:15:51Z</time>
      </trkpt>
      <trkpt lat="43.51399" lon="6.68574">
        <ele>182</ele>
        <time>2025-10-26T10:15:52Z</time>
      </trkpt>
      <trkpt lat="43.51399" lon="6.68574">
        <ele>182.1</ele>
        <time>2025-10-26T10:15:53Z</time>
      </trkpt>
      <trkpt lat="43.51399" lon="6.68574">
        <ele>182.1</ele>
        <time>2025-10-26T10:15:54Z</time>
      </trkpt>
      <trkpt lat="43.51399" lon="6.68575">
        <ele>182.1</ele>
        <time>2025-10-26T10:15:55Z</time>
      </trkpt>
      <trkpt lat="43.51399" lon="6.68575">
        <ele>182</ele>
        <time>2025-10-26T10:15:56Z</time>
      </trkpt>
      <trkpt lat="43.51399" lon="6.68577">
        <ele>182</ele>
        <time>2025-10-26T10:15:57Z</time>
      </trkpt>
      <trkpt lat="43.51399" lon="6.68577">
        <ele>182</ele>
        <time>2025-10-26T10:15:58Z</time>
      </trkpt>
      <trkpt lat="43.51399" lon="6.68577">
        <ele>182</ele>
        <time>2025-10-26T10:15:59Z</time>
      </trkpt>
      <trkpt lat="43.51399" lon="6.68577">
        <ele>182</ele>
        <time>2025-10-26T10:16:00Z</time>
      </trkpt>
      <trkpt lat="43.51399" lon="6.68577">
        <ele>182</ele>
        <time>2025-10-26T10:16:01Z</time>
      </trkpt>
      <trkpt lat="43.51398" lon="6.68577">
        <ele>182</ele>
        <time>2025-10-26T10:16:02Z</time>
      </trkpt>
      <trkpt lat="43.51398" lon="6.68577">
        <ele>182</ele>
        <time>2025-10-26T10:16:03Z</time>
      </trkpt>
      <trkpt lat="43.51398" lon="6.68577">
        <ele>181.9</ele>
        <time>2025-10-26T10:16:04Z</time>
      </trkpt>
      <trkpt lat="43.51397" lon="6.68577">
        <ele>181.9</ele>
        <time>2025-10-26T10:16:05Z</time>
      </trkpt>
      <trkpt lat="43.51397" lon="6.68577">
        <ele>181.8</ele>
        <time>2025-10-26T10:16:06Z</time>
      </trkpt>
      <trkpt lat="43.51397" lon="6.68577">
        <ele>181.7</ele>
        <time>2025-10-26T10:16:07Z</time>
      </trkpt>
      <trkpt lat="43.51396" lon="6.68577">
        <ele>181.7</ele>
        <time>2025-10-26T10:16:08Z</time>
      </trkpt>
      <trkpt lat="43.51396" lon="6.68577">
        <ele>181.7</ele>
        <time>2025-10-26T10:16:09Z</time>
      </trkpt>
      <trkpt lat="43.51395" lon="6.68578">
        <ele>181.7</ele>
        <time>2025-10-26T10:16:10Z</time>
      </trkpt>
      <trkpt lat="43.51395" lon="6.68578">
        <ele>181.7</ele>
        <time>2025-10-26T10:16:11Z</time>
      </trkpt>
      <trkpt lat="43.51395" lon="6.68578">
        <ele>181.8</ele>
        <time>2025-10-26T10:16:12Z</time>
      </trkpt>
      <trkpt lat="43.51395" lon="6.68578">
        <ele>181.8</ele>
        <time>2025-10-26T10:16:13Z</time>
      </trkpt>
      <trkpt lat="43.51395" lon="6.68579">
        <ele>181.7</ele>
        <time>2025-10-26T10:16:14Z</time>
      </trkpt>
      <trkpt lat="43.51395" lon="6.68578">
        <ele>181.6</ele>
        <time>2025-10-26T10:16:15Z</time>
      </trkpt>
      <trkpt lat="43.51394" lon="6.68579">
        <ele>181.6</ele>
        <time>2025-10-26T10:16:16Z</time>
      </trkpt>
      <trkpt lat="43.51394" lon="6.68579">
        <ele>181.6</ele>
        <time>2025-10-26T10:16:17Z</time>
      </trkpt>
      <trkpt lat="43.51394" lon="6.68579">
        <ele>181.6</ele>
        <time>2025-10-26T10:16:18Z</time>
      </trkpt>
      <trkpt lat="43.51393" lon="6.68579">
        <ele>181.7</ele>
        <time>2025-10-26T10:16:19Z</time>
      </trkpt>
      <trkpt lat="43.51393" lon="6.68579">
        <ele>181.7</ele>
        <time>2025-10-26T10:16:20Z</time>
      </trkpt>
      <trkpt lat="43.51393" lon="6.68579">
        <ele>181.7</ele>
        <time>2025-10-26T10:16:21Z</time>
      </trkpt>
      <trkpt lat="43.51393" lon="6.68579">
        <ele>181.8</ele>
        <time>2025-10-26T10:16:22Z</time>
      </trkpt>
      <trkpt lat="43.51393" lon="6.68579">
        <ele>181.8</ele>
        <time>2025-10-26T10:16:23Z</time>
      </trkpt>
      <trkpt lat="43.51393" lon="6.68579">
        <ele>181.8</ele>
        <time>2025-10-26T10:16:24Z</time>
      </trkpt>
      <trkpt lat="43.51393" lon="6.68579">
        <ele>181.9</ele>
        <time>2025-10-26T10:16:25Z</time>
      </trkpt>
      <trkpt lat="43.51393" lon="6.6858">
        <ele>181.9</ele>
        <time>2025-10-26T10:16:26Z</time>
      </trkpt>
      <trkpt lat="43.51393" lon="6.6858">
        <ele>181.9</ele>
        <time>2025-10-26T10:16:27Z</time>
      </trkpt>
      <trkpt lat="43.51393" lon="6.6858">
        <ele>181.8</ele>
        <time>2025-10-26T10:16:28Z</time>
      </trkpt>
      <trkpt lat="43.51393" lon="6.6858">
        <ele>181.8</ele>
        <time>2025-10-26T10:16:29Z</time>
      </trkpt>
      <trkpt lat="43.51393" lon="6.6858">
        <ele>181.9</ele>
        <time>2025-10-26T10:16:30Z</time>
      </trkpt>
      <trkpt lat="43.51393" lon="6.6858">
        <ele>181.8</ele>
        <time>2025-10-26T10:16:31Z</time>
      </trkpt>
      <trkpt lat="43.51394" lon="6.68581">
        <ele>181.8</ele>
        <time>2025-10-26T10:16:32Z</time>
      </trkpt>
      <trkpt lat="43.51394" lon="6.68581">
        <ele>181.8</ele>
        <time>2025-10-26T10:16:33Z</time>
      </trkpt>
      <trkpt lat="43.51394" lon="6.68581">
        <ele>181.8</ele>
        <time>2025-10-26T10:16:34Z</time>
      </trkpt>
      <trkpt lat="43.51394" lon="6.6858">
        <ele>181.8</ele>
        <time>2025-10-26T10:16:35Z</time>
      </trkpt>
      <trkpt lat="43.51394" lon="6.6858">
        <ele>181.8</ele>
        <time>2025-10-26T10:16:36Z</time>
      </trkpt>
      <trkpt lat="43.51395" lon="6.6858">
        <ele>181.8</ele>
        <time>2025-10-26T10:16:37Z</time>
      </trkpt>
      <trkpt lat="43.51395" lon="6.68581">
        <ele>181.8</ele>
        <time>2025-10-26T10:16:38Z</time>
      </trkpt>
      <trkpt lat="43.51395" lon="6.68581">
        <ele>181.9</ele>
        <time>2025-10-26T10:16:39Z</time>
      </trkpt>
      <trkpt lat="43.51395" lon="6.68581">
        <ele>181.9</ele>
        <time>2025-10-26T10:16:40Z</time>
      </trkpt>
      <trkpt lat="43.51394" lon="6.68581">
        <ele>181.9</ele>
        <time>2025-10-26T10:16:41Z</time>
      </trkpt>
      <trkpt lat="43.51394" lon="6.68581">
        <ele>181.9</ele>
        <time>2025-10-26T10:16:42Z</time>
      </trkpt>
      <trkpt lat="43.51394" lon="6.68581">
        <ele>182</ele>
        <time>2025-10-26T10:16:43Z</time>
      </trkpt>
      <trkpt lat="43.51394" lon="6.6858">
        <ele>182</ele>
        <time>2025-10-26T10:16:44Z</time>
      </trkpt>
      <trkpt lat="43.51394" lon="6.6858">
        <ele>182</ele>
        <time>2025-10-26T10:16:45Z</time>
      </trkpt>
      <trkpt lat="43.51394" lon="6.6858">
        <ele>182</ele>
        <time>2025-10-26T10:16:46Z</time>
      </trkpt>
      <trkpt lat="43.51394" lon="6.68581">
        <ele>181.9</ele>
        <time>2025-10-26T10:16:47Z</time>
      </trkpt>
      <trkpt lat="43.51394" lon="6.68582">
        <ele>181.9</ele>
        <time>2025-10-26T10:16:48Z</time>
      </trkpt>
      <trkpt lat="43.51394" lon="6.68582">
        <ele>181.8</ele>
        <time>2025-10-26T10:16:49Z</time>
      </trkpt>
      <trkpt lat="43.51394" lon="6.68582">
        <ele>181.8</ele>
        <time>2025-10-26T10:16:50Z</time>
      </trkpt>
      <trkpt lat="43.51393" lon="6.68582">
        <ele>181.9</ele>
        <time>2025-10-26T10:16:51Z</time>
      </trkpt>
      <trkpt lat="43.51393" lon="6.68583">
        <ele>181.9</ele>
        <time>2025-10-26T10:16:52Z</time>
      </trkpt>
      <trkpt lat="43.51394" lon="6.68583">
        <ele>182</ele>
        <time>2025-10-26T10:16:53Z</time>
      </trkpt>
      <trkpt lat="43.51394" lon="6.68583">
        <ele>182</ele>
        <time>2025-10-26T10:16:54Z</time>
      </trkpt>
      <trkpt lat="43.51393" lon="6.68583">
        <ele>181.9</ele>
        <time>2025-10-26T10:16:55Z</time>
      </trkpt>
      <trkpt lat="43.51394" lon="6.68583">
        <ele>181.9</ele>
        <time>2025-10-26T10:16:56Z</time>
      </trkpt>
      <trkpt lat="43.51394" lon="6.68583">
        <ele>181.9</ele>
        <time>2025-10-26T10:16:57Z</time>
      </trkpt>
      <trkpt lat="43.51394" lon="6.68583">
        <ele>181.9</ele>
        <time>2025-10-26T10:16:58Z</time>
      </trkpt>
      <trkpt lat="43.51394" lon="6.68583">
        <ele>182</ele>
        <time>2025-10-26T10:16:59Z</time>
      </trkpt>
      <trkpt lat="43.51394" lon="6.68583">
        <ele>182</ele>
        <time>2025-10-26T10:17:00Z</time>
      </trkpt>
      <trkpt lat="43.51394" lon="6.68583">
        <ele>182</ele>
        <time>2025-10-26T10:17:01Z</time>
      </trkpt>
      <trkpt lat="43.51394" lon="6.68583">
        <ele>182</ele>
        <time>2025-10-26T10:17:02Z</time>
      </trkpt>
      <trkpt lat="43.51394" lon="6.68583">
        <ele>182</ele>
        <time>2025-10-26T10:17:03Z</time>
      </trkpt>
      <trkpt lat="43.51394" lon="6.68583">
        <ele>182</ele>
        <time>2025-10-26T10:17:04Z</time>
      </trkpt>
      <trkpt lat="43.51394" lon="6.68583">
        <ele>181.9</ele>
        <time>2025-10-26T10:17:05Z</time>
      </trkpt>
      <trkpt lat="43.51394" lon="6.68583">
        <ele>181.9</ele>
        <time>2025-10-26T10:17:06Z</time>
      </trkpt>
      <trkpt lat="43.51394" lon="6.68584">
        <ele>181.8</ele>
        <time>2025-10-26T10:17:07Z</time>
      </trkpt>
      <trkpt lat="43.51394" lon="6.68584">
        <ele>181.8</ele>
        <time>2025-10-26T10:17:08Z</time>
      </trkpt>
      <trkpt lat="43.51394" lon="6.68584">
        <ele>181.8</ele>
        <time>2025-10-26T10:17:09Z</time>
      </trkpt>
      <trkpt lat="43.51394" lon="6.68584">
        <ele>181.8</ele>
        <time>2025-10-26T10:17:10Z</time>
      </trkpt>
      <trkpt lat="43.51394" lon="6.68583">
        <ele>181.7</ele>
        <time>2025-10-26T10:17:11Z</time>
      </trkpt>
      <trkpt lat="43.51394" lon="6.68584">
        <ele>181.7</ele>
        <time>2025-10-26T10:17:12Z</time>
      </trkpt>
      <trkpt lat="43.51394" lon="6.68584">
        <ele>181.7</ele>
        <time>2025-10-26T10:17:13Z</time>
      </trkpt>
      <trkpt lat="43.51394" lon="6.68584">
        <ele>181.7</ele>
        <time>2025-10-26T10:17:14Z</time>
      </trkpt>
      <trkpt lat="43.51394" lon="6.68584">
        <ele>181.7</ele>
        <time>2025-10-26T10:17:15Z</time>
      </trkpt>
      <trkpt lat="43.51394" lon="6.68584">
        <ele>181.7</ele>
        <time>2025-10-26T10:17:16Z</time>
      </trkpt>
      <trkpt lat="43.51394" lon="6.68584">
        <ele>181.7</ele>
        <time>2025-10-26T10:17:17Z</time>
      </trkpt>
      <trkpt lat="43.51394" lon="6.68584">
        <ele>181.7</ele>
        <time>2025-10-26T10:17:18Z</time>
      </trkpt>
      <trkpt lat="43.51394" lon="6.68584">
        <ele>181.7</ele>
        <time>2025-10-26T10:17:19Z</time>
      </trkpt>
      <trkpt lat="43.51395" lon="6.68584">
        <ele>181.7</ele>
        <time>2025-10-26T10:17:20Z</time>
      </trkpt>
      <trkpt lat="43.51395" lon="6.68584">
        <ele>181.6</ele>
        <time>2025-10-26T10:17:21Z</time>
      </trkpt>
      <trkpt lat="43.51395" lon="6.68584">
        <ele>181.6</ele>
        <time>2025-10-26T10:17:22Z</time>
      </trkpt>
      <trkpt lat="43.51395" lon="6.68584">
        <ele>181.6</ele>
        <time>2025-10-26T10:17:23Z</time>
      </trkpt>
      <trkpt lat="43.51395" lon="6.68584">
        <ele>181.6</ele>
        <time>2025-10-26T10:17:24Z</time>
      </trkpt>
      <trkpt lat="43.51395" lon="6.68584">
        <ele>181.6</ele>
        <time>2025-10-26T10:17:25Z</time>
      </trkpt>
      <trkpt lat="43.51395" lon="6.68584">
        <ele>181.7</ele>
        <time>2025-10-26T10:17:26Z</time>
      </trkpt>
      <trkpt lat="43.51396" lon="6.68583">
        <ele>181.8</ele>
        <time>2025-10-26T10:17:27Z</time>
      </trkpt>
      <trkpt lat="43.51396" lon="6.68583">
        <ele>181.9</ele>
        <time>2025-10-26T10:17:28Z</time>
      </trkpt>
      <trkpt lat="43.51396" lon="6.68584">
        <ele>181.9</ele>
        <time>2025-10-26T10:17:29Z</time>
      </trkpt>
      <trkpt lat="43.51396" lon="6.68584">
        <ele>181.8</ele>
        <time>2025-10-26T10:17:30Z</time>
      </trkpt>
      <trkpt lat="43.51396" lon="6.68583">
        <ele>181.8</ele>
        <time>2025-10-26T10:17:31Z</time>
      </trkpt>
      <trkpt lat="43.51396" lon="6.68583">
        <ele>181.8</ele>
        <time>2025-10-26T10:17:32Z</time>
      </trkpt>
      <trkpt lat="43.51396" lon="6.68583">
        <ele>181.8</ele>
        <time>2025-10-26T10:17:33Z</time>
      </trkpt>
      <trkpt lat="43.51396" lon="6.68583">
        <ele>181.7</ele>
        <time>2025-10-26T10:17:34Z</time>
      </trkpt>
      <trkpt lat="43.51396" lon="6.68584">
        <ele>181.7</ele>
        <time>2025-10-26T10:17:35Z</time>
      </trkpt>
      <trkpt lat="43.51397" lon="6.68583">
        <ele>181.7</ele>
        <time>2025-10-26T10:17:36Z</time>
      </trkpt>
      <trkpt lat="43.51397" lon="6.68583">
        <ele>181.6</ele>
        <time>2025-10-26T10:17:37Z</time>
      </trkpt>
      <trkpt lat="43.51397" lon="6.68583">
        <ele>181.6</ele>
        <time>2025-10-26T10:17:38Z</time>
      </trkpt>
      <trkpt lat="43.51397" lon="6.68583">
        <ele>181.6</ele>
        <time>2025-10-26T10:17:39Z</time>
      </trkpt>
      <trkpt lat="43.51397" lon="6.68583">
        <ele>181.4</ele>
        <time>2025-10-26T10:17:40Z</time>
      </trkpt>
      <trkpt lat="43.51397" lon="6.68583">
        <ele>181.3</ele>
        <time>2025-10-26T10:17:41Z</time>
      </trkpt>
      <trkpt lat="43.51397" lon="6.68583">
        <ele>181.3</ele>
        <time>2025-10-26T10:17:42Z</time>
      </trkpt>
      <trkpt lat="43.51397" lon="6.68583">
        <ele>181.3</ele>
        <time>2025-10-26T10:17:43Z</time>
      </trkpt>
      <trkpt lat="43.51397" lon="6.68583">
        <ele>181.3</ele>
        <time>2025-10-26T10:17:44Z</time>
      </trkpt>
      <trkpt lat="43.51397" lon="6.68582">
        <ele>181.3</ele>
        <time>2025-10-26T10:17:45Z</time>
      </trkpt>
      <trkpt lat="43.51397" lon="6.68582">
        <ele>181.4</ele>
        <time>2025-10-26T10:17:46Z</time>
      </trkpt>
      <trkpt lat="43.51397" lon="6.68581">
        <ele>181.4</ele>
        <time>2025-10-26T10:17:47Z</time>
      </trkpt>
      <trkpt lat="43.51396" lon="6.68581">
        <ele>181.4</ele>
        <time>2025-10-26T10:17:48Z</time>
      </trkpt>
      <trkpt lat="43.51396" lon="6.68581">
        <ele>181.4</ele>
        <time>2025-10-26T10:17:49Z</time>
      </trkpt>
      <trkpt lat="43.51395" lon="6.6858">
        <ele>181.3</ele>
        <time>2025-10-26T10:17:50Z</time>
      </trkpt>
      <trkpt lat="43.51395" lon="6.6858">
        <ele>181.3</ele>
        <time>2025-10-26T10:17:51Z</time>
      </trkpt>
      <trkpt lat="43.51395" lon="6.6858">
        <ele>181.3</ele>
        <time>2025-10-26T10:17:52Z</time>
      </trkpt>
      <trkpt lat="43.51395" lon="6.6858">
        <ele>181.3</ele>
        <time>2025-10-26T10:17:53Z</time>
      </trkpt>
      <trkpt lat="43.51395" lon="6.68581">
        <ele>181.3</ele>
        <time>2025-10-26T10:17:54Z</time>
      </trkpt>
      <trkpt lat="43.51394" lon="6.68581">
        <ele>181.3</ele>
        <time>2025-10-26T10:17:55Z</time>
      </trkpt>
      <trkpt lat="43.51394" lon="6.68581">
        <ele>181.3</ele>
        <time>2025-10-26T10:17:56Z</time>
      </trkpt>
      <trkpt lat="43.51394" lon="6.6858">
        <ele>181.3</ele>
        <time>2025-10-26T10:17:57Z</time>
      </trkpt>
      <trkpt lat="43.51394" lon="6.6858">
        <ele>181.3</ele>
        <time>2025-10-26T10:17:58Z</time>
      </trkpt>
      <trkpt lat="43.51393" lon="6.68579">
        <ele>181.3</ele>
        <time>2025-10-26T10:17:59Z</time>
      </trkpt>
      <trkpt lat="43.51392" lon="6.68578">
        <ele>181.3</ele>
        <time>2025-10-26T10:18:00Z</time>
      </trkpt>
      <trkpt lat="43.51392" lon="6.68578">
        <ele>181.2</ele>
        <time>2025-10-26T10:18:01Z</time>
      </trkpt>
      <trkpt lat="43.51391" lon="6.68578">
        <ele>181</ele>
        <time>2025-10-26T10:18:02Z</time>
      </trkpt>
      <trkpt lat="43.5139" lon="6.68577">
        <ele>180.9</ele>
        <time>2025-10-26T10:18:03Z</time>
      </trkpt>
      <trkpt lat="43.5139" lon="6.68577">
        <ele>180.8</ele>
        <time>2025-10-26T10:18:04Z</time>
      </trkpt>
      <trkpt lat="43.51389" lon="6.68576">
        <ele>180.6</ele>
        <time>2025-10-26T10:18:05Z</time>
      </trkpt>
      <trkpt lat="43.5139" lon="6.68575">
        <ele>180.5</ele>
        <time>2025-10-26T10:18:06Z</time>
      </trkpt>
      <trkpt lat="43.5139" lon="6.68574">
        <ele>180.4</ele>
        <time>2025-10-26T10:18:07Z</time>
      </trkpt>
      <trkpt lat="43.5139" lon="6.68573">
        <ele>180.3</ele>
        <time>2025-10-26T10:18:08Z</time>
      </trkpt>
      <trkpt lat="43.51389" lon="6.68573">
        <ele>180.2</ele>
        <time>2025-10-26T10:18:09Z</time>
      </trkpt>
      <trkpt lat="43.51389" lon="6.68572">
        <ele>180</ele>
        <time>2025-10-26T10:18:10Z</time>
      </trkpt>
      <trkpt lat="43.51388" lon="6.68572">
        <ele>179.9</ele>
        <time>2025-10-26T10:18:11Z</time>
      </trkpt>
      <trkpt lat="43.51389" lon="6.68572">
        <ele>179.7</ele>
        <time>2025-10-26T10:18:12Z</time>
      </trkpt>
      <trkpt lat="43.51389" lon="6.68571">
        <ele>179.6</ele>
        <time>2025-10-26T10:18:13Z</time>
      </trkpt>
      <trkpt lat="43.51388" lon="6.68571">
        <ele>179.4</ele>
        <time>2025-10-26T10:18:14Z</time>
      </trkpt>
      <trkpt lat="43.51388" lon="6.68571">
        <ele>179.4</ele>
        <time>2025-10-26T10:18:15Z</time>
      </trkpt>
      <trkpt lat="43.51388" lon="6.68571">
        <ele>179.3</ele>
        <time>2025-10-26T10:18:16Z</time>
      </trkpt>
      <trkpt lat="43.51389" lon="6.68571">
        <ele>179.3</ele>
        <time>2025-10-26T10:18:17Z</time>
      </trkpt>
      <trkpt lat="43.51389" lon="6.6857">
        <ele>179.2</ele>
        <time>2025-10-26T10:18:18Z</time>
      </trkpt>
      <trkpt lat="43.51389" lon="6.68569">
        <ele>179.1</ele>
        <time>2025-10-26T10:18:19Z</time>
      </trkpt>
      <trkpt lat="43.51389" lon="6.68568">
        <ele>179</ele>
        <time>2025-10-26T10:18:20Z</time>
      </trkpt>
      <trkpt lat="43.5139" lon="6.68568">
        <ele>178.9</ele>
        <time>2025-10-26T10:18:21Z</time>
      </trkpt>
      <trkpt lat="43.5139" lon="6.68567">
        <ele>178.7</ele>
        <time>2025-10-26T10:18:22Z</time>
      </trkpt>
      <trkpt lat="43.51391" lon="6.68566">
        <ele>178.7</ele>
        <time>2025-10-26T10:18:23Z</time>
      </trkpt>
      <trkpt lat="43.51391" lon="6.68566">
        <ele>178.7</ele>
        <time>2025-10-26T10:18:24Z</time>
      </trkpt>
      <trkpt lat="43.51391" lon="6.68565">
        <ele>178.8</ele>
        <time>2025-10-26T10:18:25Z</time>
      </trkpt>
      <trkpt lat="43.51391" lon="6.68565">
        <ele>178.8</ele>
        <time>2025-10-26T10:18:26Z</time>
      </trkpt>
      <trkpt lat="43.51391" lon="6.68564">
        <ele>178.8</ele>
        <time>2025-10-26T10:18:27Z</time>
      </trkpt>
      <trkpt lat="43.51391" lon="6.68563">
        <ele>178.7</ele>
        <time>2025-10-26T10:18:28Z</time>
      </trkpt>
      <trkpt lat="43.5139" lon="6.68563">
        <ele>178.6</ele>
        <time>2025-10-26T10:18:29Z</time>
      </trkpt>
      <trkpt lat="43.5139" lon="6.68563">
        <ele>178.4</ele>
        <time>2025-10-26T10:18:30Z</time>
      </trkpt>
      <trkpt lat="43.5139" lon="6.68563">
        <ele>178.3</ele>
        <time>2025-10-26T10:18:31Z</time>
      </trkpt>
      <trkpt lat="43.5139" lon="6.68563">
        <ele>178.2</ele>
        <time>2025-10-26T10:18:32Z</time>
      </trkpt>
      <trkpt lat="43.5139" lon="6.68562">
        <ele>178</ele>
        <time>2025-10-26T10:18:33Z</time>
      </trkpt>
      <trkpt lat="43.5139" lon="6.68561">
        <ele>177.9</ele>
        <time>2025-10-26T10:18:34Z</time>
      </trkpt>
      <trkpt lat="43.5139" lon="6.68561">
        <ele>177.8</ele>
        <time>2025-10-26T10:18:35Z</time>
      </trkpt>
      <trkpt lat="43.5139" lon="6.6856">
        <ele>177.7</ele>
        <time>2025-10-26T10:18:36Z</time>
      </trkpt>
      <trkpt lat="43.5139" lon="6.68559">
        <ele>177.6</ele>
        <time>2025-10-26T10:18:37Z</time>
      </trkpt>
      <trkpt lat="43.5139" lon="6.68558">
        <ele>177.5</ele>
        <time>2025-10-26T10:18:38Z</time>
      </trkpt>
      <trkpt lat="43.5139" lon="6.68558">
        <ele>177.4</ele>
        <time>2025-10-26T10:18:39Z</time>
      </trkpt>
      <trkpt lat="43.5139" lon="6.68558">
        <ele>177.3</ele>
        <time>2025-10-26T10:18:40Z</time>
      </trkpt>
      <trkpt lat="43.51391" lon="6.68557">
        <ele>177.2</ele>
        <time>2025-10-26T10:18:41Z</time>
      </trkpt>
      <trkpt lat="43.51391" lon="6.68557">
        <ele>177.1</ele>
        <time>2025-10-26T10:18:42Z</time>
      </trkpt>
      <trkpt lat="43.51391" lon="6.68556">
        <ele>177.1</ele>
        <time>2025-10-26T10:18:43Z</time>
      </trkpt>
      <trkpt lat="43.5139" lon="6.68555">
        <ele>176.9</ele>
        <time>2025-10-26T10:18:44Z</time>
      </trkpt>
      <trkpt lat="43.5139" lon="6.68554">
        <ele>176.8</ele>
        <time>2025-10-26T10:18:45Z</time>
      </trkpt>
      <trkpt lat="43.5139" lon="6.68553">
        <ele>176.7</ele>
        <time>2025-10-26T10:18:46Z</time>
      </trkpt>
      <trkpt lat="43.5139" lon="6.68552">
        <ele>176.5</ele>
        <time>2025-10-26T10:18:47Z</time>
      </trkpt>
      <trkpt lat="43.5139" lon="6.68551">
        <ele>176.3</ele>
        <time>2025-10-26T10:18:48Z</time>
      </trkpt>
      <trkpt lat="43.5139" lon="6.6855">
        <ele>176.2</ele>
        <time>2025-10-26T10:18:49Z</time>
      </trkpt>
      <trkpt lat="43.5139" lon="6.68549">
        <ele>176</ele>
        <time>2025-10-26T10:18:50Z</time>
      </trkpt>
      <trkpt lat="43.5139" lon="6.68548">
        <ele>175.8</ele>
        <time>2025-10-26T10:18:51Z</time>
      </trkpt>
      <trkpt lat="43.5139" lon="6.68547">
        <ele>175.6</ele>
        <time>2025-10-26T10:18:52Z</time>
      </trkpt>
      <trkpt lat="43.51391" lon="6.68546">
        <ele>175.5</ele>
        <time>2025-10-26T10:18:53Z</time>
      </trkpt>
      <trkpt lat="43.51391" lon="6.68545">
        <ele>175.4</ele>
        <time>2025-10-26T10:18:54Z</time>
      </trkpt>
      <trkpt lat="43.51391" lon="6.68544">
        <ele>175.2</ele>
        <time>2025-10-26T10:18:55Z</time>
      </trkpt>
      <trkpt lat="43.51391" lon="6.68543">
        <ele>175.1</ele>
        <time>2025-10-26T10:18:56Z</time>
      </trkpt>
      <trkpt lat="43.5139" lon="6.68542">
        <ele>174.9</ele>
        <time>2025-10-26T10:18:57Z</time>
      </trkpt>
      <trkpt lat="43.5139" lon="6.68542">
        <ele>174.7</ele>
        <time>2025-10-26T10:18:58Z</time>
      </trkpt>
      <trkpt lat="43.5139" lon="6.68542">
        <ele>174.6</ele>
        <time>2025-10-26T10:18:59Z</time>
      </trkpt>
      <trkpt lat="43.51389" lon="6.68542">
        <ele>174.6</ele>
        <time>2025-10-26T10:19:00Z</time>
      </trkpt>
      <trkpt lat="43.51389" lon="6.68542">
        <ele>174.5</ele>
        <time>2025-10-26T10:19:01Z</time>
      </trkpt>
      <trkpt lat="43.51389" lon="6.68542">
        <ele>174.5</ele>
        <time>2025-10-26T10:19:02Z</time>
      </trkpt>
      <trkpt lat="43.51389" lon="6.68543">
        <ele>174.4</ele>
        <time>2025-10-26T10:19:03Z</time>
      </trkpt>
      <trkpt lat="43.51389" lon="6.68543">
        <ele>174.4</ele>
        <time>2025-10-26T10:19:04Z</time>
      </trkpt>
      <trkpt lat="43.51389" lon="6.68543">
        <ele>174.2</ele>
        <time>2025-10-26T10:19:05Z</time>
      </trkpt>
      <trkpt lat="43.51389" lon="6.68543">
        <ele>174.3</ele>
        <time>2025-10-26T10:19:06Z</time>
      </trkpt>
      <trkpt lat="43.51389" lon="6.68543">
        <ele>174.3</ele>
        <time>2025-10-26T10:19:07Z</time>
      </trkpt>
      <trkpt lat="43.51389" lon="6.68543">
        <ele>174.3</ele>
        <time>2025-10-26T10:19:08Z</time>
      </trkpt>
      <trkpt lat="43.51389" lon="6.68542">
        <ele>174.3</ele>
        <time>2025-10-26T10:19:09Z</time>
      </trkpt>
      <trkpt lat="43.51389" lon="6.68541">
        <ele>174.4</ele>
        <time>2025-10-26T10:19:10Z</time>
      </trkpt>
      <trkpt lat="43.51389" lon="6.6854">
        <ele>174.3</ele>
        <time>2025-10-26T10:19:11Z</time>
      </trkpt>
      <trkpt lat="43.51389" lon="6.68539">
        <ele>174.2</ele>
        <time>2025-10-26T10:19:12Z</time>
      </trkpt>
      <trkpt lat="43.51389" lon="6.68538">
        <ele>174.2</ele>
        <time>2025-10-26T10:19:13Z</time>
      </trkpt>
      <trkpt lat="43.51389" lon="6.68537">
        <ele>174.1</ele>
        <time>2025-10-26T10:19:14Z</time>
      </trkpt>
      <trkpt lat="43.51389" lon="6.68536">
        <ele>174</ele>
        <time>2025-10-26T10:19:15Z</time>
      </trkpt>
      <trkpt lat="43.51389" lon="6.68534">
        <ele>173.9</ele>
        <time>2025-10-26T10:19:16Z</time>
      </trkpt>
      <trkpt lat="43.51389" lon="6.68534">
        <ele>173.8</ele>
        <time>2025-10-26T10:19:17Z</time>
      </trkpt>
      <trkpt lat="43.51389" lon="6.68533">
        <ele>173.7</ele>
        <time>2025-10-26T10:19:18Z</time>
      </trkpt>
      <trkpt lat="43.51389" lon="6.68532">
        <ele>173.5</ele>
        <time>2025-10-26T10:19:19Z</time>
      </trkpt>
      <trkpt lat="43.51389" lon="6.68532">
        <ele>173.4</ele>
        <time>2025-10-26T10:19:20Z</time>
      </trkpt>
      <trkpt lat="43.51389" lon="6.68531">
        <ele>173.3</ele>
        <time>2025-10-26T10:19:21Z</time>
      </trkpt>
      <trkpt lat="43.51388" lon="6.68531">
        <ele>173.1</ele>
        <time>2025-10-26T10:19:22Z</time>
      </trkpt>
      <trkpt lat="43.51388" lon="6.6853">
        <ele>173</ele>
        <time>2025-10-26T10:19:23Z</time>
      </trkpt>
      <trkpt lat="43.51388" lon="6.68529">
        <ele>173</ele>
        <time>2025-10-26T10:19:24Z</time>
      </trkpt>
      <trkpt lat="43.51388" lon="6.68528">
        <ele>172.8</ele>
        <time>2025-10-26T10:19:25Z</time>
      </trkpt>
      <trkpt lat="43.51388" lon="6.68527">
        <ele>172.6</ele>
        <time>2025-10-26T10:19:26Z</time>
      </trkpt>
      <trkpt lat="43.51388" lon="6.68527">
        <ele>172.5</ele>
        <time>2025-10-26T10:19:27Z</time>
      </trkpt>
      <trkpt lat="43.51388" lon="6.68526">
        <ele>172.3</ele>
        <time>2025-10-26T10:19:28Z</time>
      </trkpt>
      <trkpt lat="43.51389" lon="6.68524">
        <ele>172.1</ele>
        <time>2025-10-26T10:19:29Z</time>
      </trkpt>
      <trkpt lat="43.51388" lon="6.68522">
        <ele>172</ele>
        <time>2025-10-26T10:19:30Z</time>
      </trkpt>
      <trkpt lat="43.51388" lon="6.68521">
        <ele>171.8</ele>
        <time>2025-10-26T10:19:31Z</time>
      </trkpt>
      <trkpt lat="43.51388" lon="6.6852">
        <ele>171.6</ele>
        <time>2025-10-26T10:19:32Z</time>
      </trkpt>
      <trkpt lat="43.51387" lon="6.68519">
        <ele>171.5</ele>
        <time>2025-10-26T10:19:33Z</time>
      </trkpt>
      <trkpt lat="43.51387" lon="6.68518">
        <ele>171.4</ele>
        <time>2025-10-26T10:19:34Z</time>
      </trkpt>
      <trkpt lat="43.51386" lon="6.68517">
        <ele>171.3</ele>
        <time>2025-10-26T10:19:35Z</time>
      </trkpt>
      <trkpt lat="43.51386" lon="6.68515">
        <ele>171.1</ele>
        <time>2025-10-26T10:19:36Z</time>
      </trkpt>
      <trkpt lat="43.51386" lon="6.68514">
        <ele>171</ele>
        <time>2025-10-26T10:19:37Z</time>
      </trkpt>
      <trkpt lat="43.51385" lon="6.68513">
        <ele>170.8</ele>
        <time>2025-10-26T10:19:38Z</time>
      </trkpt>
      <trkpt lat="43.51385" lon="6.68512">
        <ele>170.6</ele>
        <time>2025-10-26T10:19:39Z</time>
      </trkpt>
      <trkpt lat="43.51385" lon="6.68512">
        <ele>170.4</ele>
        <time>2025-10-26T10:19:40Z</time>
      </trkpt>
      <trkpt lat="43.51385" lon="6.68512">
        <ele>170.2</ele>
        <time>2025-10-26T10:19:41Z</time>
      </trkpt>
      <trkpt lat="43.51385" lon="6.68512">
        <ele>170.1</ele>
        <time>2025-10-26T10:19:42Z</time>
      </trkpt>
      <trkpt lat="43.51385" lon="6.68511">
        <ele>170</ele>
        <time>2025-10-26T10:19:43Z</time>
      </trkpt>
      <trkpt lat="43.51385" lon="6.68511">
        <ele>169.9</ele>
        <time>2025-10-26T10:19:44Z</time>
      </trkpt>
      <trkpt lat="43.51385" lon="6.6851">
        <ele>169.8</ele>
        <time>2025-10-26T10:19:45Z</time>
      </trkpt>
      <trkpt lat="43.51384" lon="6.68509">
        <ele>169.7</ele>
        <time>2025-10-26T10:19:46Z</time>
      </trkpt>
      <trkpt lat="43.51384" lon="6.68508">
        <ele>169.6</ele>
        <time>2025-10-26T10:19:47Z</time>
      </trkpt>
      <trkpt lat="43.51383" lon="6.68507">
        <ele>169.5</ele>
        <time>2025-10-26T10:19:48Z</time>
      </trkpt>
      <trkpt lat="43.51382" lon="6.68507">
        <ele>169.4</ele>
        <time>2025-10-26T10:19:49Z</time>
      </trkpt>
      <trkpt lat="43.51381" lon="6.68507">
        <ele>169.3</ele>
        <time>2025-10-26T10:19:50Z</time>
      </trkpt>
      <trkpt lat="43.51381" lon="6.68507">
        <ele>169.3</ele>
        <time>2025-10-26T10:19:51Z</time>
      </trkpt>
      <trkpt lat="43.51381" lon="6.68507">
        <ele>169.3</ele>
        <time>2025-10-26T10:19:52Z</time>
      </trkpt>
      <trkpt lat="43.51381" lon="6.68506">
        <ele>169.3</ele>
        <time>2025-10-26T10:19:53Z</time>
      </trkpt>
      <trkpt lat="43.5138" lon="6.68505">
        <ele>169.3</ele>
        <time>2025-10-26T10:19:54Z</time>
      </trkpt>
      <trkpt lat="43.5138" lon="6.68504">
        <ele>169.3</ele>
        <time>2025-10-26T10:19:55Z</time>
      </trkpt>
      <trkpt lat="43.51378" lon="6.68503">
        <ele>169.3</ele>
        <time>2025-10-26T10:19:56Z</time>
      </trkpt>
      <trkpt lat="43.51378" lon="6.68503">
        <ele>169.3</ele>
        <time>2025-10-26T10:19:57Z</time>
      </trkpt>
      <trkpt lat="43.51377" lon="6.68503">
        <ele>169.2</ele>
        <time>2025-10-26T10:19:58Z</time>
      </trkpt>
      <trkpt lat="43.51376" lon="6.68502">
        <ele>169.1</ele>
        <time>2025-10-26T10:19:59Z</time>
      </trkpt>
      <trkpt lat="43.51375" lon="6.68502">
        <ele>169.2</ele>
        <time>2025-10-26T10:20:00Z</time>
      </trkpt>
      <trkpt lat="43.51375" lon="6.68501">
        <ele>169.1</ele>
        <time>2025-10-26T10:20:01Z</time>
      </trkpt>
      <trkpt lat="43.51374" lon="6.68501">
        <ele>169.1</ele>
        <time>2025-10-26T10:20:02Z</time>
      </trkpt>
      <trkpt lat="43.51373" lon="6.685">
        <ele>169</ele>
        <time>2025-10-26T10:20:03Z</time>
      </trkpt>
      <trkpt lat="43.51372" lon="6.685">
        <ele>169</ele>
        <time>2025-10-26T10:20:04Z</time>
      </trkpt>
      <trkpt lat="43.51371" lon="6.68499">
        <ele>168.9</ele>
        <time>2025-10-26T10:20:05Z</time>
      </trkpt>
      <trkpt lat="43.51369" lon="6.68499">
        <ele>168.8</ele>
        <time>2025-10-26T10:20:06Z</time>
      </trkpt>
      <trkpt lat="43.51368" lon="6.68499">
        <ele>168.7</ele>
        <time>2025-10-26T10:20:07Z</time>
      </trkpt>
      <trkpt lat="43.51367" lon="6.68498">
        <ele>168.7</ele>
        <time>2025-10-26T10:20:08Z</time>
      </trkpt>
      <trkpt lat="43.51366" lon="6.68498">
        <ele>168.7</ele>
        <time>2025-10-26T10:20:09Z</time>
      </trkpt>
      <trkpt lat="43.51365" lon="6.68497">
        <ele>168.6</ele>
        <time>2025-10-26T10:20:10Z</time>
      </trkpt>
      <trkpt lat="43.51364" lon="6.68497">
        <ele>168.6</ele>
        <time>2025-10-26T10:20:11Z</time>
      </trkpt>
      <trkpt lat="43.51363" lon="6.68495">
        <ele>168.5</ele>
        <time>2025-10-26T10:20:12Z</time>
      </trkpt>
      <trkpt lat="43.51363" lon="6.68494">
        <ele>168.3</ele>
        <time>2025-10-26T10:20:13Z</time>
      </trkpt>
      <trkpt lat="43.51362" lon="6.68493">
        <ele>168.3</ele>
        <time>2025-10-26T10:20:14Z</time>
      </trkpt>
      <trkpt lat="43.51362" lon="6.68491">
        <ele>168.3</ele>
        <time>2025-10-26T10:20:15Z</time>
      </trkpt>
      <trkpt lat="43.51361" lon="6.6849">
        <ele>168.3</ele>
        <time>2025-10-26T10:20:16Z</time>
      </trkpt>
      <trkpt lat="43.51361" lon="6.68489">
        <ele>168.3</ele>
        <time>2025-10-26T10:20:17Z</time>
      </trkpt>
      <trkpt lat="43.51361" lon="6.68488">
        <ele>168.3</ele>
        <time>2025-10-26T10:20:18Z</time>
      </trkpt>
      <trkpt lat="43.5136" lon="6.68487">
        <ele>168.1</ele>
        <time>2025-10-26T10:20:19Z</time>
      </trkpt>
      <trkpt lat="43.51359" lon="6.68486">
        <ele>168</ele>
        <time>2025-10-26T10:20:20Z</time>
      </trkpt>
      <trkpt lat="43.51359" lon="6.68486">
        <ele>168</ele>
        <time>2025-10-26T10:20:21Z</time>
      </trkpt>
      <trkpt lat="43.51359" lon="6.68486">
        <ele>168.1</ele>
        <time>2025-10-26T10:20:22Z</time>
      </trkpt>
      <trkpt lat="43.51359" lon="6.68485">
        <ele>168.2</ele>
        <time>2025-10-26T10:20:23Z</time>
      </trkpt>
      <trkpt lat="43.51358" lon="6.68485">
        <ele>168.3</ele>
        <time>2025-10-26T10:20:24Z</time>
      </trkpt>
      <trkpt lat="43.51359" lon="6.68485">
        <ele>168.3</ele>
        <time>2025-10-26T10:20:25Z</time>
      </trkpt>
      <trkpt lat="43.51358" lon="6.68485">
        <ele>168.3</ele>
        <time>2025-10-26T10:20:26Z</time>
      </trkpt>
      <trkpt lat="43.51358" lon="6.68485">
        <ele>168.4</ele>
        <time>2025-10-26T10:20:27Z</time>
      </trkpt>
      <trkpt lat="43.51358" lon="6.68485">
        <ele>168.3</ele>
        <time>2025-10-26T10:20:28Z</time>
      </trkpt>
      <trkpt lat="43.51357" lon="6.68485">
        <ele>168.3</ele>
        <time>2025-10-26T10:20:29Z</time>
      </trkpt>
      <trkpt lat="43.51356" lon="6.68485">
        <ele>168.2</ele>
        <time>2025-10-26T10:20:30Z</time>
      </trkpt>
      <trkpt lat="43.51356" lon="6.68485">
        <ele>168.2</ele>
        <time>2025-10-26T10:20:31Z</time>
      </trkpt>
      <trkpt lat="43.51355" lon="6.68485">
        <ele>168.1</ele>
        <time>2025-10-26T10:20:32Z</time>
      </trkpt>
      <trkpt lat="43.51355" lon="6.68484">
        <ele>168</ele>
        <time>2025-10-26T10:20:33Z</time>
      </trkpt>
      <trkpt lat="43.51354" lon="6.68484">
        <ele>167.9</ele>
        <time>2025-10-26T10:20:34Z</time>
      </trkpt>
      <trkpt lat="43.51353" lon="6.68483">
        <ele>167.9</ele>
        <time>2025-10-26T10:20:35Z</time>
      </trkpt>
      <trkpt lat="43.51352" lon="6.68482">
        <ele>167.7</ele>
        <time>2025-10-26T10:20:36Z</time>
      </trkpt>
      <trkpt lat="43.51352" lon="6.68482">
        <ele>167.6</ele>
        <time>2025-10-26T10:20:37Z</time>
      </trkpt>
      <trkpt lat="43.51351" lon="6.68481">
        <ele>167.5</ele>
        <time>2025-10-26T10:20:38Z</time>
      </trkpt>
      <trkpt lat="43.5135" lon="6.68481">
        <ele>167.3</ele>
        <time>2025-10-26T10:20:39Z</time>
      </trkpt>
      <trkpt lat="43.51349" lon="6.68481">
        <ele>167.2</ele>
        <time>2025-10-26T10:20:40Z</time>
      </trkpt>
      <trkpt lat="43.51349" lon="6.6848">
        <ele>167.2</ele>
        <time>2025-10-26T10:20:41Z</time>
      </trkpt>
      <trkpt lat="43.51349" lon="6.6848">
        <ele>167.3</ele>
        <time>2025-10-26T10:20:42Z</time>
      </trkpt>
      <trkpt lat="43.51349" lon="6.6848">
        <ele>167.4</ele>
        <time>2025-10-26T10:20:43Z</time>
      </trkpt>
      <trkpt lat="43.51348" lon="6.68479">
        <ele>167.4</ele>
        <time>2025-10-26T10:20:44Z</time>
      </trkpt>
      <trkpt lat="43.51347" lon="6.68479">
        <ele>167.3</ele>
        <time>2025-10-26T10:20:45Z</time>
      </trkpt>
      <trkpt lat="43.51347" lon="6.68478">
        <ele>167.2</ele>
        <time>2025-10-26T10:20:46Z</time>
      </trkpt>
      <trkpt lat="43.51346" lon="6.68478">
        <ele>167.1</ele>
        <time>2025-10-26T10:20:47Z</time>
      </trkpt>
      <trkpt lat="43.51345" lon="6.68478">
        <ele>166.9</ele>
        <time>2025-10-26T10:20:48Z</time>
      </trkpt>
      <trkpt lat="43.51345" lon="6.68478">
        <ele>166.7</ele>
        <time>2025-10-26T10:20:49Z</time>
      </trkpt>
      <trkpt lat="43.51344" lon="6.68477">
        <ele>166.5</ele>
        <time>2025-10-26T10:20:50Z</time>
      </trkpt>
      <trkpt lat="43.51343" lon="6.68477">
        <ele>166.3</ele>
        <time>2025-10-26T10:20:51Z</time>
      </trkpt>
      <trkpt lat="43.51342" lon="6.68476">
        <ele>166.1</ele>
        <time>2025-10-26T10:20:52Z</time>
      </trkpt>
      <trkpt lat="43.51342" lon="6.68476">
        <ele>165.7</ele>
        <time>2025-10-26T10:20:53Z</time>
      </trkpt>
      <trkpt lat="43.51341" lon="6.68476">
        <ele>165.4</ele>
        <time>2025-10-26T10:20:54Z</time>
      </trkpt>
      <trkpt lat="43.5134" lon="6.68476">
        <ele>165.2</ele>
        <time>2025-10-26T10:20:55Z</time>
      </trkpt>
      <trkpt lat="43.5134" lon="6.68475">
        <ele>165.2</ele>
        <time>2025-10-26T10:20:56Z</time>
      </trkpt>
      <trkpt lat="43.51339" lon="6.68474">
        <ele>165</ele>
        <time>2025-10-26T10:20:57Z</time>
      </trkpt>
      <trkpt lat="43.51338" lon="6.68472">
        <ele>164.9</ele>
        <time>2025-10-26T10:20:58Z</time>
      </trkpt>
      <trkpt lat="43.51337" lon="6.68471">
        <ele>164.7</ele>
        <time>2025-10-26T10:20:59Z</time>
      </trkpt>
      <trkpt lat="43.51337" lon="6.68471">
        <ele>164.5</ele>
        <time>2025-10-26T10:21:00Z</time>
      </trkpt>
      <trkpt lat="43.51336" lon="6.68471">
        <ele>164.3</ele>
        <time>2025-10-26T10:21:01Z</time>
      </trkpt>
      <trkpt lat="43.51335" lon="6.68471">
        <ele>164.2</ele>
        <time>2025-10-26T10:21:02Z</time>
      </trkpt>
      <trkpt lat="43.51334" lon="6.68471">
        <ele>164.1</ele>
        <time>2025-10-26T10:21:03Z</time>
      </trkpt>
      <trkpt lat="43.51334" lon="6.6847">
        <ele>164</ele>
        <time>2025-10-26T10:21:04Z</time>
      </trkpt>
      <trkpt lat="43.51334" lon="6.6847">
        <ele>163.9</ele>
        <time>2025-10-26T10:21:05Z</time>
      </trkpt>
      <trkpt lat="43.51333" lon="6.6847">
        <ele>163.9</ele>
        <time>2025-10-26T10:21:06Z</time>
      </trkpt>
      <trkpt lat="43.51333" lon="6.6847">
        <ele>163.9</ele>
        <time>2025-10-26T10:21:07Z</time>
      </trkpt>
      <trkpt lat="43.51333" lon="6.68469">
        <ele>164</ele>
        <time>2025-10-26T10:21:08Z</time>
      </trkpt>
      <trkpt lat="43.51332" lon="6.68469">
        <ele>164</ele>
        <time>2025-10-26T10:21:09Z</time>
      </trkpt>
      <trkpt lat="43.51331" lon="6.68468">
        <ele>164</ele>
        <time>2025-10-26T10:21:10Z</time>
      </trkpt>
      <trkpt lat="43.5133" lon="6.68467">
        <ele>164</ele>
        <time>2025-10-26T10:21:11Z</time>
      </trkpt>
      <trkpt lat="43.51329" lon="6.68467">
        <ele>163.9</ele>
        <time>2025-10-26T10:21:12Z</time>
      </trkpt>
      <trkpt lat="43.51329" lon="6.68466">
        <ele>163.9</ele>
        <time>2025-10-26T10:21:13Z</time>
      </trkpt>
      <trkpt lat="43.51329" lon="6.68465">
        <ele>164</ele>
        <time>2025-10-26T10:21:14Z</time>
      </trkpt>
      <trkpt lat="43.51329" lon="6.68465">
        <ele>164</ele>
        <time>2025-10-26T10:21:15Z</time>
      </trkpt>
      <trkpt lat="43.51328" lon="6.68464">
        <ele>163.9</ele>
        <time>2025-10-26T10:21:16Z</time>
      </trkpt>
      <trkpt lat="43.51328" lon="6.68462">
        <ele>164</ele>
        <time>2025-10-26T10:21:17Z</time>
      </trkpt>
      <trkpt lat="43.51327" lon="6.68461">
        <ele>164</ele>
        <time>2025-10-26T10:21:18Z</time>
      </trkpt>
      <trkpt lat="43.51326" lon="6.68461">
        <ele>164.2</ele>
        <time>2025-10-26T10:21:19Z</time>
      </trkpt>
      <trkpt lat="43.51326" lon="6.6846">
        <ele>164.3</ele>
        <time>2025-10-26T10:21:20Z</time>
      </trkpt>
      <trkpt lat="43.51325" lon="6.6846">
        <ele>164.3</ele>
        <time>2025-10-26T10:21:21Z</time>
      </trkpt>
      <trkpt lat="43.51325" lon="6.68459">
        <ele>164.4</ele>
        <time>2025-10-26T10:21:22Z</time>
      </trkpt>
      <trkpt lat="43.51324" lon="6.68459">
        <ele>164.6</ele>
        <time>2025-10-26T10:21:23Z</time>
      </trkpt>
      <trkpt lat="43.51324" lon="6.6846">
        <ele>164.6</ele>
        <time>2025-10-26T10:21:24Z</time>
      </trkpt>
      <trkpt lat="43.51323" lon="6.6846">
        <ele>164.7</ele>
        <time>2025-10-26T10:21:25Z</time>
      </trkpt>
      <trkpt lat="43.51323" lon="6.6846">
        <ele>164.8</ele>
        <time>2025-10-26T10:21:26Z</time>
      </trkpt>
      <trkpt lat="43.51323" lon="6.6846">
        <ele>164.8</ele>
        <time>2025-10-26T10:21:27Z</time>
      </trkpt>
      <trkpt lat="43.51323" lon="6.6846">
        <ele>164.8</ele>
        <time>2025-10-26T10:21:28Z</time>
      </trkpt>
      <trkpt lat="43.51323" lon="6.68459">
        <ele>164.9</ele>
        <time>2025-10-26T10:21:29Z</time>
      </trkpt>
      <trkpt lat="43.51323" lon="6.68459">
        <ele>165</ele>
        <time>2025-10-26T10:21:30Z</time>
      </trkpt>
      <trkpt lat="43.51322" lon="6.68459">
        <ele>164.9</ele>
        <time>2025-10-26T10:21:31Z</time>
      </trkpt>
      <trkpt lat="43.51322" lon="6.6846">
        <ele>164.9</ele>
        <time>2025-10-26T10:21:32Z</time>
      </trkpt>
      <trkpt lat="43.51322" lon="6.68459">
        <ele>164.9</ele>
        <time>2025-10-26T10:21:33Z</time>
      </trkpt>
      <trkpt lat="43.51322" lon="6.68459">
        <ele>165</ele>
        <time>2025-10-26T10:21:34Z</time>
      </trkpt>
      <trkpt lat="43.51322" lon="6.6846">
        <ele>165.1</ele>
        <time>2025-10-26T10:21:35Z</time>
      </trkpt>
      <trkpt lat="43.51322" lon="6.68459">
        <ele>165.2</ele>
        <time>2025-10-26T10:21:36Z</time>
      </trkpt>
      <trkpt lat="43.51322" lon="6.68459">
        <ele>165.2</ele>
        <time>2025-10-26T10:21:37Z</time>
      </trkpt>
      <trkpt lat="43.51321" lon="6.68459">
        <ele>165.3</ele>
        <time>2025-10-26T10:21:38Z</time>
      </trkpt>
      <trkpt lat="43.51321" lon="6.6846">
        <ele>165.4</ele>
        <time>2025-10-26T10:21:39Z</time>
      </trkpt>
      <trkpt lat="43.51321" lon="6.6846">
        <ele>165.5</ele>
        <time>2025-10-26T10:21:40Z</time>
      </trkpt>
      <trkpt lat="43.51321" lon="6.6846">
        <ele>165.4</ele>
        <time>2025-10-26T10:21:41Z</time>
      </trkpt>
      <trkpt lat="43.51321" lon="6.6846">
        <ele>165.5</ele>
        <time>2025-10-26T10:21:42Z</time>
      </trkpt>
      <trkpt lat="43.5132" lon="6.6846">
        <ele>165.5</ele>
        <time>2025-10-26T10:21:43Z</time>
      </trkpt>
      <trkpt lat="43.5132" lon="6.6846">
        <ele>165.5</ele>
        <time>2025-10-26T10:21:44Z</time>
      </trkpt>
      <trkpt lat="43.5132" lon="6.6846">
        <ele>165.5</ele>
        <time>2025-10-26T10:21:45Z</time>
      </trkpt>
      <trkpt lat="43.51321" lon="6.6846">
        <ele>165.5</ele>
        <time>2025-10-26T10:21:46Z</time>
      </trkpt>
      <trkpt lat="43.5132" lon="6.68459">
        <ele>165.4</ele>
        <time>2025-10-26T10:21:47Z</time>
      </trkpt>
      <trkpt lat="43.5132" lon="6.68458">
        <ele>165.4</ele>
        <time>2025-10-26T10:21:48Z</time>
      </trkpt>
      <trkpt lat="43.51319" lon="6.68457">
        <ele>165.4</ele>
        <time>2025-10-26T10:21:49Z</time>
      </trkpt>
      <trkpt lat="43.51318" lon="6.68457">
        <ele>165.3</ele>
        <time>2025-10-26T10:21:50Z</time>
      </trkpt>
      <trkpt lat="43.51317" lon="6.68456">
        <ele>165.3</ele>
        <time>2025-10-26T10:21:51Z</time>
      </trkpt>
      <trkpt lat="43.51316" lon="6.68455">
        <ele>165.3</ele>
        <time>2025-10-26T10:21:52Z</time>
      </trkpt>
      <trkpt lat="43.51315" lon="6.68454">
        <ele>165.4</ele>
        <time>2025-10-26T10:21:53Z</time>
      </trkpt>
      <trkpt lat="43.51315" lon="6.68454">
        <ele>165.4</ele>
        <time>2025-10-26T10:21:54Z</time>
      </trkpt>
      <trkpt lat="43.51314" lon="6.68454">
        <ele>165.4</ele>
        <time>2025-10-26T10:21:55Z</time>
      </trkpt>
      <trkpt lat="43.51314" lon="6.68454">
        <ele>165.3</ele>
        <time>2025-10-26T10:21:56Z</time>
      </trkpt>
      <trkpt lat="43.51313" lon="6.68455">
        <ele>165.3</ele>
        <time>2025-10-26T10:21:57Z</time>
      </trkpt>
      <trkpt lat="43.51313" lon="6.68454">
        <ele>165.1</ele>
        <time>2025-10-26T10:21:58Z</time>
      </trkpt>
      <trkpt lat="43.51312" lon="6.68454">
        <ele>165.2</ele>
        <time>2025-10-26T10:21:59Z</time>
      </trkpt>
      <trkpt lat="43.51312" lon="6.68454">
        <ele>165.2</ele>
        <time>2025-10-26T10:22:00Z</time>
      </trkpt>
      <trkpt lat="43.51311" lon="6.68454">
        <ele>165.2</ele>
        <time>2025-10-26T10:22:01Z</time>
      </trkpt>
      <trkpt lat="43.5131" lon="6.68454">
        <ele>165.2</ele>
        <time>2025-10-26T10:22:02Z</time>
      </trkpt>
      <trkpt lat="43.51309" lon="6.68454">
        <ele>165.2</ele>
        <time>2025-10-26T10:22:03Z</time>
      </trkpt>
      <trkpt lat="43.51309" lon="6.68454">
        <ele>165.2</ele>
        <time>2025-10-26T10:22:04Z</time>
      </trkpt>
      <trkpt lat="43.51308" lon="6.68454">
        <ele>165.1</ele>
        <time>2025-10-26T10:22:05Z</time>
      </trkpt>
      <trkpt lat="43.51308" lon="6.68454">
        <ele>164.9</ele>
        <time>2025-10-26T10:22:06Z</time>
      </trkpt>
      <trkpt lat="43.51307" lon="6.68454">
        <ele>164.8</ele>
        <time>2025-10-26T10:22:07Z</time>
      </trkpt>
      <trkpt lat="43.51306" lon="6.68454">
        <ele>164.6</ele>
        <time>2025-10-26T10:22:08Z</time>
      </trkpt>
      <trkpt lat="43.51306" lon="6.68455">
        <ele>164.4</ele>
        <time>2025-10-26T10:22:09Z</time>
      </trkpt>
      <trkpt lat="43.51305" lon="6.68455">
        <ele>164.3</ele>
        <time>2025-10-26T10:22:10Z</time>
      </trkpt>
      <trkpt lat="43.51304" lon="6.68454">
        <ele>164.1</ele>
        <time>2025-10-26T10:22:11Z</time>
      </trkpt>
      <trkpt lat="43.51304" lon="6.68455">
        <ele>164</ele>
        <time>2025-10-26T10:22:12Z</time>
      </trkpt>
      <trkpt lat="43.51303" lon="6.68454">
        <ele>163.9</ele>
        <time>2025-10-26T10:22:13Z</time>
      </trkpt>
      <trkpt lat="43.51303" lon="6.68454">
        <ele>163.9</ele>
        <time>2025-10-26T10:22:14Z</time>
      </trkpt>
      <trkpt lat="43.51302" lon="6.68455">
        <ele>163.8</ele>
        <time>2025-10-26T10:22:15Z</time>
      </trkpt>
      <trkpt lat="43.51301" lon="6.68455">
        <ele>163.7</ele>
        <time>2025-10-26T10:22:16Z</time>
      </trkpt>
      <trkpt lat="43.513" lon="6.68455">
        <ele>163.5</ele>
        <time>2025-10-26T10:22:17Z</time>
      </trkpt>
      <trkpt lat="43.51299" lon="6.68456">
        <ele>163.4</ele>
        <time>2025-10-26T10:22:18Z</time>
      </trkpt>
      <trkpt lat="43.51299" lon="6.68456">
        <ele>163.3</ele>
        <time>2025-10-26T10:22:19Z</time>
      </trkpt>
      <trkpt lat="43.51298" lon="6.68456">
        <ele>163.1</ele>
        <time>2025-10-26T10:22:20Z</time>
      </trkpt>
      <trkpt lat="43.51297" lon="6.68456">
        <ele>163</ele>
        <time>2025-10-26T10:22:21Z</time>
      </trkpt>
      <trkpt lat="43.51296" lon="6.68457">
        <ele>162.9</ele>
        <time>2025-10-26T10:22:22Z</time>
      </trkpt>
      <trkpt lat="43.51296" lon="6.68457">
        <ele>162.8</ele>
        <time>2025-10-26T10:22:23Z</time>
      </trkpt>
      <trkpt lat="43.51295" lon="6.68457">
        <ele>162.7</ele>
        <time>2025-10-26T10:22:24Z</time>
      </trkpt>
      <trkpt lat="43.51294" lon="6.68457">
        <ele>162.6</ele>
        <time>2025-10-26T10:22:25Z</time>
      </trkpt>
      <trkpt lat="43.51293" lon="6.68458">
        <ele>162.5</ele>
        <time>2025-10-26T10:22:26Z</time>
      </trkpt>
      <trkpt lat="43.51292" lon="6.68459">
        <ele>162.3</ele>
        <time>2025-10-26T10:22:27Z</time>
      </trkpt>
      <trkpt lat="43.51292" lon="6.68459">
        <ele>162.2</ele>
        <time>2025-10-26T10:22:28Z</time>
      </trkpt>
      <trkpt lat="43.51291" lon="6.6846">
        <ele>162.1</ele>
        <time>2025-10-26T10:22:29Z</time>
      </trkpt>
      <trkpt lat="43.5129" lon="6.6846">
        <ele>162</ele>
        <time>2025-10-26T10:22:30Z</time>
      </trkpt>
      <trkpt lat="43.51289" lon="6.68461">
        <ele>161.8</ele>
        <time>2025-10-26T10:22:31Z</time>
      </trkpt>
      <trkpt lat="43.51288" lon="6.68461">
        <ele>161.5</ele>
        <time>2025-10-26T10:22:32Z</time>
      </trkpt>
      <trkpt lat="43.51287" lon="6.68461">
        <ele>161.3</ele>
        <time>2025-10-26T10:22:33Z</time>
      </trkpt>
      <trkpt lat="43.51287" lon="6.68461">
        <ele>161.1</ele>
        <time>2025-10-26T10:22:34Z</time>
      </trkpt>
      <trkpt lat="43.51286" lon="6.68461">
        <ele>161</ele>
        <time>2025-10-26T10:22:35Z</time>
      </trkpt>
      <trkpt lat="43.51285" lon="6.68462">
        <ele>160.8</ele>
        <time>2025-10-26T10:22:36Z</time>
      </trkpt>
      <trkpt lat="43.51284" lon="6.68462">
        <ele>160.7</ele>
        <time>2025-10-26T10:22:37Z</time>
      </trkpt>
      <trkpt lat="43.51283" lon="6.68462">
        <ele>160.6</ele>
        <time>2025-10-26T10:22:38Z</time>
      </trkpt>
      <trkpt lat="43.51282" lon="6.68462">
        <ele>160.5</ele>
        <time>2025-10-26T10:22:39Z</time>
      </trkpt>
      <trkpt lat="43.51281" lon="6.68462">
        <ele>160.4</ele>
        <time>2025-10-26T10:22:40Z</time>
      </trkpt>
      <trkpt lat="43.5128" lon="6.68463">
        <ele>160.3</ele>
        <time>2025-10-26T10:22:41Z</time>
      </trkpt>
      <trkpt lat="43.51279" lon="6.68463">
        <ele>160.2</ele>
        <time>2025-10-26T10:22:42Z</time>
      </trkpt>
      <trkpt lat="43.51278" lon="6.68464">
        <ele>160.1</ele>
        <time>2025-10-26T10:22:43Z</time>
      </trkpt>
      <trkpt lat="43.51277" lon="6.68464">
        <ele>159.9</ele>
        <time>2025-10-26T10:22:44Z</time>
      </trkpt>
      <trkpt lat="43.51276" lon="6.68465">
        <ele>159.8</ele>
        <time>2025-10-26T10:22:45Z</time>
      </trkpt>
      <trkpt lat="43.51275" lon="6.68465">
        <ele>159.6</ele>
        <time>2025-10-26T10:22:46Z</time>
      </trkpt>
      <trkpt lat="43.51274" lon="6.68465">
        <ele>159.4</ele>
        <time>2025-10-26T10:22:47Z</time>
      </trkpt>
      <trkpt lat="43.51273" lon="6.68466">
        <ele>159.2</ele>
        <time>2025-10-26T10:22:48Z</time>
      </trkpt>
      <trkpt lat="43.51272" lon="6.68467">
        <ele>159.1</ele>
        <time>2025-10-26T10:22:49Z</time>
      </trkpt>
      <trkpt lat="43.51271" lon="6.68468">
        <ele>159</ele>
        <time>2025-10-26T10:22:50Z</time>
      </trkpt>
      <trkpt lat="43.5127" lon="6.68469">
        <ele>158.9</ele>
        <time>2025-10-26T10:22:51Z</time>
      </trkpt>
      <trkpt lat="43.51269" lon="6.6847">
        <ele>158.8</ele>
        <time>2025-10-26T10:22:52Z</time>
      </trkpt>
      <trkpt lat="43.51268" lon="6.6847">
        <ele>158.6</ele>
        <time>2025-10-26T10:22:53Z</time>
      </trkpt>
      <trkpt lat="43.51267" lon="6.68471">
        <ele>158.5</ele>
        <time>2025-10-26T10:22:54Z</time>
      </trkpt>
      <trkpt lat="43.51266" lon="6.68471">
        <ele>158.5</ele>
        <time>2025-10-26T10:22:55Z</time>
      </trkpt>
      <trkpt lat="43.51265" lon="6.68472">
        <ele>158.2</ele>
        <time>2025-10-26T10:22:56Z</time>
      </trkpt>
      <trkpt lat="43.51265" lon="6.68473">
        <ele>158</ele>
        <time>2025-10-26T10:22:57Z</time>
      </trkpt>
      <trkpt lat="43.51264" lon="6.68474">
        <ele>157.8</ele>
        <time>2025-10-26T10:22:58Z</time>
      </trkpt>
      <trkpt lat="43.51263" lon="6.68475">
        <ele>157.7</ele>
        <time>2025-10-26T10:22:59Z</time>
      </trkpt>
      <trkpt lat="43.51262" lon="6.68476">
        <ele>157.6</ele>
        <time>2025-10-26T10:23:00Z</time>
      </trkpt>
      <trkpt lat="43.51262" lon="6.68476">
        <ele>157.5</ele>
        <time>2025-10-26T10:23:01Z</time>
      </trkpt>
      <trkpt lat="43.51261" lon="6.68477">
        <ele>157.4</ele>
        <time>2025-10-26T10:23:02Z</time>
      </trkpt>
      <trkpt lat="43.5126" lon="6.68477">
        <ele>157.1</ele>
        <time>2025-10-26T10:23:03Z</time>
      </trkpt>
      <trkpt lat="43.51259" lon="6.68478">
        <ele>156.9</ele>
        <time>2025-10-26T10:23:04Z</time>
      </trkpt>
      <trkpt lat="43.51258" lon="6.68479">
        <ele>156.7</ele>
        <time>2025-10-26T10:23:05Z</time>
      </trkpt>
      <trkpt lat="43.51257" lon="6.68479">
        <ele>156.6</ele>
        <time>2025-10-26T10:23:06Z</time>
      </trkpt>
      <trkpt lat="43.51256" lon="6.6848">
        <ele>156.6</ele>
        <time>2025-10-26T10:23:07Z</time>
      </trkpt>
      <trkpt lat="43.51255" lon="6.68481">
        <ele>156.5</ele>
        <time>2025-10-26T10:23:08Z</time>
      </trkpt>
      <trkpt lat="43.51254" lon="6.68481">
        <ele>156.5</ele>
        <time>2025-10-26T10:23:09Z</time>
      </trkpt>
      <trkpt lat="43.51253" lon="6.68482">
        <ele>156.4</ele>
        <time>2025-10-26T10:23:10Z</time>
      </trkpt>
      <trkpt lat="43.51252" lon="6.68483">
        <ele>156.3</ele>
        <time>2025-10-26T10:23:11Z</time>
      </trkpt>
      <trkpt lat="43.51251" lon="6.68483">
        <ele>156</ele>
        <time>2025-10-26T10:23:12Z</time>
      </trkpt>
      <trkpt lat="43.5125" lon="6.68484">
        <ele>155.9</ele>
        <time>2025-10-26T10:23:13Z</time>
      </trkpt>
      <trkpt lat="43.51249" lon="6.68484">
        <ele>155.9</ele>
        <time>2025-10-26T10:23:14Z</time>
      </trkpt>
      <trkpt lat="43.51249" lon="6.68484">
        <ele>155.8</ele>
        <time>2025-10-26T10:23:15Z</time>
      </trkpt>
      <trkpt lat="43.51248" lon="6.68485">
        <ele>155.7</ele>
        <time>2025-10-26T10:23:16Z</time>
      </trkpt>
      <trkpt lat="43.51247" lon="6.68486">
        <ele>155.2</ele>
        <time>2025-10-26T10:23:17Z</time>
      </trkpt>
      <trkpt lat="43.51246" lon="6.68486">
        <ele>155</ele>
        <time>2025-10-26T10:23:18Z</time>
      </trkpt>
      <trkpt lat="43.51244" lon="6.68487">
        <ele>155</ele>
        <time>2025-10-26T10:23:19Z</time>
      </trkpt>
      <trkpt lat="43.51243" lon="6.68487">
        <ele>154.9</ele>
        <time>2025-10-26T10:23:20Z</time>
      </trkpt>
      <trkpt lat="43.51242" lon="6.68488">
        <ele>154.8</ele>
        <time>2025-10-26T10:23:21Z</time>
      </trkpt>
      <trkpt lat="43.51241" lon="6.68488">
        <ele>154.7</ele>
        <time>2025-10-26T10:23:22Z</time>
      </trkpt>
      <trkpt lat="43.5124" lon="6.68488">
        <ele>154.6</ele>
        <time>2025-10-26T10:23:23Z</time>
      </trkpt>
      <trkpt lat="43.51239" lon="6.68489">
        <ele>154.4</ele>
        <time>2025-10-26T10:23:24Z</time>
      </trkpt>
      <trkpt lat="43.51238" lon="6.68489">
        <ele>154.3</ele>
        <time>2025-10-26T10:23:25Z</time>
      </trkpt>
      <trkpt lat="43.51239" lon="6.68489">
        <ele>154.2</ele>
        <time>2025-10-26T10:23:26Z</time>
      </trkpt>
      <trkpt lat="43.51238" lon="6.6849">
        <ele>154.2</ele>
        <time>2025-10-26T10:23:27Z</time>
      </trkpt>
      <trkpt lat="43.51238" lon="6.6849">
        <ele>154.2</ele>
        <time>2025-10-26T10:23:28Z</time>
      </trkpt>
      <trkpt lat="43.51238" lon="6.6849">
        <ele>154</ele>
        <time>2025-10-26T10:23:29Z</time>
      </trkpt>
      <trkpt lat="43.51237" lon="6.6849">
        <ele>154.2</ele>
        <time>2025-10-26T10:23:30Z</time>
      </trkpt>
      <trkpt lat="43.51237" lon="6.6849">
        <ele>154.1</ele>
        <time>2025-10-26T10:23:31Z</time>
      </trkpt>
      <trkpt lat="43.51236" lon="6.6849">
        <ele>154.1</ele>
        <time>2025-10-26T10:23:32Z</time>
      </trkpt>
      <trkpt lat="43.51235" lon="6.6849">
        <ele>154.2</ele>
        <time>2025-10-26T10:23:33Z</time>
      </trkpt>
      <trkpt lat="43.51234" lon="6.68491">
        <ele>154.2</ele>
        <time>2025-10-26T10:23:34Z</time>
      </trkpt>
      <trkpt lat="43.51233" lon="6.68491">
        <ele>154.1</ele>
        <time>2025-10-26T10:23:35Z</time>
      </trkpt>
      <trkpt lat="43.51233" lon="6.68491">
        <ele>154</ele>
        <time>2025-10-26T10:23:36Z</time>
      </trkpt>
      <trkpt lat="43.51232" lon="6.68491">
        <ele>154</ele>
        <time>2025-10-26T10:23:37Z</time>
      </trkpt>
      <trkpt lat="43.51231" lon="6.68491">
        <ele>154</ele>
        <time>2025-10-26T10:23:38Z</time>
      </trkpt>
      <trkpt lat="43.5123" lon="6.68492">
        <ele>153.9</ele>
        <time>2025-10-26T10:23:39Z</time>
      </trkpt>
      <trkpt lat="43.51229" lon="6.68492">
        <ele>153.9</ele>
        <time>2025-10-26T10:23:40Z</time>
      </trkpt>
      <trkpt lat="43.51228" lon="6.68492">
        <ele>153.9</ele>
        <time>2025-10-26T10:23:41Z</time>
      </trkpt>
      <trkpt lat="43.51227" lon="6.68493">
        <ele>153.9</ele>
        <time>2025-10-26T10:23:42Z</time>
      </trkpt>
      <trkpt lat="43.51226" lon="6.68493">
        <ele>153.8</ele>
        <time>2025-10-26T10:23:43Z</time>
      </trkpt>
      <trkpt lat="43.51225" lon="6.68494">
        <ele>153.8</ele>
        <time>2025-10-26T10:23:44Z</time>
      </trkpt>
      <trkpt lat="43.51224" lon="6.68495">
        <ele>153.7</ele>
        <time>2025-10-26T10:23:45Z</time>
      </trkpt>
      <trkpt lat="43.51224" lon="6.68496">
        <ele>153.6</ele>
        <time>2025-10-26T10:23:46Z</time>
      </trkpt>
      <trkpt lat="43.51224" lon="6.68497">
        <ele>153.5</ele>
        <time>2025-10-26T10:23:47Z</time>
      </trkpt>
      <trkpt lat="43.51224" lon="6.68497">
        <ele>153.6</ele>
        <time>2025-10-26T10:23:48Z</time>
      </trkpt>
      <trkpt lat="43.51224" lon="6.68498">
        <ele>153.6</ele>
        <time>2025-10-26T10:23:49Z</time>
      </trkpt>
      <trkpt lat="43.51224" lon="6.68499">
        <ele>153.5</ele>
        <time>2025-10-26T10:23:50Z</time>
      </trkpt>
      <trkpt lat="43.51223" lon="6.685">
        <ele>153.5</ele>
        <time>2025-10-26T10:23:51Z</time>
      </trkpt>
      <trkpt lat="43.51223" lon="6.68501">
        <ele>153.3</ele>
        <time>2025-10-26T10:23:52Z</time>
      </trkpt>
      <trkpt lat="43.51223" lon="6.68503">
        <ele>153.2</ele>
        <time>2025-10-26T10:23:53Z</time>
      </trkpt>
      <trkpt lat="43.51223" lon="6.68504">
        <ele>153</ele>
        <time>2025-10-26T10:23:54Z</time>
      </trkpt>
      <trkpt lat="43.51223" lon="6.68506">
        <ele>152.9</ele>
        <time>2025-10-26T10:23:55Z</time>
      </trkpt>
      <trkpt lat="43.51222" lon="6.68507">
        <ele>152.7</ele>
        <time>2025-10-26T10:23:56Z</time>
      </trkpt>
      <trkpt lat="43.51221" lon="6.68508">
        <ele>152.6</ele>
        <time>2025-10-26T10:23:57Z</time>
      </trkpt>
      <trkpt lat="43.51221" lon="6.68509">
        <ele>152.5</ele>
        <time>2025-10-26T10:23:58Z</time>
      </trkpt>
      <trkpt lat="43.5122" lon="6.68511">
        <ele>152.4</ele>
        <time>2025-10-26T10:23:59Z</time>
      </trkpt>
      <trkpt lat="43.5122" lon="6.68512">
        <ele>152.4</ele>
        <time>2025-10-26T10:24:00Z</time>
      </trkpt>
      <trkpt lat="43.51221" lon="6.68514">
        <ele>152.3</ele>
        <time>2025-10-26T10:24:01Z</time>
      </trkpt>
      <trkpt lat="43.5122" lon="6.68515">
        <ele>152.3</ele>
        <time>2025-10-26T10:24:02Z</time>
      </trkpt>
      <trkpt lat="43.5122" lon="6.68516">
        <ele>152.2</ele>
        <time>2025-10-26T10:24:03Z</time>
      </trkpt>
      <trkpt lat="43.5122" lon="6.68517">
        <ele>152.3</ele>
        <time>2025-10-26T10:24:04Z</time>
      </trkpt>
      <trkpt lat="43.51219" lon="6.68518">
        <ele>152.2</ele>
        <time>2025-10-26T10:24:05Z</time>
      </trkpt>
      <trkpt lat="43.51219" lon="6.68519">
        <ele>152.2</ele>
        <time>2025-10-26T10:24:06Z</time>
      </trkpt>
      <trkpt lat="43.51218" lon="6.6852">
        <ele>152.2</ele>
        <time>2025-10-26T10:24:07Z</time>
      </trkpt>
      <trkpt lat="43.51217" lon="6.68521">
        <ele>152.2</ele>
        <time>2025-10-26T10:24:08Z</time>
      </trkpt>
      <trkpt lat="43.51216" lon="6.68522">
        <ele>152.1</ele>
        <time>2025-10-26T10:24:09Z</time>
      </trkpt>
      <trkpt lat="43.51216" lon="6.68523">
        <ele>152.1</ele>
        <time>2025-10-26T10:24:10Z</time>
      </trkpt>
      <trkpt lat="43.51215" lon="6.68525">
        <ele>152.1</ele>
        <time>2025-10-26T10:24:11Z</time>
      </trkpt>
      <trkpt lat="43.51215" lon="6.68526">
        <ele>152.1</ele>
        <time>2025-10-26T10:24:12Z</time>
      </trkpt>
      <trkpt lat="43.51215" lon="6.68527">
        <ele>152.1</ele>
        <time>2025-10-26T10:24:13Z</time>
      </trkpt>
      <trkpt lat="43.51214" lon="6.68528">
        <ele>152.2</ele>
        <time>2025-10-26T10:24:14Z</time>
      </trkpt>
      <trkpt lat="43.51214" lon="6.68529">
        <ele>152.2</ele>
        <time>2025-10-26T10:24:15Z</time>
      </trkpt>
      <trkpt lat="43.51214" lon="6.6853">
        <ele>152.3</ele>
        <time>2025-10-26T10:24:16Z</time>
      </trkpt>
      <trkpt lat="43.51213" lon="6.68531">
        <ele>152.3</ele>
        <time>2025-10-26T10:24:17Z</time>
      </trkpt>
      <trkpt lat="43.51213" lon="6.68532">
        <ele>152.3</ele>
        <time>2025-10-26T10:24:18Z</time>
      </trkpt>
      <trkpt lat="43.51212" lon="6.68533">
        <ele>152.3</ele>
        <time>2025-10-26T10:24:19Z</time>
      </trkpt>
      <trkpt lat="43.51211" lon="6.68534">
        <ele>152.3</ele>
        <time>2025-10-26T10:24:20Z</time>
      </trkpt>
      <trkpt lat="43.51211" lon="6.68535">
        <ele>152.2</ele>
        <time>2025-10-26T10:24:21Z</time>
      </trkpt>
      <trkpt lat="43.5121" lon="6.68535">
        <ele>152.2</ele>
        <time>2025-10-26T10:24:22Z</time>
      </trkpt>
      <trkpt lat="43.51209" lon="6.68535">
        <ele>152.2</ele>
        <time>2025-10-26T10:24:23Z</time>
      </trkpt>
      <trkpt lat="43.51208" lon="6.68536">
        <ele>152.1</ele>
        <time>2025-10-26T10:24:24Z</time>
      </trkpt>
      <trkpt lat="43.51207" lon="6.68536">
        <ele>152</ele>
        <time>2025-10-26T10:24:25Z</time>
      </trkpt>
      <trkpt lat="43.51206" lon="6.68537">
        <ele>152</ele>
        <time>2025-10-26T10:24:26Z</time>
      </trkpt>
      <trkpt lat="43.51206" lon="6.68538">
        <ele>151.9</ele>
        <time>2025-10-26T10:24:27Z</time>
      </trkpt>
      <trkpt lat="43.51206" lon="6.68539">
        <ele>151.9</ele>
        <time>2025-10-26T10:24:28Z</time>
      </trkpt>
      <trkpt lat="43.51206" lon="6.68539">
        <ele>151.8</ele>
        <time>2025-10-26T10:24:29Z</time>
      </trkpt>
      <trkpt lat="43.51207" lon="6.68539">
        <ele>151.8</ele>
        <time>2025-10-26T10:24:30Z</time>
      </trkpt>
      <trkpt lat="43.51207" lon="6.6854">
        <ele>151.8</ele>
        <time>2025-10-26T10:24:31Z</time>
      </trkpt>
      <trkpt lat="43.51207" lon="6.6854">
        <ele>151.9</ele>
        <time>2025-10-26T10:24:32Z</time>
      </trkpt>
      <trkpt lat="43.51207" lon="6.6854">
        <ele>151.9</ele>
        <time>2025-10-26T10:24:33Z</time>
      </trkpt>
      <trkpt lat="43.51207" lon="6.6854">
        <ele>151.9</ele>
        <time>2025-10-26T10:24:34Z</time>
      </trkpt>
      <trkpt lat="43.51207" lon="6.6854">
        <ele>151.9</ele>
        <time>2025-10-26T10:24:35Z</time>
      </trkpt>
      <trkpt lat="43.51207" lon="6.6854">
        <ele>151.8</ele>
        <time>2025-10-26T10:24:36Z</time>
      </trkpt>
      <trkpt lat="43.51207" lon="6.68541">
        <ele>151.9</ele>
        <time>2025-10-26T10:24:37Z</time>
      </trkpt>
      <trkpt lat="43.51207" lon="6.68541">
        <ele>152</ele>
        <time>2025-10-26T10:24:38Z</time>
      </trkpt>
      <trkpt lat="43.51207" lon="6.68541">
        <ele>151.9</ele>
        <time>2025-10-26T10:24:39Z</time>
      </trkpt>
      <trkpt lat="43.51207" lon="6.68541">
        <ele>151.8</ele>
        <time>2025-10-26T10:24:40Z</time>
      </trkpt>
      <trkpt lat="43.51207" lon="6.68541">
        <ele>151.9</ele>
        <time>2025-10-26T10:24:41Z</time>
      </trkpt>
      <trkpt lat="43.51207" lon="6.68541">
        <ele>151.9</ele>
        <time>2025-10-26T10:24:42Z</time>
      </trkpt>
      <trkpt lat="43.51207" lon="6.68542">
        <ele>152</ele>
        <time>2025-10-26T10:24:43Z</time>
      </trkpt>
      <trkpt lat="43.51206" lon="6.68542">
        <ele>152</ele>
        <time>2025-10-26T10:24:44Z</time>
      </trkpt>
      <trkpt lat="43.51206" lon="6.68542">
        <ele>152</ele>
        <time>2025-10-26T10:24:45Z</time>
      </trkpt>
      <trkpt lat="43.51206" lon="6.68542">
        <ele>152</ele>
        <time>2025-10-26T10:24:46Z</time>
      </trkpt>
      <trkpt lat="43.51206" lon="6.68542">
        <ele>152</ele>
        <time>2025-10-26T10:24:47Z</time>
      </trkpt>
      <trkpt lat="43.51206" lon="6.68542">
        <ele>151.9</ele>
        <time>2025-10-26T10:24:48Z</time>
      </trkpt>
      <trkpt lat="43.51206" lon="6.68542">
        <ele>151.9</ele>
        <time>2025-10-26T10:24:49Z</time>
      </trkpt>
      <trkpt lat="43.51206" lon="6.68542">
        <ele>151.9</ele>
        <time>2025-10-26T10:24:50Z</time>
      </trkpt>
      <trkpt lat="43.51205" lon="6.68542">
        <ele>151.9</ele>
        <time>2025-10-26T10:24:51Z</time>
      </trkpt>
      <trkpt lat="43.51205" lon="6.68543">
        <ele>151.8</ele>
        <time>2025-10-26T10:24:52Z</time>
      </trkpt>
      <trkpt lat="43.51205" lon="6.68543">
        <ele>151.8</ele>
        <time>2025-10-26T10:24:53Z</time>
      </trkpt>
      <trkpt lat="43.51205" lon="6.68543">
        <ele>151.8</ele>
        <time>2025-10-26T10:24:54Z</time>
      </trkpt>
      <trkpt lat="43.51205" lon="6.68543">
        <ele>151.8</ele>
        <time>2025-10-26T10:24:55Z</time>
      </trkpt>
      <trkpt lat="43.51205" lon="6.68543">
        <ele>151.7</ele>
        <time>2025-10-26T10:24:56Z</time>
      </trkpt>
      <trkpt lat="43.51205" lon="6.68543">
        <ele>151.6</ele>
        <time>2025-10-26T10:24:57Z</time>
      </trkpt>
      <trkpt lat="43.51205" lon="6.68543">
        <ele>151.6</ele>
        <time>2025-10-26T10:24:58Z</time>
      </trkpt>
      <trkpt lat="43.51204" lon="6.68543">
        <ele>151.6</ele>
        <time>2025-10-26T10:24:59Z</time>
      </trkpt>
      <trkpt lat="43.51204" lon="6.68543">
        <ele>151.6</ele>
        <time>2025-10-26T10:25:00Z</time>
      </trkpt>
      <trkpt lat="43.51204" lon="6.68543">
        <ele>151.5</ele>
        <time>2025-10-26T10:25:01Z</time>
      </trkpt>
      <trkpt lat="43.51204" lon="6.68543">
        <ele>151.4</ele>
        <time>2025-10-26T10:25:02Z</time>
      </trkpt>
      <trkpt lat="43.51204" lon="6.68544">
        <ele>151.4</ele>
        <time>2025-10-26T10:25:03Z</time>
      </trkpt>
      <trkpt lat="43.51204" lon="6.68544">
        <ele>151.4</ele>
        <time>2025-10-26T10:25:04Z</time>
      </trkpt>
      <trkpt lat="43.51204" lon="6.68544">
        <ele>151.4</ele>
        <time>2025-10-26T10:25:05Z</time>
      </trkpt>
      <trkpt lat="43.51204" lon="6.68544">
        <ele>151.5</ele>
        <time>2025-10-26T10:25:06Z</time>
      </trkpt>
      <trkpt lat="43.51204" lon="6.68544">
        <ele>151.6</ele>
        <time>2025-10-26T10:25:07Z</time>
      </trkpt>
      <trkpt lat="43.51204" lon="6.68544">
        <ele>151.6</ele>
        <time>2025-10-26T10:25:08Z</time>
      </trkpt>
      <trkpt lat="43.51204" lon="6.68544">
        <ele>151.7</ele>
        <time>2025-10-26T10:25:09Z</time>
      </trkpt>
      <trkpt lat="43.51204" lon="6.68544">
        <ele>151.7</ele>
        <time>2025-10-26T10:25:10Z</time>
      </trkpt>
      <trkpt lat="43.51204" lon="6.68544">
        <ele>151.7</ele>
        <time>2025-10-26T10:25:11Z</time>
      </trkpt>
      <trkpt lat="43.51204" lon="6.68544">
        <ele>151.7</ele>
        <time>2025-10-26T10:25:12Z</time>
      </trkpt>
      <trkpt lat="43.51203" lon="6.68544">
        <ele>151.7</ele>
        <time>2025-10-26T10:25:13Z</time>
      </trkpt>
      <trkpt lat="43.51203" lon="6.68544">
        <ele>151.8</ele>
        <time>2025-10-26T10:25:14Z</time>
      </trkpt>
      <trkpt lat="43.51203" lon="6.68544">
        <ele>151.7</ele>
        <time>2025-10-26T10:25:15Z</time>
      </trkpt>
      <trkpt lat="43.51202" lon="6.68544">
        <ele>151.7</ele>
        <time>2025-10-26T10:25:16Z</time>
      </trkpt>
      <trkpt lat="43.51202" lon="6.68545">
        <ele>151.7</ele>
        <time>2025-10-26T10:25:17Z</time>
      </trkpt>
      <trkpt lat="43.51201" lon="6.68545">
        <ele>151.7</ele>
        <time>2025-10-26T10:25:18Z</time>
      </trkpt>
      <trkpt lat="43.51201" lon="6.68546">
        <ele>151.7</ele>
        <time>2025-10-26T10:25:19Z</time>
      </trkpt>
      <trkpt lat="43.512" lon="6.68548">
        <ele>151.7</ele>
        <time>2025-10-26T10:25:20Z</time>
      </trkpt>
      <trkpt lat="43.51199" lon="6.68548">
        <ele>151.7</ele>
        <time>2025-10-26T10:25:21Z</time>
      </trkpt>
      <trkpt lat="43.51199" lon="6.68549">
        <ele>151.7</ele>
        <time>2025-10-26T10:25:22Z</time>
      </trkpt>
      <trkpt lat="43.51198" lon="6.6855">
        <ele>151.7</ele>
        <time>2025-10-26T10:25:23Z</time>
      </trkpt>
      <trkpt lat="43.51197" lon="6.68551">
        <ele>151.7</ele>
        <time>2025-10-26T10:25:24Z</time>
      </trkpt>
      <trkpt lat="43.51196" lon="6.68553">
        <ele>151.7</ele>
        <time>2025-10-26T10:25:25Z</time>
      </trkpt>
      <trkpt lat="43.51195" lon="6.68554">
        <ele>151.6</ele>
        <time>2025-10-26T10:25:26Z</time>
      </trkpt>
      <trkpt lat="43.51195" lon="6.68555">
        <ele>151.6</ele>
        <time>2025-10-26T10:25:27Z</time>
      </trkpt>
      <trkpt lat="43.51194" lon="6.68556">
        <ele>151.7</ele>
        <time>2025-10-26T10:25:28Z</time>
      </trkpt>
      <trkpt lat="43.51194" lon="6.68558">
        <ele>151.8</ele>
        <time>2025-10-26T10:25:29Z</time>
      </trkpt>
      <trkpt lat="43.51194" lon="6.68559">
        <ele>151.8</ele>
        <time>2025-10-26T10:25:30Z</time>
      </trkpt>
      <trkpt lat="43.51193" lon="6.68561">
        <ele>151.7</ele>
        <time>2025-10-26T10:25:31Z</time>
      </trkpt>
      <trkpt lat="43.51193" lon="6.68562">
        <ele>151.7</ele>
        <time>2025-10-26T10:25:32Z</time>
      </trkpt>
      <trkpt lat="43.51192" lon="6.68563">
        <ele>151.8</ele>
        <time>2025-10-26T10:25:33Z</time>
      </trkpt>
      <trkpt lat="43.51191" lon="6.68564">
        <ele>151.8</ele>
        <time>2025-10-26T10:25:34Z</time>
      </trkpt>
      <trkpt lat="43.51191" lon="6.68565">
        <ele>151.9</ele>
        <time>2025-10-26T10:25:35Z</time>
      </trkpt>
      <trkpt lat="43.5119" lon="6.68566">
        <ele>152</ele>
        <time>2025-10-26T10:25:36Z</time>
      </trkpt>
      <trkpt lat="43.51189" lon="6.68568">
        <ele>152</ele>
        <time>2025-10-26T10:25:37Z</time>
      </trkpt>
      <trkpt lat="43.51189" lon="6.68569">
        <ele>152</ele>
        <time>2025-10-26T10:25:38Z</time>
      </trkpt>
      <trkpt lat="43.51188" lon="6.6857">
        <ele>152.1</ele>
        <time>2025-10-26T10:25:39Z</time>
      </trkpt>
      <trkpt lat="43.51187" lon="6.6857">
        <ele>152.1</ele>
        <time>2025-10-26T10:25:40Z</time>
      </trkpt>
      <trkpt lat="43.51187" lon="6.68572">
        <ele>152.2</ele>
        <time>2025-10-26T10:25:41Z</time>
      </trkpt>
      <trkpt lat="43.51187" lon="6.68573">
        <ele>152.3</ele>
        <time>2025-10-26T10:25:42Z</time>
      </trkpt>
      <trkpt lat="43.51187" lon="6.68574">
        <ele>152.3</ele>
        <time>2025-10-26T10:25:43Z</time>
      </trkpt>
      <trkpt lat="43.51187" lon="6.68576">
        <ele>152.6</ele>
        <time>2025-10-26T10:25:44Z</time>
      </trkpt>
      <trkpt lat="43.51186" lon="6.68577">
        <ele>152.8</ele>
        <time>2025-10-26T10:25:45Z</time>
      </trkpt>
      <trkpt lat="43.51186" lon="6.68579">
        <ele>153</ele>
        <time>2025-10-26T10:25:46Z</time>
      </trkpt>
      <trkpt lat="43.51185" lon="6.6858">
        <ele>153.2</ele>
        <time>2025-10-26T10:25:47Z</time>
      </trkpt>
      <trkpt lat="43.51185" lon="6.68581">
        <ele>153.2</ele>
        <time>2025-10-26T10:25:48Z</time>
      </trkpt>
      <trkpt lat="43.51185" lon="6.68582">
        <ele>153.3</ele>
        <time>2025-10-26T10:25:49Z</time>
      </trkpt>
      <trkpt lat="43.51185" lon="6.68583">
        <ele>153.3</ele>
        <time>2025-10-26T10:25:50Z</time>
      </trkpt>
      <trkpt lat="43.51184" lon="6.68585">
        <ele>153.3</ele>
        <time>2025-10-26T10:25:51Z</time>
      </trkpt>
      <trkpt lat="43.51184" lon="6.68586">
        <ele>153.4</ele>
        <time>2025-10-26T10:25:52Z</time>
      </trkpt>
      <trkpt lat="43.51183" lon="6.68588">
        <ele>153.5</ele>
        <time>2025-10-26T10:25:53Z</time>
      </trkpt>
      <trkpt lat="43.51183" lon="6.68589">
        <ele>153.6</ele>
        <time>2025-10-26T10:25:54Z</time>
      </trkpt>
      <trkpt lat="43.51182" lon="6.68591">
        <ele>153.8</ele>
        <time>2025-10-26T10:25:55Z</time>
      </trkpt>
      <trkpt lat="43.51182" lon="6.68592">
        <ele>153.9</ele>
        <time>2025-10-26T10:25:56Z</time>
      </trkpt>
      <trkpt lat="43.51181" lon="6.68593">
        <ele>154.1</ele>
        <time>2025-10-26T10:25:57Z</time>
      </trkpt>
      <trkpt lat="43.51181" lon="6.68595">
        <ele>154.2</ele>
        <time>2025-10-26T10:25:58Z</time>
      </trkpt>
      <trkpt lat="43.51181" lon="6.68597">
        <ele>154.2</ele>
        <time>2025-10-26T10:25:59Z</time>
      </trkpt>
      <trkpt lat="43.51181" lon="6.68598">
        <ele>154.3</ele>
        <time>2025-10-26T10:26:00Z</time>
      </trkpt>
      <trkpt lat="43.5118" lon="6.68599">
        <ele>154.5</ele>
        <time>2025-10-26T10:26:01Z</time>
      </trkpt>
      <trkpt lat="43.51181" lon="6.68601">
        <ele>154.6</ele>
        <time>2025-10-26T10:26:02Z</time>
      </trkpt>
      <trkpt lat="43.51181" lon="6.68602">
        <ele>154.8</ele>
        <time>2025-10-26T10:26:03Z</time>
      </trkpt>
      <trkpt lat="43.5118" lon="6.68603">
        <ele>154.9</ele>
        <time>2025-10-26T10:26:04Z</time>
      </trkpt>
      <trkpt lat="43.51179" lon="6.68604">
        <ele>155</ele>
        <time>2025-10-26T10:26:05Z</time>
      </trkpt>
      <trkpt lat="43.51178" lon="6.68606">
        <ele>155.2</ele>
        <time>2025-10-26T10:26:06Z</time>
      </trkpt>
      <trkpt lat="43.51178" lon="6.68607">
        <ele>155.2</ele>
        <time>2025-10-26T10:26:07Z</time>
      </trkpt>
      <trkpt lat="43.51177" lon="6.68608">
        <ele>155.2</ele>
        <time>2025-10-26T10:26:08Z</time>
      </trkpt>
      <trkpt lat="43.51176" lon="6.6861">
        <ele>155.3</ele>
        <time>2025-10-26T10:26:09Z</time>
      </trkpt>
      <trkpt lat="43.51175" lon="6.68611">
        <ele>155.3</ele>
        <time>2025-10-26T10:26:10Z</time>
      </trkpt>
      <trkpt lat="43.51174" lon="6.68612">
        <ele>155.4</ele>
        <time>2025-10-26T10:26:11Z</time>
      </trkpt>
      <trkpt lat="43.51174" lon="6.68613">
        <ele>155.4</ele>
        <time>2025-10-26T10:26:12Z</time>
      </trkpt>
      <trkpt lat="43.51173" lon="6.68614">
        <ele>155.5</ele>
        <time>2025-10-26T10:26:13Z</time>
      </trkpt>
      <trkpt lat="43.51172" lon="6.68616">
        <ele>155.6</ele>
        <time>2025-10-26T10:26:14Z</time>
      </trkpt>
      <trkpt lat="43.51172" lon="6.68617">
        <ele>155.6</ele>
        <time>2025-10-26T10:26:15Z</time>
      </trkpt>
      <trkpt lat="43.51171" lon="6.68619">
        <ele>155.6</ele>
        <time>2025-10-26T10:26:16Z</time>
      </trkpt>
      <trkpt lat="43.51171" lon="6.6862">
        <ele>155.6</ele>
        <time>2025-10-26T10:26:17Z</time>
      </trkpt>
      <trkpt lat="43.5117" lon="6.68621">
        <ele>155.6</ele>
        <time>2025-10-26T10:26:18Z</time>
      </trkpt>
      <trkpt lat="43.51169" lon="6.68623">
        <ele>155.7</ele>
        <time>2025-10-26T10:26:19Z</time>
      </trkpt>
      <trkpt lat="43.51169" lon="6.68624">
        <ele>155.7</ele>
        <time>2025-10-26T10:26:20Z</time>
      </trkpt>
      <trkpt lat="43.51168" lon="6.68625">
        <ele>155.8</ele>
        <time>2025-10-26T10:26:21Z</time>
      </trkpt>
      <trkpt lat="43.51167" lon="6.68626">
        <ele>155.9</ele>
        <time>2025-10-26T10:26:22Z</time>
      </trkpt>
      <trkpt lat="43.51166" lon="6.68627">
        <ele>156</ele>
        <time>2025-10-26T10:26:23Z</time>
      </trkpt>
      <trkpt lat="43.51165" lon="6.68628">
        <ele>156.1</ele>
        <time>2025-10-26T10:26:24Z</time>
      </trkpt>
      <trkpt lat="43.51164" lon="6.68629">
        <ele>156.2</ele>
        <time>2025-10-26T10:26:25Z</time>
      </trkpt>
      <trkpt lat="43.51164" lon="6.6863">
        <ele>156.3</ele>
        <time>2025-10-26T10:26:26Z</time>
      </trkpt>
      <trkpt lat="43.51163" lon="6.68631">
        <ele>156.3</ele>
        <time>2025-10-26T10:26:27Z</time>
      </trkpt>
      <trkpt lat="43.51162" lon="6.68632">
        <ele>156.3</ele>
        <time>2025-10-26T10:26:28Z</time>
      </trkpt>
      <trkpt lat="43.5116" lon="6.68633">
        <ele>156.3</ele>
        <time>2025-10-26T10:26:29Z</time>
      </trkpt>
      <trkpt lat="43.5116" lon="6.68634">
        <ele>156.4</ele>
        <time>2025-10-26T10:26:30Z</time>
      </trkpt>
      <trkpt lat="43.51159" lon="6.68634">
        <ele>156.4</ele>
        <time>2025-10-26T10:26:31Z</time>
      </trkpt>
      <trkpt lat="43.51158" lon="6.68635">
        <ele>156.4</ele>
        <time>2025-10-26T10:26:32Z</time>
      </trkpt>
      <trkpt lat="43.51157" lon="6.68635">
        <ele>156.3</ele>
        <time>2025-10-26T10:26:33Z</time>
      </trkpt>
      <trkpt lat="43.51157" lon="6.68636">
        <ele>156.3</ele>
        <time>2025-10-26T10:26:34Z</time>
      </trkpt>
      <trkpt lat="43.51156" lon="6.68636">
        <ele>156.3</ele>
        <time>2025-10-26T10:26:35Z</time>
      </trkpt>
      <trkpt lat="43.51155" lon="6.68637">
        <ele>156.2</ele>
        <time>2025-10-26T10:26:36Z</time>
      </trkpt>
      <trkpt lat="43.51155" lon="6.68638">
        <ele>156.2</ele>
        <time>2025-10-26T10:26:37Z</time>
      </trkpt>
      <trkpt lat="43.51154" lon="6.68639">
        <ele>156.2</ele>
        <time>2025-10-26T10:26:38Z</time>
      </trkpt>
      <trkpt lat="43.51154" lon="6.6864">
        <ele>156.3</ele>
        <time>2025-10-26T10:26:39Z</time>
      </trkpt>
      <trkpt lat="43.51154" lon="6.68641">
        <ele>156.3</ele>
        <time>2025-10-26T10:26:40Z</time>
      </trkpt>
      <trkpt lat="43.51154" lon="6.68641">
        <ele>156.3</ele>
        <time>2025-10-26T10:26:41Z</time>
      </trkpt>
      <trkpt lat="43.51154" lon="6.68641">
        <ele>156.3</ele>
        <time>2025-10-26T10:26:42Z</time>
      </trkpt>
      <trkpt lat="43.51154" lon="6.68641">
        <ele>156.2</ele>
        <time>2025-10-26T10:26:43Z</time>
      </trkpt>
      <trkpt lat="43.51154" lon="6.68641">
        <ele>156</ele>
        <time>2025-10-26T10:26:44Z</time>
      </trkpt>
      <trkpt lat="43.51154" lon="6.68642">
        <ele>156</ele>
        <time>2025-10-26T10:26:45Z</time>
      </trkpt>
      <trkpt lat="43.51154" lon="6.68642">
        <ele>156</ele>
        <time>2025-10-26T10:26:46Z</time>
      </trkpt>
      <trkpt lat="43.51154" lon="6.68642">
        <ele>156</ele>
        <time>2025-10-26T10:26:47Z</time>
      </trkpt>
      <trkpt lat="43.51154" lon="6.68642">
        <ele>155.9</ele>
        <time>2025-10-26T10:26:48Z</time>
      </trkpt>
      <trkpt lat="43.51154" lon="6.68642">
        <ele>155.8</ele>
        <time>2025-10-26T10:26:49Z</time>
      </trkpt>
      <trkpt lat="43.51154" lon="6.68642">
        <ele>155.8</ele>
        <time>2025-10-26T10:26:50Z</time>
      </trkpt>
      <trkpt lat="43.51154" lon="6.68642">
        <ele>155.8</ele>
        <time>2025-10-26T10:26:51Z</time>
      </trkpt>
      <trkpt lat="43.51154" lon="6.68642">
        <ele>155.8</ele>
        <time>2025-10-26T10:26:52Z</time>
      </trkpt>
      <trkpt lat="43.51154" lon="6.68643">
        <ele>155.7</ele>
        <time>2025-10-26T10:26:53Z</time>
      </trkpt>
      <trkpt lat="43.51154" lon="6.68643">
        <ele>155.7</ele>
        <time>2025-10-26T10:26:54Z</time>
      </trkpt>
      <trkpt lat="43.51154" lon="6.68643">
        <ele>155.6</ele>
        <time>2025-10-26T10:26:55Z</time>
      </trkpt>
      <trkpt lat="43.51153" lon="6.68643">
        <ele>155.6</ele>
        <time>2025-10-26T10:26:56Z</time>
      </trkpt>
      <trkpt lat="43.51153" lon="6.68643">
        <ele>155.6</ele>
        <time>2025-10-26T10:26:57Z</time>
      </trkpt>
      <trkpt lat="43.51153" lon="6.68643">
        <ele>155.7</ele>
        <time>2025-10-26T10:26:58Z</time>
      </trkpt>
      <trkpt lat="43.51153" lon="6.68643">
        <ele>155.8</ele>
        <time>2025-10-26T10:26:59Z</time>
      </trkpt>
      <trkpt lat="43.51153" lon="6.68643">
        <ele>155.8</ele>
        <time>2025-10-26T10:27:00Z</time>
      </trkpt>
      <trkpt lat="43.51153" lon="6.68643">
        <ele>155.9</ele>
        <time>2025-10-26T10:27:01Z</time>
      </trkpt>
      <trkpt lat="43.51153" lon="6.68643">
        <ele>156</ele>
        <time>2025-10-26T10:27:02Z</time>
      </trkpt>
      <trkpt lat="43.51153" lon="6.68643">
        <ele>156.1</ele>
        <time>2025-10-26T10:27:03Z</time>
      </trkpt>
      <trkpt lat="43.51153" lon="6.68643">
        <ele>156.1</ele>
        <time>2025-10-26T10:27:04Z</time>
      </trkpt>
      <trkpt lat="43.51153" lon="6.68643">
        <ele>156.2</ele>
        <time>2025-10-26T10:27:05Z</time>
      </trkpt>
      <trkpt lat="43.51153" lon="6.68644">
        <ele>156.2</ele>
        <time>2025-10-26T10:27:06Z</time>
      </trkpt>
      <trkpt lat="43.51153" lon="6.68644">
        <ele>156.2</ele>
        <time>2025-10-26T10:27:07Z</time>
      </trkpt>
      <trkpt lat="43.51153" lon="6.68644">
        <ele>156.1</ele>
        <time>2025-10-26T10:27:08Z</time>
      </trkpt>
      <trkpt lat="43.51153" lon="6.68643">
        <ele>156.1</ele>
        <time>2025-10-26T10:27:09Z</time>
      </trkpt>
      <trkpt lat="43.51154" lon="6.68643">
        <ele>156.1</ele>
        <time>2025-10-26T10:27:10Z</time>
      </trkpt>
      <trkpt lat="43.51154" lon="6.68643">
        <ele>156.1</ele>
        <time>2025-10-26T10:27:11Z</time>
      </trkpt>
      <trkpt lat="43.51154" lon="6.68642">
        <ele>156</ele>
        <time>2025-10-26T10:27:12Z</time>
      </trkpt>
      <trkpt lat="43.51154" lon="6.68642">
        <ele>156</ele>
        <time>2025-10-26T10:27:13Z</time>
      </trkpt>
      <trkpt lat="43.51154" lon="6.68642">
        <ele>156</ele>
        <time>2025-10-26T10:27:14Z</time>
      </trkpt>
      <trkpt lat="43.51154" lon="6.68642">
        <ele>155.9</ele>
        <time>2025-10-26T10:27:15Z</time>
      </trkpt>
      <trkpt lat="43.51155" lon="6.68642">
        <ele>155.9</ele>
        <time>2025-10-26T10:27:16Z</time>
      </trkpt>
      <trkpt lat="43.51155" lon="6.68642">
        <ele>156</ele>
        <time>2025-10-26T10:27:17Z</time>
      </trkpt>
      <trkpt lat="43.51155" lon="6.68642">
        <ele>156</ele>
        <time>2025-10-26T10:27:18Z</time>
      </trkpt>
      <trkpt lat="43.51155" lon="6.68642">
        <ele>155.9</ele>
        <time>2025-10-26T10:27:19Z</time>
      </trkpt>
      <trkpt lat="43.51155" lon="6.68642">
        <ele>155.9</ele>
        <time>2025-10-26T10:27:20Z</time>
      </trkpt>
      <trkpt lat="43.51154" lon="6.68643">
        <ele>155.9</ele>
        <time>2025-10-26T10:27:21Z</time>
      </trkpt>
      <trkpt lat="43.51154" lon="6.68643">
        <ele>155.9</ele>
        <time>2025-10-26T10:27:22Z</time>
      </trkpt>
      <trkpt lat="43.51154" lon="6.68644">
        <ele>155.9</ele>
        <time>2025-10-26T10:27:23Z</time>
      </trkpt>
      <trkpt lat="43.51155" lon="6.68644">
        <ele>155.9</ele>
        <time>2025-10-26T10:27:24Z</time>
      </trkpt>
      <trkpt lat="43.51155" lon="6.68644">
        <ele>155.9</ele>
        <time>2025-10-26T10:27:25Z</time>
      </trkpt>
      <trkpt lat="43.51155" lon="6.68644">
        <ele>155.9</ele>
        <time>2025-10-26T10:27:26Z</time>
      </trkpt>
      <trkpt lat="43.51155" lon="6.68644">
        <ele>155.8</ele>
        <time>2025-10-26T10:27:27Z</time>
      </trkpt>
      <trkpt lat="43.51155" lon="6.68644">
        <ele>155.9</ele>
        <time>2025-10-26T10:27:28Z</time>
      </trkpt>
      <trkpt lat="43.51155" lon="6.68644">
        <ele>155.9</ele>
        <time>2025-10-26T10:27:29Z</time>
      </trkpt>
      <trkpt lat="43.51155" lon="6.68644">
        <ele>155.9</ele>
        <time>2025-10-26T10:27:30Z</time>
      </trkpt>
      <trkpt lat="43.51155" lon="6.68644">
        <ele>155.9</ele>
        <time>2025-10-26T10:27:31Z</time>
      </trkpt>
      <trkpt lat="43.51155" lon="6.68644">
        <ele>155.9</ele>
        <time>2025-10-26T10:27:32Z</time>
      </trkpt>
      <trkpt lat="43.51155" lon="6.68644">
        <ele>155.8</ele>
        <time>2025-10-26T10:27:33Z</time>
      </trkpt>
      <trkpt lat="43.51155" lon="6.68644">
        <ele>155.8</ele>
        <time>2025-10-26T10:27:34Z</time>
      </trkpt>
      <trkpt lat="43.51155" lon="6.68644">
        <ele>155.8</ele>
        <time>2025-10-26T10:27:35Z</time>
      </trkpt>
      <trkpt lat="43.51155" lon="6.68644">
        <ele>155.8</ele>
        <time>2025-10-26T10:27:36Z</time>
      </trkpt>
      <trkpt lat="43.51155" lon="6.68644">
        <ele>155.8</ele>
        <time>2025-10-26T10:27:37Z</time>
      </trkpt>
      <trkpt lat="43.51155" lon="6.68644">
        <ele>155.8</ele>
        <time>2025-10-26T10:27:38Z</time>
      </trkpt>
      <trkpt lat="43.51155" lon="6.68644">
        <ele>155.8</ele>
        <time>2025-10-26T10:27:39Z</time>
      </trkpt>
      <trkpt lat="43.51155" lon="6.68644">
        <ele>155.7</ele>
        <time>2025-10-26T10:27:40Z</time>
      </trkpt>
      <trkpt lat="43.51155" lon="6.68644">
        <ele>155.7</ele>
        <time>2025-10-26T10:27:41Z</time>
      </trkpt>
      <trkpt lat="43.51155" lon="6.68644">
        <ele>155.7</ele>
        <time>2025-10-26T10:27:42Z</time>
      </trkpt>
      <trkpt lat="43.51155" lon="6.68644">
        <ele>155.7</ele>
        <time>2025-10-26T10:27:43Z</time>
      </trkpt>
      <trkpt lat="43.51155" lon="6.68644">
        <ele>155.7</ele>
        <time>2025-10-26T10:27:44Z</time>
      </trkpt>
      <trkpt lat="43.51155" lon="6.68644">
        <ele>155.8</ele>
        <time>2025-10-26T10:27:45Z</time>
      </trkpt>
      <trkpt lat="43.51155" lon="6.68644">
        <ele>155.8</ele>
        <time>2025-10-26T10:27:46Z</time>
      </trkpt>
      <trkpt lat="43.51155" lon="6.68644">
        <ele>155.8</ele>
        <time>2025-10-26T10:27:47Z</time>
      </trkpt>
      <trkpt lat="43.51155" lon="6.68644">
        <ele>155.8</ele>
        <time>2025-10-26T10:27:48Z</time>
      </trkpt>
      <trkpt lat="43.51155" lon="6.68644">
        <ele>155.9</ele>
        <time>2025-10-26T10:27:49Z</time>
      </trkpt>
      <trkpt lat="43.51155" lon="6.68644">
        <ele>155.9</ele>
        <time>2025-10-26T10:27:50Z</time>
      </trkpt>
      <trkpt lat="43.51155" lon="6.68644">
        <ele>155.9</ele>
        <time>2025-10-26T10:27:51Z</time>
      </trkpt>
      <trkpt lat="43.51155" lon="6.68645">
        <ele>156</ele>
        <time>2025-10-26T10:27:52Z</time>
      </trkpt>
      <trkpt lat="43.51155" lon="6.68645">
        <ele>156</ele>
        <time>2025-10-26T10:27:53Z</time>
      </trkpt>
      <trkpt lat="43.51155" lon="6.68645">
        <ele>156</ele>
        <time>2025-10-26T10:27:54Z</time>
      </trkpt>
      <trkpt lat="43.51155" lon="6.68645">
        <ele>156</ele>
        <time>2025-10-26T10:27:55Z</time>
      </trkpt>
      <trkpt lat="43.51155" lon="6.68645">
        <ele>156</ele>
        <time>2025-10-26T10:27:56Z</time>
      </trkpt>
      <trkpt lat="43.51154" lon="6.68645">
        <ele>155.9</ele>
        <time>2025-10-26T10:27:57Z</time>
      </trkpt>
      <trkpt lat="43.51154" lon="6.68645">
        <ele>155.9</ele>
        <time>2025-10-26T10:27:58Z</time>
      </trkpt>
      <trkpt lat="43.51154" lon="6.68646">
        <ele>155.8</ele>
        <time>2025-10-26T10:27:59Z</time>
      </trkpt>
      <trkpt lat="43.51154" lon="6.68646">
        <ele>155.8</ele>
        <time>2025-10-26T10:28:00Z</time>
      </trkpt>
      <trkpt lat="43.51154" lon="6.68646">
        <ele>155.7</ele>
        <time>2025-10-26T10:28:01Z</time>
      </trkpt>
      <trkpt lat="43.51154" lon="6.68646">
        <ele>155.7</ele>
        <time>2025-10-26T10:28:02Z</time>
      </trkpt>
      <trkpt lat="43.51154" lon="6.68646">
        <ele>155.7</ele>
        <time>2025-10-26T10:28:03Z</time>
      </trkpt>
      <trkpt lat="43.51154" lon="6.68646">
        <ele>155.7</ele>
        <time>2025-10-26T10:28:04Z</time>
      </trkpt>
      <trkpt lat="43.51154" lon="6.68646">
        <ele>155.6</ele>
        <time>2025-10-26T10:28:05Z</time>
      </trkpt>
      <trkpt lat="43.51154" lon="6.68646">
        <ele>155.6</ele>
        <time>2025-10-26T10:28:06Z</time>
      </trkpt>
      <trkpt lat="43.51154" lon="6.68646">
        <ele>155.6</ele>
        <time>2025-10-26T10:28:07Z</time>
      </trkpt>
      <trkpt lat="43.51154" lon="6.68646">
        <ele>155.8</ele>
        <time>2025-10-26T10:28:08Z</time>
      </trkpt>
      <trkpt lat="43.51154" lon="6.68647">
        <ele>155.9</ele>
        <time>2025-10-26T10:28:09Z</time>
      </trkpt>
      <trkpt lat="43.51154" lon="6.68647">
        <ele>156</ele>
        <time>2025-10-26T10:28:10Z</time>
      </trkpt>
      <trkpt lat="43.51154" lon="6.68647">
        <ele>156</ele>
        <time>2025-10-26T10:28:11Z</time>
      </trkpt>
      <trkpt lat="43.51154" lon="6.68647">
        <ele>156</ele>
        <time>2025-10-26T10:28:12Z</time>
      </trkpt>
      <trkpt lat="43.51154" lon="6.68647">
        <ele>156</ele>
        <time>2025-10-26T10:28:13Z</time>
      </trkpt>
      <trkpt lat="43.51154" lon="6.68647">
        <ele>156</ele>
        <time>2025-10-26T10:28:14Z</time>
      </trkpt>
      <trkpt lat="43.51154" lon="6.68647">
        <ele>156</ele>
        <time>2025-10-26T10:28:15Z</time>
      </trkpt>
      <trkpt lat="43.51154" lon="6.68647">
        <ele>156</ele>
        <time>2025-10-26T10:28:16Z</time>
      </trkpt>
      <trkpt lat="43.51154" lon="6.68647">
        <ele>155.9</ele>
        <time>2025-10-26T10:28:17Z</time>
      </trkpt>
      <trkpt lat="43.51153" lon="6.68647">
        <ele>156</ele>
        <time>2025-10-26T10:28:18Z</time>
      </trkpt>
      <trkpt lat="43.51153" lon="6.68647">
        <ele>156</ele>
        <time>2025-10-26T10:28:19Z</time>
      </trkpt>
      <trkpt lat="43.51153" lon="6.68648">
        <ele>155.9</ele>
        <time>2025-10-26T10:28:20Z</time>
      </trkpt>
      <trkpt lat="43.51153" lon="6.68648">
        <ele>155.9</ele>
        <time>2025-10-26T10:28:21Z</time>
      </trkpt>
      <trkpt lat="43.51153" lon="6.68648">
        <ele>155.8</ele>
        <time>2025-10-26T10:28:22Z</time>
      </trkpt>
      <trkpt lat="43.51153" lon="6.68648">
        <ele>155.8</ele>
        <time>2025-10-26T10:28:23Z</time>
      </trkpt>
      <trkpt lat="43.51153" lon="6.68648">
        <ele>155.8</ele>
        <time>2025-10-26T10:28:24Z</time>
      </trkpt>
      <trkpt lat="43.51153" lon="6.68648">
        <ele>155.8</ele>
        <time>2025-10-26T10:28:25Z</time>
      </trkpt>
      <trkpt lat="43.51153" lon="6.68648">
        <ele>155.8</ele>
        <time>2025-10-26T10:28:26Z</time>
      </trkpt>
      <trkpt lat="43.51153" lon="6.68648">
        <ele>155.8</ele>
        <time>2025-10-26T10:28:27Z</time>
      </trkpt>
      <trkpt lat="43.51153" lon="6.68648">
        <ele>155.7</ele>
        <time>2025-10-26T10:28:28Z</time>
      </trkpt>
      <trkpt lat="43.51153" lon="6.68649">
        <ele>155.7</ele>
        <time>2025-10-26T10:28:29Z</time>
      </trkpt>
      <trkpt lat="43.51152" lon="6.68648">
        <ele>155.7</ele>
        <time>2025-10-26T10:28:30Z</time>
      </trkpt>
      <trkpt lat="43.51152" lon="6.68648">
        <ele>155.8</ele>
        <time>2025-10-26T10:28:31Z</time>
      </trkpt>
      <trkpt lat="43.51152" lon="6.68649">
        <ele>155.7</ele>
        <time>2025-10-26T10:28:32Z</time>
      </trkpt>
      <trkpt lat="43.51153" lon="6.6865">
        <ele>155.6</ele>
        <time>2025-10-26T10:28:33Z</time>
      </trkpt>
      <trkpt lat="43.51153" lon="6.6865">
        <ele>155.6</ele>
        <time>2025-10-26T10:28:34Z</time>
      </trkpt>
      <trkpt lat="43.51154" lon="6.68651">
        <ele>155.6</ele>
        <time>2025-10-26T10:28:35Z</time>
      </trkpt>
      <trkpt lat="43.51154" lon="6.68653">
        <ele>155.6</ele>
        <time>2025-10-26T10:28:36Z</time>
      </trkpt>
      <trkpt lat="43.51154" lon="6.68654">
        <ele>155.7</ele>
        <time>2025-10-26T10:28:37Z</time>
      </trkpt>
      <trkpt lat="43.51155" lon="6.68654">
        <ele>155.8</ele>
        <time>2025-10-26T10:28:38Z</time>
      </trkpt>
      <trkpt lat="43.51155" lon="6.68656">
        <ele>155.8</ele>
        <time>2025-10-26T10:28:39Z</time>
      </trkpt>
      <trkpt lat="43.51155" lon="6.68657">
        <ele>155.9</ele>
        <time>2025-10-26T10:28:40Z</time>
      </trkpt>
      <trkpt lat="43.51156" lon="6.68658">
        <ele>155.9</ele>
        <time>2025-10-26T10:28:41Z</time>
      </trkpt>
      <trkpt lat="43.51156" lon="6.6866">
        <ele>155.9</ele>
        <time>2025-10-26T10:28:42Z</time>
      </trkpt>
      <trkpt lat="43.51156" lon="6.68661">
        <ele>155.8</ele>
        <time>2025-10-26T10:28:43Z</time>
      </trkpt>
      <trkpt lat="43.51157" lon="6.68662">
        <ele>155.8</ele>
        <time>2025-10-26T10:28:44Z</time>
      </trkpt>
      <trkpt lat="43.51157" lon="6.68663">
        <ele>155.7</ele>
        <time>2025-10-26T10:28:45Z</time>
      </trkpt>
      <trkpt lat="43.51158" lon="6.68664">
        <ele>155.6</ele>
        <time>2025-10-26T10:28:46Z</time>
      </trkpt>
      <trkpt lat="43.51159" lon="6.68665">
        <ele>155.6</ele>
        <time>2025-10-26T10:28:47Z</time>
      </trkpt>
      <trkpt lat="43.51159" lon="6.68666">
        <ele>155.5</ele>
        <time>2025-10-26T10:28:48Z</time>
      </trkpt>
      <trkpt lat="43.5116" lon="6.68667">
        <ele>155.5</ele>
        <time>2025-10-26T10:28:49Z</time>
      </trkpt>
      <trkpt lat="43.5116" lon="6.68668">
        <ele>155.5</ele>
        <time>2025-10-26T10:28:50Z</time>
      </trkpt>
      <trkpt lat="43.5116" lon="6.68669">
        <ele>155.5</ele>
        <time>2025-10-26T10:28:51Z</time>
      </trkpt>
      <trkpt lat="43.51161" lon="6.68671">
        <ele>155.6</ele>
        <time>2025-10-26T10:28:52Z</time>
      </trkpt>
      <trkpt lat="43.51161" lon="6.68672">
        <ele>155.6</ele>
        <time>2025-10-26T10:28:53Z</time>
      </trkpt>
      <trkpt lat="43.51161" lon="6.68673">
        <ele>155.7</ele>
        <time>2025-10-26T10:28:54Z</time>
      </trkpt>
      <trkpt lat="43.51162" lon="6.68674">
        <ele>156</ele>
        <time>2025-10-26T10:28:55Z</time>
      </trkpt>
      <trkpt lat="43.51162" lon="6.68675">
        <ele>156.2</ele>
        <time>2025-10-26T10:28:56Z</time>
      </trkpt>
      <trkpt lat="43.51163" lon="6.68676">
        <ele>156.3</ele>
        <time>2025-10-26T10:28:57Z</time>
      </trkpt>
      <trkpt lat="43.51164" lon="6.68677">
        <ele>156.3</ele>
        <time>2025-10-26T10:28:58Z</time>
      </trkpt>
      <trkpt lat="43.51164" lon="6.68678">
        <ele>156.4</ele>
        <time>2025-10-26T10:28:59Z</time>
      </trkpt>
      <trkpt lat="43.51165" lon="6.6868">
        <ele>156.3</ele>
        <time>2025-10-26T10:29:00Z</time>
      </trkpt>
      <trkpt lat="43.51165" lon="6.68681">
        <ele>156.3</ele>
        <time>2025-10-26T10:29:01Z</time>
      </trkpt>
      <trkpt lat="43.51166" lon="6.68683">
        <ele>156.3</ele>
        <time>2025-10-26T10:29:02Z</time>
      </trkpt>
      <trkpt lat="43.51166" lon="6.68684">
        <ele>156.2</ele>
        <time>2025-10-26T10:29:03Z</time>
      </trkpt>
      <trkpt lat="43.51167" lon="6.68685">
        <ele>156.1</ele>
        <time>2025-10-26T10:29:04Z</time>
      </trkpt>
      <trkpt lat="43.51167" lon="6.68687">
        <ele>156.1</ele>
        <time>2025-10-26T10:29:05Z</time>
      </trkpt>
      <trkpt lat="43.51168" lon="6.68688">
        <ele>156.2</ele>
        <time>2025-10-26T10:29:06Z</time>
      </trkpt>
      <trkpt lat="43.51169" lon="6.68689">
        <ele>156.2</ele>
        <time>2025-10-26T10:29:07Z</time>
      </trkpt>
      <trkpt lat="43.51169" lon="6.68691">
        <ele>156.2</ele>
        <time>2025-10-26T10:29:08Z</time>
      </trkpt>
      <trkpt lat="43.5117" lon="6.68692">
        <ele>156.2</ele>
        <time>2025-10-26T10:29:09Z</time>
      </trkpt>
      <trkpt lat="43.51171" lon="6.68693">
        <ele>156.3</ele>
        <time>2025-10-26T10:29:10Z</time>
      </trkpt>
      <trkpt lat="43.51172" lon="6.68694">
        <ele>156.3</ele>
        <time>2025-10-26T10:29:11Z</time>
      </trkpt>
      <trkpt lat="43.51173" lon="6.68695">
        <ele>156.3</ele>
        <time>2025-10-26T10:29:12Z</time>
      </trkpt>
      <trkpt lat="43.51174" lon="6.68697">
        <ele>156.2</ele>
        <time>2025-10-26T10:29:13Z</time>
      </trkpt>
      <trkpt lat="43.51175" lon="6.68698">
        <ele>156.2</ele>
        <time>2025-10-26T10:29:14Z</time>
      </trkpt>
      <trkpt lat="43.51175" lon="6.68699">
        <ele>156.2</ele>
        <time>2025-10-26T10:29:15Z</time>
      </trkpt>
      <trkpt lat="43.51176" lon="6.687">
        <ele>156.1</ele>
        <time>2025-10-26T10:29:16Z</time>
      </trkpt>
      <trkpt lat="43.51177" lon="6.68701">
        <ele>156.1</ele>
        <time>2025-10-26T10:29:17Z</time>
      </trkpt>
      <trkpt lat="43.51178" lon="6.68702">
        <ele>156.1</ele>
        <time>2025-10-26T10:29:18Z</time>
      </trkpt>
      <trkpt lat="43.51178" lon="6.68704">
        <ele>156.1</ele>
        <time>2025-10-26T10:29:19Z</time>
      </trkpt>
      <trkpt lat="43.51179" lon="6.68705">
        <ele>156.1</ele>
        <time>2025-10-26T10:29:20Z</time>
      </trkpt>
      <trkpt lat="43.5118" lon="6.68706">
        <ele>156</ele>
        <time>2025-10-26T10:29:21Z</time>
      </trkpt>
      <trkpt lat="43.51181" lon="6.68707">
        <ele>156.1</ele>
        <time>2025-10-26T10:29:22Z</time>
      </trkpt>
      <trkpt lat="43.51181" lon="6.68708">
        <ele>156</ele>
        <time>2025-10-26T10:29:23Z</time>
      </trkpt>
      <trkpt lat="43.51182" lon="6.6871">
        <ele>155.9</ele>
        <time>2025-10-26T10:29:24Z</time>
      </trkpt>
      <trkpt lat="43.51182" lon="6.68711">
        <ele>155.8</ele>
        <time>2025-10-26T10:29:25Z</time>
      </trkpt>
      <trkpt lat="43.51183" lon="6.68712">
        <ele>155.7</ele>
        <time>2025-10-26T10:29:26Z</time>
      </trkpt>
      <trkpt lat="43.51184" lon="6.68713">
        <ele>155.6</ele>
        <time>2025-10-26T10:29:27Z</time>
      </trkpt>
      <trkpt lat="43.51185" lon="6.68714">
        <ele>155.6</ele>
        <time>2025-10-26T10:29:28Z</time>
      </trkpt>
      <trkpt lat="43.51185" lon="6.68715">
        <ele>155.5</ele>
        <time>2025-10-26T10:29:29Z</time>
      </trkpt>
      <trkpt lat="43.51186" lon="6.68716">
        <ele>155.4</ele>
        <time>2025-10-26T10:29:30Z</time>
      </trkpt>
      <trkpt lat="43.51187" lon="6.68717">
        <ele>155.4</ele>
        <time>2025-10-26T10:29:31Z</time>
      </trkpt>
      <trkpt lat="43.51187" lon="6.68719">
        <ele>155.3</ele>
        <time>2025-10-26T10:29:32Z</time>
      </trkpt>
      <trkpt lat="43.51188" lon="6.6872">
        <ele>155.3</ele>
        <time>2025-10-26T10:29:33Z</time>
      </trkpt>
      <trkpt lat="43.51188" lon="6.68722">
        <ele>155.2</ele>
        <time>2025-10-26T10:29:34Z</time>
      </trkpt>
      <trkpt lat="43.51188" lon="6.68723">
        <ele>155</ele>
        <time>2025-10-26T10:29:35Z</time>
      </trkpt>
      <trkpt lat="43.51189" lon="6.68725">
        <ele>154.8</ele>
        <time>2025-10-26T10:29:36Z</time>
      </trkpt>
      <trkpt lat="43.51189" lon="6.68726">
        <ele>154.7</ele>
        <time>2025-10-26T10:29:37Z</time>
      </trkpt>
      <trkpt lat="43.51189" lon="6.68727">
        <ele>154.6</ele>
        <time>2025-10-26T10:29:38Z</time>
      </trkpt>
      <trkpt lat="43.51189" lon="6.68728">
        <ele>154.6</ele>
        <time>2025-10-26T10:29:39Z</time>
      </trkpt>
      <trkpt lat="43.5119" lon="6.6873">
        <ele>154.6</ele>
        <time>2025-10-26T10:29:40Z</time>
      </trkpt>
      <trkpt lat="43.5119" lon="6.68731">
        <ele>154.5</ele>
        <time>2025-10-26T10:29:41Z</time>
      </trkpt>
      <trkpt lat="43.51191" lon="6.68733">
        <ele>154.4</ele>
        <time>2025-10-26T10:29:42Z</time>
      </trkpt>
      <trkpt lat="43.51191" lon="6.68735">
        <ele>154.4</ele>
        <time>2025-10-26T10:29:43Z</time>
      </trkpt>
      <trkpt lat="43.51191" lon="6.68736">
        <ele>154.2</ele>
        <time>2025-10-26T10:29:44Z</time>
      </trkpt>
      <trkpt lat="43.51191" lon="6.68738">
        <ele>154.1</ele>
        <time>2025-10-26T10:29:45Z</time>
      </trkpt>
      <trkpt lat="43.51191" lon="6.68739">
        <ele>154</ele>
        <time>2025-10-26T10:29:46Z</time>
      </trkpt>
      <trkpt lat="43.51191" lon="6.6874">
        <ele>154</ele>
        <time>2025-10-26T10:29:47Z</time>
      </trkpt>
      <trkpt lat="43.51191" lon="6.68742">
        <ele>153.9</ele>
        <time>2025-10-26T10:29:48Z</time>
      </trkpt>
      <trkpt lat="43.51191" lon="6.68743">
        <ele>153.8</ele>
        <time>2025-10-26T10:29:49Z</time>
      </trkpt>
      <trkpt lat="43.5119" lon="6.68745">
        <ele>153.8</ele>
        <time>2025-10-26T10:29:50Z</time>
      </trkpt>
      <trkpt lat="43.5119" lon="6.68746">
        <ele>153.7</ele>
        <time>2025-10-26T10:29:51Z</time>
      </trkpt>
      <trkpt lat="43.5119" lon="6.68748">
        <ele>153.7</ele>
        <time>2025-10-26T10:29:52Z</time>
      </trkpt>
      <trkpt lat="43.5119" lon="6.68749">
        <ele>153.5</ele>
        <time>2025-10-26T10:29:53Z</time>
      </trkpt>
      <trkpt lat="43.51191" lon="6.6875">
        <ele>153.4</ele>
        <time>2025-10-26T10:29:54Z</time>
      </trkpt>
      <trkpt lat="43.51191" lon="6.68751">
        <ele>153.3</ele>
        <time>2025-10-26T10:29:55Z</time>
      </trkpt>
      <trkpt lat="43.5119" lon="6.68751">
        <ele>153.3</ele>
        <time>2025-10-26T10:29:56Z</time>
      </trkpt>
      <trkpt lat="43.5119" lon="6.68752">
        <ele>153.3</ele>
        <time>2025-10-26T10:29:57Z</time>
      </trkpt>
      <trkpt lat="43.5119" lon="6.68753">
        <ele>153.2</ele>
        <time>2025-10-26T10:29:58Z</time>
      </trkpt>
      <trkpt lat="43.5119" lon="6.68755">
        <ele>153.2</ele>
        <time>2025-10-26T10:29:59Z</time>
      </trkpt>
      <trkpt lat="43.5119" lon="6.68756">
        <ele>153.2</ele>
        <time>2025-10-26T10:30:00Z</time>
      </trkpt>
      <trkpt lat="43.5119" lon="6.68758">
        <ele>153.2</ele>
        <time>2025-10-26T10:30:01Z</time>
      </trkpt>
      <trkpt lat="43.5119" lon="6.6876">
        <ele>153.1</ele>
        <time>2025-10-26T10:30:02Z</time>
      </trkpt>
      <trkpt lat="43.5119" lon="6.68761">
        <ele>153.1</ele>
        <time>2025-10-26T10:30:03Z</time>
      </trkpt>
      <trkpt lat="43.5119" lon="6.68762">
        <ele>153</ele>
        <time>2025-10-26T10:30:04Z</time>
      </trkpt>
      <trkpt lat="43.5119" lon="6.68763">
        <ele>153</ele>
        <time>2025-10-26T10:30:05Z</time>
      </trkpt>
      <trkpt lat="43.5119" lon="6.68765">
        <ele>153</ele>
        <time>2025-10-26T10:30:06Z</time>
      </trkpt>
      <trkpt lat="43.51189" lon="6.68766">
        <ele>153</ele>
        <time>2025-10-26T10:30:07Z</time>
      </trkpt>
      <trkpt lat="43.51189" lon="6.68768">
        <ele>152.9</ele>
        <time>2025-10-26T10:30:08Z</time>
      </trkpt>
      <trkpt lat="43.51189" lon="6.68769">
        <ele>152.9</ele>
        <time>2025-10-26T10:30:09Z</time>
      </trkpt>
      <trkpt lat="43.51189" lon="6.68771">
        <ele>152.9</ele>
        <time>2025-10-26T10:30:10Z</time>
      </trkpt>
      <trkpt lat="43.5119" lon="6.68772">
        <ele>152.8</ele>
        <time>2025-10-26T10:30:11Z</time>
      </trkpt>
      <trkpt lat="43.5119" lon="6.68773">
        <ele>152.7</ele>
        <time>2025-10-26T10:30:12Z</time>
      </trkpt>
      <trkpt lat="43.5119" lon="6.68775">
        <ele>152.7</ele>
        <time>2025-10-26T10:30:13Z</time>
      </trkpt>
      <trkpt lat="43.51189" lon="6.68776">
        <ele>152.7</ele>
        <time>2025-10-26T10:30:14Z</time>
      </trkpt>
      <trkpt lat="43.51189" lon="6.68778">
        <ele>152.7</ele>
        <time>2025-10-26T10:30:15Z</time>
      </trkpt>
      <trkpt lat="43.51189" lon="6.6878">
        <ele>152.7</ele>
        <time>2025-10-26T10:30:16Z</time>
      </trkpt>
      <trkpt lat="43.51189" lon="6.68781">
        <ele>152.7</ele>
        <time>2025-10-26T10:30:17Z</time>
      </trkpt>
      <trkpt lat="43.5119" lon="6.68783">
        <ele>152.7</ele>
        <time>2025-10-26T10:30:18Z</time>
      </trkpt>
      <trkpt lat="43.5119" lon="6.68784">
        <ele>152.7</ele>
        <time>2025-10-26T10:30:19Z</time>
      </trkpt>
      <trkpt lat="43.5119" lon="6.68786">
        <ele>152.7</ele>
        <time>2025-10-26T10:30:20Z</time>
      </trkpt>
      <trkpt lat="43.5119" lon="6.68787">
        <ele>152.7</ele>
        <time>2025-10-26T10:30:21Z</time>
      </trkpt>
      <trkpt lat="43.51189" lon="6.68789">
        <ele>152.6</ele>
        <time>2025-10-26T10:30:22Z</time>
      </trkpt>
      <trkpt lat="43.51189" lon="6.68791">
        <ele>152.5</ele>
        <time>2025-10-26T10:30:23Z</time>
      </trkpt>
      <trkpt lat="43.51189" lon="6.68792">
        <ele>152.5</ele>
        <time>2025-10-26T10:30:24Z</time>
      </trkpt>
      <trkpt lat="43.51189" lon="6.68794">
        <ele>152.4</ele>
        <time>2025-10-26T10:30:25Z</time>
      </trkpt>
      <trkpt lat="43.51189" lon="6.68796">
        <ele>152.5</ele>
        <time>2025-10-26T10:30:26Z</time>
      </trkpt>
      <trkpt lat="43.51189" lon="6.68798">
        <ele>152.3</ele>
        <time>2025-10-26T10:30:27Z</time>
      </trkpt>
      <trkpt lat="43.51189" lon="6.68799">
        <ele>152.1</ele>
        <time>2025-10-26T10:30:28Z</time>
      </trkpt>
      <trkpt lat="43.51189" lon="6.68801">
        <ele>152</ele>
        <time>2025-10-26T10:30:29Z</time>
      </trkpt>
      <trkpt lat="43.51189" lon="6.68802">
        <ele>151.9</ele>
        <time>2025-10-26T10:30:30Z</time>
      </trkpt>
      <trkpt lat="43.51189" lon="6.68804">
        <ele>151.8</ele>
        <time>2025-10-26T10:30:31Z</time>
      </trkpt>
      <trkpt lat="43.51189" lon="6.68805">
        <ele>151.7</ele>
        <time>2025-10-26T10:30:32Z</time>
      </trkpt>
      <trkpt lat="43.51189" lon="6.68807">
        <ele>151.6</ele>
        <time>2025-10-26T10:30:33Z</time>
      </trkpt>
      <trkpt lat="43.51189" lon="6.68808">
        <ele>151.5</ele>
        <time>2025-10-26T10:30:34Z</time>
      </trkpt>
      <trkpt lat="43.51188" lon="6.6881">
        <ele>151.5</ele>
        <time>2025-10-26T10:30:35Z</time>
      </trkpt>
      <trkpt lat="43.51188" lon="6.68812">
        <ele>151.4</ele>
        <time>2025-10-26T10:30:36Z</time>
      </trkpt>
      <trkpt lat="43.51188" lon="6.68814">
        <ele>151.5</ele>
        <time>2025-10-26T10:30:37Z</time>
      </trkpt>
      <trkpt lat="43.51188" lon="6.68815">
        <ele>151.4</ele>
        <time>2025-10-26T10:30:38Z</time>
      </trkpt>
      <trkpt lat="43.51188" lon="6.68817">
        <ele>151.4</ele>
        <time>2025-10-26T10:30:39Z</time>
      </trkpt>
      <trkpt lat="43.51188" lon="6.68819">
        <ele>151.3</ele>
        <time>2025-10-26T10:30:40Z</time>
      </trkpt>
      <trkpt lat="43.51188" lon="6.6882">
        <ele>151.2</ele>
        <time>2025-10-26T10:30:41Z</time>
      </trkpt>
      <trkpt lat="43.51188" lon="6.68822">
        <ele>151.1</ele>
        <time>2025-10-26T10:30:42Z</time>
      </trkpt>
      <trkpt lat="43.51188" lon="6.68823">
        <ele>151</ele>
        <time>2025-10-26T10:30:43Z</time>
      </trkpt>
      <trkpt lat="43.51188" lon="6.68825">
        <ele>151</ele>
        <time>2025-10-26T10:30:44Z</time>
      </trkpt>
      <trkpt lat="43.51188" lon="6.68826">
        <ele>150.8</ele>
        <time>2025-10-26T10:30:45Z</time>
      </trkpt>
      <trkpt lat="43.51188" lon="6.68828">
        <ele>150.8</ele>
        <time>2025-10-26T10:30:46Z</time>
      </trkpt>
      <trkpt lat="43.51188" lon="6.68829">
        <ele>150.8</ele>
        <time>2025-10-26T10:30:47Z</time>
      </trkpt>
      <trkpt lat="43.51188" lon="6.68831">
        <ele>150.8</ele>
        <time>2025-10-26T10:30:48Z</time>
      </trkpt>
      <trkpt lat="43.51188" lon="6.68832">
        <ele>150.7</ele>
        <time>2025-10-26T10:30:49Z</time>
      </trkpt>
      <trkpt lat="43.51188" lon="6.68834">
        <ele>150.7</ele>
        <time>2025-10-26T10:30:50Z</time>
      </trkpt>
      <trkpt lat="43.51188" lon="6.68836">
        <ele>150.7</ele>
        <time>2025-10-26T10:30:51Z</time>
      </trkpt>
      <trkpt lat="43.51188" lon="6.68837">
        <ele>150.7</ele>
        <time>2025-10-26T10:30:52Z</time>
      </trkpt>
      <trkpt lat="43.51188" lon="6.68839">
        <ele>150.6</ele>
        <time>2025-10-26T10:30:53Z</time>
      </trkpt>
      <trkpt lat="43.51188" lon="6.68841">
        <ele>150.6</ele>
        <time>2025-10-26T10:30:54Z</time>
      </trkpt>
      <trkpt lat="43.51188" lon="6.68842">
        <ele>150.5</ele>
        <time>2025-10-26T10:30:55Z</time>
      </trkpt>
      <trkpt lat="43.51188" lon="6.68844">
        <ele>150.5</ele>
        <time>2025-10-26T10:30:56Z</time>
      </trkpt>
      <trkpt lat="43.51188" lon="6.68846">
        <ele>150.4</ele>
        <time>2025-10-26T10:30:57Z</time>
      </trkpt>
      <trkpt lat="43.51188" lon="6.68848">
        <ele>150.3</ele>
        <time>2025-10-26T10:30:58Z</time>
      </trkpt>
      <trkpt lat="43.51188" lon="6.68849">
        <ele>150.2</ele>
        <time>2025-10-26T10:30:59Z</time>
      </trkpt>
      <trkpt lat="43.51188" lon="6.68851">
        <ele>150.1</ele>
        <time>2025-10-26T10:31:00Z</time>
      </trkpt>
      <trkpt lat="43.51188" lon="6.68852">
        <ele>150.1</ele>
        <time>2025-10-26T10:31:01Z</time>
      </trkpt>
      <trkpt lat="43.51189" lon="6.68854">
        <ele>150</ele>
        <time>2025-10-26T10:31:02Z</time>
      </trkpt>
      <trkpt lat="43.51189" lon="6.68856">
        <ele>149.9</ele>
        <time>2025-10-26T10:31:03Z</time>
      </trkpt>
      <trkpt lat="43.51189" lon="6.68857">
        <ele>149.8</ele>
        <time>2025-10-26T10:31:04Z</time>
      </trkpt>
      <trkpt lat="43.5119" lon="6.68859">
        <ele>149.8</ele>
        <time>2025-10-26T10:31:05Z</time>
      </trkpt>
      <trkpt lat="43.5119" lon="6.6886">
        <ele>149.7</ele>
        <time>2025-10-26T10:31:06Z</time>
      </trkpt>
      <trkpt lat="43.5119" lon="6.68862">
        <ele>149.7</ele>
        <time>2025-10-26T10:31:07Z</time>
      </trkpt>
      <trkpt lat="43.5119" lon="6.68864">
        <ele>149.5</ele>
        <time>2025-10-26T10:31:08Z</time>
      </trkpt>
      <trkpt lat="43.5119" lon="6.68865">
        <ele>149.4</ele>
        <time>2025-10-26T10:31:09Z</time>
      </trkpt>
      <trkpt lat="43.51191" lon="6.68867">
        <ele>149.3</ele>
        <time>2025-10-26T10:31:10Z</time>
      </trkpt>
      <trkpt lat="43.51191" lon="6.68868">
        <ele>149.2</ele>
        <time>2025-10-26T10:31:11Z</time>
      </trkpt>
      <trkpt lat="43.51192" lon="6.6887">
        <ele>149.2</ele>
        <time>2025-10-26T10:31:12Z</time>
      </trkpt>
      <trkpt lat="43.51192" lon="6.68871">
        <ele>149.1</ele>
        <time>2025-10-26T10:31:13Z</time>
      </trkpt>
      <trkpt lat="43.51193" lon="6.68873">
        <ele>149.1</ele>
        <time>2025-10-26T10:31:14Z</time>
      </trkpt>
      <trkpt lat="43.51193" lon="6.68874">
        <ele>149</ele>
        <time>2025-10-26T10:31:15Z</time>
      </trkpt>
      <trkpt lat="43.51194" lon="6.68876">
        <ele>148.8</ele>
        <time>2025-10-26T10:31:16Z</time>
      </trkpt>
      <trkpt lat="43.51194" lon="6.68877">
        <ele>148.7</ele>
        <time>2025-10-26T10:31:17Z</time>
      </trkpt>
      <trkpt lat="43.51194" lon="6.68879">
        <ele>148.7</ele>
        <time>2025-10-26T10:31:18Z</time>
      </trkpt>
      <trkpt lat="43.51194" lon="6.6888">
        <ele>148.6</ele>
        <time>2025-10-26T10:31:19Z</time>
      </trkpt>
      <trkpt lat="43.51195" lon="6.68882">
        <ele>148.5</ele>
        <time>2025-10-26T10:31:20Z</time>
      </trkpt>
      <trkpt lat="43.51195" lon="6.68883">
        <ele>148.4</ele>
        <time>2025-10-26T10:31:21Z</time>
      </trkpt>
      <trkpt lat="43.51195" lon="6.68885">
        <ele>148.2</ele>
        <time>2025-10-26T10:31:22Z</time>
      </trkpt>
      <trkpt lat="43.51196" lon="6.68887">
        <ele>148.2</ele>
        <time>2025-10-26T10:31:23Z</time>
      </trkpt>
      <trkpt lat="43.51196" lon="6.68888">
        <ele>148.1</ele>
        <time>2025-10-26T10:31:24Z</time>
      </trkpt>
      <trkpt lat="43.51197" lon="6.6889">
        <ele>148.1</ele>
        <time>2025-10-26T10:31:25Z</time>
      </trkpt>
      <trkpt lat="43.51198" lon="6.68891">
        <ele>148</ele>
        <time>2025-10-26T10:31:26Z</time>
      </trkpt>
      <trkpt lat="43.51198" lon="6.68893">
        <ele>147.8</ele>
        <time>2025-10-26T10:31:27Z</time>
      </trkpt>
      <trkpt lat="43.51199" lon="6.68895">
        <ele>147.8</ele>
        <time>2025-10-26T10:31:28Z</time>
      </trkpt>
      <trkpt lat="43.512" lon="6.68896">
        <ele>147.9</ele>
        <time>2025-10-26T10:31:29Z</time>
      </trkpt>
      <trkpt lat="43.512" lon="6.68898">
        <ele>147.9</ele>
        <time>2025-10-26T10:31:30Z</time>
      </trkpt>
      <trkpt lat="43.512" lon="6.68899">
        <ele>147.9</ele>
        <time>2025-10-26T10:31:31Z</time>
      </trkpt>
      <trkpt lat="43.512" lon="6.689">
        <ele>147.9</ele>
        <time>2025-10-26T10:31:32Z</time>
      </trkpt>
      <trkpt lat="43.512" lon="6.68902">
        <ele>148</ele>
        <time>2025-10-26T10:31:33Z</time>
      </trkpt>
      <trkpt lat="43.512" lon="6.68904">
        <ele>148</ele>
        <time>2025-10-26T10:31:34Z</time>
      </trkpt>
      <trkpt lat="43.512" lon="6.68905">
        <ele>148</ele>
        <time>2025-10-26T10:31:35Z</time>
      </trkpt>
      <trkpt lat="43.512" lon="6.68907">
        <ele>147.9</ele>
        <time>2025-10-26T10:31:36Z</time>
      </trkpt>
      <trkpt lat="43.51201" lon="6.68909">
        <ele>147.9</ele>
        <time>2025-10-26T10:31:37Z</time>
      </trkpt>
      <trkpt lat="43.51201" lon="6.6891">
        <ele>147.9</ele>
        <time>2025-10-26T10:31:38Z</time>
      </trkpt>
      <trkpt lat="43.51202" lon="6.68912">
        <ele>147.8</ele>
        <time>2025-10-26T10:31:39Z</time>
      </trkpt>
      <trkpt lat="43.51202" lon="6.68913">
        <ele>147.8</ele>
        <time>2025-10-26T10:31:40Z</time>
      </trkpt>
      <trkpt lat="43.51203" lon="6.68914">
        <ele>147.7</ele>
        <time>2025-10-26T10:31:41Z</time>
      </trkpt>
      <trkpt lat="43.51203" lon="6.68916">
        <ele>147.7</ele>
        <time>2025-10-26T10:31:42Z</time>
      </trkpt>
      <trkpt lat="43.51202" lon="6.68917">
        <ele>147.7</ele>
        <time>2025-10-26T10:31:43Z</time>
      </trkpt>
      <trkpt lat="43.51202" lon="6.68918">
        <ele>147.5</ele>
        <time>2025-10-26T10:31:44Z</time>
      </trkpt>
      <trkpt lat="43.51202" lon="6.6892">
        <ele>147.4</ele>
        <time>2025-10-26T10:31:45Z</time>
      </trkpt>
      <trkpt lat="43.51202" lon="6.68921">
        <ele>147.4</ele>
        <time>2025-10-26T10:31:46Z</time>
      </trkpt>
      <trkpt lat="43.51202" lon="6.68923">
        <ele>147.4</ele>
        <time>2025-10-26T10:31:47Z</time>
      </trkpt>
      <trkpt lat="43.51202" lon="6.68924">
        <ele>147.4</ele>
        <time>2025-10-26T10:31:48Z</time>
      </trkpt>
      <trkpt lat="43.51201" lon="6.68926">
        <ele>147.3</ele>
        <time>2025-10-26T10:31:49Z</time>
      </trkpt>
      <trkpt lat="43.51201" lon="6.68928">
        <ele>147.4</ele>
        <time>2025-10-26T10:31:50Z</time>
      </trkpt>
      <trkpt lat="43.51202" lon="6.68929">
        <ele>147.4</ele>
        <time>2025-10-26T10:31:51Z</time>
      </trkpt>
      <trkpt lat="43.51202" lon="6.68931">
        <ele>147.5</ele>
        <time>2025-10-26T10:31:52Z</time>
      </trkpt>
      <trkpt lat="43.51202" lon="6.68932">
        <ele>147.5</ele>
        <time>2025-10-26T10:31:53Z</time>
      </trkpt>
      <trkpt lat="43.51202" lon="6.68934">
        <ele>147.4</ele>
        <time>2025-10-26T10:31:54Z</time>
      </trkpt>
      <trkpt lat="43.51202" lon="6.68935">
        <ele>147.4</ele>
        <time>2025-10-26T10:31:55Z</time>
      </trkpt>
      <trkpt lat="43.51202" lon="6.68937">
        <ele>147.5</ele>
        <time>2025-10-26T10:31:56Z</time>
      </trkpt>
      <trkpt lat="43.51203" lon="6.68939">
        <ele>147.5</ele>
        <time>2025-10-26T10:31:57Z</time>
      </trkpt>
      <trkpt lat="43.51203" lon="6.6894">
        <ele>147.5</ele>
        <time>2025-10-26T10:31:58Z</time>
      </trkpt>
      <trkpt lat="43.51203" lon="6.68942">
        <ele>147.5</ele>
        <time>2025-10-26T10:31:59Z</time>
      </trkpt>
      <trkpt lat="43.51204" lon="6.68943">
        <ele>147.6</ele>
        <time>2025-10-26T10:32:00Z</time>
      </trkpt>
      <trkpt lat="43.51204" lon="6.68945">
        <ele>147.5</ele>
        <time>2025-10-26T10:32:01Z</time>
      </trkpt>
      <trkpt lat="43.51204" lon="6.68946">
        <ele>147.7</ele>
        <time>2025-10-26T10:32:02Z</time>
      </trkpt>
      <trkpt lat="43.51205" lon="6.68948">
        <ele>147.7</ele>
        <time>2025-10-26T10:32:03Z</time>
      </trkpt>
      <trkpt lat="43.51205" lon="6.68949">
        <ele>147.8</ele>
        <time>2025-10-26T10:32:04Z</time>
      </trkpt>
      <trkpt lat="43.51206" lon="6.6895">
        <ele>147.9</ele>
        <time>2025-10-26T10:32:05Z</time>
      </trkpt>
      <trkpt lat="43.51206" lon="6.68951">
        <ele>148</ele>
        <time>2025-10-26T10:32:06Z</time>
      </trkpt>
      <trkpt lat="43.51207" lon="6.68952">
        <ele>148.1</ele>
        <time>2025-10-26T10:32:07Z</time>
      </trkpt>
      <trkpt lat="43.51207" lon="6.68954">
        <ele>148.3</ele>
        <time>2025-10-26T10:32:08Z</time>
      </trkpt>
      <trkpt lat="43.51208" lon="6.68955">
        <ele>148.4</ele>
        <time>2025-10-26T10:32:09Z</time>
      </trkpt>
      <trkpt lat="43.51208" lon="6.68956">
        <ele>148.5</ele>
        <time>2025-10-26T10:32:10Z</time>
      </trkpt>
      <trkpt lat="43.51208" lon="6.68957">
        <ele>148.6</ele>
        <time>2025-10-26T10:32:11Z</time>
      </trkpt>
      <trkpt lat="43.51208" lon="6.68959">
        <ele>148.6</ele>
        <time>2025-10-26T10:32:12Z</time>
      </trkpt>
      <trkpt lat="43.51209" lon="6.6896">
        <ele>148.6</ele>
        <time>2025-10-26T10:32:13Z</time>
      </trkpt>
      <trkpt lat="43.51209" lon="6.68962">
        <ele>148.7</ele>
        <time>2025-10-26T10:32:14Z</time>
      </trkpt>
      <trkpt lat="43.51209" lon="6.68963">
        <ele>148.8</ele>
        <time>2025-10-26T10:32:15Z</time>
      </trkpt>
      <trkpt lat="43.51209" lon="6.68965">
        <ele>148.8</ele>
        <time>2025-10-26T10:32:16Z</time>
      </trkpt>
      <trkpt lat="43.51209" lon="6.68966">
        <ele>148.8</ele>
        <time>2025-10-26T10:32:17Z</time>
      </trkpt>
      <trkpt lat="43.51209" lon="6.68967">
        <ele>148.8</ele>
        <time>2025-10-26T10:32:18Z</time>
      </trkpt>
      <trkpt lat="43.51209" lon="6.68968">
        <ele>148.8</ele>
        <time>2025-10-26T10:32:19Z</time>
      </trkpt>
      <trkpt lat="43.51209" lon="6.6897">
        <ele>148.9</ele>
        <time>2025-10-26T10:32:20Z</time>
      </trkpt>
      <trkpt lat="43.5121" lon="6.68971">
        <ele>148.9</ele>
        <time>2025-10-26T10:32:21Z</time>
      </trkpt>
      <trkpt lat="43.5121" lon="6.68973">
        <ele>149</ele>
        <time>2025-10-26T10:32:22Z</time>
      </trkpt>
      <trkpt lat="43.5121" lon="6.68974">
        <ele>149.1</ele>
        <time>2025-10-26T10:32:23Z</time>
      </trkpt>
      <trkpt lat="43.51211" lon="6.68976">
        <ele>149.2</ele>
        <time>2025-10-26T10:32:24Z</time>
      </trkpt>
      <trkpt lat="43.51211" lon="6.68977">
        <ele>149.3</ele>
        <time>2025-10-26T10:32:25Z</time>
      </trkpt>
      <trkpt lat="43.51211" lon="6.68978">
        <ele>149.3</ele>
        <time>2025-10-26T10:32:26Z</time>
      </trkpt>
      <trkpt lat="43.51212" lon="6.6898">
        <ele>149.2</ele>
        <time>2025-10-26T10:32:27Z</time>
      </trkpt>
      <trkpt lat="43.51212" lon="6.68981">
        <ele>149.2</ele>
        <time>2025-10-26T10:32:28Z</time>
      </trkpt>
      <trkpt lat="43.51212" lon="6.68982">
        <ele>149.1</ele>
        <time>2025-10-26T10:32:29Z</time>
      </trkpt>
      <trkpt lat="43.51212" lon="6.68983">
        <ele>149</ele>
        <time>2025-10-26T10:32:30Z</time>
      </trkpt>
      <trkpt lat="43.51212" lon="6.68985">
        <ele>149</ele>
        <time>2025-10-26T10:32:31Z</time>
      </trkpt>
      <trkpt lat="43.51212" lon="6.68986">
        <ele>149</ele>
        <time>2025-10-26T10:32:32Z</time>
      </trkpt>
      <trkpt lat="43.51213" lon="6.68988">
        <ele>149</ele>
        <time>2025-10-26T10:32:33Z</time>
      </trkpt>
      <trkpt lat="43.51213" lon="6.68989">
        <ele>149</ele>
        <time>2025-10-26T10:32:34Z</time>
      </trkpt>
      <trkpt lat="43.51214" lon="6.6899">
        <ele>149</ele>
        <time>2025-10-26T10:32:35Z</time>
      </trkpt>
      <trkpt lat="43.51214" lon="6.68991">
        <ele>149.1</ele>
        <time>2025-10-26T10:32:36Z</time>
      </trkpt>
      <trkpt lat="43.51214" lon="6.68993">
        <ele>149.1</ele>
        <time>2025-10-26T10:32:37Z</time>
      </trkpt>
      <trkpt lat="43.51215" lon="6.68994">
        <ele>149.1</ele>
        <time>2025-10-26T10:32:38Z</time>
      </trkpt>
      <trkpt lat="43.51215" lon="6.68996">
        <ele>149.2</ele>
        <time>2025-10-26T10:32:39Z</time>
      </trkpt>
      <trkpt lat="43.51215" lon="6.68997">
        <ele>149.3</ele>
        <time>2025-10-26T10:32:40Z</time>
      </trkpt>
      <trkpt lat="43.51216" lon="6.68999">
        <ele>149.4</ele>
        <time>2025-10-26T10:32:41Z</time>
      </trkpt>
      <trkpt lat="43.51216" lon="6.69">
        <ele>149.5</ele>
        <time>2025-10-26T10:32:42Z</time>
      </trkpt>
      <trkpt lat="43.51216" lon="6.69002">
        <ele>149.7</ele>
        <time>2025-10-26T10:32:43Z</time>
      </trkpt>
      <trkpt lat="43.51216" lon="6.69003">
        <ele>149.6</ele>
        <time>2025-10-26T10:32:44Z</time>
      </trkpt>
      <trkpt lat="43.51217" lon="6.69004">
        <ele>149.6</ele>
        <time>2025-10-26T10:32:45Z</time>
      </trkpt>
      <trkpt lat="43.51217" lon="6.69006">
        <ele>149.5</ele>
        <time>2025-10-26T10:32:46Z</time>
      </trkpt>
      <trkpt lat="43.51217" lon="6.69007">
        <ele>149.5</ele>
        <time>2025-10-26T10:32:47Z</time>
      </trkpt>
      <trkpt lat="43.51218" lon="6.69008">
        <ele>149.5</ele>
        <time>2025-10-26T10:32:48Z</time>
      </trkpt>
      <trkpt lat="43.51218" lon="6.69009">
        <ele>149.6</ele>
        <time>2025-10-26T10:32:49Z</time>
      </trkpt>
      <trkpt lat="43.51219" lon="6.6901">
        <ele>149.5</ele>
        <time>2025-10-26T10:32:50Z</time>
      </trkpt>
      <trkpt lat="43.5122" lon="6.6901">
        <ele>149.5</ele>
        <time>2025-10-26T10:32:51Z</time>
      </trkpt>
      <trkpt lat="43.51221" lon="6.6901">
        <ele>149.4</ele>
        <time>2025-10-26T10:32:52Z</time>
      </trkpt>
      <trkpt lat="43.51221" lon="6.6901">
        <ele>149.5</ele>
        <time>2025-10-26T10:32:53Z</time>
      </trkpt>
      <trkpt lat="43.51222" lon="6.6901">
        <ele>149.5</ele>
        <time>2025-10-26T10:32:54Z</time>
      </trkpt>
      <trkpt lat="43.51222" lon="6.6901">
        <ele>149.6</ele>
        <time>2025-10-26T10:32:55Z</time>
      </trkpt>
      <trkpt lat="43.51222" lon="6.6901">
        <ele>149.6</ele>
        <time>2025-10-26T10:32:56Z</time>
      </trkpt>
      <trkpt lat="43.51222" lon="6.69011">
        <ele>149.7</ele>
        <time>2025-10-26T10:32:57Z</time>
      </trkpt>
      <trkpt lat="43.51222" lon="6.69012">
        <ele>149.7</ele>
        <time>2025-10-26T10:32:58Z</time>
      </trkpt>
      <trkpt lat="43.51222" lon="6.69012">
        <ele>149.9</ele>
        <time>2025-10-26T10:32:59Z</time>
      </trkpt>
      <trkpt lat="43.51222" lon="6.69012">
        <ele>150</ele>
        <time>2025-10-26T10:33:00Z</time>
      </trkpt>
      <trkpt lat="43.51222" lon="6.69013">
        <ele>150.1</ele>
        <time>2025-10-26T10:33:01Z</time>
      </trkpt>
      <trkpt lat="43.51222" lon="6.69013">
        <ele>150.2</ele>
        <time>2025-10-26T10:33:02Z</time>
      </trkpt>
      <trkpt lat="43.51222" lon="6.69013">
        <ele>150.3</ele>
        <time>2025-10-26T10:33:03Z</time>
      </trkpt>
      <trkpt lat="43.51222" lon="6.69013">
        <ele>150.4</ele>
        <time>2025-10-26T10:33:04Z</time>
      </trkpt>
      <trkpt lat="43.51222" lon="6.69013">
        <ele>150.5</ele>
        <time>2025-10-26T10:33:05Z</time>
      </trkpt>
      <trkpt lat="43.51222" lon="6.69014">
        <ele>150.5</ele>
        <time>2025-10-26T10:33:06Z</time>
      </trkpt>
      <trkpt lat="43.51221" lon="6.69014">
        <ele>150.6</ele>
        <time>2025-10-26T10:33:07Z</time>
      </trkpt>
      <trkpt lat="43.51221" lon="6.69015">
        <ele>150.6</ele>
        <time>2025-10-26T10:33:08Z</time>
      </trkpt>
      <trkpt lat="43.51221" lon="6.69016">
        <ele>150.7</ele>
        <time>2025-10-26T10:33:09Z</time>
      </trkpt>
      <trkpt lat="43.5122" lon="6.69017">
        <ele>150.8</ele>
        <time>2025-10-26T10:33:10Z</time>
      </trkpt>
      <trkpt lat="43.5122" lon="6.69018">
        <ele>150.8</ele>
        <time>2025-10-26T10:33:11Z</time>
      </trkpt>
      <trkpt lat="43.5122" lon="6.69019">
        <ele>150.8</ele>
        <time>2025-10-26T10:33:12Z</time>
      </trkpt>
      <trkpt lat="43.5122" lon="6.6902">
        <ele>150.9</ele>
        <time>2025-10-26T10:33:13Z</time>
      </trkpt>
      <trkpt lat="43.51219" lon="6.6902">
        <ele>150.9</ele>
        <time>2025-10-26T10:33:14Z</time>
      </trkpt>
      <trkpt lat="43.51219" lon="6.69021">
        <ele>150.9</ele>
        <time>2025-10-26T10:33:15Z</time>
      </trkpt>
      <trkpt lat="43.51219" lon="6.69022">
        <ele>150.8</ele>
        <time>2025-10-26T10:33:16Z</time>
      </trkpt>
      <trkpt lat="43.51218" lon="6.69023">
        <ele>150.8</ele>
        <time>2025-10-26T10:33:17Z</time>
      </trkpt>
      <trkpt lat="43.51217" lon="6.69024">
        <ele>150.8</ele>
        <time>2025-10-26T10:33:18Z</time>
      </trkpt>
      <trkpt lat="43.51217" lon="6.69025">
        <ele>150.6</ele>
        <time>2025-10-26T10:33:19Z</time>
      </trkpt>
      <trkpt lat="43.51217" lon="6.69026">
        <ele>150.5</ele>
        <time>2025-10-26T10:33:20Z</time>
      </trkpt>
      <trkpt lat="43.51216" lon="6.69027">
        <ele>150.4</ele>
        <time>2025-10-26T10:33:21Z</time>
      </trkpt>
      <trkpt lat="43.51216" lon="6.69028">
        <ele>150.4</ele>
        <time>2025-10-26T10:33:22Z</time>
      </trkpt>
      <trkpt lat="43.51215" lon="6.69029">
        <ele>150.4</ele>
        <time>2025-10-26T10:33:23Z</time>
      </trkpt>
      <trkpt lat="43.51214" lon="6.69029">
        <ele>150.3</ele>
        <time>2025-10-26T10:33:24Z</time>
      </trkpt>
      <trkpt lat="43.51213" lon="6.6903">
        <ele>150.4</ele>
        <time>2025-10-26T10:33:25Z</time>
      </trkpt>
      <trkpt lat="43.51212" lon="6.6903">
        <ele>150.5</ele>
        <time>2025-10-26T10:33:26Z</time>
      </trkpt>
      <trkpt lat="43.51212" lon="6.69031">
        <ele>150.5</ele>
        <time>2025-10-26T10:33:27Z</time>
      </trkpt>
      <trkpt lat="43.51211" lon="6.69032">
        <ele>150.5</ele>
        <time>2025-10-26T10:33:28Z</time>
      </trkpt>
      <trkpt lat="43.5121" lon="6.69033">
        <ele>150.7</ele>
        <time>2025-10-26T10:33:29Z</time>
      </trkpt>
      <trkpt lat="43.51209" lon="6.69033">
        <ele>150.8</ele>
        <time>2025-10-26T10:33:30Z</time>
      </trkpt>
      <trkpt lat="43.51208" lon="6.69034">
        <ele>150.8</ele>
        <time>2025-10-26T10:33:31Z</time>
      </trkpt>
      <trkpt lat="43.51207" lon="6.69035">
        <ele>150.8</ele>
        <time>2025-10-26T10:33:32Z</time>
      </trkpt>
      <trkpt lat="43.51206" lon="6.69035">
        <ele>150.8</ele>
        <time>2025-10-26T10:33:33Z</time>
      </trkpt>
      <trkpt lat="43.51205" lon="6.69036">
        <ele>150.7</ele>
        <time>2025-10-26T10:33:34Z</time>
      </trkpt>
      <trkpt lat="43.51204" lon="6.69037">
        <ele>150.6</ele>
        <time>2025-10-26T10:33:35Z</time>
      </trkpt>
      <trkpt lat="43.51203" lon="6.69038">
        <ele>150.4</ele>
        <time>2025-10-26T10:33:36Z</time>
      </trkpt>
      <trkpt lat="43.51202" lon="6.69038">
        <ele>150.4</ele>
        <time>2025-10-26T10:33:37Z</time>
      </trkpt>
      <trkpt lat="43.51201" lon="6.69039">
        <ele>150.3</ele>
        <time>2025-10-26T10:33:38Z</time>
      </trkpt>
      <trkpt lat="43.512" lon="6.69039">
        <ele>150.2</ele>
        <time>2025-10-26T10:33:39Z</time>
      </trkpt>
      <trkpt lat="43.51199" lon="6.6904">
        <ele>150.1</ele>
        <time>2025-10-26T10:33:40Z</time>
      </trkpt>
      <trkpt lat="43.51198" lon="6.6904">
        <ele>149.7</ele>
        <time>2025-10-26T10:33:41Z</time>
      </trkpt>
      <trkpt lat="43.51196" lon="6.69041">
        <ele>149.5</ele>
        <time>2025-10-26T10:33:42Z</time>
      </trkpt>
      <trkpt lat="43.51195" lon="6.69042">
        <ele>149.4</ele>
        <time>2025-10-26T10:33:43Z</time>
      </trkpt>
      <trkpt lat="43.51194" lon="6.69042">
        <ele>149.1</ele>
        <time>2025-10-26T10:33:44Z</time>
      </trkpt>
      <trkpt lat="43.51193" lon="6.69043">
        <ele>148.9</ele>
        <time>2025-10-26T10:33:45Z</time>
      </trkpt>
      <trkpt lat="43.51192" lon="6.69044">
        <ele>148.8</ele>
        <time>2025-10-26T10:33:46Z</time>
      </trkpt>
      <trkpt lat="43.51191" lon="6.69045">
        <ele>148.7</ele>
        <time>2025-10-26T10:33:47Z</time>
      </trkpt>
      <trkpt lat="43.5119" lon="6.69045">
        <ele>148.6</ele>
        <time>2025-10-26T10:33:48Z</time>
      </trkpt>
      <trkpt lat="43.51189" lon="6.69046">
        <ele>148.5</ele>
        <time>2025-10-26T10:33:49Z</time>
      </trkpt>
      <trkpt lat="43.51188" lon="6.69047">
        <ele>148.3</ele>
        <time>2025-10-26T10:33:50Z</time>
      </trkpt>
      <trkpt lat="43.51186" lon="6.69047">
        <ele>148.3</ele>
        <time>2025-10-26T10:33:51Z</time>
      </trkpt>
      <trkpt lat="43.51185" lon="6.69048">
        <ele>148.3</ele>
        <time>2025-10-26T10:33:52Z</time>
      </trkpt>
      <trkpt lat="43.51184" lon="6.6905">
        <ele>148.2</ele>
        <time>2025-10-26T10:33:53Z</time>
      </trkpt>
      <trkpt lat="43.51184" lon="6.69051">
        <ele>148.1</ele>
        <time>2025-10-26T10:33:54Z</time>
      </trkpt>
      <trkpt lat="43.51183" lon="6.69052">
        <ele>147.9</ele>
        <time>2025-10-26T10:33:55Z</time>
      </trkpt>
      <trkpt lat="43.51182" lon="6.69053">
        <ele>147.8</ele>
        <time>2025-10-26T10:33:56Z</time>
      </trkpt>
      <trkpt lat="43.51181" lon="6.69053">
        <ele>147.6</ele>
        <time>2025-10-26T10:33:57Z</time>
      </trkpt>
      <trkpt lat="43.5118" lon="6.69054">
        <ele>147.5</ele>
        <time>2025-10-26T10:33:58Z</time>
      </trkpt>
      <trkpt lat="43.51179" lon="6.69054">
        <ele>147.4</ele>
        <time>2025-10-26T10:33:59Z</time>
      </trkpt>
      <trkpt lat="43.51177" lon="6.69055">
        <ele>147.3</ele>
        <time>2025-10-26T10:34:00Z</time>
      </trkpt>
      <trkpt lat="43.51176" lon="6.69056">
        <ele>147.3</ele>
        <time>2025-10-26T10:34:01Z</time>
      </trkpt>
      <trkpt lat="43.51175" lon="6.69057">
        <ele>147.3</ele>
        <time>2025-10-26T10:34:02Z</time>
      </trkpt>
      <trkpt lat="43.51174" lon="6.69058">
        <ele>147.2</ele>
        <time>2025-10-26T10:34:03Z</time>
      </trkpt>
      <trkpt lat="43.51173" lon="6.69059">
        <ele>147.3</ele>
        <time>2025-10-26T10:34:04Z</time>
      </trkpt>
      <trkpt lat="43.51173" lon="6.69061">
        <ele>147.2</ele>
        <time>2025-10-26T10:34:05Z</time>
      </trkpt>
      <trkpt lat="43.51172" lon="6.69063">
        <ele>147.2</ele>
        <time>2025-10-26T10:34:06Z</time>
      </trkpt>
      <trkpt lat="43.51172" lon="6.69064">
        <ele>147.1</ele>
        <time>2025-10-26T10:34:07Z</time>
      </trkpt>
      <trkpt lat="43.51171" lon="6.69064">
        <ele>147.1</ele>
        <time>2025-10-26T10:34:08Z</time>
      </trkpt>
      <trkpt lat="43.51169" lon="6.69065">
        <ele>147</ele>
        <time>2025-10-26T10:34:09Z</time>
      </trkpt>
      <trkpt lat="43.51168" lon="6.69066">
        <ele>146.9</ele>
        <time>2025-10-26T10:34:10Z</time>
      </trkpt>
      <trkpt lat="43.51168" lon="6.69067">
        <ele>146.9</ele>
        <time>2025-10-26T10:34:11Z</time>
      </trkpt>
      <trkpt lat="43.51167" lon="6.69068">
        <ele>146.9</ele>
        <time>2025-10-26T10:34:12Z</time>
      </trkpt>
      <trkpt lat="43.51165" lon="6.69068">
        <ele>146.8</ele>
        <time>2025-10-26T10:34:13Z</time>
      </trkpt>
      <trkpt lat="43.51164" lon="6.69069">
        <ele>146.8</ele>
        <time>2025-10-26T10:34:14Z</time>
      </trkpt>
      <trkpt lat="43.51163" lon="6.6907">
        <ele>146.8</ele>
        <time>2025-10-26T10:34:15Z</time>
      </trkpt>
      <trkpt lat="43.51161" lon="6.69071">
        <ele>146.8</ele>
        <time>2025-10-26T10:34:16Z</time>
      </trkpt>
      <trkpt lat="43.5116" lon="6.69071">
        <ele>147.1</ele>
        <time>2025-10-26T10:34:17Z</time>
      </trkpt>
      <trkpt lat="43.51158" lon="6.69072">
        <ele>147.3</ele>
        <time>2025-10-26T10:34:18Z</time>
      </trkpt>
      <trkpt lat="43.51157" lon="6.69072">
        <ele>147.4</ele>
        <time>2025-10-26T10:34:19Z</time>
      </trkpt>
      <trkpt lat="43.51157" lon="6.69073">
        <ele>147.5</ele>
        <time>2025-10-26T10:34:20Z</time>
      </trkpt>
      <trkpt lat="43.51156" lon="6.69075">
        <ele>147.6</ele>
        <time>2025-10-26T10:34:21Z</time>
      </trkpt>
      <trkpt lat="43.51156" lon="6.69076">
        <ele>147.7</ele>
        <time>2025-10-26T10:34:22Z</time>
      </trkpt>
      <trkpt lat="43.51155" lon="6.69076">
        <ele>147.5</ele>
        <time>2025-10-26T10:34:23Z</time>
      </trkpt>
      <trkpt lat="43.51155" lon="6.69077">
        <ele>147.3</ele>
        <time>2025-10-26T10:34:24Z</time>
      </trkpt>
      <trkpt lat="43.51154" lon="6.69077">
        <ele>147.1</ele>
        <time>2025-10-26T10:34:25Z</time>
      </trkpt>
      <trkpt lat="43.51154" lon="6.69078">
        <ele>147</ele>
        <time>2025-10-26T10:34:26Z</time>
      </trkpt>
      <trkpt lat="43.51152" lon="6.69078">
        <ele>146.8</ele>
        <time>2025-10-26T10:34:27Z</time>
      </trkpt>
      <trkpt lat="43.51152" lon="6.69079">
        <ele>146.6</ele>
        <time>2025-10-26T10:34:28Z</time>
      </trkpt>
      <trkpt lat="43.51151" lon="6.69079">
        <ele>146.5</ele>
        <time>2025-10-26T10:34:29Z</time>
      </trkpt>
      <trkpt lat="43.5115" lon="6.69079">
        <ele>146.5</ele>
        <time>2025-10-26T10:34:30Z</time>
      </trkpt>
      <trkpt lat="43.51149" lon="6.69079">
        <ele>146.5</ele>
        <time>2025-10-26T10:34:31Z</time>
      </trkpt>
      <trkpt lat="43.51148" lon="6.6908">
        <ele>146.6</ele>
        <time>2025-10-26T10:34:32Z</time>
      </trkpt>
      <trkpt lat="43.51147" lon="6.6908">
        <ele>146.6</ele>
        <time>2025-10-26T10:34:33Z</time>
      </trkpt>
      <trkpt lat="43.51146" lon="6.6908">
        <ele>146.6</ele>
        <time>2025-10-26T10:34:34Z</time>
      </trkpt>
      <trkpt lat="43.51145" lon="6.6908">
        <ele>146.6</ele>
        <time>2025-10-26T10:34:35Z</time>
      </trkpt>
      <trkpt lat="43.51144" lon="6.6908">
        <ele>146.5</ele>
        <time>2025-10-26T10:34:36Z</time>
      </trkpt>
      <trkpt lat="43.51143" lon="6.6908">
        <ele>146.6</ele>
        <time>2025-10-26T10:34:37Z</time>
      </trkpt>
      <trkpt lat="43.51143" lon="6.69081">
        <ele>146.8</ele>
        <time>2025-10-26T10:34:38Z</time>
      </trkpt>
      <trkpt lat="43.51142" lon="6.69081">
        <ele>146.9</ele>
        <time>2025-10-26T10:34:39Z</time>
      </trkpt>
      <trkpt lat="43.51141" lon="6.69082">
        <ele>146.8</ele>
        <time>2025-10-26T10:34:40Z</time>
      </trkpt>
      <trkpt lat="43.5114" lon="6.69082">
        <ele>146.9</ele>
        <time>2025-10-26T10:34:41Z</time>
      </trkpt>
      <trkpt lat="43.51139" lon="6.69082">
        <ele>146.9</ele>
        <time>2025-10-26T10:34:42Z</time>
      </trkpt>
      <trkpt lat="43.51138" lon="6.69082">
        <ele>147.1</ele>
        <time>2025-10-26T10:34:43Z</time>
      </trkpt>
      <trkpt lat="43.51137" lon="6.69082">
        <ele>147.2</ele>
        <time>2025-10-26T10:34:44Z</time>
      </trkpt>
      <trkpt lat="43.51136" lon="6.69082">
        <ele>147.2</ele>
        <time>2025-10-26T10:34:45Z</time>
      </trkpt>
      <trkpt lat="43.51135" lon="6.69081">
        <ele>147.2</ele>
        <time>2025-10-26T10:34:46Z</time>
      </trkpt>
      <trkpt lat="43.51134" lon="6.69081">
        <ele>147.2</ele>
        <time>2025-10-26T10:34:47Z</time>
      </trkpt>
      <trkpt lat="43.51133" lon="6.69081">
        <ele>147.2</ele>
        <time>2025-10-26T10:34:48Z</time>
      </trkpt>
      <trkpt lat="43.51131" lon="6.69081">
        <ele>147.2</ele>
        <time>2025-10-26T10:34:49Z</time>
      </trkpt>
      <trkpt lat="43.5113" lon="6.69081">
        <ele>147.1</ele>
        <time>2025-10-26T10:34:50Z</time>
      </trkpt>
      <trkpt lat="43.51129" lon="6.69081">
        <ele>147.1</ele>
        <time>2025-10-26T10:34:51Z</time>
      </trkpt>
      <trkpt lat="43.51127" lon="6.69082">
        <ele>147.1</ele>
        <time>2025-10-26T10:34:52Z</time>
      </trkpt>
      <trkpt lat="43.51126" lon="6.69082">
        <ele>147</ele>
        <time>2025-10-26T10:34:53Z</time>
      </trkpt>
      <trkpt lat="43.51125" lon="6.69083">
        <ele>147</ele>
        <time>2025-10-26T10:34:54Z</time>
      </trkpt>
      <trkpt lat="43.51124" lon="6.69083">
        <ele>146.9</ele>
        <time>2025-10-26T10:34:55Z</time>
      </trkpt>
      <trkpt lat="43.51123" lon="6.69083">
        <ele>146.8</ele>
        <time>2025-10-26T10:34:56Z</time>
      </trkpt>
      <trkpt lat="43.51122" lon="6.69083">
        <ele>146.7</ele>
        <time>2025-10-26T10:34:57Z</time>
      </trkpt>
      <trkpt lat="43.5112" lon="6.69083">
        <ele>146.6</ele>
        <time>2025-10-26T10:34:58Z</time>
      </trkpt>
      <trkpt lat="43.5112" lon="6.69083">
        <ele>146.7</ele>
        <time>2025-10-26T10:34:59Z</time>
      </trkpt>
      <trkpt lat="43.51119" lon="6.69083">
        <ele>146.8</ele>
        <time>2025-10-26T10:35:00Z</time>
      </trkpt>
      <trkpt lat="43.51118" lon="6.69083">
        <ele>146.8</ele>
        <time>2025-10-26T10:35:01Z</time>
      </trkpt>
      <trkpt lat="43.51117" lon="6.69083">
        <ele>147</ele>
        <time>2025-10-26T10:35:02Z</time>
      </trkpt>
      <trkpt lat="43.51116" lon="6.69084">
        <ele>147</ele>
        <time>2025-10-26T10:35:03Z</time>
      </trkpt>
      <trkpt lat="43.51116" lon="6.69084">
        <ele>147</ele>
        <time>2025-10-26T10:35:04Z</time>
      </trkpt>
      <trkpt lat="43.51116" lon="6.69084">
        <ele>146.9</ele>
        <time>2025-10-26T10:35:05Z</time>
      </trkpt>
      <trkpt lat="43.51116" lon="6.69085">
        <ele>146.8</ele>
        <time>2025-10-26T10:35:06Z</time>
      </trkpt>
      <trkpt lat="43.51116" lon="6.69085">
        <ele>146.8</ele>
        <time>2025-10-26T10:35:07Z</time>
      </trkpt>
      <trkpt lat="43.51116" lon="6.69085">
        <ele>146.8</ele>
        <time>2025-10-26T10:35:08Z</time>
      </trkpt>
      <trkpt lat="43.51115" lon="6.69085">
        <ele>146.7</ele>
        <time>2025-10-26T10:35:09Z</time>
      </trkpt>
      <trkpt lat="43.51115" lon="6.69085">
        <ele>146.7</ele>
        <time>2025-10-26T10:35:10Z</time>
      </trkpt>
      <trkpt lat="43.51115" lon="6.69086">
        <ele>146.7</ele>
        <time>2025-10-26T10:35:11Z</time>
      </trkpt>
      <trkpt lat="43.51115" lon="6.69086">
        <ele>146.8</ele>
        <time>2025-10-26T10:35:12Z</time>
      </trkpt>
      <trkpt lat="43.51114" lon="6.69086">
        <ele>146.9</ele>
        <time>2025-10-26T10:35:13Z</time>
      </trkpt>
      <trkpt lat="43.51114" lon="6.69086">
        <ele>146.9</ele>
        <time>2025-10-26T10:35:14Z</time>
      </trkpt>
      <trkpt lat="43.51114" lon="6.69087">
        <ele>147</ele>
        <time>2025-10-26T10:35:15Z</time>
      </trkpt>
      <trkpt lat="43.51113" lon="6.69087">
        <ele>147</ele>
        <time>2025-10-26T10:35:16Z</time>
      </trkpt>
      <trkpt lat="43.51113" lon="6.69087">
        <ele>147.1</ele>
        <time>2025-10-26T10:35:17Z</time>
      </trkpt>
      <trkpt lat="43.51112" lon="6.69086">
        <ele>147</ele>
        <time>2025-10-26T10:35:18Z</time>
      </trkpt>
      <trkpt lat="43.51111" lon="6.69087">
        <ele>147</ele>
        <time>2025-10-26T10:35:19Z</time>
      </trkpt>
      <trkpt lat="43.51111" lon="6.69087">
        <ele>147</ele>
        <time>2025-10-26T10:35:20Z</time>
      </trkpt>
      <trkpt lat="43.51111" lon="6.69087">
        <ele>147.1</ele>
        <time>2025-10-26T10:35:21Z</time>
      </trkpt>
      <trkpt lat="43.51111" lon="6.69087">
        <ele>147.1</ele>
        <time>2025-10-26T10:35:22Z</time>
      </trkpt>
      <trkpt lat="43.51111" lon="6.69087">
        <ele>147.2</ele>
        <time>2025-10-26T10:35:23Z</time>
      </trkpt>
      <trkpt lat="43.51111" lon="6.69087">
        <ele>147.2</ele>
        <time>2025-10-26T10:35:24Z</time>
      </trkpt>
      <trkpt lat="43.51112" lon="6.69087">
        <ele>147.1</ele>
        <time>2025-10-26T10:35:25Z</time>
      </trkpt>
      <trkpt lat="43.51112" lon="6.69088">
        <ele>147</ele>
        <time>2025-10-26T10:35:26Z</time>
      </trkpt>
      <trkpt lat="43.51112" lon="6.69087">
        <ele>147</ele>
        <time>2025-10-26T10:35:27Z</time>
      </trkpt>
      <trkpt lat="43.51111" lon="6.69087">
        <ele>147</ele>
        <time>2025-10-26T10:35:28Z</time>
      </trkpt>
      <trkpt lat="43.51111" lon="6.69086">
        <ele>147</ele>
        <time>2025-10-26T10:35:29Z</time>
      </trkpt>
      <trkpt lat="43.5111" lon="6.69086">
        <ele>147</ele>
        <time>2025-10-26T10:35:30Z</time>
      </trkpt>
      <trkpt lat="43.5111" lon="6.69086">
        <ele>147</ele>
        <time>2025-10-26T10:35:31Z</time>
      </trkpt>
      <trkpt lat="43.51109" lon="6.69087">
        <ele>147</ele>
        <time>2025-10-26T10:35:32Z</time>
      </trkpt>
      <trkpt lat="43.51109" lon="6.69087">
        <ele>147</ele>
        <time>2025-10-26T10:35:33Z</time>
      </trkpt>
      <trkpt lat="43.51109" lon="6.69087">
        <ele>147</ele>
        <time>2025-10-26T10:35:34Z</time>
      </trkpt>
      <trkpt lat="43.51108" lon="6.69087">
        <ele>147.1</ele>
        <time>2025-10-26T10:35:35Z</time>
      </trkpt>
      <trkpt lat="43.51108" lon="6.69087">
        <ele>147.1</ele>
        <time>2025-10-26T10:35:36Z</time>
      </trkpt>
      <trkpt lat="43.51108" lon="6.69087">
        <ele>147.1</ele>
        <time>2025-10-26T10:35:37Z</time>
      </trkpt>
      <trkpt lat="43.51108" lon="6.69087">
        <ele>147.1</ele>
        <time>2025-10-26T10:35:38Z</time>
      </trkpt>
      <trkpt lat="43.51108" lon="6.69087">
        <ele>147</ele>
        <time>2025-10-26T10:35:39Z</time>
      </trkpt>
      <trkpt lat="43.51108" lon="6.69087">
        <ele>147</ele>
        <time>2025-10-26T10:35:40Z</time>
      </trkpt>
      <trkpt lat="43.51108" lon="6.69087">
        <ele>147</ele>
        <time>2025-10-26T10:35:41Z</time>
      </trkpt>
      <trkpt lat="43.51108" lon="6.69087">
        <ele>147</ele>
        <time>2025-10-26T10:35:42Z</time>
      </trkpt>
      <trkpt lat="43.51108" lon="6.69087">
        <ele>147</ele>
        <time>2025-10-26T10:35:43Z</time>
      </trkpt>
      <trkpt lat="43.51108" lon="6.69087">
        <ele>147</ele>
        <time>2025-10-26T10:35:44Z</time>
      </trkpt>
      <trkpt lat="43.51108" lon="6.69087">
        <ele>147</ele>
        <time>2025-10-26T10:35:45Z</time>
      </trkpt>
      <trkpt lat="43.51108" lon="6.69087">
        <ele>147</ele>
        <time>2025-10-26T10:35:46Z</time>
      </trkpt>
      <trkpt lat="43.51108" lon="6.69087">
        <ele>147</ele>
        <time>2025-10-26T10:35:47Z</time>
      </trkpt>
      <trkpt lat="43.51108" lon="6.69087">
        <ele>146.9</ele>
        <time>2025-10-26T10:35:48Z</time>
      </trkpt>
      <trkpt lat="43.51108" lon="6.69087">
        <ele>146.9</ele>
        <time>2025-10-26T10:35:49Z</time>
      </trkpt>
      <trkpt lat="43.51107" lon="6.69087">
        <ele>146.9</ele>
        <time>2025-10-26T10:35:50Z</time>
      </trkpt>
      <trkpt lat="43.51107" lon="6.69087">
        <ele>146.8</ele>
        <time>2025-10-26T10:35:51Z</time>
      </trkpt>
      <trkpt lat="43.51107" lon="6.69087">
        <ele>146.9</ele>
        <time>2025-10-26T10:35:52Z</time>
      </trkpt>
      <trkpt lat="43.51107" lon="6.69087">
        <ele>146.9</ele>
        <time>2025-10-26T10:35:53Z</time>
      </trkpt>
      <trkpt lat="43.51106" lon="6.69086">
        <ele>146.9</ele>
        <time>2025-10-26T10:35:54Z</time>
      </trkpt>
      <trkpt lat="43.51106" lon="6.69086">
        <ele>146.8</ele>
        <time>2025-10-26T10:35:55Z</time>
      </trkpt>
      <trkpt lat="43.51105" lon="6.69087">
        <ele>146.8</ele>
        <time>2025-10-26T10:35:56Z</time>
      </trkpt>
      <trkpt lat="43.51105" lon="6.69087">
        <ele>146.7</ele>
        <time>2025-10-26T10:35:57Z</time>
      </trkpt>
      <trkpt lat="43.51104" lon="6.69087">
        <ele>146.6</ele>
        <time>2025-10-26T10:35:58Z</time>
      </trkpt>
      <trkpt lat="43.51103" lon="6.69089">
        <ele>146.5</ele>
        <time>2025-10-26T10:35:59Z</time>
      </trkpt>
      <trkpt lat="43.51103" lon="6.6909">
        <ele>146.3</ele>
        <time>2025-10-26T10:36:00Z</time>
      </trkpt>
      <trkpt lat="43.51102" lon="6.6909">
        <ele>146.3</ele>
        <time>2025-10-26T10:36:01Z</time>
      </trkpt>
      <trkpt lat="43.51101" lon="6.69091">
        <ele>146.3</ele>
        <time>2025-10-26T10:36:02Z</time>
      </trkpt>
      <trkpt lat="43.51101" lon="6.69091">
        <ele>146.3</ele>
        <time>2025-10-26T10:36:03Z</time>
      </trkpt>
      <trkpt lat="43.511" lon="6.69092">
        <ele>146.3</ele>
        <time>2025-10-26T10:36:04Z</time>
      </trkpt>
      <trkpt lat="43.51099" lon="6.69093">
        <ele>146.2</ele>
        <time>2025-10-26T10:36:05Z</time>
      </trkpt>
      <trkpt lat="43.51099" lon="6.69094">
        <ele>146.3</ele>
        <time>2025-10-26T10:36:06Z</time>
      </trkpt>
      <trkpt lat="43.51098" lon="6.69096">
        <ele>146.3</ele>
        <time>2025-10-26T10:36:07Z</time>
      </trkpt>
      <trkpt lat="43.51098" lon="6.69096">
        <ele>146.3</ele>
        <time>2025-10-26T10:36:08Z</time>
      </trkpt>
      <trkpt lat="43.51097" lon="6.69097">
        <ele>146.3</ele>
        <time>2025-10-26T10:36:09Z</time>
      </trkpt>
      <trkpt lat="43.51096" lon="6.69098">
        <ele>146.3</ele>
        <time>2025-10-26T10:36:10Z</time>
      </trkpt>
      <trkpt lat="43.51095" lon="6.69099">
        <ele>146.3</ele>
        <time>2025-10-26T10:36:11Z</time>
      </trkpt>
      <trkpt lat="43.51094" lon="6.69101">
        <ele>146.4</ele>
        <time>2025-10-26T10:36:12Z</time>
      </trkpt>
      <trkpt lat="43.51094" lon="6.69102">
        <ele>146.4</ele>
        <time>2025-10-26T10:36:13Z</time>
      </trkpt>
      <trkpt lat="43.51093" lon="6.69103">
        <ele>146.4</ele>
        <time>2025-10-26T10:36:14Z</time>
      </trkpt>
      <trkpt lat="43.51093" lon="6.69104">
        <ele>146.4</ele>
        <time>2025-10-26T10:36:15Z</time>
      </trkpt>
      <trkpt lat="43.51093" lon="6.69106">
        <ele>146.2</ele>
        <time>2025-10-26T10:36:16Z</time>
      </trkpt>
      <trkpt lat="43.51093" lon="6.69106">
        <ele>146.3</ele>
        <time>2025-10-26T10:36:17Z</time>
      </trkpt>
      <trkpt lat="43.51093" lon="6.69107">
        <ele>146.3</ele>
        <time>2025-10-26T10:36:18Z</time>
      </trkpt>
      <trkpt lat="43.51093" lon="6.69107">
        <ele>146.4</ele>
        <time>2025-10-26T10:36:19Z</time>
      </trkpt>
      <trkpt lat="43.51093" lon="6.69107">
        <ele>146.4</ele>
        <time>2025-10-26T10:36:20Z</time>
      </trkpt>
      <trkpt lat="43.51093" lon="6.69108">
        <ele>146.4</ele>
        <time>2025-10-26T10:36:21Z</time>
      </trkpt>
      <trkpt lat="43.51092" lon="6.69109">
        <ele>146.4</ele>
        <time>2025-10-26T10:36:22Z</time>
      </trkpt>
      <trkpt lat="43.51093" lon="6.69111">
        <ele>146.4</ele>
        <time>2025-10-26T10:36:23Z</time>
      </trkpt>
      <trkpt lat="43.51092" lon="6.69112">
        <ele>146.4</ele>
        <time>2025-10-26T10:36:24Z</time>
      </trkpt>
      <trkpt lat="43.51092" lon="6.69113">
        <ele>146.4</ele>
        <time>2025-10-26T10:36:25Z</time>
      </trkpt>
      <trkpt lat="43.51092" lon="6.69115">
        <ele>146.4</ele>
        <time>2025-10-26T10:36:26Z</time>
      </trkpt>
      <trkpt lat="43.51092" lon="6.69116">
        <ele>146.4</ele>
        <time>2025-10-26T10:36:27Z</time>
      </trkpt>
      <trkpt lat="43.51092" lon="6.69118">
        <ele>146.3</ele>
        <time>2025-10-26T10:36:28Z</time>
      </trkpt>
      <trkpt lat="43.51092" lon="6.69119">
        <ele>146.3</ele>
        <time>2025-10-26T10:36:29Z</time>
      </trkpt>
      <trkpt lat="43.51092" lon="6.69121">
        <ele>146.3</ele>
        <time>2025-10-26T10:36:30Z</time>
      </trkpt>
      <trkpt lat="43.51093" lon="6.69123">
        <ele>146.3</ele>
        <time>2025-10-26T10:36:31Z</time>
      </trkpt>
      <trkpt lat="43.51093" lon="6.69124">
        <ele>146.3</ele>
        <time>2025-10-26T10:36:32Z</time>
      </trkpt>
      <trkpt lat="43.51093" lon="6.69126">
        <ele>146.2</ele>
        <time>2025-10-26T10:36:33Z</time>
      </trkpt>
      <trkpt lat="43.51093" lon="6.69127">
        <ele>146.1</ele>
        <time>2025-10-26T10:36:34Z</time>
      </trkpt>
      <trkpt lat="43.51093" lon="6.69128">
        <ele>146.1</ele>
        <time>2025-10-26T10:36:35Z</time>
      </trkpt>
      <trkpt lat="43.51094" lon="6.6913">
        <ele>146.1</ele>
        <time>2025-10-26T10:36:36Z</time>
      </trkpt>
      <trkpt lat="43.51094" lon="6.69131">
        <ele>146.1</ele>
        <time>2025-10-26T10:36:37Z</time>
      </trkpt>
      <trkpt lat="43.51094" lon="6.69133">
        <ele>146.1</ele>
        <time>2025-10-26T10:36:38Z</time>
      </trkpt>
      <trkpt lat="43.51094" lon="6.69134">
        <ele>146</ele>
        <time>2025-10-26T10:36:39Z</time>
      </trkpt>
      <trkpt lat="43.51094" lon="6.69136">
        <ele>145.9</ele>
        <time>2025-10-26T10:36:40Z</time>
      </trkpt>
      <trkpt lat="43.51095" lon="6.69137">
        <ele>145.8</ele>
        <time>2025-10-26T10:36:41Z</time>
      </trkpt>
      <trkpt lat="43.51095" lon="6.69138">
        <ele>145.8</ele>
        <time>2025-10-26T10:36:42Z</time>
      </trkpt>
      <trkpt lat="43.51096" lon="6.6914">
        <ele>145.8</ele>
        <time>2025-10-26T10:36:43Z</time>
      </trkpt>
      <trkpt lat="43.51096" lon="6.69141">
        <ele>145.8</ele>
        <time>2025-10-26T10:36:44Z</time>
      </trkpt>
      <trkpt lat="43.51096" lon="6.69142">
        <ele>145.8</ele>
        <time>2025-10-26T10:36:45Z</time>
      </trkpt>
      <trkpt lat="43.51096" lon="6.69144">
        <ele>145.7</ele>
        <time>2025-10-26T10:36:46Z</time>
      </trkpt>
      <trkpt lat="43.51096" lon="6.69146">
        <ele>145.7</ele>
        <time>2025-10-26T10:36:47Z</time>
      </trkpt>
      <trkpt lat="43.51096" lon="6.69147">
        <ele>145.6</ele>
        <time>2025-10-26T10:36:48Z</time>
      </trkpt>
      <trkpt lat="43.51095" lon="6.69149">
        <ele>145.6</ele>
        <time>2025-10-26T10:36:49Z</time>
      </trkpt>
      <trkpt lat="43.51096" lon="6.6915">
        <ele>145.6</ele>
        <time>2025-10-26T10:36:50Z</time>
      </trkpt>
      <trkpt lat="43.51096" lon="6.69152">
        <ele>145.5</ele>
        <time>2025-10-26T10:36:51Z</time>
      </trkpt>
      <trkpt lat="43.51096" lon="6.69153">
        <ele>145.6</ele>
        <time>2025-10-26T10:36:52Z</time>
      </trkpt>
      <trkpt lat="43.51096" lon="6.69155">
        <ele>145.5</ele>
        <time>2025-10-26T10:36:53Z</time>
      </trkpt>
      <trkpt lat="43.51096" lon="6.69156">
        <ele>145.4</ele>
        <time>2025-10-26T10:36:54Z</time>
      </trkpt>
      <trkpt lat="43.51096" lon="6.69158">
        <ele>145.4</ele>
        <time>2025-10-26T10:36:55Z</time>
      </trkpt>
      <trkpt lat="43.51096" lon="6.6916">
        <ele>145.5</ele>
        <time>2025-10-26T10:36:56Z</time>
      </trkpt>
      <trkpt lat="43.51097" lon="6.69161">
        <ele>145.7</ele>
        <time>2025-10-26T10:36:57Z</time>
      </trkpt>
      <trkpt lat="43.51097" lon="6.69163">
        <ele>145.8</ele>
        <time>2025-10-26T10:36:58Z</time>
      </trkpt>
      <trkpt lat="43.51098" lon="6.69164">
        <ele>145.8</ele>
        <time>2025-10-26T10:36:59Z</time>
      </trkpt>
      <trkpt lat="43.51098" lon="6.69166">
        <ele>145.8</ele>
        <time>2025-10-26T10:37:00Z</time>
      </trkpt>
      <trkpt lat="43.51098" lon="6.69167">
        <ele>145.8</ele>
        <time>2025-10-26T10:37:01Z</time>
      </trkpt>
      <trkpt lat="43.51099" lon="6.69169">
        <ele>145.7</ele>
        <time>2025-10-26T10:37:02Z</time>
      </trkpt>
      <trkpt lat="43.51099" lon="6.6917">
        <ele>145.5</ele>
        <time>2025-10-26T10:37:03Z</time>
      </trkpt>
      <trkpt lat="43.511" lon="6.69172">
        <ele>145.5</ele>
        <time>2025-10-26T10:37:04Z</time>
      </trkpt>
      <trkpt lat="43.511" lon="6.69173">
        <ele>145.3</ele>
        <time>2025-10-26T10:37:05Z</time>
      </trkpt>
      <trkpt lat="43.511" lon="6.69175">
        <ele>145.3</ele>
        <time>2025-10-26T10:37:06Z</time>
      </trkpt>
      <trkpt lat="43.511" lon="6.69176">
        <ele>145.3</ele>
        <time>2025-10-26T10:37:07Z</time>
      </trkpt>
      <trkpt lat="43.511" lon="6.69177">
        <ele>145.2</ele>
        <time>2025-10-26T10:37:08Z</time>
      </trkpt>
      <trkpt lat="43.51101" lon="6.69179">
        <ele>145.3</ele>
        <time>2025-10-26T10:37:09Z</time>
      </trkpt>
      <trkpt lat="43.51101" lon="6.6918">
        <ele>145.4</ele>
        <time>2025-10-26T10:37:10Z</time>
      </trkpt>
      <trkpt lat="43.51101" lon="6.69181">
        <ele>145.5</ele>
        <time>2025-10-26T10:37:11Z</time>
      </trkpt>
      <trkpt lat="43.51102" lon="6.69183">
        <ele>145.6</ele>
        <time>2025-10-26T10:37:12Z</time>
      </trkpt>
      <trkpt lat="43.51102" lon="6.69185">
        <ele>145.6</ele>
        <time>2025-10-26T10:37:13Z</time>
      </trkpt>
      <trkpt lat="43.51102" lon="6.69186">
        <ele>145.5</ele>
        <time>2025-10-26T10:37:14Z</time>
      </trkpt>
      <trkpt lat="43.51102" lon="6.69188">
        <ele>145.5</ele>
        <time>2025-10-26T10:37:15Z</time>
      </trkpt>
      <trkpt lat="43.51102" lon="6.69189">
        <ele>145.6</ele>
        <time>2025-10-26T10:37:16Z</time>
      </trkpt>
      <trkpt lat="43.51103" lon="6.6919">
        <ele>146</ele>
        <time>2025-10-26T10:37:17Z</time>
      </trkpt>
      <trkpt lat="43.51102" lon="6.69191">
        <ele>146.3</ele>
        <time>2025-10-26T10:37:18Z</time>
      </trkpt>
      <trkpt lat="43.51102" lon="6.69192">
        <ele>146.5</ele>
        <time>2025-10-26T10:37:19Z</time>
      </trkpt>
      <trkpt lat="43.51102" lon="6.69194">
        <ele>146.8</ele>
        <time>2025-10-26T10:37:20Z</time>
      </trkpt>
      <trkpt lat="43.51101" lon="6.69194">
        <ele>146.9</ele>
        <time>2025-10-26T10:37:21Z</time>
      </trkpt>
      <trkpt lat="43.51101" lon="6.69195">
        <ele>147</ele>
        <time>2025-10-26T10:37:22Z</time>
      </trkpt>
      <trkpt lat="43.511" lon="6.69197">
        <ele>147</ele>
        <time>2025-10-26T10:37:23Z</time>
      </trkpt>
      <trkpt lat="43.511" lon="6.69197">
        <ele>147</ele>
        <time>2025-10-26T10:37:24Z</time>
      </trkpt>
      <trkpt lat="43.51099" lon="6.69198">
        <ele>147</ele>
        <time>2025-10-26T10:37:25Z</time>
      </trkpt>
      <trkpt lat="43.51098" lon="6.69199">
        <ele>146.9</ele>
        <time>2025-10-26T10:37:26Z</time>
      </trkpt>
      <trkpt lat="43.51098" lon="6.69201">
        <ele>146.9</ele>
        <time>2025-10-26T10:37:27Z</time>
      </trkpt>
      <trkpt lat="43.51097" lon="6.69202">
        <ele>146.9</ele>
        <time>2025-10-26T10:37:28Z</time>
      </trkpt>
      <trkpt lat="43.51096" lon="6.69203">
        <ele>146.8</ele>
        <time>2025-10-26T10:37:29Z</time>
      </trkpt>
      <trkpt lat="43.51096" lon="6.69204">
        <ele>146.7</ele>
        <time>2025-10-26T10:37:30Z</time>
      </trkpt>
      <trkpt lat="43.51096" lon="6.69205">
        <ele>146.5</ele>
        <time>2025-10-26T10:37:31Z</time>
      </trkpt>
      <trkpt lat="43.51096" lon="6.69206">
        <ele>146.4</ele>
        <time>2025-10-26T10:37:32Z</time>
      </trkpt>
      <trkpt lat="43.51095" lon="6.69207">
        <ele>146.4</ele>
        <time>2025-10-26T10:37:33Z</time>
      </trkpt>
      <trkpt lat="43.51095" lon="6.69207">
        <ele>146.4</ele>
        <time>2025-10-26T10:37:34Z</time>
      </trkpt>
      <trkpt lat="43.51094" lon="6.69208">
        <ele>146.4</ele>
        <time>2025-10-26T10:37:35Z</time>
      </trkpt>
      <trkpt lat="43.51093" lon="6.69209">
        <ele>146.4</ele>
        <time>2025-10-26T10:37:36Z</time>
      </trkpt>
      <trkpt lat="43.51093" lon="6.6921">
        <ele>146.4</ele>
        <time>2025-10-26T10:37:37Z</time>
      </trkpt>
      <trkpt lat="43.51092" lon="6.69211">
        <ele>146.3</ele>
        <time>2025-10-26T10:37:38Z</time>
      </trkpt>
      <trkpt lat="43.51092" lon="6.69212">
        <ele>146.2</ele>
        <time>2025-10-26T10:37:39Z</time>
      </trkpt>
      <trkpt lat="43.51091" lon="6.69214">
        <ele>146.1</ele>
        <time>2025-10-26T10:37:40Z</time>
      </trkpt>
      <trkpt lat="43.51091" lon="6.69215">
        <ele>146.1</ele>
        <time>2025-10-26T10:37:41Z</time>
      </trkpt>
      <trkpt lat="43.51091" lon="6.69217">
        <ele>146</ele>
        <time>2025-10-26T10:37:42Z</time>
      </trkpt>
      <trkpt lat="43.51092" lon="6.69219">
        <ele>145.9</ele>
        <time>2025-10-26T10:37:43Z</time>
      </trkpt>
      <trkpt lat="43.51092" lon="6.6922">
        <ele>145.8</ele>
        <time>2025-10-26T10:37:44Z</time>
      </trkpt>
      <trkpt lat="43.51092" lon="6.69221">
        <ele>145.8</ele>
        <time>2025-10-26T10:37:45Z</time>
      </trkpt>
      <trkpt lat="43.51092" lon="6.69221">
        <ele>145.9</ele>
        <time>2025-10-26T10:37:46Z</time>
      </trkpt>
      <trkpt lat="43.51093" lon="6.69222">
        <ele>145.9</ele>
        <time>2025-10-26T10:37:47Z</time>
      </trkpt>
      <trkpt lat="43.51094" lon="6.69223">
        <ele>145.9</ele>
        <time>2025-10-26T10:37:48Z</time>
      </trkpt>
      <trkpt lat="43.51094" lon="6.69223">
        <ele>145.8</ele>
        <time>2025-10-26T10:37:49Z</time>
      </trkpt>
      <trkpt lat="43.51094" lon="6.69224">
        <ele>145.8</ele>
        <time>2025-10-26T10:37:50Z</time>
      </trkpt>
      <trkpt lat="43.51094" lon="6.69226">
        <ele>145.8</ele>
        <time>2025-10-26T10:37:51Z</time>
      </trkpt>
      <trkpt lat="43.51094" lon="6.69227">
        <ele>145.8</ele>
        <time>2025-10-26T10:37:52Z</time>
      </trkpt>
      <trkpt lat="43.51095" lon="6.69228">
        <ele>145.9</ele>
        <time>2025-10-26T10:37:53Z</time>
      </trkpt>
      <trkpt lat="43.51095" lon="6.6923">
        <ele>145.8</ele>
        <time>2025-10-26T10:37:54Z</time>
      </trkpt>
      <trkpt lat="43.51095" lon="6.69231">
        <ele>145.7</ele>
        <time>2025-10-26T10:37:55Z</time>
      </trkpt>
      <trkpt lat="43.51096" lon="6.69232">
        <ele>145.7</ele>
        <time>2025-10-26T10:37:56Z</time>
      </trkpt>
      <trkpt lat="43.51096" lon="6.69234">
        <ele>145.8</ele>
        <time>2025-10-26T10:37:57Z</time>
      </trkpt>
      <trkpt lat="43.51095" lon="6.69235">
        <ele>145.9</ele>
        <time>2025-10-26T10:37:58Z</time>
      </trkpt>
      <trkpt lat="43.51095" lon="6.69237">
        <ele>145.9</ele>
        <time>2025-10-26T10:37:59Z</time>
      </trkpt>
      <trkpt lat="43.51095" lon="6.69238">
        <ele>145.9</ele>
        <time>2025-10-26T10:38:00Z</time>
      </trkpt>
      <trkpt lat="43.51094" lon="6.69239">
        <ele>145.9</ele>
        <time>2025-10-26T10:38:01Z</time>
      </trkpt>
      <trkpt lat="43.51094" lon="6.6924">
        <ele>146</ele>
        <time>2025-10-26T10:38:02Z</time>
      </trkpt>
      <trkpt lat="43.51094" lon="6.69241">
        <ele>146</ele>
        <time>2025-10-26T10:38:03Z</time>
      </trkpt>
      <trkpt lat="43.51094" lon="6.69241">
        <ele>146</ele>
        <time>2025-10-26T10:38:04Z</time>
      </trkpt>
      <trkpt lat="43.51093" lon="6.69242">
        <ele>146</ele>
        <time>2025-10-26T10:38:05Z</time>
      </trkpt>
      <trkpt lat="43.51092" lon="6.69242">
        <ele>146</ele>
        <time>2025-10-26T10:38:06Z</time>
      </trkpt>
      <trkpt lat="43.51091" lon="6.69242">
        <ele>145.9</ele>
        <time>2025-10-26T10:38:07Z</time>
      </trkpt>
      <trkpt lat="43.5109" lon="6.69243">
        <ele>145.8</ele>
        <time>2025-10-26T10:38:08Z</time>
      </trkpt>
      <trkpt lat="43.51089" lon="6.69243">
        <ele>145.8</ele>
        <time>2025-10-26T10:38:09Z</time>
      </trkpt>
      <trkpt lat="43.51089" lon="6.69244">
        <ele>145.7</ele>
        <time>2025-10-26T10:38:10Z</time>
      </trkpt>
      <trkpt lat="43.51088" lon="6.69244">
        <ele>145.6</ele>
        <time>2025-10-26T10:38:11Z</time>
      </trkpt>
      <trkpt lat="43.51087" lon="6.69244">
        <ele>145.7</ele>
        <time>2025-10-26T10:38:12Z</time>
      </trkpt>
      <trkpt lat="43.51086" lon="6.69244">
        <ele>145.7</ele>
        <time>2025-10-26T10:38:13Z</time>
      </trkpt>
      <trkpt lat="43.51085" lon="6.69245">
        <ele>145.6</ele>
        <time>2025-10-26T10:38:14Z</time>
      </trkpt>
      <trkpt lat="43.51084" lon="6.69245">
        <ele>145.6</ele>
        <time>2025-10-26T10:38:15Z</time>
      </trkpt>
      <trkpt lat="43.51083" lon="6.69245">
        <ele>145.5</ele>
        <time>2025-10-26T10:38:16Z</time>
      </trkpt>
      <trkpt lat="43.51082" lon="6.69245">
        <ele>145.6</ele>
        <time>2025-10-26T10:38:17Z</time>
      </trkpt>
      <trkpt lat="43.51081" lon="6.69245">
        <ele>145.6</ele>
        <time>2025-10-26T10:38:18Z</time>
      </trkpt>
      <trkpt lat="43.51079" lon="6.69245">
        <ele>145.5</ele>
        <time>2025-10-26T10:38:19Z</time>
      </trkpt>
      <trkpt lat="43.51078" lon="6.69246">
        <ele>145.5</ele>
        <time>2025-10-26T10:38:20Z</time>
      </trkpt>
      <trkpt lat="43.51077" lon="6.69245">
        <ele>145.4</ele>
        <time>2025-10-26T10:38:21Z</time>
      </trkpt>
      <trkpt lat="43.51076" lon="6.69246">
        <ele>145.4</ele>
        <time>2025-10-26T10:38:22Z</time>
      </trkpt>
      <trkpt lat="43.51075" lon="6.69246">
        <ele>145.3</ele>
        <time>2025-10-26T10:38:23Z</time>
      </trkpt>
      <trkpt lat="43.51074" lon="6.69247">
        <ele>145.2</ele>
        <time>2025-10-26T10:38:24Z</time>
      </trkpt>
      <trkpt lat="43.51074" lon="6.69248">
        <ele>145.1</ele>
        <time>2025-10-26T10:38:25Z</time>
      </trkpt>
      <trkpt lat="43.51073" lon="6.69248">
        <ele>145</ele>
        <time>2025-10-26T10:38:26Z</time>
      </trkpt>
      <trkpt lat="43.51071" lon="6.69248">
        <ele>144.7</ele>
        <time>2025-10-26T10:38:27Z</time>
      </trkpt>
      <trkpt lat="43.5107" lon="6.69249">
        <ele>144.6</ele>
        <time>2025-10-26T10:38:28Z</time>
      </trkpt>
      <trkpt lat="43.5107" lon="6.6925">
        <ele>144.5</ele>
        <time>2025-10-26T10:38:29Z</time>
      </trkpt>
      <trkpt lat="43.51069" lon="6.6925">
        <ele>144.4</ele>
        <time>2025-10-26T10:38:30Z</time>
      </trkpt>
      <trkpt lat="43.51068" lon="6.6925">
        <ele>144.3</ele>
        <time>2025-10-26T10:38:31Z</time>
      </trkpt>
      <trkpt lat="43.51067" lon="6.6925">
        <ele>144.3</ele>
        <time>2025-10-26T10:38:32Z</time>
      </trkpt>
      <trkpt lat="43.51066" lon="6.69251">
        <ele>144.1</ele>
        <time>2025-10-26T10:38:33Z</time>
      </trkpt>
      <trkpt lat="43.51065" lon="6.69251">
        <ele>144</ele>
        <time>2025-10-26T10:38:34Z</time>
      </trkpt>
      <trkpt lat="43.51064" lon="6.69251">
        <ele>143.9</ele>
        <time>2025-10-26T10:38:35Z</time>
      </trkpt>
      <trkpt lat="43.51063" lon="6.69252">
        <ele>143.8</ele>
        <time>2025-10-26T10:38:36Z</time>
      </trkpt>
      <trkpt lat="43.51062" lon="6.69253">
        <ele>143.7</ele>
        <time>2025-10-26T10:38:37Z</time>
      </trkpt>
      <trkpt lat="43.51061" lon="6.69254">
        <ele>143.6</ele>
        <time>2025-10-26T10:38:38Z</time>
      </trkpt>
      <trkpt lat="43.5106" lon="6.69255">
        <ele>143.5</ele>
        <time>2025-10-26T10:38:39Z</time>
      </trkpt>
      <trkpt lat="43.51059" lon="6.69256">
        <ele>143.5</ele>
        <time>2025-10-26T10:38:40Z</time>
      </trkpt>
      <trkpt lat="43.51058" lon="6.69256">
        <ele>143.1</ele>
        <time>2025-10-26T10:38:41Z</time>
      </trkpt>
      <trkpt lat="43.51057" lon="6.69256">
        <ele>143</ele>
        <time>2025-10-26T10:38:42Z</time>
      </trkpt>
      <trkpt lat="43.51056" lon="6.69257">
        <ele>143</ele>
        <time>2025-10-26T10:38:43Z</time>
      </trkpt>
      <trkpt lat="43.51055" lon="6.69257">
        <ele>142.9</ele>
        <time>2025-10-26T10:38:44Z</time>
      </trkpt>
      <trkpt lat="43.51054" lon="6.69257">
        <ele>142.8</ele>
        <time>2025-10-26T10:38:45Z</time>
      </trkpt>
      <trkpt lat="43.51053" lon="6.69258">
        <ele>142.7</ele>
        <time>2025-10-26T10:38:46Z</time>
      </trkpt>
      <trkpt lat="43.51052" lon="6.69259">
        <ele>142.6</ele>
        <time>2025-10-26T10:38:47Z</time>
      </trkpt>
      <trkpt lat="43.51051" lon="6.69259">
        <ele>142.5</ele>
        <time>2025-10-26T10:38:48Z</time>
      </trkpt>
      <trkpt lat="43.5105" lon="6.69259">
        <ele>142.4</ele>
        <time>2025-10-26T10:38:49Z</time>
      </trkpt>
      <trkpt lat="43.5105" lon="6.6926">
        <ele>142.3</ele>
        <time>2025-10-26T10:38:50Z</time>
      </trkpt>
      <trkpt lat="43.51049" lon="6.6926">
        <ele>142.2</ele>
        <time>2025-10-26T10:38:51Z</time>
      </trkpt>
      <trkpt lat="43.51047" lon="6.6926">
        <ele>142.1</ele>
        <time>2025-10-26T10:38:52Z</time>
      </trkpt>
      <trkpt lat="43.51047" lon="6.6926">
        <ele>142</ele>
        <time>2025-10-26T10:38:53Z</time>
      </trkpt>
      <trkpt lat="43.51046" lon="6.69261">
        <ele>141.9</ele>
        <time>2025-10-26T10:38:54Z</time>
      </trkpt>
      <trkpt lat="43.51045" lon="6.69261">
        <ele>141.8</ele>
        <time>2025-10-26T10:38:55Z</time>
      </trkpt>
      <trkpt lat="43.51044" lon="6.69262">
        <ele>141.7</ele>
        <time>2025-10-26T10:38:56Z</time>
      </trkpt>
      <trkpt lat="43.51043" lon="6.69263">
        <ele>141.7</ele>
        <time>2025-10-26T10:38:57Z</time>
      </trkpt>
      <trkpt lat="43.51042" lon="6.69264">
        <ele>141.6</ele>
        <time>2025-10-26T10:38:58Z</time>
      </trkpt>
      <trkpt lat="43.51041" lon="6.69264">
        <ele>141.6</ele>
        <time>2025-10-26T10:38:59Z</time>
      </trkpt>
      <trkpt lat="43.5104" lon="6.69265">
        <ele>141.5</ele>
        <time>2025-10-26T10:39:00Z</time>
      </trkpt>
      <trkpt lat="43.5104" lon="6.69266">
        <ele>141.3</ele>
        <time>2025-10-26T10:39:01Z</time>
      </trkpt>
      <trkpt lat="43.51039" lon="6.69267">
        <ele>141.2</ele>
        <time>2025-10-26T10:39:02Z</time>
      </trkpt>
      <trkpt lat="43.51039" lon="6.69268">
        <ele>141</ele>
        <time>2025-10-26T10:39:03Z</time>
      </trkpt>
      <trkpt lat="43.51038" lon="6.69269">
        <ele>140.9</ele>
        <time>2025-10-26T10:39:04Z</time>
      </trkpt>
      <trkpt lat="43.51038" lon="6.6927">
        <ele>140.8</ele>
        <time>2025-10-26T10:39:05Z</time>
      </trkpt>
      <trkpt lat="43.51037" lon="6.6927">
        <ele>140.8</ele>
        <time>2025-10-26T10:39:06Z</time>
      </trkpt>
      <trkpt lat="43.51037" lon="6.69272">
        <ele>140.6</ele>
        <time>2025-10-26T10:39:07Z</time>
      </trkpt>
      <trkpt lat="43.51037" lon="6.69272">
        <ele>140.4</ele>
        <time>2025-10-26T10:39:08Z</time>
      </trkpt>
      <trkpt lat="43.51037" lon="6.69273">
        <ele>140.3</ele>
        <time>2025-10-26T10:39:09Z</time>
      </trkpt>
      <trkpt lat="43.51037" lon="6.69275">
        <ele>140.2</ele>
        <time>2025-10-26T10:39:10Z</time>
      </trkpt>
      <trkpt lat="43.51037" lon="6.69276">
        <ele>140.1</ele>
        <time>2025-10-26T10:39:11Z</time>
      </trkpt>
      <trkpt lat="43.51037" lon="6.69277">
        <ele>140</ele>
        <time>2025-10-26T10:39:12Z</time>
      </trkpt>
      <trkpt lat="43.51038" lon="6.69279">
        <ele>139.9</ele>
        <time>2025-10-26T10:39:13Z</time>
      </trkpt>
      <trkpt lat="43.51038" lon="6.6928">
        <ele>139.9</ele>
        <time>2025-10-26T10:39:14Z</time>
      </trkpt>
      <trkpt lat="43.51038" lon="6.69282">
        <ele>139.8</ele>
        <time>2025-10-26T10:39:15Z</time>
      </trkpt>
      <trkpt lat="43.51038" lon="6.69283">
        <ele>139.6</ele>
        <time>2025-10-26T10:39:16Z</time>
      </trkpt>
      <trkpt lat="43.51038" lon="6.69284">
        <ele>139.5</ele>
        <time>2025-10-26T10:39:17Z</time>
      </trkpt>
      <trkpt lat="43.51039" lon="6.69285">
        <ele>139.4</ele>
        <time>2025-10-26T10:39:18Z</time>
      </trkpt>
      <trkpt lat="43.51038" lon="6.69287">
        <ele>139.2</ele>
        <time>2025-10-26T10:39:19Z</time>
      </trkpt>
      <trkpt lat="43.51038" lon="6.69288">
        <ele>139.1</ele>
        <time>2025-10-26T10:39:20Z</time>
      </trkpt>
      <trkpt lat="43.51038" lon="6.69289">
        <ele>138.9</ele>
        <time>2025-10-26T10:39:21Z</time>
      </trkpt>
      <trkpt lat="43.51039" lon="6.6929">
        <ele>139</ele>
        <time>2025-10-26T10:39:22Z</time>
      </trkpt>
      <trkpt lat="43.51039" lon="6.69291">
        <ele>138.9</ele>
        <time>2025-10-26T10:39:23Z</time>
      </trkpt>
      <trkpt lat="43.51039" lon="6.69293">
        <ele>138.8</ele>
        <time>2025-10-26T10:39:24Z</time>
      </trkpt>
      <trkpt lat="43.51039" lon="6.69294">
        <ele>138.7</ele>
        <time>2025-10-26T10:39:25Z</time>
      </trkpt>
      <trkpt lat="43.51039" lon="6.69295">
        <ele>138.7</ele>
        <time>2025-10-26T10:39:26Z</time>
      </trkpt>
      <trkpt lat="43.51038" lon="6.69296">
        <ele>138.6</ele>
        <time>2025-10-26T10:39:27Z</time>
      </trkpt>
      <trkpt lat="43.51037" lon="6.69297">
        <ele>138.3</ele>
        <time>2025-10-26T10:39:28Z</time>
      </trkpt>
      <trkpt lat="43.51036" lon="6.69298">
        <ele>138.2</ele>
        <time>2025-10-26T10:39:29Z</time>
      </trkpt>
      <trkpt lat="43.51036" lon="6.69299">
        <ele>138.2</ele>
        <time>2025-10-26T10:39:30Z</time>
      </trkpt>
      <trkpt lat="43.51036" lon="6.693">
        <ele>138</ele>
        <time>2025-10-26T10:39:31Z</time>
      </trkpt>
      <trkpt lat="43.51037" lon="6.69301">
        <ele>137.9</ele>
        <time>2025-10-26T10:39:32Z</time>
      </trkpt>
      <trkpt lat="43.51037" lon="6.69302">
        <ele>137.8</ele>
        <time>2025-10-26T10:39:33Z</time>
      </trkpt>
      <trkpt lat="43.51037" lon="6.69303">
        <ele>137.5</ele>
        <time>2025-10-26T10:39:34Z</time>
      </trkpt>
      <trkpt lat="43.51037" lon="6.69304">
        <ele>137.3</ele>
        <time>2025-10-26T10:39:35Z</time>
      </trkpt>
      <trkpt lat="43.51037" lon="6.69305">
        <ele>137.1</ele>
        <time>2025-10-26T10:39:36Z</time>
      </trkpt>
      <trkpt lat="43.51037" lon="6.69306">
        <ele>137</ele>
        <time>2025-10-26T10:39:37Z</time>
      </trkpt>
      <trkpt lat="43.51037" lon="6.69307">
        <ele>136.8</ele>
        <time>2025-10-26T10:39:38Z</time>
      </trkpt>
      <trkpt lat="43.51037" lon="6.69308">
        <ele>136.7</ele>
        <time>2025-10-26T10:39:39Z</time>
      </trkpt>
      <trkpt lat="43.51038" lon="6.69309">
        <ele>136.6</ele>
        <time>2025-10-26T10:39:40Z</time>
      </trkpt>
      <trkpt lat="43.51038" lon="6.6931">
        <ele>136.5</ele>
        <time>2025-10-26T10:39:41Z</time>
      </trkpt>
      <trkpt lat="43.51039" lon="6.69312">
        <ele>136.4</ele>
        <time>2025-10-26T10:39:42Z</time>
      </trkpt>
      <trkpt lat="43.5104" lon="6.69313">
        <ele>136.3</ele>
        <time>2025-10-26T10:39:43Z</time>
      </trkpt>
      <trkpt lat="43.5104" lon="6.69314">
        <ele>136.1</ele>
        <time>2025-10-26T10:39:44Z</time>
      </trkpt>
      <trkpt lat="43.51041" lon="6.69316">
        <ele>136.1</ele>
        <time>2025-10-26T10:39:45Z</time>
      </trkpt>
      <trkpt lat="43.51042" lon="6.69317">
        <ele>136</ele>
        <time>2025-10-26T10:39:46Z</time>
      </trkpt>
      <trkpt lat="43.51042" lon="6.69318">
        <ele>135.9</ele>
        <time>2025-10-26T10:39:47Z</time>
      </trkpt>
      <trkpt lat="43.51042" lon="6.69318">
        <ele>136</ele>
        <time>2025-10-26T10:39:48Z</time>
      </trkpt>
      <trkpt lat="43.51042" lon="6.69319">
        <ele>136</ele>
        <time>2025-10-26T10:39:49Z</time>
      </trkpt>
      <trkpt lat="43.51043" lon="6.6932">
        <ele>135.9</ele>
        <time>2025-10-26T10:39:50Z</time>
      </trkpt>
      <trkpt lat="43.51043" lon="6.69321">
        <ele>135.7</ele>
        <time>2025-10-26T10:39:51Z</time>
      </trkpt>
      <trkpt lat="43.51043" lon="6.69323">
        <ele>135.6</ele>
        <time>2025-10-26T10:39:52Z</time>
      </trkpt>
      <trkpt lat="43.51043" lon="6.69324">
        <ele>135.5</ele>
        <time>2025-10-26T10:39:53Z</time>
      </trkpt>
      <trkpt lat="43.51042" lon="6.69326">
        <ele>135.5</ele>
        <time>2025-10-26T10:39:54Z</time>
      </trkpt>
      <trkpt lat="43.51042" lon="6.69327">
        <ele>135.5</ele>
        <time>2025-10-26T10:39:55Z</time>
      </trkpt>
      <trkpt lat="43.51042" lon="6.69328">
        <ele>135.6</ele>
        <time>2025-10-26T10:39:56Z</time>
      </trkpt>
      <trkpt lat="43.51043" lon="6.69329">
        <ele>135.6</ele>
        <time>2025-10-26T10:39:57Z</time>
      </trkpt>
      <trkpt lat="43.51044" lon="6.6933">
        <ele>135.5</ele>
        <time>2025-10-26T10:39:58Z</time>
      </trkpt>
      <trkpt lat="43.51044" lon="6.69331">
        <ele>135.5</ele>
        <time>2025-10-26T10:39:59Z</time>
      </trkpt>
      <trkpt lat="43.51045" lon="6.69333">
        <ele>135.7</ele>
        <time>2025-10-26T10:40:00Z</time>
      </trkpt>
      <trkpt lat="43.51046" lon="6.69334">
        <ele>135.8</ele>
        <time>2025-10-26T10:40:01Z</time>
      </trkpt>
      <trkpt lat="43.51046" lon="6.69335">
        <ele>135.9</ele>
        <time>2025-10-26T10:40:02Z</time>
      </trkpt>
      <trkpt lat="43.51046" lon="6.69336">
        <ele>136</ele>
        <time>2025-10-26T10:40:03Z</time>
      </trkpt>
      <trkpt lat="43.51047" lon="6.69338">
        <ele>136.1</ele>
        <time>2025-10-26T10:40:04Z</time>
      </trkpt>
      <trkpt lat="43.51048" lon="6.69339">
        <ele>136.2</ele>
        <time>2025-10-26T10:40:05Z</time>
      </trkpt>
      <trkpt lat="43.51049" lon="6.69339">
        <ele>136.3</ele>
        <time>2025-10-26T10:40:06Z</time>
      </trkpt>
      <trkpt lat="43.5105" lon="6.69341">
        <ele>136.4</ele>
        <time>2025-10-26T10:40:07Z</time>
      </trkpt>
      <trkpt lat="43.5105" lon="6.69341">
        <ele>136.6</ele>
        <time>2025-10-26T10:40:08Z</time>
      </trkpt>
      <trkpt lat="43.51051" lon="6.69342">
        <ele>136.8</ele>
        <time>2025-10-26T10:40:09Z</time>
      </trkpt>
      <trkpt lat="43.51051" lon="6.69344">
        <ele>137</ele>
        <time>2025-10-26T10:40:10Z</time>
      </trkpt>
      <trkpt lat="43.51052" lon="6.69344">
        <ele>137.2</ele>
        <time>2025-10-26T10:40:11Z</time>
      </trkpt>
      <trkpt lat="43.51053" lon="6.69345">
        <ele>137.4</ele>
        <time>2025-10-26T10:40:12Z</time>
      </trkpt>
      <trkpt lat="43.51053" lon="6.69345">
        <ele>137.5</ele>
        <time>2025-10-26T10:40:13Z</time>
      </trkpt>
      <trkpt lat="43.51054" lon="6.69346">
        <ele>137.7</ele>
        <time>2025-10-26T10:40:14Z</time>
      </trkpt>
      <trkpt lat="43.51054" lon="6.69347">
        <ele>137.9</ele>
        <time>2025-10-26T10:40:15Z</time>
      </trkpt>
      <trkpt lat="43.51054" lon="6.69348">
        <ele>138.1</ele>
        <time>2025-10-26T10:40:16Z</time>
      </trkpt>
      <trkpt lat="43.51054" lon="6.69349">
        <ele>138.2</ele>
        <time>2025-10-26T10:40:17Z</time>
      </trkpt>
      <trkpt lat="43.51055" lon="6.6935">
        <ele>138.3</ele>
        <time>2025-10-26T10:40:18Z</time>
      </trkpt>
      <trkpt lat="43.51055" lon="6.69352">
        <ele>138.4</ele>
        <time>2025-10-26T10:40:19Z</time>
      </trkpt>
      <trkpt lat="43.51055" lon="6.69353">
        <ele>138.5</ele>
        <time>2025-10-26T10:40:20Z</time>
      </trkpt>
      <trkpt lat="43.51055" lon="6.69354">
        <ele>138.6</ele>
        <time>2025-10-26T10:40:21Z</time>
      </trkpt>
      <trkpt lat="43.51055" lon="6.69355">
        <ele>138.7</ele>
        <time>2025-10-26T10:40:22Z</time>
      </trkpt>
      <trkpt lat="43.51055" lon="6.69356">
        <ele>138.8</ele>
        <time>2025-10-26T10:40:23Z</time>
      </trkpt>
      <trkpt lat="43.51056" lon="6.69356">
        <ele>139</ele>
        <time>2025-10-26T10:40:24Z</time>
      </trkpt>
      <trkpt lat="43.51056" lon="6.69356">
        <ele>139.1</ele>
        <time>2025-10-26T10:40:25Z</time>
      </trkpt>
      <trkpt lat="43.51056" lon="6.69357">
        <ele>139.2</ele>
        <time>2025-10-26T10:40:26Z</time>
      </trkpt>
      <trkpt lat="43.51056" lon="6.69357">
        <ele>139.2</ele>
        <time>2025-10-26T10:40:27Z</time>
      </trkpt>
      <trkpt lat="43.51057" lon="6.69358">
        <ele>139.2</ele>
        <time>2025-10-26T10:40:28Z</time>
      </trkpt>
      <trkpt lat="43.51057" lon="6.69358">
        <ele>139.2</ele>
        <time>2025-10-26T10:40:29Z</time>
      </trkpt>
      <trkpt lat="43.51057" lon="6.69358">
        <ele>139.3</ele>
        <time>2025-10-26T10:40:30Z</time>
      </trkpt>
      <trkpt lat="43.51057" lon="6.69358">
        <ele>139.3</ele>
        <time>2025-10-26T10:40:31Z</time>
      </trkpt>
      <trkpt lat="43.51058" lon="6.69359">
        <ele>139.4</ele>
        <time>2025-10-26T10:40:32Z</time>
      </trkpt>
      <trkpt lat="43.51057" lon="6.69359">
        <ele>139.3</ele>
        <time>2025-10-26T10:40:33Z</time>
      </trkpt>
      <trkpt lat="43.51057" lon="6.69359">
        <ele>139.3</ele>
        <time>2025-10-26T10:40:34Z</time>
      </trkpt>
      <trkpt lat="43.51057" lon="6.6936">
        <ele>139.3</ele>
        <time>2025-10-26T10:40:35Z</time>
      </trkpt>
      <trkpt lat="43.51057" lon="6.69361">
        <ele>139.2</ele>
        <time>2025-10-26T10:40:36Z</time>
      </trkpt>
      <trkpt lat="43.51058" lon="6.69361">
        <ele>139.1</ele>
        <time>2025-10-26T10:40:37Z</time>
      </trkpt>
      <trkpt lat="43.51058" lon="6.69362">
        <ele>139.1</ele>
        <time>2025-10-26T10:40:38Z</time>
      </trkpt>
      <trkpt lat="43.51058" lon="6.69362">
        <ele>139</ele>
        <time>2025-10-26T10:40:39Z</time>
      </trkpt>
      <trkpt lat="43.51058" lon="6.69362">
        <ele>139</ele>
        <time>2025-10-26T10:40:40Z</time>
      </trkpt>
      <trkpt lat="43.51057" lon="6.69363">
        <ele>139</ele>
        <time>2025-10-26T10:40:41Z</time>
      </trkpt>
      <trkpt lat="43.51058" lon="6.69363">
        <ele>139</ele>
        <time>2025-10-26T10:40:42Z</time>
      </trkpt>
      <trkpt lat="43.51058" lon="6.69364">
        <ele>139.1</ele>
        <time>2025-10-26T10:40:43Z</time>
      </trkpt>
      <trkpt lat="43.51059" lon="6.69364">
        <ele>139.1</ele>
        <time>2025-10-26T10:40:44Z</time>
      </trkpt>
      <trkpt lat="43.51059" lon="6.69365">
        <ele>139.1</ele>
        <time>2025-10-26T10:40:45Z</time>
      </trkpt>
      <trkpt lat="43.51058" lon="6.69365">
        <ele>139.1</ele>
        <time>2025-10-26T10:40:46Z</time>
      </trkpt>
      <trkpt lat="43.51058" lon="6.69366">
        <ele>139.1</ele>
        <time>2025-10-26T10:40:47Z</time>
      </trkpt>
      <trkpt lat="43.51058" lon="6.69366">
        <ele>139.1</ele>
        <time>2025-10-26T10:40:48Z</time>
      </trkpt>
      <trkpt lat="43.51059" lon="6.69367">
        <ele>139.3</ele>
        <time>2025-10-26T10:40:49Z</time>
      </trkpt>
      <trkpt lat="43.51058" lon="6.69367">
        <ele>139.4</ele>
        <time>2025-10-26T10:40:50Z</time>
      </trkpt>
      <trkpt lat="43.51058" lon="6.69368">
        <ele>139.5</ele>
        <time>2025-10-26T10:40:51Z</time>
      </trkpt>
      <trkpt lat="43.51058" lon="6.69368">
        <ele>139.7</ele>
        <time>2025-10-26T10:40:52Z</time>
      </trkpt>
      <trkpt lat="43.51058" lon="6.69369">
        <ele>139.8</ele>
        <time>2025-10-26T10:40:53Z</time>
      </trkpt>
      <trkpt lat="43.51058" lon="6.6937">
        <ele>140</ele>
        <time>2025-10-26T10:40:54Z</time>
      </trkpt>
      <trkpt lat="43.51058" lon="6.69371">
        <ele>140.1</ele>
        <time>2025-10-26T10:40:55Z</time>
      </trkpt>
      <trkpt lat="43.51059" lon="6.69372">
        <ele>140.2</ele>
        <time>2025-10-26T10:40:56Z</time>
      </trkpt>
      <trkpt lat="43.51059" lon="6.69373">
        <ele>140.4</ele>
        <time>2025-10-26T10:40:57Z</time>
      </trkpt>
      <trkpt lat="43.51059" lon="6.69374">
        <ele>140.5</ele>
        <time>2025-10-26T10:40:58Z</time>
      </trkpt>
      <trkpt lat="43.5106" lon="6.69376">
        <ele>140.7</ele>
        <time>2025-10-26T10:40:59Z</time>
      </trkpt>
      <trkpt lat="43.5106" lon="6.69377">
        <ele>140.9</ele>
        <time>2025-10-26T10:41:00Z</time>
      </trkpt>
      <trkpt lat="43.5106" lon="6.69378">
        <ele>141</ele>
        <time>2025-10-26T10:41:01Z</time>
      </trkpt>
      <trkpt lat="43.51061" lon="6.69379">
        <ele>141.2</ele>
        <time>2025-10-26T10:41:02Z</time>
      </trkpt>
      <trkpt lat="43.51061" lon="6.69381">
        <ele>141.3</ele>
        <time>2025-10-26T10:41:03Z</time>
      </trkpt>
      <trkpt lat="43.51061" lon="6.69382">
        <ele>141.5</ele>
        <time>2025-10-26T10:41:04Z</time>
      </trkpt>
      <trkpt lat="43.51061" lon="6.69382">
        <ele>141.8</ele>
        <time>2025-10-26T10:41:05Z</time>
      </trkpt>
      <trkpt lat="43.51062" lon="6.69382">
        <ele>141.9</ele>
        <time>2025-10-26T10:41:06Z</time>
      </trkpt>
      <trkpt lat="43.51062" lon="6.69383">
        <ele>142</ele>
        <time>2025-10-26T10:41:07Z</time>
      </trkpt>
      <trkpt lat="43.51062" lon="6.69384">
        <ele>142.2</ele>
        <time>2025-10-26T10:41:08Z</time>
      </trkpt>
      <trkpt lat="43.51062" lon="6.69385">
        <ele>142.3</ele>
        <time>2025-10-26T10:41:09Z</time>
      </trkpt>
      <trkpt lat="43.51062" lon="6.69386">
        <ele>142.4</ele>
        <time>2025-10-26T10:41:10Z</time>
      </trkpt>
      <trkpt lat="43.51063" lon="6.69387">
        <ele>142.4</ele>
        <time>2025-10-26T10:41:11Z</time>
      </trkpt>
      <trkpt lat="43.51063" lon="6.69388">
        <ele>142.6</ele>
        <time>2025-10-26T10:41:12Z</time>
      </trkpt>
      <trkpt lat="43.51063" lon="6.69389">
        <ele>142.7</ele>
        <time>2025-10-26T10:41:13Z</time>
      </trkpt>
      <trkpt lat="43.51064" lon="6.6939">
        <ele>142.8</ele>
        <time>2025-10-26T10:41:14Z</time>
      </trkpt>
      <trkpt lat="43.51065" lon="6.69391">
        <ele>142.9</ele>
        <time>2025-10-26T10:41:15Z</time>
      </trkpt>
      <trkpt lat="43.51065" lon="6.69392">
        <ele>143</ele>
        <time>2025-10-26T10:41:16Z</time>
      </trkpt>
      <trkpt lat="43.51066" lon="6.69393">
        <ele>143.2</ele>
        <time>2025-10-26T10:41:17Z</time>
      </trkpt>
      <trkpt lat="43.51066" lon="6.69394">
        <ele>143.2</ele>
        <time>2025-10-26T10:41:18Z</time>
      </trkpt>
      <trkpt lat="43.51067" lon="6.69394">
        <ele>143.4</ele>
        <time>2025-10-26T10:41:19Z</time>
      </trkpt>
      <trkpt lat="43.51067" lon="6.69395">
        <ele>143.4</ele>
        <time>2025-10-26T10:41:20Z</time>
      </trkpt>
      <trkpt lat="43.51068" lon="6.69395">
        <ele>143.5</ele>
        <time>2025-10-26T10:41:21Z</time>
      </trkpt>
      <trkpt lat="43.51068" lon="6.69396">
        <ele>143.7</ele>
        <time>2025-10-26T10:41:22Z</time>
      </trkpt>
      <trkpt lat="43.51069" lon="6.69397">
        <ele>143.7</ele>
        <time>2025-10-26T10:41:23Z</time>
      </trkpt>
      <trkpt lat="43.5107" lon="6.69396">
        <ele>143.8</ele>
        <time>2025-10-26T10:41:24Z</time>
      </trkpt>
      <trkpt lat="43.5107" lon="6.69396">
        <ele>143.8</ele>
        <time>2025-10-26T10:41:25Z</time>
      </trkpt>
      <trkpt lat="43.5107" lon="6.69396">
        <ele>143.8</ele>
        <time>2025-10-26T10:41:26Z</time>
      </trkpt>
      <trkpt lat="43.5107" lon="6.69396">
        <ele>143.9</ele>
        <time>2025-10-26T10:41:27Z</time>
      </trkpt>
      <trkpt lat="43.5107" lon="6.69396">
        <ele>144.1</ele>
        <time>2025-10-26T10:41:28Z</time>
      </trkpt>
      <trkpt lat="43.5107" lon="6.69396">
        <ele>144.2</ele>
        <time>2025-10-26T10:41:29Z</time>
      </trkpt>
      <trkpt lat="43.5107" lon="6.69396">
        <ele>144.1</ele>
        <time>2025-10-26T10:41:30Z</time>
      </trkpt>
      <trkpt lat="43.51071" lon="6.69397">
        <ele>144.3</ele>
        <time>2025-10-26T10:41:31Z</time>
      </trkpt>
      <trkpt lat="43.51071" lon="6.69397">
        <ele>144.3</ele>
        <time>2025-10-26T10:41:32Z</time>
      </trkpt>
      <trkpt lat="43.51072" lon="6.69398">
        <ele>144.3</ele>
        <time>2025-10-26T10:41:33Z</time>
      </trkpt>
      <trkpt lat="43.51072" lon="6.69399">
        <ele>144.3</ele>
        <time>2025-10-26T10:41:34Z</time>
      </trkpt>
      <trkpt lat="43.51073" lon="6.694">
        <ele>144.4</ele>
        <time>2025-10-26T10:41:35Z</time>
      </trkpt>
      <trkpt lat="43.51074" lon="6.69401">
        <ele>144.2</ele>
        <time>2025-10-26T10:41:36Z</time>
      </trkpt>
      <trkpt lat="43.51074" lon="6.69402">
        <ele>144.1</ele>
        <time>2025-10-26T10:41:37Z</time>
      </trkpt>
      <trkpt lat="43.51074" lon="6.69403">
        <ele>144.1</ele>
        <time>2025-10-26T10:41:38Z</time>
      </trkpt>
      <trkpt lat="43.51074" lon="6.69404">
        <ele>144.1</ele>
        <time>2025-10-26T10:41:39Z</time>
      </trkpt>
      <trkpt lat="43.51075" lon="6.69404">
        <ele>144.2</ele>
        <time>2025-10-26T10:41:40Z</time>
      </trkpt>
      <trkpt lat="43.51075" lon="6.69405">
        <ele>144.1</ele>
        <time>2025-10-26T10:41:41Z</time>
      </trkpt>
      <trkpt lat="43.51075" lon="6.69406">
        <ele>144</ele>
        <time>2025-10-26T10:41:42Z</time>
      </trkpt>
      <trkpt lat="43.51075" lon="6.69407">
        <ele>144</ele>
        <time>2025-10-26T10:41:43Z</time>
      </trkpt>
      <trkpt lat="43.51076" lon="6.69407">
        <ele>144.1</ele>
        <time>2025-10-26T10:41:44Z</time>
      </trkpt>
      <trkpt lat="43.51077" lon="6.69408">
        <ele>144.1</ele>
        <time>2025-10-26T10:41:45Z</time>
      </trkpt>
      <trkpt lat="43.51077" lon="6.69408">
        <ele>144.2</ele>
        <time>2025-10-26T10:41:46Z</time>
      </trkpt>
      <trkpt lat="43.51077" lon="6.69408">
        <ele>144.3</ele>
        <time>2025-10-26T10:41:47Z</time>
      </trkpt>
      <trkpt lat="43.51077" lon="6.69408">
        <ele>144.3</ele>
        <time>2025-10-26T10:41:48Z</time>
      </trkpt>
      <trkpt lat="43.51077" lon="6.69408">
        <ele>144.4</ele>
        <time>2025-10-26T10:41:49Z</time>
      </trkpt>
      <trkpt lat="43.51077" lon="6.69408">
        <ele>144.5</ele>
        <time>2025-10-26T10:41:50Z</time>
      </trkpt>
      <trkpt lat="43.51077" lon="6.69408">
        <ele>144.5</ele>
        <time>2025-10-26T10:41:51Z</time>
      </trkpt>
      <trkpt lat="43.51077" lon="6.69408">
        <ele>144.6</ele>
        <time>2025-10-26T10:41:52Z</time>
      </trkpt>
      <trkpt lat="43.51077" lon="6.69408">
        <ele>144.6</ele>
        <time>2025-10-26T10:41:53Z</time>
      </trkpt>
      <trkpt lat="43.51077" lon="6.69408">
        <ele>144.7</ele>
        <time>2025-10-26T10:41:54Z</time>
      </trkpt>
      <trkpt lat="43.51077" lon="6.69408">
        <ele>144.7</ele>
        <time>2025-10-26T10:41:55Z</time>
      </trkpt>
      <trkpt lat="43.51077" lon="6.69408">
        <ele>144.8</ele>
        <time>2025-10-26T10:41:56Z</time>
      </trkpt>
      <trkpt lat="43.51077" lon="6.69409">
        <ele>144.8</ele>
        <time>2025-10-26T10:41:57Z</time>
      </trkpt>
      <trkpt lat="43.51077" lon="6.6941">
        <ele>144.8</ele>
        <time>2025-10-26T10:41:58Z</time>
      </trkpt>
      <trkpt lat="43.51077" lon="6.69411">
        <ele>145</ele>
        <time>2025-10-26T10:41:59Z</time>
      </trkpt>
      <trkpt lat="43.51077" lon="6.69412">
        <ele>145</ele>
        <time>2025-10-26T10:42:00Z</time>
      </trkpt>
      <trkpt lat="43.51077" lon="6.69413">
        <ele>145</ele>
        <time>2025-10-26T10:42:01Z</time>
      </trkpt>
      <trkpt lat="43.51077" lon="6.69414">
        <ele>145</ele>
        <time>2025-10-26T10:42:02Z</time>
      </trkpt>
      <trkpt lat="43.51077" lon="6.69415">
        <ele>145.2</ele>
        <time>2025-10-26T10:42:03Z</time>
      </trkpt>
      <trkpt lat="43.51077" lon="6.69416">
        <ele>145.2</ele>
        <time>2025-10-26T10:42:04Z</time>
      </trkpt>
      <trkpt lat="43.51077" lon="6.69417">
        <ele>145.2</ele>
        <time>2025-10-26T10:42:05Z</time>
      </trkpt>
      <trkpt lat="43.51076" lon="6.69418">
        <ele>145.1</ele>
        <time>2025-10-26T10:42:06Z</time>
      </trkpt>
      <trkpt lat="43.51076" lon="6.69419">
        <ele>145</ele>
        <time>2025-10-26T10:42:07Z</time>
      </trkpt>
      <trkpt lat="43.51076" lon="6.6942">
        <ele>144.8</ele>
        <time>2025-10-26T10:42:08Z</time>
      </trkpt>
      <trkpt lat="43.51076" lon="6.69421">
        <ele>144.6</ele>
        <time>2025-10-26T10:42:09Z</time>
      </trkpt>
      <trkpt lat="43.51076" lon="6.69423">
        <ele>144.4</ele>
        <time>2025-10-26T10:42:10Z</time>
      </trkpt>
      <trkpt lat="43.51076" lon="6.69424">
        <ele>144.2</ele>
        <time>2025-10-26T10:42:11Z</time>
      </trkpt>
      <trkpt lat="43.51076" lon="6.69425">
        <ele>144.1</ele>
        <time>2025-10-26T10:42:12Z</time>
      </trkpt>
      <trkpt lat="43.51076" lon="6.69426">
        <ele>143.9</ele>
        <time>2025-10-26T10:42:13Z</time>
      </trkpt>
      <trkpt lat="43.51075" lon="6.69428">
        <ele>143.8</ele>
        <time>2025-10-26T10:42:14Z</time>
      </trkpt>
      <trkpt lat="43.51076" lon="6.69428">
        <ele>143.7</ele>
        <time>2025-10-26T10:42:15Z</time>
      </trkpt>
      <trkpt lat="43.51075" lon="6.69428">
        <ele>143.6</ele>
        <time>2025-10-26T10:42:16Z</time>
      </trkpt>
      <trkpt lat="43.51075" lon="6.6943">
        <ele>143.6</ele>
        <time>2025-10-26T10:42:17Z</time>
      </trkpt>
      <trkpt lat="43.51076" lon="6.69432">
        <ele>143.3</ele>
        <time>2025-10-26T10:42:18Z</time>
      </trkpt>
      <trkpt lat="43.51077" lon="6.69433">
        <ele>143.1</ele>
        <time>2025-10-26T10:42:19Z</time>
      </trkpt>
      <trkpt lat="43.51078" lon="6.69434">
        <ele>142.9</ele>
        <time>2025-10-26T10:42:20Z</time>
      </trkpt>
      <trkpt lat="43.51079" lon="6.69435">
        <ele>142.7</ele>
        <time>2025-10-26T10:42:21Z</time>
      </trkpt>
      <trkpt lat="43.51079" lon="6.69436">
        <ele>142.6</ele>
        <time>2025-10-26T10:42:22Z</time>
      </trkpt>
      <trkpt lat="43.5108" lon="6.69437">
        <ele>142.5</ele>
        <time>2025-10-26T10:42:23Z</time>
      </trkpt>
      <trkpt lat="43.51079" lon="6.69438">
        <ele>142.3</ele>
        <time>2025-10-26T10:42:24Z</time>
      </trkpt>
      <trkpt lat="43.5108" lon="6.69439">
        <ele>142.2</ele>
        <time>2025-10-26T10:42:25Z</time>
      </trkpt>
      <trkpt lat="43.5108" lon="6.6944">
        <ele>141.9</ele>
        <time>2025-10-26T10:42:26Z</time>
      </trkpt>
      <trkpt lat="43.5108" lon="6.69441">
        <ele>141.6</ele>
        <time>2025-10-26T10:42:27Z</time>
      </trkpt>
      <trkpt lat="43.5108" lon="6.69442">
        <ele>141.3</ele>
        <time>2025-10-26T10:42:28Z</time>
      </trkpt>
      <trkpt lat="43.51081" lon="6.69443">
        <ele>141.1</ele>
        <time>2025-10-26T10:42:29Z</time>
      </trkpt>
      <trkpt lat="43.51083" lon="6.69444">
        <ele>140.9</ele>
        <time>2025-10-26T10:42:30Z</time>
      </trkpt>
      <trkpt lat="43.51083" lon="6.69445">
        <ele>140.7</ele>
        <time>2025-10-26T10:42:31Z</time>
      </trkpt>
      <trkpt lat="43.51084" lon="6.69446">
        <ele>140.5</ele>
        <time>2025-10-26T10:42:32Z</time>
      </trkpt>
      <trkpt lat="43.51084" lon="6.69447">
        <ele>140.2</ele>
        <time>2025-10-26T10:42:33Z</time>
      </trkpt>
      <trkpt lat="43.51084" lon="6.69449">
        <ele>140</ele>
        <time>2025-10-26T10:42:34Z</time>
      </trkpt>
      <trkpt lat="43.51084" lon="6.69451">
        <ele>139.7</ele>
        <time>2025-10-26T10:42:35Z</time>
      </trkpt>
      <trkpt lat="43.51084" lon="6.69452">
        <ele>139.5</ele>
        <time>2025-10-26T10:42:36Z</time>
      </trkpt>
      <trkpt lat="43.51085" lon="6.69453">
        <ele>139.3</ele>
        <time>2025-10-26T10:42:37Z</time>
      </trkpt>
      <trkpt lat="43.51086" lon="6.69454">
        <ele>139.1</ele>
        <time>2025-10-26T10:42:38Z</time>
      </trkpt>
      <trkpt lat="43.51087" lon="6.69455">
        <ele>139</ele>
        <time>2025-10-26T10:42:39Z</time>
      </trkpt>
      <trkpt lat="43.51088" lon="6.69457">
        <ele>139</ele>
        <time>2025-10-26T10:42:40Z</time>
      </trkpt>
      <trkpt lat="43.51089" lon="6.69458">
        <ele>138.9</ele>
        <time>2025-10-26T10:42:41Z</time>
      </trkpt>
      <trkpt lat="43.51089" lon="6.69459">
        <ele>138.9</ele>
        <time>2025-10-26T10:42:42Z</time>
      </trkpt>
      <trkpt lat="43.5109" lon="6.69461">
        <ele>138.8</ele>
        <time>2025-10-26T10:42:43Z</time>
      </trkpt>
      <trkpt lat="43.5109" lon="6.69462">
        <ele>138.8</ele>
        <time>2025-10-26T10:42:44Z</time>
      </trkpt>
      <trkpt lat="43.5109" lon="6.69463">
        <ele>138.8</ele>
        <time>2025-10-26T10:42:45Z</time>
      </trkpt>
      <trkpt lat="43.51089" lon="6.69464">
        <ele>138.7</ele>
        <time>2025-10-26T10:42:46Z</time>
      </trkpt>
      <trkpt lat="43.51088" lon="6.69466">
        <ele>138.6</ele>
        <time>2025-10-26T10:42:47Z</time>
      </trkpt>
      <trkpt lat="43.51088" lon="6.69467">
        <ele>138.3</ele>
        <time>2025-10-26T10:42:48Z</time>
      </trkpt>
      <trkpt lat="43.51087" lon="6.69469">
        <ele>138</ele>
        <time>2025-10-26T10:42:49Z</time>
      </trkpt>
      <trkpt lat="43.51087" lon="6.6947">
        <ele>137.9</ele>
        <time>2025-10-26T10:42:50Z</time>
      </trkpt>
      <trkpt lat="43.51087" lon="6.6947">
        <ele>137.7</ele>
        <time>2025-10-26T10:42:51Z</time>
      </trkpt>
      <trkpt lat="43.51086" lon="6.69471">
        <ele>137.5</ele>
        <time>2025-10-26T10:42:52Z</time>
      </trkpt>
      <trkpt lat="43.51086" lon="6.69472">
        <ele>137.4</ele>
        <time>2025-10-26T10:42:53Z</time>
      </trkpt>
      <trkpt lat="43.51086" lon="6.69473">
        <ele>137.2</ele>
        <time>2025-10-26T10:42:54Z</time>
      </trkpt>
      <trkpt lat="43.51086" lon="6.69475">
        <ele>137</ele>
        <time>2025-10-26T10:42:55Z</time>
      </trkpt>
      <trkpt lat="43.51086" lon="6.69476">
        <ele>136.9</ele>
        <time>2025-10-26T10:42:56Z</time>
      </trkpt>
      <trkpt lat="43.51087" lon="6.69476">
        <ele>136.8</ele>
        <time>2025-10-26T10:42:57Z</time>
      </trkpt>
      <trkpt lat="43.51087" lon="6.69477">
        <ele>136.8</ele>
        <time>2025-10-26T10:42:58Z</time>
      </trkpt>
      <trkpt lat="43.51088" lon="6.69477">
        <ele>136.7</ele>
        <time>2025-10-26T10:42:59Z</time>
      </trkpt>
      <trkpt lat="43.51088" lon="6.69477">
        <ele>136.7</ele>
        <time>2025-10-26T10:43:00Z</time>
      </trkpt>
      <trkpt lat="43.51087" lon="6.69477">
        <ele>136.6</ele>
        <time>2025-10-26T10:43:01Z</time>
      </trkpt>
      <trkpt lat="43.51087" lon="6.69477">
        <ele>136.5</ele>
        <time>2025-10-26T10:43:02Z</time>
      </trkpt>
      <trkpt lat="43.51087" lon="6.69477">
        <ele>136.4</ele>
        <time>2025-10-26T10:43:03Z</time>
      </trkpt>
      <trkpt lat="43.51086" lon="6.69478">
        <ele>136.3</ele>
        <time>2025-10-26T10:43:04Z</time>
      </trkpt>
      <trkpt lat="43.51085" lon="6.69478">
        <ele>136.3</ele>
        <time>2025-10-26T10:43:05Z</time>
      </trkpt>
      <trkpt lat="43.51085" lon="6.69479">
        <ele>136</ele>
        <time>2025-10-26T10:43:06Z</time>
      </trkpt>
      <trkpt lat="43.51085" lon="6.6948">
        <ele>135.8</ele>
        <time>2025-10-26T10:43:07Z</time>
      </trkpt>
      <trkpt lat="43.51085" lon="6.69481">
        <ele>135.6</ele>
        <time>2025-10-26T10:43:08Z</time>
      </trkpt>
      <trkpt lat="43.51085" lon="6.69481">
        <ele>135.4</ele>
        <time>2025-10-26T10:43:09Z</time>
      </trkpt>
      <trkpt lat="43.51084" lon="6.69481">
        <ele>135.2</ele>
        <time>2025-10-26T10:43:10Z</time>
      </trkpt>
      <trkpt lat="43.51084" lon="6.69481">
        <ele>135</ele>
        <time>2025-10-26T10:43:11Z</time>
      </trkpt>
      <trkpt lat="43.51084" lon="6.69482">
        <ele>134.9</ele>
        <time>2025-10-26T10:43:12Z</time>
      </trkpt>
      <trkpt lat="43.51084" lon="6.69482">
        <ele>134.8</ele>
        <time>2025-10-26T10:43:13Z</time>
      </trkpt>
      <trkpt lat="43.51084" lon="6.69482">
        <ele>134.7</ele>
        <time>2025-10-26T10:43:14Z</time>
      </trkpt>
      <trkpt lat="43.51084" lon="6.69482">
        <ele>134.7</ele>
        <time>2025-10-26T10:43:15Z</time>
      </trkpt>
      <trkpt lat="43.51084" lon="6.69482">
        <ele>134.7</ele>
        <time>2025-10-26T10:43:16Z</time>
      </trkpt>
      <trkpt lat="43.51084" lon="6.69484">
        <ele>134.6</ele>
        <time>2025-10-26T10:43:17Z</time>
      </trkpt>
      <trkpt lat="43.51083" lon="6.69484">
        <ele>134.6</ele>
        <time>2025-10-26T10:43:18Z</time>
      </trkpt>
      <trkpt lat="43.51083" lon="6.69484">
        <ele>134.6</ele>
        <time>2025-10-26T10:43:19Z</time>
      </trkpt>
      <trkpt lat="43.51083" lon="6.69484">
        <ele>134.6</ele>
        <time>2025-10-26T10:43:20Z</time>
      </trkpt>
      <trkpt lat="43.51083" lon="6.69484">
        <ele>134.7</ele>
        <time>2025-10-26T10:43:21Z</time>
      </trkpt>
      <trkpt lat="43.51083" lon="6.69484">
        <ele>134.8</ele>
        <time>2025-10-26T10:43:22Z</time>
      </trkpt>
      <trkpt lat="43.51083" lon="6.69486">
        <ele>134.9</ele>
        <time>2025-10-26T10:43:23Z</time>
      </trkpt>
      <trkpt lat="43.51083" lon="6.69487">
        <ele>135</ele>
        <time>2025-10-26T10:43:24Z</time>
      </trkpt>
      <trkpt lat="43.51083" lon="6.69488">
        <ele>135.1</ele>
        <time>2025-10-26T10:43:25Z</time>
      </trkpt>
      <trkpt lat="43.51083" lon="6.69489">
        <ele>135.2</ele>
        <time>2025-10-26T10:43:26Z</time>
      </trkpt>
      <trkpt lat="43.51083" lon="6.6949">
        <ele>135.4</ele>
        <time>2025-10-26T10:43:27Z</time>
      </trkpt>
      <trkpt lat="43.51082" lon="6.6949">
        <ele>135.6</ele>
        <time>2025-10-26T10:43:28Z</time>
      </trkpt>
      <trkpt lat="43.51082" lon="6.69491">
        <ele>135.7</ele>
        <time>2025-10-26T10:43:29Z</time>
      </trkpt>
      <trkpt lat="43.51082" lon="6.69492">
        <ele>135.8</ele>
        <time>2025-10-26T10:43:30Z</time>
      </trkpt>
      <trkpt lat="43.51082" lon="6.69492">
        <ele>136</ele>
        <time>2025-10-26T10:43:31Z</time>
      </trkpt>
      <trkpt lat="43.51082" lon="6.69493">
        <ele>136.1</ele>
        <time>2025-10-26T10:43:32Z</time>
      </trkpt>
      <trkpt lat="43.51081" lon="6.69494">
        <ele>136.3</ele>
        <time>2025-10-26T10:43:33Z</time>
      </trkpt>
      <trkpt lat="43.51081" lon="6.69494">
        <ele>136.4</ele>
        <time>2025-10-26T10:43:34Z</time>
      </trkpt>
      <trkpt lat="43.5108" lon="6.69495">
        <ele>136.5</ele>
        <time>2025-10-26T10:43:35Z</time>
      </trkpt>
      <trkpt lat="43.51079" lon="6.69496">
        <ele>136.6</ele>
        <time>2025-10-26T10:43:36Z</time>
      </trkpt>
      <trkpt lat="43.51079" lon="6.69497">
        <ele>136.7</ele>
        <time>2025-10-26T10:43:37Z</time>
      </trkpt>
      <trkpt lat="43.51078" lon="6.69497">
        <ele>136.9</ele>
        <time>2025-10-26T10:43:38Z</time>
      </trkpt>
      <trkpt lat="43.51078" lon="6.69498">
        <ele>137</ele>
        <time>2025-10-26T10:43:39Z</time>
      </trkpt>
      <trkpt lat="43.51078" lon="6.69499">
        <ele>137</ele>
        <time>2025-10-26T10:43:40Z</time>
      </trkpt>
      <trkpt lat="43.51077" lon="6.695">
        <ele>137</ele>
        <time>2025-10-26T10:43:41Z</time>
      </trkpt>
      <trkpt lat="43.51077" lon="6.695">
        <ele>137</ele>
        <time>2025-10-26T10:43:42Z</time>
      </trkpt>
      <trkpt lat="43.51076" lon="6.69502">
        <ele>137.1</ele>
        <time>2025-10-26T10:43:43Z</time>
      </trkpt>
      <trkpt lat="43.51076" lon="6.69502">
        <ele>137</ele>
        <time>2025-10-26T10:43:44Z</time>
      </trkpt>
      <trkpt lat="43.51075" lon="6.69504">
        <ele>137</ele>
        <time>2025-10-26T10:43:45Z</time>
      </trkpt>
      <trkpt lat="43.51075" lon="6.69505">
        <ele>137</ele>
        <time>2025-10-26T10:43:46Z</time>
      </trkpt>
      <trkpt lat="43.51074" lon="6.69505">
        <ele>137</ele>
        <time>2025-10-26T10:43:47Z</time>
      </trkpt>
      <trkpt lat="43.51073" lon="6.69506">
        <ele>136.9</ele>
        <time>2025-10-26T10:43:48Z</time>
      </trkpt>
      <trkpt lat="43.51073" lon="6.69508">
        <ele>136.9</ele>
        <time>2025-10-26T10:43:49Z</time>
      </trkpt>
      <trkpt lat="43.51072" lon="6.69509">
        <ele>136.8</ele>
        <time>2025-10-26T10:43:50Z</time>
      </trkpt>
      <trkpt lat="43.51072" lon="6.6951">
        <ele>136.7</ele>
        <time>2025-10-26T10:43:51Z</time>
      </trkpt>
      <trkpt lat="43.51071" lon="6.69511">
        <ele>136.6</ele>
        <time>2025-10-26T10:43:52Z</time>
      </trkpt>
      <trkpt lat="43.51071" lon="6.69512">
        <ele>136.5</ele>
        <time>2025-10-26T10:43:53Z</time>
      </trkpt>
      <trkpt lat="43.51071" lon="6.69513">
        <ele>136.5</ele>
        <time>2025-10-26T10:43:54Z</time>
      </trkpt>
      <trkpt lat="43.5107" lon="6.69514">
        <ele>136.5</ele>
        <time>2025-10-26T10:43:55Z</time>
      </trkpt>
      <trkpt lat="43.5107" lon="6.69515">
        <ele>136.6</ele>
        <time>2025-10-26T10:43:56Z</time>
      </trkpt>
      <trkpt lat="43.51069" lon="6.69515">
        <ele>136.6</ele>
        <time>2025-10-26T10:43:57Z</time>
      </trkpt>
      <trkpt lat="43.51068" lon="6.69516">
        <ele>136.6</ele>
        <time>2025-10-26T10:43:58Z</time>
      </trkpt>
      <trkpt lat="43.51067" lon="6.69517">
        <ele>136.6</ele>
        <time>2025-10-26T10:43:59Z</time>
      </trkpt>
      <trkpt lat="43.51067" lon="6.69517">
        <ele>136.6</ele>
        <time>2025-10-26T10:44:00Z</time>
      </trkpt>
      <trkpt lat="43.51066" lon="6.69518">
        <ele>136.7</ele>
        <time>2025-10-26T10:44:01Z</time>
      </trkpt>
      <trkpt lat="43.51066" lon="6.6952">
        <ele>136.8</ele>
        <time>2025-10-26T10:44:02Z</time>
      </trkpt>
      <trkpt lat="43.51065" lon="6.69521">
        <ele>136.8</ele>
        <time>2025-10-26T10:44:03Z</time>
      </trkpt>
      <trkpt lat="43.51065" lon="6.69522">
        <ele>136.9</ele>
        <time>2025-10-26T10:44:04Z</time>
      </trkpt>
      <trkpt lat="43.51065" lon="6.69523">
        <ele>136.9</ele>
        <time>2025-10-26T10:44:05Z</time>
      </trkpt>
      <trkpt lat="43.51065" lon="6.69525">
        <ele>136.9</ele>
        <time>2025-10-26T10:44:06Z</time>
      </trkpt>
      <trkpt lat="43.51064" lon="6.69526">
        <ele>136.9</ele>
        <time>2025-10-26T10:44:07Z</time>
      </trkpt>
      <trkpt lat="43.51064" lon="6.69527">
        <ele>136.9</ele>
        <time>2025-10-26T10:44:08Z</time>
      </trkpt>
      <trkpt lat="43.51063" lon="6.69528">
        <ele>136.9</ele>
        <time>2025-10-26T10:44:09Z</time>
      </trkpt>
      <trkpt lat="43.51063" lon="6.69529">
        <ele>136.8</ele>
        <time>2025-10-26T10:44:10Z</time>
      </trkpt>
      <trkpt lat="43.51062" lon="6.6953">
        <ele>136.9</ele>
        <time>2025-10-26T10:44:11Z</time>
      </trkpt>
      <trkpt lat="43.51062" lon="6.69531">
        <ele>136.9</ele>
        <time>2025-10-26T10:44:12Z</time>
      </trkpt>
      <trkpt lat="43.51061" lon="6.69533">
        <ele>136.9</ele>
        <time>2025-10-26T10:44:13Z</time>
      </trkpt>
      <trkpt lat="43.5106" lon="6.69533">
        <ele>136.8</ele>
        <time>2025-10-26T10:44:14Z</time>
      </trkpt>
      <trkpt lat="43.5106" lon="6.69534">
        <ele>136.8</ele>
        <time>2025-10-26T10:44:15Z</time>
      </trkpt>
      <trkpt lat="43.51059" lon="6.69535">
        <ele>136.8</ele>
        <time>2025-10-26T10:44:16Z</time>
      </trkpt>
      <trkpt lat="43.51059" lon="6.69537">
        <ele>136.9</ele>
        <time>2025-10-26T10:44:17Z</time>
      </trkpt>
      <trkpt lat="43.51059" lon="6.69538">
        <ele>136.9</ele>
        <time>2025-10-26T10:44:18Z</time>
      </trkpt>
      <trkpt lat="43.51059" lon="6.6954">
        <ele>136.7</ele>
        <time>2025-10-26T10:44:19Z</time>
      </trkpt>
      <trkpt lat="43.51058" lon="6.69541">
        <ele>136.7</ele>
        <time>2025-10-26T10:44:20Z</time>
      </trkpt>
      <trkpt lat="43.51057" lon="6.69542">
        <ele>136.6</ele>
        <time>2025-10-26T10:44:21Z</time>
      </trkpt>
      <trkpt lat="43.51056" lon="6.69543">
        <ele>136.5</ele>
        <time>2025-10-26T10:44:22Z</time>
      </trkpt>
      <trkpt lat="43.51055" lon="6.69544">
        <ele>136.4</ele>
        <time>2025-10-26T10:44:23Z</time>
      </trkpt>
      <trkpt lat="43.51055" lon="6.69545">
        <ele>136.4</ele>
        <time>2025-10-26T10:44:24Z</time>
      </trkpt>
      <trkpt lat="43.51054" lon="6.69547">
        <ele>136.4</ele>
        <time>2025-10-26T10:44:25Z</time>
      </trkpt>
      <trkpt lat="43.51053" lon="6.69548">
        <ele>136.3</ele>
        <time>2025-10-26T10:44:26Z</time>
      </trkpt>
      <trkpt lat="43.51052" lon="6.69548">
        <ele>136.3</ele>
        <time>2025-10-26T10:44:27Z</time>
      </trkpt>
      <trkpt lat="43.51052" lon="6.69549">
        <ele>136.2</ele>
        <time>2025-10-26T10:44:28Z</time>
      </trkpt>
      <trkpt lat="43.51051" lon="6.6955">
        <ele>136.2</ele>
        <time>2025-10-26T10:44:29Z</time>
      </trkpt>
      <trkpt lat="43.5105" lon="6.69551">
        <ele>136.1</ele>
        <time>2025-10-26T10:44:30Z</time>
      </trkpt>
      <trkpt lat="43.51049" lon="6.69551">
        <ele>136</ele>
        <time>2025-10-26T10:44:31Z</time>
      </trkpt>
      <trkpt lat="43.51048" lon="6.69553">
        <ele>135.9</ele>
        <time>2025-10-26T10:44:32Z</time>
      </trkpt>
      <trkpt lat="43.51048" lon="6.69554">
        <ele>135.9</ele>
        <time>2025-10-26T10:44:33Z</time>
      </trkpt>
      <trkpt lat="43.51047" lon="6.69555">
        <ele>136.1</ele>
        <time>2025-10-26T10:44:34Z</time>
      </trkpt>
      <trkpt lat="43.51046" lon="6.69555">
        <ele>136</ele>
        <time>2025-10-26T10:44:35Z</time>
      </trkpt>
      <trkpt lat="43.51045" lon="6.69557">
        <ele>136</ele>
        <time>2025-10-26T10:44:36Z</time>
      </trkpt>
      <trkpt lat="43.51044" lon="6.69558">
        <ele>136</ele>
        <time>2025-10-26T10:44:37Z</time>
      </trkpt>
      <trkpt lat="43.51043" lon="6.69559">
        <ele>135.9</ele>
        <time>2025-10-26T10:44:38Z</time>
      </trkpt>
      <trkpt lat="43.51042" lon="6.69559">
        <ele>136</ele>
        <time>2025-10-26T10:44:39Z</time>
      </trkpt>
      <trkpt lat="43.5104" lon="6.6956">
        <ele>136</ele>
        <time>2025-10-26T10:44:40Z</time>
      </trkpt>
      <trkpt lat="43.51039" lon="6.69561">
        <ele>135.9</ele>
        <time>2025-10-26T10:44:41Z</time>
      </trkpt>
      <trkpt lat="43.51038" lon="6.69561">
        <ele>135.9</ele>
        <time>2025-10-26T10:44:42Z</time>
      </trkpt>
      <trkpt lat="43.51037" lon="6.69562">
        <ele>135.9</ele>
        <time>2025-10-26T10:44:43Z</time>
      </trkpt>
      <trkpt lat="43.51036" lon="6.69563">
        <ele>135.9</ele>
        <time>2025-10-26T10:44:44Z</time>
      </trkpt>
      <trkpt lat="43.51035" lon="6.69564">
        <ele>135.9</ele>
        <time>2025-10-26T10:44:45Z</time>
      </trkpt>
      <trkpt lat="43.51034" lon="6.69565">
        <ele>135.9</ele>
        <time>2025-10-26T10:44:46Z</time>
      </trkpt>
      <trkpt lat="43.51033" lon="6.69565">
        <ele>136</ele>
        <time>2025-10-26T10:44:47Z</time>
      </trkpt>
      <trkpt lat="43.51032" lon="6.69567">
        <ele>136</ele>
        <time>2025-10-26T10:44:48Z</time>
      </trkpt>
      <trkpt lat="43.51031" lon="6.69567">
        <ele>136.1</ele>
        <time>2025-10-26T10:44:49Z</time>
      </trkpt>
      <trkpt lat="43.51031" lon="6.69569">
        <ele>136.1</ele>
        <time>2025-10-26T10:44:50Z</time>
      </trkpt>
      <trkpt lat="43.5103" lon="6.6957">
        <ele>136.1</ele>
        <time>2025-10-26T10:44:51Z</time>
      </trkpt>
      <trkpt lat="43.5103" lon="6.69571">
        <ele>136.2</ele>
        <time>2025-10-26T10:44:52Z</time>
      </trkpt>
      <trkpt lat="43.5103" lon="6.69572">
        <ele>136.3</ele>
        <time>2025-10-26T10:44:53Z</time>
      </trkpt>
      <trkpt lat="43.5103" lon="6.69573">
        <ele>136.3</ele>
        <time>2025-10-26T10:44:54Z</time>
      </trkpt>
      <trkpt lat="43.5103" lon="6.69575">
        <ele>136</ele>
        <time>2025-10-26T10:44:55Z</time>
      </trkpt>
      <trkpt lat="43.51031" lon="6.69575">
        <ele>136</ele>
        <time>2025-10-26T10:44:56Z</time>
      </trkpt>
      <trkpt lat="43.51031" lon="6.69576">
        <ele>136</ele>
        <time>2025-10-26T10:44:57Z</time>
      </trkpt>
      <trkpt lat="43.51031" lon="6.69577">
        <ele>135.9</ele>
        <time>2025-10-26T10:44:58Z</time>
      </trkpt>
      <trkpt lat="43.51032" lon="6.69579">
        <ele>136</ele>
        <time>2025-10-26T10:44:59Z</time>
      </trkpt>
      <trkpt lat="43.51033" lon="6.6958">
        <ele>136</ele>
        <time>2025-10-26T10:45:00Z</time>
      </trkpt>
      <trkpt lat="43.51033" lon="6.69582">
        <ele>135.9</ele>
        <time>2025-10-26T10:45:01Z</time>
      </trkpt>
      <trkpt lat="43.51034" lon="6.69583">
        <ele>135.9</ele>
        <time>2025-10-26T10:45:02Z</time>
      </trkpt>
      <trkpt lat="43.51034" lon="6.69584">
        <ele>135.8</ele>
        <time>2025-10-26T10:45:03Z</time>
      </trkpt>
      <trkpt lat="43.51034" lon="6.69586">
        <ele>135.8</ele>
        <time>2025-10-26T10:45:04Z</time>
      </trkpt>
      <trkpt lat="43.51033" lon="6.69587">
        <ele>136</ele>
        <time>2025-10-26T10:45:05Z</time>
      </trkpt>
      <trkpt lat="43.51033" lon="6.69589">
        <ele>135.9</ele>
        <time>2025-10-26T10:45:06Z</time>
      </trkpt>
      <trkpt lat="43.51033" lon="6.69591">
        <ele>136</ele>
        <time>2025-10-26T10:45:07Z</time>
      </trkpt>
      <trkpt lat="43.51033" lon="6.69593">
        <ele>136.1</ele>
        <time>2025-10-26T10:45:08Z</time>
      </trkpt>
      <trkpt lat="43.51035" lon="6.69594">
        <ele>136.2</ele>
        <time>2025-10-26T10:45:09Z</time>
      </trkpt>
      <trkpt lat="43.51036" lon="6.69595">
        <ele>136.2</ele>
        <time>2025-10-26T10:45:10Z</time>
      </trkpt>
      <trkpt lat="43.51037" lon="6.69597">
        <ele>136.2</ele>
        <time>2025-10-26T10:45:11Z</time>
      </trkpt>
      <trkpt lat="43.51037" lon="6.69599">
        <ele>136.2</ele>
        <time>2025-10-26T10:45:12Z</time>
      </trkpt>
      <trkpt lat="43.51038" lon="6.696">
        <ele>136.2</ele>
        <time>2025-10-26T10:45:13Z</time>
      </trkpt>
      <trkpt lat="43.51038" lon="6.69602">
        <ele>136.2</ele>
        <time>2025-10-26T10:45:14Z</time>
      </trkpt>
      <trkpt lat="43.51039" lon="6.69603">
        <ele>136.1</ele>
        <time>2025-10-26T10:45:15Z</time>
      </trkpt>
      <trkpt lat="43.5104" lon="6.69605">
        <ele>136.1</ele>
        <time>2025-10-26T10:45:16Z</time>
      </trkpt>
      <trkpt lat="43.5104" lon="6.69607">
        <ele>136.1</ele>
        <time>2025-10-26T10:45:17Z</time>
      </trkpt>
      <trkpt lat="43.51041" lon="6.69609">
        <ele>136</ele>
        <time>2025-10-26T10:45:18Z</time>
      </trkpt>
      <trkpt lat="43.51041" lon="6.6961">
        <ele>136</ele>
        <time>2025-10-26T10:45:19Z</time>
      </trkpt>
      <trkpt lat="43.51042" lon="6.69612">
        <ele>136.1</ele>
        <time>2025-10-26T10:45:20Z</time>
      </trkpt>
      <trkpt lat="43.51042" lon="6.69613">
        <ele>136.1</ele>
        <time>2025-10-26T10:45:21Z</time>
      </trkpt>
      <trkpt lat="43.51043" lon="6.69614">
        <ele>136.1</ele>
        <time>2025-10-26T10:45:22Z</time>
      </trkpt>
      <trkpt lat="43.51043" lon="6.69616">
        <ele>136.1</ele>
        <time>2025-10-26T10:45:23Z</time>
      </trkpt>
      <trkpt lat="43.51043" lon="6.69617">
        <ele>136.2</ele>
        <time>2025-10-26T10:45:24Z</time>
      </trkpt>
      <trkpt lat="43.51044" lon="6.69619">
        <ele>136.2</ele>
        <time>2025-10-26T10:45:25Z</time>
      </trkpt>
      <trkpt lat="43.51044" lon="6.6962">
        <ele>136.2</ele>
        <time>2025-10-26T10:45:26Z</time>
      </trkpt>
      <trkpt lat="43.51044" lon="6.69622">
        <ele>136.2</ele>
        <time>2025-10-26T10:45:27Z</time>
      </trkpt>
      <trkpt lat="43.51045" lon="6.69623">
        <ele>136.2</ele>
        <time>2025-10-26T10:45:28Z</time>
      </trkpt>
      <trkpt lat="43.51045" lon="6.69624">
        <ele>136.3</ele>
        <time>2025-10-26T10:45:29Z</time>
      </trkpt>
      <trkpt lat="43.51045" lon="6.69625">
        <ele>136.3</ele>
        <time>2025-10-26T10:45:30Z</time>
      </trkpt>
      <trkpt lat="43.51046" lon="6.69627">
        <ele>136.4</ele>
        <time>2025-10-26T10:45:31Z</time>
      </trkpt>
      <trkpt lat="43.51046" lon="6.69627">
        <ele>136.3</ele>
        <time>2025-10-26T10:45:32Z</time>
      </trkpt>
      <trkpt lat="43.51047" lon="6.69628">
        <ele>136.3</ele>
        <time>2025-10-26T10:45:33Z</time>
      </trkpt>
      <trkpt lat="43.51048" lon="6.69629">
        <ele>136.4</ele>
        <time>2025-10-26T10:45:34Z</time>
      </trkpt>
      <trkpt lat="43.51048" lon="6.69631">
        <ele>136.4</ele>
        <time>2025-10-26T10:45:35Z</time>
      </trkpt>
      <trkpt lat="43.51048" lon="6.69632">
        <ele>136.4</ele>
        <time>2025-10-26T10:45:36Z</time>
      </trkpt>
      <trkpt lat="43.51049" lon="6.69634">
        <ele>136.4</ele>
        <time>2025-10-26T10:45:37Z</time>
      </trkpt>
      <trkpt lat="43.51049" lon="6.69635">
        <ele>136.4</ele>
        <time>2025-10-26T10:45:38Z</time>
      </trkpt>
      <trkpt lat="43.51049" lon="6.69636">
        <ele>136.4</ele>
        <time>2025-10-26T10:45:39Z</time>
      </trkpt>
      <trkpt lat="43.5105" lon="6.69638">
        <ele>136.4</ele>
        <time>2025-10-26T10:45:40Z</time>
      </trkpt>
      <trkpt lat="43.5105" lon="6.69639">
        <ele>136.4</ele>
        <time>2025-10-26T10:45:41Z</time>
      </trkpt>
      <trkpt lat="43.5105" lon="6.69641">
        <ele>136.5</ele>
        <time>2025-10-26T10:45:42Z</time>
      </trkpt>
      <trkpt lat="43.51051" lon="6.69642">
        <ele>136.7</ele>
        <time>2025-10-26T10:45:43Z</time>
      </trkpt>
      <trkpt lat="43.51051" lon="6.69643">
        <ele>136.8</ele>
        <time>2025-10-26T10:45:44Z</time>
      </trkpt>
      <trkpt lat="43.51051" lon="6.69645">
        <ele>137</ele>
        <time>2025-10-26T10:45:45Z</time>
      </trkpt>
      <trkpt lat="43.51051" lon="6.69646">
        <ele>137.2</ele>
        <time>2025-10-26T10:45:46Z</time>
      </trkpt>
      <trkpt lat="43.51052" lon="6.69647">
        <ele>137.3</ele>
        <time>2025-10-26T10:45:47Z</time>
      </trkpt>
      <trkpt lat="43.51052" lon="6.69648">
        <ele>137.6</ele>
        <time>2025-10-26T10:45:48Z</time>
      </trkpt>
      <trkpt lat="43.51052" lon="6.69649">
        <ele>137.8</ele>
        <time>2025-10-26T10:45:49Z</time>
      </trkpt>
      <trkpt lat="43.51051" lon="6.69651">
        <ele>138.1</ele>
        <time>2025-10-26T10:45:50Z</time>
      </trkpt>
      <trkpt lat="43.51051" lon="6.69652">
        <ele>138.4</ele>
        <time>2025-10-26T10:45:51Z</time>
      </trkpt>
      <trkpt lat="43.51052" lon="6.69653">
        <ele>138.6</ele>
        <time>2025-10-26T10:45:52Z</time>
      </trkpt>
      <trkpt lat="43.51051" lon="6.69654">
        <ele>138.9</ele>
        <time>2025-10-26T10:45:53Z</time>
      </trkpt>
      <trkpt lat="43.51052" lon="6.69656">
        <ele>139.1</ele>
        <time>2025-10-26T10:45:54Z</time>
      </trkpt>
      <trkpt lat="43.51052" lon="6.69657">
        <ele>139.5</ele>
        <time>2025-10-26T10:45:55Z</time>
      </trkpt>
      <trkpt lat="43.51052" lon="6.69658">
        <ele>139.7</ele>
        <time>2025-10-26T10:45:56Z</time>
      </trkpt>
      <trkpt lat="43.51052" lon="6.69659">
        <ele>140</ele>
        <time>2025-10-26T10:45:57Z</time>
      </trkpt>
      <trkpt lat="43.51051" lon="6.69659">
        <ele>140.2</ele>
        <time>2025-10-26T10:45:58Z</time>
      </trkpt>
      <trkpt lat="43.51052" lon="6.69661">
        <ele>140.4</ele>
        <time>2025-10-26T10:45:59Z</time>
      </trkpt>
      <trkpt lat="43.51052" lon="6.69662">
        <ele>140.6</ele>
        <time>2025-10-26T10:46:00Z</time>
      </trkpt>
      <trkpt lat="43.51052" lon="6.69663">
        <ele>140.8</ele>
        <time>2025-10-26T10:46:01Z</time>
      </trkpt>
      <trkpt lat="43.51052" lon="6.69665">
        <ele>140.9</ele>
        <time>2025-10-26T10:46:02Z</time>
      </trkpt>
      <trkpt lat="43.51053" lon="6.69666">
        <ele>141</ele>
        <time>2025-10-26T10:46:03Z</time>
      </trkpt>
      <trkpt lat="43.51053" lon="6.69667">
        <ele>140.9</ele>
        <time>2025-10-26T10:46:04Z</time>
      </trkpt>
      <trkpt lat="43.51053" lon="6.69668">
        <ele>141</ele>
        <time>2025-10-26T10:46:05Z</time>
      </trkpt>
      <trkpt lat="43.51054" lon="6.69669">
        <ele>141.1</ele>
        <time>2025-10-26T10:46:06Z</time>
      </trkpt>
      <trkpt lat="43.51054" lon="6.6967">
        <ele>141.3</ele>
        <time>2025-10-26T10:46:07Z</time>
      </trkpt>
      <trkpt lat="43.51054" lon="6.6967">
        <ele>141.4</ele>
        <time>2025-10-26T10:46:08Z</time>
      </trkpt>
      <trkpt lat="43.51055" lon="6.69672">
        <ele>141.7</ele>
        <time>2025-10-26T10:46:09Z</time>
      </trkpt>
      <trkpt lat="43.51055" lon="6.69673">
        <ele>141.8</ele>
        <time>2025-10-26T10:46:10Z</time>
      </trkpt>
      <trkpt lat="43.51056" lon="6.69674">
        <ele>142</ele>
        <time>2025-10-26T10:46:11Z</time>
      </trkpt>
      <trkpt lat="43.51057" lon="6.69675">
        <ele>142.2</ele>
        <time>2025-10-26T10:46:12Z</time>
      </trkpt>
      <trkpt lat="43.51057" lon="6.69676">
        <ele>142.5</ele>
        <time>2025-10-26T10:46:13Z</time>
      </trkpt>
      <trkpt lat="43.51058" lon="6.69677">
        <ele>142.7</ele>
        <time>2025-10-26T10:46:14Z</time>
      </trkpt>
      <trkpt lat="43.51058" lon="6.69678">
        <ele>143</ele>
        <time>2025-10-26T10:46:15Z</time>
      </trkpt>
      <trkpt lat="43.51058" lon="6.69679">
        <ele>143.3</ele>
        <time>2025-10-26T10:46:16Z</time>
      </trkpt>
      <trkpt lat="43.51058" lon="6.6968">
        <ele>143.5</ele>
        <time>2025-10-26T10:46:17Z</time>
      </trkpt>
      <trkpt lat="43.51059" lon="6.6968">
        <ele>143.7</ele>
        <time>2025-10-26T10:46:18Z</time>
      </trkpt>
      <trkpt lat="43.51059" lon="6.6968">
        <ele>143.8</ele>
        <time>2025-10-26T10:46:19Z</time>
      </trkpt>
      <trkpt lat="43.51059" lon="6.69681">
        <ele>144</ele>
        <time>2025-10-26T10:46:20Z</time>
      </trkpt>
      <trkpt lat="43.51059" lon="6.69681">
        <ele>144.1</ele>
        <time>2025-10-26T10:46:21Z</time>
      </trkpt>
      <trkpt lat="43.5106" lon="6.69681">
        <ele>144.1</ele>
        <time>2025-10-26T10:46:22Z</time>
      </trkpt>
      <trkpt lat="43.5106" lon="6.69681">
        <ele>144.2</ele>
        <time>2025-10-26T10:46:23Z</time>
      </trkpt>
      <trkpt lat="43.5106" lon="6.69681">
        <ele>144.2</ele>
        <time>2025-10-26T10:46:24Z</time>
      </trkpt>
      <trkpt lat="43.5106" lon="6.69681">
        <ele>144.3</ele>
        <time>2025-10-26T10:46:25Z</time>
      </trkpt>
      <trkpt lat="43.51061" lon="6.69682">
        <ele>144.3</ele>
        <time>2025-10-26T10:46:26Z</time>
      </trkpt>
      <trkpt lat="43.51061" lon="6.69682">
        <ele>144.3</ele>
        <time>2025-10-26T10:46:27Z</time>
      </trkpt>
      <trkpt lat="43.51061" lon="6.69682">
        <ele>144.3</ele>
        <time>2025-10-26T10:46:28Z</time>
      </trkpt>
      <trkpt lat="43.51061" lon="6.69682">
        <ele>144.3</ele>
        <time>2025-10-26T10:46:29Z</time>
      </trkpt>
      <trkpt lat="43.51062" lon="6.69682">
        <ele>144.2</ele>
        <time>2025-10-26T10:46:30Z</time>
      </trkpt>
      <trkpt lat="43.51062" lon="6.69682">
        <ele>144.1</ele>
        <time>2025-10-26T10:46:31Z</time>
      </trkpt>
      <trkpt lat="43.51062" lon="6.69682">
        <ele>144.2</ele>
        <time>2025-10-26T10:46:32Z</time>
      </trkpt>
      <trkpt lat="43.51062" lon="6.69683">
        <ele>144.2</ele>
        <time>2025-10-26T10:46:33Z</time>
      </trkpt>
      <trkpt lat="43.51062" lon="6.69683">
        <ele>144.2</ele>
        <time>2025-10-26T10:46:34Z</time>
      </trkpt>
      <trkpt lat="43.51063" lon="6.69683">
        <ele>144.2</ele>
        <time>2025-10-26T10:46:35Z</time>
      </trkpt>
      <trkpt lat="43.51063" lon="6.69683">
        <ele>144.2</ele>
        <time>2025-10-26T10:46:36Z</time>
      </trkpt>
      <trkpt lat="43.51063" lon="6.69683">
        <ele>144.1</ele>
        <time>2025-10-26T10:46:37Z</time>
      </trkpt>
      <trkpt lat="43.51063" lon="6.69683">
        <ele>144</ele>
        <time>2025-10-26T10:46:38Z</time>
      </trkpt>
      <trkpt lat="43.51063" lon="6.69683">
        <ele>143.9</ele>
        <time>2025-10-26T10:46:39Z</time>
      </trkpt>
      <trkpt lat="43.51063" lon="6.69683">
        <ele>144</ele>
        <time>2025-10-26T10:46:40Z</time>
      </trkpt>
      <trkpt lat="43.51063" lon="6.69683">
        <ele>143.9</ele>
        <time>2025-10-26T10:46:41Z</time>
      </trkpt>
      <trkpt lat="43.51063" lon="6.69683">
        <ele>143.9</ele>
        <time>2025-10-26T10:46:42Z</time>
      </trkpt>
      <trkpt lat="43.51063" lon="6.69683">
        <ele>143.8</ele>
        <time>2025-10-26T10:46:43Z</time>
      </trkpt>
      <trkpt lat="43.51064" lon="6.69683">
        <ele>143.8</ele>
        <time>2025-10-26T10:46:44Z</time>
      </trkpt>
      <trkpt lat="43.51064" lon="6.69683">
        <ele>143.8</ele>
        <time>2025-10-26T10:46:45Z</time>
      </trkpt>
      <trkpt lat="43.51064" lon="6.69683">
        <ele>143.8</ele>
        <time>2025-10-26T10:46:46Z</time>
      </trkpt>
      <trkpt lat="43.51064" lon="6.69683">
        <ele>143.8</ele>
        <time>2025-10-26T10:46:47Z</time>
      </trkpt>
      <trkpt lat="43.51064" lon="6.69683">
        <ele>143.8</ele>
        <time>2025-10-26T10:46:48Z</time>
      </trkpt>
      <trkpt lat="43.51064" lon="6.69684">
        <ele>143.8</ele>
        <time>2025-10-26T10:46:49Z</time>
      </trkpt>
      <trkpt lat="43.51064" lon="6.69684">
        <ele>143.8</ele>
        <time>2025-10-26T10:46:50Z</time>
      </trkpt>
      <trkpt lat="43.51064" lon="6.69685">
        <ele>143.8</ele>
        <time>2025-10-26T10:46:51Z</time>
      </trkpt>
      <trkpt lat="43.51064" lon="6.69686">
        <ele>143.9</ele>
        <time>2025-10-26T10:46:52Z</time>
      </trkpt>
      <trkpt lat="43.51064" lon="6.69686">
        <ele>143.9</ele>
        <time>2025-10-26T10:46:53Z</time>
      </trkpt>
      <trkpt lat="43.51064" lon="6.69687">
        <ele>144</ele>
        <time>2025-10-26T10:46:54Z</time>
      </trkpt>
      <trkpt lat="43.51064" lon="6.69688">
        <ele>143.9</ele>
        <time>2025-10-26T10:46:55Z</time>
      </trkpt>
      <trkpt lat="43.51065" lon="6.69689">
        <ele>143.9</ele>
        <time>2025-10-26T10:46:56Z</time>
      </trkpt>
      <trkpt lat="43.51065" lon="6.6969">
        <ele>144</ele>
        <time>2025-10-26T10:46:57Z</time>
      </trkpt>
      <trkpt lat="43.51065" lon="6.69691">
        <ele>144</ele>
        <time>2025-10-26T10:46:58Z</time>
      </trkpt>
      <trkpt lat="43.51065" lon="6.69692">
        <ele>143.9</ele>
        <time>2025-10-26T10:46:59Z</time>
      </trkpt>
      <trkpt lat="43.51065" lon="6.69693">
        <ele>143.8</ele>
        <time>2025-10-26T10:47:00Z</time>
      </trkpt>
      <trkpt lat="43.51065" lon="6.69694">
        <ele>143.8</ele>
        <time>2025-10-26T10:47:01Z</time>
      </trkpt>
      <trkpt lat="43.51065" lon="6.69695">
        <ele>143.8</ele>
        <time>2025-10-26T10:47:02Z</time>
      </trkpt>
      <trkpt lat="43.51065" lon="6.69697">
        <ele>144</ele>
        <time>2025-10-26T10:47:03Z</time>
      </trkpt>
      <trkpt lat="43.51064" lon="6.69698">
        <ele>144.1</ele>
        <time>2025-10-26T10:47:04Z</time>
      </trkpt>
      <trkpt lat="43.51064" lon="6.69699">
        <ele>144.1</ele>
        <time>2025-10-26T10:47:05Z</time>
      </trkpt>
      <trkpt lat="43.51064" lon="6.697">
        <ele>144.1</ele>
        <time>2025-10-26T10:47:06Z</time>
      </trkpt>
      <trkpt lat="43.51064" lon="6.69701">
        <ele>144.1</ele>
        <time>2025-10-26T10:47:07Z</time>
      </trkpt>
      <trkpt lat="43.51064" lon="6.69702">
        <ele>144.2</ele>
        <time>2025-10-26T10:47:08Z</time>
      </trkpt>
      <trkpt lat="43.51064" lon="6.69703">
        <ele>144.3</ele>
        <time>2025-10-26T10:47:09Z</time>
      </trkpt>
      <trkpt lat="43.51064" lon="6.69704">
        <ele>144.4</ele>
        <time>2025-10-26T10:47:10Z</time>
      </trkpt>
      <trkpt lat="43.51064" lon="6.69706">
        <ele>144.4</ele>
        <time>2025-10-26T10:47:11Z</time>
      </trkpt>
      <trkpt lat="43.51064" lon="6.69707">
        <ele>144.4</ele>
        <time>2025-10-26T10:47:12Z</time>
      </trkpt>
      <trkpt lat="43.51064" lon="6.69708">
        <ele>144.4</ele>
        <time>2025-10-26T10:47:13Z</time>
      </trkpt>
      <trkpt lat="43.51064" lon="6.69709">
        <ele>144.4</ele>
        <time>2025-10-26T10:47:14Z</time>
      </trkpt>
      <trkpt lat="43.51064" lon="6.6971">
        <ele>144.5</ele>
        <time>2025-10-26T10:47:15Z</time>
      </trkpt>
      <trkpt lat="43.51064" lon="6.69712">
        <ele>144.5</ele>
        <time>2025-10-26T10:47:16Z</time>
      </trkpt>
      <trkpt lat="43.51065" lon="6.69713">
        <ele>144.5</ele>
        <time>2025-10-26T10:47:17Z</time>
      </trkpt>
      <trkpt lat="43.51065" lon="6.69715">
        <ele>144.5</ele>
        <time>2025-10-26T10:47:18Z</time>
      </trkpt>
      <trkpt lat="43.51065" lon="6.69716">
        <ele>144.6</ele>
        <time>2025-10-26T10:47:19Z</time>
      </trkpt>
      <trkpt lat="43.51064" lon="6.69717">
        <ele>144.7</ele>
        <time>2025-10-26T10:47:20Z</time>
      </trkpt>
      <trkpt lat="43.51064" lon="6.69719">
        <ele>144.8</ele>
        <time>2025-10-26T10:47:21Z</time>
      </trkpt>
      <trkpt lat="43.51064" lon="6.6972">
        <ele>144.9</ele>
        <time>2025-10-26T10:47:22Z</time>
      </trkpt>
      <trkpt lat="43.51064" lon="6.69721">
        <ele>145</ele>
        <time>2025-10-26T10:47:23Z</time>
      </trkpt>
      <trkpt lat="43.51064" lon="6.69723">
        <ele>145.1</ele>
        <time>2025-10-26T10:47:24Z</time>
      </trkpt>
      <trkpt lat="43.51065" lon="6.69724">
        <ele>145.2</ele>
        <time>2025-10-26T10:47:25Z</time>
      </trkpt>
      <trkpt lat="43.51065" lon="6.69725">
        <ele>145.2</ele>
        <time>2025-10-26T10:47:26Z</time>
      </trkpt>
      <trkpt lat="43.51065" lon="6.69726">
        <ele>145.2</ele>
        <time>2025-10-26T10:47:27Z</time>
      </trkpt>
      <trkpt lat="43.51065" lon="6.69727">
        <ele>145.2</ele>
        <time>2025-10-26T10:47:28Z</time>
      </trkpt>
      <trkpt lat="43.51065" lon="6.69729">
        <ele>145.2</ele>
        <time>2025-10-26T10:47:29Z</time>
      </trkpt>
      <trkpt lat="43.51065" lon="6.69731">
        <ele>145.3</ele>
        <time>2025-10-26T10:47:30Z</time>
      </trkpt>
      <trkpt lat="43.51066" lon="6.69732">
        <ele>145.4</ele>
        <time>2025-10-26T10:47:31Z</time>
      </trkpt>
      <trkpt lat="43.51066" lon="6.69733">
        <ele>145.4</ele>
        <time>2025-10-26T10:47:32Z</time>
      </trkpt>
      <trkpt lat="43.51066" lon="6.69734">
        <ele>145.4</ele>
        <time>2025-10-26T10:47:33Z</time>
      </trkpt>
      <trkpt lat="43.51066" lon="6.69736">
        <ele>145.5</ele>
        <time>2025-10-26T10:47:34Z</time>
      </trkpt>
      <trkpt lat="43.51066" lon="6.69737">
        <ele>145.6</ele>
        <time>2025-10-26T10:47:35Z</time>
      </trkpt>
      <trkpt lat="43.51067" lon="6.69739">
        <ele>145.7</ele>
        <time>2025-10-26T10:47:36Z</time>
      </trkpt>
      <trkpt lat="43.51067" lon="6.6974">
        <ele>145.8</ele>
        <time>2025-10-26T10:47:37Z</time>
      </trkpt>
      <trkpt lat="43.51067" lon="6.69741">
        <ele>145.8</ele>
        <time>2025-10-26T10:47:38Z</time>
      </trkpt>
      <trkpt lat="43.51067" lon="6.69743">
        <ele>145.8</ele>
        <time>2025-10-26T10:47:39Z</time>
      </trkpt>
      <trkpt lat="43.51068" lon="6.69744">
        <ele>145.8</ele>
        <time>2025-10-26T10:47:40Z</time>
      </trkpt>
      <trkpt lat="43.51068" lon="6.69745">
        <ele>145.9</ele>
        <time>2025-10-26T10:47:41Z</time>
      </trkpt>
      <trkpt lat="43.51068" lon="6.69746">
        <ele>146</ele>
        <time>2025-10-26T10:47:42Z</time>
      </trkpt>
      <trkpt lat="43.51068" lon="6.69747">
        <ele>146.1</ele>
        <time>2025-10-26T10:47:43Z</time>
      </trkpt>
      <trkpt lat="43.51068" lon="6.69749">
        <ele>146.2</ele>
        <time>2025-10-26T10:47:44Z</time>
      </trkpt>
      <trkpt lat="43.51069" lon="6.6975">
        <ele>146.3</ele>
        <time>2025-10-26T10:47:45Z</time>
      </trkpt>
      <trkpt lat="43.51069" lon="6.69752">
        <ele>146.4</ele>
        <time>2025-10-26T10:47:46Z</time>
      </trkpt>
      <trkpt lat="43.51069" lon="6.69753">
        <ele>146.4</ele>
        <time>2025-10-26T10:47:47Z</time>
      </trkpt>
      <trkpt lat="43.51069" lon="6.69754">
        <ele>146.4</ele>
        <time>2025-10-26T10:47:48Z</time>
      </trkpt>
      <trkpt lat="43.51069" lon="6.69755">
        <ele>146.5</ele>
        <time>2025-10-26T10:47:49Z</time>
      </trkpt>
      <trkpt lat="43.51069" lon="6.69756">
        <ele>146.5</ele>
        <time>2025-10-26T10:47:50Z</time>
      </trkpt>
      <trkpt lat="43.51069" lon="6.69757">
        <ele>146.5</ele>
        <time>2025-10-26T10:47:51Z</time>
      </trkpt>
      <trkpt lat="43.5107" lon="6.69758">
        <ele>146.4</ele>
        <time>2025-10-26T10:47:52Z</time>
      </trkpt>
      <trkpt lat="43.5107" lon="6.6976">
        <ele>146.4</ele>
        <time>2025-10-26T10:47:53Z</time>
      </trkpt>
      <trkpt lat="43.5107" lon="6.69761">
        <ele>146.4</ele>
        <time>2025-10-26T10:47:54Z</time>
      </trkpt>
      <trkpt lat="43.5107" lon="6.69762">
        <ele>146.4</ele>
        <time>2025-10-26T10:47:55Z</time>
      </trkpt>
      <trkpt lat="43.5107" lon="6.69764">
        <ele>146.4</ele>
        <time>2025-10-26T10:47:56Z</time>
      </trkpt>
      <trkpt lat="43.51071" lon="6.69765">
        <ele>146.5</ele>
        <time>2025-10-26T10:47:57Z</time>
      </trkpt>
      <trkpt lat="43.51071" lon="6.69766">
        <ele>146.6</ele>
        <time>2025-10-26T10:47:58Z</time>
      </trkpt>
      <trkpt lat="43.51071" lon="6.69768">
        <ele>146.6</ele>
        <time>2025-10-26T10:47:59Z</time>
      </trkpt>
      <trkpt lat="43.51071" lon="6.69769">
        <ele>146.7</ele>
        <time>2025-10-26T10:48:00Z</time>
      </trkpt>
      <trkpt lat="43.51071" lon="6.6977">
        <ele>146.7</ele>
        <time>2025-10-26T10:48:01Z</time>
      </trkpt>
      <trkpt lat="43.51071" lon="6.69772">
        <ele>146.8</ele>
        <time>2025-10-26T10:48:02Z</time>
      </trkpt>
      <trkpt lat="43.51071" lon="6.69773">
        <ele>146.9</ele>
        <time>2025-10-26T10:48:03Z</time>
      </trkpt>
      <trkpt lat="43.51071" lon="6.69773">
        <ele>146.9</ele>
        <time>2025-10-26T10:48:04Z</time>
      </trkpt>
      <trkpt lat="43.51071" lon="6.69775">
        <ele>147</ele>
        <time>2025-10-26T10:48:05Z</time>
      </trkpt>
      <trkpt lat="43.51072" lon="6.69776">
        <ele>147.2</ele>
        <time>2025-10-26T10:48:06Z</time>
      </trkpt>
      <trkpt lat="43.51072" lon="6.69777">
        <ele>147.3</ele>
        <time>2025-10-26T10:48:07Z</time>
      </trkpt>
      <trkpt lat="43.51072" lon="6.69779">
        <ele>147.4</ele>
        <time>2025-10-26T10:48:08Z</time>
      </trkpt>
      <trkpt lat="43.51072" lon="6.6978">
        <ele>147.5</ele>
        <time>2025-10-26T10:48:09Z</time>
      </trkpt>
      <trkpt lat="43.51072" lon="6.69781">
        <ele>147.6</ele>
        <time>2025-10-26T10:48:10Z</time>
      </trkpt>
      <trkpt lat="43.51072" lon="6.69782">
        <ele>147.6</ele>
        <time>2025-10-26T10:48:11Z</time>
      </trkpt>
      <trkpt lat="43.51073" lon="6.69784">
        <ele>147.7</ele>
        <time>2025-10-26T10:48:12Z</time>
      </trkpt>
      <trkpt lat="43.51073" lon="6.69785">
        <ele>147.8</ele>
        <time>2025-10-26T10:48:13Z</time>
      </trkpt>
      <trkpt lat="43.51074" lon="6.69786">
        <ele>147.8</ele>
        <time>2025-10-26T10:48:14Z</time>
      </trkpt>
      <trkpt lat="43.51075" lon="6.69787">
        <ele>147.9</ele>
        <time>2025-10-26T10:48:15Z</time>
      </trkpt>
      <trkpt lat="43.51075" lon="6.69788">
        <ele>148</ele>
        <time>2025-10-26T10:48:16Z</time>
      </trkpt>
      <trkpt lat="43.51075" lon="6.69789">
        <ele>148.1</ele>
        <time>2025-10-26T10:48:17Z</time>
      </trkpt>
      <trkpt lat="43.51075" lon="6.6979">
        <ele>148.1</ele>
        <time>2025-10-26T10:48:18Z</time>
      </trkpt>
      <trkpt lat="43.51075" lon="6.69792">
        <ele>148.3</ele>
        <time>2025-10-26T10:48:19Z</time>
      </trkpt>
      <trkpt lat="43.51075" lon="6.69794">
        <ele>148.4</ele>
        <time>2025-10-26T10:48:20Z</time>
      </trkpt>
      <trkpt lat="43.51075" lon="6.69795">
        <ele>148.4</ele>
        <time>2025-10-26T10:48:21Z</time>
      </trkpt>
      <trkpt lat="43.51075" lon="6.69796">
        <ele>148.3</ele>
        <time>2025-10-26T10:48:22Z</time>
      </trkpt>
      <trkpt lat="43.51075" lon="6.69798">
        <ele>148.4</ele>
        <time>2025-10-26T10:48:23Z</time>
      </trkpt>
      <trkpt lat="43.51075" lon="6.698">
        <ele>148.4</ele>
        <time>2025-10-26T10:48:24Z</time>
      </trkpt>
      <trkpt lat="43.51076" lon="6.69802">
        <ele>148.4</ele>
        <time>2025-10-26T10:48:25Z</time>
      </trkpt>
      <trkpt lat="43.51076" lon="6.69803">
        <ele>148.4</ele>
        <time>2025-10-26T10:48:26Z</time>
      </trkpt>
      <trkpt lat="43.51076" lon="6.69805">
        <ele>148.3</ele>
        <time>2025-10-26T10:48:27Z</time>
      </trkpt>
      <trkpt lat="43.51075" lon="6.69806">
        <ele>148.2</ele>
        <time>2025-10-26T10:48:28Z</time>
      </trkpt>
      <trkpt lat="43.51075" lon="6.69808">
        <ele>148.4</ele>
        <time>2025-10-26T10:48:29Z</time>
      </trkpt>
      <trkpt lat="43.51075" lon="6.69809">
        <ele>148.5</ele>
        <time>2025-10-26T10:48:30Z</time>
      </trkpt>
      <trkpt lat="43.51075" lon="6.69809">
        <ele>148.6</ele>
        <time>2025-10-26T10:48:31Z</time>
      </trkpt>
      <trkpt lat="43.51075" lon="6.69811">
        <ele>148.6</ele>
        <time>2025-10-26T10:48:32Z</time>
      </trkpt>
      <trkpt lat="43.51075" lon="6.69812">
        <ele>148.7</ele>
        <time>2025-10-26T10:48:33Z</time>
      </trkpt>
      <trkpt lat="43.51076" lon="6.69814">
        <ele>148.8</ele>
        <time>2025-10-26T10:48:34Z</time>
      </trkpt>
      <trkpt lat="43.51076" lon="6.69815">
        <ele>148.8</ele>
        <time>2025-10-26T10:48:35Z</time>
      </trkpt>
      <trkpt lat="43.51076" lon="6.69817">
        <ele>148.8</ele>
        <time>2025-10-26T10:48:36Z</time>
      </trkpt>
      <trkpt lat="43.51077" lon="6.69819">
        <ele>148.9</ele>
        <time>2025-10-26T10:48:37Z</time>
      </trkpt>
      <trkpt lat="43.51077" lon="6.6982">
        <ele>148.9</ele>
        <time>2025-10-26T10:48:38Z</time>
      </trkpt>
      <trkpt lat="43.51077" lon="6.69822">
        <ele>148.9</ele>
        <time>2025-10-26T10:48:39Z</time>
      </trkpt>
      <trkpt lat="43.51078" lon="6.69824">
        <ele>149</ele>
        <time>2025-10-26T10:48:40Z</time>
      </trkpt>
      <trkpt lat="43.51079" lon="6.69826">
        <ele>149</ele>
        <time>2025-10-26T10:48:41Z</time>
      </trkpt>
      <trkpt lat="43.51079" lon="6.69827">
        <ele>149.2</ele>
        <time>2025-10-26T10:48:42Z</time>
      </trkpt>
      <trkpt lat="43.5108" lon="6.69828">
        <ele>149.3</ele>
        <time>2025-10-26T10:48:43Z</time>
      </trkpt>
      <trkpt lat="43.51081" lon="6.6983">
        <ele>149.5</ele>
        <time>2025-10-26T10:48:44Z</time>
      </trkpt>
      <trkpt lat="43.51081" lon="6.69831">
        <ele>149.6</ele>
        <time>2025-10-26T10:48:45Z</time>
      </trkpt>
      <trkpt lat="43.51082" lon="6.69833">
        <ele>149.7</ele>
        <time>2025-10-26T10:48:46Z</time>
      </trkpt>
      <trkpt lat="43.51082" lon="6.69834">
        <ele>149.9</ele>
        <time>2025-10-26T10:48:47Z</time>
      </trkpt>
      <trkpt lat="43.51083" lon="6.69835">
        <ele>150</ele>
        <time>2025-10-26T10:48:48Z</time>
      </trkpt>
      <trkpt lat="43.51083" lon="6.69836">
        <ele>150.1</ele>
        <time>2025-10-26T10:48:49Z</time>
      </trkpt>
      <trkpt lat="43.51084" lon="6.69836">
        <ele>150.2</ele>
        <time>2025-10-26T10:48:50Z</time>
      </trkpt>
      <trkpt lat="43.51084" lon="6.69836">
        <ele>150.3</ele>
        <time>2025-10-26T10:48:51Z</time>
      </trkpt>
      <trkpt lat="43.51085" lon="6.69836">
        <ele>150.5</ele>
        <time>2025-10-26T10:48:52Z</time>
      </trkpt>
      <trkpt lat="43.51085" lon="6.69836">
        <ele>150.5</ele>
        <time>2025-10-26T10:48:53Z</time>
      </trkpt>
      <trkpt lat="43.51085" lon="6.69836">
        <ele>150.5</ele>
        <time>2025-10-26T10:48:54Z</time>
      </trkpt>
      <trkpt lat="43.51085" lon="6.69836">
        <ele>150.4</ele>
        <time>2025-10-26T10:48:55Z</time>
      </trkpt>
      <trkpt lat="43.51085" lon="6.69836">
        <ele>150.4</ele>
        <time>2025-10-26T10:48:56Z</time>
      </trkpt>
      <trkpt lat="43.51085" lon="6.69836">
        <ele>150.4</ele>
        <time>2025-10-26T10:48:57Z</time>
      </trkpt>
      <trkpt lat="43.51085" lon="6.69836">
        <ele>150.3</ele>
        <time>2025-10-26T10:48:58Z</time>
      </trkpt>
      <trkpt lat="43.51086" lon="6.69837">
        <ele>150.4</ele>
        <time>2025-10-26T10:48:59Z</time>
      </trkpt>
      <trkpt lat="43.51086" lon="6.69837">
        <ele>150.4</ele>
        <time>2025-10-26T10:49:00Z</time>
      </trkpt>
      <trkpt lat="43.51086" lon="6.69837">
        <ele>150.5</ele>
        <time>2025-10-26T10:49:01Z</time>
      </trkpt>
      <trkpt lat="43.51086" lon="6.69838">
        <ele>150.5</ele>
        <time>2025-10-26T10:49:02Z</time>
      </trkpt>
      <trkpt lat="43.51087" lon="6.69838">
        <ele>150.5</ele>
        <time>2025-10-26T10:49:03Z</time>
      </trkpt>
      <trkpt lat="43.51087" lon="6.69838">
        <ele>150.5</ele>
        <time>2025-10-26T10:49:04Z</time>
      </trkpt>
      <trkpt lat="43.51087" lon="6.69838">
        <ele>150.5</ele>
        <time>2025-10-26T10:49:05Z</time>
      </trkpt>
      <trkpt lat="43.51087" lon="6.69838">
        <ele>150.6</ele>
        <time>2025-10-26T10:49:06Z</time>
      </trkpt>
      <trkpt lat="43.51087" lon="6.69838">
        <ele>150.6</ele>
        <time>2025-10-26T10:49:07Z</time>
      </trkpt>
      <trkpt lat="43.51087" lon="6.69838">
        <ele>150.6</ele>
        <time>2025-10-26T10:49:08Z</time>
      </trkpt>
      <trkpt lat="43.51087" lon="6.69838">
        <ele>150.8</ele>
        <time>2025-10-26T10:49:09Z</time>
      </trkpt>
      <trkpt lat="43.51087" lon="6.69838">
        <ele>150.9</ele>
        <time>2025-10-26T10:49:10Z</time>
      </trkpt>
      <trkpt lat="43.51087" lon="6.69839">
        <ele>150.9</ele>
        <time>2025-10-26T10:49:11Z</time>
      </trkpt>
      <trkpt lat="43.51087" lon="6.69838">
        <ele>150.8</ele>
        <time>2025-10-26T10:49:12Z</time>
      </trkpt>
      <trkpt lat="43.51087" lon="6.69839">
        <ele>150.9</ele>
        <time>2025-10-26T10:49:13Z</time>
      </trkpt>
      <trkpt lat="43.51087" lon="6.69839">
        <ele>150.9</ele>
        <time>2025-10-26T10:49:14Z</time>
      </trkpt>
      <trkpt lat="43.51087" lon="6.69839">
        <ele>150.9</ele>
        <time>2025-10-26T10:49:15Z</time>
      </trkpt>
      <trkpt lat="43.51088" lon="6.69839">
        <ele>151</ele>
        <time>2025-10-26T10:49:16Z</time>
      </trkpt>
      <trkpt lat="43.51088" lon="6.69839">
        <ele>151.1</ele>
        <time>2025-10-26T10:49:17Z</time>
      </trkpt>
      <trkpt lat="43.51088" lon="6.69839">
        <ele>151.1</ele>
        <time>2025-10-26T10:49:18Z</time>
      </trkpt>
      <trkpt lat="43.51088" lon="6.69839">
        <ele>151.1</ele>
        <time>2025-10-26T10:49:19Z</time>
      </trkpt>
      <trkpt lat="43.51088" lon="6.69839">
        <ele>151.1</ele>
        <time>2025-10-26T10:49:20Z</time>
      </trkpt>
      <trkpt lat="43.51088" lon="6.69839">
        <ele>151.2</ele>
        <time>2025-10-26T10:49:21Z</time>
      </trkpt>
      <trkpt lat="43.51088" lon="6.69839">
        <ele>151.2</ele>
        <time>2025-10-26T10:49:22Z</time>
      </trkpt>
      <trkpt lat="43.51088" lon="6.69839">
        <ele>151.1</ele>
        <time>2025-10-26T10:49:23Z</time>
      </trkpt>
      <trkpt lat="43.51088" lon="6.69839">
        <ele>151.1</ele>
        <time>2025-10-26T10:49:24Z</time>
      </trkpt>
      <trkpt lat="43.51089" lon="6.69839">
        <ele>151.1</ele>
        <time>2025-10-26T10:49:25Z</time>
      </trkpt>
      <trkpt lat="43.51089" lon="6.69839">
        <ele>151</ele>
        <time>2025-10-26T10:49:26Z</time>
      </trkpt>
      <trkpt lat="43.51089" lon="6.69839">
        <ele>150.9</ele>
        <time>2025-10-26T10:49:27Z</time>
      </trkpt>
      <trkpt lat="43.51089" lon="6.6984">
        <ele>150.9</ele>
        <time>2025-10-26T10:49:28Z</time>
      </trkpt>
      <trkpt lat="43.51089" lon="6.6984">
        <ele>150.8</ele>
        <time>2025-10-26T10:49:29Z</time>
      </trkpt>
      <trkpt lat="43.51089" lon="6.6984">
        <ele>150.7</ele>
        <time>2025-10-26T10:49:30Z</time>
      </trkpt>
      <trkpt lat="43.51089" lon="6.6984">
        <ele>150.7</ele>
        <time>2025-10-26T10:49:31Z</time>
      </trkpt>
      <trkpt lat="43.51089" lon="6.6984">
        <ele>150.7</ele>
        <time>2025-10-26T10:49:32Z</time>
      </trkpt>
      <trkpt lat="43.5109" lon="6.6984">
        <ele>150.7</ele>
        <time>2025-10-26T10:49:33Z</time>
      </trkpt>
      <trkpt lat="43.51089" lon="6.6984">
        <ele>150.8</ele>
        <time>2025-10-26T10:49:34Z</time>
      </trkpt>
      <trkpt lat="43.51089" lon="6.6984">
        <ele>150.8</ele>
        <time>2025-10-26T10:49:35Z</time>
      </trkpt>
      <trkpt lat="43.51089" lon="6.6984">
        <ele>150.9</ele>
        <time>2025-10-26T10:49:36Z</time>
      </trkpt>
      <trkpt lat="43.51089" lon="6.6984">
        <ele>150.9</ele>
        <time>2025-10-26T10:49:37Z</time>
      </trkpt>
      <trkpt lat="43.5109" lon="6.6984">
        <ele>150.9</ele>
        <time>2025-10-26T10:49:38Z</time>
      </trkpt>
      <trkpt lat="43.5109" lon="6.6984">
        <ele>150.9</ele>
        <time>2025-10-26T10:49:39Z</time>
      </trkpt>
      <trkpt lat="43.5109" lon="6.6984">
        <ele>150.9</ele>
        <time>2025-10-26T10:49:40Z</time>
      </trkpt>
      <trkpt lat="43.51089" lon="6.6984">
        <ele>150.9</ele>
        <time>2025-10-26T10:49:41Z</time>
      </trkpt>
      <trkpt lat="43.5109" lon="6.69839">
        <ele>151</ele>
        <time>2025-10-26T10:49:42Z</time>
      </trkpt>
      <trkpt lat="43.5109" lon="6.69839">
        <ele>150.9</ele>
        <time>2025-10-26T10:49:43Z</time>
      </trkpt>
      <trkpt lat="43.5109" lon="6.69839">
        <ele>150.9</ele>
        <time>2025-10-26T10:49:44Z</time>
      </trkpt>
      <trkpt lat="43.5109" lon="6.69839">
        <ele>150.9</ele>
        <time>2025-10-26T10:49:45Z</time>
      </trkpt>
      <trkpt lat="43.5109" lon="6.69839">
        <ele>151</ele>
        <time>2025-10-26T10:49:46Z</time>
      </trkpt>
      <trkpt lat="43.5109" lon="6.69839">
        <ele>151</ele>
        <time>2025-10-26T10:49:47Z</time>
      </trkpt>
      <trkpt lat="43.5109" lon="6.69839">
        <ele>151.1</ele>
        <time>2025-10-26T10:49:48Z</time>
      </trkpt>
      <trkpt lat="43.5109" lon="6.69839">
        <ele>151.2</ele>
        <time>2025-10-26T10:49:49Z</time>
      </trkpt>
      <trkpt lat="43.5109" lon="6.69839">
        <ele>151.1</ele>
        <time>2025-10-26T10:49:50Z</time>
      </trkpt>
      <trkpt lat="43.5109" lon="6.69839">
        <ele>151.2</ele>
        <time>2025-10-26T10:49:51Z</time>
      </trkpt>
      <trkpt lat="43.5109" lon="6.69839">
        <ele>151.2</ele>
        <time>2025-10-26T10:49:52Z</time>
      </trkpt>
      <trkpt lat="43.5109" lon="6.69839">
        <ele>151.3</ele>
        <time>2025-10-26T10:49:53Z</time>
      </trkpt>
      <trkpt lat="43.51091" lon="6.69839">
        <ele>151.4</ele>
        <time>2025-10-26T10:49:54Z</time>
      </trkpt>
      <trkpt lat="43.51091" lon="6.69839">
        <ele>151.5</ele>
        <time>2025-10-26T10:49:55Z</time>
      </trkpt>
      <trkpt lat="43.51091" lon="6.69839">
        <ele>151.5</ele>
        <time>2025-10-26T10:49:56Z</time>
      </trkpt>
      <trkpt lat="43.51091" lon="6.69839">
        <ele>151.5</ele>
        <time>2025-10-26T10:49:57Z</time>
      </trkpt>
      <trkpt lat="43.51091" lon="6.69839">
        <ele>151.5</ele>
        <time>2025-10-26T10:49:58Z</time>
      </trkpt>
      <trkpt lat="43.51091" lon="6.69839">
        <ele>151.4</ele>
        <time>2025-10-26T10:49:59Z</time>
      </trkpt>
      <trkpt lat="43.51091" lon="6.69839">
        <ele>151.3</ele>
        <time>2025-10-26T10:50:00Z</time>
      </trkpt>
      <trkpt lat="43.51091" lon="6.69839">
        <ele>151.3</ele>
        <time>2025-10-26T10:50:01Z</time>
      </trkpt>
      <trkpt lat="43.51091" lon="6.69839">
        <ele>151.4</ele>
        <time>2025-10-26T10:50:02Z</time>
      </trkpt>
      <trkpt lat="43.51091" lon="6.69839">
        <ele>151.4</ele>
        <time>2025-10-26T10:50:03Z</time>
      </trkpt>
      <trkpt lat="43.51091" lon="6.69839">
        <ele>151.4</ele>
        <time>2025-10-26T10:50:04Z</time>
      </trkpt>
      <trkpt lat="43.51091" lon="6.69839">
        <ele>151.5</ele>
        <time>2025-10-26T10:50:05Z</time>
      </trkpt>
      <trkpt lat="43.51091" lon="6.69839">
        <ele>151.4</ele>
        <time>2025-10-26T10:50:06Z</time>
      </trkpt>
      <trkpt lat="43.51091" lon="6.69839">
        <ele>151.3</ele>
        <time>2025-10-26T10:50:07Z</time>
      </trkpt>
      <trkpt lat="43.51091" lon="6.69839">
        <ele>151.5</ele>
        <time>2025-10-26T10:50:08Z</time>
      </trkpt>
      <trkpt lat="43.51091" lon="6.69839">
        <ele>151.5</ele>
        <time>2025-10-26T10:50:09Z</time>
      </trkpt>
      <trkpt lat="43.51091" lon="6.69839">
        <ele>151.5</ele>
        <time>2025-10-26T10:50:10Z</time>
      </trkpt>
      <trkpt lat="43.51091" lon="6.69839">
        <ele>151.5</ele>
        <time>2025-10-26T10:50:11Z</time>
      </trkpt>
      <trkpt lat="43.51091" lon="6.69839">
        <ele>151.4</ele>
        <time>2025-10-26T10:50:12Z</time>
      </trkpt>
      <trkpt lat="43.51091" lon="6.6984">
        <ele>151.3</ele>
        <time>2025-10-26T10:50:13Z</time>
      </trkpt>
      <trkpt lat="43.51091" lon="6.69839">
        <ele>151.3</ele>
        <time>2025-10-26T10:50:14Z</time>
      </trkpt>
      <trkpt lat="43.51091" lon="6.6984">
        <ele>151.3</ele>
        <time>2025-10-26T10:50:15Z</time>
      </trkpt>
      <trkpt lat="43.51091" lon="6.6984">
        <ele>151.2</ele>
        <time>2025-10-26T10:50:16Z</time>
      </trkpt>
      <trkpt lat="43.5109" lon="6.69839">
        <ele>151.2</ele>
        <time>2025-10-26T10:50:17Z</time>
      </trkpt>
      <trkpt lat="43.5109" lon="6.69839">
        <ele>151.2</ele>
        <time>2025-10-26T10:50:18Z</time>
      </trkpt>
      <trkpt lat="43.5109" lon="6.69839">
        <ele>151.3</ele>
        <time>2025-10-26T10:50:19Z</time>
      </trkpt>
      <trkpt lat="43.5109" lon="6.69839">
        <ele>151.3</ele>
        <time>2025-10-26T10:50:20Z</time>
      </trkpt>
      <trkpt lat="43.5109" lon="6.69839">
        <ele>151.3</ele>
        <time>2025-10-26T10:50:21Z</time>
      </trkpt>
      <trkpt lat="43.5109" lon="6.69839">
        <ele>151.3</ele>
        <time>2025-10-26T10:50:22Z</time>
      </trkpt>
      <trkpt lat="43.5109" lon="6.69839">
        <ele>151.3</ele>
        <time>2025-10-26T10:50:23Z</time>
      </trkpt>
      <trkpt lat="43.5109" lon="6.69839">
        <ele>151.3</ele>
        <time>2025-10-26T10:50:24Z</time>
      </trkpt>
      <trkpt lat="43.5109" lon="6.69839">
        <ele>151.2</ele>
        <time>2025-10-26T10:50:25Z</time>
      </trkpt>
      <trkpt lat="43.51091" lon="6.69839">
        <ele>151.2</ele>
        <time>2025-10-26T10:50:26Z</time>
      </trkpt>
      <trkpt lat="43.51091" lon="6.69839">
        <ele>151.1</ele>
        <time>2025-10-26T10:50:27Z</time>
      </trkpt>
      <trkpt lat="43.51091" lon="6.69839">
        <ele>151</ele>
        <time>2025-10-26T10:50:28Z</time>
      </trkpt>
      <trkpt lat="43.51091" lon="6.69839">
        <ele>150.9</ele>
        <time>2025-10-26T10:50:29Z</time>
      </trkpt>
      <trkpt lat="43.51091" lon="6.69839">
        <ele>150.9</ele>
        <time>2025-10-26T10:50:30Z</time>
      </trkpt>
      <trkpt lat="43.51091" lon="6.69839">
        <ele>150.8</ele>
        <time>2025-10-26T10:50:31Z</time>
      </trkpt>
      <trkpt lat="43.51091" lon="6.69839">
        <ele>150.8</ele>
        <time>2025-10-26T10:50:32Z</time>
      </trkpt>
      <trkpt lat="43.51091" lon="6.69839">
        <ele>150.7</ele>
        <time>2025-10-26T10:50:33Z</time>
      </trkpt>
      <trkpt lat="43.51091" lon="6.69839">
        <ele>150.6</ele>
        <time>2025-10-26T10:50:34Z</time>
      </trkpt>
      <trkpt lat="43.51091" lon="6.69839">
        <ele>150.6</ele>
        <time>2025-10-26T10:50:35Z</time>
      </trkpt>
      <trkpt lat="43.51091" lon="6.69839">
        <ele>150.5</ele>
        <time>2025-10-26T10:50:36Z</time>
      </trkpt>
      <trkpt lat="43.51091" lon="6.69839">
        <ele>150.7</ele>
        <time>2025-10-26T10:50:37Z</time>
      </trkpt>
      <trkpt lat="43.51091" lon="6.69839">
        <ele>150.8</ele>
        <time>2025-10-26T10:50:38Z</time>
      </trkpt>
      <trkpt lat="43.51091" lon="6.69839">
        <ele>150.8</ele>
        <time>2025-10-26T10:50:39Z</time>
      </trkpt>
      <trkpt lat="43.51091" lon="6.69839">
        <ele>150.9</ele>
        <time>2025-10-26T10:50:40Z</time>
      </trkpt>
      <trkpt lat="43.51092" lon="6.69839">
        <ele>150.9</ele>
        <time>2025-10-26T10:50:41Z</time>
      </trkpt>
      <trkpt lat="43.51092" lon="6.69839">
        <ele>150.9</ele>
        <time>2025-10-26T10:50:42Z</time>
      </trkpt>
      <trkpt lat="43.51092" lon="6.69839">
        <ele>150.9</ele>
        <time>2025-10-26T10:50:43Z</time>
      </trkpt>
      <trkpt lat="43.51092" lon="6.69839">
        <ele>150.9</ele>
        <time>2025-10-26T10:50:44Z</time>
      </trkpt>
      <trkpt lat="43.51092" lon="6.69839">
        <ele>150.9</ele>
        <time>2025-10-26T10:50:45Z</time>
      </trkpt>
      <trkpt lat="43.51092" lon="6.69839">
        <ele>151.1</ele>
        <time>2025-10-26T10:50:46Z</time>
      </trkpt>
      <trkpt lat="43.51092" lon="6.69839">
        <ele>151.1</ele>
        <time>2025-10-26T10:50:47Z</time>
      </trkpt>
      <trkpt lat="43.51092" lon="6.69839">
        <ele>151.2</ele>
        <time>2025-10-26T10:50:48Z</time>
      </trkpt>
      <trkpt lat="43.51092" lon="6.69839">
        <ele>151.2</ele>
        <time>2025-10-26T10:50:49Z</time>
      </trkpt>
      <trkpt lat="43.51092" lon="6.69839">
        <ele>151.1</ele>
        <time>2025-10-26T10:50:50Z</time>
      </trkpt>
      <trkpt lat="43.51092" lon="6.69839">
        <ele>151</ele>
        <time>2025-10-26T10:50:51Z</time>
      </trkpt>
      <trkpt lat="43.51092" lon="6.6984">
        <ele>151</ele>
        <time>2025-10-26T10:50:52Z</time>
      </trkpt>
      <trkpt lat="43.51092" lon="6.6984">
        <ele>150.9</ele>
        <time>2025-10-26T10:50:53Z</time>
      </trkpt>
      <trkpt lat="43.51092" lon="6.6984">
        <ele>150.8</ele>
        <time>2025-10-26T10:50:54Z</time>
      </trkpt>
      <trkpt lat="43.51092" lon="6.6984">
        <ele>150.8</ele>
        <time>2025-10-26T10:50:55Z</time>
      </trkpt>
      <trkpt lat="43.51092" lon="6.6984">
        <ele>150.7</ele>
        <time>2025-10-26T10:50:56Z</time>
      </trkpt>
      <trkpt lat="43.51092" lon="6.6984">
        <ele>150.7</ele>
        <time>2025-10-26T10:50:57Z</time>
      </trkpt>
      <trkpt lat="43.51092" lon="6.6984">
        <ele>150.7</ele>
        <time>2025-10-26T10:50:58Z</time>
      </trkpt>
      <trkpt lat="43.51092" lon="6.6984">
        <ele>150.6</ele>
        <time>2025-10-26T10:50:59Z</time>
      </trkpt>
      <trkpt lat="43.51092" lon="6.6984">
        <ele>150.7</ele>
        <time>2025-10-26T10:51:00Z</time>
      </trkpt>
      <trkpt lat="43.51092" lon="6.6984">
        <ele>150.7</ele>
        <time>2025-10-26T10:51:01Z</time>
      </trkpt>
      <trkpt lat="43.51092" lon="6.6984">
        <ele>150.8</ele>
        <time>2025-10-26T10:51:02Z</time>
      </trkpt>
      <trkpt lat="43.51092" lon="6.6984">
        <ele>150.7</ele>
        <time>2025-10-26T10:51:03Z</time>
      </trkpt>
      <trkpt lat="43.51092" lon="6.6984">
        <ele>150.8</ele>
        <time>2025-10-26T10:51:04Z</time>
      </trkpt>
      <trkpt lat="43.51092" lon="6.6984">
        <ele>150.8</ele>
        <time>2025-10-26T10:51:05Z</time>
      </trkpt>
      <trkpt lat="43.51092" lon="6.6984">
        <ele>150.8</ele>
        <time>2025-10-26T10:51:06Z</time>
      </trkpt>
      <trkpt lat="43.51092" lon="6.6984">
        <ele>150.8</ele>
        <time>2025-10-26T10:51:07Z</time>
      </trkpt>
      <trkpt lat="43.51092" lon="6.6984">
        <ele>150.8</ele>
        <time>2025-10-26T10:51:08Z</time>
      </trkpt>
      <trkpt lat="43.51092" lon="6.6984">
        <ele>150.9</ele>
        <time>2025-10-26T10:51:09Z</time>
      </trkpt>
      <trkpt lat="43.51092" lon="6.6984">
        <ele>150.8</ele>
        <time>2025-10-26T10:51:10Z</time>
      </trkpt>
      <trkpt lat="43.51092" lon="6.6984">
        <ele>150.8</ele>
        <time>2025-10-26T10:51:11Z</time>
      </trkpt>
      <trkpt lat="43.51092" lon="6.6984">
        <ele>150.8</ele>
        <time>2025-10-26T10:51:12Z</time>
      </trkpt>
      <trkpt lat="43.51092" lon="6.6984">
        <ele>150.7</ele>
        <time>2025-10-26T10:51:13Z</time>
      </trkpt>
      <trkpt lat="43.51092" lon="6.6984">
        <ele>150.6</ele>
        <time>2025-10-26T10:51:14Z</time>
      </trkpt>
      <trkpt lat="43.51092" lon="6.6984">
        <ele>150.5</ele>
        <time>2025-10-26T10:51:15Z</time>
      </trkpt>
      <trkpt lat="43.51092" lon="6.6984">
        <ele>150.4</ele>
        <time>2025-10-26T10:51:16Z</time>
      </trkpt>
      <trkpt lat="43.51092" lon="6.6984">
        <ele>150.3</ele>
        <time>2025-10-26T10:51:17Z</time>
      </trkpt>
      <trkpt lat="43.51092" lon="6.6984">
        <ele>150.2</ele>
        <time>2025-10-26T10:51:18Z</time>
      </trkpt>
      <trkpt lat="43.51092" lon="6.6984">
        <ele>150.3</ele>
        <time>2025-10-26T10:51:19Z</time>
      </trkpt>
      <trkpt lat="43.51092" lon="6.6984">
        <ele>150.3</ele>
        <time>2025-10-26T10:51:20Z</time>
      </trkpt>
      <trkpt lat="43.51092" lon="6.6984">
        <ele>150.4</ele>
        <time>2025-10-26T10:51:21Z</time>
      </trkpt>
      <trkpt lat="43.51092" lon="6.6984">
        <ele>150.5</ele>
        <time>2025-10-26T10:51:22Z</time>
      </trkpt>
      <trkpt lat="43.51092" lon="6.6984">
        <ele>150.5</ele>
        <time>2025-10-26T10:51:23Z</time>
      </trkpt>
      <trkpt lat="43.51092" lon="6.6984">
        <ele>150.5</ele>
        <time>2025-10-26T10:51:24Z</time>
      </trkpt>
      <trkpt lat="43.51092" lon="6.69839">
        <ele>150.6</ele>
        <time>2025-10-26T10:51:25Z</time>
      </trkpt>
      <trkpt lat="43.51092" lon="6.69839">
        <ele>150.6</ele>
        <time>2025-10-26T10:51:26Z</time>
      </trkpt>
      <trkpt lat="43.51092" lon="6.69839">
        <ele>150.6</ele>
        <time>2025-10-26T10:51:27Z</time>
      </trkpt>
      <trkpt lat="43.51092" lon="6.69839">
        <ele>150.6</ele>
        <time>2025-10-26T10:51:28Z</time>
      </trkpt>
      <trkpt lat="43.51092" lon="6.69839">
        <ele>150.6</ele>
        <time>2025-10-26T10:51:29Z</time>
      </trkpt>
      <trkpt lat="43.51092" lon="6.69839">
        <ele>150.6</ele>
        <time>2025-10-26T10:51:30Z</time>
      </trkpt>
      <trkpt lat="43.51092" lon="6.69839">
        <ele>150.6</ele>
        <time>2025-10-26T10:51:31Z</time>
      </trkpt>
      <trkpt lat="43.51092" lon="6.69838">
        <ele>150.6</ele>
        <time>2025-10-26T10:51:32Z</time>
      </trkpt>
      <trkpt lat="43.51091" lon="6.69836">
        <ele>150.6</ele>
        <time>2025-10-26T10:51:33Z</time>
      </trkpt>
      <trkpt lat="43.51091" lon="6.69836">
        <ele>150.6</ele>
        <time>2025-10-26T10:51:34Z</time>
      </trkpt>
      <trkpt lat="43.51092" lon="6.69835">
        <ele>150.7</ele>
        <time>2025-10-26T10:51:35Z</time>
      </trkpt>
      <trkpt lat="43.51092" lon="6.69834">
        <ele>150.9</ele>
        <time>2025-10-26T10:51:36Z</time>
      </trkpt>
      <trkpt lat="43.51092" lon="6.69833">
        <ele>151.1</ele>
        <time>2025-10-26T10:51:37Z</time>
      </trkpt>
      <trkpt lat="43.51092" lon="6.69832">
        <ele>151.3</ele>
        <time>2025-10-26T10:51:38Z</time>
      </trkpt>
      <trkpt lat="43.51093" lon="6.69833">
        <ele>151.5</ele>
        <time>2025-10-26T10:51:39Z</time>
      </trkpt>
      <trkpt lat="43.51093" lon="6.69833">
        <ele>151.8</ele>
        <time>2025-10-26T10:51:40Z</time>
      </trkpt>
      <trkpt lat="43.51093" lon="6.69832">
        <ele>152</ele>
        <time>2025-10-26T10:51:41Z</time>
      </trkpt>
      <trkpt lat="43.51093" lon="6.69832">
        <ele>152.2</ele>
        <time>2025-10-26T10:51:42Z</time>
      </trkpt>
      <trkpt lat="43.51093" lon="6.69832">
        <ele>152.5</ele>
        <time>2025-10-26T10:51:43Z</time>
      </trkpt>
      <trkpt lat="43.51093" lon="6.69832">
        <ele>152.6</ele>
        <time>2025-10-26T10:51:44Z</time>
      </trkpt>
      <trkpt lat="43.51093" lon="6.69832">
        <ele>152.8</ele>
        <time>2025-10-26T10:51:45Z</time>
      </trkpt>
      <trkpt lat="43.51093" lon="6.69832">
        <ele>152.9</ele>
        <time>2025-10-26T10:51:46Z</time>
      </trkpt>
      <trkpt lat="43.51093" lon="6.69831">
        <ele>152.9</ele>
        <time>2025-10-26T10:51:47Z</time>
      </trkpt>
      <trkpt lat="43.51094" lon="6.6983">
        <ele>153.1</ele>
        <time>2025-10-26T10:51:48Z</time>
      </trkpt>
      <trkpt lat="43.51094" lon="6.6983">
        <ele>153.3</ele>
        <time>2025-10-26T10:51:49Z</time>
      </trkpt>
      <trkpt lat="43.51094" lon="6.69829">
        <ele>153.4</ele>
        <time>2025-10-26T10:51:50Z</time>
      </trkpt>
      <trkpt lat="43.51094" lon="6.69829">
        <ele>153.5</ele>
        <time>2025-10-26T10:51:51Z</time>
      </trkpt>
      <trkpt lat="43.51094" lon="6.69828">
        <ele>153.6</ele>
        <time>2025-10-26T10:51:52Z</time>
      </trkpt>
      <trkpt lat="43.51094" lon="6.69828">
        <ele>153.7</ele>
        <time>2025-10-26T10:51:53Z</time>
      </trkpt>
      <trkpt lat="43.51094" lon="6.69827">
        <ele>153.8</ele>
        <time>2025-10-26T10:51:54Z</time>
      </trkpt>
      <trkpt lat="43.51094" lon="6.69825">
        <ele>154</ele>
        <time>2025-10-26T10:51:55Z</time>
      </trkpt>
      <trkpt lat="43.51095" lon="6.69824">
        <ele>154.1</ele>
        <time>2025-10-26T10:51:56Z</time>
      </trkpt>
      <trkpt lat="43.51095" lon="6.69823">
        <ele>154.3</ele>
        <time>2025-10-26T10:51:57Z</time>
      </trkpt>
      <trkpt lat="43.51095" lon="6.69822">
        <ele>154.3</ele>
        <time>2025-10-26T10:51:58Z</time>
      </trkpt>
      <trkpt lat="43.51095" lon="6.69821">
        <ele>154.4</ele>
        <time>2025-10-26T10:51:59Z</time>
      </trkpt>
      <trkpt lat="43.51095" lon="6.6982">
        <ele>154.5</ele>
        <time>2025-10-26T10:52:00Z</time>
      </trkpt>
      <trkpt lat="43.51095" lon="6.69819">
        <ele>154.5</ele>
        <time>2025-10-26T10:52:01Z</time>
      </trkpt>
      <trkpt lat="43.51095" lon="6.69817">
        <ele>154.5</ele>
        <time>2025-10-26T10:52:02Z</time>
      </trkpt>
      <trkpt lat="43.51095" lon="6.69816">
        <ele>154.5</ele>
        <time>2025-10-26T10:52:03Z</time>
      </trkpt>
      <trkpt lat="43.51096" lon="6.69815">
        <ele>154.6</ele>
        <time>2025-10-26T10:52:04Z</time>
      </trkpt>
      <trkpt lat="43.51096" lon="6.69814">
        <ele>154.6</ele>
        <time>2025-10-26T10:52:05Z</time>
      </trkpt>
      <trkpt lat="43.51096" lon="6.69813">
        <ele>154.7</ele>
        <time>2025-10-26T10:52:06Z</time>
      </trkpt>
      <trkpt lat="43.51096" lon="6.69813">
        <ele>154.7</ele>
        <time>2025-10-26T10:52:07Z</time>
      </trkpt>
      <trkpt lat="43.51095" lon="6.69814">
        <ele>154.7</ele>
        <time>2025-10-26T10:52:08Z</time>
      </trkpt>
      <trkpt lat="43.51095" lon="6.69814">
        <ele>154.8</ele>
        <time>2025-10-26T10:52:09Z</time>
      </trkpt>
      <trkpt lat="43.51095" lon="6.69814">
        <ele>154.8</ele>
        <time>2025-10-26T10:52:10Z</time>
      </trkpt>
      <trkpt lat="43.51095" lon="6.69814">
        <ele>154.9</ele>
        <time>2025-10-26T10:52:11Z</time>
      </trkpt>
      <trkpt lat="43.51095" lon="6.69814">
        <ele>154.8</ele>
        <time>2025-10-26T10:52:12Z</time>
      </trkpt>
      <trkpt lat="43.51095" lon="6.69814">
        <ele>154.8</ele>
        <time>2025-10-26T10:52:13Z</time>
      </trkpt>
      <trkpt lat="43.51094" lon="6.69814">
        <ele>154.9</ele>
        <time>2025-10-26T10:52:14Z</time>
      </trkpt>
      <trkpt lat="43.51094" lon="6.69814">
        <ele>154.9</ele>
        <time>2025-10-26T10:52:15Z</time>
      </trkpt>
      <trkpt lat="43.51094" lon="6.69814">
        <ele>154.9</ele>
        <time>2025-10-26T10:52:16Z</time>
      </trkpt>
      <trkpt lat="43.51094" lon="6.69814">
        <ele>154.9</ele>
        <time>2025-10-26T10:52:17Z</time>
      </trkpt>
      <trkpt lat="43.51094" lon="6.69814">
        <ele>154.8</ele>
        <time>2025-10-26T10:52:18Z</time>
      </trkpt>
      <trkpt lat="43.51094" lon="6.69814">
        <ele>154.8</ele>
        <time>2025-10-26T10:52:19Z</time>
      </trkpt>
      <trkpt lat="43.51094" lon="6.69813">
        <ele>154.7</ele>
        <time>2025-10-26T10:52:20Z</time>
      </trkpt>
      <trkpt lat="43.51094" lon="6.69813">
        <ele>154.7</ele>
        <time>2025-10-26T10:52:21Z</time>
      </trkpt>
      <trkpt lat="43.51094" lon="6.69813">
        <ele>154.7</ele>
        <time>2025-10-26T10:52:22Z</time>
      </trkpt>
      <trkpt lat="43.51094" lon="6.69813">
        <ele>154.7</ele>
        <time>2025-10-26T10:52:23Z</time>
      </trkpt>
      <trkpt lat="43.51094" lon="6.69812">
        <ele>154.8</ele>
        <time>2025-10-26T10:52:24Z</time>
      </trkpt>
      <trkpt lat="43.51094" lon="6.69812">
        <ele>154.8</ele>
        <time>2025-10-26T10:52:25Z</time>
      </trkpt>
      <trkpt lat="43.51094" lon="6.69812">
        <ele>154.8</ele>
        <time>2025-10-26T10:52:26Z</time>
      </trkpt>
      <trkpt lat="43.51094" lon="6.69811">
        <ele>154.9</ele>
        <time>2025-10-26T10:52:27Z</time>
      </trkpt>
      <trkpt lat="43.51094" lon="6.69811">
        <ele>155</ele>
        <time>2025-10-26T10:52:28Z</time>
      </trkpt>
      <trkpt lat="43.51093" lon="6.69811">
        <ele>155</ele>
        <time>2025-10-26T10:52:29Z</time>
      </trkpt>
      <trkpt lat="43.51093" lon="6.69811">
        <ele>155</ele>
        <time>2025-10-26T10:52:30Z</time>
      </trkpt>
      <trkpt lat="43.51093" lon="6.69811">
        <ele>155</ele>
        <time>2025-10-26T10:52:31Z</time>
      </trkpt>
      <trkpt lat="43.51093" lon="6.69811">
        <ele>155</ele>
        <time>2025-10-26T10:52:32Z</time>
      </trkpt>
      <trkpt lat="43.51093" lon="6.69811">
        <ele>154.9</ele>
        <time>2025-10-26T10:52:33Z</time>
      </trkpt>
      <trkpt lat="43.51093" lon="6.6981">
        <ele>154.9</ele>
        <time>2025-10-26T10:52:34Z</time>
      </trkpt>
      <trkpt lat="43.51093" lon="6.6981">
        <ele>154.9</ele>
        <time>2025-10-26T10:52:35Z</time>
      </trkpt>
      <trkpt lat="43.51093" lon="6.6981">
        <ele>154.8</ele>
        <time>2025-10-26T10:52:36Z</time>
      </trkpt>
      <trkpt lat="43.51093" lon="6.69809">
        <ele>154.8</ele>
        <time>2025-10-26T10:52:37Z</time>
      </trkpt>
      <trkpt lat="43.51093" lon="6.69809">
        <ele>154.8</ele>
        <time>2025-10-26T10:52:38Z</time>
      </trkpt>
      <trkpt lat="43.51093" lon="6.69809">
        <ele>154.8</ele>
        <time>2025-10-26T10:52:39Z</time>
      </trkpt>
      <trkpt lat="43.51093" lon="6.69808">
        <ele>154.8</ele>
        <time>2025-10-26T10:52:40Z</time>
      </trkpt>
      <trkpt lat="43.51092" lon="6.69808">
        <ele>154.8</ele>
        <time>2025-10-26T10:52:41Z</time>
      </trkpt>
      <trkpt lat="43.51092" lon="6.69808">
        <ele>154.8</ele>
        <time>2025-10-26T10:52:42Z</time>
      </trkpt>
      <trkpt lat="43.51092" lon="6.69808">
        <ele>154.8</ele>
        <time>2025-10-26T10:52:43Z</time>
      </trkpt>
      <trkpt lat="43.51093" lon="6.69807">
        <ele>154.9</ele>
        <time>2025-10-26T10:52:44Z</time>
      </trkpt>
      <trkpt lat="43.51093" lon="6.69806">
        <ele>154.9</ele>
        <time>2025-10-26T10:52:45Z</time>
      </trkpt>
      <trkpt lat="43.51093" lon="6.69805">
        <ele>154.9</ele>
        <time>2025-10-26T10:52:46Z</time>
      </trkpt>
      <trkpt lat="43.51093" lon="6.69804">
        <ele>154.8</ele>
        <time>2025-10-26T10:52:47Z</time>
      </trkpt>
      <trkpt lat="43.51093" lon="6.69803">
        <ele>154.8</ele>
        <time>2025-10-26T10:52:48Z</time>
      </trkpt>
      <trkpt lat="43.51093" lon="6.69802">
        <ele>154.8</ele>
        <time>2025-10-26T10:52:49Z</time>
      </trkpt>
      <trkpt lat="43.51093" lon="6.69802">
        <ele>154.7</ele>
        <time>2025-10-26T10:52:50Z</time>
      </trkpt>
      <trkpt lat="43.51093" lon="6.69802">
        <ele>154.7</ele>
        <time>2025-10-26T10:52:51Z</time>
      </trkpt>
      <trkpt lat="43.51093" lon="6.69802">
        <ele>154.6</ele>
        <time>2025-10-26T10:52:52Z</time>
      </trkpt>
      <trkpt lat="43.51093" lon="6.69802">
        <ele>154.6</ele>
        <time>2025-10-26T10:52:53Z</time>
      </trkpt>
      <trkpt lat="43.51093" lon="6.69802">
        <ele>154.5</ele>
        <time>2025-10-26T10:52:54Z</time>
      </trkpt>
      <trkpt lat="43.51094" lon="6.69802">
        <ele>154.5</ele>
        <time>2025-10-26T10:52:55Z</time>
      </trkpt>
      <trkpt lat="43.51094" lon="6.69802">
        <ele>154.5</ele>
        <time>2025-10-26T10:52:56Z</time>
      </trkpt>
      <trkpt lat="43.51094" lon="6.69801">
        <ele>154.5</ele>
        <time>2025-10-26T10:52:57Z</time>
      </trkpt>
      <trkpt lat="43.51095" lon="6.698">
        <ele>154.6</ele>
        <time>2025-10-26T10:52:58Z</time>
      </trkpt>
      <trkpt lat="43.51095" lon="6.69799">
        <ele>154.6</ele>
        <time>2025-10-26T10:52:59Z</time>
      </trkpt>
      <trkpt lat="43.51096" lon="6.69798">
        <ele>154.8</ele>
        <time>2025-10-26T10:53:00Z</time>
      </trkpt>
      <trkpt lat="43.51096" lon="6.69797">
        <ele>154.9</ele>
        <time>2025-10-26T10:53:01Z</time>
      </trkpt>
      <trkpt lat="43.51097" lon="6.69796">
        <ele>155.1</ele>
        <time>2025-10-26T10:53:02Z</time>
      </trkpt>
      <trkpt lat="43.51097" lon="6.69795">
        <ele>155.2</ele>
        <time>2025-10-26T10:53:03Z</time>
      </trkpt>
      <trkpt lat="43.51098" lon="6.69794">
        <ele>155.3</ele>
        <time>2025-10-26T10:53:04Z</time>
      </trkpt>
      <trkpt lat="43.51098" lon="6.69792">
        <ele>155.4</ele>
        <time>2025-10-26T10:53:05Z</time>
      </trkpt>
      <trkpt lat="43.51098" lon="6.69791">
        <ele>155.5</ele>
        <time>2025-10-26T10:53:06Z</time>
      </trkpt>
      <trkpt lat="43.51099" lon="6.6979">
        <ele>155.6</ele>
        <time>2025-10-26T10:53:07Z</time>
      </trkpt>
      <trkpt lat="43.51099" lon="6.6979">
        <ele>155.7</ele>
        <time>2025-10-26T10:53:08Z</time>
      </trkpt>
      <trkpt lat="43.51099" lon="6.69789">
        <ele>155.8</ele>
        <time>2025-10-26T10:53:09Z</time>
      </trkpt>
      <trkpt lat="43.511" lon="6.69789">
        <ele>155.9</ele>
        <time>2025-10-26T10:53:10Z</time>
      </trkpt>
      <trkpt lat="43.511" lon="6.69789">
        <ele>156.1</ele>
        <time>2025-10-26T10:53:11Z</time>
      </trkpt>
      <trkpt lat="43.511" lon="6.69788">
        <ele>156.3</ele>
        <time>2025-10-26T10:53:12Z</time>
      </trkpt>
      <trkpt lat="43.51101" lon="6.69788">
        <ele>156.4</ele>
        <time>2025-10-26T10:53:13Z</time>
      </trkpt>
      <trkpt lat="43.51101" lon="6.69786">
        <ele>156.5</ele>
        <time>2025-10-26T10:53:14Z</time>
      </trkpt>
      <trkpt lat="43.51101" lon="6.69785">
        <ele>156.7</ele>
        <time>2025-10-26T10:53:15Z</time>
      </trkpt>
      <trkpt lat="43.51102" lon="6.69784">
        <ele>156.8</ele>
        <time>2025-10-26T10:53:16Z</time>
      </trkpt>
      <trkpt lat="43.51102" lon="6.69783">
        <ele>156.8</ele>
        <time>2025-10-26T10:53:17Z</time>
      </trkpt>
      <trkpt lat="43.51103" lon="6.69783">
        <ele>157</ele>
        <time>2025-10-26T10:53:18Z</time>
      </trkpt>
      <trkpt lat="43.51103" lon="6.69782">
        <ele>157.1</ele>
        <time>2025-10-26T10:53:19Z</time>
      </trkpt>
      <trkpt lat="43.51103" lon="6.69781">
        <ele>157.3</ele>
        <time>2025-10-26T10:53:20Z</time>
      </trkpt>
      <trkpt lat="43.51102" lon="6.6978">
        <ele>157.4</ele>
        <time>2025-10-26T10:53:21Z</time>
      </trkpt>
      <trkpt lat="43.51103" lon="6.6978">
        <ele>157.5</ele>
        <time>2025-10-26T10:53:22Z</time>
      </trkpt>
      <trkpt lat="43.51103" lon="6.69779">
        <ele>157.6</ele>
        <time>2025-10-26T10:53:23Z</time>
      </trkpt>
      <trkpt lat="43.51103" lon="6.69778">
        <ele>157.7</ele>
        <time>2025-10-26T10:53:24Z</time>
      </trkpt>
      <trkpt lat="43.51103" lon="6.69777">
        <ele>157.7</ele>
        <time>2025-10-26T10:53:25Z</time>
      </trkpt>
      <trkpt lat="43.51104" lon="6.69776">
        <ele>157.7</ele>
        <time>2025-10-26T10:53:26Z</time>
      </trkpt>
      <trkpt lat="43.51104" lon="6.69775">
        <ele>157.6</ele>
        <time>2025-10-26T10:53:27Z</time>
      </trkpt>
      <trkpt lat="43.51105" lon="6.69773">
        <ele>157.6</ele>
        <time>2025-10-26T10:53:28Z</time>
      </trkpt>
      <trkpt lat="43.51105" lon="6.69772">
        <ele>157.7</ele>
        <time>2025-10-26T10:53:29Z</time>
      </trkpt>
      <trkpt lat="43.51106" lon="6.69771">
        <ele>157.5</ele>
        <time>2025-10-26T10:53:30Z</time>
      </trkpt>
      <trkpt lat="43.51106" lon="6.6977">
        <ele>157.5</ele>
        <time>2025-10-26T10:53:31Z</time>
      </trkpt>
      <trkpt lat="43.51106" lon="6.69769">
        <ele>157.6</ele>
        <time>2025-10-26T10:53:32Z</time>
      </trkpt>
      <trkpt lat="43.51107" lon="6.69768">
        <ele>157.7</ele>
        <time>2025-10-26T10:53:33Z</time>
      </trkpt>
      <trkpt lat="43.51107" lon="6.69767">
        <ele>157.7</ele>
        <time>2025-10-26T10:53:34Z</time>
      </trkpt>
      <trkpt lat="43.51107" lon="6.69766">
        <ele>157.8</ele>
        <time>2025-10-26T10:53:35Z</time>
      </trkpt>
      <trkpt lat="43.51107" lon="6.69766">
        <ele>157.8</ele>
        <time>2025-10-26T10:53:36Z</time>
      </trkpt>
      <trkpt lat="43.51107" lon="6.69766">
        <ele>157.9</ele>
        <time>2025-10-26T10:53:37Z</time>
      </trkpt>
      <trkpt lat="43.51107" lon="6.69766">
        <ele>157.9</ele>
        <time>2025-10-26T10:53:38Z</time>
      </trkpt>
      <trkpt lat="43.51107" lon="6.69765">
        <ele>157.8</ele>
        <time>2025-10-26T10:53:39Z</time>
      </trkpt>
      <trkpt lat="43.51108" lon="6.69764">
        <ele>157.8</ele>
        <time>2025-10-26T10:53:40Z</time>
      </trkpt>
      <trkpt lat="43.51108" lon="6.69763">
        <ele>157.8</ele>
        <time>2025-10-26T10:53:41Z</time>
      </trkpt>
      <trkpt lat="43.51108" lon="6.69762">
        <ele>157.9</ele>
        <time>2025-10-26T10:53:42Z</time>
      </trkpt>
      <trkpt lat="43.51109" lon="6.69761">
        <ele>157.9</ele>
        <time>2025-10-26T10:53:43Z</time>
      </trkpt>
      <trkpt lat="43.51109" lon="6.6976">
        <ele>157.9</ele>
        <time>2025-10-26T10:53:44Z</time>
      </trkpt>
      <trkpt lat="43.5111" lon="6.69759">
        <ele>158</ele>
        <time>2025-10-26T10:53:45Z</time>
      </trkpt>
      <trkpt lat="43.5111" lon="6.69758">
        <ele>157.9</ele>
        <time>2025-10-26T10:53:46Z</time>
      </trkpt>
      <trkpt lat="43.5111" lon="6.69756">
        <ele>157.9</ele>
        <time>2025-10-26T10:53:47Z</time>
      </trkpt>
      <trkpt lat="43.5111" lon="6.69755">
        <ele>158</ele>
        <time>2025-10-26T10:53:48Z</time>
      </trkpt>
      <trkpt lat="43.5111" lon="6.69754">
        <ele>158</ele>
        <time>2025-10-26T10:53:49Z</time>
      </trkpt>
      <trkpt lat="43.5111" lon="6.69753">
        <ele>158</ele>
        <time>2025-10-26T10:53:50Z</time>
      </trkpt>
      <trkpt lat="43.5111" lon="6.69752">
        <ele>157.9</ele>
        <time>2025-10-26T10:53:51Z</time>
      </trkpt>
      <trkpt lat="43.51111" lon="6.69753">
        <ele>157.9</ele>
        <time>2025-10-26T10:53:52Z</time>
      </trkpt>
      <trkpt lat="43.51111" lon="6.69752">
        <ele>157.8</ele>
        <time>2025-10-26T10:53:53Z</time>
      </trkpt>
      <trkpt lat="43.51111" lon="6.69751">
        <ele>158</ele>
        <time>2025-10-26T10:53:54Z</time>
      </trkpt>
      <trkpt lat="43.51111" lon="6.6975">
        <ele>158</ele>
        <time>2025-10-26T10:53:55Z</time>
      </trkpt>
      <trkpt lat="43.51112" lon="6.69749">
        <ele>158.1</ele>
        <time>2025-10-26T10:53:56Z</time>
      </trkpt>
      <trkpt lat="43.51111" lon="6.69747">
        <ele>158.1</ele>
        <time>2025-10-26T10:53:57Z</time>
      </trkpt>
      <trkpt lat="43.51112" lon="6.69746">
        <ele>158.2</ele>
        <time>2025-10-26T10:53:58Z</time>
      </trkpt>
      <trkpt lat="43.51112" lon="6.69744">
        <ele>158.2</ele>
        <time>2025-10-26T10:53:59Z</time>
      </trkpt>
      <trkpt lat="43.51112" lon="6.69743">
        <ele>158.3</ele>
        <time>2025-10-26T10:54:00Z</time>
      </trkpt>
      <trkpt lat="43.51112" lon="6.69741">
        <ele>158.3</ele>
        <time>2025-10-26T10:54:01Z</time>
      </trkpt>
      <trkpt lat="43.51112" lon="6.6974">
        <ele>158.3</ele>
        <time>2025-10-26T10:54:02Z</time>
      </trkpt>
      <trkpt lat="43.51113" lon="6.69738">
        <ele>158.2</ele>
        <time>2025-10-26T10:54:03Z</time>
      </trkpt>
      <trkpt lat="43.51113" lon="6.69737">
        <ele>158.2</ele>
        <time>2025-10-26T10:54:04Z</time>
      </trkpt>
      <trkpt lat="43.51113" lon="6.69736">
        <ele>158.2</ele>
        <time>2025-10-26T10:54:05Z</time>
      </trkpt>
      <trkpt lat="43.51114" lon="6.69735">
        <ele>158.2</ele>
        <time>2025-10-26T10:54:06Z</time>
      </trkpt>
      <trkpt lat="43.51114" lon="6.69734">
        <ele>158.2</ele>
        <time>2025-10-26T10:54:07Z</time>
      </trkpt>
      <trkpt lat="43.51114" lon="6.69733">
        <ele>158.2</ele>
        <time>2025-10-26T10:54:08Z</time>
      </trkpt>
      <trkpt lat="43.51114" lon="6.69731">
        <ele>158.3</ele>
        <time>2025-10-26T10:54:09Z</time>
      </trkpt>
      <trkpt lat="43.51115" lon="6.6973">
        <ele>158.3</ele>
        <time>2025-10-26T10:54:10Z</time>
      </trkpt>
      <trkpt lat="43.51115" lon="6.69729">
        <ele>158.4</ele>
        <time>2025-10-26T10:54:11Z</time>
      </trkpt>
      <trkpt lat="43.51116" lon="6.69728">
        <ele>158.4</ele>
        <time>2025-10-26T10:54:12Z</time>
      </trkpt>
      <trkpt lat="43.51116" lon="6.69726">
        <ele>158.5</ele>
        <time>2025-10-26T10:54:13Z</time>
      </trkpt>
      <trkpt lat="43.51117" lon="6.69726">
        <ele>158.5</ele>
        <time>2025-10-26T10:54:14Z</time>
      </trkpt>
      <trkpt lat="43.51117" lon="6.69726">
        <ele>158.5</ele>
        <time>2025-10-26T10:54:15Z</time>
      </trkpt>
      <trkpt lat="43.51117" lon="6.69725">
        <ele>158.6</ele>
        <time>2025-10-26T10:54:16Z</time>
      </trkpt>
      <trkpt lat="43.51118" lon="6.69723">
        <ele>158.6</ele>
        <time>2025-10-26T10:54:17Z</time>
      </trkpt>
      <trkpt lat="43.51118" lon="6.69722">
        <ele>158.5</ele>
        <time>2025-10-26T10:54:18Z</time>
      </trkpt>
      <trkpt lat="43.51118" lon="6.6972">
        <ele>158.4</ele>
        <time>2025-10-26T10:54:19Z</time>
      </trkpt>
      <trkpt lat="43.51118" lon="6.6972">
        <ele>158.3</ele>
        <time>2025-10-26T10:54:20Z</time>
      </trkpt>
      <trkpt lat="43.51119" lon="6.69718">
        <ele>158.1</ele>
        <time>2025-10-26T10:54:21Z</time>
      </trkpt>
      <trkpt lat="43.51119" lon="6.69717">
        <ele>158</ele>
        <time>2025-10-26T10:54:22Z</time>
      </trkpt>
      <trkpt lat="43.51119" lon="6.69716">
        <ele>157.9</ele>
        <time>2025-10-26T10:54:23Z</time>
      </trkpt>
      <trkpt lat="43.5112" lon="6.69714">
        <ele>157.8</ele>
        <time>2025-10-26T10:54:24Z</time>
      </trkpt>
      <trkpt lat="43.51119" lon="6.69714">
        <ele>157.8</ele>
        <time>2025-10-26T10:54:25Z</time>
      </trkpt>
      <trkpt lat="43.51119" lon="6.69713">
        <ele>157.8</ele>
        <time>2025-10-26T10:54:26Z</time>
      </trkpt>
      <trkpt lat="43.51119" lon="6.69713">
        <ele>157.9</ele>
        <time>2025-10-26T10:54:27Z</time>
      </trkpt>
      <trkpt lat="43.51118" lon="6.69713">
        <ele>157.9</ele>
        <time>2025-10-26T10:54:28Z</time>
      </trkpt>
      <trkpt lat="43.51119" lon="6.69712">
        <ele>157.8</ele>
        <time>2025-10-26T10:54:29Z</time>
      </trkpt>
      <trkpt lat="43.51119" lon="6.69711">
        <ele>157.8</ele>
        <time>2025-10-26T10:54:30Z</time>
      </trkpt>
      <trkpt lat="43.51119" lon="6.6971">
        <ele>157.7</ele>
        <time>2025-10-26T10:54:31Z</time>
      </trkpt>
      <trkpt lat="43.51119" lon="6.69708">
        <ele>157.8</ele>
        <time>2025-10-26T10:54:32Z</time>
      </trkpt>
      <trkpt lat="43.51119" lon="6.69707">
        <ele>157.8</ele>
        <time>2025-10-26T10:54:33Z</time>
      </trkpt>
      <trkpt lat="43.51119" lon="6.69706">
        <ele>157.9</ele>
        <time>2025-10-26T10:54:34Z</time>
      </trkpt>
      <trkpt lat="43.5112" lon="6.69705">
        <ele>158</ele>
        <time>2025-10-26T10:54:35Z</time>
      </trkpt>
      <trkpt lat="43.5112" lon="6.69704">
        <ele>158.2</ele>
        <time>2025-10-26T10:54:36Z</time>
      </trkpt>
      <trkpt lat="43.5112" lon="6.69703">
        <ele>158.4</ele>
        <time>2025-10-26T10:54:37Z</time>
      </trkpt>
      <trkpt lat="43.5112" lon="6.69702">
        <ele>158.7</ele>
        <time>2025-10-26T10:54:38Z</time>
      </trkpt>
      <trkpt lat="43.51121" lon="6.697">
        <ele>159</ele>
        <time>2025-10-26T10:54:39Z</time>
      </trkpt>
      <trkpt lat="43.51121" lon="6.69699">
        <ele>159</ele>
        <time>2025-10-26T10:54:40Z</time>
      </trkpt>
      <trkpt lat="43.51121" lon="6.69698">
        <ele>159.2</ele>
        <time>2025-10-26T10:54:41Z</time>
      </trkpt>
      <trkpt lat="43.51122" lon="6.69697">
        <ele>159.3</ele>
        <time>2025-10-26T10:54:42Z</time>
      </trkpt>
      <trkpt lat="43.51122" lon="6.69696">
        <ele>159.5</ele>
        <time>2025-10-26T10:54:43Z</time>
      </trkpt>
      <trkpt lat="43.51123" lon="6.69694">
        <ele>159.7</ele>
        <time>2025-10-26T10:54:44Z</time>
      </trkpt>
      <trkpt lat="43.51123" lon="6.69693">
        <ele>160</ele>
        <time>2025-10-26T10:54:45Z</time>
      </trkpt>
      <trkpt lat="43.51123" lon="6.69692">
        <ele>160.2</ele>
        <time>2025-10-26T10:54:46Z</time>
      </trkpt>
      <trkpt lat="43.51124" lon="6.69691">
        <ele>160.3</ele>
        <time>2025-10-26T10:54:47Z</time>
      </trkpt>
      <trkpt lat="43.51124" lon="6.6969">
        <ele>160.5</ele>
        <time>2025-10-26T10:54:48Z</time>
      </trkpt>
      <trkpt lat="43.51125" lon="6.69688">
        <ele>160.6</ele>
        <time>2025-10-26T10:54:49Z</time>
      </trkpt>
      <trkpt lat="43.51125" lon="6.69687">
        <ele>160.7</ele>
        <time>2025-10-26T10:54:50Z</time>
      </trkpt>
      <trkpt lat="43.51125" lon="6.69687">
        <ele>160.8</ele>
        <time>2025-10-26T10:54:51Z</time>
      </trkpt>
      <trkpt lat="43.51126" lon="6.69686">
        <ele>160.9</ele>
        <time>2025-10-26T10:54:52Z</time>
      </trkpt>
      <trkpt lat="43.51126" lon="6.69685">
        <ele>161</ele>
        <time>2025-10-26T10:54:53Z</time>
      </trkpt>
      <trkpt lat="43.51125" lon="6.69685">
        <ele>161.1</ele>
        <time>2025-10-26T10:54:54Z</time>
      </trkpt>
      <trkpt lat="43.51126" lon="6.69684">
        <ele>161.2</ele>
        <time>2025-10-26T10:54:55Z</time>
      </trkpt>
      <trkpt lat="43.51126" lon="6.69684">
        <ele>161.3</ele>
        <time>2025-10-26T10:54:56Z</time>
      </trkpt>
      <trkpt lat="43.51126" lon="6.69684">
        <ele>161.4</ele>
        <time>2025-10-26T10:54:57Z</time>
      </trkpt>
      <trkpt lat="43.51126" lon="6.69683">
        <ele>161.4</ele>
        <time>2025-10-26T10:54:58Z</time>
      </trkpt>
      <trkpt lat="43.51126" lon="6.69683">
        <ele>161.5</ele>
        <time>2025-10-26T10:54:59Z</time>
      </trkpt>
      <trkpt lat="43.51127" lon="6.69683">
        <ele>161.5</ele>
        <time>2025-10-26T10:55:00Z</time>
      </trkpt>
      <trkpt lat="43.51127" lon="6.69682">
        <ele>161.6</ele>
        <time>2025-10-26T10:55:01Z</time>
      </trkpt>
      <trkpt lat="43.51127" lon="6.69682">
        <ele>161.5</ele>
        <time>2025-10-26T10:55:02Z</time>
      </trkpt>
      <trkpt lat="43.51127" lon="6.69682">
        <ele>161.4</ele>
        <time>2025-10-26T10:55:03Z</time>
      </trkpt>
      <trkpt lat="43.51127" lon="6.69681">
        <ele>161.4</ele>
        <time>2025-10-26T10:55:04Z</time>
      </trkpt>
      <trkpt lat="43.51127" lon="6.6968">
        <ele>161.4</ele>
        <time>2025-10-26T10:55:05Z</time>
      </trkpt>
      <trkpt lat="43.51128" lon="6.69679">
        <ele>161.5</ele>
        <time>2025-10-26T10:55:06Z</time>
      </trkpt>
      <trkpt lat="43.51128" lon="6.69678">
        <ele>161.6</ele>
        <time>2025-10-26T10:55:07Z</time>
      </trkpt>
      <trkpt lat="43.51129" lon="6.69677">
        <ele>161.8</ele>
        <time>2025-10-26T10:55:08Z</time>
      </trkpt>
      <trkpt lat="43.51129" lon="6.69676">
        <ele>161.8</ele>
        <time>2025-10-26T10:55:09Z</time>
      </trkpt>
      <trkpt lat="43.51129" lon="6.69674">
        <ele>162</ele>
        <time>2025-10-26T10:55:10Z</time>
      </trkpt>
      <trkpt lat="43.51129" lon="6.69673">
        <ele>162.3</ele>
        <time>2025-10-26T10:55:11Z</time>
      </trkpt>
      <trkpt lat="43.51129" lon="6.69671">
        <ele>162.5</ele>
        <time>2025-10-26T10:55:12Z</time>
      </trkpt>
      <trkpt lat="43.51129" lon="6.6967">
        <ele>162.7</ele>
        <time>2025-10-26T10:55:13Z</time>
      </trkpt>
      <trkpt lat="43.5113" lon="6.69669">
        <ele>162.9</ele>
        <time>2025-10-26T10:55:14Z</time>
      </trkpt>
      <trkpt lat="43.5113" lon="6.69668">
        <ele>163</ele>
        <time>2025-10-26T10:55:15Z</time>
      </trkpt>
      <trkpt lat="43.5113" lon="6.69667">
        <ele>163.1</ele>
        <time>2025-10-26T10:55:16Z</time>
      </trkpt>
      <trkpt lat="43.5113" lon="6.69666">
        <ele>163.2</ele>
        <time>2025-10-26T10:55:17Z</time>
      </trkpt>
      <trkpt lat="43.5113" lon="6.69665">
        <ele>163.3</ele>
        <time>2025-10-26T10:55:18Z</time>
      </trkpt>
      <trkpt lat="43.5113" lon="6.69664">
        <ele>163.4</ele>
        <time>2025-10-26T10:55:19Z</time>
      </trkpt>
      <trkpt lat="43.5113" lon="6.69663">
        <ele>163.5</ele>
        <time>2025-10-26T10:55:20Z</time>
      </trkpt>
      <trkpt lat="43.51131" lon="6.69662">
        <ele>163.6</ele>
        <time>2025-10-26T10:55:21Z</time>
      </trkpt>
      <trkpt lat="43.51131" lon="6.69661">
        <ele>163.7</ele>
        <time>2025-10-26T10:55:22Z</time>
      </trkpt>
      <trkpt lat="43.51131" lon="6.6966">
        <ele>163.8</ele>
        <time>2025-10-26T10:55:23Z</time>
      </trkpt>
      <trkpt lat="43.51131" lon="6.69659">
        <ele>163.9</ele>
        <time>2025-10-26T10:55:24Z</time>
      </trkpt>
      <trkpt lat="43.51132" lon="6.69658">
        <ele>163.9</ele>
        <time>2025-10-26T10:55:25Z</time>
      </trkpt>
      <trkpt lat="43.51132" lon="6.69656">
        <ele>164</ele>
        <time>2025-10-26T10:55:26Z</time>
      </trkpt>
      <trkpt lat="43.51132" lon="6.69655">
        <ele>164</ele>
        <time>2025-10-26T10:55:27Z</time>
      </trkpt>
      <trkpt lat="43.51133" lon="6.69654">
        <ele>164</ele>
        <time>2025-10-26T10:55:28Z</time>
      </trkpt>
      <trkpt lat="43.51133" lon="6.69653">
        <ele>164</ele>
        <time>2025-10-26T10:55:29Z</time>
      </trkpt>
      <trkpt lat="43.51133" lon="6.69651">
        <ele>164</ele>
        <time>2025-10-26T10:55:30Z</time>
      </trkpt>
      <trkpt lat="43.51133" lon="6.6965">
        <ele>164</ele>
        <time>2025-10-26T10:55:31Z</time>
      </trkpt>
      <trkpt lat="43.51133" lon="6.69649">
        <ele>164.2</ele>
        <time>2025-10-26T10:55:32Z</time>
      </trkpt>
      <trkpt lat="43.51134" lon="6.69647">
        <ele>164.4</ele>
        <time>2025-10-26T10:55:33Z</time>
      </trkpt>
      <trkpt lat="43.51134" lon="6.69646">
        <ele>164.5</ele>
        <time>2025-10-26T10:55:34Z</time>
      </trkpt>
      <trkpt lat="43.51134" lon="6.69645">
        <ele>164.6</ele>
        <time>2025-10-26T10:55:35Z</time>
      </trkpt>
      <trkpt lat="43.51135" lon="6.69644">
        <ele>164.7</ele>
        <time>2025-10-26T10:55:36Z</time>
      </trkpt>
      <trkpt lat="43.51135" lon="6.69643">
        <ele>164.8</ele>
        <time>2025-10-26T10:55:37Z</time>
      </trkpt>
      <trkpt lat="43.51135" lon="6.69641">
        <ele>164.9</ele>
        <time>2025-10-26T10:55:38Z</time>
      </trkpt>
      <trkpt lat="43.51136" lon="6.6964">
        <ele>165</ele>
        <time>2025-10-26T10:55:39Z</time>
      </trkpt>
      <trkpt lat="43.51136" lon="6.69639">
        <ele>165.1</ele>
        <time>2025-10-26T10:55:40Z</time>
      </trkpt>
      <trkpt lat="43.51137" lon="6.69637">
        <ele>165.1</ele>
        <time>2025-10-26T10:55:41Z</time>
      </trkpt>
      <trkpt lat="43.51137" lon="6.69636">
        <ele>165</ele>
        <time>2025-10-26T10:55:42Z</time>
      </trkpt>
      <trkpt lat="43.51136" lon="6.69635">
        <ele>165</ele>
        <time>2025-10-26T10:55:43Z</time>
      </trkpt>
      <trkpt lat="43.51136" lon="6.69634">
        <ele>164.9</ele>
        <time>2025-10-26T10:55:44Z</time>
      </trkpt>
      <trkpt lat="43.51137" lon="6.69632">
        <ele>164.7</ele>
        <time>2025-10-26T10:55:45Z</time>
      </trkpt>
      <trkpt lat="43.51137" lon="6.69631">
        <ele>164.6</ele>
        <time>2025-10-26T10:55:46Z</time>
      </trkpt>
      <trkpt lat="43.51137" lon="6.6963">
        <ele>164.5</ele>
        <time>2025-10-26T10:55:47Z</time>
      </trkpt>
      <trkpt lat="43.51137" lon="6.69629">
        <ele>164.4</ele>
        <time>2025-10-26T10:55:48Z</time>
      </trkpt>
      <trkpt lat="43.51137" lon="6.69628">
        <ele>164.4</ele>
        <time>2025-10-26T10:55:49Z</time>
      </trkpt>
      <trkpt lat="43.51138" lon="6.69628">
        <ele>164.3</ele>
        <time>2025-10-26T10:55:50Z</time>
      </trkpt>
      <trkpt lat="43.51137" lon="6.69628">
        <ele>164.3</ele>
        <time>2025-10-26T10:55:51Z</time>
      </trkpt>
      <trkpt lat="43.51137" lon="6.69628">
        <ele>164.4</ele>
        <time>2025-10-26T10:55:52Z</time>
      </trkpt>
      <trkpt lat="43.51138" lon="6.69628">
        <ele>164.6</ele>
        <time>2025-10-26T10:55:53Z</time>
      </trkpt>
      <trkpt lat="43.51139" lon="6.69628">
        <ele>164.8</ele>
        <time>2025-10-26T10:55:54Z</time>
      </trkpt>
      <trkpt lat="43.51139" lon="6.69627">
        <ele>165</ele>
        <time>2025-10-26T10:55:55Z</time>
      </trkpt>
      <trkpt lat="43.51139" lon="6.69627">
        <ele>165.2</ele>
        <time>2025-10-26T10:55:56Z</time>
      </trkpt>
      <trkpt lat="43.5114" lon="6.69627">
        <ele>165.5</ele>
        <time>2025-10-26T10:55:57Z</time>
      </trkpt>
      <trkpt lat="43.5114" lon="6.69626">
        <ele>165.7</ele>
        <time>2025-10-26T10:55:58Z</time>
      </trkpt>
      <trkpt lat="43.51141" lon="6.69626">
        <ele>165.8</ele>
        <time>2025-10-26T10:55:59Z</time>
      </trkpt>
      <trkpt lat="43.51141" lon="6.69626">
        <ele>166.1</ele>
        <time>2025-10-26T10:56:00Z</time>
      </trkpt>
      <trkpt lat="43.51142" lon="6.69626">
        <ele>166.3</ele>
        <time>2025-10-26T10:56:01Z</time>
      </trkpt>
      <trkpt lat="43.51142" lon="6.69625">
        <ele>166.5</ele>
        <time>2025-10-26T10:56:02Z</time>
      </trkpt>
      <trkpt lat="43.51142" lon="6.69624">
        <ele>166.9</ele>
        <time>2025-10-26T10:56:03Z</time>
      </trkpt>
      <trkpt lat="43.51142" lon="6.69624">
        <ele>167.1</ele>
        <time>2025-10-26T10:56:04Z</time>
      </trkpt>
      <trkpt lat="43.51143" lon="6.69623">
        <ele>167.3</ele>
        <time>2025-10-26T10:56:05Z</time>
      </trkpt>
      <trkpt lat="43.51143" lon="6.69622">
        <ele>167.5</ele>
        <time>2025-10-26T10:56:06Z</time>
      </trkpt>
      <trkpt lat="43.51143" lon="6.69621">
        <ele>167.6</ele>
        <time>2025-10-26T10:56:07Z</time>
      </trkpt>
      <trkpt lat="43.51143" lon="6.6962">
        <ele>167.8</ele>
        <time>2025-10-26T10:56:08Z</time>
      </trkpt>
      <trkpt lat="43.51144" lon="6.69619">
        <ele>167.9</ele>
        <time>2025-10-26T10:56:09Z</time>
      </trkpt>
      <trkpt lat="43.51144" lon="6.69618">
        <ele>168</ele>
        <time>2025-10-26T10:56:10Z</time>
      </trkpt>
      <trkpt lat="43.51144" lon="6.69618">
        <ele>168.1</ele>
        <time>2025-10-26T10:56:11Z</time>
      </trkpt>
      <trkpt lat="43.51144" lon="6.69618">
        <ele>168.3</ele>
        <time>2025-10-26T10:56:12Z</time>
      </trkpt>
      <trkpt lat="43.51144" lon="6.69617">
        <ele>168.3</ele>
        <time>2025-10-26T10:56:13Z</time>
      </trkpt>
      <trkpt lat="43.51145" lon="6.69618">
        <ele>168.4</ele>
        <time>2025-10-26T10:56:14Z</time>
      </trkpt>
      <trkpt lat="43.51145" lon="6.69618">
        <ele>168.5</ele>
        <time>2025-10-26T10:56:15Z</time>
      </trkpt>
      <trkpt lat="43.51146" lon="6.69617">
        <ele>168.5</ele>
        <time>2025-10-26T10:56:16Z</time>
      </trkpt>
      <trkpt lat="43.51147" lon="6.69616">
        <ele>168.6</ele>
        <time>2025-10-26T10:56:17Z</time>
      </trkpt>
      <trkpt lat="43.51147" lon="6.69615">
        <ele>168.6</ele>
        <time>2025-10-26T10:56:18Z</time>
      </trkpt>
      <trkpt lat="43.51147" lon="6.69614">
        <ele>168.7</ele>
        <time>2025-10-26T10:56:19Z</time>
      </trkpt>
      <trkpt lat="43.51147" lon="6.69613">
        <ele>168.7</ele>
        <time>2025-10-26T10:56:20Z</time>
      </trkpt>
      <trkpt lat="43.51147" lon="6.69612">
        <ele>168.9</ele>
        <time>2025-10-26T10:56:21Z</time>
      </trkpt>
      <trkpt lat="43.51147" lon="6.69611">
        <ele>169</ele>
        <time>2025-10-26T10:56:22Z</time>
      </trkpt>
      <trkpt lat="43.51147" lon="6.6961">
        <ele>169.1</ele>
        <time>2025-10-26T10:56:23Z</time>
      </trkpt>
      <trkpt lat="43.51147" lon="6.69609">
        <ele>169.2</ele>
        <time>2025-10-26T10:56:24Z</time>
      </trkpt>
      <trkpt lat="43.51147" lon="6.69608">
        <ele>169.3</ele>
        <time>2025-10-26T10:56:25Z</time>
      </trkpt>
      <trkpt lat="43.51147" lon="6.69607">
        <ele>169.3</ele>
        <time>2025-10-26T10:56:26Z</time>
      </trkpt>
      <trkpt lat="43.51147" lon="6.69606">
        <ele>169.4</ele>
        <time>2025-10-26T10:56:27Z</time>
      </trkpt>
      <trkpt lat="43.51148" lon="6.69605">
        <ele>169.5</ele>
        <time>2025-10-26T10:56:28Z</time>
      </trkpt>
      <trkpt lat="43.51148" lon="6.69604">
        <ele>169.6</ele>
        <time>2025-10-26T10:56:29Z</time>
      </trkpt>
      <trkpt lat="43.51148" lon="6.69603">
        <ele>169.8</ele>
        <time>2025-10-26T10:56:30Z</time>
      </trkpt>
      <trkpt lat="43.51148" lon="6.69602">
        <ele>170</ele>
        <time>2025-10-26T10:56:31Z</time>
      </trkpt>
      <trkpt lat="43.51148" lon="6.69601">
        <ele>170</ele>
        <time>2025-10-26T10:56:32Z</time>
      </trkpt>
      <trkpt lat="43.51148" lon="6.696">
        <ele>170.2</ele>
        <time>2025-10-26T10:56:33Z</time>
      </trkpt>
      <trkpt lat="43.51147" lon="6.69599">
        <ele>170.4</ele>
        <time>2025-10-26T10:56:34Z</time>
      </trkpt>
      <trkpt lat="43.51147" lon="6.69598">
        <ele>170.5</ele>
        <time>2025-10-26T10:56:35Z</time>
      </trkpt>
      <trkpt lat="43.51147" lon="6.69598">
        <ele>170.7</ele>
        <time>2025-10-26T10:56:36Z</time>
      </trkpt>
      <trkpt lat="43.51147" lon="6.69596">
        <ele>170.7</ele>
        <time>2025-10-26T10:56:37Z</time>
      </trkpt>
      <trkpt lat="43.51147" lon="6.69595">
        <ele>170.8</ele>
        <time>2025-10-26T10:56:38Z</time>
      </trkpt>
      <trkpt lat="43.51147" lon="6.69595">
        <ele>171</ele>
        <time>2025-10-26T10:56:39Z</time>
      </trkpt>
      <trkpt lat="43.51147" lon="6.69594">
        <ele>171.2</ele>
        <time>2025-10-26T10:56:40Z</time>
      </trkpt>
      <trkpt lat="43.51148" lon="6.69593">
        <ele>171.1</ele>
        <time>2025-10-26T10:56:41Z</time>
      </trkpt>
      <trkpt lat="43.51148" lon="6.69593">
        <ele>171.5</ele>
        <time>2025-10-26T10:56:42Z</time>
      </trkpt>
      <trkpt lat="43.51148" lon="6.69592">
        <ele>171.5</ele>
        <time>2025-10-26T10:56:43Z</time>
      </trkpt>
      <trkpt lat="43.51148" lon="6.69592">
        <ele>171.6</ele>
        <time>2025-10-26T10:56:44Z</time>
      </trkpt>
      <trkpt lat="43.51149" lon="6.69592">
        <ele>171.6</ele>
        <time>2025-10-26T10:56:45Z</time>
      </trkpt>
      <trkpt lat="43.51149" lon="6.69592">
        <ele>171.3</ele>
        <time>2025-10-26T10:56:46Z</time>
      </trkpt>
      <trkpt lat="43.51149" lon="6.69592">
        <ele>171.5</ele>
        <time>2025-10-26T10:56:47Z</time>
      </trkpt>
      <trkpt lat="43.51149" lon="6.69592">
        <ele>171.6</ele>
        <time>2025-10-26T10:56:48Z</time>
      </trkpt>
      <trkpt lat="43.51149" lon="6.69592">
        <ele>171.6</ele>
        <time>2025-10-26T10:56:49Z</time>
      </trkpt>
      <trkpt lat="43.51149" lon="6.69592">
        <ele>171.6</ele>
        <time>2025-10-26T10:56:50Z</time>
      </trkpt>
      <trkpt lat="43.51149" lon="6.69591">
        <ele>171.5</ele>
        <time>2025-10-26T10:56:51Z</time>
      </trkpt>
      <trkpt lat="43.51149" lon="6.69591">
        <ele>171.4</ele>
        <time>2025-10-26T10:56:52Z</time>
      </trkpt>
      <trkpt lat="43.51149" lon="6.69591">
        <ele>171.4</ele>
        <time>2025-10-26T10:56:53Z</time>
      </trkpt>
      <trkpt lat="43.51149" lon="6.69591">
        <ele>171.3</ele>
        <time>2025-10-26T10:56:54Z</time>
      </trkpt>
      <trkpt lat="43.51149" lon="6.69591">
        <ele>171.2</ele>
        <time>2025-10-26T10:56:55Z</time>
      </trkpt>
      <trkpt lat="43.51149" lon="6.69591">
        <ele>171.1</ele>
        <time>2025-10-26T10:56:56Z</time>
      </trkpt>
      <trkpt lat="43.51149" lon="6.69591">
        <ele>171</ele>
        <time>2025-10-26T10:56:57Z</time>
      </trkpt>
      <trkpt lat="43.51149" lon="6.69591">
        <ele>171</ele>
        <time>2025-10-26T10:56:58Z</time>
      </trkpt>
      <trkpt lat="43.51149" lon="6.69591">
        <ele>171</ele>
        <time>2025-10-26T10:56:59Z</time>
      </trkpt>
      <trkpt lat="43.51148" lon="6.6959">
        <ele>171</ele>
        <time>2025-10-26T10:57:00Z</time>
      </trkpt>
      <trkpt lat="43.51148" lon="6.6959">
        <ele>170.9</ele>
        <time>2025-10-26T10:57:01Z</time>
      </trkpt>
      <trkpt lat="43.51148" lon="6.6959">
        <ele>170.9</ele>
        <time>2025-10-26T10:57:02Z</time>
      </trkpt>
      <trkpt lat="43.51148" lon="6.6959">
        <ele>170.8</ele>
        <time>2025-10-26T10:57:03Z</time>
      </trkpt>
      <trkpt lat="43.51148" lon="6.6959">
        <ele>170.8</ele>
        <time>2025-10-26T10:57:04Z</time>
      </trkpt>
      <trkpt lat="43.51147" lon="6.6959">
        <ele>170.7</ele>
        <time>2025-10-26T10:57:05Z</time>
      </trkpt>
      <trkpt lat="43.51147" lon="6.6959">
        <ele>170.6</ele>
        <time>2025-10-26T10:57:06Z</time>
      </trkpt>
      <trkpt lat="43.51147" lon="6.69589">
        <ele>170.6</ele>
        <time>2025-10-26T10:57:07Z</time>
      </trkpt>
      <trkpt lat="43.51147" lon="6.69589">
        <ele>170.7</ele>
        <time>2025-10-26T10:57:08Z</time>
      </trkpt>
      <trkpt lat="43.51147" lon="6.69589">
        <ele>170.7</ele>
        <time>2025-10-26T10:57:09Z</time>
      </trkpt>
      <trkpt lat="43.51147" lon="6.69589">
        <ele>170.7</ele>
        <time>2025-10-26T10:57:10Z</time>
      </trkpt>
      <trkpt lat="43.51147" lon="6.69589">
        <ele>170.8</ele>
        <time>2025-10-26T10:57:11Z</time>
      </trkpt>
      <trkpt lat="43.51147" lon="6.69589">
        <ele>170.8</ele>
        <time>2025-10-26T10:57:12Z</time>
      </trkpt>
      <trkpt lat="43.51147" lon="6.69589">
        <ele>170.8</ele>
        <time>2025-10-26T10:57:13Z</time>
      </trkpt>
      <trkpt lat="43.51147" lon="6.69589">
        <ele>170.8</ele>
        <time>2025-10-26T10:57:14Z</time>
      </trkpt>
      <trkpt lat="43.51147" lon="6.69588">
        <ele>170.8</ele>
        <time>2025-10-26T10:57:15Z</time>
      </trkpt>
      <trkpt lat="43.51147" lon="6.69588">
        <ele>170.8</ele>
        <time>2025-10-26T10:57:16Z</time>
      </trkpt>
      <trkpt lat="43.51147" lon="6.69588">
        <ele>170.8</ele>
        <time>2025-10-26T10:57:17Z</time>
      </trkpt>
      <trkpt lat="43.51147" lon="6.69588">
        <ele>170.8</ele>
        <time>2025-10-26T10:57:18Z</time>
      </trkpt>
      <trkpt lat="43.51146" lon="6.69588">
        <ele>170.8</ele>
        <time>2025-10-26T10:57:19Z</time>
      </trkpt>
      <trkpt lat="43.51146" lon="6.69588">
        <ele>170.8</ele>
        <time>2025-10-26T10:57:20Z</time>
      </trkpt>
      <trkpt lat="43.51146" lon="6.69588">
        <ele>170.8</ele>
        <time>2025-10-26T10:57:21Z</time>
      </trkpt>
      <trkpt lat="43.51146" lon="6.69588">
        <ele>170.8</ele>
        <time>2025-10-26T10:57:22Z</time>
      </trkpt>
      <trkpt lat="43.51146" lon="6.69588">
        <ele>170.8</ele>
        <time>2025-10-26T10:57:23Z</time>
      </trkpt>
      <trkpt lat="43.51146" lon="6.69588">
        <ele>170.8</ele>
        <time>2025-10-26T10:57:24Z</time>
      </trkpt>
      <trkpt lat="43.51146" lon="6.69588">
        <ele>170.7</ele>
        <time>2025-10-26T10:57:25Z</time>
      </trkpt>
      <trkpt lat="43.51147" lon="6.69588">
        <ele>170.6</ele>
        <time>2025-10-26T10:57:26Z</time>
      </trkpt>
      <trkpt lat="43.51147" lon="6.69588">
        <ele>170.5</ele>
        <time>2025-10-26T10:57:27Z</time>
      </trkpt>
      <trkpt lat="43.51147" lon="6.69587">
        <ele>170.5</ele>
        <time>2025-10-26T10:57:28Z</time>
      </trkpt>
      <trkpt lat="43.51147" lon="6.69587">
        <ele>170.4</ele>
        <time>2025-10-26T10:57:29Z</time>
      </trkpt>
      <trkpt lat="43.51147" lon="6.69587">
        <ele>170.5</ele>
        <time>2025-10-26T10:57:30Z</time>
      </trkpt>
      <trkpt lat="43.51147" lon="6.69587">
        <ele>170.6</ele>
        <time>2025-10-26T10:57:31Z</time>
      </trkpt>
      <trkpt lat="43.51147" lon="6.69587">
        <ele>170.7</ele>
        <time>2025-10-26T10:57:32Z</time>
      </trkpt>
      <trkpt lat="43.51147" lon="6.69587">
        <ele>170.6</ele>
        <time>2025-10-26T10:57:33Z</time>
      </trkpt>
      <trkpt lat="43.51147" lon="6.69587">
        <ele>170.6</ele>
        <time>2025-10-26T10:57:34Z</time>
      </trkpt>
      <trkpt lat="43.51147" lon="6.69587">
        <ele>170.6</ele>
        <time>2025-10-26T10:57:35Z</time>
      </trkpt>
      <trkpt lat="43.51147" lon="6.69587">
        <ele>170.6</ele>
        <time>2025-10-26T10:57:36Z</time>
      </trkpt>
      <trkpt lat="43.51147" lon="6.69587">
        <ele>170.6</ele>
        <time>2025-10-26T10:57:37Z</time>
      </trkpt>
      <trkpt lat="43.51147" lon="6.69587">
        <ele>170.6</ele>
        <time>2025-10-26T10:57:38Z</time>
      </trkpt>
      <trkpt lat="43.51147" lon="6.69587">
        <ele>170.4</ele>
        <time>2025-10-26T10:57:39Z</time>
      </trkpt>
      <trkpt lat="43.51147" lon="6.69587">
        <ele>170.3</ele>
        <time>2025-10-26T10:57:40Z</time>
      </trkpt>
      <trkpt lat="43.51147" lon="6.69587">
        <ele>170.5</ele>
        <time>2025-10-26T10:57:41Z</time>
      </trkpt>
      <trkpt lat="43.51147" lon="6.69587">
        <ele>170.5</ele>
        <time>2025-10-26T10:57:42Z</time>
      </trkpt>
      <trkpt lat="43.51148" lon="6.69587">
        <ele>170.6</ele>
        <time>2025-10-26T10:57:43Z</time>
      </trkpt>
      <trkpt lat="43.51148" lon="6.69588">
        <ele>170.7</ele>
        <time>2025-10-26T10:57:44Z</time>
      </trkpt>
      <trkpt lat="43.51148" lon="6.69588">
        <ele>170.7</ele>
        <time>2025-10-26T10:57:45Z</time>
      </trkpt>
      <trkpt lat="43.51148" lon="6.69588">
        <ele>170.7</ele>
        <time>2025-10-26T10:57:46Z</time>
      </trkpt>
      <trkpt lat="43.51148" lon="6.69588">
        <ele>170.7</ele>
        <time>2025-10-26T10:57:47Z</time>
      </trkpt>
      <trkpt lat="43.51148" lon="6.69588">
        <ele>170.7</ele>
        <time>2025-10-26T10:57:48Z</time>
      </trkpt>
      <trkpt lat="43.51148" lon="6.69588">
        <ele>170.7</ele>
        <time>2025-10-26T10:57:49Z</time>
      </trkpt>
      <trkpt lat="43.51148" lon="6.69588">
        <ele>170.6</ele>
        <time>2025-10-26T10:57:50Z</time>
      </trkpt>
      <trkpt lat="43.51148" lon="6.69588">
        <ele>170.6</ele>
        <time>2025-10-26T10:57:51Z</time>
      </trkpt>
      <trkpt lat="43.51148" lon="6.69588">
        <ele>170.5</ele>
        <time>2025-10-26T10:57:52Z</time>
      </trkpt>
      <trkpt lat="43.51148" lon="6.69587">
        <ele>170.6</ele>
        <time>2025-10-26T10:57:53Z</time>
      </trkpt>
      <trkpt lat="43.51148" lon="6.69587">
        <ele>170.7</ele>
        <time>2025-10-26T10:57:54Z</time>
      </trkpt>
      <trkpt lat="43.51148" lon="6.69587">
        <ele>170.8</ele>
        <time>2025-10-26T10:57:55Z</time>
      </trkpt>
      <trkpt lat="43.51148" lon="6.69587">
        <ele>171</ele>
        <time>2025-10-26T10:57:56Z</time>
      </trkpt>
      <trkpt lat="43.51148" lon="6.69587">
        <ele>171.1</ele>
        <time>2025-10-26T10:57:57Z</time>
      </trkpt>
      <trkpt lat="43.51148" lon="6.69587">
        <ele>171.3</ele>
        <time>2025-10-26T10:57:58Z</time>
      </trkpt>
      <trkpt lat="43.51148" lon="6.69587">
        <ele>171.5</ele>
        <time>2025-10-26T10:57:59Z</time>
      </trkpt>
      <trkpt lat="43.51148" lon="6.69587">
        <ele>171.7</ele>
        <time>2025-10-26T10:58:00Z</time>
      </trkpt>
      <trkpt lat="43.51148" lon="6.69587">
        <ele>171.7</ele>
        <time>2025-10-26T10:58:01Z</time>
      </trkpt>
      <trkpt lat="43.51148" lon="6.69587">
        <ele>171.7</ele>
        <time>2025-10-26T10:58:02Z</time>
      </trkpt>
      <trkpt lat="43.51148" lon="6.69588">
        <ele>171.7</ele>
        <time>2025-10-26T10:58:03Z</time>
      </trkpt>
      <trkpt lat="43.51147" lon="6.69587">
        <ele>171.7</ele>
        <time>2025-10-26T10:58:04Z</time>
      </trkpt>
      <trkpt lat="43.51147" lon="6.69587">
        <ele>171.7</ele>
        <time>2025-10-26T10:58:05Z</time>
      </trkpt>
      <trkpt lat="43.51147" lon="6.69587">
        <ele>171.6</ele>
        <time>2025-10-26T10:58:06Z</time>
      </trkpt>
      <trkpt lat="43.51147" lon="6.69588">
        <ele>171.5</ele>
        <time>2025-10-26T10:58:07Z</time>
      </trkpt>
      <trkpt lat="43.51147" lon="6.69588">
        <ele>171.4</ele>
        <time>2025-10-26T10:58:08Z</time>
      </trkpt>
      <trkpt lat="43.51147" lon="6.69588">
        <ele>171.3</ele>
        <time>2025-10-26T10:58:09Z</time>
      </trkpt>
      <trkpt lat="43.51147" lon="6.69588">
        <ele>171.1</ele>
        <time>2025-10-26T10:58:10Z</time>
      </trkpt>
      <trkpt lat="43.51147" lon="6.69589">
        <ele>171</ele>
        <time>2025-10-26T10:58:11Z</time>
      </trkpt>
      <trkpt lat="43.51147" lon="6.69589">
        <ele>171</ele>
        <time>2025-10-26T10:58:12Z</time>
      </trkpt>
      <trkpt lat="43.51147" lon="6.69589">
        <ele>170.9</ele>
        <time>2025-10-26T10:58:13Z</time>
      </trkpt>
      <trkpt lat="43.51147" lon="6.69589">
        <ele>170.9</ele>
        <time>2025-10-26T10:58:14Z</time>
      </trkpt>
      <trkpt lat="43.51146" lon="6.69589">
        <ele>171</ele>
        <time>2025-10-26T10:58:15Z</time>
      </trkpt>
      <trkpt lat="43.51146" lon="6.69589">
        <ele>171.1</ele>
        <time>2025-10-26T10:58:16Z</time>
      </trkpt>
      <trkpt lat="43.51146" lon="6.69589">
        <ele>171.1</ele>
        <time>2025-10-26T10:58:17Z</time>
      </trkpt>
      <trkpt lat="43.51146" lon="6.69589">
        <ele>171.1</ele>
        <time>2025-10-26T10:58:18Z</time>
      </trkpt>
      <trkpt lat="43.51146" lon="6.69589">
        <ele>171.2</ele>
        <time>2025-10-26T10:58:19Z</time>
      </trkpt>
      <trkpt lat="43.51146" lon="6.69589">
        <ele>171.1</ele>
        <time>2025-10-26T10:58:20Z</time>
      </trkpt>
      <trkpt lat="43.51146" lon="6.69589">
        <ele>171.1</ele>
        <time>2025-10-26T10:58:21Z</time>
      </trkpt>
      <trkpt lat="43.51146" lon="6.69589">
        <ele>171.2</ele>
        <time>2025-10-26T10:58:22Z</time>
      </trkpt>
      <trkpt lat="43.51147" lon="6.69589">
        <ele>171.2</ele>
        <time>2025-10-26T10:58:23Z</time>
      </trkpt>
      <trkpt lat="43.51147" lon="6.69589">
        <ele>171.2</ele>
        <time>2025-10-26T10:58:24Z</time>
      </trkpt>
      <trkpt lat="43.51146" lon="6.69588">
        <ele>171.2</ele>
        <time>2025-10-26T10:58:25Z</time>
      </trkpt>
      <trkpt lat="43.51146" lon="6.69587">
        <ele>171.2</ele>
        <time>2025-10-26T10:58:26Z</time>
      </trkpt>
      <trkpt lat="43.51146" lon="6.69587">
        <ele>171.2</ele>
        <time>2025-10-26T10:58:27Z</time>
      </trkpt>
      <trkpt lat="43.51146" lon="6.69586">
        <ele>171.3</ele>
        <time>2025-10-26T10:58:28Z</time>
      </trkpt>
      <trkpt lat="43.51146" lon="6.69585">
        <ele>171.3</ele>
        <time>2025-10-26T10:58:29Z</time>
      </trkpt>
      <trkpt lat="43.51146" lon="6.69585">
        <ele>171.4</ele>
        <time>2025-10-26T10:58:30Z</time>
      </trkpt>
      <trkpt lat="43.51146" lon="6.69585">
        <ele>171.4</ele>
        <time>2025-10-26T10:58:31Z</time>
      </trkpt>
      <trkpt lat="43.51146" lon="6.69585">
        <ele>171.5</ele>
        <time>2025-10-26T10:58:32Z</time>
      </trkpt>
      <trkpt lat="43.51146" lon="6.69585">
        <ele>171.6</ele>
        <time>2025-10-26T10:58:33Z</time>
      </trkpt>
      <trkpt lat="43.51146" lon="6.69586">
        <ele>171.6</ele>
        <time>2025-10-26T10:58:34Z</time>
      </trkpt>
      <trkpt lat="43.51146" lon="6.69585">
        <ele>171.7</ele>
        <time>2025-10-26T10:58:35Z</time>
      </trkpt>
      <trkpt lat="43.51147" lon="6.69585">
        <ele>171.8</ele>
        <time>2025-10-26T10:58:36Z</time>
      </trkpt>
      <trkpt lat="43.51147" lon="6.69585">
        <ele>171.7</ele>
        <time>2025-10-26T10:58:37Z</time>
      </trkpt>
      <trkpt lat="43.51147" lon="6.69585">
        <ele>171.6</ele>
        <time>2025-10-26T10:58:38Z</time>
      </trkpt>
      <trkpt lat="43.51147" lon="6.69585">
        <ele>171.6</ele>
        <time>2025-10-26T10:58:39Z</time>
      </trkpt>
      <trkpt lat="43.51146" lon="6.69584">
        <ele>171.4</ele>
        <time>2025-10-26T10:58:40Z</time>
      </trkpt>
      <trkpt lat="43.51146" lon="6.69584">
        <ele>171.3</ele>
        <time>2025-10-26T10:58:41Z</time>
      </trkpt>
      <trkpt lat="43.51146" lon="6.69584">
        <ele>171.2</ele>
        <time>2025-10-26T10:58:42Z</time>
      </trkpt>
      <trkpt lat="43.51146" lon="6.69584">
        <ele>171.2</ele>
        <time>2025-10-26T10:58:43Z</time>
      </trkpt>
      <trkpt lat="43.51146" lon="6.69584">
        <ele>171.3</ele>
        <time>2025-10-26T10:58:44Z</time>
      </trkpt>
      <trkpt lat="43.51145" lon="6.69584">
        <ele>171.4</ele>
        <time>2025-10-26T10:58:45Z</time>
      </trkpt>
      <trkpt lat="43.51145" lon="6.69583">
        <ele>171.3</ele>
        <time>2025-10-26T10:58:46Z</time>
      </trkpt>
      <trkpt lat="43.51145" lon="6.69583">
        <ele>171.2</ele>
        <time>2025-10-26T10:58:47Z</time>
      </trkpt>
      <trkpt lat="43.51145" lon="6.69583">
        <ele>171.3</ele>
        <time>2025-10-26T10:58:48Z</time>
      </trkpt>
      <trkpt lat="43.51145" lon="6.69583">
        <ele>171.4</ele>
        <time>2025-10-26T10:58:49Z</time>
      </trkpt>
      <trkpt lat="43.51145" lon="6.69583">
        <ele>171.5</ele>
        <time>2025-10-26T10:58:50Z</time>
      </trkpt>
      <trkpt lat="43.51144" lon="6.69583">
        <ele>171.6</ele>
        <time>2025-10-26T10:58:51Z</time>
      </trkpt>
      <trkpt lat="43.51144" lon="6.69583">
        <ele>171.5</ele>
        <time>2025-10-26T10:58:52Z</time>
      </trkpt>
      <trkpt lat="43.51144" lon="6.69583">
        <ele>171.4</ele>
        <time>2025-10-26T10:58:53Z</time>
      </trkpt>
      <trkpt lat="43.51144" lon="6.69583">
        <ele>171.4</ele>
        <time>2025-10-26T10:58:54Z</time>
      </trkpt>
      <trkpt lat="43.51144" lon="6.69583">
        <ele>171.3</ele>
        <time>2025-10-26T10:58:55Z</time>
      </trkpt>
      <trkpt lat="43.51144" lon="6.69583">
        <ele>171.3</ele>
        <time>2025-10-26T10:58:56Z</time>
      </trkpt>
      <trkpt lat="43.51143" lon="6.69583">
        <ele>171.3</ele>
        <time>2025-10-26T10:58:57Z</time>
      </trkpt>
      <trkpt lat="43.51143" lon="6.69583">
        <ele>171.3</ele>
        <time>2025-10-26T10:58:58Z</time>
      </trkpt>
      <trkpt lat="43.51143" lon="6.69583">
        <ele>171.3</ele>
        <time>2025-10-26T10:58:59Z</time>
      </trkpt>
      <trkpt lat="43.51143" lon="6.69583">
        <ele>171.3</ele>
        <time>2025-10-26T10:59:00Z</time>
      </trkpt>
      <trkpt lat="43.51143" lon="6.69583">
        <ele>171</ele>
        <time>2025-10-26T10:59:01Z</time>
      </trkpt>
      <trkpt lat="43.51143" lon="6.69583">
        <ele>170.9</ele>
        <time>2025-10-26T10:59:02Z</time>
      </trkpt>
      <trkpt lat="43.51143" lon="6.69583">
        <ele>170.8</ele>
        <time>2025-10-26T10:59:03Z</time>
      </trkpt>
      <trkpt lat="43.51143" lon="6.69583">
        <ele>171</ele>
        <time>2025-10-26T10:59:04Z</time>
      </trkpt>
      <trkpt lat="43.51143" lon="6.69583">
        <ele>171.2</ele>
        <time>2025-10-26T10:59:05Z</time>
      </trkpt>
      <trkpt lat="43.51143" lon="6.69583">
        <ele>171.4</ele>
        <time>2025-10-26T10:59:06Z</time>
      </trkpt>
      <trkpt lat="43.51143" lon="6.69583">
        <ele>171.6</ele>
        <time>2025-10-26T10:59:07Z</time>
      </trkpt>
      <trkpt lat="43.51143" lon="6.69583">
        <ele>171.8</ele>
        <time>2025-10-26T10:59:08Z</time>
      </trkpt>
      <trkpt lat="43.51143" lon="6.69583">
        <ele>171.8</ele>
        <time>2025-10-26T10:59:09Z</time>
      </trkpt>
      <trkpt lat="43.51143" lon="6.69583">
        <ele>171.8</ele>
        <time>2025-10-26T10:59:10Z</time>
      </trkpt>
      <trkpt lat="43.51143" lon="6.69582">
        <ele>171.8</ele>
        <time>2025-10-26T10:59:11Z</time>
      </trkpt>
      <trkpt lat="43.51143" lon="6.69582">
        <ele>171.6</ele>
        <time>2025-10-26T10:59:12Z</time>
      </trkpt>
      <trkpt lat="43.51143" lon="6.69582">
        <ele>171.5</ele>
        <time>2025-10-26T10:59:13Z</time>
      </trkpt>
      <trkpt lat="43.51143" lon="6.69582">
        <ele>171.5</ele>
        <time>2025-10-26T10:59:14Z</time>
      </trkpt>
      <trkpt lat="43.51144" lon="6.69581">
        <ele>171.3</ele>
        <time>2025-10-26T10:59:15Z</time>
      </trkpt>
      <trkpt lat="43.51144" lon="6.69581">
        <ele>171.3</ele>
        <time>2025-10-26T10:59:16Z</time>
      </trkpt>
      <trkpt lat="43.51143" lon="6.69582">
        <ele>171.2</ele>
        <time>2025-10-26T10:59:17Z</time>
      </trkpt>
      <trkpt lat="43.51143" lon="6.69582">
        <ele>171.1</ele>
        <time>2025-10-26T10:59:18Z</time>
      </trkpt>
      <trkpt lat="43.51143" lon="6.69582">
        <ele>171.1</ele>
        <time>2025-10-26T10:59:19Z</time>
      </trkpt>
      <trkpt lat="43.51143" lon="6.69582">
        <ele>171.1</ele>
        <time>2025-10-26T10:59:20Z</time>
      </trkpt>
      <trkpt lat="43.51143" lon="6.69582">
        <ele>171</ele>
        <time>2025-10-26T10:59:21Z</time>
      </trkpt>
      <trkpt lat="43.51142" lon="6.69581">
        <ele>171</ele>
        <time>2025-10-26T10:59:22Z</time>
      </trkpt>
      <trkpt lat="43.51141" lon="6.69581">
        <ele>170.8</ele>
        <time>2025-10-26T10:59:23Z</time>
      </trkpt>
      <trkpt lat="43.51141" lon="6.69581">
        <ele>170.7</ele>
        <time>2025-10-26T10:59:24Z</time>
      </trkpt>
      <trkpt lat="43.5114" lon="6.69582">
        <ele>170.6</ele>
        <time>2025-10-26T10:59:25Z</time>
      </trkpt>
      <trkpt lat="43.5114" lon="6.69582">
        <ele>170.6</ele>
        <time>2025-10-26T10:59:26Z</time>
      </trkpt>
      <trkpt lat="43.5114" lon="6.69583">
        <ele>170.4</ele>
        <time>2025-10-26T10:59:27Z</time>
      </trkpt>
      <trkpt lat="43.5114" lon="6.69583">
        <ele>170.3</ele>
        <time>2025-10-26T10:59:28Z</time>
      </trkpt>
      <trkpt lat="43.5114" lon="6.69584">
        <ele>170.2</ele>
        <time>2025-10-26T10:59:29Z</time>
      </trkpt>
      <trkpt lat="43.5114" lon="6.69585">
        <ele>170.2</ele>
        <time>2025-10-26T10:59:30Z</time>
      </trkpt>
      <trkpt lat="43.5114" lon="6.69586">
        <ele>170.1</ele>
        <time>2025-10-26T10:59:31Z</time>
      </trkpt>
      <trkpt lat="43.5114" lon="6.69587">
        <ele>170</ele>
        <time>2025-10-26T10:59:32Z</time>
      </trkpt>
      <trkpt lat="43.5114" lon="6.69587">
        <ele>169.9</ele>
        <time>2025-10-26T10:59:33Z</time>
      </trkpt>
      <trkpt lat="43.51141" lon="6.69587">
        <ele>169.8</ele>
        <time>2025-10-26T10:59:34Z</time>
      </trkpt>
      <trkpt lat="43.51141" lon="6.69586">
        <ele>169.7</ele>
        <time>2025-10-26T10:59:35Z</time>
      </trkpt>
      <trkpt lat="43.51141" lon="6.69586">
        <ele>169.6</ele>
        <time>2025-10-26T10:59:36Z</time>
      </trkpt>
      <trkpt lat="43.51141" lon="6.69586">
        <ele>169.6</ele>
        <time>2025-10-26T10:59:37Z</time>
      </trkpt>
      <trkpt lat="43.51141" lon="6.69586">
        <ele>169.5</ele>
        <time>2025-10-26T10:59:38Z</time>
      </trkpt>
      <trkpt lat="43.51141" lon="6.69586">
        <ele>169.3</ele>
        <time>2025-10-26T10:59:39Z</time>
      </trkpt>
      <trkpt lat="43.51141" lon="6.69586">
        <ele>169.3</ele>
        <time>2025-10-26T10:59:40Z</time>
      </trkpt>
      <trkpt lat="43.51141" lon="6.69586">
        <ele>169.3</ele>
        <time>2025-10-26T10:59:41Z</time>
      </trkpt>
      <trkpt lat="43.51141" lon="6.69586">
        <ele>169.2</ele>
        <time>2025-10-26T10:59:42Z</time>
      </trkpt>
      <trkpt lat="43.51141" lon="6.69586">
        <ele>169.1</ele>
        <time>2025-10-26T10:59:43Z</time>
      </trkpt>
      <trkpt lat="43.51141" lon="6.69586">
        <ele>169.1</ele>
        <time>2025-10-26T10:59:44Z</time>
      </trkpt>
      <trkpt lat="43.51141" lon="6.69586">
        <ele>169.1</ele>
        <time>2025-10-26T10:59:45Z</time>
      </trkpt>
      <trkpt lat="43.51141" lon="6.69586">
        <ele>169.1</ele>
        <time>2025-10-26T10:59:46Z</time>
      </trkpt>
      <trkpt lat="43.51141" lon="6.69586">
        <ele>169.1</ele>
        <time>2025-10-26T10:59:47Z</time>
      </trkpt>
      <trkpt lat="43.51141" lon="6.69586">
        <ele>169.1</ele>
        <time>2025-10-26T10:59:48Z</time>
      </trkpt>
      <trkpt lat="43.51141" lon="6.69586">
        <ele>169.2</ele>
        <time>2025-10-26T10:59:49Z</time>
      </trkpt>
      <trkpt lat="43.51141" lon="6.69586">
        <ele>169.2</ele>
        <time>2025-10-26T10:59:50Z</time>
      </trkpt>
      <trkpt lat="43.51141" lon="6.69586">
        <ele>169.2</ele>
        <time>2025-10-26T10:59:51Z</time>
      </trkpt>
      <trkpt lat="43.51141" lon="6.69586">
        <ele>169.3</ele>
        <time>2025-10-26T10:59:52Z</time>
      </trkpt>
      <trkpt lat="43.51141" lon="6.69586">
        <ele>169.3</ele>
        <time>2025-10-26T10:59:53Z</time>
      </trkpt>
      <trkpt lat="43.51141" lon="6.69586">
        <ele>169.3</ele>
        <time>2025-10-26T10:59:54Z</time>
      </trkpt>
      <trkpt lat="43.51142" lon="6.69586">
        <ele>169.3</ele>
        <time>2025-10-26T10:59:55Z</time>
      </trkpt>
      <trkpt lat="43.51142" lon="6.69586">
        <ele>169.3</ele>
        <time>2025-10-26T10:59:56Z</time>
      </trkpt>
      <trkpt lat="43.51142" lon="6.69586">
        <ele>169.3</ele>
        <time>2025-10-26T10:59:57Z</time>
      </trkpt>
      <trkpt lat="43.51142" lon="6.69586">
        <ele>169.3</ele>
        <time>2025-10-26T10:59:58Z</time>
      </trkpt>
      <trkpt lat="43.51142" lon="6.69586">
        <ele>169.3</ele>
        <time>2025-10-26T10:59:59Z</time>
      </trkpt>
      <trkpt lat="43.51142" lon="6.69586">
        <ele>169.3</ele>
        <time>2025-10-26T11:00:00Z</time>
      </trkpt>
      <trkpt lat="43.51142" lon="6.69587">
        <ele>169.2</ele>
        <time>2025-10-26T11:00:01Z</time>
      </trkpt>
      <trkpt lat="43.51142" lon="6.69587">
        <ele>169.2</ele>
        <time>2025-10-26T11:00:02Z</time>
      </trkpt>
      <trkpt lat="43.51142" lon="6.69587">
        <ele>169.2</ele>
        <time>2025-10-26T11:00:03Z</time>
      </trkpt>
      <trkpt lat="43.51142" lon="6.69587">
        <ele>169.1</ele>
        <time>2025-10-26T11:00:04Z</time>
      </trkpt>
      <trkpt lat="43.51142" lon="6.69587">
        <ele>169.1</ele>
        <time>2025-10-26T11:00:05Z</time>
      </trkpt>
      <trkpt lat="43.51143" lon="6.69587">
        <ele>169</ele>
        <time>2025-10-26T11:00:06Z</time>
      </trkpt>
      <trkpt lat="43.51143" lon="6.69587">
        <ele>169</ele>
        <time>2025-10-26T11:00:07Z</time>
      </trkpt>
      <trkpt lat="43.51143" lon="6.69587">
        <ele>169</ele>
        <time>2025-10-26T11:00:08Z</time>
      </trkpt>
      <trkpt lat="43.51143" lon="6.69587">
        <ele>168.8</ele>
        <time>2025-10-26T11:00:09Z</time>
      </trkpt>
      <trkpt lat="43.51143" lon="6.69587">
        <ele>168.8</ele>
        <time>2025-10-26T11:00:10Z</time>
      </trkpt>
      <trkpt lat="43.51143" lon="6.69587">
        <ele>168.8</ele>
        <time>2025-10-26T11:00:11Z</time>
      </trkpt>
      <trkpt lat="43.51143" lon="6.69587">
        <ele>168.7</ele>
        <time>2025-10-26T11:00:12Z</time>
      </trkpt>
      <trkpt lat="43.51143" lon="6.69587">
        <ele>168.7</ele>
        <time>2025-10-26T11:00:13Z</time>
      </trkpt>
      <trkpt lat="43.51143" lon="6.69587">
        <ele>168.7</ele>
        <time>2025-10-26T11:00:14Z</time>
      </trkpt>
      <trkpt lat="43.51143" lon="6.69587">
        <ele>168.7</ele>
        <time>2025-10-26T11:00:15Z</time>
      </trkpt>
      <trkpt lat="43.51143" lon="6.69587">
        <ele>168.6</ele>
        <time>2025-10-26T11:00:16Z</time>
      </trkpt>
      <trkpt lat="43.51143" lon="6.69587">
        <ele>168.6</ele>
        <time>2025-10-26T11:00:17Z</time>
      </trkpt>
      <trkpt lat="43.51143" lon="6.69587">
        <ele>168.6</ele>
        <time>2025-10-26T11:00:18Z</time>
      </trkpt>
      <trkpt lat="43.51143" lon="6.69587">
        <ele>168.5</ele>
        <time>2025-10-26T11:00:19Z</time>
      </trkpt>
      <trkpt lat="43.51143" lon="6.69587">
        <ele>168.5</ele>
        <time>2025-10-26T11:00:20Z</time>
      </trkpt>
      <trkpt lat="43.51143" lon="6.69587">
        <ele>168.5</ele>
        <time>2025-10-26T11:00:21Z</time>
      </trkpt>
      <trkpt lat="43.51143" lon="6.69587">
        <ele>168.4</ele>
        <time>2025-10-26T11:00:22Z</time>
      </trkpt>
      <trkpt lat="43.51144" lon="6.69587">
        <ele>168.5</ele>
        <time>2025-10-26T11:00:23Z</time>
      </trkpt>
      <trkpt lat="43.51144" lon="6.69587">
        <ele>168.5</ele>
        <time>2025-10-26T11:00:24Z</time>
      </trkpt>
      <trkpt lat="43.51144" lon="6.69587">
        <ele>168.5</ele>
        <time>2025-10-26T11:00:25Z</time>
      </trkpt>
      <trkpt lat="43.51144" lon="6.69587">
        <ele>168.6</ele>
        <time>2025-10-26T11:00:26Z</time>
      </trkpt>
      <trkpt lat="43.51144" lon="6.69587">
        <ele>168.6</ele>
        <time>2025-10-26T11:00:27Z</time>
      </trkpt>
      <trkpt lat="43.51144" lon="6.69587">
        <ele>168.7</ele>
        <time>2025-10-26T11:00:28Z</time>
      </trkpt>
      <trkpt lat="43.51144" lon="6.69587">
        <ele>168.7</ele>
        <time>2025-10-26T11:00:29Z</time>
      </trkpt>
      <trkpt lat="43.51144" lon="6.69587">
        <ele>168.8</ele>
        <time>2025-10-26T11:00:30Z</time>
      </trkpt>
      <trkpt lat="43.51144" lon="6.69587">
        <ele>168.8</ele>
        <time>2025-10-26T11:00:31Z</time>
      </trkpt>
      <trkpt lat="43.51144" lon="6.69587">
        <ele>168.8</ele>
        <time>2025-10-26T11:00:32Z</time>
      </trkpt>
      <trkpt lat="43.51144" lon="6.69587">
        <ele>168.9</ele>
        <time>2025-10-26T11:00:33Z</time>
      </trkpt>
      <trkpt lat="43.51144" lon="6.69587">
        <ele>168.9</ele>
        <time>2025-10-26T11:00:34Z</time>
      </trkpt>
      <trkpt lat="43.51144" lon="6.69587">
        <ele>168.9</ele>
        <time>2025-10-26T11:00:35Z</time>
      </trkpt>
      <trkpt lat="43.51144" lon="6.69587">
        <ele>168.8</ele>
        <time>2025-10-26T11:00:36Z</time>
      </trkpt>
      <trkpt lat="43.51144" lon="6.69586">
        <ele>168.8</ele>
        <time>2025-10-26T11:00:37Z</time>
      </trkpt>
      <trkpt lat="43.51144" lon="6.69586">
        <ele>168.7</ele>
        <time>2025-10-26T11:00:38Z</time>
      </trkpt>
      <trkpt lat="43.51144" lon="6.69586">
        <ele>168.6</ele>
        <time>2025-10-26T11:00:39Z</time>
      </trkpt>
      <trkpt lat="43.51144" lon="6.69586">
        <ele>168.5</ele>
        <time>2025-10-26T11:00:40Z</time>
      </trkpt>
      <trkpt lat="43.51144" lon="6.69586">
        <ele>168.5</ele>
        <time>2025-10-26T11:00:41Z</time>
      </trkpt>
      <trkpt lat="43.51144" lon="6.69586">
        <ele>168.5</ele>
        <time>2025-10-26T11:00:42Z</time>
      </trkpt>
      <trkpt lat="43.51144" lon="6.69586">
        <ele>168.5</ele>
        <time>2025-10-26T11:00:43Z</time>
      </trkpt>
      <trkpt lat="43.51144" lon="6.69586">
        <ele>168.5</ele>
        <time>2025-10-26T11:00:44Z</time>
      </trkpt>
      <trkpt lat="43.51144" lon="6.69586">
        <ele>168.6</ele>
        <time>2025-10-26T11:00:45Z</time>
      </trkpt>
      <trkpt lat="43.51144" lon="6.69586">
        <ele>168.6</ele>
        <time>2025-10-26T11:00:46Z</time>
      </trkpt>
      <trkpt lat="43.51144" lon="6.69586">
        <ele>168.6</ele>
        <time>2025-10-26T11:00:47Z</time>
      </trkpt>
      <trkpt lat="43.51144" lon="6.69586">
        <ele>168.6</ele>
        <time>2025-10-26T11:00:48Z</time>
      </trkpt>
      <trkpt lat="43.51144" lon="6.69586">
        <ele>168.5</ele>
        <time>2025-10-26T11:00:49Z</time>
      </trkpt>
      <trkpt lat="43.51144" lon="6.69586">
        <ele>168.6</ele>
        <time>2025-10-26T11:00:50Z</time>
      </trkpt>
      <trkpt lat="43.51144" lon="6.69586">
        <ele>168.6</ele>
        <time>2025-10-26T11:00:51Z</time>
      </trkpt>
      <trkpt lat="43.51144" lon="6.69586">
        <ele>168.6</ele>
        <time>2025-10-26T11:00:52Z</time>
      </trkpt>
      <trkpt lat="43.51144" lon="6.69586">
        <ele>168.5</ele>
        <time>2025-10-26T11:00:53Z</time>
      </trkpt>
      <trkpt lat="43.51144" lon="6.69586">
        <ele>168.5</ele>
        <time>2025-10-26T11:00:54Z</time>
      </trkpt>
      <trkpt lat="43.51144" lon="6.69586">
        <ele>168.5</ele>
        <time>2025-10-26T11:00:55Z</time>
      </trkpt>
      <trkpt lat="43.51144" lon="6.69586">
        <ele>168.5</ele>
        <time>2025-10-26T11:00:56Z</time>
      </trkpt>
      <trkpt lat="43.51144" lon="6.69586">
        <ele>168.5</ele>
        <time>2025-10-26T11:00:57Z</time>
      </trkpt>
      <trkpt lat="43.51144" lon="6.69586">
        <ele>168.6</ele>
        <time>2025-10-26T11:00:58Z</time>
      </trkpt>
      <trkpt lat="43.51144" lon="6.69586">
        <ele>168.7</ele>
        <time>2025-10-26T11:00:59Z</time>
      </trkpt>
      <trkpt lat="43.51144" lon="6.69586">
        <ele>168.8</ele>
        <time>2025-10-26T11:01:00Z</time>
      </trkpt>
      <trkpt lat="43.51144" lon="6.69586">
        <ele>168.8</ele>
        <time>2025-10-26T11:01:01Z</time>
      </trkpt>
      <trkpt lat="43.51144" lon="6.69586">
        <ele>168.8</ele>
        <time>2025-10-26T11:01:02Z</time>
      </trkpt>
      <trkpt lat="43.51144" lon="6.69586">
        <ele>168.8</ele>
        <time>2025-10-26T11:01:03Z</time>
      </trkpt>
      <trkpt lat="43.51144" lon="6.69586">
        <ele>168.8</ele>
        <time>2025-10-26T11:01:04Z</time>
      </trkpt>
      <trkpt lat="43.51144" lon="6.69586">
        <ele>168.8</ele>
        <time>2025-10-26T11:01:05Z</time>
      </trkpt>
      <trkpt lat="43.51144" lon="6.69586">
        <ele>168.8</ele>
        <time>2025-10-26T11:01:06Z</time>
      </trkpt>
      <trkpt lat="43.51144" lon="6.69586">
        <ele>168.8</ele>
        <time>2025-10-26T11:01:07Z</time>
      </trkpt>
      <trkpt lat="43.51144" lon="6.69586">
        <ele>168.8</ele>
        <time>2025-10-26T11:01:08Z</time>
      </trkpt>
      <trkpt lat="43.51144" lon="6.69586">
        <ele>168.8</ele>
        <time>2025-10-26T11:01:09Z</time>
      </trkpt>
      <trkpt lat="43.51144" lon="6.69586">
        <ele>168.8</ele>
        <time>2025-10-26T11:01:10Z</time>
      </trkpt>
      <trkpt lat="43.51144" lon="6.69586">
        <ele>168.8</ele>
        <time>2025-10-26T11:01:11Z</time>
      </trkpt>
      <trkpt lat="43.51144" lon="6.69586">
        <ele>168.8</ele>
        <time>2025-10-26T11:01:12Z</time>
      </trkpt>
      <trkpt lat="43.51144" lon="6.69586">
        <ele>168.8</ele>
        <time>2025-10-26T11:01:13Z</time>
      </trkpt>
      <trkpt lat="43.51144" lon="6.69586">
        <ele>168.8</ele>
        <time>2025-10-26T11:01:14Z</time>
      </trkpt>
      <trkpt lat="43.51144" lon="6.69586">
        <ele>168.8</ele>
        <time>2025-10-26T11:01:15Z</time>
      </trkpt>
      <trkpt lat="43.51144" lon="6.69586">
        <ele>168.8</ele>
        <time>2025-10-26T11:01:16Z</time>
      </trkpt>
      <trkpt lat="43.51144" lon="6.69586">
        <ele>168.8</ele>
        <time>2025-10-26T11:01:17Z</time>
      </trkpt>
      <trkpt lat="43.51144" lon="6.69586">
        <ele>168.9</ele>
        <time>2025-10-26T11:01:18Z</time>
      </trkpt>
      <trkpt lat="43.51144" lon="6.69586">
        <ele>169</ele>
        <time>2025-10-26T11:01:19Z</time>
      </trkpt>
      <trkpt lat="43.51144" lon="6.69586">
        <ele>168.9</ele>
        <time>2025-10-26T11:01:20Z</time>
      </trkpt>
      <trkpt lat="43.51144" lon="6.69586">
        <ele>168.9</ele>
        <time>2025-10-26T11:01:21Z</time>
      </trkpt>
      <trkpt lat="43.51144" lon="6.69586">
        <ele>168.8</ele>
        <time>2025-10-26T11:01:22Z</time>
      </trkpt>
      <trkpt lat="43.51144" lon="6.69586">
        <ele>168.9</ele>
        <time>2025-10-26T11:01:23Z</time>
      </trkpt>
      <trkpt lat="43.51144" lon="6.69586">
        <ele>168.9</ele>
        <time>2025-10-26T11:01:24Z</time>
      </trkpt>
      <trkpt lat="43.51144" lon="6.69586">
        <ele>168.9</ele>
        <time>2025-10-26T11:01:25Z</time>
      </trkpt>
      <trkpt lat="43.51144" lon="6.69586">
        <ele>169</ele>
        <time>2025-10-26T11:01:26Z</time>
      </trkpt>
      <trkpt lat="43.51144" lon="6.69586">
        <ele>169</ele>
        <time>2025-10-26T11:01:27Z</time>
      </trkpt>
      <trkpt lat="43.51144" lon="6.69586">
        <ele>169.1</ele>
        <time>2025-10-26T11:01:28Z</time>
      </trkpt>
      <trkpt lat="43.51144" lon="6.69586">
        <ele>169</ele>
        <time>2025-10-26T11:01:29Z</time>
      </trkpt>
      <trkpt lat="43.51144" lon="6.69586">
        <ele>169.1</ele>
        <time>2025-10-26T11:01:30Z</time>
      </trkpt>
      <trkpt lat="43.51144" lon="6.69586">
        <ele>169.1</ele>
        <time>2025-10-26T11:01:31Z</time>
      </trkpt>
      <trkpt lat="43.51144" lon="6.69586">
        <ele>169.2</ele>
        <time>2025-10-26T11:01:32Z</time>
      </trkpt>
      <trkpt lat="43.51144" lon="6.69586">
        <ele>169.2</ele>
        <time>2025-10-26T11:01:33Z</time>
      </trkpt>
      <trkpt lat="43.51144" lon="6.69586">
        <ele>169.2</ele>
        <time>2025-10-26T11:01:34Z</time>
      </trkpt>
      <trkpt lat="43.51144" lon="6.69586">
        <ele>169.2</ele>
        <time>2025-10-26T11:01:35Z</time>
      </trkpt>
      <trkpt lat="43.51144" lon="6.69586">
        <ele>169</ele>
        <time>2025-10-26T11:01:36Z</time>
      </trkpt>
      <trkpt lat="43.51144" lon="6.69586">
        <ele>168.9</ele>
        <time>2025-10-26T11:01:37Z</time>
      </trkpt>
      <trkpt lat="43.51144" lon="6.69586">
        <ele>168.8</ele>
        <time>2025-10-26T11:01:38Z</time>
      </trkpt>
      <trkpt lat="43.51144" lon="6.69586">
        <ele>168.7</ele>
        <time>2025-10-26T11:01:39Z</time>
      </trkpt>
      <trkpt lat="43.51144" lon="6.69586">
        <ele>168.8</ele>
        <time>2025-10-26T11:01:40Z</time>
      </trkpt>
      <trkpt lat="43.51144" lon="6.69586">
        <ele>168.9</ele>
        <time>2025-10-26T11:01:41Z</time>
      </trkpt>
      <trkpt lat="43.51144" lon="6.69586">
        <ele>168.9</ele>
        <time>2025-10-26T11:01:42Z</time>
      </trkpt>
      <trkpt lat="43.51144" lon="6.69586">
        <ele>168.9</ele>
        <time>2025-10-26T11:01:43Z</time>
      </trkpt>
      <trkpt lat="43.51145" lon="6.69586">
        <ele>168.9</ele>
        <time>2025-10-26T11:01:44Z</time>
      </trkpt>
      <trkpt lat="43.51144" lon="6.69586">
        <ele>168.9</ele>
        <time>2025-10-26T11:01:45Z</time>
      </trkpt>
      <trkpt lat="43.51144" lon="6.69586">
        <ele>168.9</ele>
        <time>2025-10-26T11:01:46Z</time>
      </trkpt>
      <trkpt lat="43.51145" lon="6.69586">
        <ele>168.9</ele>
        <time>2025-10-26T11:01:47Z</time>
      </trkpt>
      <trkpt lat="43.51145" lon="6.69586">
        <ele>168.9</ele>
        <time>2025-10-26T11:01:48Z</time>
      </trkpt>
      <trkpt lat="43.51145" lon="6.69586">
        <ele>168.8</ele>
        <time>2025-10-26T11:01:49Z</time>
      </trkpt>
      <trkpt lat="43.51145" lon="6.69586">
        <ele>168.8</ele>
        <time>2025-10-26T11:01:50Z</time>
      </trkpt>
      <trkpt lat="43.51145" lon="6.69586">
        <ele>168.7</ele>
        <time>2025-10-26T11:01:51Z</time>
      </trkpt>
      <trkpt lat="43.51145" lon="6.69586">
        <ele>168.7</ele>
        <time>2025-10-26T11:01:52Z</time>
      </trkpt>
      <trkpt lat="43.51145" lon="6.69586">
        <ele>168.7</ele>
        <time>2025-10-26T11:01:53Z</time>
      </trkpt>
      <trkpt lat="43.51145" lon="6.69586">
        <ele>168.6</ele>
        <time>2025-10-26T11:01:54Z</time>
      </trkpt>
      <trkpt lat="43.51145" lon="6.69586">
        <ele>168.6</ele>
        <time>2025-10-26T11:01:55Z</time>
      </trkpt>
      <trkpt lat="43.51145" lon="6.69586">
        <ele>168.5</ele>
        <time>2025-10-26T11:01:56Z</time>
      </trkpt>
      <trkpt lat="43.51145" lon="6.69586">
        <ele>168.5</ele>
        <time>2025-10-26T11:01:57Z</time>
      </trkpt>
      <trkpt lat="43.51145" lon="6.69586">
        <ele>168.4</ele>
        <time>2025-10-26T11:01:58Z</time>
      </trkpt>
      <trkpt lat="43.51145" lon="6.69586">
        <ele>168.4</ele>
        <time>2025-10-26T11:01:59Z</time>
      </trkpt>
      <trkpt lat="43.51145" lon="6.69586">
        <ele>168.5</ele>
        <time>2025-10-26T11:02:00Z</time>
      </trkpt>
      <trkpt lat="43.51145" lon="6.69586">
        <ele>168.5</ele>
        <time>2025-10-26T11:02:01Z</time>
      </trkpt>
      <trkpt lat="43.51145" lon="6.69586">
        <ele>168.4</ele>
        <time>2025-10-26T11:02:02Z</time>
      </trkpt>
      <trkpt lat="43.51145" lon="6.69586">
        <ele>168.5</ele>
        <time>2025-10-26T11:02:03Z</time>
      </trkpt>
      <trkpt lat="43.51145" lon="6.69586">
        <ele>168.5</ele>
        <time>2025-10-26T11:02:04Z</time>
      </trkpt>
      <trkpt lat="43.51145" lon="6.69586">
        <ele>168.5</ele>
        <time>2025-10-26T11:02:05Z</time>
      </trkpt>
      <trkpt lat="43.51145" lon="6.69586">
        <ele>168.5</ele>
        <time>2025-10-26T11:02:06Z</time>
      </trkpt>
      <trkpt lat="43.51145" lon="6.69586">
        <ele>168.5</ele>
        <time>2025-10-26T11:02:07Z</time>
      </trkpt>
      <trkpt lat="43.51145" lon="6.69586">
        <ele>168.5</ele>
        <time>2025-10-26T11:02:08Z</time>
      </trkpt>
      <trkpt lat="43.51145" lon="6.69586">
        <ele>168.5</ele>
        <time>2025-10-26T11:02:09Z</time>
      </trkpt>
      <trkpt lat="43.51145" lon="6.69586">
        <ele>168.5</ele>
        <time>2025-10-26T11:02:10Z</time>
      </trkpt>
      <trkpt lat="43.51145" lon="6.69586">
        <ele>168.6</ele>
        <time>2025-10-26T11:02:11Z</time>
      </trkpt>
      <trkpt lat="43.51145" lon="6.69586">
        <ele>168.6</ele>
        <time>2025-10-26T11:02:12Z</time>
      </trkpt>
      <trkpt lat="43.51145" lon="6.69586">
        <ele>168.7</ele>
        <time>2025-10-26T11:02:13Z</time>
      </trkpt>
      <trkpt lat="43.51145" lon="6.69586">
        <ele>168.6</ele>
        <time>2025-10-26T11:02:14Z</time>
      </trkpt>
      <trkpt lat="43.51145" lon="6.69586">
        <ele>168.6</ele>
        <time>2025-10-26T11:02:15Z</time>
      </trkpt>
      <trkpt lat="43.51145" lon="6.69586">
        <ele>168.6</ele>
        <time>2025-10-26T11:02:16Z</time>
      </trkpt>
      <trkpt lat="43.51145" lon="6.69586">
        <ele>168.6</ele>
        <time>2025-10-26T11:02:17Z</time>
      </trkpt>
      <trkpt lat="43.51145" lon="6.69586">
        <ele>168.6</ele>
        <time>2025-10-26T11:02:18Z</time>
      </trkpt>
      <trkpt lat="43.51145" lon="6.69586">
        <ele>168.8</ele>
        <time>2025-10-26T11:02:19Z</time>
      </trkpt>
      <trkpt lat="43.51145" lon="6.69586">
        <ele>168.9</ele>
        <time>2025-10-26T11:02:20Z</time>
      </trkpt>
      <trkpt lat="43.51145" lon="6.69586">
        <ele>168.9</ele>
        <time>2025-10-26T11:02:21Z</time>
      </trkpt>
      <trkpt lat="43.51145" lon="6.69586">
        <ele>168.8</ele>
        <time>2025-10-26T11:02:22Z</time>
      </trkpt>
      <trkpt lat="43.51145" lon="6.69586">
        <ele>168.8</ele>
        <time>2025-10-26T11:02:23Z</time>
      </trkpt>
      <trkpt lat="43.51145" lon="6.69586">
        <ele>168.9</ele>
        <time>2025-10-26T11:02:24Z</time>
      </trkpt>
      <trkpt lat="43.51145" lon="6.69586">
        <ele>168.9</ele>
        <time>2025-10-26T11:02:25Z</time>
      </trkpt>
      <trkpt lat="43.51145" lon="6.69586">
        <ele>168.8</ele>
        <time>2025-10-26T11:02:26Z</time>
      </trkpt>
      <trkpt lat="43.51145" lon="6.69586">
        <ele>168.9</ele>
        <time>2025-10-26T11:02:27Z</time>
      </trkpt>
      <trkpt lat="43.51145" lon="6.69586">
        <ele>168.8</ele>
        <time>2025-10-26T11:02:28Z</time>
      </trkpt>
      <trkpt lat="43.51145" lon="6.69586">
        <ele>168.8</ele>
        <time>2025-10-26T11:02:29Z</time>
      </trkpt>
      <trkpt lat="43.51145" lon="6.69586">
        <ele>168.7</ele>
        <time>2025-10-26T11:02:30Z</time>
      </trkpt>
      <trkpt lat="43.51145" lon="6.69586">
        <ele>168.7</ele>
        <time>2025-10-26T11:02:31Z</time>
      </trkpt>
      <trkpt lat="43.51145" lon="6.69586">
        <ele>168.6</ele>
        <time>2025-10-26T11:02:32Z</time>
      </trkpt>
      <trkpt lat="43.51145" lon="6.69586">
        <ele>168.7</ele>
        <time>2025-10-26T11:02:33Z</time>
      </trkpt>
      <trkpt lat="43.51145" lon="6.69586">
        <ele>168.8</ele>
        <time>2025-10-26T11:02:34Z</time>
      </trkpt>
      <trkpt lat="43.51145" lon="6.69586">
        <ele>168.7</ele>
        <time>2025-10-26T11:02:35Z</time>
      </trkpt>
      <trkpt lat="43.51145" lon="6.69586">
        <ele>168.7</ele>
        <time>2025-10-26T11:02:36Z</time>
      </trkpt>
      <trkpt lat="43.51145" lon="6.69586">
        <ele>168.8</ele>
        <time>2025-10-26T11:02:37Z</time>
      </trkpt>
      <trkpt lat="43.51145" lon="6.69586">
        <ele>168.8</ele>
        <time>2025-10-26T11:02:38Z</time>
      </trkpt>
      <trkpt lat="43.51145" lon="6.69586">
        <ele>168.8</ele>
        <time>2025-10-26T11:02:39Z</time>
      </trkpt>
      <trkpt lat="43.51145" lon="6.69586">
        <ele>168.8</ele>
        <time>2025-10-26T11:02:40Z</time>
      </trkpt>
      <trkpt lat="43.51145" lon="6.69586">
        <ele>168.7</ele>
        <time>2025-10-26T11:02:41Z</time>
      </trkpt>
      <trkpt lat="43.51145" lon="6.69586">
        <ele>168.7</ele>
        <time>2025-10-26T11:02:42Z</time>
      </trkpt>
      <trkpt lat="43.51145" lon="6.69586">
        <ele>168.7</ele>
        <time>2025-10-26T11:02:43Z</time>
      </trkpt>
      <trkpt lat="43.51145" lon="6.69586">
        <ele>168.7</ele>
        <time>2025-10-26T11:02:44Z</time>
      </trkpt>
      <trkpt lat="43.51145" lon="6.69586">
        <ele>168.8</ele>
        <time>2025-10-26T11:02:45Z</time>
      </trkpt>
      <trkpt lat="43.51145" lon="6.69586">
        <ele>168.9</ele>
        <time>2025-10-26T11:02:46Z</time>
      </trkpt>
      <trkpt lat="43.51145" lon="6.69586">
        <ele>169</ele>
        <time>2025-10-26T11:02:47Z</time>
      </trkpt>
      <trkpt lat="43.51145" lon="6.69586">
        <ele>169.1</ele>
        <time>2025-10-26T11:02:48Z</time>
      </trkpt>
      <trkpt lat="43.51145" lon="6.69586">
        <ele>169.1</ele>
        <time>2025-10-26T11:02:49Z</time>
      </trkpt>
      <trkpt lat="43.51145" lon="6.69586">
        <ele>169.2</ele>
        <time>2025-10-26T11:02:50Z</time>
      </trkpt>
      <trkpt lat="43.51145" lon="6.69586">
        <ele>169.2</ele>
        <time>2025-10-26T11:02:51Z</time>
      </trkpt>
      <trkpt lat="43.51145" lon="6.69586">
        <ele>169.3</ele>
        <time>2025-10-26T11:02:52Z</time>
      </trkpt>
      <trkpt lat="43.51145" lon="6.69586">
        <ele>169.3</ele>
        <time>2025-10-26T11:02:53Z</time>
      </trkpt>
      <trkpt lat="43.51145" lon="6.69586">
        <ele>169.3</ele>
        <time>2025-10-26T11:02:54Z</time>
      </trkpt>
      <trkpt lat="43.51145" lon="6.69586">
        <ele>169.4</ele>
        <time>2025-10-26T11:02:55Z</time>
      </trkpt>
      <trkpt lat="43.51145" lon="6.69586">
        <ele>169.4</ele>
        <time>2025-10-26T11:02:56Z</time>
      </trkpt>
      <trkpt lat="43.51145" lon="6.69586">
        <ele>169.4</ele>
        <time>2025-10-26T11:02:57Z</time>
      </trkpt>
      <trkpt lat="43.51145" lon="6.69586">
        <ele>169.4</ele>
        <time>2025-10-26T11:02:58Z</time>
      </trkpt>
      <trkpt lat="43.51145" lon="6.69586">
        <ele>169.5</ele>
        <time>2025-10-26T11:02:59Z</time>
      </trkpt>
      <trkpt lat="43.51145" lon="6.69586">
        <ele>169.5</ele>
        <time>2025-10-26T11:03:00Z</time>
      </trkpt>
      <trkpt lat="43.51145" lon="6.69586">
        <ele>169.6</ele>
        <time>2025-10-26T11:03:01Z</time>
      </trkpt>
      <trkpt lat="43.51145" lon="6.69586">
        <ele>169.6</ele>
        <time>2025-10-26T11:03:02Z</time>
      </trkpt>
      <trkpt lat="43.51145" lon="6.69586">
        <ele>169.6</ele>
        <time>2025-10-26T11:03:03Z</time>
      </trkpt>
      <trkpt lat="43.51145" lon="6.69586">
        <ele>169.7</ele>
        <time>2025-10-26T11:03:04Z</time>
      </trkpt>
      <trkpt lat="43.51145" lon="6.69586">
        <ele>169.7</ele>
        <time>2025-10-26T11:03:05Z</time>
      </trkpt>
      <trkpt lat="43.51145" lon="6.69586">
        <ele>169.8</ele>
        <time>2025-10-26T11:03:06Z</time>
      </trkpt>
      <trkpt lat="43.51145" lon="6.69586">
        <ele>169.8</ele>
        <time>2025-10-26T11:03:07Z</time>
      </trkpt>
      <trkpt lat="43.51145" lon="6.69586">
        <ele>169.8</ele>
        <time>2025-10-26T11:03:08Z</time>
      </trkpt>
      <trkpt lat="43.51145" lon="6.69585">
        <ele>169.8</ele>
        <time>2025-10-26T11:03:09Z</time>
      </trkpt>
      <trkpt lat="43.51144" lon="6.69586">
        <ele>169.7</ele>
        <time>2025-10-26T11:03:10Z</time>
      </trkpt>
      <trkpt lat="43.51144" lon="6.69585">
        <ele>169.7</ele>
        <time>2025-10-26T11:03:11Z</time>
      </trkpt>
      <trkpt lat="43.51144" lon="6.69585">
        <ele>169.6</ele>
        <time>2025-10-26T11:03:12Z</time>
      </trkpt>
      <trkpt lat="43.51144" lon="6.69585">
        <ele>169.6</ele>
        <time>2025-10-26T11:03:13Z</time>
      </trkpt>
      <trkpt lat="43.51144" lon="6.69586">
        <ele>169.6</ele>
        <time>2025-10-26T11:03:14Z</time>
      </trkpt>
      <trkpt lat="43.51144" lon="6.69585">
        <ele>169.5</ele>
        <time>2025-10-26T11:03:15Z</time>
      </trkpt>
      <trkpt lat="43.51144" lon="6.69586">
        <ele>169.5</ele>
        <time>2025-10-26T11:03:16Z</time>
      </trkpt>
      <trkpt lat="43.51144" lon="6.69585">
        <ele>169.4</ele>
        <time>2025-10-26T11:03:17Z</time>
      </trkpt>
      <trkpt lat="43.51144" lon="6.69585">
        <ele>169.4</ele>
        <time>2025-10-26T11:03:18Z</time>
      </trkpt>
      <trkpt lat="43.51144" lon="6.69585">
        <ele>169.3</ele>
        <time>2025-10-26T11:03:19Z</time>
      </trkpt>
      <trkpt lat="43.51144" lon="6.69585">
        <ele>169.2</ele>
        <time>2025-10-26T11:03:20Z</time>
      </trkpt>
      <trkpt lat="43.51144" lon="6.69585">
        <ele>169.2</ele>
        <time>2025-10-26T11:03:21Z</time>
      </trkpt>
      <trkpt lat="43.51144" lon="6.69585">
        <ele>169.1</ele>
        <time>2025-10-26T11:03:22Z</time>
      </trkpt>
      <trkpt lat="43.51144" lon="6.69585">
        <ele>169</ele>
        <time>2025-10-26T11:03:23Z</time>
      </trkpt>
      <trkpt lat="43.51144" lon="6.69585">
        <ele>168.9</ele>
        <time>2025-10-26T11:03:24Z</time>
      </trkpt>
      <trkpt lat="43.51144" lon="6.69585">
        <ele>168.8</ele>
        <time>2025-10-26T11:03:25Z</time>
      </trkpt>
      <trkpt lat="43.51144" lon="6.69585">
        <ele>168.8</ele>
        <time>2025-10-26T11:03:26Z</time>
      </trkpt>
      <trkpt lat="43.51144" lon="6.69585">
        <ele>168.7</ele>
        <time>2025-10-26T11:03:27Z</time>
      </trkpt>
      <trkpt lat="43.51144" lon="6.69585">
        <ele>168.8</ele>
        <time>2025-10-26T11:03:28Z</time>
      </trkpt>
      <trkpt lat="43.51144" lon="6.69585">
        <ele>168.8</ele>
        <time>2025-10-26T11:03:29Z</time>
      </trkpt>
      <trkpt lat="43.51144" lon="6.69585">
        <ele>168.8</ele>
        <time>2025-10-26T11:03:30Z</time>
      </trkpt>
      <trkpt lat="43.51144" lon="6.69585">
        <ele>168.9</ele>
        <time>2025-10-26T11:03:31Z</time>
      </trkpt>
      <trkpt lat="43.51144" lon="6.69585">
        <ele>168.8</ele>
        <time>2025-10-26T11:03:32Z</time>
      </trkpt>
      <trkpt lat="43.51144" lon="6.69585">
        <ele>168.8</ele>
        <time>2025-10-26T11:03:33Z</time>
      </trkpt>
      <trkpt lat="43.51144" lon="6.69585">
        <ele>168.8</ele>
        <time>2025-10-26T11:03:34Z</time>
      </trkpt>
      <trkpt lat="43.51144" lon="6.69585">
        <ele>168.8</ele>
        <time>2025-10-26T11:03:35Z</time>
      </trkpt>
      <trkpt lat="43.51144" lon="6.69585">
        <ele>168.8</ele>
        <time>2025-10-26T11:03:36Z</time>
      </trkpt>
      <trkpt lat="43.51144" lon="6.69585">
        <ele>168.8</ele>
        <time>2025-10-26T11:03:37Z</time>
      </trkpt>
      <trkpt lat="43.51144" lon="6.69585">
        <ele>168.8</ele>
        <time>2025-10-26T11:03:38Z</time>
      </trkpt>
      <trkpt lat="43.51144" lon="6.69585">
        <ele>168.8</ele>
        <time>2025-10-26T11:03:39Z</time>
      </trkpt>
      <trkpt lat="43.51144" lon="6.69585">
        <ele>168.8</ele>
        <time>2025-10-26T11:03:40Z</time>
      </trkpt>
      <trkpt lat="43.51144" lon="6.69585">
        <ele>168.8</ele>
        <time>2025-10-26T11:03:41Z</time>
      </trkpt>
      <trkpt lat="43.51144" lon="6.69585">
        <ele>168.8</ele>
        <time>2025-10-26T11:03:42Z</time>
      </trkpt>
      <trkpt lat="43.51144" lon="6.69585">
        <ele>168.8</ele>
        <time>2025-10-26T11:03:43Z</time>
      </trkpt>
      <trkpt lat="43.51144" lon="6.69585">
        <ele>168.8</ele>
        <time>2025-10-26T11:03:44Z</time>
      </trkpt>
      <trkpt lat="43.51144" lon="6.69585">
        <ele>168.9</ele>
        <time>2025-10-26T11:03:45Z</time>
      </trkpt>
      <trkpt lat="43.51144" lon="6.69585">
        <ele>168.9</ele>
        <time>2025-10-26T11:03:46Z</time>
      </trkpt>
      <trkpt lat="43.51144" lon="6.69585">
        <ele>169</ele>
        <time>2025-10-26T11:03:47Z</time>
      </trkpt>
      <trkpt lat="43.51144" lon="6.69585">
        <ele>169.1</ele>
        <time>2025-10-26T11:03:48Z</time>
      </trkpt>
      <trkpt lat="43.51144" lon="6.69585">
        <ele>169.1</ele>
        <time>2025-10-26T11:03:49Z</time>
      </trkpt>
      <trkpt lat="43.51144" lon="6.69585">
        <ele>169.2</ele>
        <time>2025-10-26T11:03:50Z</time>
      </trkpt>
      <trkpt lat="43.51144" lon="6.69585">
        <ele>169.2</ele>
        <time>2025-10-26T11:03:51Z</time>
      </trkpt>
      <trkpt lat="43.51144" lon="6.69585">
        <ele>169.2</ele>
        <time>2025-10-26T11:03:52Z</time>
      </trkpt>
      <trkpt lat="43.51144" lon="6.69585">
        <ele>169.3</ele>
        <time>2025-10-26T11:03:53Z</time>
      </trkpt>
      <trkpt lat="43.51144" lon="6.69585">
        <ele>169.3</ele>
        <time>2025-10-26T11:03:54Z</time>
      </trkpt>
      <trkpt lat="43.51144" lon="6.69584">
        <ele>169.2</ele>
        <time>2025-10-26T11:03:55Z</time>
      </trkpt>
      <trkpt lat="43.51144" lon="6.69584">
        <ele>169.2</ele>
        <time>2025-10-26T11:03:56Z</time>
      </trkpt>
      <trkpt lat="43.51144" lon="6.69584">
        <ele>169.1</ele>
        <time>2025-10-26T11:03:57Z</time>
      </trkpt>
      <trkpt lat="43.51144" lon="6.69584">
        <ele>169.1</ele>
        <time>2025-10-26T11:03:58Z</time>
      </trkpt>
      <trkpt lat="43.51143" lon="6.69584">
        <ele>169</ele>
        <time>2025-10-26T11:03:59Z</time>
      </trkpt>
      <trkpt lat="43.51143" lon="6.69584">
        <ele>169</ele>
        <time>2025-10-26T11:04:00Z</time>
      </trkpt>
      <trkpt lat="43.51143" lon="6.69584">
        <ele>169</ele>
        <time>2025-10-26T11:04:01Z</time>
      </trkpt>
      <trkpt lat="43.51143" lon="6.69584">
        <ele>169.1</ele>
        <time>2025-10-26T11:04:02Z</time>
      </trkpt>
      <trkpt lat="43.51143" lon="6.69584">
        <ele>169.1</ele>
        <time>2025-10-26T11:04:03Z</time>
      </trkpt>
      <trkpt lat="43.51143" lon="6.69584">
        <ele>169.1</ele>
        <time>2025-10-26T11:04:04Z</time>
      </trkpt>
      <trkpt lat="43.51143" lon="6.69584">
        <ele>169.1</ele>
        <time>2025-10-26T11:04:05Z</time>
      </trkpt>
      <trkpt lat="43.51143" lon="6.69584">
        <ele>169.1</ele>
        <time>2025-10-26T11:04:06Z</time>
      </trkpt>
      <trkpt lat="43.51143" lon="6.69584">
        <ele>169.1</ele>
        <time>2025-10-26T11:04:07Z</time>
      </trkpt>
      <trkpt lat="43.51144" lon="6.69584">
        <ele>169.1</ele>
        <time>2025-10-26T11:04:08Z</time>
      </trkpt>
      <trkpt lat="43.51144" lon="6.69584">
        <ele>169.1</ele>
        <time>2025-10-26T11:04:09Z</time>
      </trkpt>
      <trkpt lat="43.51144" lon="6.69584">
        <ele>169.2</ele>
        <time>2025-10-26T11:04:10Z</time>
      </trkpt>
      <trkpt lat="43.51144" lon="6.69584">
        <ele>169.2</ele>
        <time>2025-10-26T11:04:11Z</time>
      </trkpt>
      <trkpt lat="43.51144" lon="6.69584">
        <ele>169.3</ele>
        <time>2025-10-26T11:04:12Z</time>
      </trkpt>
      <trkpt lat="43.51144" lon="6.69584">
        <ele>169.3</ele>
        <time>2025-10-26T11:04:13Z</time>
      </trkpt>
      <trkpt lat="43.51144" lon="6.69584">
        <ele>169.3</ele>
        <time>2025-10-26T11:04:14Z</time>
      </trkpt>
      <trkpt lat="43.51144" lon="6.69584">
        <ele>169.2</ele>
        <time>2025-10-26T11:04:15Z</time>
      </trkpt>
      <trkpt lat="43.51144" lon="6.69584">
        <ele>169.1</ele>
        <time>2025-10-26T11:04:16Z</time>
      </trkpt>
      <trkpt lat="43.51144" lon="6.69584">
        <ele>169.1</ele>
        <time>2025-10-26T11:04:17Z</time>
      </trkpt>
      <trkpt lat="43.51144" lon="6.69584">
        <ele>169.1</ele>
        <time>2025-10-26T11:04:18Z</time>
      </trkpt>
      <trkpt lat="43.51144" lon="6.69584">
        <ele>168.9</ele>
        <time>2025-10-26T11:04:19Z</time>
      </trkpt>
      <trkpt lat="43.51144" lon="6.69584">
        <ele>168.9</ele>
        <time>2025-10-26T11:04:20Z</time>
      </trkpt>
      <trkpt lat="43.51144" lon="6.69584">
        <ele>168.8</ele>
        <time>2025-10-26T11:04:21Z</time>
      </trkpt>
      <trkpt lat="43.51144" lon="6.69584">
        <ele>168.8</ele>
        <time>2025-10-26T11:04:22Z</time>
      </trkpt>
      <trkpt lat="43.51144" lon="6.69584">
        <ele>168.8</ele>
        <time>2025-10-26T11:04:23Z</time>
      </trkpt>
      <trkpt lat="43.51144" lon="6.69584">
        <ele>168.8</ele>
        <time>2025-10-26T11:04:24Z</time>
      </trkpt>
      <trkpt lat="43.51144" lon="6.69584">
        <ele>168.8</ele>
        <time>2025-10-26T11:04:25Z</time>
      </trkpt>
      <trkpt lat="43.51144" lon="6.69584">
        <ele>168.7</ele>
        <time>2025-10-26T11:04:26Z</time>
      </trkpt>
      <trkpt lat="43.51144" lon="6.69584">
        <ele>168.7</ele>
        <time>2025-10-26T11:04:27Z</time>
      </trkpt>
      <trkpt lat="43.51144" lon="6.69584">
        <ele>168.7</ele>
        <time>2025-10-26T11:04:28Z</time>
      </trkpt>
      <trkpt lat="43.51144" lon="6.69584">
        <ele>168.6</ele>
        <time>2025-10-26T11:04:29Z</time>
      </trkpt>
      <trkpt lat="43.51144" lon="6.69584">
        <ele>168.5</ele>
        <time>2025-10-26T11:04:30Z</time>
      </trkpt>
      <trkpt lat="43.51144" lon="6.69584">
        <ele>168.4</ele>
        <time>2025-10-26T11:04:31Z</time>
      </trkpt>
      <trkpt lat="43.51143" lon="6.69584">
        <ele>168.3</ele>
        <time>2025-10-26T11:04:32Z</time>
      </trkpt>
      <trkpt lat="43.51143" lon="6.69584">
        <ele>168.4</ele>
        <time>2025-10-26T11:04:33Z</time>
      </trkpt>
      <trkpt lat="43.51143" lon="6.69584">
        <ele>168.5</ele>
        <time>2025-10-26T11:04:34Z</time>
      </trkpt>
      <trkpt lat="43.51143" lon="6.69585">
        <ele>168.5</ele>
        <time>2025-10-26T11:04:35Z</time>
      </trkpt>
      <trkpt lat="43.51143" lon="6.69585">
        <ele>168.5</ele>
        <time>2025-10-26T11:04:36Z</time>
      </trkpt>
      <trkpt lat="43.51143" lon="6.69585">
        <ele>168.4</ele>
        <time>2025-10-26T11:04:37Z</time>
      </trkpt>
      <trkpt lat="43.51143" lon="6.69585">
        <ele>168.4</ele>
        <time>2025-10-26T11:04:38Z</time>
      </trkpt>
      <trkpt lat="43.51143" lon="6.69585">
        <ele>168.4</ele>
        <time>2025-10-26T11:04:39Z</time>
      </trkpt>
      <trkpt lat="43.51143" lon="6.69584">
        <ele>168.4</ele>
        <time>2025-10-26T11:04:40Z</time>
      </trkpt>
      <trkpt lat="43.51143" lon="6.69584">
        <ele>168.5</ele>
        <time>2025-10-26T11:04:41Z</time>
      </trkpt>
      <trkpt lat="43.51143" lon="6.69584">
        <ele>168.6</ele>
        <time>2025-10-26T11:04:42Z</time>
      </trkpt>
      <trkpt lat="43.51143" lon="6.69584">
        <ele>168.7</ele>
        <time>2025-10-26T11:04:43Z</time>
      </trkpt>
      <trkpt lat="43.51143" lon="6.69584">
        <ele>168.7</ele>
        <time>2025-10-26T11:04:44Z</time>
      </trkpt>
      <trkpt lat="43.51143" lon="6.69584">
        <ele>168.8</ele>
        <time>2025-10-26T11:04:45Z</time>
      </trkpt>
      <trkpt lat="43.51143" lon="6.69584">
        <ele>168.8</ele>
        <time>2025-10-26T11:04:46Z</time>
      </trkpt>
      <trkpt lat="43.51143" lon="6.69585">
        <ele>168.8</ele>
        <time>2025-10-26T11:04:47Z</time>
      </trkpt>
      <trkpt lat="43.51143" lon="6.69585">
        <ele>168.9</ele>
        <time>2025-10-26T11:04:48Z</time>
      </trkpt>
      <trkpt lat="43.51143" lon="6.69585">
        <ele>168.9</ele>
        <time>2025-10-26T11:04:49Z</time>
      </trkpt>
      <trkpt lat="43.51143" lon="6.69585">
        <ele>168.9</ele>
        <time>2025-10-26T11:04:50Z</time>
      </trkpt>
      <trkpt lat="43.51143" lon="6.69585">
        <ele>168.8</ele>
        <time>2025-10-26T11:04:51Z</time>
      </trkpt>
      <trkpt lat="43.51143" lon="6.69585">
        <ele>168.7</ele>
        <time>2025-10-26T11:04:52Z</time>
      </trkpt>
      <trkpt lat="43.51143" lon="6.69585">
        <ele>168.6</ele>
        <time>2025-10-26T11:04:53Z</time>
      </trkpt>
      <trkpt lat="43.51143" lon="6.69585">
        <ele>168.6</ele>
        <time>2025-10-26T11:04:54Z</time>
      </trkpt>
      <trkpt lat="43.51143" lon="6.69585">
        <ele>168.7</ele>
        <time>2025-10-26T11:04:55Z</time>
      </trkpt>
      <trkpt lat="43.51143" lon="6.69585">
        <ele>168.8</ele>
        <time>2025-10-26T11:04:56Z</time>
      </trkpt>
      <trkpt lat="43.51143" lon="6.69585">
        <ele>168.9</ele>
        <time>2025-10-26T11:04:57Z</time>
      </trkpt>
      <trkpt lat="43.51144" lon="6.69585">
        <ele>169</ele>
        <time>2025-10-26T11:04:58Z</time>
      </trkpt>
      <trkpt lat="43.51144" lon="6.69585">
        <ele>169.1</ele>
        <time>2025-10-26T11:04:59Z</time>
      </trkpt>
      <trkpt lat="43.51144" lon="6.69585">
        <ele>169.2</ele>
        <time>2025-10-26T11:05:00Z</time>
      </trkpt>
      <trkpt lat="43.51144" lon="6.69585">
        <ele>169.3</ele>
        <time>2025-10-26T11:05:01Z</time>
      </trkpt>
      <trkpt lat="43.51144" lon="6.69585">
        <ele>169.4</ele>
        <time>2025-10-26T11:05:02Z</time>
      </trkpt>
      <trkpt lat="43.51144" lon="6.69585">
        <ele>169.4</ele>
        <time>2025-10-26T11:05:03Z</time>
      </trkpt>
      <trkpt lat="43.51144" lon="6.69585">
        <ele>169.2</ele>
        <time>2025-10-26T11:05:04Z</time>
      </trkpt>
      <trkpt lat="43.51144" lon="6.69585">
        <ele>169.2</ele>
        <time>2025-10-26T11:05:05Z</time>
      </trkpt>
      <trkpt lat="43.51144" lon="6.69585">
        <ele>169.1</ele>
        <time>2025-10-26T11:05:06Z</time>
      </trkpt>
      <trkpt lat="43.51144" lon="6.69585">
        <ele>169</ele>
        <time>2025-10-26T11:05:07Z</time>
      </trkpt>
      <trkpt lat="43.51144" lon="6.69585">
        <ele>169</ele>
        <time>2025-10-26T11:05:08Z</time>
      </trkpt>
      <trkpt lat="43.51144" lon="6.69585">
        <ele>169</ele>
        <time>2025-10-26T11:05:09Z</time>
      </trkpt>
      <trkpt lat="43.51144" lon="6.69585">
        <ele>169</ele>
        <time>2025-10-26T11:05:10Z</time>
      </trkpt>
      <trkpt lat="43.51144" lon="6.69585">
        <ele>169</ele>
        <time>2025-10-26T11:05:11Z</time>
      </trkpt>
      <trkpt lat="43.51144" lon="6.69585">
        <ele>169</ele>
        <time>2025-10-26T11:05:12Z</time>
      </trkpt>
      <trkpt lat="43.51144" lon="6.69585">
        <ele>169</ele>
        <time>2025-10-26T11:05:13Z</time>
      </trkpt>
      <trkpt lat="43.51144" lon="6.69585">
        <ele>169</ele>
        <time>2025-10-26T11:05:14Z</time>
      </trkpt>
      <trkpt lat="43.51144" lon="6.69585">
        <ele>168.9</ele>
        <time>2025-10-26T11:05:15Z</time>
      </trkpt>
      <trkpt lat="43.51144" lon="6.69585">
        <ele>169</ele>
        <time>2025-10-26T11:05:16Z</time>
      </trkpt>
      <trkpt lat="43.51144" lon="6.69585">
        <ele>168.9</ele>
        <time>2025-10-26T11:05:17Z</time>
      </trkpt>
      <trkpt lat="43.51144" lon="6.69585">
        <ele>169</ele>
        <time>2025-10-26T11:05:18Z</time>
      </trkpt>
      <trkpt lat="43.51144" lon="6.69585">
        <ele>169</ele>
        <time>2025-10-26T11:05:19Z</time>
      </trkpt>
      <trkpt lat="43.51144" lon="6.69585">
        <ele>169.1</ele>
        <time>2025-10-26T11:05:20Z</time>
      </trkpt>
      <trkpt lat="43.51144" lon="6.69585">
        <ele>169.2</ele>
        <time>2025-10-26T11:05:21Z</time>
      </trkpt>
      <trkpt lat="43.51144" lon="6.69585">
        <ele>169.2</ele>
        <time>2025-10-26T11:05:22Z</time>
      </trkpt>
      <trkpt lat="43.51144" lon="6.69585">
        <ele>169.3</ele>
        <time>2025-10-26T11:05:23Z</time>
      </trkpt>
      <trkpt lat="43.51144" lon="6.69585">
        <ele>169.3</ele>
        <time>2025-10-26T11:05:24Z</time>
      </trkpt>
      <trkpt lat="43.51144" lon="6.69585">
        <ele>169.3</ele>
        <time>2025-10-26T11:05:25Z</time>
      </trkpt>
      <trkpt lat="43.51144" lon="6.69585">
        <ele>169.3</ele>
        <time>2025-10-26T11:05:26Z</time>
      </trkpt>
      <trkpt lat="43.51144" lon="6.69585">
        <ele>169.4</ele>
        <time>2025-10-26T11:05:27Z</time>
      </trkpt>
      <trkpt lat="43.51144" lon="6.69585">
        <ele>169.4</ele>
        <time>2025-10-26T11:05:28Z</time>
      </trkpt>
      <trkpt lat="43.51144" lon="6.69585">
        <ele>169.5</ele>
        <time>2025-10-26T11:05:29Z</time>
      </trkpt>
      <trkpt lat="43.51144" lon="6.69585">
        <ele>169.5</ele>
        <time>2025-10-26T11:05:30Z</time>
      </trkpt>
      <trkpt lat="43.51144" lon="6.69585">
        <ele>169.4</ele>
        <time>2025-10-26T11:05:31Z</time>
      </trkpt>
      <trkpt lat="43.51144" lon="6.69585">
        <ele>169.4</ele>
        <time>2025-10-26T11:05:32Z</time>
      </trkpt>
      <trkpt lat="43.51144" lon="6.69585">
        <ele>169.5</ele>
        <time>2025-10-26T11:05:33Z</time>
      </trkpt>
      <trkpt lat="43.51144" lon="6.69585">
        <ele>169.4</ele>
        <time>2025-10-26T11:05:34Z</time>
      </trkpt>
      <trkpt lat="43.51144" lon="6.69585">
        <ele>169.4</ele>
        <time>2025-10-26T11:05:35Z</time>
      </trkpt>
      <trkpt lat="43.51144" lon="6.69585">
        <ele>169.4</ele>
        <time>2025-10-26T11:05:36Z</time>
      </trkpt>
      <trkpt lat="43.51144" lon="6.69585">
        <ele>169.4</ele>
        <time>2025-10-26T11:05:37Z</time>
      </trkpt>
      <trkpt lat="43.51144" lon="6.69585">
        <ele>169.5</ele>
        <time>2025-10-26T11:05:38Z</time>
      </trkpt>
      <trkpt lat="43.51144" lon="6.69586">
        <ele>169.6</ele>
        <time>2025-10-26T11:05:39Z</time>
      </trkpt>
      <trkpt lat="43.51144" lon="6.69586">
        <ele>169.7</ele>
        <time>2025-10-26T11:05:40Z</time>
      </trkpt>
      <trkpt lat="43.51144" lon="6.69586">
        <ele>169.7</ele>
        <time>2025-10-26T11:05:41Z</time>
      </trkpt>
      <trkpt lat="43.51144" lon="6.69586">
        <ele>169.8</ele>
        <time>2025-10-26T11:05:42Z</time>
      </trkpt>
      <trkpt lat="43.51144" lon="6.69586">
        <ele>169.9</ele>
        <time>2025-10-26T11:05:43Z</time>
      </trkpt>
      <trkpt lat="43.51144" lon="6.69586">
        <ele>169.9</ele>
        <time>2025-10-26T11:05:44Z</time>
      </trkpt>
      <trkpt lat="43.51144" lon="6.69586">
        <ele>169.9</ele>
        <time>2025-10-26T11:05:45Z</time>
      </trkpt>
      <trkpt lat="43.51144" lon="6.69586">
        <ele>170</ele>
        <time>2025-10-26T11:05:46Z</time>
      </trkpt>
      <trkpt lat="43.51144" lon="6.69586">
        <ele>170</ele>
        <time>2025-10-26T11:05:47Z</time>
      </trkpt>
      <trkpt lat="43.51144" lon="6.69586">
        <ele>170.1</ele>
        <time>2025-10-26T11:05:48Z</time>
      </trkpt>
      <trkpt lat="43.51144" lon="6.69586">
        <ele>170.2</ele>
        <time>2025-10-26T11:05:49Z</time>
      </trkpt>
      <trkpt lat="43.51144" lon="6.69586">
        <ele>170.2</ele>
        <time>2025-10-26T11:05:50Z</time>
      </trkpt>
      <trkpt lat="43.51144" lon="6.69586">
        <ele>170.3</ele>
        <time>2025-10-26T11:05:51Z</time>
      </trkpt>
      <trkpt lat="43.51144" lon="6.69586">
        <ele>170.3</ele>
        <time>2025-10-26T11:05:52Z</time>
      </trkpt>
      <trkpt lat="43.51144" lon="6.69586">
        <ele>170.2</ele>
        <time>2025-10-26T11:05:53Z</time>
      </trkpt>
      <trkpt lat="43.51144" lon="6.69586">
        <ele>170.2</ele>
        <time>2025-10-26T11:05:54Z</time>
      </trkpt>
      <trkpt lat="43.51144" lon="6.69586">
        <ele>170.1</ele>
        <time>2025-10-26T11:05:55Z</time>
      </trkpt>
      <trkpt lat="43.51144" lon="6.69586">
        <ele>170.1</ele>
        <time>2025-10-26T11:05:56Z</time>
      </trkpt>
      <trkpt lat="43.51144" lon="6.69586">
        <ele>170</ele>
        <time>2025-10-26T11:05:57Z</time>
      </trkpt>
      <trkpt lat="43.51144" lon="6.69586">
        <ele>169.9</ele>
        <time>2025-10-26T11:05:58Z</time>
      </trkpt>
      <trkpt lat="43.51144" lon="6.69586">
        <ele>169.8</ele>
        <time>2025-10-26T11:05:59Z</time>
      </trkpt>
      <trkpt lat="43.51144" lon="6.69586">
        <ele>169.7</ele>
        <time>2025-10-26T11:06:00Z</time>
      </trkpt>
      <trkpt lat="43.51144" lon="6.69586">
        <ele>169.6</ele>
        <time>2025-10-26T11:06:01Z</time>
      </trkpt>
      <trkpt lat="43.51144" lon="6.69586">
        <ele>169.6</ele>
        <time>2025-10-26T11:06:02Z</time>
      </trkpt>
      <trkpt lat="43.51144" lon="6.69586">
        <ele>169.6</ele>
        <time>2025-10-26T11:06:03Z</time>
      </trkpt>
      <trkpt lat="43.51144" lon="6.69586">
        <ele>169.6</ele>
        <time>2025-10-26T11:06:04Z</time>
      </trkpt>
      <trkpt lat="43.51144" lon="6.69586">
        <ele>169.6</ele>
        <time>2025-10-26T11:06:05Z</time>
      </trkpt>
      <trkpt lat="43.51144" lon="6.69586">
        <ele>169.6</ele>
        <time>2025-10-26T11:06:06Z</time>
      </trkpt>
      <trkpt lat="43.51144" lon="6.69586">
        <ele>169.5</ele>
        <time>2025-10-26T11:06:07Z</time>
      </trkpt>
      <trkpt lat="43.51144" lon="6.69586">
        <ele>169.6</ele>
        <time>2025-10-26T11:06:08Z</time>
      </trkpt>
      <trkpt lat="43.51144" lon="6.69586">
        <ele>169.6</ele>
        <time>2025-10-26T11:06:09Z</time>
      </trkpt>
      <trkpt lat="43.51144" lon="6.69586">
        <ele>169.5</ele>
        <time>2025-10-26T11:06:10Z</time>
      </trkpt>
      <trkpt lat="43.51144" lon="6.69586">
        <ele>169.4</ele>
        <time>2025-10-26T11:06:11Z</time>
      </trkpt>
      <trkpt lat="43.51144" lon="6.69586">
        <ele>169.3</ele>
        <time>2025-10-26T11:06:12Z</time>
      </trkpt>
      <trkpt lat="43.51144" lon="6.69586">
        <ele>169.3</ele>
        <time>2025-10-26T11:06:13Z</time>
      </trkpt>
      <trkpt lat="43.51144" lon="6.69586">
        <ele>169.2</ele>
        <time>2025-10-26T11:06:14Z</time>
      </trkpt>
      <trkpt lat="43.51144" lon="6.69586">
        <ele>169.2</ele>
        <time>2025-10-26T11:06:15Z</time>
      </trkpt>
      <trkpt lat="43.51144" lon="6.69586">
        <ele>169.1</ele>
        <time>2025-10-26T11:06:16Z</time>
      </trkpt>
      <trkpt lat="43.51144" lon="6.69586">
        <ele>169.1</ele>
        <time>2025-10-26T11:06:17Z</time>
      </trkpt>
      <trkpt lat="43.51144" lon="6.69586">
        <ele>169.1</ele>
        <time>2025-10-26T11:06:18Z</time>
      </trkpt>
      <trkpt lat="43.51144" lon="6.69586">
        <ele>169</ele>
        <time>2025-10-26T11:06:19Z</time>
      </trkpt>
      <trkpt lat="43.51144" lon="6.69586">
        <ele>169</ele>
        <time>2025-10-26T11:06:20Z</time>
      </trkpt>
      <trkpt lat="43.51144" lon="6.69586">
        <ele>169</ele>
        <time>2025-10-26T11:06:21Z</time>
      </trkpt>
      <trkpt lat="43.51144" lon="6.69586">
        <ele>169.1</ele>
        <time>2025-10-26T11:06:22Z</time>
      </trkpt>
      <trkpt lat="43.51144" lon="6.69586">
        <ele>169.1</ele>
        <time>2025-10-26T11:06:23Z</time>
      </trkpt>
      <trkpt lat="43.51144" lon="6.69586">
        <ele>169.1</ele>
        <time>2025-10-26T11:06:24Z</time>
      </trkpt>
      <trkpt lat="43.51144" lon="6.69586">
        <ele>169.1</ele>
        <time>2025-10-26T11:06:25Z</time>
      </trkpt>
      <trkpt lat="43.51144" lon="6.69586">
        <ele>169.1</ele>
        <time>2025-10-26T11:06:26Z</time>
      </trkpt>
      <trkpt lat="43.51144" lon="6.69586">
        <ele>169.1</ele>
        <time>2025-10-26T11:06:27Z</time>
      </trkpt>
      <trkpt lat="43.51144" lon="6.69586">
        <ele>169.1</ele>
        <time>2025-10-26T11:06:28Z</time>
      </trkpt>
      <trkpt lat="43.51144" lon="6.69586">
        <ele>169.1</ele>
        <time>2025-10-26T11:06:29Z</time>
      </trkpt>
      <trkpt lat="43.51144" lon="6.69586">
        <ele>169</ele>
        <time>2025-10-26T11:06:30Z</time>
      </trkpt>
      <trkpt lat="43.51144" lon="6.69586">
        <ele>169</ele>
        <time>2025-10-26T11:06:31Z</time>
      </trkpt>
      <trkpt lat="43.51144" lon="6.69586">
        <ele>169</ele>
        <time>2025-10-26T11:06:32Z</time>
      </trkpt>
      <trkpt lat="43.51144" lon="6.69586">
        <ele>168.9</ele>
        <time>2025-10-26T11:06:33Z</time>
      </trkpt>
      <trkpt lat="43.51144" lon="6.69586">
        <ele>168.9</ele>
        <time>2025-10-26T11:06:34Z</time>
      </trkpt>
      <trkpt lat="43.51144" lon="6.69586">
        <ele>169</ele>
        <time>2025-10-26T11:06:35Z</time>
      </trkpt>
      <trkpt lat="43.51144" lon="6.69586">
        <ele>169</ele>
        <time>2025-10-26T11:06:36Z</time>
      </trkpt>
      <trkpt lat="43.51144" lon="6.69586">
        <ele>169</ele>
        <time>2025-10-26T11:06:37Z</time>
      </trkpt>
      <trkpt lat="43.51144" lon="6.69586">
        <ele>169</ele>
        <time>2025-10-26T11:06:38Z</time>
      </trkpt>
      <trkpt lat="43.51144" lon="6.69586">
        <ele>169</ele>
        <time>2025-10-26T11:06:39Z</time>
      </trkpt>
      <trkpt lat="43.51144" lon="6.69586">
        <ele>169</ele>
        <time>2025-10-26T11:06:40Z</time>
      </trkpt>
      <trkpt lat="43.51144" lon="6.69586">
        <ele>169</ele>
        <time>2025-10-26T11:06:41Z</time>
      </trkpt>
      <trkpt lat="43.51144" lon="6.69586">
        <ele>169</ele>
        <time>2025-10-26T11:06:42Z</time>
      </trkpt>
      <trkpt lat="43.51144" lon="6.69586">
        <ele>169</ele>
        <time>2025-10-26T11:06:43Z</time>
      </trkpt>
      <trkpt lat="43.51144" lon="6.69586">
        <ele>169</ele>
        <time>2025-10-26T11:06:44Z</time>
      </trkpt>
      <trkpt lat="43.51144" lon="6.69586">
        <ele>169</ele>
        <time>2025-10-26T11:06:45Z</time>
      </trkpt>
      <trkpt lat="43.51144" lon="6.69586">
        <ele>169</ele>
        <time>2025-10-26T11:06:46Z</time>
      </trkpt>
      <trkpt lat="43.51144" lon="6.69586">
        <ele>169</ele>
        <time>2025-10-26T11:06:47Z</time>
      </trkpt>
      <trkpt lat="43.51144" lon="6.69586">
        <ele>169</ele>
        <time>2025-10-26T11:06:48Z</time>
      </trkpt>
      <trkpt lat="43.51144" lon="6.69586">
        <ele>169</ele>
        <time>2025-10-26T11:06:49Z</time>
      </trkpt>
      <trkpt lat="43.51144" lon="6.69586">
        <ele>169</ele>
        <time>2025-10-26T11:06:50Z</time>
      </trkpt>
      <trkpt lat="43.51144" lon="6.69586">
        <ele>169.1</ele>
        <time>2025-10-26T11:06:51Z</time>
      </trkpt>
      <trkpt lat="43.51144" lon="6.69586">
        <ele>169</ele>
        <time>2025-10-26T11:06:52Z</time>
      </trkpt>
      <trkpt lat="43.51144" lon="6.69586">
        <ele>169</ele>
        <time>2025-10-26T11:06:53Z</time>
      </trkpt>
      <trkpt lat="43.51144" lon="6.69586">
        <ele>169</ele>
        <time>2025-10-26T11:06:54Z</time>
      </trkpt>
      <trkpt lat="43.51144" lon="6.69586">
        <ele>169</ele>
        <time>2025-10-26T11:06:55Z</time>
      </trkpt>
      <trkpt lat="43.51144" lon="6.69586">
        <ele>169</ele>
        <time>2025-10-26T11:06:56Z</time>
      </trkpt>
      <trkpt lat="43.51144" lon="6.69586">
        <ele>168.9</ele>
        <time>2025-10-26T11:06:57Z</time>
      </trkpt>
      <trkpt lat="43.51144" lon="6.69586">
        <ele>168.9</ele>
        <time>2025-10-26T11:06:58Z</time>
      </trkpt>
      <trkpt lat="43.51144" lon="6.69586">
        <ele>168.9</ele>
        <time>2025-10-26T11:06:59Z</time>
      </trkpt>
      <trkpt lat="43.51144" lon="6.69586">
        <ele>168.8</ele>
        <time>2025-10-26T11:07:00Z</time>
      </trkpt>
      <trkpt lat="43.51144" lon="6.69586">
        <ele>168.8</ele>
        <time>2025-10-26T11:07:01Z</time>
      </trkpt>
      <trkpt lat="43.51144" lon="6.69586">
        <ele>168.7</ele>
        <time>2025-10-26T11:07:02Z</time>
      </trkpt>
      <trkpt lat="43.51144" lon="6.69586">
        <ele>168.6</ele>
        <time>2025-10-26T11:07:03Z</time>
      </trkpt>
      <trkpt lat="43.51144" lon="6.69586">
        <ele>168.7</ele>
        <time>2025-10-26T11:07:04Z</time>
      </trkpt>
      <trkpt lat="43.51144" lon="6.69586">
        <ele>168.9</ele>
        <time>2025-10-26T11:07:05Z</time>
      </trkpt>
      <trkpt lat="43.51145" lon="6.69586">
        <ele>168.9</ele>
        <time>2025-10-26T11:07:06Z</time>
      </trkpt>
      <trkpt lat="43.51145" lon="6.69586">
        <ele>169</ele>
        <time>2025-10-26T11:07:07Z</time>
      </trkpt>
      <trkpt lat="43.51145" lon="6.69586">
        <ele>169</ele>
        <time>2025-10-26T11:07:08Z</time>
      </trkpt>
      <trkpt lat="43.51145" lon="6.69586">
        <ele>169.1</ele>
        <time>2025-10-26T11:07:09Z</time>
      </trkpt>
      <trkpt lat="43.51145" lon="6.69586">
        <ele>169.1</ele>
        <time>2025-10-26T11:07:10Z</time>
      </trkpt>
      <trkpt lat="43.51145" lon="6.69586">
        <ele>169.2</ele>
        <time>2025-10-26T11:07:11Z</time>
      </trkpt>
      <trkpt lat="43.51145" lon="6.69586">
        <ele>169.2</ele>
        <time>2025-10-26T11:07:12Z</time>
      </trkpt>
      <trkpt lat="43.51145" lon="6.69586">
        <ele>169.2</ele>
        <time>2025-10-26T11:07:13Z</time>
      </trkpt>
      <trkpt lat="43.51145" lon="6.69586">
        <ele>169.1</ele>
        <time>2025-10-26T11:07:14Z</time>
      </trkpt>
      <trkpt lat="43.51145" lon="6.69586">
        <ele>169.1</ele>
        <time>2025-10-26T11:07:15Z</time>
      </trkpt>
      <trkpt lat="43.51145" lon="6.69586">
        <ele>169.1</ele>
        <time>2025-10-26T11:07:16Z</time>
      </trkpt>
      <trkpt lat="43.51145" lon="6.69586">
        <ele>169.1</ele>
        <time>2025-10-26T11:07:17Z</time>
      </trkpt>
      <trkpt lat="43.51145" lon="6.69586">
        <ele>169.1</ele>
        <time>2025-10-26T11:07:18Z</time>
      </trkpt>
      <trkpt lat="43.51145" lon="6.69586">
        <ele>169.1</ele>
        <time>2025-10-26T11:07:19Z</time>
      </trkpt>
      <trkpt lat="43.51145" lon="6.69586">
        <ele>169.2</ele>
        <time>2025-10-26T11:07:20Z</time>
      </trkpt>
      <trkpt lat="43.51145" lon="6.69586">
        <ele>169.2</ele>
        <time>2025-10-26T11:07:21Z</time>
      </trkpt>
      <trkpt lat="43.51145" lon="6.69586">
        <ele>169.3</ele>
        <time>2025-10-26T11:07:22Z</time>
      </trkpt>
      <trkpt lat="43.51145" lon="6.69586">
        <ele>169.4</ele>
        <time>2025-10-26T11:07:23Z</time>
      </trkpt>
      <trkpt lat="43.51145" lon="6.69586">
        <ele>169.4</ele>
        <time>2025-10-26T11:07:24Z</time>
      </trkpt>
      <trkpt lat="43.51145" lon="6.69586">
        <ele>169.5</ele>
        <time>2025-10-26T11:07:25Z</time>
      </trkpt>
      <trkpt lat="43.51145" lon="6.69586">
        <ele>169.4</ele>
        <time>2025-10-26T11:07:26Z</time>
      </trkpt>
      <trkpt lat="43.51145" lon="6.69586">
        <ele>169.4</ele>
        <time>2025-10-26T11:07:27Z</time>
      </trkpt>
      <trkpt lat="43.51145" lon="6.69586">
        <ele>169.4</ele>
        <time>2025-10-26T11:07:28Z</time>
      </trkpt>
      <trkpt lat="43.51145" lon="6.69586">
        <ele>169.5</ele>
        <time>2025-10-26T11:07:29Z</time>
      </trkpt>
      <trkpt lat="43.51145" lon="6.69586">
        <ele>169.5</ele>
        <time>2025-10-26T11:07:30Z</time>
      </trkpt>
      <trkpt lat="43.51145" lon="6.69586">
        <ele>169.5</ele>
        <time>2025-10-26T11:07:31Z</time>
      </trkpt>
      <trkpt lat="43.51145" lon="6.69586">
        <ele>169.5</ele>
        <time>2025-10-26T11:07:32Z</time>
      </trkpt>
      <trkpt lat="43.51145" lon="6.69586">
        <ele>169.5</ele>
        <time>2025-10-26T11:07:33Z</time>
      </trkpt>
      <trkpt lat="43.51145" lon="6.69586">
        <ele>169.3</ele>
        <time>2025-10-26T11:07:34Z</time>
      </trkpt>
      <trkpt lat="43.51145" lon="6.69586">
        <ele>169.3</ele>
        <time>2025-10-26T11:07:35Z</time>
      </trkpt>
      <trkpt lat="43.51145" lon="6.69586">
        <ele>169.2</ele>
        <time>2025-10-26T11:07:36Z</time>
      </trkpt>
      <trkpt lat="43.51145" lon="6.69586">
        <ele>169.3</ele>
        <time>2025-10-26T11:07:37Z</time>
      </trkpt>
      <trkpt lat="43.51145" lon="6.69586">
        <ele>169.4</ele>
        <time>2025-10-26T11:07:38Z</time>
      </trkpt>
      <trkpt lat="43.51145" lon="6.69586">
        <ele>169.5</ele>
        <time>2025-10-26T11:07:39Z</time>
      </trkpt>
      <trkpt lat="43.51145" lon="6.69587">
        <ele>169.5</ele>
        <time>2025-10-26T11:07:40Z</time>
      </trkpt>
      <trkpt lat="43.51145" lon="6.69587">
        <ele>169.5</ele>
        <time>2025-10-26T11:07:41Z</time>
      </trkpt>
      <trkpt lat="43.51145" lon="6.69587">
        <ele>169.5</ele>
        <time>2025-10-26T11:07:42Z</time>
      </trkpt>
      <trkpt lat="43.51145" lon="6.69587">
        <ele>169.3</ele>
        <time>2025-10-26T11:07:43Z</time>
      </trkpt>
      <trkpt lat="43.51145" lon="6.69587">
        <ele>169.3</ele>
        <time>2025-10-26T11:07:44Z</time>
      </trkpt>
      <trkpt lat="43.51145" lon="6.69587">
        <ele>169.2</ele>
        <time>2025-10-26T11:07:45Z</time>
      </trkpt>
      <trkpt lat="43.51145" lon="6.69587">
        <ele>169.2</ele>
        <time>2025-10-26T11:07:46Z</time>
      </trkpt>
      <trkpt lat="43.51145" lon="6.69587">
        <ele>169.2</ele>
        <time>2025-10-26T11:07:47Z</time>
      </trkpt>
      <trkpt lat="43.51145" lon="6.69587">
        <ele>169.2</ele>
        <time>2025-10-26T11:07:48Z</time>
      </trkpt>
      <trkpt lat="43.51145" lon="6.69587">
        <ele>169.1</ele>
        <time>2025-10-26T11:07:49Z</time>
      </trkpt>
      <trkpt lat="43.51145" lon="6.69587">
        <ele>169.1</ele>
        <time>2025-10-26T11:07:50Z</time>
      </trkpt>
      <trkpt lat="43.51145" lon="6.69587">
        <ele>169.1</ele>
        <time>2025-10-26T11:07:51Z</time>
      </trkpt>
      <trkpt lat="43.51145" lon="6.69587">
        <ele>169.1</ele>
        <time>2025-10-26T11:07:52Z</time>
      </trkpt>
      <trkpt lat="43.51145" lon="6.69587">
        <ele>169.1</ele>
        <time>2025-10-26T11:07:53Z</time>
      </trkpt>
      <trkpt lat="43.51145" lon="6.69587">
        <ele>169.1</ele>
        <time>2025-10-26T11:07:54Z</time>
      </trkpt>
      <trkpt lat="43.51145" lon="6.69587">
        <ele>169.1</ele>
        <time>2025-10-26T11:07:55Z</time>
      </trkpt>
      <trkpt lat="43.51145" lon="6.69587">
        <ele>169.1</ele>
        <time>2025-10-26T11:07:56Z</time>
      </trkpt>
      <trkpt lat="43.51145" lon="6.69587">
        <ele>169.2</ele>
        <time>2025-10-26T11:07:57Z</time>
      </trkpt>
      <trkpt lat="43.51145" lon="6.69587">
        <ele>169.1</ele>
        <time>2025-10-26T11:07:58Z</time>
      </trkpt>
      <trkpt lat="43.51145" lon="6.69587">
        <ele>169.1</ele>
        <time>2025-10-26T11:07:59Z</time>
      </trkpt>
      <trkpt lat="43.51145" lon="6.69587">
        <ele>169.1</ele>
        <time>2025-10-26T11:08:00Z</time>
      </trkpt>
      <trkpt lat="43.51145" lon="6.69587">
        <ele>169.1</ele>
        <time>2025-10-26T11:08:01Z</time>
      </trkpt>
      <trkpt lat="43.51145" lon="6.69587">
        <ele>169.1</ele>
        <time>2025-10-26T11:08:02Z</time>
      </trkpt>
      <trkpt lat="43.51145" lon="6.69587">
        <ele>169</ele>
        <time>2025-10-26T11:08:03Z</time>
      </trkpt>
      <trkpt lat="43.51145" lon="6.69587">
        <ele>169</ele>
        <time>2025-10-26T11:08:04Z</time>
      </trkpt>
      <trkpt lat="43.51145" lon="6.69587">
        <ele>169</ele>
        <time>2025-10-26T11:08:05Z</time>
      </trkpt>
      <trkpt lat="43.51145" lon="6.69587">
        <ele>169</ele>
        <time>2025-10-26T11:08:06Z</time>
      </trkpt>
      <trkpt lat="43.51145" lon="6.69587">
        <ele>169.1</ele>
        <time>2025-10-26T11:08:07Z</time>
      </trkpt>
      <trkpt lat="43.51145" lon="6.69587">
        <ele>169</ele>
        <time>2025-10-26T11:08:08Z</time>
      </trkpt>
      <trkpt lat="43.51145" lon="6.69587">
        <ele>169</ele>
        <time>2025-10-26T11:08:09Z</time>
      </trkpt>
      <trkpt lat="43.51145" lon="6.69587">
        <ele>169</ele>
        <time>2025-10-26T11:08:10Z</time>
      </trkpt>
      <trkpt lat="43.51145" lon="6.69587">
        <ele>169</ele>
        <time>2025-10-26T11:08:11Z</time>
      </trkpt>
      <trkpt lat="43.51145" lon="6.69587">
        <ele>169</ele>
        <time>2025-10-26T11:08:12Z</time>
      </trkpt>
      <trkpt lat="43.51145" lon="6.69587">
        <ele>169.1</ele>
        <time>2025-10-26T11:08:13Z</time>
      </trkpt>
      <trkpt lat="43.51145" lon="6.69587">
        <ele>169</ele>
        <time>2025-10-26T11:08:14Z</time>
      </trkpt>
      <trkpt lat="43.51145" lon="6.69587">
        <ele>169</ele>
        <time>2025-10-26T11:08:15Z</time>
      </trkpt>
      <trkpt lat="43.51145" lon="6.69587">
        <ele>169</ele>
        <time>2025-10-26T11:08:16Z</time>
      </trkpt>
      <trkpt lat="43.51145" lon="6.69587">
        <ele>169</ele>
        <time>2025-10-26T11:08:17Z</time>
      </trkpt>
      <trkpt lat="43.51145" lon="6.69587">
        <ele>169</ele>
        <time>2025-10-26T11:08:18Z</time>
      </trkpt>
      <trkpt lat="43.51145" lon="6.69587">
        <ele>169</ele>
        <time>2025-10-26T11:08:19Z</time>
      </trkpt>
      <trkpt lat="43.51145" lon="6.69587">
        <ele>169</ele>
        <time>2025-10-26T11:08:20Z</time>
      </trkpt>
      <trkpt lat="43.51145" lon="6.69587">
        <ele>169</ele>
        <time>2025-10-26T11:08:21Z</time>
      </trkpt>
      <trkpt lat="43.51145" lon="6.69587">
        <ele>169</ele>
        <time>2025-10-26T11:08:22Z</time>
      </trkpt>
      <trkpt lat="43.51145" lon="6.69587">
        <ele>169.1</ele>
        <time>2025-10-26T11:08:23Z</time>
      </trkpt>
      <trkpt lat="43.51145" lon="6.69587">
        <ele>169.1</ele>
        <time>2025-10-26T11:08:24Z</time>
      </trkpt>
      <trkpt lat="43.51145" lon="6.69587">
        <ele>169.2</ele>
        <time>2025-10-26T11:08:25Z</time>
      </trkpt>
      <trkpt lat="43.51145" lon="6.69587">
        <ele>169.3</ele>
        <time>2025-10-26T11:08:26Z</time>
      </trkpt>
      <trkpt lat="43.51145" lon="6.69587">
        <ele>169.3</ele>
        <time>2025-10-26T11:08:27Z</time>
      </trkpt>
      <trkpt lat="43.51145" lon="6.69587">
        <ele>169.4</ele>
        <time>2025-10-26T11:08:28Z</time>
      </trkpt>
      <trkpt lat="43.51145" lon="6.69587">
        <ele>169.4</ele>
        <time>2025-10-26T11:08:29Z</time>
      </trkpt>
      <trkpt lat="43.51145" lon="6.69587">
        <ele>169.4</ele>
        <time>2025-10-26T11:08:30Z</time>
      </trkpt>
      <trkpt lat="43.51145" lon="6.69587">
        <ele>169.4</ele>
        <time>2025-10-26T11:08:31Z</time>
      </trkpt>
      <trkpt lat="43.51145" lon="6.69587">
        <ele>169.4</ele>
        <time>2025-10-26T11:08:32Z</time>
      </trkpt>
      <trkpt lat="43.51145" lon="6.69587">
        <ele>169.4</ele>
        <time>2025-10-26T11:08:33Z</time>
      </trkpt>
      <trkpt lat="43.51145" lon="6.69587">
        <ele>169.4</ele>
        <time>2025-10-26T11:08:34Z</time>
      </trkpt>
      <trkpt lat="43.51145" lon="6.69587">
        <ele>169.4</ele>
        <time>2025-10-26T11:08:35Z</time>
      </trkpt>
      <trkpt lat="43.51145" lon="6.69587">
        <ele>169.4</ele>
        <time>2025-10-26T11:08:36Z</time>
      </trkpt>
      <trkpt lat="43.51145" lon="6.69587">
        <ele>169.5</ele>
        <time>2025-10-26T11:08:37Z</time>
      </trkpt>
      <trkpt lat="43.51145" lon="6.69587">
        <ele>169.5</ele>
        <time>2025-10-26T11:08:38Z</time>
      </trkpt>
      <trkpt lat="43.51145" lon="6.69588">
        <ele>169.5</ele>
        <time>2025-10-26T11:08:39Z</time>
      </trkpt>
      <trkpt lat="43.51145" lon="6.69588">
        <ele>169.5</ele>
        <time>2025-10-26T11:08:40Z</time>
      </trkpt>
      <trkpt lat="43.51145" lon="6.69588">
        <ele>169.5</ele>
        <time>2025-10-26T11:08:41Z</time>
      </trkpt>
      <trkpt lat="43.51145" lon="6.69588">
        <ele>169.4</ele>
        <time>2025-10-26T11:08:42Z</time>
      </trkpt>
      <trkpt lat="43.51145" lon="6.69588">
        <ele>169.5</ele>
        <time>2025-10-26T11:08:43Z</time>
      </trkpt>
      <trkpt lat="43.51145" lon="6.69588">
        <ele>169.5</ele>
        <time>2025-10-26T11:08:44Z</time>
      </trkpt>
      <trkpt lat="43.51145" lon="6.69588">
        <ele>169.4</ele>
        <time>2025-10-26T11:08:45Z</time>
      </trkpt>
      <trkpt lat="43.51145" lon="6.69588">
        <ele>169.4</ele>
        <time>2025-10-26T11:08:46Z</time>
      </trkpt>
      <trkpt lat="43.51145" lon="6.69588">
        <ele>169.5</ele>
        <time>2025-10-26T11:08:47Z</time>
      </trkpt>
      <trkpt lat="43.51145" lon="6.69588">
        <ele>169.6</ele>
        <time>2025-10-26T11:08:48Z</time>
      </trkpt>
      <trkpt lat="43.51145" lon="6.69588">
        <ele>169.7</ele>
        <time>2025-10-26T11:08:49Z</time>
      </trkpt>
      <trkpt lat="43.51145" lon="6.69588">
        <ele>169.7</ele>
        <time>2025-10-26T11:08:50Z</time>
      </trkpt>
      <trkpt lat="43.51145" lon="6.69588">
        <ele>169.7</ele>
        <time>2025-10-26T11:08:51Z</time>
      </trkpt>
      <trkpt lat="43.51145" lon="6.69588">
        <ele>169.7</ele>
        <time>2025-10-26T11:08:52Z</time>
      </trkpt>
      <trkpt lat="43.51145" lon="6.69588">
        <ele>169.7</ele>
        <time>2025-10-26T11:08:53Z</time>
      </trkpt>
      <trkpt lat="43.51145" lon="6.69588">
        <ele>169.6</ele>
        <time>2025-10-26T11:08:54Z</time>
      </trkpt>
      <trkpt lat="43.51145" lon="6.69588">
        <ele>169.6</ele>
        <time>2025-10-26T11:08:55Z</time>
      </trkpt>
      <trkpt lat="43.51145" lon="6.69588">
        <ele>169.6</ele>
        <time>2025-10-26T11:08:56Z</time>
      </trkpt>
      <trkpt lat="43.51145" lon="6.69588">
        <ele>169.6</ele>
        <time>2025-10-26T11:08:57Z</time>
      </trkpt>
      <trkpt lat="43.51145" lon="6.69588">
        <ele>169.5</ele>
        <time>2025-10-26T11:08:58Z</time>
      </trkpt>
      <trkpt lat="43.51145" lon="6.69588">
        <ele>169.4</ele>
        <time>2025-10-26T11:08:59Z</time>
      </trkpt>
      <trkpt lat="43.51145" lon="6.69588">
        <ele>169.3</ele>
        <time>2025-10-26T11:09:00Z</time>
      </trkpt>
      <trkpt lat="43.51145" lon="6.69588">
        <ele>169.3</ele>
        <time>2025-10-26T11:09:01Z</time>
      </trkpt>
      <trkpt lat="43.51145" lon="6.69588">
        <ele>169.2</ele>
        <time>2025-10-26T11:09:02Z</time>
      </trkpt>
      <trkpt lat="43.51145" lon="6.69588">
        <ele>169.2</ele>
        <time>2025-10-26T11:09:03Z</time>
      </trkpt>
      <trkpt lat="43.51145" lon="6.69588">
        <ele>169.2</ele>
        <time>2025-10-26T11:09:04Z</time>
      </trkpt>
      <trkpt lat="43.51145" lon="6.69588">
        <ele>169.2</ele>
        <time>2025-10-26T11:09:05Z</time>
      </trkpt>
      <trkpt lat="43.51145" lon="6.69588">
        <ele>169.3</ele>
        <time>2025-10-26T11:09:06Z</time>
      </trkpt>
      <trkpt lat="43.51145" lon="6.69588">
        <ele>169.2</ele>
        <time>2025-10-26T11:09:07Z</time>
      </trkpt>
      <trkpt lat="43.51145" lon="6.69588">
        <ele>169.2</ele>
        <time>2025-10-26T11:09:08Z</time>
      </trkpt>
      <trkpt lat="43.51145" lon="6.69588">
        <ele>169.2</ele>
        <time>2025-10-26T11:09:09Z</time>
      </trkpt>
      <trkpt lat="43.51145" lon="6.69588">
        <ele>169.2</ele>
        <time>2025-10-26T11:09:10Z</time>
      </trkpt>
      <trkpt lat="43.51145" lon="6.69588">
        <ele>169.2</ele>
        <time>2025-10-26T11:09:11Z</time>
      </trkpt>
      <trkpt lat="43.51145" lon="6.69588">
        <ele>169.2</ele>
        <time>2025-10-26T11:09:12Z</time>
      </trkpt>
      <trkpt lat="43.51145" lon="6.69588">
        <ele>169.2</ele>
        <time>2025-10-26T11:09:13Z</time>
      </trkpt>
      <trkpt lat="43.51145" lon="6.69588">
        <ele>169.3</ele>
        <time>2025-10-26T11:09:14Z</time>
      </trkpt>
      <trkpt lat="43.51145" lon="6.69588">
        <ele>169.3</ele>
        <time>2025-10-26T11:09:15Z</time>
      </trkpt>
      <trkpt lat="43.51145" lon="6.69588">
        <ele>169.4</ele>
        <time>2025-10-26T11:09:16Z</time>
      </trkpt>
      <trkpt lat="43.51145" lon="6.69588">
        <ele>169.4</ele>
        <time>2025-10-26T11:09:17Z</time>
      </trkpt>
      <trkpt lat="43.51145" lon="6.69588">
        <ele>169.4</ele>
        <time>2025-10-26T11:09:18Z</time>
      </trkpt>
      <trkpt lat="43.51145" lon="6.69588">
        <ele>169.3</ele>
        <time>2025-10-26T11:09:19Z</time>
      </trkpt>
      <trkpt lat="43.51145" lon="6.69588">
        <ele>169.3</ele>
        <time>2025-10-26T11:09:20Z</time>
      </trkpt>
      <trkpt lat="43.51145" lon="6.69587">
        <ele>169.2</ele>
        <time>2025-10-26T11:09:21Z</time>
      </trkpt>
      <trkpt lat="43.51145" lon="6.69587">
        <ele>169.1</ele>
        <time>2025-10-26T11:09:22Z</time>
      </trkpt>
      <trkpt lat="43.51145" lon="6.69587">
        <ele>169.1</ele>
        <time>2025-10-26T11:09:23Z</time>
      </trkpt>
      <trkpt lat="43.51145" lon="6.69587">
        <ele>169.1</ele>
        <time>2025-10-26T11:09:24Z</time>
      </trkpt>
      <trkpt lat="43.51145" lon="6.69587">
        <ele>169</ele>
        <time>2025-10-26T11:09:25Z</time>
      </trkpt>
      <trkpt lat="43.51145" lon="6.69587">
        <ele>169</ele>
        <time>2025-10-26T11:09:26Z</time>
      </trkpt>
      <trkpt lat="43.51145" lon="6.69587">
        <ele>169</ele>
        <time>2025-10-26T11:09:27Z</time>
      </trkpt>
      <trkpt lat="43.51145" lon="6.69587">
        <ele>168.9</ele>
        <time>2025-10-26T11:09:28Z</time>
      </trkpt>
      <trkpt lat="43.51145" lon="6.69587">
        <ele>168.9</ele>
        <time>2025-10-26T11:09:29Z</time>
      </trkpt>
      <trkpt lat="43.51145" lon="6.69587">
        <ele>168.9</ele>
        <time>2025-10-26T11:09:30Z</time>
      </trkpt>
      <trkpt lat="43.51145" lon="6.69587">
        <ele>168.9</ele>
        <time>2025-10-26T11:09:31Z</time>
      </trkpt>
      <trkpt lat="43.51145" lon="6.69587">
        <ele>168.8</ele>
        <time>2025-10-26T11:09:32Z</time>
      </trkpt>
      <trkpt lat="43.51145" lon="6.69587">
        <ele>168.9</ele>
        <time>2025-10-26T11:09:33Z</time>
      </trkpt>
      <trkpt lat="43.51145" lon="6.69587">
        <ele>168.8</ele>
        <time>2025-10-26T11:09:34Z</time>
      </trkpt>
      <trkpt lat="43.51145" lon="6.69587">
        <ele>168.8</ele>
        <time>2025-10-26T11:09:35Z</time>
      </trkpt>
      <trkpt lat="43.51145" lon="6.69587">
        <ele>168.8</ele>
        <time>2025-10-26T11:09:36Z</time>
      </trkpt>
      <trkpt lat="43.51145" lon="6.69587">
        <ele>168.7</ele>
        <time>2025-10-26T11:09:37Z</time>
      </trkpt>
      <trkpt lat="43.51145" lon="6.69587">
        <ele>168.7</ele>
        <time>2025-10-26T11:09:38Z</time>
      </trkpt>
      <trkpt lat="43.51145" lon="6.69587">
        <ele>168.7</ele>
        <time>2025-10-26T11:09:39Z</time>
      </trkpt>
      <trkpt lat="43.51145" lon="6.69587">
        <ele>168.7</ele>
        <time>2025-10-26T11:09:40Z</time>
      </trkpt>
      <trkpt lat="43.51145" lon="6.69587">
        <ele>168.7</ele>
        <time>2025-10-26T11:09:41Z</time>
      </trkpt>
      <trkpt lat="43.51145" lon="6.69587">
        <ele>168.8</ele>
        <time>2025-10-26T11:09:42Z</time>
      </trkpt>
      <trkpt lat="43.51145" lon="6.69587">
        <ele>168.8</ele>
        <time>2025-10-26T11:09:43Z</time>
      </trkpt>
      <trkpt lat="43.51145" lon="6.69588">
        <ele>168.8</ele>
        <time>2025-10-26T11:09:44Z</time>
      </trkpt>
      <trkpt lat="43.51145" lon="6.69588">
        <ele>168.8</ele>
        <time>2025-10-26T11:09:45Z</time>
      </trkpt>
      <trkpt lat="43.51145" lon="6.69588">
        <ele>168.8</ele>
        <time>2025-10-26T11:09:46Z</time>
      </trkpt>
      <trkpt lat="43.51145" lon="6.69588">
        <ele>168.9</ele>
        <time>2025-10-26T11:09:47Z</time>
      </trkpt>
      <trkpt lat="43.51145" lon="6.69588">
        <ele>168.9</ele>
        <time>2025-10-26T11:09:48Z</time>
      </trkpt>
      <trkpt lat="43.51145" lon="6.69588">
        <ele>168.9</ele>
        <time>2025-10-26T11:09:49Z</time>
      </trkpt>
      <trkpt lat="43.51145" lon="6.69588">
        <ele>168.8</ele>
        <time>2025-10-26T11:09:50Z</time>
      </trkpt>
      <trkpt lat="43.51145" lon="6.69588">
        <ele>168.8</ele>
        <time>2025-10-26T11:09:51Z</time>
      </trkpt>
      <trkpt lat="43.51145" lon="6.69588">
        <ele>168.7</ele>
        <time>2025-10-26T11:09:52Z</time>
      </trkpt>
      <trkpt lat="43.51145" lon="6.69588">
        <ele>168.7</ele>
        <time>2025-10-26T11:09:53Z</time>
      </trkpt>
      <trkpt lat="43.51145" lon="6.69588">
        <ele>168.7</ele>
        <time>2025-10-26T11:09:54Z</time>
      </trkpt>
      <trkpt lat="43.51145" lon="6.69588">
        <ele>168.7</ele>
        <time>2025-10-26T11:09:55Z</time>
      </trkpt>
      <trkpt lat="43.51145" lon="6.69588">
        <ele>168.6</ele>
        <time>2025-10-26T11:09:56Z</time>
      </trkpt>
      <trkpt lat="43.51145" lon="6.69588">
        <ele>168.6</ele>
        <time>2025-10-26T11:09:57Z</time>
      </trkpt>
      <trkpt lat="43.51145" lon="6.69588">
        <ele>168.6</ele>
        <time>2025-10-26T11:09:58Z</time>
      </trkpt>
      <trkpt lat="43.51145" lon="6.69588">
        <ele>168.7</ele>
        <time>2025-10-26T11:09:59Z</time>
      </trkpt>
      <trkpt lat="43.51145" lon="6.69588">
        <ele>168.6</ele>
        <time>2025-10-26T11:10:00Z</time>
      </trkpt>
      <trkpt lat="43.51144" lon="6.69588">
        <ele>168.7</ele>
        <time>2025-10-26T11:10:01Z</time>
      </trkpt>
      <trkpt lat="43.51144" lon="6.69588">
        <ele>168.7</ele>
        <time>2025-10-26T11:10:02Z</time>
      </trkpt>
      <trkpt lat="43.51144" lon="6.69588">
        <ele>168.7</ele>
        <time>2025-10-26T11:10:03Z</time>
      </trkpt>
      <trkpt lat="43.51144" lon="6.69588">
        <ele>168.7</ele>
        <time>2025-10-26T11:10:04Z</time>
      </trkpt>
      <trkpt lat="43.51144" lon="6.69588">
        <ele>168.7</ele>
        <time>2025-10-26T11:10:05Z</time>
      </trkpt>
      <trkpt lat="43.51144" lon="6.69588">
        <ele>168.7</ele>
        <time>2025-10-26T11:10:06Z</time>
      </trkpt>
      <trkpt lat="43.51144" lon="6.69587">
        <ele>168.7</ele>
        <time>2025-10-26T11:10:07Z</time>
      </trkpt>
      <trkpt lat="43.51144" lon="6.69587">
        <ele>168.7</ele>
        <time>2025-10-26T11:10:08Z</time>
      </trkpt>
      <trkpt lat="43.51144" lon="6.69587">
        <ele>168.7</ele>
        <time>2025-10-26T11:10:09Z</time>
      </trkpt>
      <trkpt lat="43.51144" lon="6.69587">
        <ele>168.7</ele>
        <time>2025-10-26T11:10:10Z</time>
      </trkpt>
      <trkpt lat="43.51144" lon="6.69587">
        <ele>168.8</ele>
        <time>2025-10-26T11:10:11Z</time>
      </trkpt>
      <trkpt lat="43.51144" lon="6.69587">
        <ele>168.8</ele>
        <time>2025-10-26T11:10:12Z</time>
      </trkpt>
      <trkpt lat="43.51144" lon="6.69587">
        <ele>168.8</ele>
        <time>2025-10-26T11:10:13Z</time>
      </trkpt>
      <trkpt lat="43.51144" lon="6.69588">
        <ele>168.8</ele>
        <time>2025-10-26T11:10:14Z</time>
      </trkpt>
      <trkpt lat="43.51144" lon="6.69588">
        <ele>168.8</ele>
        <time>2025-10-26T11:10:15Z</time>
      </trkpt>
      <trkpt lat="43.51144" lon="6.69588">
        <ele>168.8</ele>
        <time>2025-10-26T11:10:16Z</time>
      </trkpt>
      <trkpt lat="43.51144" lon="6.69588">
        <ele>168.9</ele>
        <time>2025-10-26T11:10:17Z</time>
      </trkpt>
      <trkpt lat="43.51144" lon="6.69588">
        <ele>168.9</ele>
        <time>2025-10-26T11:10:18Z</time>
      </trkpt>
      <trkpt lat="43.51144" lon="6.69588">
        <ele>169</ele>
        <time>2025-10-26T11:10:19Z</time>
      </trkpt>
      <trkpt lat="43.51144" lon="6.69588">
        <ele>169.1</ele>
        <time>2025-10-26T11:10:20Z</time>
      </trkpt>
      <trkpt lat="43.51144" lon="6.69588">
        <ele>169.1</ele>
        <time>2025-10-26T11:10:21Z</time>
      </trkpt>
      <trkpt lat="43.51144" lon="6.69588">
        <ele>169.2</ele>
        <time>2025-10-26T11:10:22Z</time>
      </trkpt>
      <trkpt lat="43.51144" lon="6.69588">
        <ele>169.2</ele>
        <time>2025-10-26T11:10:23Z</time>
      </trkpt>
      <trkpt lat="43.51144" lon="6.69588">
        <ele>169.2</ele>
        <time>2025-10-26T11:10:24Z</time>
      </trkpt>
      <trkpt lat="43.51144" lon="6.69588">
        <ele>169.2</ele>
        <time>2025-10-26T11:10:25Z</time>
      </trkpt>
      <trkpt lat="43.51144" lon="6.69588">
        <ele>169.1</ele>
        <time>2025-10-26T11:10:26Z</time>
      </trkpt>
      <trkpt lat="43.51144" lon="6.69588">
        <ele>169.2</ele>
        <time>2025-10-26T11:10:27Z</time>
      </trkpt>
      <trkpt lat="43.51144" lon="6.69588">
        <ele>169.2</ele>
        <time>2025-10-26T11:10:28Z</time>
      </trkpt>
      <trkpt lat="43.51144" lon="6.69588">
        <ele>169.2</ele>
        <time>2025-10-26T11:10:29Z</time>
      </trkpt>
      <trkpt lat="43.51144" lon="6.69588">
        <ele>169.2</ele>
        <time>2025-10-26T11:10:30Z</time>
      </trkpt>
      <trkpt lat="43.51144" lon="6.69588">
        <ele>169.2</ele>
        <time>2025-10-26T11:10:31Z</time>
      </trkpt>
      <trkpt lat="43.51144" lon="6.69588">
        <ele>169.2</ele>
        <time>2025-10-26T11:10:32Z</time>
      </trkpt>
      <trkpt lat="43.51144" lon="6.69588">
        <ele>169.2</ele>
        <time>2025-10-26T11:10:33Z</time>
      </trkpt>
      <trkpt lat="43.51144" lon="6.69588">
        <ele>169.3</ele>
        <time>2025-10-26T11:10:34Z</time>
      </trkpt>
      <trkpt lat="43.51144" lon="6.69588">
        <ele>169.3</ele>
        <time>2025-10-26T11:10:35Z</time>
      </trkpt>
      <trkpt lat="43.51144" lon="6.69588">
        <ele>169.4</ele>
        <time>2025-10-26T11:10:36Z</time>
      </trkpt>
      <trkpt lat="43.51144" lon="6.69588">
        <ele>169.4</ele>
        <time>2025-10-26T11:10:37Z</time>
      </trkpt>
      <trkpt lat="43.51144" lon="6.69588">
        <ele>169.5</ele>
        <time>2025-10-26T11:10:38Z</time>
      </trkpt>
      <trkpt lat="43.51144" lon="6.69588">
        <ele>169.5</ele>
        <time>2025-10-26T11:10:39Z</time>
      </trkpt>
      <trkpt lat="43.51144" lon="6.69588">
        <ele>169.5</ele>
        <time>2025-10-26T11:10:40Z</time>
      </trkpt>
      <trkpt lat="43.51144" lon="6.69588">
        <ele>169.5</ele>
        <time>2025-10-26T11:10:41Z</time>
      </trkpt>
      <trkpt lat="43.51144" lon="6.69588">
        <ele>169.5</ele>
        <time>2025-10-26T11:10:42Z</time>
      </trkpt>
      <trkpt lat="43.51144" lon="6.69588">
        <ele>169.6</ele>
        <time>2025-10-26T11:10:43Z</time>
      </trkpt>
      <trkpt lat="43.51144" lon="6.69588">
        <ele>169.5</ele>
        <time>2025-10-26T11:10:44Z</time>
      </trkpt>
      <trkpt lat="43.51144" lon="6.69588">
        <ele>169.5</ele>
        <time>2025-10-26T11:10:45Z</time>
      </trkpt>
      <trkpt lat="43.51144" lon="6.69588">
        <ele>169.4</ele>
        <time>2025-10-26T11:10:46Z</time>
      </trkpt>
      <trkpt lat="43.51144" lon="6.69588">
        <ele>169.4</ele>
        <time>2025-10-26T11:10:47Z</time>
      </trkpt>
      <trkpt lat="43.51144" lon="6.69588">
        <ele>169.4</ele>
        <time>2025-10-26T11:10:48Z</time>
      </trkpt>
      <trkpt lat="43.51144" lon="6.69589">
        <ele>169.3</ele>
        <time>2025-10-26T11:10:49Z</time>
      </trkpt>
      <trkpt lat="43.51144" lon="6.69589">
        <ele>169.2</ele>
        <time>2025-10-26T11:10:50Z</time>
      </trkpt>
      <trkpt lat="43.51144" lon="6.69589">
        <ele>169.2</ele>
        <time>2025-10-26T11:10:51Z</time>
      </trkpt>
      <trkpt lat="43.51144" lon="6.69589">
        <ele>169.3</ele>
        <time>2025-10-26T11:10:52Z</time>
      </trkpt>
      <trkpt lat="43.51144" lon="6.69589">
        <ele>169.3</ele>
        <time>2025-10-26T11:10:53Z</time>
      </trkpt>
      <trkpt lat="43.51144" lon="6.69589">
        <ele>169.3</ele>
        <time>2025-10-26T11:10:54Z</time>
      </trkpt>
      <trkpt lat="43.51144" lon="6.69589">
        <ele>169.3</ele>
        <time>2025-10-26T11:10:55Z</time>
      </trkpt>
      <trkpt lat="43.51144" lon="6.69589">
        <ele>169.3</ele>
        <time>2025-10-26T11:10:56Z</time>
      </trkpt>
      <trkpt lat="43.51144" lon="6.69589">
        <ele>169.3</ele>
        <time>2025-10-26T11:10:57Z</time>
      </trkpt>
      <trkpt lat="43.51144" lon="6.69589">
        <ele>169.2</ele>
        <time>2025-10-26T11:10:58Z</time>
      </trkpt>
      <trkpt lat="43.51144" lon="6.69589">
        <ele>169.2</ele>
        <time>2025-10-26T11:10:59Z</time>
      </trkpt>
      <trkpt lat="43.51144" lon="6.69589">
        <ele>169.2</ele>
        <time>2025-10-26T11:11:00Z</time>
      </trkpt>
      <trkpt lat="43.51144" lon="6.69589">
        <ele>169.1</ele>
        <time>2025-10-26T11:11:01Z</time>
      </trkpt>
      <trkpt lat="43.51144" lon="6.69589">
        <ele>169.1</ele>
        <time>2025-10-26T11:11:02Z</time>
      </trkpt>
      <trkpt lat="43.51144" lon="6.69589">
        <ele>169.1</ele>
        <time>2025-10-26T11:11:03Z</time>
      </trkpt>
      <trkpt lat="43.51144" lon="6.69589">
        <ele>169.1</ele>
        <time>2025-10-26T11:11:04Z</time>
      </trkpt>
      <trkpt lat="43.51144" lon="6.69589">
        <ele>169.1</ele>
        <time>2025-10-26T11:11:05Z</time>
      </trkpt>
      <trkpt lat="43.51143" lon="6.69589">
        <ele>169.1</ele>
        <time>2025-10-26T11:11:06Z</time>
      </trkpt>
      <trkpt lat="43.51143" lon="6.69589">
        <ele>169</ele>
        <time>2025-10-26T11:11:07Z</time>
      </trkpt>
      <trkpt lat="43.51143" lon="6.69589">
        <ele>169</ele>
        <time>2025-10-26T11:11:08Z</time>
      </trkpt>
      <trkpt lat="43.51143" lon="6.69589">
        <ele>169</ele>
        <time>2025-10-26T11:11:09Z</time>
      </trkpt>
      <trkpt lat="43.51143" lon="6.69589">
        <ele>169</ele>
        <time>2025-10-26T11:11:10Z</time>
      </trkpt>
      <trkpt lat="43.51143" lon="6.69589">
        <ele>169</ele>
        <time>2025-10-26T11:11:11Z</time>
      </trkpt>
      <trkpt lat="43.51143" lon="6.69589">
        <ele>169</ele>
        <time>2025-10-26T11:11:12Z</time>
      </trkpt>
      <trkpt lat="43.51143" lon="6.69589">
        <ele>169</ele>
        <time>2025-10-26T11:11:13Z</time>
      </trkpt>
      <trkpt lat="43.51144" lon="6.69589">
        <ele>168.9</ele>
        <time>2025-10-26T11:11:14Z</time>
      </trkpt>
      <trkpt lat="43.51144" lon="6.69589">
        <ele>168.9</ele>
        <time>2025-10-26T11:11:15Z</time>
      </trkpt>
      <trkpt lat="43.51144" lon="6.69589">
        <ele>168.9</ele>
        <time>2025-10-26T11:11:16Z</time>
      </trkpt>
      <trkpt lat="43.51144" lon="6.69589">
        <ele>168.9</ele>
        <time>2025-10-26T11:11:17Z</time>
      </trkpt>
      <trkpt lat="43.51144" lon="6.69589">
        <ele>168.9</ele>
        <time>2025-10-26T11:11:18Z</time>
      </trkpt>
      <trkpt lat="43.51144" lon="6.69589">
        <ele>168.9</ele>
        <time>2025-10-26T11:11:19Z</time>
      </trkpt>
      <trkpt lat="43.51144" lon="6.69589">
        <ele>168.9</ele>
        <time>2025-10-26T11:11:20Z</time>
      </trkpt>
      <trkpt lat="43.51144" lon="6.69589">
        <ele>168.8</ele>
        <time>2025-10-26T11:11:21Z</time>
      </trkpt>
      <trkpt lat="43.51144" lon="6.69589">
        <ele>168.8</ele>
        <time>2025-10-26T11:11:22Z</time>
      </trkpt>
      <trkpt lat="43.51144" lon="6.69589">
        <ele>168.8</ele>
        <time>2025-10-26T11:11:23Z</time>
      </trkpt>
      <trkpt lat="43.51144" lon="6.69589">
        <ele>168.9</ele>
        <time>2025-10-26T11:11:24Z</time>
      </trkpt>
      <trkpt lat="43.51144" lon="6.69589">
        <ele>168.8</ele>
        <time>2025-10-26T11:11:25Z</time>
      </trkpt>
      <trkpt lat="43.51144" lon="6.69589">
        <ele>168.8</ele>
        <time>2025-10-26T11:11:26Z</time>
      </trkpt>
      <trkpt lat="43.51144" lon="6.69589">
        <ele>168.8</ele>
        <time>2025-10-26T11:11:27Z</time>
      </trkpt>
      <trkpt lat="43.51144" lon="6.69589">
        <ele>168.8</ele>
        <time>2025-10-26T11:11:28Z</time>
      </trkpt>
      <trkpt lat="43.51144" lon="6.69589">
        <ele>168.8</ele>
        <time>2025-10-26T11:11:29Z</time>
      </trkpt>
      <trkpt lat="43.51144" lon="6.69589">
        <ele>168.8</ele>
        <time>2025-10-26T11:11:30Z</time>
      </trkpt>
      <trkpt lat="43.51144" lon="6.69589">
        <ele>168.8</ele>
        <time>2025-10-26T11:11:31Z</time>
      </trkpt>
      <trkpt lat="43.51144" lon="6.69589">
        <ele>168.8</ele>
        <time>2025-10-26T11:11:32Z</time>
      </trkpt>
      <trkpt lat="43.51143" lon="6.69589">
        <ele>168.8</ele>
        <time>2025-10-26T11:11:33Z</time>
      </trkpt>
      <trkpt lat="43.51143" lon="6.69589">
        <ele>168.9</ele>
        <time>2025-10-26T11:11:34Z</time>
      </trkpt>
      <trkpt lat="43.51143" lon="6.69589">
        <ele>168.9</ele>
        <time>2025-10-26T11:11:35Z</time>
      </trkpt>
      <trkpt lat="43.51143" lon="6.69589">
        <ele>168.9</ele>
        <time>2025-10-26T11:11:36Z</time>
      </trkpt>
      <trkpt lat="43.51143" lon="6.69589">
        <ele>168.9</ele>
        <time>2025-10-26T11:11:37Z</time>
      </trkpt>
      <trkpt lat="43.51143" lon="6.69589">
        <ele>168.8</ele>
        <time>2025-10-26T11:11:38Z</time>
      </trkpt>
      <trkpt lat="43.51143" lon="6.69589">
        <ele>168.9</ele>
        <time>2025-10-26T11:11:39Z</time>
      </trkpt>
      <trkpt lat="43.51143" lon="6.69589">
        <ele>168.9</ele>
        <time>2025-10-26T11:11:40Z</time>
      </trkpt>
      <trkpt lat="43.51143" lon="6.69589">
        <ele>169</ele>
        <time>2025-10-26T11:11:41Z</time>
      </trkpt>
      <trkpt lat="43.51143" lon="6.69589">
        <ele>169</ele>
        <time>2025-10-26T11:11:42Z</time>
      </trkpt>
      <trkpt lat="43.51143" lon="6.69589">
        <ele>169</ele>
        <time>2025-10-26T11:11:43Z</time>
      </trkpt>
      <trkpt lat="43.51143" lon="6.69589">
        <ele>168.9</ele>
        <time>2025-10-26T11:11:44Z</time>
      </trkpt>
      <trkpt lat="43.51143" lon="6.69589">
        <ele>168.9</ele>
        <time>2025-10-26T11:11:45Z</time>
      </trkpt>
      <trkpt lat="43.51143" lon="6.69589">
        <ele>168.9</ele>
        <time>2025-10-26T11:11:46Z</time>
      </trkpt>
      <trkpt lat="43.51143" lon="6.69589">
        <ele>168.8</ele>
        <time>2025-10-26T11:11:47Z</time>
      </trkpt>
      <trkpt lat="43.51143" lon="6.69589">
        <ele>168.9</ele>
        <time>2025-10-26T11:11:48Z</time>
      </trkpt>
      <trkpt lat="43.51143" lon="6.69589">
        <ele>168.9</ele>
        <time>2025-10-26T11:11:49Z</time>
      </trkpt>
      <trkpt lat="43.51143" lon="6.69589">
        <ele>168.8</ele>
        <time>2025-10-26T11:11:50Z</time>
      </trkpt>
      <trkpt lat="43.51143" lon="6.69589">
        <ele>169</ele>
        <time>2025-10-26T11:11:51Z</time>
      </trkpt>
      <trkpt lat="43.51143" lon="6.69589">
        <ele>169.1</ele>
        <time>2025-10-26T11:11:52Z</time>
      </trkpt>
      <trkpt lat="43.51143" lon="6.69589">
        <ele>169.1</ele>
        <time>2025-10-26T11:11:53Z</time>
      </trkpt>
      <trkpt lat="43.51143" lon="6.69589">
        <ele>169.2</ele>
        <time>2025-10-26T11:11:54Z</time>
      </trkpt>
      <trkpt lat="43.51143" lon="6.69588">
        <ele>169.2</ele>
        <time>2025-10-26T11:11:55Z</time>
      </trkpt>
      <trkpt lat="43.51143" lon="6.69589">
        <ele>169.2</ele>
        <time>2025-10-26T11:11:56Z</time>
      </trkpt>
      <trkpt lat="43.51143" lon="6.69589">
        <ele>169.1</ele>
        <time>2025-10-26T11:11:57Z</time>
      </trkpt>
      <trkpt lat="43.51143" lon="6.69589">
        <ele>169.1</ele>
        <time>2025-10-26T11:11:58Z</time>
      </trkpt>
      <trkpt lat="43.51143" lon="6.69589">
        <ele>169.1</ele>
        <time>2025-10-26T11:11:59Z</time>
      </trkpt>
      <trkpt lat="43.51143" lon="6.69589">
        <ele>169</ele>
        <time>2025-10-26T11:12:00Z</time>
      </trkpt>
      <trkpt lat="43.51143" lon="6.69589">
        <ele>168.9</ele>
        <time>2025-10-26T11:12:01Z</time>
      </trkpt>
      <trkpt lat="43.51143" lon="6.69588">
        <ele>168.9</ele>
        <time>2025-10-26T11:12:02Z</time>
      </trkpt>
      <trkpt lat="43.51143" lon="6.69588">
        <ele>168.9</ele>
        <time>2025-10-26T11:12:03Z</time>
      </trkpt>
      <trkpt lat="43.51143" lon="6.69588">
        <ele>169</ele>
        <time>2025-10-26T11:12:04Z</time>
      </trkpt>
      <trkpt lat="43.51143" lon="6.69588">
        <ele>169</ele>
        <time>2025-10-26T11:12:05Z</time>
      </trkpt>
      <trkpt lat="43.51143" lon="6.69588">
        <ele>169</ele>
        <time>2025-10-26T11:12:06Z</time>
      </trkpt>
      <trkpt lat="43.51143" lon="6.69588">
        <ele>169.1</ele>
        <time>2025-10-26T11:12:07Z</time>
      </trkpt>
      <trkpt lat="43.51143" lon="6.69588">
        <ele>169.1</ele>
        <time>2025-10-26T11:12:08Z</time>
      </trkpt>
      <trkpt lat="43.51143" lon="6.69588">
        <ele>169</ele>
        <time>2025-10-26T11:12:09Z</time>
      </trkpt>
      <trkpt lat="43.51143" lon="6.69588">
        <ele>169</ele>
        <time>2025-10-26T11:12:10Z</time>
      </trkpt>
      <trkpt lat="43.51143" lon="6.69588">
        <ele>169</ele>
        <time>2025-10-26T11:12:11Z</time>
      </trkpt>
      <trkpt lat="43.51143" lon="6.69588">
        <ele>169</ele>
        <time>2025-10-26T11:12:12Z</time>
      </trkpt>
      <trkpt lat="43.51143" lon="6.69588">
        <ele>169</ele>
        <time>2025-10-26T11:12:13Z</time>
      </trkpt>
      <trkpt lat="43.51143" lon="6.69588">
        <ele>168.9</ele>
        <time>2025-10-26T11:12:14Z</time>
      </trkpt>
      <trkpt lat="43.51143" lon="6.69588">
        <ele>168.9</ele>
        <time>2025-10-26T11:12:15Z</time>
      </trkpt>
      <trkpt lat="43.51143" lon="6.69588">
        <ele>168.9</ele>
        <time>2025-10-26T11:12:16Z</time>
      </trkpt>
      <trkpt lat="43.51143" lon="6.69588">
        <ele>169</ele>
        <time>2025-10-26T11:12:17Z</time>
      </trkpt>
      <trkpt lat="43.51143" lon="6.69588">
        <ele>169.1</ele>
        <time>2025-10-26T11:12:18Z</time>
      </trkpt>
      <trkpt lat="43.51143" lon="6.69588">
        <ele>169.2</ele>
        <time>2025-10-26T11:12:19Z</time>
      </trkpt>
      <trkpt lat="43.51143" lon="6.69588">
        <ele>169.3</ele>
        <time>2025-10-26T11:12:20Z</time>
      </trkpt>
      <trkpt lat="43.51143" lon="6.69588">
        <ele>169.3</ele>
        <time>2025-10-26T11:12:21Z</time>
      </trkpt>
      <trkpt lat="43.51143" lon="6.69588">
        <ele>169.4</ele>
        <time>2025-10-26T11:12:22Z</time>
      </trkpt>
      <trkpt lat="43.51143" lon="6.69588">
        <ele>169.4</ele>
        <time>2025-10-26T11:12:23Z</time>
      </trkpt>
      <trkpt lat="43.51143" lon="6.69588">
        <ele>169.4</ele>
        <time>2025-10-26T11:12:24Z</time>
      </trkpt>
      <trkpt lat="43.51143" lon="6.69588">
        <ele>169.4</ele>
        <time>2025-10-26T11:12:25Z</time>
      </trkpt>
      <trkpt lat="43.51143" lon="6.69588">
        <ele>169.5</ele>
        <time>2025-10-26T11:12:26Z</time>
      </trkpt>
      <trkpt lat="43.51143" lon="6.69588">
        <ele>169.5</ele>
        <time>2025-10-26T11:12:27Z</time>
      </trkpt>
      <trkpt lat="43.51143" lon="6.69588">
        <ele>169.6</ele>
        <time>2025-10-26T11:12:28Z</time>
      </trkpt>
      <trkpt lat="43.51143" lon="6.69588">
        <ele>169.5</ele>
        <time>2025-10-26T11:12:29Z</time>
      </trkpt>
      <trkpt lat="43.51143" lon="6.69588">
        <ele>169.5</ele>
        <time>2025-10-26T11:12:30Z</time>
      </trkpt>
      <trkpt lat="43.51143" lon="6.69588">
        <ele>169.5</ele>
        <time>2025-10-26T11:12:31Z</time>
      </trkpt>
      <trkpt lat="43.51143" lon="6.69588">
        <ele>169.5</ele>
        <time>2025-10-26T11:12:32Z</time>
      </trkpt>
      <trkpt lat="43.51143" lon="6.69588">
        <ele>169.6</ele>
        <time>2025-10-26T11:12:33Z</time>
      </trkpt>
      <trkpt lat="43.51143" lon="6.69588">
        <ele>169.6</ele>
        <time>2025-10-26T11:12:34Z</time>
      </trkpt>
      <trkpt lat="43.51143" lon="6.69588">
        <ele>169.6</ele>
        <time>2025-10-26T11:12:35Z</time>
      </trkpt>
      <trkpt lat="43.51143" lon="6.69588">
        <ele>169.5</ele>
        <time>2025-10-26T11:12:36Z</time>
      </trkpt>
      <trkpt lat="43.51143" lon="6.69588">
        <ele>169.5</ele>
        <time>2025-10-26T11:12:37Z</time>
      </trkpt>
      <trkpt lat="43.51143" lon="6.69588">
        <ele>169.4</ele>
        <time>2025-10-26T11:12:38Z</time>
      </trkpt>
      <trkpt lat="43.51143" lon="6.69588">
        <ele>169.4</ele>
        <time>2025-10-26T11:12:39Z</time>
      </trkpt>
      <trkpt lat="43.51143" lon="6.69587">
        <ele>169.3</ele>
        <time>2025-10-26T11:12:40Z</time>
      </trkpt>
      <trkpt lat="43.51143" lon="6.69587">
        <ele>169.3</ele>
        <time>2025-10-26T11:12:41Z</time>
      </trkpt>
      <trkpt lat="43.51143" lon="6.69587">
        <ele>169.4</ele>
        <time>2025-10-26T11:12:42Z</time>
      </trkpt>
      <trkpt lat="43.51143" lon="6.69587">
        <ele>169.4</ele>
        <time>2025-10-26T11:12:43Z</time>
      </trkpt>
      <trkpt lat="43.51143" lon="6.69587">
        <ele>169.4</ele>
        <time>2025-10-26T11:12:44Z</time>
      </trkpt>
      <trkpt lat="43.51143" lon="6.69587">
        <ele>169.4</ele>
        <time>2025-10-26T11:12:45Z</time>
      </trkpt>
      <trkpt lat="43.51143" lon="6.69587">
        <ele>169.5</ele>
        <time>2025-10-26T11:12:46Z</time>
      </trkpt>
      <trkpt lat="43.51143" lon="6.69587">
        <ele>169.6</ele>
        <time>2025-10-26T11:12:47Z</time>
      </trkpt>
      <trkpt lat="43.51142" lon="6.69587">
        <ele>169.6</ele>
        <time>2025-10-26T11:12:48Z</time>
      </trkpt>
      <trkpt lat="43.51142" lon="6.69587">
        <ele>169.7</ele>
        <time>2025-10-26T11:12:49Z</time>
      </trkpt>
      <trkpt lat="43.51142" lon="6.69587">
        <ele>169.8</ele>
        <time>2025-10-26T11:12:50Z</time>
      </trkpt>
      <trkpt lat="43.51142" lon="6.69587">
        <ele>169.8</ele>
        <time>2025-10-26T11:12:51Z</time>
      </trkpt>
      <trkpt lat="43.51142" lon="6.69587">
        <ele>169.8</ele>
        <time>2025-10-26T11:12:52Z</time>
      </trkpt>
      <trkpt lat="43.51142" lon="6.69587">
        <ele>169.7</ele>
        <time>2025-10-26T11:12:53Z</time>
      </trkpt>
      <trkpt lat="43.51142" lon="6.69587">
        <ele>169.6</ele>
        <time>2025-10-26T11:12:54Z</time>
      </trkpt>
      <trkpt lat="43.51142" lon="6.69587">
        <ele>169.6</ele>
        <time>2025-10-26T11:12:55Z</time>
      </trkpt>
      <trkpt lat="43.51142" lon="6.69587">
        <ele>169.6</ele>
        <time>2025-10-26T11:12:56Z</time>
      </trkpt>
      <trkpt lat="43.51142" lon="6.69587">
        <ele>169.5</ele>
        <time>2025-10-26T11:12:57Z</time>
      </trkpt>
      <trkpt lat="43.51142" lon="6.69587">
        <ele>169.5</ele>
        <time>2025-10-26T11:12:58Z</time>
      </trkpt>
      <trkpt lat="43.51142" lon="6.69587">
        <ele>169.5</ele>
        <time>2025-10-26T11:12:59Z</time>
      </trkpt>
      <trkpt lat="43.51142" lon="6.69587">
        <ele>169.5</ele>
        <time>2025-10-26T11:13:00Z</time>
      </trkpt>
      <trkpt lat="43.51142" lon="6.69587">
        <ele>169.5</ele>
        <time>2025-10-26T11:13:01Z</time>
      </trkpt>
      <trkpt lat="43.51142" lon="6.69587">
        <ele>169.5</ele>
        <time>2025-10-26T11:13:02Z</time>
      </trkpt>
      <trkpt lat="43.51142" lon="6.69587">
        <ele>169.5</ele>
        <time>2025-10-26T11:13:03Z</time>
      </trkpt>
      <trkpt lat="43.51142" lon="6.69587">
        <ele>169.6</ele>
        <time>2025-10-26T11:13:04Z</time>
      </trkpt>
      <trkpt lat="43.51142" lon="6.69587">
        <ele>169.6</ele>
        <time>2025-10-26T11:13:05Z</time>
      </trkpt>
      <trkpt lat="43.51142" lon="6.69587">
        <ele>169.7</ele>
        <time>2025-10-26T11:13:06Z</time>
      </trkpt>
      <trkpt lat="43.51142" lon="6.69587">
        <ele>169.7</ele>
        <time>2025-10-26T11:13:07Z</time>
      </trkpt>
      <trkpt lat="43.51142" lon="6.69587">
        <ele>169.8</ele>
        <time>2025-10-26T11:13:08Z</time>
      </trkpt>
      <trkpt lat="43.51142" lon="6.69587">
        <ele>169.7</ele>
        <time>2025-10-26T11:13:09Z</time>
      </trkpt>
      <trkpt lat="43.51142" lon="6.69587">
        <ele>169.8</ele>
        <time>2025-10-26T11:13:10Z</time>
      </trkpt>
      <trkpt lat="43.51142" lon="6.69587">
        <ele>169.8</ele>
        <time>2025-10-26T11:13:11Z</time>
      </trkpt>
      <trkpt lat="43.51142" lon="6.69587">
        <ele>169.7</ele>
        <time>2025-10-26T11:13:12Z</time>
      </trkpt>
      <trkpt lat="43.51142" lon="6.69587">
        <ele>169.7</ele>
        <time>2025-10-26T11:13:13Z</time>
      </trkpt>
      <trkpt lat="43.51142" lon="6.69587">
        <ele>169.7</ele>
        <time>2025-10-26T11:13:14Z</time>
      </trkpt>
      <trkpt lat="43.51142" lon="6.69587">
        <ele>169.8</ele>
        <time>2025-10-26T11:13:15Z</time>
      </trkpt>
      <trkpt lat="43.51142" lon="6.69587">
        <ele>169.8</ele>
        <time>2025-10-26T11:13:16Z</time>
      </trkpt>
      <trkpt lat="43.51142" lon="6.69587">
        <ele>169.9</ele>
        <time>2025-10-26T11:13:17Z</time>
      </trkpt>
      <trkpt lat="43.51142" lon="6.69587">
        <ele>170</ele>
        <time>2025-10-26T11:13:18Z</time>
      </trkpt>
      <trkpt lat="43.51142" lon="6.69587">
        <ele>170.1</ele>
        <time>2025-10-26T11:13:19Z</time>
      </trkpt>
      <trkpt lat="43.51142" lon="6.69587">
        <ele>170.1</ele>
        <time>2025-10-26T11:13:20Z</time>
      </trkpt>
      <trkpt lat="43.51142" lon="6.69587">
        <ele>170.2</ele>
        <time>2025-10-26T11:13:21Z</time>
      </trkpt>
      <trkpt lat="43.51142" lon="6.69587">
        <ele>170.1</ele>
        <time>2025-10-26T11:13:22Z</time>
      </trkpt>
      <trkpt lat="43.51142" lon="6.69587">
        <ele>170.1</ele>
        <time>2025-10-26T11:13:23Z</time>
      </trkpt>
      <trkpt lat="43.51142" lon="6.69587">
        <ele>170</ele>
        <time>2025-10-26T11:13:24Z</time>
      </trkpt>
      <trkpt lat="43.51142" lon="6.69587">
        <ele>170</ele>
        <time>2025-10-26T11:13:25Z</time>
      </trkpt>
      <trkpt lat="43.51142" lon="6.69587">
        <ele>170.1</ele>
        <time>2025-10-26T11:13:26Z</time>
      </trkpt>
      <trkpt lat="43.51142" lon="6.69587">
        <ele>170.2</ele>
        <time>2025-10-26T11:13:27Z</time>
      </trkpt>
      <trkpt lat="43.51141" lon="6.69587">
        <ele>170.2</ele>
        <time>2025-10-26T11:13:28Z</time>
      </trkpt>
      <trkpt lat="43.51141" lon="6.69587">
        <ele>170.2</ele>
        <time>2025-10-26T11:13:29Z</time>
      </trkpt>
      <trkpt lat="43.51141" lon="6.69587">
        <ele>170.2</ele>
        <time>2025-10-26T11:13:30Z</time>
      </trkpt>
      <trkpt lat="43.51141" lon="6.69587">
        <ele>170.2</ele>
        <time>2025-10-26T11:13:31Z</time>
      </trkpt>
      <trkpt lat="43.51141" lon="6.69587">
        <ele>170.2</ele>
        <time>2025-10-26T11:13:32Z</time>
      </trkpt>
      <trkpt lat="43.51141" lon="6.69587">
        <ele>170.1</ele>
        <time>2025-10-26T11:13:33Z</time>
      </trkpt>
      <trkpt lat="43.51141" lon="6.69587">
        <ele>170.1</ele>
        <time>2025-10-26T11:13:34Z</time>
      </trkpt>
      <trkpt lat="43.51141" lon="6.69587">
        <ele>170</ele>
        <time>2025-10-26T11:13:35Z</time>
      </trkpt>
      <trkpt lat="43.51141" lon="6.69587">
        <ele>169.9</ele>
        <time>2025-10-26T11:13:36Z</time>
      </trkpt>
      <trkpt lat="43.51141" lon="6.69587">
        <ele>170</ele>
        <time>2025-10-26T11:13:37Z</time>
      </trkpt>
      <trkpt lat="43.51141" lon="6.69587">
        <ele>169.9</ele>
        <time>2025-10-26T11:13:38Z</time>
      </trkpt>
      <trkpt lat="43.51141" lon="6.69587">
        <ele>169.9</ele>
        <time>2025-10-26T11:13:39Z</time>
      </trkpt>
      <trkpt lat="43.51141" lon="6.69587">
        <ele>169.7</ele>
        <time>2025-10-26T11:13:40Z</time>
      </trkpt>
      <trkpt lat="43.51141" lon="6.69587">
        <ele>169.8</ele>
        <time>2025-10-26T11:13:41Z</time>
      </trkpt>
      <trkpt lat="43.51141" lon="6.69587">
        <ele>169.8</ele>
        <time>2025-10-26T11:13:42Z</time>
      </trkpt>
      <trkpt lat="43.51141" lon="6.69587">
        <ele>169.7</ele>
        <time>2025-10-26T11:13:43Z</time>
      </trkpt>
      <trkpt lat="43.51141" lon="6.69587">
        <ele>169.7</ele>
        <time>2025-10-26T11:13:44Z</time>
      </trkpt>
      <trkpt lat="43.51141" lon="6.69587">
        <ele>169.6</ele>
        <time>2025-10-26T11:13:45Z</time>
      </trkpt>
      <trkpt lat="43.51141" lon="6.69587">
        <ele>169.6</ele>
        <time>2025-10-26T11:13:46Z</time>
      </trkpt>
      <trkpt lat="43.51141" lon="6.69587">
        <ele>169.5</ele>
        <time>2025-10-26T11:13:47Z</time>
      </trkpt>
      <trkpt lat="43.51141" lon="6.69587">
        <ele>169.5</ele>
        <time>2025-10-26T11:13:48Z</time>
      </trkpt>
      <trkpt lat="43.51141" lon="6.69587">
        <ele>169.4</ele>
        <time>2025-10-26T11:13:49Z</time>
      </trkpt>
      <trkpt lat="43.51141" lon="6.69587">
        <ele>169.4</ele>
        <time>2025-10-26T11:13:50Z</time>
      </trkpt>
      <trkpt lat="43.51141" lon="6.69587">
        <ele>169.4</ele>
        <time>2025-10-26T11:13:51Z</time>
      </trkpt>
      <trkpt lat="43.51141" lon="6.69587">
        <ele>169.4</ele>
        <time>2025-10-26T11:13:52Z</time>
      </trkpt>
      <trkpt lat="43.51141" lon="6.69587">
        <ele>169.4</ele>
        <time>2025-10-26T11:13:53Z</time>
      </trkpt>
      <trkpt lat="43.51141" lon="6.69587">
        <ele>169.4</ele>
        <time>2025-10-26T11:13:54Z</time>
      </trkpt>
      <trkpt lat="43.51141" lon="6.69587">
        <ele>169.4</ele>
        <time>2025-10-26T11:13:55Z</time>
      </trkpt>
      <trkpt lat="43.51141" lon="6.69587">
        <ele>169.4</ele>
        <time>2025-10-26T11:13:56Z</time>
      </trkpt>
      <trkpt lat="43.51141" lon="6.69586">
        <ele>169.4</ele>
        <time>2025-10-26T11:13:57Z</time>
      </trkpt>
      <trkpt lat="43.51141" lon="6.69586">
        <ele>169.3</ele>
        <time>2025-10-26T11:13:58Z</time>
      </trkpt>
      <trkpt lat="43.51141" lon="6.69586">
        <ele>169.3</ele>
        <time>2025-10-26T11:13:59Z</time>
      </trkpt>
      <trkpt lat="43.51141" lon="6.69587">
        <ele>169.3</ele>
        <time>2025-10-26T11:14:00Z</time>
      </trkpt>
      <trkpt lat="43.51141" lon="6.69587">
        <ele>169.3</ele>
        <time>2025-10-26T11:14:01Z</time>
      </trkpt>
      <trkpt lat="43.51141" lon="6.69587">
        <ele>169.3</ele>
        <time>2025-10-26T11:14:02Z</time>
      </trkpt>
      <trkpt lat="43.51141" lon="6.69587">
        <ele>169.2</ele>
        <time>2025-10-26T11:14:03Z</time>
      </trkpt>
      <trkpt lat="43.51141" lon="6.69587">
        <ele>169.1</ele>
        <time>2025-10-26T11:14:04Z</time>
      </trkpt>
      <trkpt lat="43.51141" lon="6.69587">
        <ele>169.1</ele>
        <time>2025-10-26T11:14:05Z</time>
      </trkpt>
      <trkpt lat="43.51141" lon="6.69587">
        <ele>169.1</ele>
        <time>2025-10-26T11:14:06Z</time>
      </trkpt>
      <trkpt lat="43.51141" lon="6.69587">
        <ele>169.2</ele>
        <time>2025-10-26T11:14:07Z</time>
      </trkpt>
      <trkpt lat="43.51141" lon="6.69587">
        <ele>169.3</ele>
        <time>2025-10-26T11:14:08Z</time>
      </trkpt>
      <trkpt lat="43.51141" lon="6.69587">
        <ele>169.5</ele>
        <time>2025-10-26T11:14:09Z</time>
      </trkpt>
      <trkpt lat="43.51141" lon="6.69587">
        <ele>169.6</ele>
        <time>2025-10-26T11:14:10Z</time>
      </trkpt>
      <trkpt lat="43.51141" lon="6.69587">
        <ele>169.6</ele>
        <time>2025-10-26T11:14:11Z</time>
      </trkpt>
      <trkpt lat="43.51141" lon="6.69587">
        <ele>169.7</ele>
        <time>2025-10-26T11:14:12Z</time>
      </trkpt>
      <trkpt lat="43.5114" lon="6.69587">
        <ele>169.7</ele>
        <time>2025-10-26T11:14:13Z</time>
      </trkpt>
      <trkpt lat="43.5114" lon="6.69587">
        <ele>169.7</ele>
        <time>2025-10-26T11:14:14Z</time>
      </trkpt>
      <trkpt lat="43.5114" lon="6.69587">
        <ele>169.9</ele>
        <time>2025-10-26T11:14:15Z</time>
      </trkpt>
      <trkpt lat="43.5114" lon="6.69587">
        <ele>170.1</ele>
        <time>2025-10-26T11:14:16Z</time>
      </trkpt>
      <trkpt lat="43.5114" lon="6.69587">
        <ele>170.3</ele>
        <time>2025-10-26T11:14:17Z</time>
      </trkpt>
      <trkpt lat="43.5114" lon="6.69587">
        <ele>170.4</ele>
        <time>2025-10-26T11:14:18Z</time>
      </trkpt>
      <trkpt lat="43.5114" lon="6.69587">
        <ele>170.5</ele>
        <time>2025-10-26T11:14:19Z</time>
      </trkpt>
      <trkpt lat="43.5114" lon="6.69587">
        <ele>170.6</ele>
        <time>2025-10-26T11:14:20Z</time>
      </trkpt>
      <trkpt lat="43.5114" lon="6.69587">
        <ele>170.6</ele>
        <time>2025-10-26T11:14:21Z</time>
      </trkpt>
      <trkpt lat="43.5114" lon="6.69587">
        <ele>170.7</ele>
        <time>2025-10-26T11:14:22Z</time>
      </trkpt>
      <trkpt lat="43.5114" lon="6.69587">
        <ele>170.6</ele>
        <time>2025-10-26T11:14:23Z</time>
      </trkpt>
      <trkpt lat="43.5114" lon="6.69587">
        <ele>170.6</ele>
        <time>2025-10-26T11:14:24Z</time>
      </trkpt>
      <trkpt lat="43.5114" lon="6.69587">
        <ele>170.5</ele>
        <time>2025-10-26T11:14:25Z</time>
      </trkpt>
      <trkpt lat="43.5114" lon="6.69587">
        <ele>170.5</ele>
        <time>2025-10-26T11:14:26Z</time>
      </trkpt>
      <trkpt lat="43.5114" lon="6.69587">
        <ele>170.4</ele>
        <time>2025-10-26T11:14:27Z</time>
      </trkpt>
      <trkpt lat="43.5114" lon="6.69587">
        <ele>170.5</ele>
        <time>2025-10-26T11:14:28Z</time>
      </trkpt>
      <trkpt lat="43.5114" lon="6.69586">
        <ele>170.4</ele>
        <time>2025-10-26T11:14:29Z</time>
      </trkpt>
      <trkpt lat="43.5114" lon="6.69587">
        <ele>170.3</ele>
        <time>2025-10-26T11:14:30Z</time>
      </trkpt>
      <trkpt lat="43.5114" lon="6.69587">
        <ele>170.2</ele>
        <time>2025-10-26T11:14:31Z</time>
      </trkpt>
      <trkpt lat="43.5114" lon="6.69587">
        <ele>170.1</ele>
        <time>2025-10-26T11:14:32Z</time>
      </trkpt>
      <trkpt lat="43.5114" lon="6.69586">
        <ele>170</ele>
        <time>2025-10-26T11:14:33Z</time>
      </trkpt>
      <trkpt lat="43.5114" lon="6.69587">
        <ele>169.9</ele>
        <time>2025-10-26T11:14:34Z</time>
      </trkpt>
      <trkpt lat="43.5114" lon="6.69587">
        <ele>170</ele>
        <time>2025-10-26T11:14:35Z</time>
      </trkpt>
      <trkpt lat="43.5114" lon="6.69587">
        <ele>169.9</ele>
        <time>2025-10-26T11:14:36Z</time>
      </trkpt>
      <trkpt lat="43.5114" lon="6.69587">
        <ele>169.9</ele>
        <time>2025-10-26T11:14:37Z</time>
      </trkpt>
      <trkpt lat="43.5114" lon="6.69587">
        <ele>169.9</ele>
        <time>2025-10-26T11:14:38Z</time>
      </trkpt>
      <trkpt lat="43.5114" lon="6.69587">
        <ele>169.9</ele>
        <time>2025-10-26T11:14:39Z</time>
      </trkpt>
      <trkpt lat="43.5114" lon="6.69587">
        <ele>169.9</ele>
        <time>2025-10-26T11:14:40Z</time>
      </trkpt>
      <trkpt lat="43.5114" lon="6.69587">
        <ele>169.8</ele>
        <time>2025-10-26T11:14:41Z</time>
      </trkpt>
      <trkpt lat="43.5114" lon="6.69587">
        <ele>169.8</ele>
        <time>2025-10-26T11:14:42Z</time>
      </trkpt>
      <trkpt lat="43.5114" lon="6.69587">
        <ele>169.8</ele>
        <time>2025-10-26T11:14:43Z</time>
      </trkpt>
      <trkpt lat="43.5114" lon="6.69587">
        <ele>169.6</ele>
        <time>2025-10-26T11:14:44Z</time>
      </trkpt>
      <trkpt lat="43.5114" lon="6.69587">
        <ele>169.6</ele>
        <time>2025-10-26T11:14:45Z</time>
      </trkpt>
      <trkpt lat="43.5114" lon="6.69587">
        <ele>169.6</ele>
        <time>2025-10-26T11:14:46Z</time>
      </trkpt>
      <trkpt lat="43.5114" lon="6.69587">
        <ele>169.6</ele>
        <time>2025-10-26T11:14:47Z</time>
      </trkpt>
      <trkpt lat="43.5114" lon="6.69587">
        <ele>169.7</ele>
        <time>2025-10-26T11:14:48Z</time>
      </trkpt>
      <trkpt lat="43.5114" lon="6.69587">
        <ele>169.8</ele>
        <time>2025-10-26T11:14:49Z</time>
      </trkpt>
      <trkpt lat="43.5114" lon="6.69587">
        <ele>169.8</ele>
        <time>2025-10-26T11:14:50Z</time>
      </trkpt>
      <trkpt lat="43.5114" lon="6.69587">
        <ele>169.8</ele>
        <time>2025-10-26T11:14:51Z</time>
      </trkpt>
      <trkpt lat="43.5114" lon="6.69587">
        <ele>169.7</ele>
        <time>2025-10-26T11:14:52Z</time>
      </trkpt>
      <trkpt lat="43.5114" lon="6.69587">
        <ele>169.7</ele>
        <time>2025-10-26T11:14:53Z</time>
      </trkpt>
      <trkpt lat="43.5114" lon="6.69587">
        <ele>169.7</ele>
        <time>2025-10-26T11:14:54Z</time>
      </trkpt>
      <trkpt lat="43.5114" lon="6.69587">
        <ele>169.7</ele>
        <time>2025-10-26T11:14:55Z</time>
      </trkpt>
      <trkpt lat="43.5114" lon="6.69587">
        <ele>169.7</ele>
        <time>2025-10-26T11:14:56Z</time>
      </trkpt>
      <trkpt lat="43.5114" lon="6.69587">
        <ele>169.7</ele>
        <time>2025-10-26T11:14:57Z</time>
      </trkpt>
      <trkpt lat="43.5114" lon="6.69587">
        <ele>169.7</ele>
        <time>2025-10-26T11:14:58Z</time>
      </trkpt>
      <trkpt lat="43.5114" lon="6.69587">
        <ele>169.7</ele>
        <time>2025-10-26T11:14:59Z</time>
      </trkpt>
      <trkpt lat="43.5114" lon="6.69587">
        <ele>169.7</ele>
        <time>2025-10-26T11:15:00Z</time>
      </trkpt>
      <trkpt lat="43.5114" lon="6.69587">
        <ele>169.7</ele>
        <time>2025-10-26T11:15:01Z</time>
      </trkpt>
      <trkpt lat="43.5114" lon="6.69587">
        <ele>169.7</ele>
        <time>2025-10-26T11:15:02Z</time>
      </trkpt>
      <trkpt lat="43.5114" lon="6.69587">
        <ele>169.7</ele>
        <time>2025-10-26T11:15:03Z</time>
      </trkpt>
      <trkpt lat="43.5114" lon="6.69586">
        <ele>169.8</ele>
        <time>2025-10-26T11:15:04Z</time>
      </trkpt>
      <trkpt lat="43.5114" lon="6.69586">
        <ele>169.8</ele>
        <time>2025-10-26T11:15:05Z</time>
      </trkpt>
      <trkpt lat="43.5114" lon="6.69586">
        <ele>169.9</ele>
        <time>2025-10-26T11:15:06Z</time>
      </trkpt>
      <trkpt lat="43.5114" lon="6.69586">
        <ele>170.2</ele>
        <time>2025-10-26T11:15:07Z</time>
      </trkpt>
      <trkpt lat="43.5114" lon="6.69586">
        <ele>170.3</ele>
        <time>2025-10-26T11:15:08Z</time>
      </trkpt>
      <trkpt lat="43.51139" lon="6.69586">
        <ele>170.3</ele>
        <time>2025-10-26T11:15:09Z</time>
      </trkpt>
      <trkpt lat="43.51139" lon="6.69586">
        <ele>170.3</ele>
        <time>2025-10-26T11:15:10Z</time>
      </trkpt>
      <trkpt lat="43.51139" lon="6.69586">
        <ele>170.3</ele>
        <time>2025-10-26T11:15:11Z</time>
      </trkpt>
      <trkpt lat="43.51139" lon="6.69586">
        <ele>170.2</ele>
        <time>2025-10-26T11:15:12Z</time>
      </trkpt>
      <trkpt lat="43.51139" lon="6.69586">
        <ele>170.3</ele>
        <time>2025-10-26T11:15:13Z</time>
      </trkpt>
      <trkpt lat="43.51139" lon="6.69586">
        <ele>170.2</ele>
        <time>2025-10-26T11:15:14Z</time>
      </trkpt>
      <trkpt lat="43.51139" lon="6.69586">
        <ele>170.1</ele>
        <time>2025-10-26T11:15:15Z</time>
      </trkpt>
      <trkpt lat="43.51139" lon="6.69586">
        <ele>170.1</ele>
        <time>2025-10-26T11:15:16Z</time>
      </trkpt>
      <trkpt lat="43.51139" lon="6.69586">
        <ele>169.9</ele>
        <time>2025-10-26T11:15:17Z</time>
      </trkpt>
      <trkpt lat="43.51139" lon="6.69586">
        <ele>169.9</ele>
        <time>2025-10-26T11:15:18Z</time>
      </trkpt>
      <trkpt lat="43.51139" lon="6.69586">
        <ele>169.8</ele>
        <time>2025-10-26T11:15:19Z</time>
      </trkpt>
      <trkpt lat="43.51139" lon="6.69586">
        <ele>169.8</ele>
        <time>2025-10-26T11:15:20Z</time>
      </trkpt>
      <trkpt lat="43.51139" lon="6.69586">
        <ele>169.8</ele>
        <time>2025-10-26T11:15:21Z</time>
      </trkpt>
      <trkpt lat="43.51139" lon="6.69586">
        <ele>169.8</ele>
        <time>2025-10-26T11:15:22Z</time>
      </trkpt>
      <trkpt lat="43.51139" lon="6.69586">
        <ele>169.8</ele>
        <time>2025-10-26T11:15:23Z</time>
      </trkpt>
      <trkpt lat="43.51139" lon="6.69586">
        <ele>169.9</ele>
        <time>2025-10-26T11:15:24Z</time>
      </trkpt>
      <trkpt lat="43.51139" lon="6.69586">
        <ele>169.9</ele>
        <time>2025-10-26T11:15:25Z</time>
      </trkpt>
      <trkpt lat="43.51139" lon="6.69586">
        <ele>169.8</ele>
        <time>2025-10-26T11:15:26Z</time>
      </trkpt>
      <trkpt lat="43.51139" lon="6.69586">
        <ele>169.8</ele>
        <time>2025-10-26T11:15:27Z</time>
      </trkpt>
      <trkpt lat="43.51139" lon="6.69586">
        <ele>169.8</ele>
        <time>2025-10-26T11:15:28Z</time>
      </trkpt>
      <trkpt lat="43.51139" lon="6.69586">
        <ele>170</ele>
        <time>2025-10-26T11:15:29Z</time>
      </trkpt>
      <trkpt lat="43.51139" lon="6.69585">
        <ele>170</ele>
        <time>2025-10-26T11:15:30Z</time>
      </trkpt>
      <trkpt lat="43.51139" lon="6.69585">
        <ele>170.1</ele>
        <time>2025-10-26T11:15:31Z</time>
      </trkpt>
      <trkpt lat="43.51139" lon="6.69585">
        <ele>170.1</ele>
        <time>2025-10-26T11:15:32Z</time>
      </trkpt>
      <trkpt lat="43.51139" lon="6.69585">
        <ele>170.1</ele>
        <time>2025-10-26T11:15:33Z</time>
      </trkpt>
      <trkpt lat="43.51139" lon="6.69585">
        <ele>170.1</ele>
        <time>2025-10-26T11:15:34Z</time>
      </trkpt>
      <trkpt lat="43.51139" lon="6.69585">
        <ele>170.1</ele>
        <time>2025-10-26T11:15:35Z</time>
      </trkpt>
      <trkpt lat="43.51139" lon="6.69585">
        <ele>170.2</ele>
        <time>2025-10-26T11:15:36Z</time>
      </trkpt>
      <trkpt lat="43.51139" lon="6.69585">
        <ele>170.2</ele>
        <time>2025-10-26T11:15:37Z</time>
      </trkpt>
      <trkpt lat="43.51139" lon="6.69585">
        <ele>170.3</ele>
        <time>2025-10-26T11:15:38Z</time>
      </trkpt>
      <trkpt lat="43.51139" lon="6.69585">
        <ele>170.4</ele>
        <time>2025-10-26T11:15:39Z</time>
      </trkpt>
      <trkpt lat="43.51139" lon="6.69585">
        <ele>170.4</ele>
        <time>2025-10-26T11:15:40Z</time>
      </trkpt>
      <trkpt lat="43.51139" lon="6.69585">
        <ele>170.6</ele>
        <time>2025-10-26T11:15:41Z</time>
      </trkpt>
      <trkpt lat="43.51139" lon="6.69585">
        <ele>170.6</ele>
        <time>2025-10-26T11:15:42Z</time>
      </trkpt>
      <trkpt lat="43.51139" lon="6.69585">
        <ele>170.5</ele>
        <time>2025-10-26T11:15:43Z</time>
      </trkpt>
      <trkpt lat="43.51139" lon="6.69585">
        <ele>170.6</ele>
        <time>2025-10-26T11:15:44Z</time>
      </trkpt>
      <trkpt lat="43.51139" lon="6.69585">
        <ele>170.6</ele>
        <time>2025-10-26T11:15:45Z</time>
      </trkpt>
      <trkpt lat="43.51139" lon="6.69585">
        <ele>170.5</ele>
        <time>2025-10-26T11:15:46Z</time>
      </trkpt>
      <trkpt lat="43.51139" lon="6.69585">
        <ele>170.5</ele>
        <time>2025-10-26T11:15:47Z</time>
      </trkpt>
      <trkpt lat="43.51139" lon="6.69585">
        <ele>170.6</ele>
        <time>2025-10-26T11:15:48Z</time>
      </trkpt>
      <trkpt lat="43.51139" lon="6.69585">
        <ele>170.5</ele>
        <time>2025-10-26T11:15:49Z</time>
      </trkpt>
      <trkpt lat="43.51139" lon="6.69585">
        <ele>170.5</ele>
        <time>2025-10-26T11:15:50Z</time>
      </trkpt>
      <trkpt lat="43.51139" lon="6.69585">
        <ele>170.4</ele>
        <time>2025-10-26T11:15:51Z</time>
      </trkpt>
      <trkpt lat="43.51139" lon="6.69585">
        <ele>170.3</ele>
        <time>2025-10-26T11:15:52Z</time>
      </trkpt>
      <trkpt lat="43.51139" lon="6.69585">
        <ele>170.3</ele>
        <time>2025-10-26T11:15:53Z</time>
      </trkpt>
      <trkpt lat="43.51139" lon="6.69585">
        <ele>170.3</ele>
        <time>2025-10-26T11:15:54Z</time>
      </trkpt>
      <trkpt lat="43.51139" lon="6.69585">
        <ele>170.2</ele>
        <time>2025-10-26T11:15:55Z</time>
      </trkpt>
      <trkpt lat="43.51139" lon="6.69585">
        <ele>170.1</ele>
        <time>2025-10-26T11:15:56Z</time>
      </trkpt>
      <trkpt lat="43.51139" lon="6.69585">
        <ele>170</ele>
        <time>2025-10-26T11:15:57Z</time>
      </trkpt>
      <trkpt lat="43.51139" lon="6.69585">
        <ele>170.1</ele>
        <time>2025-10-26T11:15:58Z</time>
      </trkpt>
      <trkpt lat="43.51139" lon="6.69585">
        <ele>170.1</ele>
        <time>2025-10-26T11:15:59Z</time>
      </trkpt>
      <trkpt lat="43.51139" lon="6.69585">
        <ele>170.1</ele>
        <time>2025-10-26T11:16:00Z</time>
      </trkpt>
      <trkpt lat="43.51139" lon="6.69585">
        <ele>170.1</ele>
        <time>2025-10-26T11:16:01Z</time>
      </trkpt>
      <trkpt lat="43.51139" lon="6.69585">
        <ele>170.1</ele>
        <time>2025-10-26T11:16:02Z</time>
      </trkpt>
      <trkpt lat="43.51139" lon="6.69585">
        <ele>170.1</ele>
        <time>2025-10-26T11:16:03Z</time>
      </trkpt>
      <trkpt lat="43.51138" lon="6.69585">
        <ele>170.1</ele>
        <time>2025-10-26T11:16:04Z</time>
      </trkpt>
      <trkpt lat="43.51138" lon="6.69585">
        <ele>170.1</ele>
        <time>2025-10-26T11:16:05Z</time>
      </trkpt>
      <trkpt lat="43.51138" lon="6.69585">
        <ele>170.2</ele>
        <time>2025-10-26T11:16:06Z</time>
      </trkpt>
      <trkpt lat="43.51138" lon="6.69585">
        <ele>170.3</ele>
        <time>2025-10-26T11:16:07Z</time>
      </trkpt>
      <trkpt lat="43.51138" lon="6.69585">
        <ele>170.1</ele>
        <time>2025-10-26T11:16:08Z</time>
      </trkpt>
      <trkpt lat="43.51138" lon="6.69585">
        <ele>170.1</ele>
        <time>2025-10-26T11:16:09Z</time>
      </trkpt>
      <trkpt lat="43.51138" lon="6.69585">
        <ele>170</ele>
        <time>2025-10-26T11:16:10Z</time>
      </trkpt>
      <trkpt lat="43.51138" lon="6.69585">
        <ele>170</ele>
        <time>2025-10-26T11:16:11Z</time>
      </trkpt>
      <trkpt lat="43.51138" lon="6.69585">
        <ele>170</ele>
        <time>2025-10-26T11:16:12Z</time>
      </trkpt>
      <trkpt lat="43.51138" lon="6.69585">
        <ele>170.1</ele>
        <time>2025-10-26T11:16:13Z</time>
      </trkpt>
      <trkpt lat="43.51138" lon="6.69585">
        <ele>170.1</ele>
        <time>2025-10-26T11:16:14Z</time>
      </trkpt>
      <trkpt lat="43.51138" lon="6.69585">
        <ele>170.1</ele>
        <time>2025-10-26T11:16:15Z</time>
      </trkpt>
      <trkpt lat="43.51138" lon="6.69585">
        <ele>170.1</ele>
        <time>2025-10-26T11:16:16Z</time>
      </trkpt>
      <trkpt lat="43.51139" lon="6.69585">
        <ele>170.1</ele>
        <time>2025-10-26T11:16:17Z</time>
      </trkpt>
      <trkpt lat="43.51138" lon="6.69585">
        <ele>170.3</ele>
        <time>2025-10-26T11:16:18Z</time>
      </trkpt>
      <trkpt lat="43.51139" lon="6.69585">
        <ele>170.4</ele>
        <time>2025-10-26T11:16:19Z</time>
      </trkpt>
      <trkpt lat="43.51138" lon="6.69585">
        <ele>170.4</ele>
        <time>2025-10-26T11:16:20Z</time>
      </trkpt>
      <trkpt lat="43.51138" lon="6.69585">
        <ele>170.5</ele>
        <time>2025-10-26T11:16:21Z</time>
      </trkpt>
      <trkpt lat="43.51139" lon="6.69585">
        <ele>170.6</ele>
        <time>2025-10-26T11:16:22Z</time>
      </trkpt>
      <trkpt lat="43.51138" lon="6.69585">
        <ele>170.7</ele>
        <time>2025-10-26T11:16:23Z</time>
      </trkpt>
      <trkpt lat="43.51138" lon="6.69585">
        <ele>170.7</ele>
        <time>2025-10-26T11:16:24Z</time>
      </trkpt>
      <trkpt lat="43.51138" lon="6.69585">
        <ele>170.8</ele>
        <time>2025-10-26T11:16:25Z</time>
      </trkpt>
      <trkpt lat="43.51138" lon="6.69585">
        <ele>170.8</ele>
        <time>2025-10-26T11:16:26Z</time>
      </trkpt>
      <trkpt lat="43.51138" lon="6.69585">
        <ele>170.7</ele>
        <time>2025-10-26T11:16:27Z</time>
      </trkpt>
      <trkpt lat="43.51138" lon="6.69585">
        <ele>170.7</ele>
        <time>2025-10-26T11:16:28Z</time>
      </trkpt>
      <trkpt lat="43.51138" lon="6.69585">
        <ele>170.6</ele>
        <time>2025-10-26T11:16:29Z</time>
      </trkpt>
      <trkpt lat="43.51138" lon="6.69585">
        <ele>170.5</ele>
        <time>2025-10-26T11:16:30Z</time>
      </trkpt>
      <trkpt lat="43.51138" lon="6.69585">
        <ele>170.5</ele>
        <time>2025-10-26T11:16:31Z</time>
      </trkpt>
      <trkpt lat="43.51138" lon="6.69585">
        <ele>170.4</ele>
        <time>2025-10-26T11:16:32Z</time>
      </trkpt>
      <trkpt lat="43.51138" lon="6.69585">
        <ele>170.4</ele>
        <time>2025-10-26T11:16:33Z</time>
      </trkpt>
      <trkpt lat="43.51138" lon="6.69584">
        <ele>170.3</ele>
        <time>2025-10-26T11:16:34Z</time>
      </trkpt>
      <trkpt lat="43.51138" lon="6.69584">
        <ele>170.3</ele>
        <time>2025-10-26T11:16:35Z</time>
      </trkpt>
      <trkpt lat="43.51138" lon="6.69584">
        <ele>170.2</ele>
        <time>2025-10-26T11:16:36Z</time>
      </trkpt>
      <trkpt lat="43.51138" lon="6.69584">
        <ele>170.2</ele>
        <time>2025-10-26T11:16:37Z</time>
      </trkpt>
      <trkpt lat="43.51138" lon="6.69584">
        <ele>170.2</ele>
        <time>2025-10-26T11:16:38Z</time>
      </trkpt>
      <trkpt lat="43.51138" lon="6.69584">
        <ele>170.1</ele>
        <time>2025-10-26T11:16:39Z</time>
      </trkpt>
      <trkpt lat="43.51138" lon="6.69584">
        <ele>170.1</ele>
        <time>2025-10-26T11:16:40Z</time>
      </trkpt>
      <trkpt lat="43.51138" lon="6.69584">
        <ele>170</ele>
        <time>2025-10-26T11:16:41Z</time>
      </trkpt>
      <trkpt lat="43.51138" lon="6.69584">
        <ele>169.9</ele>
        <time>2025-10-26T11:16:42Z</time>
      </trkpt>
      <trkpt lat="43.51138" lon="6.69584">
        <ele>169.7</ele>
        <time>2025-10-26T11:16:43Z</time>
      </trkpt>
      <trkpt lat="43.51138" lon="6.69584">
        <ele>169.5</ele>
        <time>2025-10-26T11:16:44Z</time>
      </trkpt>
      <trkpt lat="43.51138" lon="6.69584">
        <ele>169.5</ele>
        <time>2025-10-26T11:16:45Z</time>
      </trkpt>
      <trkpt lat="43.51138" lon="6.69584">
        <ele>169.5</ele>
        <time>2025-10-26T11:16:46Z</time>
      </trkpt>
      <trkpt lat="43.51138" lon="6.69584">
        <ele>169.5</ele>
        <time>2025-10-26T11:16:47Z</time>
      </trkpt>
      <trkpt lat="43.51138" lon="6.69584">
        <ele>169.5</ele>
        <time>2025-10-26T11:16:48Z</time>
      </trkpt>
      <trkpt lat="43.51138" lon="6.69584">
        <ele>169.6</ele>
        <time>2025-10-26T11:16:49Z</time>
      </trkpt>
      <trkpt lat="43.51138" lon="6.69584">
        <ele>169.6</ele>
        <time>2025-10-26T11:16:50Z</time>
      </trkpt>
      <trkpt lat="43.51138" lon="6.69584">
        <ele>169.7</ele>
        <time>2025-10-26T11:16:51Z</time>
      </trkpt>
      <trkpt lat="43.51138" lon="6.69584">
        <ele>169.7</ele>
        <time>2025-10-26T11:16:52Z</time>
      </trkpt>
      <trkpt lat="43.51138" lon="6.69584">
        <ele>169.7</ele>
        <time>2025-10-26T11:16:53Z</time>
      </trkpt>
      <trkpt lat="43.51138" lon="6.69584">
        <ele>169.7</ele>
        <time>2025-10-26T11:16:54Z</time>
      </trkpt>
      <trkpt lat="43.51138" lon="6.69584">
        <ele>169.8</ele>
        <time>2025-10-26T11:16:55Z</time>
      </trkpt>
      <trkpt lat="43.51138" lon="6.69584">
        <ele>169.9</ele>
        <time>2025-10-26T11:16:56Z</time>
      </trkpt>
      <trkpt lat="43.51138" lon="6.69584">
        <ele>169.9</ele>
        <time>2025-10-26T11:16:57Z</time>
      </trkpt>
      <trkpt lat="43.51138" lon="6.69584">
        <ele>169.9</ele>
        <time>2025-10-26T11:16:58Z</time>
      </trkpt>
      <trkpt lat="43.51138" lon="6.69584">
        <ele>170</ele>
        <time>2025-10-26T11:16:59Z</time>
      </trkpt>
      <trkpt lat="43.51138" lon="6.69584">
        <ele>170</ele>
        <time>2025-10-26T11:17:00Z</time>
      </trkpt>
      <trkpt lat="43.51138" lon="6.69584">
        <ele>170</ele>
        <time>2025-10-26T11:17:01Z</time>
      </trkpt>
      <trkpt lat="43.51138" lon="6.69584">
        <ele>169.9</ele>
        <time>2025-10-26T11:17:02Z</time>
      </trkpt>
      <trkpt lat="43.51138" lon="6.69584">
        <ele>169.9</ele>
        <time>2025-10-26T11:17:03Z</time>
      </trkpt>
      <trkpt lat="43.51138" lon="6.69584">
        <ele>169.8</ele>
        <time>2025-10-26T11:17:04Z</time>
      </trkpt>
      <trkpt lat="43.51138" lon="6.69584">
        <ele>169.8</ele>
        <time>2025-10-26T11:17:05Z</time>
      </trkpt>
      <trkpt lat="43.51138" lon="6.69584">
        <ele>169.8</ele>
        <time>2025-10-26T11:17:06Z</time>
      </trkpt>
      <trkpt lat="43.51138" lon="6.69584">
        <ele>170</ele>
        <time>2025-10-26T11:17:07Z</time>
      </trkpt>
      <trkpt lat="43.51138" lon="6.69584">
        <ele>170</ele>
        <time>2025-10-26T11:17:08Z</time>
      </trkpt>
      <trkpt lat="43.51138" lon="6.69584">
        <ele>170</ele>
        <time>2025-10-26T11:17:09Z</time>
      </trkpt>
      <trkpt lat="43.51138" lon="6.69584">
        <ele>170</ele>
        <time>2025-10-26T11:17:10Z</time>
      </trkpt>
      <trkpt lat="43.51138" lon="6.69584">
        <ele>169.9</ele>
        <time>2025-10-26T11:17:11Z</time>
      </trkpt>
      <trkpt lat="43.51138" lon="6.69584">
        <ele>170</ele>
        <time>2025-10-26T11:17:12Z</time>
      </trkpt>
      <trkpt lat="43.51138" lon="6.69584">
        <ele>170.1</ele>
        <time>2025-10-26T11:17:13Z</time>
      </trkpt>
      <trkpt lat="43.51138" lon="6.69584">
        <ele>170.2</ele>
        <time>2025-10-26T11:17:14Z</time>
      </trkpt>
      <trkpt lat="43.51138" lon="6.69584">
        <ele>170.1</ele>
        <time>2025-10-26T11:17:15Z</time>
      </trkpt>
      <trkpt lat="43.51139" lon="6.69584">
        <ele>170.1</ele>
        <time>2025-10-26T11:17:16Z</time>
      </trkpt>
      <trkpt lat="43.51139" lon="6.69584">
        <ele>170.2</ele>
        <time>2025-10-26T11:17:17Z</time>
      </trkpt>
      <trkpt lat="43.51139" lon="6.69584">
        <ele>170.1</ele>
        <time>2025-10-26T11:17:18Z</time>
      </trkpt>
      <trkpt lat="43.51139" lon="6.69585">
        <ele>170.1</ele>
        <time>2025-10-26T11:17:19Z</time>
      </trkpt>
      <trkpt lat="43.51139" lon="6.69585">
        <ele>170.3</ele>
        <time>2025-10-26T11:17:20Z</time>
      </trkpt>
      <trkpt lat="43.51139" lon="6.69587">
        <ele>170.4</ele>
        <time>2025-10-26T11:17:21Z</time>
      </trkpt>
      <trkpt lat="43.51139" lon="6.69588">
        <ele>170.5</ele>
        <time>2025-10-26T11:17:22Z</time>
      </trkpt>
      <trkpt lat="43.5114" lon="6.69589">
        <ele>170.5</ele>
        <time>2025-10-26T11:17:23Z</time>
      </trkpt>
      <trkpt lat="43.51141" lon="6.69589">
        <ele>170.6</ele>
        <time>2025-10-26T11:17:24Z</time>
      </trkpt>
      <trkpt lat="43.51142" lon="6.69589">
        <ele>170.8</ele>
        <time>2025-10-26T11:17:25Z</time>
      </trkpt>
      <trkpt lat="43.51143" lon="6.69589">
        <ele>171</ele>
        <time>2025-10-26T11:17:26Z</time>
      </trkpt>
      <trkpt lat="43.51143" lon="6.69589">
        <ele>171.1</ele>
        <time>2025-10-26T11:17:27Z</time>
      </trkpt>
      <trkpt lat="43.51144" lon="6.69589">
        <ele>171.2</ele>
        <time>2025-10-26T11:17:28Z</time>
      </trkpt>
      <trkpt lat="43.51145" lon="6.69589">
        <ele>171.4</ele>
        <time>2025-10-26T11:17:29Z</time>
      </trkpt>
      <trkpt lat="43.51145" lon="6.69589">
        <ele>171.5</ele>
        <time>2025-10-26T11:17:30Z</time>
      </trkpt>
      <trkpt lat="43.51146" lon="6.69589">
        <ele>171.7</ele>
        <time>2025-10-26T11:17:31Z</time>
      </trkpt>
      <trkpt lat="43.51146" lon="6.69589">
        <ele>171.8</ele>
        <time>2025-10-26T11:17:32Z</time>
      </trkpt>
      <trkpt lat="43.51147" lon="6.69589">
        <ele>172</ele>
        <time>2025-10-26T11:17:33Z</time>
      </trkpt>
      <trkpt lat="43.51148" lon="6.69588">
        <ele>172.1</ele>
        <time>2025-10-26T11:17:34Z</time>
      </trkpt>
      <trkpt lat="43.51148" lon="6.69588">
        <ele>172.3</ele>
        <time>2025-10-26T11:17:35Z</time>
      </trkpt>
      <trkpt lat="43.51149" lon="6.69588">
        <ele>172.4</ele>
        <time>2025-10-26T11:17:36Z</time>
      </trkpt>
      <trkpt lat="43.51149" lon="6.69589">
        <ele>172.5</ele>
        <time>2025-10-26T11:17:37Z</time>
      </trkpt>
      <trkpt lat="43.51149" lon="6.69589">
        <ele>172.5</ele>
        <time>2025-10-26T11:17:38Z</time>
      </trkpt>
      <trkpt lat="43.51148" lon="6.69589">
        <ele>172.5</ele>
        <time>2025-10-26T11:17:39Z</time>
      </trkpt>
      <trkpt lat="43.51148" lon="6.69589">
        <ele>172.3</ele>
        <time>2025-10-26T11:17:40Z</time>
      </trkpt>
      <trkpt lat="43.51148" lon="6.69589">
        <ele>172.2</ele>
        <time>2025-10-26T11:17:41Z</time>
      </trkpt>
      <trkpt lat="43.51148" lon="6.69589">
        <ele>172.2</ele>
        <time>2025-10-26T11:17:42Z</time>
      </trkpt>
      <trkpt lat="43.51149" lon="6.69589">
        <ele>172.2</ele>
        <time>2025-10-26T11:17:43Z</time>
      </trkpt>
      <trkpt lat="43.51149" lon="6.69589">
        <ele>172.2</ele>
        <time>2025-10-26T11:17:44Z</time>
      </trkpt>
      <trkpt lat="43.51149" lon="6.69589">
        <ele>172.1</ele>
        <time>2025-10-26T11:17:45Z</time>
      </trkpt>
      <trkpt lat="43.51149" lon="6.69589">
        <ele>171.9</ele>
        <time>2025-10-26T11:17:46Z</time>
      </trkpt>
      <trkpt lat="43.51149" lon="6.6959">
        <ele>171.6</ele>
        <time>2025-10-26T11:17:47Z</time>
      </trkpt>
      <trkpt lat="43.51149" lon="6.6959">
        <ele>171.5</ele>
        <time>2025-10-26T11:17:48Z</time>
      </trkpt>
      <trkpt lat="43.51149" lon="6.6959">
        <ele>171.5</ele>
        <time>2025-10-26T11:17:49Z</time>
      </trkpt>
      <trkpt lat="43.5115" lon="6.6959">
        <ele>171.8</ele>
        <time>2025-10-26T11:17:50Z</time>
      </trkpt>
      <trkpt lat="43.5115" lon="6.6959">
        <ele>171.9</ele>
        <time>2025-10-26T11:17:51Z</time>
      </trkpt>
      <trkpt lat="43.5115" lon="6.6959">
        <ele>172.1</ele>
        <time>2025-10-26T11:17:52Z</time>
      </trkpt>
      <trkpt lat="43.5115" lon="6.6959">
        <ele>172.3</ele>
        <time>2025-10-26T11:17:53Z</time>
      </trkpt>
      <trkpt lat="43.5115" lon="6.6959">
        <ele>172.3</ele>
        <time>2025-10-26T11:17:54Z</time>
      </trkpt>
      <trkpt lat="43.5115" lon="6.6959">
        <ele>172.2</ele>
        <time>2025-10-26T11:17:55Z</time>
      </trkpt>
      <trkpt lat="43.5115" lon="6.6959">
        <ele>172.2</ele>
        <time>2025-10-26T11:17:56Z</time>
      </trkpt>
      <trkpt lat="43.5115" lon="6.6959">
        <ele>172.2</ele>
        <time>2025-10-26T11:17:57Z</time>
      </trkpt>
      <trkpt lat="43.5115" lon="6.69591">
        <ele>172.2</ele>
        <time>2025-10-26T11:17:58Z</time>
      </trkpt>
      <trkpt lat="43.5115" lon="6.69591">
        <ele>172.3</ele>
        <time>2025-10-26T11:17:59Z</time>
      </trkpt>
      <trkpt lat="43.5115" lon="6.69591">
        <ele>172.3</ele>
        <time>2025-10-26T11:18:00Z</time>
      </trkpt>
      <trkpt lat="43.5115" lon="6.69591">
        <ele>172.4</ele>
        <time>2025-10-26T11:18:01Z</time>
      </trkpt>
      <trkpt lat="43.5115" lon="6.69591">
        <ele>172.5</ele>
        <time>2025-10-26T11:18:02Z</time>
      </trkpt>
      <trkpt lat="43.5115" lon="6.69591">
        <ele>172.5</ele>
        <time>2025-10-26T11:18:03Z</time>
      </trkpt>
      <trkpt lat="43.5115" lon="6.69591">
        <ele>172.6</ele>
        <time>2025-10-26T11:18:04Z</time>
      </trkpt>
      <trkpt lat="43.5115" lon="6.69591">
        <ele>172.6</ele>
        <time>2025-10-26T11:18:05Z</time>
      </trkpt>
      <trkpt lat="43.51151" lon="6.69591">
        <ele>172.5</ele>
        <time>2025-10-26T11:18:06Z</time>
      </trkpt>
      <trkpt lat="43.51151" lon="6.69591">
        <ele>172.5</ele>
        <time>2025-10-26T11:18:07Z</time>
      </trkpt>
      <trkpt lat="43.51151" lon="6.69591">
        <ele>172.6</ele>
        <time>2025-10-26T11:18:08Z</time>
      </trkpt>
      <trkpt lat="43.51151" lon="6.69591">
        <ele>172.7</ele>
        <time>2025-10-26T11:18:09Z</time>
      </trkpt>
      <trkpt lat="43.51151" lon="6.69592">
        <ele>172.8</ele>
        <time>2025-10-26T11:18:10Z</time>
      </trkpt>
      <trkpt lat="43.51151" lon="6.69591">
        <ele>172.9</ele>
        <time>2025-10-26T11:18:11Z</time>
      </trkpt>
      <trkpt lat="43.5115" lon="6.69592">
        <ele>172.9</ele>
        <time>2025-10-26T11:18:12Z</time>
      </trkpt>
      <trkpt lat="43.5115" lon="6.69592">
        <ele>172.9</ele>
        <time>2025-10-26T11:18:13Z</time>
      </trkpt>
      <trkpt lat="43.51149" lon="6.69592">
        <ele>172.9</ele>
        <time>2025-10-26T11:18:14Z</time>
      </trkpt>
      <trkpt lat="43.51149" lon="6.69592">
        <ele>172.8</ele>
        <time>2025-10-26T11:18:15Z</time>
      </trkpt>
      <trkpt lat="43.51149" lon="6.69592">
        <ele>172.8</ele>
        <time>2025-10-26T11:18:16Z</time>
      </trkpt>
      <trkpt lat="43.51149" lon="6.69592">
        <ele>172.7</ele>
        <time>2025-10-26T11:18:17Z</time>
      </trkpt>
      <trkpt lat="43.51149" lon="6.69593">
        <ele>172.7</ele>
        <time>2025-10-26T11:18:18Z</time>
      </trkpt>
      <trkpt lat="43.51149" lon="6.69593">
        <ele>172.7</ele>
        <time>2025-10-26T11:18:19Z</time>
      </trkpt>
      <trkpt lat="43.5115" lon="6.69594">
        <ele>172.7</ele>
        <time>2025-10-26T11:18:20Z</time>
      </trkpt>
      <trkpt lat="43.5115" lon="6.69595">
        <ele>172.6</ele>
        <time>2025-10-26T11:18:21Z</time>
      </trkpt>
      <trkpt lat="43.5115" lon="6.69595">
        <ele>172.5</ele>
        <time>2025-10-26T11:18:22Z</time>
      </trkpt>
      <trkpt lat="43.5115" lon="6.69596">
        <ele>172.5</ele>
        <time>2025-10-26T11:18:23Z</time>
      </trkpt>
      <trkpt lat="43.5115" lon="6.69596">
        <ele>172.5</ele>
        <time>2025-10-26T11:18:24Z</time>
      </trkpt>
      <trkpt lat="43.5115" lon="6.69597">
        <ele>172.5</ele>
        <time>2025-10-26T11:18:25Z</time>
      </trkpt>
      <trkpt lat="43.51151" lon="6.69597">
        <ele>172.5</ele>
        <time>2025-10-26T11:18:26Z</time>
      </trkpt>
      <trkpt lat="43.51151" lon="6.69597">
        <ele>172.3</ele>
        <time>2025-10-26T11:18:27Z</time>
      </trkpt>
      <trkpt lat="43.51151" lon="6.69597">
        <ele>172.4</ele>
        <time>2025-10-26T11:18:28Z</time>
      </trkpt>
      <trkpt lat="43.51151" lon="6.69597">
        <ele>172.5</ele>
        <time>2025-10-26T11:18:29Z</time>
      </trkpt>
      <trkpt lat="43.51151" lon="6.69597">
        <ele>172.6</ele>
        <time>2025-10-26T11:18:30Z</time>
      </trkpt>
      <trkpt lat="43.51151" lon="6.69597">
        <ele>172.7</ele>
        <time>2025-10-26T11:18:31Z</time>
      </trkpt>
      <trkpt lat="43.51151" lon="6.69596">
        <ele>172.7</ele>
        <time>2025-10-26T11:18:32Z</time>
      </trkpt>
      <trkpt lat="43.51151" lon="6.69596">
        <ele>172.7</ele>
        <time>2025-10-26T11:18:33Z</time>
      </trkpt>
      <trkpt lat="43.51151" lon="6.69596">
        <ele>172.6</ele>
        <time>2025-10-26T11:18:34Z</time>
      </trkpt>
      <trkpt lat="43.51151" lon="6.69595">
        <ele>172.6</ele>
        <time>2025-10-26T11:18:35Z</time>
      </trkpt>
      <trkpt lat="43.51151" lon="6.69593">
        <ele>172.5</ele>
        <time>2025-10-26T11:18:36Z</time>
      </trkpt>
      <trkpt lat="43.51151" lon="6.69592">
        <ele>172.5</ele>
        <time>2025-10-26T11:18:37Z</time>
      </trkpt>
      <trkpt lat="43.51151" lon="6.69592">
        <ele>172.6</ele>
        <time>2025-10-26T11:18:38Z</time>
      </trkpt>
      <trkpt lat="43.5115" lon="6.69591">
        <ele>172.4</ele>
        <time>2025-10-26T11:18:39Z</time>
      </trkpt>
      <trkpt lat="43.5115" lon="6.69591">
        <ele>172.4</ele>
        <time>2025-10-26T11:18:40Z</time>
      </trkpt>
      <trkpt lat="43.51149" lon="6.69592">
        <ele>172.3</ele>
        <time>2025-10-26T11:18:41Z</time>
      </trkpt>
      <trkpt lat="43.51149" lon="6.69591">
        <ele>172.2</ele>
        <time>2025-10-26T11:18:42Z</time>
      </trkpt>
      <trkpt lat="43.51148" lon="6.69592">
        <ele>172.1</ele>
        <time>2025-10-26T11:18:43Z</time>
      </trkpt>
      <trkpt lat="43.51148" lon="6.69592">
        <ele>171.6</ele>
        <time>2025-10-26T11:18:44Z</time>
      </trkpt>
      <trkpt lat="43.51148" lon="6.69593">
        <ele>171.3</ele>
        <time>2025-10-26T11:18:45Z</time>
      </trkpt>
      <trkpt lat="43.51148" lon="6.69593">
        <ele>171.3</ele>
        <time>2025-10-26T11:18:46Z</time>
      </trkpt>
      <trkpt lat="43.51147" lon="6.69593">
        <ele>171.4</ele>
        <time>2025-10-26T11:18:47Z</time>
      </trkpt>
      <trkpt lat="43.51147" lon="6.69593">
        <ele>171.6</ele>
        <time>2025-10-26T11:18:48Z</time>
      </trkpt>
      <trkpt lat="43.51147" lon="6.69593">
        <ele>171.6</ele>
        <time>2025-10-26T11:18:49Z</time>
      </trkpt>
      <trkpt lat="43.51147" lon="6.69593">
        <ele>171.7</ele>
        <time>2025-10-26T11:18:50Z</time>
      </trkpt>
      <trkpt lat="43.51147" lon="6.69593">
        <ele>171.8</ele>
        <time>2025-10-26T11:18:51Z</time>
      </trkpt>
      <trkpt lat="43.51147" lon="6.69593">
        <ele>171.8</ele>
        <time>2025-10-26T11:18:52Z</time>
      </trkpt>
      <trkpt lat="43.51147" lon="6.69593">
        <ele>171.8</ele>
        <time>2025-10-26T11:18:53Z</time>
      </trkpt>
      <trkpt lat="43.51147" lon="6.69594">
        <ele>171.7</ele>
        <time>2025-10-26T11:18:54Z</time>
      </trkpt>
      <trkpt lat="43.51147" lon="6.69594">
        <ele>171.7</ele>
        <time>2025-10-26T11:18:55Z</time>
      </trkpt>
      <trkpt lat="43.51147" lon="6.69594">
        <ele>171.6</ele>
        <time>2025-10-26T11:18:56Z</time>
      </trkpt>
      <trkpt lat="43.51147" lon="6.69594">
        <ele>171.6</ele>
        <time>2025-10-26T11:18:57Z</time>
      </trkpt>
      <trkpt lat="43.51147" lon="6.69594">
        <ele>171.5</ele>
        <time>2025-10-26T11:18:58Z</time>
      </trkpt>
      <trkpt lat="43.51147" lon="6.69595">
        <ele>171.5</ele>
        <time>2025-10-26T11:18:59Z</time>
      </trkpt>
      <trkpt lat="43.51147" lon="6.69596">
        <ele>171.5</ele>
        <time>2025-10-26T11:19:00Z</time>
      </trkpt>
      <trkpt lat="43.51147" lon="6.69596">
        <ele>171.2</ele>
        <time>2025-10-26T11:19:01Z</time>
      </trkpt>
      <trkpt lat="43.51147" lon="6.69597">
        <ele>170.9</ele>
        <time>2025-10-26T11:19:02Z</time>
      </trkpt>
      <trkpt lat="43.51146" lon="6.69597">
        <ele>170.8</ele>
        <time>2025-10-26T11:19:03Z</time>
      </trkpt>
      <trkpt lat="43.51146" lon="6.69598">
        <ele>170.6</ele>
        <time>2025-10-26T11:19:04Z</time>
      </trkpt>
      <trkpt lat="43.51146" lon="6.69598">
        <ele>170.5</ele>
        <time>2025-10-26T11:19:05Z</time>
      </trkpt>
      <trkpt lat="43.51147" lon="6.69598">
        <ele>170.3</ele>
        <time>2025-10-26T11:19:06Z</time>
      </trkpt>
      <trkpt lat="43.51147" lon="6.69598">
        <ele>170.2</ele>
        <time>2025-10-26T11:19:07Z</time>
      </trkpt>
      <trkpt lat="43.51147" lon="6.69598">
        <ele>170.1</ele>
        <time>2025-10-26T11:19:08Z</time>
      </trkpt>
      <trkpt lat="43.51147" lon="6.69598">
        <ele>170.1</ele>
        <time>2025-10-26T11:19:09Z</time>
      </trkpt>
      <trkpt lat="43.51147" lon="6.69598">
        <ele>170.1</ele>
        <time>2025-10-26T11:19:10Z</time>
      </trkpt>
      <trkpt lat="43.51147" lon="6.69598">
        <ele>170.2</ele>
        <time>2025-10-26T11:19:11Z</time>
      </trkpt>
      <trkpt lat="43.51147" lon="6.69598">
        <ele>170.2</ele>
        <time>2025-10-26T11:19:12Z</time>
      </trkpt>
      <trkpt lat="43.51147" lon="6.69598">
        <ele>170.3</ele>
        <time>2025-10-26T11:19:13Z</time>
      </trkpt>
      <trkpt lat="43.51148" lon="6.69598">
        <ele>170.3</ele>
        <time>2025-10-26T11:19:14Z</time>
      </trkpt>
      <trkpt lat="43.51148" lon="6.69598">
        <ele>170.3</ele>
        <time>2025-10-26T11:19:15Z</time>
      </trkpt>
      <trkpt lat="43.51148" lon="6.69598">
        <ele>170.4</ele>
        <time>2025-10-26T11:19:16Z</time>
      </trkpt>
      <trkpt lat="43.51148" lon="6.69599">
        <ele>170.4</ele>
        <time>2025-10-26T11:19:17Z</time>
      </trkpt>
      <trkpt lat="43.51148" lon="6.69599">
        <ele>170.4</ele>
        <time>2025-10-26T11:19:18Z</time>
      </trkpt>
      <trkpt lat="43.51148" lon="6.69599">
        <ele>170.5</ele>
        <time>2025-10-26T11:19:19Z</time>
      </trkpt>
      <trkpt lat="43.51148" lon="6.69599">
        <ele>170.5</ele>
        <time>2025-10-26T11:19:20Z</time>
      </trkpt>
      <trkpt lat="43.51148" lon="6.69599">
        <ele>170.5</ele>
        <time>2025-10-26T11:19:21Z</time>
      </trkpt>
      <trkpt lat="43.51148" lon="6.69599">
        <ele>170.5</ele>
        <time>2025-10-26T11:19:22Z</time>
      </trkpt>
      <trkpt lat="43.51148" lon="6.69599">
        <ele>170.5</ele>
        <time>2025-10-26T11:19:23Z</time>
      </trkpt>
      <trkpt lat="43.51148" lon="6.69599">
        <ele>170.3</ele>
        <time>2025-10-26T11:19:24Z</time>
      </trkpt>
      <trkpt lat="43.51148" lon="6.69599">
        <ele>170.1</ele>
        <time>2025-10-26T11:19:25Z</time>
      </trkpt>
      <trkpt lat="43.51148" lon="6.69599">
        <ele>170</ele>
        <time>2025-10-26T11:19:26Z</time>
      </trkpt>
      <trkpt lat="43.51148" lon="6.69599">
        <ele>169.8</ele>
        <time>2025-10-26T11:19:27Z</time>
      </trkpt>
      <trkpt lat="43.51148" lon="6.69599">
        <ele>169.7</ele>
        <time>2025-10-26T11:19:28Z</time>
      </trkpt>
      <trkpt lat="43.51148" lon="6.69599">
        <ele>169.5</ele>
        <time>2025-10-26T11:19:29Z</time>
      </trkpt>
      <trkpt lat="43.51148" lon="6.69599">
        <ele>169.5</ele>
        <time>2025-10-26T11:19:30Z</time>
      </trkpt>
      <trkpt lat="43.51148" lon="6.69599">
        <ele>169.5</ele>
        <time>2025-10-26T11:19:31Z</time>
      </trkpt>
      <trkpt lat="43.51148" lon="6.69599">
        <ele>169.6</ele>
        <time>2025-10-26T11:19:32Z</time>
      </trkpt>
      <trkpt lat="43.51148" lon="6.69599">
        <ele>169.8</ele>
        <time>2025-10-26T11:19:33Z</time>
      </trkpt>
      <trkpt lat="43.51148" lon="6.69599">
        <ele>169.9</ele>
        <time>2025-10-26T11:19:34Z</time>
      </trkpt>
      <trkpt lat="43.51148" lon="6.69599">
        <ele>170</ele>
        <time>2025-10-26T11:19:35Z</time>
      </trkpt>
      <trkpt lat="43.51148" lon="6.69599">
        <ele>170</ele>
        <time>2025-10-26T11:19:36Z</time>
      </trkpt>
      <trkpt lat="43.51148" lon="6.69599">
        <ele>170.1</ele>
        <time>2025-10-26T11:19:37Z</time>
      </trkpt>
      <trkpt lat="43.51148" lon="6.69599">
        <ele>170.2</ele>
        <time>2025-10-26T11:19:38Z</time>
      </trkpt>
      <trkpt lat="43.51148" lon="6.69599">
        <ele>170.2</ele>
        <time>2025-10-26T11:19:39Z</time>
      </trkpt>
      <trkpt lat="43.51148" lon="6.69599">
        <ele>170.2</ele>
        <time>2025-10-26T11:19:40Z</time>
      </trkpt>
      <trkpt lat="43.51148" lon="6.69599">
        <ele>170.2</ele>
        <time>2025-10-26T11:19:41Z</time>
      </trkpt>
      <trkpt lat="43.51148" lon="6.69599">
        <ele>170.3</ele>
        <time>2025-10-26T11:19:42Z</time>
      </trkpt>
      <trkpt lat="43.51148" lon="6.69599">
        <ele>170.3</ele>
        <time>2025-10-26T11:19:43Z</time>
      </trkpt>
      <trkpt lat="43.51148" lon="6.69599">
        <ele>170.3</ele>
        <time>2025-10-26T11:19:44Z</time>
      </trkpt>
      <trkpt lat="43.51148" lon="6.69599">
        <ele>170.2</ele>
        <time>2025-10-26T11:19:45Z</time>
      </trkpt>
      <trkpt lat="43.51148" lon="6.69599">
        <ele>170.2</ele>
        <time>2025-10-26T11:19:46Z</time>
      </trkpt>
      <trkpt lat="43.51148" lon="6.69599">
        <ele>170.1</ele>
        <time>2025-10-26T11:19:47Z</time>
      </trkpt>
      <trkpt lat="43.51147" lon="6.69599">
        <ele>170.1</ele>
        <time>2025-10-26T11:19:48Z</time>
      </trkpt>
      <trkpt lat="43.51147" lon="6.69599">
        <ele>170</ele>
        <time>2025-10-26T11:19:49Z</time>
      </trkpt>
      <trkpt lat="43.51147" lon="6.69599">
        <ele>169.9</ele>
        <time>2025-10-26T11:19:50Z</time>
      </trkpt>
      <trkpt lat="43.51147" lon="6.69599">
        <ele>169.8</ele>
        <time>2025-10-26T11:19:51Z</time>
      </trkpt>
      <trkpt lat="43.51147" lon="6.69599">
        <ele>169.9</ele>
        <time>2025-10-26T11:19:52Z</time>
      </trkpt>
      <trkpt lat="43.51147" lon="6.69599">
        <ele>170.1</ele>
        <time>2025-10-26T11:19:53Z</time>
      </trkpt>
      <trkpt lat="43.51147" lon="6.69599">
        <ele>170.1</ele>
        <time>2025-10-26T11:19:54Z</time>
      </trkpt>
      <trkpt lat="43.51147" lon="6.69599">
        <ele>170.1</ele>
        <time>2025-10-26T11:19:55Z</time>
      </trkpt>
      <trkpt lat="43.51147" lon="6.69599">
        <ele>170.1</ele>
        <time>2025-10-26T11:19:56Z</time>
      </trkpt>
      <trkpt lat="43.51147" lon="6.69599">
        <ele>170.2</ele>
        <time>2025-10-26T11:19:57Z</time>
      </trkpt>
      <trkpt lat="43.51147" lon="6.69599">
        <ele>170.4</ele>
        <time>2025-10-26T11:19:58Z</time>
      </trkpt>
      <trkpt lat="43.51147" lon="6.69599">
        <ele>170.6</ele>
        <time>2025-10-26T11:19:59Z</time>
      </trkpt>
      <trkpt lat="43.51146" lon="6.696">
        <ele>170.8</ele>
        <time>2025-10-26T11:20:00Z</time>
      </trkpt>
      <trkpt lat="43.51146" lon="6.696">
        <ele>170.9</ele>
        <time>2025-10-26T11:20:01Z</time>
      </trkpt>
      <trkpt lat="43.51146" lon="6.696">
        <ele>171</ele>
        <time>2025-10-26T11:20:02Z</time>
      </trkpt>
      <trkpt lat="43.51146" lon="6.696">
        <ele>171.1</ele>
        <time>2025-10-26T11:20:03Z</time>
      </trkpt>
      <trkpt lat="43.51146" lon="6.696">
        <ele>171.2</ele>
        <time>2025-10-26T11:20:04Z</time>
      </trkpt>
      <trkpt lat="43.51147" lon="6.69601">
        <ele>171.4</ele>
        <time>2025-10-26T11:20:05Z</time>
      </trkpt>
      <trkpt lat="43.51147" lon="6.69602">
        <ele>171.6</ele>
        <time>2025-10-26T11:20:06Z</time>
      </trkpt>
      <trkpt lat="43.51148" lon="6.69603">
        <ele>171.6</ele>
        <time>2025-10-26T11:20:07Z</time>
      </trkpt>
      <trkpt lat="43.51148" lon="6.69603">
        <ele>171.6</ele>
        <time>2025-10-26T11:20:08Z</time>
      </trkpt>
      <trkpt lat="43.51147" lon="6.69602">
        <ele>171.6</ele>
        <time>2025-10-26T11:20:09Z</time>
      </trkpt>
      <trkpt lat="43.51148" lon="6.69602">
        <ele>171.6</ele>
        <time>2025-10-26T11:20:10Z</time>
      </trkpt>
      <trkpt lat="43.51148" lon="6.69602">
        <ele>171.7</ele>
        <time>2025-10-26T11:20:11Z</time>
      </trkpt>
      <trkpt lat="43.51147" lon="6.69601">
        <ele>171.7</ele>
        <time>2025-10-26T11:20:12Z</time>
      </trkpt>
      <trkpt lat="43.51147" lon="6.696">
        <ele>171.7</ele>
        <time>2025-10-26T11:20:13Z</time>
      </trkpt>
      <trkpt lat="43.51147" lon="6.696">
        <ele>172</ele>
        <time>2025-10-26T11:20:14Z</time>
      </trkpt>
      <trkpt lat="43.51147" lon="6.696">
        <ele>172.2</ele>
        <time>2025-10-26T11:20:15Z</time>
      </trkpt>
      <trkpt lat="43.51147" lon="6.696">
        <ele>172</ele>
        <time>2025-10-26T11:20:16Z</time>
      </trkpt>
      <trkpt lat="43.51147" lon="6.696">
        <ele>172</ele>
        <time>2025-10-26T11:20:17Z</time>
      </trkpt>
      <trkpt lat="43.51147" lon="6.696">
        <ele>171.9</ele>
        <time>2025-10-26T11:20:18Z</time>
      </trkpt>
      <trkpt lat="43.51147" lon="6.696">
        <ele>171.8</ele>
        <time>2025-10-26T11:20:19Z</time>
      </trkpt>
      <trkpt lat="43.51147" lon="6.696">
        <ele>171.8</ele>
        <time>2025-10-26T11:20:20Z</time>
      </trkpt>
      <trkpt lat="43.51147" lon="6.696">
        <ele>171.6</ele>
        <time>2025-10-26T11:20:21Z</time>
      </trkpt>
      <trkpt lat="43.51147" lon="6.696">
        <ele>171.5</ele>
        <time>2025-10-26T11:20:22Z</time>
      </trkpt>
      <trkpt lat="43.51147" lon="6.696">
        <ele>171.4</ele>
        <time>2025-10-26T11:20:23Z</time>
      </trkpt>
      <trkpt lat="43.51147" lon="6.696">
        <ele>171.3</ele>
        <time>2025-10-26T11:20:24Z</time>
      </trkpt>
      <trkpt lat="43.51147" lon="6.696">
        <ele>171.2</ele>
        <time>2025-10-26T11:20:25Z</time>
      </trkpt>
      <trkpt lat="43.51148" lon="6.696">
        <ele>171.2</ele>
        <time>2025-10-26T11:20:26Z</time>
      </trkpt>
      <trkpt lat="43.51148" lon="6.696">
        <ele>171.3</ele>
        <time>2025-10-26T11:20:27Z</time>
      </trkpt>
      <trkpt lat="43.51148" lon="6.696">
        <ele>171.4</ele>
        <time>2025-10-26T11:20:28Z</time>
      </trkpt>
      <trkpt lat="43.51148" lon="6.696">
        <ele>171.4</ele>
        <time>2025-10-26T11:20:29Z</time>
      </trkpt>
      <trkpt lat="43.51148" lon="6.696">
        <ele>171.5</ele>
        <time>2025-10-26T11:20:30Z</time>
      </trkpt>
      <trkpt lat="43.51148" lon="6.696">
        <ele>171.6</ele>
        <time>2025-10-26T11:20:31Z</time>
      </trkpt>
      <trkpt lat="43.51148" lon="6.696">
        <ele>171.6</ele>
        <time>2025-10-26T11:20:32Z</time>
      </trkpt>
      <trkpt lat="43.51148" lon="6.696">
        <ele>171.7</ele>
        <time>2025-10-26T11:20:33Z</time>
      </trkpt>
      <trkpt lat="43.51148" lon="6.696">
        <ele>171.8</ele>
        <time>2025-10-26T11:20:34Z</time>
      </trkpt>
      <trkpt lat="43.51148" lon="6.696">
        <ele>171.8</ele>
        <time>2025-10-26T11:20:35Z</time>
      </trkpt>
      <trkpt lat="43.51148" lon="6.696">
        <ele>171.6</ele>
        <time>2025-10-26T11:20:36Z</time>
      </trkpt>
      <trkpt lat="43.51148" lon="6.69599">
        <ele>171.5</ele>
        <time>2025-10-26T11:20:37Z</time>
      </trkpt>
      <trkpt lat="43.51149" lon="6.69599">
        <ele>171.5</ele>
        <time>2025-10-26T11:20:38Z</time>
      </trkpt>
      <trkpt lat="43.51149" lon="6.69598">
        <ele>171.7</ele>
        <time>2025-10-26T11:20:39Z</time>
      </trkpt>
      <trkpt lat="43.51149" lon="6.69598">
        <ele>171.7</ele>
        <time>2025-10-26T11:20:40Z</time>
      </trkpt>
      <trkpt lat="43.51149" lon="6.69597">
        <ele>171.7</ele>
        <time>2025-10-26T11:20:41Z</time>
      </trkpt>
      <trkpt lat="43.51149" lon="6.69596">
        <ele>171.8</ele>
        <time>2025-10-26T11:20:42Z</time>
      </trkpt>
      <trkpt lat="43.51148" lon="6.69595">
        <ele>172.1</ele>
        <time>2025-10-26T11:20:43Z</time>
      </trkpt>
      <trkpt lat="43.51148" lon="6.69595">
        <ele>172.2</ele>
        <time>2025-10-26T11:20:44Z</time>
      </trkpt>
      <trkpt lat="43.51148" lon="6.69594">
        <ele>172.2</ele>
        <time>2025-10-26T11:20:45Z</time>
      </trkpt>
      <trkpt lat="43.51147" lon="6.69593">
        <ele>172.3</ele>
        <time>2025-10-26T11:20:46Z</time>
      </trkpt>
      <trkpt lat="43.51147" lon="6.69593">
        <ele>172.3</ele>
        <time>2025-10-26T11:20:47Z</time>
      </trkpt>
      <trkpt lat="43.51146" lon="6.69593">
        <ele>172.2</ele>
        <time>2025-10-26T11:20:48Z</time>
      </trkpt>
      <trkpt lat="43.51146" lon="6.69593">
        <ele>172</ele>
        <time>2025-10-26T11:20:49Z</time>
      </trkpt>
      <trkpt lat="43.51145" lon="6.69593">
        <ele>171.9</ele>
        <time>2025-10-26T11:20:50Z</time>
      </trkpt>
      <trkpt lat="43.51145" lon="6.69593">
        <ele>171.8</ele>
        <time>2025-10-26T11:20:51Z</time>
      </trkpt>
      <trkpt lat="43.51144" lon="6.69592">
        <ele>171.4</ele>
        <time>2025-10-26T11:20:52Z</time>
      </trkpt>
      <trkpt lat="43.51144" lon="6.69592">
        <ele>171.4</ele>
        <time>2025-10-26T11:20:53Z</time>
      </trkpt>
      <trkpt lat="43.51144" lon="6.69592">
        <ele>171.4</ele>
        <time>2025-10-26T11:20:54Z</time>
      </trkpt>
      <trkpt lat="43.51144" lon="6.69592">
        <ele>171.4</ele>
        <time>2025-10-26T11:20:55Z</time>
      </trkpt>
      <trkpt lat="43.51144" lon="6.69592">
        <ele>171.4</ele>
        <time>2025-10-26T11:20:56Z</time>
      </trkpt>
      <trkpt lat="43.51144" lon="6.69592">
        <ele>171.4</ele>
        <time>2025-10-26T11:20:57Z</time>
      </trkpt>
      <trkpt lat="43.51144" lon="6.69592">
        <ele>171.4</ele>
        <time>2025-10-26T11:20:58Z</time>
      </trkpt>
      <trkpt lat="43.51145" lon="6.69592">
        <ele>171.4</ele>
        <time>2025-10-26T11:20:59Z</time>
      </trkpt>
      <trkpt lat="43.51145" lon="6.69592">
        <ele>171.4</ele>
        <time>2025-10-26T11:21:00Z</time>
      </trkpt>
      <trkpt lat="43.51145" lon="6.69591">
        <ele>171.5</ele>
        <time>2025-10-26T11:21:01Z</time>
      </trkpt>
      <trkpt lat="43.51145" lon="6.69591">
        <ele>171.8</ele>
        <time>2025-10-26T11:21:02Z</time>
      </trkpt>
      <trkpt lat="43.51146" lon="6.69591">
        <ele>171.8</ele>
        <time>2025-10-26T11:21:03Z</time>
      </trkpt>
      <trkpt lat="43.51146" lon="6.69592">
        <ele>172.1</ele>
        <time>2025-10-26T11:21:04Z</time>
      </trkpt>
      <trkpt lat="43.51146" lon="6.69592">
        <ele>172.3</ele>
        <time>2025-10-26T11:21:05Z</time>
      </trkpt>
      <trkpt lat="43.51146" lon="6.69591">
        <ele>172.5</ele>
        <time>2025-10-26T11:21:06Z</time>
      </trkpt>
      <trkpt lat="43.51146" lon="6.69591">
        <ele>172.7</ele>
        <time>2025-10-26T11:21:07Z</time>
      </trkpt>
      <trkpt lat="43.51146" lon="6.69591">
        <ele>172.5</ele>
        <time>2025-10-26T11:21:08Z</time>
      </trkpt>
      <trkpt lat="43.51146" lon="6.69591">
        <ele>172.5</ele>
        <time>2025-10-26T11:21:09Z</time>
      </trkpt>
      <trkpt lat="43.51146" lon="6.69591">
        <ele>172.6</ele>
        <time>2025-10-26T11:21:10Z</time>
      </trkpt>
      <trkpt lat="43.51146" lon="6.69591">
        <ele>172.7</ele>
        <time>2025-10-26T11:21:11Z</time>
      </trkpt>
      <trkpt lat="43.51146" lon="6.69591">
        <ele>172.6</ele>
        <time>2025-10-26T11:21:12Z</time>
      </trkpt>
      <trkpt lat="43.51147" lon="6.69591">
        <ele>172.6</ele>
        <time>2025-10-26T11:21:13Z</time>
      </trkpt>
      <trkpt lat="43.51147" lon="6.69591">
        <ele>172.7</ele>
        <time>2025-10-26T11:21:14Z</time>
      </trkpt>
      <trkpt lat="43.51147" lon="6.69592">
        <ele>172.7</ele>
        <time>2025-10-26T11:21:15Z</time>
      </trkpt>
      <trkpt lat="43.51148" lon="6.69592">
        <ele>172.8</ele>
        <time>2025-10-26T11:21:16Z</time>
      </trkpt>
      <trkpt lat="43.51148" lon="6.69592">
        <ele>172.9</ele>
        <time>2025-10-26T11:21:17Z</time>
      </trkpt>
      <trkpt lat="43.51148" lon="6.69591">
        <ele>173</ele>
        <time>2025-10-26T11:21:18Z</time>
      </trkpt>
      <trkpt lat="43.51148" lon="6.69591">
        <ele>173.1</ele>
        <time>2025-10-26T11:21:19Z</time>
      </trkpt>
      <trkpt lat="43.51147" lon="6.6959">
        <ele>173.1</ele>
        <time>2025-10-26T11:21:20Z</time>
      </trkpt>
      <trkpt lat="43.51147" lon="6.6959">
        <ele>173.1</ele>
        <time>2025-10-26T11:21:21Z</time>
      </trkpt>
      <trkpt lat="43.51147" lon="6.69591">
        <ele>172.9</ele>
        <time>2025-10-26T11:21:22Z</time>
      </trkpt>
      <trkpt lat="43.51147" lon="6.6959">
        <ele>173</ele>
        <time>2025-10-26T11:21:23Z</time>
      </trkpt>
      <trkpt lat="43.51147" lon="6.6959">
        <ele>173.1</ele>
        <time>2025-10-26T11:21:24Z</time>
      </trkpt>
      <trkpt lat="43.51147" lon="6.6959">
        <ele>173.1</ele>
        <time>2025-10-26T11:21:25Z</time>
      </trkpt>
      <trkpt lat="43.51148" lon="6.69591">
        <ele>173.1</ele>
        <time>2025-10-26T11:21:26Z</time>
      </trkpt>
      <trkpt lat="43.51148" lon="6.69591">
        <ele>173.2</ele>
        <time>2025-10-26T11:21:27Z</time>
      </trkpt>
      <trkpt lat="43.51148" lon="6.69591">
        <ele>173.3</ele>
        <time>2025-10-26T11:21:28Z</time>
      </trkpt>
      <trkpt lat="43.51148" lon="6.69591">
        <ele>173.4</ele>
        <time>2025-10-26T11:21:29Z</time>
      </trkpt>
      <trkpt lat="43.51148" lon="6.69591">
        <ele>173.5</ele>
        <time>2025-10-26T11:21:30Z</time>
      </trkpt>
      <trkpt lat="43.51149" lon="6.69591">
        <ele>173.4</ele>
        <time>2025-10-26T11:21:31Z</time>
      </trkpt>
      <trkpt lat="43.51149" lon="6.69591">
        <ele>173.5</ele>
        <time>2025-10-26T11:21:32Z</time>
      </trkpt>
      <trkpt lat="43.51149" lon="6.69591">
        <ele>173.5</ele>
        <time>2025-10-26T11:21:33Z</time>
      </trkpt>
      <trkpt lat="43.51149" lon="6.69591">
        <ele>173.4</ele>
        <time>2025-10-26T11:21:34Z</time>
      </trkpt>
      <trkpt lat="43.51149" lon="6.69592">
        <ele>173.5</ele>
        <time>2025-10-26T11:21:35Z</time>
      </trkpt>
      <trkpt lat="43.51149" lon="6.69591">
        <ele>173.5</ele>
        <time>2025-10-26T11:21:36Z</time>
      </trkpt>
      <trkpt lat="43.51148" lon="6.69591">
        <ele>173.5</ele>
        <time>2025-10-26T11:21:37Z</time>
      </trkpt>
      <trkpt lat="43.51148" lon="6.6959">
        <ele>173.5</ele>
        <time>2025-10-26T11:21:38Z</time>
      </trkpt>
      <trkpt lat="43.51148" lon="6.6959">
        <ele>173.5</ele>
        <time>2025-10-26T11:21:39Z</time>
      </trkpt>
      <trkpt lat="43.51148" lon="6.69589">
        <ele>173.6</ele>
        <time>2025-10-26T11:21:40Z</time>
      </trkpt>
      <trkpt lat="43.51147" lon="6.69588">
        <ele>173.6</ele>
        <time>2025-10-26T11:21:41Z</time>
      </trkpt>
      <trkpt lat="43.51147" lon="6.69587">
        <ele>173.6</ele>
        <time>2025-10-26T11:21:42Z</time>
      </trkpt>
      <trkpt lat="43.51146" lon="6.69587">
        <ele>173.5</ele>
        <time>2025-10-26T11:21:43Z</time>
      </trkpt>
      <trkpt lat="43.51146" lon="6.69587">
        <ele>173.4</ele>
        <time>2025-10-26T11:21:44Z</time>
      </trkpt>
      <trkpt lat="43.51146" lon="6.69586">
        <ele>173.4</ele>
        <time>2025-10-26T11:21:45Z</time>
      </trkpt>
      <trkpt lat="43.51146" lon="6.69586">
        <ele>173.2</ele>
        <time>2025-10-26T11:21:46Z</time>
      </trkpt>
      <trkpt lat="43.51146" lon="6.69586">
        <ele>173.1</ele>
        <time>2025-10-26T11:21:47Z</time>
      </trkpt>
      <trkpt lat="43.51146" lon="6.69586">
        <ele>173.1</ele>
        <time>2025-10-26T11:21:48Z</time>
      </trkpt>
      <trkpt lat="43.51146" lon="6.69586">
        <ele>173.1</ele>
        <time>2025-10-26T11:21:49Z</time>
      </trkpt>
      <trkpt lat="43.51146" lon="6.69586">
        <ele>173.1</ele>
        <time>2025-10-26T11:21:50Z</time>
      </trkpt>
      <trkpt lat="43.51146" lon="6.69586">
        <ele>173</ele>
        <time>2025-10-26T11:21:51Z</time>
      </trkpt>
      <trkpt lat="43.51146" lon="6.69585">
        <ele>173</ele>
        <time>2025-10-26T11:21:52Z</time>
      </trkpt>
      <trkpt lat="43.51145" lon="6.69585">
        <ele>172.9</ele>
        <time>2025-10-26T11:21:53Z</time>
      </trkpt>
      <trkpt lat="43.51145" lon="6.69585">
        <ele>172.8</ele>
        <time>2025-10-26T11:21:54Z</time>
      </trkpt>
      <trkpt lat="43.51145" lon="6.69585">
        <ele>172.8</ele>
        <time>2025-10-26T11:21:55Z</time>
      </trkpt>
      <trkpt lat="43.51145" lon="6.69585">
        <ele>172.9</ele>
        <time>2025-10-26T11:21:56Z</time>
      </trkpt>
      <trkpt lat="43.51145" lon="6.69585">
        <ele>172.8</ele>
        <time>2025-10-26T11:21:57Z</time>
      </trkpt>
      <trkpt lat="43.51145" lon="6.69585">
        <ele>172.9</ele>
        <time>2025-10-26T11:21:58Z</time>
      </trkpt>
      <trkpt lat="43.51145" lon="6.69584">
        <ele>172.9</ele>
        <time>2025-10-26T11:21:59Z</time>
      </trkpt>
      <trkpt lat="43.51145" lon="6.69584">
        <ele>172.9</ele>
        <time>2025-10-26T11:22:00Z</time>
      </trkpt>
      <trkpt lat="43.51145" lon="6.69584">
        <ele>172.9</ele>
        <time>2025-10-26T11:22:01Z</time>
      </trkpt>
      <trkpt lat="43.51145" lon="6.69584">
        <ele>172.9</ele>
        <time>2025-10-26T11:22:02Z</time>
      </trkpt>
      <trkpt lat="43.51145" lon="6.69584">
        <ele>172.9</ele>
        <time>2025-10-26T11:22:03Z</time>
      </trkpt>
      <trkpt lat="43.51145" lon="6.69584">
        <ele>172.9</ele>
        <time>2025-10-26T11:22:04Z</time>
      </trkpt>
      <trkpt lat="43.51145" lon="6.69584">
        <ele>172.9</ele>
        <time>2025-10-26T11:22:05Z</time>
      </trkpt>
      <trkpt lat="43.51145" lon="6.69583">
        <ele>172.8</ele>
        <time>2025-10-26T11:22:06Z</time>
      </trkpt>
      <trkpt lat="43.51145" lon="6.69583">
        <ele>172.8</ele>
        <time>2025-10-26T11:22:07Z</time>
      </trkpt>
      <trkpt lat="43.51145" lon="6.69583">
        <ele>172.8</ele>
        <time>2025-10-26T11:22:08Z</time>
      </trkpt>
      <trkpt lat="43.51145" lon="6.69583">
        <ele>172.7</ele>
        <time>2025-10-26T11:22:09Z</time>
      </trkpt>
      <trkpt lat="43.51145" lon="6.69583">
        <ele>172.7</ele>
        <time>2025-10-26T11:22:10Z</time>
      </trkpt>
      <trkpt lat="43.51144" lon="6.69583">
        <ele>172.6</ele>
        <time>2025-10-26T11:22:11Z</time>
      </trkpt>
      <trkpt lat="43.51144" lon="6.69582">
        <ele>172.6</ele>
        <time>2025-10-26T11:22:12Z</time>
      </trkpt>
      <trkpt lat="43.51144" lon="6.69582">
        <ele>172.6</ele>
        <time>2025-10-26T11:22:13Z</time>
      </trkpt>
      <trkpt lat="43.51144" lon="6.69582">
        <ele>172.6</ele>
        <time>2025-10-26T11:22:14Z</time>
      </trkpt>
      <trkpt lat="43.51144" lon="6.69582">
        <ele>172.6</ele>
        <time>2025-10-26T11:22:15Z</time>
      </trkpt>
      <trkpt lat="43.51144" lon="6.69582">
        <ele>172.6</ele>
        <time>2025-10-26T11:22:16Z</time>
      </trkpt>
      <trkpt lat="43.51144" lon="6.69582">
        <ele>172.6</ele>
        <time>2025-10-26T11:22:17Z</time>
      </trkpt>
      <trkpt lat="43.51144" lon="6.69582">
        <ele>172.6</ele>
        <time>2025-10-26T11:22:18Z</time>
      </trkpt>
      <trkpt lat="43.51144" lon="6.69582">
        <ele>172.6</ele>
        <time>2025-10-26T11:22:19Z</time>
      </trkpt>
      <trkpt lat="43.51144" lon="6.69582">
        <ele>172.6</ele>
        <time>2025-10-26T11:22:20Z</time>
      </trkpt>
      <trkpt lat="43.51144" lon="6.69581">
        <ele>172.6</ele>
        <time>2025-10-26T11:22:21Z</time>
      </trkpt>
      <trkpt lat="43.51144" lon="6.69581">
        <ele>172.6</ele>
        <time>2025-10-26T11:22:22Z</time>
      </trkpt>
      <trkpt lat="43.51144" lon="6.69581">
        <ele>172.7</ele>
        <time>2025-10-26T11:22:23Z</time>
      </trkpt>
      <trkpt lat="43.51144" lon="6.69581">
        <ele>172.8</ele>
        <time>2025-10-26T11:22:24Z</time>
      </trkpt>
      <trkpt lat="43.51144" lon="6.69581">
        <ele>172.8</ele>
        <time>2025-10-26T11:22:25Z</time>
      </trkpt>
      <trkpt lat="43.51144" lon="6.69582">
        <ele>172.7</ele>
        <time>2025-10-26T11:22:26Z</time>
      </trkpt>
      <trkpt lat="43.51144" lon="6.69582">
        <ele>172.7</ele>
        <time>2025-10-26T11:22:27Z</time>
      </trkpt>
      <trkpt lat="43.51144" lon="6.69582">
        <ele>172.6</ele>
        <time>2025-10-26T11:22:28Z</time>
      </trkpt>
      <trkpt lat="43.51145" lon="6.69582">
        <ele>172.5</ele>
        <time>2025-10-26T11:22:29Z</time>
      </trkpt>
      <trkpt lat="43.51145" lon="6.69583">
        <ele>172.6</ele>
        <time>2025-10-26T11:22:30Z</time>
      </trkpt>
      <trkpt lat="43.51145" lon="6.69583">
        <ele>172.6</ele>
        <time>2025-10-26T11:22:31Z</time>
      </trkpt>
      <trkpt lat="43.51145" lon="6.69583">
        <ele>172.6</ele>
        <time>2025-10-26T11:22:32Z</time>
      </trkpt>
      <trkpt lat="43.51145" lon="6.69583">
        <ele>172.6</ele>
        <time>2025-10-26T11:22:33Z</time>
      </trkpt>
      <trkpt lat="43.51145" lon="6.69583">
        <ele>172.7</ele>
        <time>2025-10-26T11:22:34Z</time>
      </trkpt>
      <trkpt lat="43.51145" lon="6.69583">
        <ele>172.8</ele>
        <time>2025-10-26T11:22:35Z</time>
      </trkpt>
      <trkpt lat="43.51145" lon="6.69583">
        <ele>172.8</ele>
        <time>2025-10-26T11:22:36Z</time>
      </trkpt>
      <trkpt lat="43.51145" lon="6.69583">
        <ele>172.8</ele>
        <time>2025-10-26T11:22:37Z</time>
      </trkpt>
      <trkpt lat="43.51145" lon="6.69582">
        <ele>172.7</ele>
        <time>2025-10-26T11:22:38Z</time>
      </trkpt>
      <trkpt lat="43.51145" lon="6.69582">
        <ele>172.7</ele>
        <time>2025-10-26T11:22:39Z</time>
      </trkpt>
      <trkpt lat="43.51146" lon="6.69583">
        <ele>172.8</ele>
        <time>2025-10-26T11:22:40Z</time>
      </trkpt>
      <trkpt lat="43.51146" lon="6.69583">
        <ele>172.9</ele>
        <time>2025-10-26T11:22:41Z</time>
      </trkpt>
      <trkpt lat="43.51146" lon="6.69583">
        <ele>173</ele>
        <time>2025-10-26T11:22:42Z</time>
      </trkpt>
      <trkpt lat="43.51146" lon="6.69583">
        <ele>173.1</ele>
        <time>2025-10-26T11:22:43Z</time>
      </trkpt>
      <trkpt lat="43.51146" lon="6.69583">
        <ele>173.1</ele>
        <time>2025-10-26T11:22:44Z</time>
      </trkpt>
      <trkpt lat="43.51146" lon="6.69583">
        <ele>173.3</ele>
        <time>2025-10-26T11:22:45Z</time>
      </trkpt>
      <trkpt lat="43.51146" lon="6.69583">
        <ele>173.3</ele>
        <time>2025-10-26T11:22:46Z</time>
      </trkpt>
      <trkpt lat="43.51146" lon="6.69583">
        <ele>173.3</ele>
        <time>2025-10-26T11:22:47Z</time>
      </trkpt>
      <trkpt lat="43.51147" lon="6.69584">
        <ele>173.2</ele>
        <time>2025-10-26T11:22:48Z</time>
      </trkpt>
      <trkpt lat="43.51147" lon="6.69584">
        <ele>173.2</ele>
        <time>2025-10-26T11:22:49Z</time>
      </trkpt>
      <trkpt lat="43.51147" lon="6.69584">
        <ele>173.3</ele>
        <time>2025-10-26T11:22:50Z</time>
      </trkpt>
      <trkpt lat="43.51147" lon="6.69584">
        <ele>173.3</ele>
        <time>2025-10-26T11:22:51Z</time>
      </trkpt>
      <trkpt lat="43.51147" lon="6.69584">
        <ele>173.4</ele>
        <time>2025-10-26T11:22:52Z</time>
      </trkpt>
      <trkpt lat="43.51148" lon="6.69584">
        <ele>173.3</ele>
        <time>2025-10-26T11:22:53Z</time>
      </trkpt>
      <trkpt lat="43.51148" lon="6.69584">
        <ele>173.4</ele>
        <time>2025-10-26T11:22:54Z</time>
      </trkpt>
      <trkpt lat="43.51148" lon="6.69584">
        <ele>173.4</ele>
        <time>2025-10-26T11:22:55Z</time>
      </trkpt>
      <trkpt lat="43.51148" lon="6.69584">
        <ele>173.3</ele>
        <time>2025-10-26T11:22:56Z</time>
      </trkpt>
      <trkpt lat="43.51148" lon="6.69584">
        <ele>173.1</ele>
        <time>2025-10-26T11:22:57Z</time>
      </trkpt>
      <trkpt lat="43.51147" lon="6.69584">
        <ele>173.1</ele>
        <time>2025-10-26T11:22:58Z</time>
      </trkpt>
      <trkpt lat="43.51147" lon="6.69583">
        <ele>173.2</ele>
        <time>2025-10-26T11:22:59Z</time>
      </trkpt>
      <trkpt lat="43.51147" lon="6.69583">
        <ele>173.4</ele>
        <time>2025-10-26T11:23:00Z</time>
      </trkpt>
      <trkpt lat="43.51147" lon="6.69583">
        <ele>173.5</ele>
        <time>2025-10-26T11:23:01Z</time>
      </trkpt>
      <trkpt lat="43.51147" lon="6.69583">
        <ele>173.5</ele>
        <time>2025-10-26T11:23:02Z</time>
      </trkpt>
      <trkpt lat="43.51147" lon="6.69582">
        <ele>173.5</ele>
        <time>2025-10-26T11:23:03Z</time>
      </trkpt>
      <trkpt lat="43.51147" lon="6.69582">
        <ele>173.6</ele>
        <time>2025-10-26T11:23:04Z</time>
      </trkpt>
      <trkpt lat="43.51147" lon="6.69582">
        <ele>173.6</ele>
        <time>2025-10-26T11:23:05Z</time>
      </trkpt>
      <trkpt lat="43.51147" lon="6.69582">
        <ele>173.7</ele>
        <time>2025-10-26T11:23:06Z</time>
      </trkpt>
      <trkpt lat="43.51147" lon="6.69582">
        <ele>173.7</ele>
        <time>2025-10-26T11:23:07Z</time>
      </trkpt>
      <trkpt lat="43.51147" lon="6.69582">
        <ele>173.7</ele>
        <time>2025-10-26T11:23:08Z</time>
      </trkpt>
      <trkpt lat="43.51147" lon="6.69582">
        <ele>173.8</ele>
        <time>2025-10-26T11:23:09Z</time>
      </trkpt>
      <trkpt lat="43.51147" lon="6.69582">
        <ele>173.8</ele>
        <time>2025-10-26T11:23:10Z</time>
      </trkpt>
      <trkpt lat="43.51147" lon="6.69583">
        <ele>173.8</ele>
        <time>2025-10-26T11:23:11Z</time>
      </trkpt>
      <trkpt lat="43.51147" lon="6.69582">
        <ele>173.8</ele>
        <time>2025-10-26T11:23:12Z</time>
      </trkpt>
      <trkpt lat="43.51147" lon="6.69583">
        <ele>173.8</ele>
        <time>2025-10-26T11:23:13Z</time>
      </trkpt>
      <trkpt lat="43.51147" lon="6.69583">
        <ele>173.9</ele>
        <time>2025-10-26T11:23:14Z</time>
      </trkpt>
      <trkpt lat="43.51147" lon="6.69583">
        <ele>173.9</ele>
        <time>2025-10-26T11:23:15Z</time>
      </trkpt>
      <trkpt lat="43.51147" lon="6.69583">
        <ele>173.9</ele>
        <time>2025-10-26T11:23:16Z</time>
      </trkpt>
      <trkpt lat="43.51147" lon="6.69583">
        <ele>174</ele>
        <time>2025-10-26T11:23:17Z</time>
      </trkpt>
      <trkpt lat="43.51148" lon="6.69583">
        <ele>174.1</ele>
        <time>2025-10-26T11:23:18Z</time>
      </trkpt>
      <trkpt lat="43.51148" lon="6.69583">
        <ele>174</ele>
        <time>2025-10-26T11:23:19Z</time>
      </trkpt>
      <trkpt lat="43.51148" lon="6.69583">
        <ele>174.1</ele>
        <time>2025-10-26T11:23:20Z</time>
      </trkpt>
      <trkpt lat="43.51148" lon="6.69583">
        <ele>174.1</ele>
        <time>2025-10-26T11:23:21Z</time>
      </trkpt>
      <trkpt lat="43.51147" lon="6.69583">
        <ele>173.8</ele>
        <time>2025-10-26T11:23:22Z</time>
      </trkpt>
      <trkpt lat="43.51147" lon="6.69583">
        <ele>173.6</ele>
        <time>2025-10-26T11:23:23Z</time>
      </trkpt>
      <trkpt lat="43.51147" lon="6.69584">
        <ele>173.6</ele>
        <time>2025-10-26T11:23:24Z</time>
      </trkpt>
      <trkpt lat="43.51148" lon="6.69584">
        <ele>173.7</ele>
        <time>2025-10-26T11:23:25Z</time>
      </trkpt>
      <trkpt lat="43.51148" lon="6.69585">
        <ele>173.7</ele>
        <time>2025-10-26T11:23:26Z</time>
      </trkpt>
      <trkpt lat="43.51148" lon="6.69585">
        <ele>173.9</ele>
        <time>2025-10-26T11:23:27Z</time>
      </trkpt>
      <trkpt lat="43.51148" lon="6.69586">
        <ele>173.9</ele>
        <time>2025-10-26T11:23:28Z</time>
      </trkpt>
      <trkpt lat="43.51148" lon="6.69587">
        <ele>173.9</ele>
        <time>2025-10-26T11:23:29Z</time>
      </trkpt>
      <trkpt lat="43.51148" lon="6.69587">
        <ele>173.9</ele>
        <time>2025-10-26T11:23:30Z</time>
      </trkpt>
      <trkpt lat="43.51147" lon="6.69588">
        <ele>173.8</ele>
        <time>2025-10-26T11:23:31Z</time>
      </trkpt>
      <trkpt lat="43.51147" lon="6.69588">
        <ele>173.7</ele>
        <time>2025-10-26T11:23:32Z</time>
      </trkpt>
      <trkpt lat="43.51147" lon="6.69589">
        <ele>173.4</ele>
        <time>2025-10-26T11:23:33Z</time>
      </trkpt>
      <trkpt lat="43.51147" lon="6.69589">
        <ele>173.4</ele>
        <time>2025-10-26T11:23:34Z</time>
      </trkpt>
      <trkpt lat="43.51147" lon="6.69589">
        <ele>173.3</ele>
        <time>2025-10-26T11:23:35Z</time>
      </trkpt>
      <trkpt lat="43.51147" lon="6.69589">
        <ele>173.1</ele>
        <time>2025-10-26T11:23:36Z</time>
      </trkpt>
      <trkpt lat="43.51147" lon="6.69588">
        <ele>172.9</ele>
        <time>2025-10-26T11:23:37Z</time>
      </trkpt>
      <trkpt lat="43.51147" lon="6.69588">
        <ele>172.7</ele>
        <time>2025-10-26T11:23:38Z</time>
      </trkpt>
      <trkpt lat="43.51147" lon="6.69588">
        <ele>172.6</ele>
        <time>2025-10-26T11:23:39Z</time>
      </trkpt>
      <trkpt lat="43.51147" lon="6.69588">
        <ele>172.5</ele>
        <time>2025-10-26T11:23:40Z</time>
      </trkpt>
      <trkpt lat="43.51147" lon="6.69587">
        <ele>172.5</ele>
        <time>2025-10-26T11:23:41Z</time>
      </trkpt>
      <trkpt lat="43.51147" lon="6.69586">
        <ele>172.4</ele>
        <time>2025-10-26T11:23:42Z</time>
      </trkpt>
      <trkpt lat="43.51147" lon="6.69585">
        <ele>172.5</ele>
        <time>2025-10-26T11:23:43Z</time>
      </trkpt>
      <trkpt lat="43.51147" lon="6.69584">
        <ele>172.5</ele>
        <time>2025-10-26T11:23:44Z</time>
      </trkpt>
      <trkpt lat="43.51146" lon="6.69584">
        <ele>172.5</ele>
        <time>2025-10-26T11:23:45Z</time>
      </trkpt>
      <trkpt lat="43.51146" lon="6.69584">
        <ele>172.4</ele>
        <time>2025-10-26T11:23:46Z</time>
      </trkpt>
      <trkpt lat="43.51146" lon="6.69583">
        <ele>172.4</ele>
        <time>2025-10-26T11:23:47Z</time>
      </trkpt>
      <trkpt lat="43.51146" lon="6.69583">
        <ele>172.4</ele>
        <time>2025-10-26T11:23:48Z</time>
      </trkpt>
      <trkpt lat="43.51146" lon="6.69583">
        <ele>172.5</ele>
        <time>2025-10-26T11:23:49Z</time>
      </trkpt>
      <trkpt lat="43.51146" lon="6.69583">
        <ele>172.5</ele>
        <time>2025-10-26T11:23:50Z</time>
      </trkpt>
      <trkpt lat="43.51146" lon="6.69583">
        <ele>172.6</ele>
        <time>2025-10-26T11:23:51Z</time>
      </trkpt>
      <trkpt lat="43.51146" lon="6.69583">
        <ele>172.6</ele>
        <time>2025-10-26T11:23:52Z</time>
      </trkpt>
      <trkpt lat="43.51146" lon="6.69582">
        <ele>172.5</ele>
        <time>2025-10-26T11:23:53Z</time>
      </trkpt>
      <trkpt lat="43.51146" lon="6.69582">
        <ele>172.6</ele>
        <time>2025-10-26T11:23:54Z</time>
      </trkpt>
      <trkpt lat="43.51146" lon="6.69582">
        <ele>172.7</ele>
        <time>2025-10-26T11:23:55Z</time>
      </trkpt>
      <trkpt lat="43.51145" lon="6.69582">
        <ele>172.9</ele>
        <time>2025-10-26T11:23:56Z</time>
      </trkpt>
      <trkpt lat="43.51145" lon="6.69582">
        <ele>173</ele>
        <time>2025-10-26T11:23:57Z</time>
      </trkpt>
      <trkpt lat="43.51145" lon="6.69581">
        <ele>173.2</ele>
        <time>2025-10-26T11:23:58Z</time>
      </trkpt>
      <trkpt lat="43.51145" lon="6.69581">
        <ele>173.2</ele>
        <time>2025-10-26T11:23:59Z</time>
      </trkpt>
      <trkpt lat="43.51145" lon="6.69581">
        <ele>173.2</ele>
        <time>2025-10-26T11:24:00Z</time>
      </trkpt>
      <trkpt lat="43.51145" lon="6.69581">
        <ele>173.2</ele>
        <time>2025-10-26T11:24:01Z</time>
      </trkpt>
      <trkpt lat="43.51145" lon="6.69581">
        <ele>173.2</ele>
        <time>2025-10-26T11:24:02Z</time>
      </trkpt>
      <trkpt lat="43.51145" lon="6.69581">
        <ele>173.2</ele>
        <time>2025-10-26T11:24:03Z</time>
      </trkpt>
      <trkpt lat="43.51145" lon="6.69581">
        <ele>173.2</ele>
        <time>2025-10-26T11:24:04Z</time>
      </trkpt>
      <trkpt lat="43.51145" lon="6.69581">
        <ele>173.2</ele>
        <time>2025-10-26T11:24:05Z</time>
      </trkpt>
      <trkpt lat="43.51145" lon="6.69581">
        <ele>173.3</ele>
        <time>2025-10-26T11:24:06Z</time>
      </trkpt>
      <trkpt lat="43.51145" lon="6.6958">
        <ele>173.6</ele>
        <time>2025-10-26T11:24:07Z</time>
      </trkpt>
      <trkpt lat="43.51145" lon="6.6958">
        <ele>173.8</ele>
        <time>2025-10-26T11:24:08Z</time>
      </trkpt>
      <trkpt lat="43.51145" lon="6.6958">
        <ele>174</ele>
        <time>2025-10-26T11:24:09Z</time>
      </trkpt>
      <trkpt lat="43.51145" lon="6.6958">
        <ele>173.9</ele>
        <time>2025-10-26T11:24:10Z</time>
      </trkpt>
      <trkpt lat="43.51145" lon="6.69579">
        <ele>173.9</ele>
        <time>2025-10-26T11:24:11Z</time>
      </trkpt>
      <trkpt lat="43.51145" lon="6.69579">
        <ele>173.5</ele>
        <time>2025-10-26T11:24:12Z</time>
      </trkpt>
      <trkpt lat="43.51145" lon="6.69579">
        <ele>173.4</ele>
        <time>2025-10-26T11:24:13Z</time>
      </trkpt>
      <trkpt lat="43.51144" lon="6.69579">
        <ele>173.3</ele>
        <time>2025-10-26T11:24:14Z</time>
      </trkpt>
      <trkpt lat="43.51144" lon="6.69579">
        <ele>173.4</ele>
        <time>2025-10-26T11:24:15Z</time>
      </trkpt>
      <trkpt lat="43.51144" lon="6.69579">
        <ele>173.4</ele>
        <time>2025-10-26T11:24:16Z</time>
      </trkpt>
      <trkpt lat="43.51144" lon="6.69579">
        <ele>173.5</ele>
        <time>2025-10-26T11:24:17Z</time>
      </trkpt>
      <trkpt lat="43.51144" lon="6.69579">
        <ele>173.5</ele>
        <time>2025-10-26T11:24:18Z</time>
      </trkpt>
      <trkpt lat="43.51144" lon="6.69578">
        <ele>173.6</ele>
        <time>2025-10-26T11:24:19Z</time>
      </trkpt>
      <trkpt lat="43.51144" lon="6.69578">
        <ele>173.6</ele>
        <time>2025-10-26T11:24:20Z</time>
      </trkpt>
      <trkpt lat="43.51144" lon="6.69578">
        <ele>173.7</ele>
        <time>2025-10-26T11:24:21Z</time>
      </trkpt>
      <trkpt lat="43.51144" lon="6.69578">
        <ele>173.7</ele>
        <time>2025-10-26T11:24:22Z</time>
      </trkpt>
      <trkpt lat="43.51144" lon="6.69578">
        <ele>173.7</ele>
        <time>2025-10-26T11:24:23Z</time>
      </trkpt>
      <trkpt lat="43.51144" lon="6.69578">
        <ele>173.6</ele>
        <time>2025-10-26T11:24:24Z</time>
      </trkpt>
      <trkpt lat="43.51144" lon="6.69578">
        <ele>173.6</ele>
        <time>2025-10-26T11:24:25Z</time>
      </trkpt>
      <trkpt lat="43.51144" lon="6.69578">
        <ele>173.7</ele>
        <time>2025-10-26T11:24:26Z</time>
      </trkpt>
      <trkpt lat="43.51144" lon="6.69578">
        <ele>173.7</ele>
        <time>2025-10-26T11:24:27Z</time>
      </trkpt>
      <trkpt lat="43.51144" lon="6.69578">
        <ele>173.6</ele>
        <time>2025-10-26T11:24:28Z</time>
      </trkpt>
      <trkpt lat="43.51144" lon="6.69578">
        <ele>173.7</ele>
        <time>2025-10-26T11:24:29Z</time>
      </trkpt>
      <trkpt lat="43.51144" lon="6.69578">
        <ele>173.7</ele>
        <time>2025-10-26T11:24:30Z</time>
      </trkpt>
      <trkpt lat="43.51144" lon="6.69578">
        <ele>173.8</ele>
        <time>2025-10-26T11:24:31Z</time>
      </trkpt>
      <trkpt lat="43.51144" lon="6.69578">
        <ele>173.9</ele>
        <time>2025-10-26T11:24:32Z</time>
      </trkpt>
      <trkpt lat="43.51144" lon="6.69578">
        <ele>173.9</ele>
        <time>2025-10-26T11:24:33Z</time>
      </trkpt>
      <trkpt lat="43.51143" lon="6.69578">
        <ele>173.9</ele>
        <time>2025-10-26T11:24:34Z</time>
      </trkpt>
      <trkpt lat="43.51143" lon="6.69577">
        <ele>173.8</ele>
        <time>2025-10-26T11:24:35Z</time>
      </trkpt>
      <trkpt lat="43.51143" lon="6.69577">
        <ele>173.7</ele>
        <time>2025-10-26T11:24:36Z</time>
      </trkpt>
      <trkpt lat="43.51144" lon="6.69577">
        <ele>173.6</ele>
        <time>2025-10-26T11:24:37Z</time>
      </trkpt>
      <trkpt lat="43.51144" lon="6.69577">
        <ele>173.4</ele>
        <time>2025-10-26T11:24:38Z</time>
      </trkpt>
      <trkpt lat="43.51144" lon="6.69576">
        <ele>173.2</ele>
        <time>2025-10-26T11:24:39Z</time>
      </trkpt>
      <trkpt lat="43.51144" lon="6.69576">
        <ele>173</ele>
        <time>2025-10-26T11:24:40Z</time>
      </trkpt>
      <trkpt lat="43.51144" lon="6.69576">
        <ele>172.9</ele>
        <time>2025-10-26T11:24:41Z</time>
      </trkpt>
      <trkpt lat="43.51144" lon="6.69576">
        <ele>172.7</ele>
        <time>2025-10-26T11:24:42Z</time>
      </trkpt>
      <trkpt lat="43.51144" lon="6.69575">
        <ele>172.6</ele>
        <time>2025-10-26T11:24:43Z</time>
      </trkpt>
      <trkpt lat="43.51144" lon="6.69575">
        <ele>172.4</ele>
        <time>2025-10-26T11:24:44Z</time>
      </trkpt>
      <trkpt lat="43.51144" lon="6.69575">
        <ele>172.2</ele>
        <time>2025-10-26T11:24:45Z</time>
      </trkpt>
      <trkpt lat="43.51144" lon="6.69575">
        <ele>172</ele>
        <time>2025-10-26T11:24:46Z</time>
      </trkpt>
      <trkpt lat="43.51144" lon="6.69575">
        <ele>172</ele>
        <time>2025-10-26T11:24:47Z</time>
      </trkpt>
      <trkpt lat="43.51144" lon="6.69575">
        <ele>172.1</ele>
        <time>2025-10-26T11:24:48Z</time>
      </trkpt>
      <trkpt lat="43.51144" lon="6.69575">
        <ele>172.1</ele>
        <time>2025-10-26T11:24:49Z</time>
      </trkpt>
      <trkpt lat="43.51144" lon="6.69575">
        <ele>172.2</ele>
        <time>2025-10-26T11:24:50Z</time>
      </trkpt>
      <trkpt lat="43.51144" lon="6.69575">
        <ele>172.2</ele>
        <time>2025-10-26T11:24:51Z</time>
      </trkpt>
      <trkpt lat="43.51144" lon="6.69575">
        <ele>172.2</ele>
        <time>2025-10-26T11:24:52Z</time>
      </trkpt>
      <trkpt lat="43.51144" lon="6.69575">
        <ele>172.3</ele>
        <time>2025-10-26T11:24:53Z</time>
      </trkpt>
      <trkpt lat="43.51144" lon="6.69575">
        <ele>172.2</ele>
        <time>2025-10-26T11:24:54Z</time>
      </trkpt>
      <trkpt lat="43.51144" lon="6.69575">
        <ele>172.2</ele>
        <time>2025-10-26T11:24:55Z</time>
      </trkpt>
      <trkpt lat="43.51143" lon="6.69576">
        <ele>172.1</ele>
        <time>2025-10-26T11:24:56Z</time>
      </trkpt>
      <trkpt lat="43.51143" lon="6.69577">
        <ele>172.1</ele>
        <time>2025-10-26T11:24:57Z</time>
      </trkpt>
      <trkpt lat="43.51143" lon="6.69577">
        <ele>172.1</ele>
        <time>2025-10-26T11:24:58Z</time>
      </trkpt>
      <trkpt lat="43.51143" lon="6.69577">
        <ele>172.1</ele>
        <time>2025-10-26T11:24:59Z</time>
      </trkpt>
      <trkpt lat="43.51144" lon="6.69578">
        <ele>172.1</ele>
        <time>2025-10-26T11:25:00Z</time>
      </trkpt>
      <trkpt lat="43.51144" lon="6.69578">
        <ele>172.1</ele>
        <time>2025-10-26T11:25:01Z</time>
      </trkpt>
      <trkpt lat="43.51144" lon="6.69578">
        <ele>172.1</ele>
        <time>2025-10-26T11:25:02Z</time>
      </trkpt>
      <trkpt lat="43.51144" lon="6.69578">
        <ele>172.2</ele>
        <time>2025-10-26T11:25:03Z</time>
      </trkpt>
      <trkpt lat="43.51144" lon="6.69578">
        <ele>172.3</ele>
        <time>2025-10-26T11:25:04Z</time>
      </trkpt>
      <trkpt lat="43.51144" lon="6.69578">
        <ele>172.4</ele>
        <time>2025-10-26T11:25:05Z</time>
      </trkpt>
      <trkpt lat="43.51144" lon="6.69578">
        <ele>172.4</ele>
        <time>2025-10-26T11:25:06Z</time>
      </trkpt>
      <trkpt lat="43.51144" lon="6.69578">
        <ele>172.4</ele>
        <time>2025-10-26T11:25:07Z</time>
      </trkpt>
      <trkpt lat="43.51144" lon="6.69577">
        <ele>172.4</ele>
        <time>2025-10-26T11:25:08Z</time>
      </trkpt>
      <trkpt lat="43.51144" lon="6.69577">
        <ele>172.4</ele>
        <time>2025-10-26T11:25:09Z</time>
      </trkpt>
      <trkpt lat="43.51144" lon="6.69577">
        <ele>172.3</ele>
        <time>2025-10-26T11:25:10Z</time>
      </trkpt>
      <trkpt lat="43.51144" lon="6.69578">
        <ele>172.2</ele>
        <time>2025-10-26T11:25:11Z</time>
      </trkpt>
      <trkpt lat="43.51144" lon="6.69578">
        <ele>172.1</ele>
        <time>2025-10-26T11:25:12Z</time>
      </trkpt>
      <trkpt lat="43.51145" lon="6.69578">
        <ele>172.2</ele>
        <time>2025-10-26T11:25:13Z</time>
      </trkpt>
      <trkpt lat="43.51145" lon="6.69579">
        <ele>172.2</ele>
        <time>2025-10-26T11:25:14Z</time>
      </trkpt>
      <trkpt lat="43.51145" lon="6.69579">
        <ele>172.2</ele>
        <time>2025-10-26T11:25:15Z</time>
      </trkpt>
      <trkpt lat="43.51145" lon="6.69579">
        <ele>172.3</ele>
        <time>2025-10-26T11:25:16Z</time>
      </trkpt>
      <trkpt lat="43.51145" lon="6.69579">
        <ele>172.4</ele>
        <time>2025-10-26T11:25:17Z</time>
      </trkpt>
      <trkpt lat="43.51144" lon="6.69579">
        <ele>172.4</ele>
        <time>2025-10-26T11:25:18Z</time>
      </trkpt>
      <trkpt lat="43.51144" lon="6.69579">
        <ele>172.3</ele>
        <time>2025-10-26T11:25:19Z</time>
      </trkpt>
      <trkpt lat="43.51144" lon="6.69579">
        <ele>172.4</ele>
        <time>2025-10-26T11:25:20Z</time>
      </trkpt>
      <trkpt lat="43.51144" lon="6.69579">
        <ele>172.4</ele>
        <time>2025-10-26T11:25:21Z</time>
      </trkpt>
      <trkpt lat="43.51144" lon="6.69579">
        <ele>172.5</ele>
        <time>2025-10-26T11:25:22Z</time>
      </trkpt>
      <trkpt lat="43.51144" lon="6.69579">
        <ele>172.5</ele>
        <time>2025-10-26T11:25:23Z</time>
      </trkpt>
      <trkpt lat="43.51144" lon="6.69579">
        <ele>172.5</ele>
        <time>2025-10-26T11:25:24Z</time>
      </trkpt>
      <trkpt lat="43.51144" lon="6.69579">
        <ele>172.6</ele>
        <time>2025-10-26T11:25:25Z</time>
      </trkpt>
      <trkpt lat="43.51144" lon="6.69579">
        <ele>172.6</ele>
        <time>2025-10-26T11:25:26Z</time>
      </trkpt>
      <trkpt lat="43.51144" lon="6.69579">
        <ele>172.6</ele>
        <time>2025-10-26T11:25:27Z</time>
      </trkpt>
      <trkpt lat="43.51144" lon="6.69579">
        <ele>172.6</ele>
        <time>2025-10-26T11:25:28Z</time>
      </trkpt>
      <trkpt lat="43.51144" lon="6.69579">
        <ele>172.6</ele>
        <time>2025-10-26T11:25:29Z</time>
      </trkpt>
      <trkpt lat="43.51144" lon="6.69579">
        <ele>172.5</ele>
        <time>2025-10-26T11:25:30Z</time>
      </trkpt>
      <trkpt lat="43.51144" lon="6.69579">
        <ele>172.5</ele>
        <time>2025-10-26T11:25:31Z</time>
      </trkpt>
      <trkpt lat="43.51144" lon="6.69579">
        <ele>172.5</ele>
        <time>2025-10-26T11:25:32Z</time>
      </trkpt>
      <trkpt lat="43.51144" lon="6.69579">
        <ele>172.5</ele>
        <time>2025-10-26T11:25:33Z</time>
      </trkpt>
      <trkpt lat="43.51144" lon="6.69578">
        <ele>172.5</ele>
        <time>2025-10-26T11:25:34Z</time>
      </trkpt>
      <trkpt lat="43.51144" lon="6.69579">
        <ele>172.6</ele>
        <time>2025-10-26T11:25:35Z</time>
      </trkpt>
      <trkpt lat="43.51144" lon="6.69579">
        <ele>172.7</ele>
        <time>2025-10-26T11:25:36Z</time>
      </trkpt>
      <trkpt lat="43.51144" lon="6.6958">
        <ele>172.7</ele>
        <time>2025-10-26T11:25:37Z</time>
      </trkpt>
      <trkpt lat="43.51145" lon="6.69581">
        <ele>172.7</ele>
        <time>2025-10-26T11:25:38Z</time>
      </trkpt>
      <trkpt lat="43.51145" lon="6.69582">
        <ele>172.8</ele>
        <time>2025-10-26T11:25:39Z</time>
      </trkpt>
      <trkpt lat="43.51145" lon="6.69583">
        <ele>172.8</ele>
        <time>2025-10-26T11:25:40Z</time>
      </trkpt>
      <trkpt lat="43.51145" lon="6.69584">
        <ele>172.9</ele>
        <time>2025-10-26T11:25:41Z</time>
      </trkpt>
      <trkpt lat="43.51145" lon="6.69584">
        <ele>172.9</ele>
        <time>2025-10-26T11:25:42Z</time>
      </trkpt>
      <trkpt lat="43.51145" lon="6.69585">
        <ele>172.8</ele>
        <time>2025-10-26T11:25:43Z</time>
      </trkpt>
      <trkpt lat="43.51145" lon="6.69585">
        <ele>172.8</ele>
        <time>2025-10-26T11:25:44Z</time>
      </trkpt>
      <trkpt lat="43.51145" lon="6.69585">
        <ele>172.9</ele>
        <time>2025-10-26T11:25:45Z</time>
      </trkpt>
      <trkpt lat="43.51145" lon="6.69585">
        <ele>172.8</ele>
        <time>2025-10-26T11:25:46Z</time>
      </trkpt>
      <trkpt lat="43.51145" lon="6.69585">
        <ele>172.8</ele>
        <time>2025-10-26T11:25:47Z</time>
      </trkpt>
      <trkpt lat="43.51145" lon="6.69585">
        <ele>172.8</ele>
        <time>2025-10-26T11:25:48Z</time>
      </trkpt>
      <trkpt lat="43.51145" lon="6.69585">
        <ele>172.6</ele>
        <time>2025-10-26T11:25:49Z</time>
      </trkpt>
      <trkpt lat="43.51145" lon="6.69585">
        <ele>172.6</ele>
        <time>2025-10-26T11:25:50Z</time>
      </trkpt>
      <trkpt lat="43.51145" lon="6.69585">
        <ele>172.6</ele>
        <time>2025-10-26T11:25:51Z</time>
      </trkpt>
      <trkpt lat="43.51145" lon="6.69585">
        <ele>172.7</ele>
        <time>2025-10-26T11:25:52Z</time>
      </trkpt>
      <trkpt lat="43.51145" lon="6.69585">
        <ele>172.7</ele>
        <time>2025-10-26T11:25:53Z</time>
      </trkpt>
      <trkpt lat="43.51144" lon="6.69585">
        <ele>172.8</ele>
        <time>2025-10-26T11:25:54Z</time>
      </trkpt>
      <trkpt lat="43.51144" lon="6.69584">
        <ele>172.7</ele>
        <time>2025-10-26T11:25:55Z</time>
      </trkpt>
      <trkpt lat="43.51144" lon="6.69584">
        <ele>172.7</ele>
        <time>2025-10-26T11:25:56Z</time>
      </trkpt>
      <trkpt lat="43.51145" lon="6.69585">
        <ele>172.7</ele>
        <time>2025-10-26T11:25:57Z</time>
      </trkpt>
      <trkpt lat="43.51145" lon="6.69586">
        <ele>172.7</ele>
        <time>2025-10-26T11:25:58Z</time>
      </trkpt>
      <trkpt lat="43.51146" lon="6.69587">
        <ele>172.7</ele>
        <time>2025-10-26T11:25:59Z</time>
      </trkpt>
      <trkpt lat="43.51146" lon="6.69588">
        <ele>172.7</ele>
        <time>2025-10-26T11:26:00Z</time>
      </trkpt>
      <trkpt lat="43.51146" lon="6.69589">
        <ele>172.6</ele>
        <time>2025-10-26T11:26:01Z</time>
      </trkpt>
      <trkpt lat="43.51146" lon="6.69589">
        <ele>172.5</ele>
        <time>2025-10-26T11:26:02Z</time>
      </trkpt>
      <trkpt lat="43.51146" lon="6.69589">
        <ele>172.4</ele>
        <time>2025-10-26T11:26:03Z</time>
      </trkpt>
      <trkpt lat="43.51146" lon="6.69589">
        <ele>172.3</ele>
        <time>2025-10-26T11:26:04Z</time>
      </trkpt>
      <trkpt lat="43.51146" lon="6.69589">
        <ele>172.3</ele>
        <time>2025-10-26T11:26:05Z</time>
      </trkpt>
      <trkpt lat="43.51147" lon="6.69589">
        <ele>172.3</ele>
        <time>2025-10-26T11:26:06Z</time>
      </trkpt>
      <trkpt lat="43.51147" lon="6.6959">
        <ele>172.3</ele>
        <time>2025-10-26T11:26:07Z</time>
      </trkpt>
      <trkpt lat="43.51147" lon="6.6959">
        <ele>172.3</ele>
        <time>2025-10-26T11:26:08Z</time>
      </trkpt>
      <trkpt lat="43.51147" lon="6.6959">
        <ele>172.3</ele>
        <time>2025-10-26T11:26:09Z</time>
      </trkpt>
      <trkpt lat="43.51147" lon="6.6959">
        <ele>172.2</ele>
        <time>2025-10-26T11:26:10Z</time>
      </trkpt>
      <trkpt lat="43.51148" lon="6.6959">
        <ele>172.2</ele>
        <time>2025-10-26T11:26:11Z</time>
      </trkpt>
      <trkpt lat="43.51148" lon="6.6959">
        <ele>172.2</ele>
        <time>2025-10-26T11:26:12Z</time>
      </trkpt>
      <trkpt lat="43.51148" lon="6.6959">
        <ele>172.1</ele>
        <time>2025-10-26T11:26:13Z</time>
      </trkpt>
      <trkpt lat="43.51148" lon="6.6959">
        <ele>172.1</ele>
        <time>2025-10-26T11:26:14Z</time>
      </trkpt>
      <trkpt lat="43.51148" lon="6.6959">
        <ele>172.2</ele>
        <time>2025-10-26T11:26:15Z</time>
      </trkpt>
      <trkpt lat="43.51148" lon="6.69591">
        <ele>172.2</ele>
        <time>2025-10-26T11:26:16Z</time>
      </trkpt>
      <trkpt lat="43.51148" lon="6.69591">
        <ele>172.2</ele>
        <time>2025-10-26T11:26:17Z</time>
      </trkpt>
      <trkpt lat="43.51148" lon="6.69591">
        <ele>172.2</ele>
        <time>2025-10-26T11:26:18Z</time>
      </trkpt>
      <trkpt lat="43.51148" lon="6.6959">
        <ele>172.2</ele>
        <time>2025-10-26T11:26:19Z</time>
      </trkpt>
      <trkpt lat="43.51148" lon="6.69589">
        <ele>172.3</ele>
        <time>2025-10-26T11:26:20Z</time>
      </trkpt>
      <trkpt lat="43.51148" lon="6.69589">
        <ele>172.2</ele>
        <time>2025-10-26T11:26:21Z</time>
      </trkpt>
      <trkpt lat="43.51148" lon="6.69588">
        <ele>172.2</ele>
        <time>2025-10-26T11:26:22Z</time>
      </trkpt>
      <trkpt lat="43.51147" lon="6.69588">
        <ele>172.3</ele>
        <time>2025-10-26T11:26:23Z</time>
      </trkpt>
      <trkpt lat="43.51147" lon="6.69587">
        <ele>172.3</ele>
        <time>2025-10-26T11:26:24Z</time>
      </trkpt>
      <trkpt lat="43.51148" lon="6.69587">
        <ele>172.3</ele>
        <time>2025-10-26T11:26:25Z</time>
      </trkpt>
      <trkpt lat="43.51148" lon="6.69587">
        <ele>172.3</ele>
        <time>2025-10-26T11:26:26Z</time>
      </trkpt>
      <trkpt lat="43.51148" lon="6.69588">
        <ele>172.3</ele>
        <time>2025-10-26T11:26:27Z</time>
      </trkpt>
      <trkpt lat="43.51148" lon="6.69588">
        <ele>172.4</ele>
        <time>2025-10-26T11:26:28Z</time>
      </trkpt>
      <trkpt lat="43.51148" lon="6.69588">
        <ele>172.3</ele>
        <time>2025-10-26T11:26:29Z</time>
      </trkpt>
      <trkpt lat="43.51148" lon="6.69588">
        <ele>172.4</ele>
        <time>2025-10-26T11:26:30Z</time>
      </trkpt>
      <trkpt lat="43.51149" lon="6.69588">
        <ele>172.4</ele>
        <time>2025-10-26T11:26:31Z</time>
      </trkpt>
      <trkpt lat="43.51149" lon="6.69588">
        <ele>172.5</ele>
        <time>2025-10-26T11:26:32Z</time>
      </trkpt>
      <trkpt lat="43.51148" lon="6.69588">
        <ele>172.5</ele>
        <time>2025-10-26T11:26:33Z</time>
      </trkpt>
      <trkpt lat="43.51148" lon="6.69588">
        <ele>172.5</ele>
        <time>2025-10-26T11:26:34Z</time>
      </trkpt>
      <trkpt lat="43.51147" lon="6.69589">
        <ele>172.5</ele>
        <time>2025-10-26T11:26:35Z</time>
      </trkpt>
      <trkpt lat="43.51147" lon="6.69589">
        <ele>172.4</ele>
        <time>2025-10-26T11:26:36Z</time>
      </trkpt>
      <trkpt lat="43.51146" lon="6.69589">
        <ele>172.3</ele>
        <time>2025-10-26T11:26:37Z</time>
      </trkpt>
      <trkpt lat="43.51146" lon="6.69589">
        <ele>172.2</ele>
        <time>2025-10-26T11:26:38Z</time>
      </trkpt>
      <trkpt lat="43.51146" lon="6.6959">
        <ele>172.1</ele>
        <time>2025-10-26T11:26:39Z</time>
      </trkpt>
      <trkpt lat="43.51146" lon="6.6959">
        <ele>172</ele>
        <time>2025-10-26T11:26:40Z</time>
      </trkpt>
      <trkpt lat="43.51146" lon="6.6959">
        <ele>172</ele>
        <time>2025-10-26T11:26:41Z</time>
      </trkpt>
      <trkpt lat="43.51147" lon="6.69591">
        <ele>172</ele>
        <time>2025-10-26T11:26:42Z</time>
      </trkpt>
      <trkpt lat="43.51147" lon="6.69591">
        <ele>172</ele>
        <time>2025-10-26T11:26:43Z</time>
      </trkpt>
      <trkpt lat="43.51147" lon="6.69591">
        <ele>171.9</ele>
        <time>2025-10-26T11:26:44Z</time>
      </trkpt>
      <trkpt lat="43.51147" lon="6.69592">
        <ele>171.9</ele>
        <time>2025-10-26T11:26:45Z</time>
      </trkpt>
      <trkpt lat="43.51147" lon="6.69592">
        <ele>171.8</ele>
        <time>2025-10-26T11:26:46Z</time>
      </trkpt>
      <trkpt lat="43.51147" lon="6.69592">
        <ele>171.8</ele>
        <time>2025-10-26T11:26:47Z</time>
      </trkpt>
      <trkpt lat="43.51147" lon="6.69593">
        <ele>171.8</ele>
        <time>2025-10-26T11:26:48Z</time>
      </trkpt>
      <trkpt lat="43.51147" lon="6.69593">
        <ele>171.7</ele>
        <time>2025-10-26T11:26:49Z</time>
      </trkpt>
      <trkpt lat="43.51148" lon="6.69593">
        <ele>171.7</ele>
        <time>2025-10-26T11:26:50Z</time>
      </trkpt>
      <trkpt lat="43.51148" lon="6.69593">
        <ele>171.7</ele>
        <time>2025-10-26T11:26:51Z</time>
      </trkpt>
      <trkpt lat="43.51148" lon="6.69593">
        <ele>171.7</ele>
        <time>2025-10-26T11:26:52Z</time>
      </trkpt>
      <trkpt lat="43.51148" lon="6.69593">
        <ele>171.8</ele>
        <time>2025-10-26T11:26:53Z</time>
      </trkpt>
      <trkpt lat="43.51148" lon="6.69593">
        <ele>171.9</ele>
        <time>2025-10-26T11:26:54Z</time>
      </trkpt>
      <trkpt lat="43.51147" lon="6.69593">
        <ele>172</ele>
        <time>2025-10-26T11:26:55Z</time>
      </trkpt>
      <trkpt lat="43.51148" lon="6.69593">
        <ele>172</ele>
        <time>2025-10-26T11:26:56Z</time>
      </trkpt>
      <trkpt lat="43.51147" lon="6.69593">
        <ele>172.1</ele>
        <time>2025-10-26T11:26:57Z</time>
      </trkpt>
      <trkpt lat="43.51147" lon="6.69593">
        <ele>172.1</ele>
        <time>2025-10-26T11:26:58Z</time>
      </trkpt>
      <trkpt lat="43.51147" lon="6.69593">
        <ele>172</ele>
        <time>2025-10-26T11:26:59Z</time>
      </trkpt>
      <trkpt lat="43.51146" lon="6.69593">
        <ele>172</ele>
        <time>2025-10-26T11:27:00Z</time>
      </trkpt>
      <trkpt lat="43.51146" lon="6.69592">
        <ele>171.8</ele>
        <time>2025-10-26T11:27:01Z</time>
      </trkpt>
      <trkpt lat="43.51145" lon="6.69592">
        <ele>171.6</ele>
        <time>2025-10-26T11:27:02Z</time>
      </trkpt>
      <trkpt lat="43.51145" lon="6.69591">
        <ele>171.5</ele>
        <time>2025-10-26T11:27:03Z</time>
      </trkpt>
      <trkpt lat="43.51145" lon="6.69591">
        <ele>171.4</ele>
        <time>2025-10-26T11:27:04Z</time>
      </trkpt>
      <trkpt lat="43.51145" lon="6.69591">
        <ele>171.3</ele>
        <time>2025-10-26T11:27:05Z</time>
      </trkpt>
      <trkpt lat="43.51145" lon="6.69591">
        <ele>171.3</ele>
        <time>2025-10-26T11:27:06Z</time>
      </trkpt>
      <trkpt lat="43.51145" lon="6.69591">
        <ele>171.3</ele>
        <time>2025-10-26T11:27:07Z</time>
      </trkpt>
      <trkpt lat="43.51145" lon="6.6959">
        <ele>171.3</ele>
        <time>2025-10-26T11:27:08Z</time>
      </trkpt>
      <trkpt lat="43.51146" lon="6.6959">
        <ele>171.4</ele>
        <time>2025-10-26T11:27:09Z</time>
      </trkpt>
      <trkpt lat="43.51145" lon="6.6959">
        <ele>171.5</ele>
        <time>2025-10-26T11:27:10Z</time>
      </trkpt>
      <trkpt lat="43.51146" lon="6.69589">
        <ele>171.6</ele>
        <time>2025-10-26T11:27:11Z</time>
      </trkpt>
      <trkpt lat="43.51146" lon="6.6959">
        <ele>171.7</ele>
        <time>2025-10-26T11:27:12Z</time>
      </trkpt>
      <trkpt lat="43.51146" lon="6.69589">
        <ele>171.7</ele>
        <time>2025-10-26T11:27:13Z</time>
      </trkpt>
      <trkpt lat="43.51146" lon="6.69589">
        <ele>171.8</ele>
        <time>2025-10-26T11:27:14Z</time>
      </trkpt>
      <trkpt lat="43.51146" lon="6.69589">
        <ele>171.8</ele>
        <time>2025-10-26T11:27:15Z</time>
      </trkpt>
      <trkpt lat="43.51146" lon="6.69589">
        <ele>171.9</ele>
        <time>2025-10-26T11:27:16Z</time>
      </trkpt>
      <trkpt lat="43.51146" lon="6.69589">
        <ele>171.9</ele>
        <time>2025-10-26T11:27:17Z</time>
      </trkpt>
      <trkpt lat="43.51146" lon="6.69588">
        <ele>171.9</ele>
        <time>2025-10-26T11:27:18Z</time>
      </trkpt>
      <trkpt lat="43.51146" lon="6.69588">
        <ele>171.9</ele>
        <time>2025-10-26T11:27:19Z</time>
      </trkpt>
      <trkpt lat="43.51146" lon="6.69588">
        <ele>172</ele>
        <time>2025-10-26T11:27:20Z</time>
      </trkpt>
      <trkpt lat="43.51146" lon="6.69588">
        <ele>172</ele>
        <time>2025-10-26T11:27:21Z</time>
      </trkpt>
      <trkpt lat="43.51146" lon="6.69588">
        <ele>172</ele>
        <time>2025-10-26T11:27:22Z</time>
      </trkpt>
      <trkpt lat="43.51146" lon="6.69588">
        <ele>172</ele>
        <time>2025-10-26T11:27:23Z</time>
      </trkpt>
      <trkpt lat="43.51146" lon="6.69588">
        <ele>171.9</ele>
        <time>2025-10-26T11:27:24Z</time>
      </trkpt>
      <trkpt lat="43.51145" lon="6.69588">
        <ele>171.7</ele>
        <time>2025-10-26T11:27:25Z</time>
      </trkpt>
      <trkpt lat="43.51144" lon="6.69588">
        <ele>171.7</ele>
        <time>2025-10-26T11:27:26Z</time>
      </trkpt>
      <trkpt lat="43.51144" lon="6.69589">
        <ele>171.5</ele>
        <time>2025-10-26T11:27:27Z</time>
      </trkpt>
      <trkpt lat="43.51143" lon="6.69589">
        <ele>171.3</ele>
        <time>2025-10-26T11:27:28Z</time>
      </trkpt>
      <trkpt lat="43.51143" lon="6.69589">
        <ele>171.2</ele>
        <time>2025-10-26T11:27:29Z</time>
      </trkpt>
      <trkpt lat="43.51143" lon="6.69589">
        <ele>171.1</ele>
        <time>2025-10-26T11:27:30Z</time>
      </trkpt>
      <trkpt lat="43.51143" lon="6.6959">
        <ele>171</ele>
        <time>2025-10-26T11:27:31Z</time>
      </trkpt>
      <trkpt lat="43.51143" lon="6.6959">
        <ele>171</ele>
        <time>2025-10-26T11:27:32Z</time>
      </trkpt>
      <trkpt lat="43.51143" lon="6.6959">
        <ele>170.9</ele>
        <time>2025-10-26T11:27:33Z</time>
      </trkpt>
      <trkpt lat="43.51143" lon="6.6959">
        <ele>170.9</ele>
        <time>2025-10-26T11:27:34Z</time>
      </trkpt>
      <trkpt lat="43.51142" lon="6.69589">
        <ele>170.8</ele>
        <time>2025-10-26T11:27:35Z</time>
      </trkpt>
      <trkpt lat="43.51142" lon="6.69589">
        <ele>170.8</ele>
        <time>2025-10-26T11:27:36Z</time>
      </trkpt>
      <trkpt lat="43.51142" lon="6.69589">
        <ele>170.8</ele>
        <time>2025-10-26T11:27:37Z</time>
      </trkpt>
      <trkpt lat="43.51142" lon="6.69589">
        <ele>170.7</ele>
        <time>2025-10-26T11:27:38Z</time>
      </trkpt>
      <trkpt lat="43.51142" lon="6.69589">
        <ele>170.7</ele>
        <time>2025-10-26T11:27:39Z</time>
      </trkpt>
      <trkpt lat="43.51142" lon="6.69589">
        <ele>170.8</ele>
        <time>2025-10-26T11:27:40Z</time>
      </trkpt>
      <trkpt lat="43.51142" lon="6.69589">
        <ele>170.7</ele>
        <time>2025-10-26T11:27:41Z</time>
      </trkpt>
      <trkpt lat="43.51142" lon="6.69589">
        <ele>170.7</ele>
        <time>2025-10-26T11:27:42Z</time>
      </trkpt>
      <trkpt lat="43.51142" lon="6.69589">
        <ele>170.8</ele>
        <time>2025-10-26T11:27:43Z</time>
      </trkpt>
      <trkpt lat="43.51141" lon="6.69589">
        <ele>170.7</ele>
        <time>2025-10-26T11:27:44Z</time>
      </trkpt>
      <trkpt lat="43.51141" lon="6.69589">
        <ele>170.7</ele>
        <time>2025-10-26T11:27:45Z</time>
      </trkpt>
      <trkpt lat="43.51141" lon="6.69589">
        <ele>170.6</ele>
        <time>2025-10-26T11:27:46Z</time>
      </trkpt>
      <trkpt lat="43.51141" lon="6.69589">
        <ele>170.6</ele>
        <time>2025-10-26T11:27:47Z</time>
      </trkpt>
      <trkpt lat="43.51141" lon="6.69589">
        <ele>170.6</ele>
        <time>2025-10-26T11:27:48Z</time>
      </trkpt>
      <trkpt lat="43.51141" lon="6.69589">
        <ele>170.7</ele>
        <time>2025-10-26T11:27:49Z</time>
      </trkpt>
      <trkpt lat="43.51141" lon="6.69589">
        <ele>170.7</ele>
        <time>2025-10-26T11:27:50Z</time>
      </trkpt>
      <trkpt lat="43.51141" lon="6.69589">
        <ele>170.8</ele>
        <time>2025-10-26T11:27:51Z</time>
      </trkpt>
      <trkpt lat="43.51141" lon="6.69589">
        <ele>170.7</ele>
        <time>2025-10-26T11:27:52Z</time>
      </trkpt>
      <trkpt lat="43.51141" lon="6.69589">
        <ele>170.6</ele>
        <time>2025-10-26T11:27:53Z</time>
      </trkpt>
      <trkpt lat="43.5114" lon="6.69589">
        <ele>170.6</ele>
        <time>2025-10-26T11:27:54Z</time>
      </trkpt>
      <trkpt lat="43.5114" lon="6.69589">
        <ele>170.6</ele>
        <time>2025-10-26T11:27:55Z</time>
      </trkpt>
      <trkpt lat="43.5114" lon="6.69589">
        <ele>170.6</ele>
        <time>2025-10-26T11:27:56Z</time>
      </trkpt>
      <trkpt lat="43.5114" lon="6.69589">
        <ele>170.5</ele>
        <time>2025-10-26T11:27:57Z</time>
      </trkpt>
      <trkpt lat="43.51141" lon="6.69589">
        <ele>170.6</ele>
        <time>2025-10-26T11:27:58Z</time>
      </trkpt>
      <trkpt lat="43.51141" lon="6.6959">
        <ele>170.7</ele>
        <time>2025-10-26T11:27:59Z</time>
      </trkpt>
      <trkpt lat="43.51141" lon="6.6959">
        <ele>170.7</ele>
        <time>2025-10-26T11:28:00Z</time>
      </trkpt>
      <trkpt lat="43.51141" lon="6.6959">
        <ele>170.7</ele>
        <time>2025-10-26T11:28:01Z</time>
      </trkpt>
      <trkpt lat="43.51141" lon="6.69591">
        <ele>170.6</ele>
        <time>2025-10-26T11:28:02Z</time>
      </trkpt>
      <trkpt lat="43.51141" lon="6.69591">
        <ele>170.8</ele>
        <time>2025-10-26T11:28:03Z</time>
      </trkpt>
      <trkpt lat="43.51142" lon="6.69591">
        <ele>170.8</ele>
        <time>2025-10-26T11:28:04Z</time>
      </trkpt>
      <trkpt lat="43.51142" lon="6.69591">
        <ele>170.9</ele>
        <time>2025-10-26T11:28:05Z</time>
      </trkpt>
      <trkpt lat="43.51142" lon="6.69591">
        <ele>171.1</ele>
        <time>2025-10-26T11:28:06Z</time>
      </trkpt>
      <trkpt lat="43.51142" lon="6.69591">
        <ele>171.2</ele>
        <time>2025-10-26T11:28:07Z</time>
      </trkpt>
      <trkpt lat="43.51143" lon="6.69591">
        <ele>171.3</ele>
        <time>2025-10-26T11:28:08Z</time>
      </trkpt>
      <trkpt lat="43.51143" lon="6.69591">
        <ele>171.3</ele>
        <time>2025-10-26T11:28:09Z</time>
      </trkpt>
      <trkpt lat="43.51143" lon="6.69591">
        <ele>171.3</ele>
        <time>2025-10-26T11:28:10Z</time>
      </trkpt>
      <trkpt lat="43.51143" lon="6.69591">
        <ele>171.3</ele>
        <time>2025-10-26T11:28:11Z</time>
      </trkpt>
      <trkpt lat="43.51143" lon="6.69591">
        <ele>171.4</ele>
        <time>2025-10-26T11:28:12Z</time>
      </trkpt>
      <trkpt lat="43.51143" lon="6.69591">
        <ele>171.4</ele>
        <time>2025-10-26T11:28:13Z</time>
      </trkpt>
      <trkpt lat="43.51144" lon="6.69591">
        <ele>171.4</ele>
        <time>2025-10-26T11:28:14Z</time>
      </trkpt>
      <trkpt lat="43.51144" lon="6.69591">
        <ele>171.4</ele>
        <time>2025-10-26T11:28:15Z</time>
      </trkpt>
      <trkpt lat="43.51144" lon="6.69591">
        <ele>171.5</ele>
        <time>2025-10-26T11:28:16Z</time>
      </trkpt>
      <trkpt lat="43.51144" lon="6.69591">
        <ele>171.5</ele>
        <time>2025-10-26T11:28:17Z</time>
      </trkpt>
      <trkpt lat="43.51144" lon="6.69591">
        <ele>171.7</ele>
        <time>2025-10-26T11:28:18Z</time>
      </trkpt>
      <trkpt lat="43.51144" lon="6.69591">
        <ele>171.9</ele>
        <time>2025-10-26T11:28:19Z</time>
      </trkpt>
      <trkpt lat="43.51144" lon="6.69591">
        <ele>171.9</ele>
        <time>2025-10-26T11:28:20Z</time>
      </trkpt>
      <trkpt lat="43.51144" lon="6.69591">
        <ele>172.1</ele>
        <time>2025-10-26T11:28:21Z</time>
      </trkpt>
      <trkpt lat="43.51144" lon="6.69591">
        <ele>172.2</ele>
        <time>2025-10-26T11:28:22Z</time>
      </trkpt>
      <trkpt lat="43.51145" lon="6.69591">
        <ele>172.3</ele>
        <time>2025-10-26T11:28:23Z</time>
      </trkpt>
      <trkpt lat="43.51145" lon="6.69591">
        <ele>172.3</ele>
        <time>2025-10-26T11:28:24Z</time>
      </trkpt>
      <trkpt lat="43.51145" lon="6.69591">
        <ele>172.3</ele>
        <time>2025-10-26T11:28:25Z</time>
      </trkpt>
      <trkpt lat="43.51145" lon="6.69591">
        <ele>172.3</ele>
        <time>2025-10-26T11:28:26Z</time>
      </trkpt>
      <trkpt lat="43.51145" lon="6.69592">
        <ele>172.2</ele>
        <time>2025-10-26T11:28:27Z</time>
      </trkpt>
      <trkpt lat="43.51145" lon="6.69592">
        <ele>172.2</ele>
        <time>2025-10-26T11:28:28Z</time>
      </trkpt>
      <trkpt lat="43.51145" lon="6.69592">
        <ele>172</ele>
        <time>2025-10-26T11:28:29Z</time>
      </trkpt>
      <trkpt lat="43.51145" lon="6.69591">
        <ele>171.9</ele>
        <time>2025-10-26T11:28:30Z</time>
      </trkpt>
      <trkpt lat="43.51145" lon="6.69592">
        <ele>171.8</ele>
        <time>2025-10-26T11:28:31Z</time>
      </trkpt>
      <trkpt lat="43.51145" lon="6.69592">
        <ele>171.7</ele>
        <time>2025-10-26T11:28:32Z</time>
      </trkpt>
      <trkpt lat="43.51145" lon="6.69591">
        <ele>171.8</ele>
        <time>2025-10-26T11:28:33Z</time>
      </trkpt>
      <trkpt lat="43.51145" lon="6.69591">
        <ele>171.8</ele>
        <time>2025-10-26T11:28:34Z</time>
      </trkpt>
      <trkpt lat="43.51145" lon="6.69591">
        <ele>171.8</ele>
        <time>2025-10-26T11:28:35Z</time>
      </trkpt>
      <trkpt lat="43.51145" lon="6.69591">
        <ele>171.8</ele>
        <time>2025-10-26T11:28:36Z</time>
      </trkpt>
      <trkpt lat="43.51145" lon="6.69591">
        <ele>171.8</ele>
        <time>2025-10-26T11:28:37Z</time>
      </trkpt>
      <trkpt lat="43.51145" lon="6.69591">
        <ele>171.9</ele>
        <time>2025-10-26T11:28:38Z</time>
      </trkpt>
      <trkpt lat="43.51146" lon="6.69591">
        <ele>171.9</ele>
        <time>2025-10-26T11:28:39Z</time>
      </trkpt>
      <trkpt lat="43.51145" lon="6.69591">
        <ele>171.9</ele>
        <time>2025-10-26T11:28:40Z</time>
      </trkpt>
      <trkpt lat="43.51145" lon="6.69591">
        <ele>171.9</ele>
        <time>2025-10-26T11:28:41Z</time>
      </trkpt>
      <trkpt lat="43.51146" lon="6.69591">
        <ele>172</ele>
        <time>2025-10-26T11:28:42Z</time>
      </trkpt>
      <trkpt lat="43.51146" lon="6.69591">
        <ele>172</ele>
        <time>2025-10-26T11:28:43Z</time>
      </trkpt>
      <trkpt lat="43.51146" lon="6.69591">
        <ele>172.1</ele>
        <time>2025-10-26T11:28:44Z</time>
      </trkpt>
      <trkpt lat="43.51146" lon="6.69592">
        <ele>172.2</ele>
        <time>2025-10-26T11:28:45Z</time>
      </trkpt>
      <trkpt lat="43.51147" lon="6.69591">
        <ele>172.2</ele>
        <time>2025-10-26T11:28:46Z</time>
      </trkpt>
      <trkpt lat="43.51147" lon="6.69591">
        <ele>172.3</ele>
        <time>2025-10-26T11:28:47Z</time>
      </trkpt>
      <trkpt lat="43.51147" lon="6.69591">
        <ele>172.2</ele>
        <time>2025-10-26T11:28:48Z</time>
      </trkpt>
      <trkpt lat="43.51147" lon="6.69591">
        <ele>172.2</ele>
        <time>2025-10-26T11:28:49Z</time>
      </trkpt>
      <trkpt lat="43.51147" lon="6.69591">
        <ele>172.3</ele>
        <time>2025-10-26T11:28:50Z</time>
      </trkpt>
      <trkpt lat="43.51147" lon="6.69591">
        <ele>172.2</ele>
        <time>2025-10-26T11:28:51Z</time>
      </trkpt>
      <trkpt lat="43.51147" lon="6.69591">
        <ele>172.2</ele>
        <time>2025-10-26T11:28:52Z</time>
      </trkpt>
      <trkpt lat="43.51148" lon="6.69591">
        <ele>172.3</ele>
        <time>2025-10-26T11:28:53Z</time>
      </trkpt>
      <trkpt lat="43.51148" lon="6.69591">
        <ele>172.3</ele>
        <time>2025-10-26T11:28:54Z</time>
      </trkpt>
      <trkpt lat="43.51148" lon="6.69591">
        <ele>172.3</ele>
        <time>2025-10-26T11:28:55Z</time>
      </trkpt>
      <trkpt lat="43.51148" lon="6.6959">
        <ele>172.3</ele>
        <time>2025-10-26T11:28:56Z</time>
      </trkpt>
      <trkpt lat="43.51148" lon="6.6959">
        <ele>172.2</ele>
        <time>2025-10-26T11:28:57Z</time>
      </trkpt>
      <trkpt lat="43.51148" lon="6.6959">
        <ele>172.2</ele>
        <time>2025-10-26T11:28:58Z</time>
      </trkpt>
      <trkpt lat="43.51148" lon="6.6959">
        <ele>172.1</ele>
        <time>2025-10-26T11:28:59Z</time>
      </trkpt>
      <trkpt lat="43.51148" lon="6.6959">
        <ele>172</ele>
        <time>2025-10-26T11:29:00Z</time>
      </trkpt>
      <trkpt lat="43.51148" lon="6.6959">
        <ele>172.1</ele>
        <time>2025-10-26T11:29:01Z</time>
      </trkpt>
      <trkpt lat="43.51148" lon="6.69589">
        <ele>172.2</ele>
        <time>2025-10-26T11:29:02Z</time>
      </trkpt>
      <trkpt lat="43.51148" lon="6.69589">
        <ele>172.3</ele>
        <time>2025-10-26T11:29:03Z</time>
      </trkpt>
      <trkpt lat="43.51148" lon="6.69589">
        <ele>172.3</ele>
        <time>2025-10-26T11:29:04Z</time>
      </trkpt>
      <trkpt lat="43.51148" lon="6.69589">
        <ele>172.3</ele>
        <time>2025-10-26T11:29:05Z</time>
      </trkpt>
      <trkpt lat="43.51148" lon="6.69589">
        <ele>172.3</ele>
        <time>2025-10-26T11:29:06Z</time>
      </trkpt>
      <trkpt lat="43.51148" lon="6.69589">
        <ele>172.3</ele>
        <time>2025-10-26T11:29:07Z</time>
      </trkpt>
      <trkpt lat="43.51149" lon="6.69589">
        <ele>172.3</ele>
        <time>2025-10-26T11:29:08Z</time>
      </trkpt>
      <trkpt lat="43.51149" lon="6.69589">
        <ele>172.3</ele>
        <time>2025-10-26T11:29:09Z</time>
      </trkpt>
      <trkpt lat="43.51148" lon="6.69589">
        <ele>172.3</ele>
        <time>2025-10-26T11:29:10Z</time>
      </trkpt>
      <trkpt lat="43.51148" lon="6.69589">
        <ele>172.3</ele>
        <time>2025-10-26T11:29:11Z</time>
      </trkpt>
      <trkpt lat="43.51148" lon="6.69589">
        <ele>172.3</ele>
        <time>2025-10-26T11:29:12Z</time>
      </trkpt>
      <trkpt lat="43.51148" lon="6.69589">
        <ele>172.3</ele>
        <time>2025-10-26T11:29:13Z</time>
      </trkpt>
      <trkpt lat="43.51148" lon="6.69589">
        <ele>172.3</ele>
        <time>2025-10-26T11:29:14Z</time>
      </trkpt>
      <trkpt lat="43.51148" lon="6.69589">
        <ele>172.4</ele>
        <time>2025-10-26T11:29:15Z</time>
      </trkpt>
      <trkpt lat="43.51148" lon="6.69589">
        <ele>172.4</ele>
        <time>2025-10-26T11:29:16Z</time>
      </trkpt>
      <trkpt lat="43.51148" lon="6.69589">
        <ele>172.3</ele>
        <time>2025-10-26T11:29:17Z</time>
      </trkpt>
      <trkpt lat="43.51148" lon="6.69589">
        <ele>172.2</ele>
        <time>2025-10-26T11:29:18Z</time>
      </trkpt>
      <trkpt lat="43.51148" lon="6.69588">
        <ele>172.1</ele>
        <time>2025-10-26T11:29:19Z</time>
      </trkpt>
      <trkpt lat="43.51149" lon="6.69589">
        <ele>172</ele>
        <time>2025-10-26T11:29:20Z</time>
      </trkpt>
      <trkpt lat="43.51149" lon="6.69589">
        <ele>172</ele>
        <time>2025-10-26T11:29:21Z</time>
      </trkpt>
      <trkpt lat="43.51149" lon="6.6959">
        <ele>172.1</ele>
        <time>2025-10-26T11:29:22Z</time>
      </trkpt>
      <trkpt lat="43.51149" lon="6.69589">
        <ele>172.2</ele>
        <time>2025-10-26T11:29:23Z</time>
      </trkpt>
      <trkpt lat="43.51149" lon="6.69589">
        <ele>172.2</ele>
        <time>2025-10-26T11:29:24Z</time>
      </trkpt>
      <trkpt lat="43.5115" lon="6.69589">
        <ele>172.4</ele>
        <time>2025-10-26T11:29:25Z</time>
      </trkpt>
      <trkpt lat="43.5115" lon="6.69589">
        <ele>172.5</ele>
        <time>2025-10-26T11:29:26Z</time>
      </trkpt>
      <trkpt lat="43.5115" lon="6.69588">
        <ele>172.6</ele>
        <time>2025-10-26T11:29:27Z</time>
      </trkpt>
      <trkpt lat="43.51151" lon="6.69588">
        <ele>172.7</ele>
        <time>2025-10-26T11:29:28Z</time>
      </trkpt>
      <trkpt lat="43.51151" lon="6.69588">
        <ele>172.7</ele>
        <time>2025-10-26T11:29:29Z</time>
      </trkpt>
      <trkpt lat="43.51152" lon="6.69588">
        <ele>172.6</ele>
        <time>2025-10-26T11:29:30Z</time>
      </trkpt>
      <trkpt lat="43.51152" lon="6.69588">
        <ele>172.5</ele>
        <time>2025-10-26T11:29:31Z</time>
      </trkpt>
      <trkpt lat="43.51152" lon="6.69588">
        <ele>172.5</ele>
        <time>2025-10-26T11:29:32Z</time>
      </trkpt>
      <trkpt lat="43.51152" lon="6.69588">
        <ele>172.4</ele>
        <time>2025-10-26T11:29:33Z</time>
      </trkpt>
      <trkpt lat="43.51152" lon="6.69588">
        <ele>172.4</ele>
        <time>2025-10-26T11:29:34Z</time>
      </trkpt>
      <trkpt lat="43.51152" lon="6.69588">
        <ele>172.4</ele>
        <time>2025-10-26T11:29:35Z</time>
      </trkpt>
      <trkpt lat="43.51152" lon="6.69588">
        <ele>172.4</ele>
        <time>2025-10-26T11:29:36Z</time>
      </trkpt>
      <trkpt lat="43.51152" lon="6.69588">
        <ele>172.4</ele>
        <time>2025-10-26T11:29:37Z</time>
      </trkpt>
      <trkpt lat="43.51152" lon="6.69588">
        <ele>172.4</ele>
        <time>2025-10-26T11:29:38Z</time>
      </trkpt>
      <trkpt lat="43.51151" lon="6.69589">
        <ele>172.5</ele>
        <time>2025-10-26T11:29:39Z</time>
      </trkpt>
      <trkpt lat="43.51151" lon="6.69589">
        <ele>172.6</ele>
        <time>2025-10-26T11:29:40Z</time>
      </trkpt>
      <trkpt lat="43.51151" lon="6.69589">
        <ele>172.6</ele>
        <time>2025-10-26T11:29:41Z</time>
      </trkpt>
      <trkpt lat="43.51151" lon="6.69589">
        <ele>172.6</ele>
        <time>2025-10-26T11:29:42Z</time>
      </trkpt>
      <trkpt lat="43.51151" lon="6.69589">
        <ele>172.7</ele>
        <time>2025-10-26T11:29:43Z</time>
      </trkpt>
      <trkpt lat="43.51151" lon="6.69589">
        <ele>172.7</ele>
        <time>2025-10-26T11:29:44Z</time>
      </trkpt>
      <trkpt lat="43.51151" lon="6.69589">
        <ele>172.7</ele>
        <time>2025-10-26T11:29:45Z</time>
      </trkpt>
      <trkpt lat="43.51151" lon="6.6959">
        <ele>172.7</ele>
        <time>2025-10-26T11:29:46Z</time>
      </trkpt>
      <trkpt lat="43.51151" lon="6.6959">
        <ele>172.7</ele>
        <time>2025-10-26T11:29:47Z</time>
      </trkpt>
      <trkpt lat="43.51151" lon="6.6959">
        <ele>172.7</ele>
        <time>2025-10-26T11:29:48Z</time>
      </trkpt>
      <trkpt lat="43.5115" lon="6.6959">
        <ele>172.7</ele>
        <time>2025-10-26T11:29:49Z</time>
      </trkpt>
      <trkpt lat="43.5115" lon="6.6959">
        <ele>172.6</ele>
        <time>2025-10-26T11:29:50Z</time>
      </trkpt>
      <trkpt lat="43.5115" lon="6.6959">
        <ele>172.6</ele>
        <time>2025-10-26T11:29:51Z</time>
      </trkpt>
      <trkpt lat="43.5115" lon="6.69591">
        <ele>172.5</ele>
        <time>2025-10-26T11:29:52Z</time>
      </trkpt>
      <trkpt lat="43.5115" lon="6.69591">
        <ele>172.5</ele>
        <time>2025-10-26T11:29:53Z</time>
      </trkpt>
      <trkpt lat="43.5115" lon="6.69591">
        <ele>172.4</ele>
        <time>2025-10-26T11:29:54Z</time>
      </trkpt>
      <trkpt lat="43.5115" lon="6.69591">
        <ele>172.4</ele>
        <time>2025-10-26T11:29:55Z</time>
      </trkpt>
      <trkpt lat="43.5115" lon="6.69591">
        <ele>172.3</ele>
        <time>2025-10-26T11:29:56Z</time>
      </trkpt>
      <trkpt lat="43.5115" lon="6.69591">
        <ele>172.2</ele>
        <time>2025-10-26T11:29:57Z</time>
      </trkpt>
      <trkpt lat="43.5115" lon="6.69591">
        <ele>172.2</ele>
        <time>2025-10-26T11:29:58Z</time>
      </trkpt>
      <trkpt lat="43.51149" lon="6.69591">
        <ele>172.2</ele>
        <time>2025-10-26T11:29:59Z</time>
      </trkpt>
      <trkpt lat="43.51149" lon="6.69591">
        <ele>172.1</ele>
        <time>2025-10-26T11:30:00Z</time>
      </trkpt>
      <trkpt lat="43.51149" lon="6.69591">
        <ele>172.1</ele>
        <time>2025-10-26T11:30:01Z</time>
      </trkpt>
      <trkpt lat="43.51149" lon="6.69591">
        <ele>172.2</ele>
        <time>2025-10-26T11:30:02Z</time>
      </trkpt>
      <trkpt lat="43.51149" lon="6.69591">
        <ele>172.2</ele>
        <time>2025-10-26T11:30:03Z</time>
      </trkpt>
      <trkpt lat="43.51149" lon="6.69591">
        <ele>172.2</ele>
        <time>2025-10-26T11:30:04Z</time>
      </trkpt>
      <trkpt lat="43.51149" lon="6.69591">
        <ele>172.3</ele>
        <time>2025-10-26T11:30:05Z</time>
      </trkpt>
      <trkpt lat="43.51149" lon="6.69591">
        <ele>172.4</ele>
        <time>2025-10-26T11:30:06Z</time>
      </trkpt>
      <trkpt lat="43.51149" lon="6.69591">
        <ele>172.5</ele>
        <time>2025-10-26T11:30:07Z</time>
      </trkpt>
      <trkpt lat="43.51149" lon="6.69592">
        <ele>172.5</ele>
        <time>2025-10-26T11:30:08Z</time>
      </trkpt>
      <trkpt lat="43.51149" lon="6.69592">
        <ele>172.6</ele>
        <time>2025-10-26T11:30:09Z</time>
      </trkpt>
      <trkpt lat="43.51149" lon="6.69592">
        <ele>172.6</ele>
        <time>2025-10-26T11:30:10Z</time>
      </trkpt>
      <trkpt lat="43.51149" lon="6.69592">
        <ele>172.6</ele>
        <time>2025-10-26T11:30:11Z</time>
      </trkpt>
      <trkpt lat="43.51149" lon="6.69592">
        <ele>172.6</ele>
        <time>2025-10-26T11:30:12Z</time>
      </trkpt>
      <trkpt lat="43.51149" lon="6.69592">
        <ele>172.6</ele>
        <time>2025-10-26T11:30:13Z</time>
      </trkpt>
      <trkpt lat="43.51149" lon="6.69592">
        <ele>172.6</ele>
        <time>2025-10-26T11:30:14Z</time>
      </trkpt>
      <trkpt lat="43.51149" lon="6.69592">
        <ele>172.6</ele>
        <time>2025-10-26T11:30:15Z</time>
      </trkpt>
      <trkpt lat="43.51149" lon="6.69592">
        <ele>172.6</ele>
        <time>2025-10-26T11:30:16Z</time>
      </trkpt>
      <trkpt lat="43.51149" lon="6.69592">
        <ele>172.6</ele>
        <time>2025-10-26T11:30:17Z</time>
      </trkpt>
      <trkpt lat="43.51149" lon="6.69592">
        <ele>172.5</ele>
        <time>2025-10-26T11:30:18Z</time>
      </trkpt>
      <trkpt lat="43.51149" lon="6.69591">
        <ele>172.6</ele>
        <time>2025-10-26T11:30:19Z</time>
      </trkpt>
      <trkpt lat="43.51149" lon="6.69592">
        <ele>172.6</ele>
        <time>2025-10-26T11:30:20Z</time>
      </trkpt>
      <trkpt lat="43.51149" lon="6.69591">
        <ele>172.6</ele>
        <time>2025-10-26T11:30:21Z</time>
      </trkpt>
      <trkpt lat="43.51149" lon="6.69592">
        <ele>172.8</ele>
        <time>2025-10-26T11:30:22Z</time>
      </trkpt>
      <trkpt lat="43.5115" lon="6.69592">
        <ele>172.9</ele>
        <time>2025-10-26T11:30:23Z</time>
      </trkpt>
      <trkpt lat="43.5115" lon="6.69592">
        <ele>173</ele>
        <time>2025-10-26T11:30:24Z</time>
      </trkpt>
      <trkpt lat="43.5115" lon="6.69592">
        <ele>173</ele>
        <time>2025-10-26T11:30:25Z</time>
      </trkpt>
      <trkpt lat="43.5115" lon="6.69592">
        <ele>173.1</ele>
        <time>2025-10-26T11:30:26Z</time>
      </trkpt>
      <trkpt lat="43.5115" lon="6.69592">
        <ele>173</ele>
        <time>2025-10-26T11:30:27Z</time>
      </trkpt>
      <trkpt lat="43.5115" lon="6.69592">
        <ele>173</ele>
        <time>2025-10-26T11:30:28Z</time>
      </trkpt>
      <trkpt lat="43.5115" lon="6.69592">
        <ele>173</ele>
        <time>2025-10-26T11:30:29Z</time>
      </trkpt>
      <trkpt lat="43.5115" lon="6.69593">
        <ele>173</ele>
        <time>2025-10-26T11:30:30Z</time>
      </trkpt>
      <trkpt lat="43.5115" lon="6.69592">
        <ele>172.9</ele>
        <time>2025-10-26T11:30:31Z</time>
      </trkpt>
      <trkpt lat="43.5115" lon="6.69592">
        <ele>172.8</ele>
        <time>2025-10-26T11:30:32Z</time>
      </trkpt>
      <trkpt lat="43.5115" lon="6.69592">
        <ele>172.8</ele>
        <time>2025-10-26T11:30:33Z</time>
      </trkpt>
      <trkpt lat="43.51151" lon="6.69592">
        <ele>172.9</ele>
        <time>2025-10-26T11:30:34Z</time>
      </trkpt>
      <trkpt lat="43.51151" lon="6.69592">
        <ele>172.9</ele>
        <time>2025-10-26T11:30:35Z</time>
      </trkpt>
      <trkpt lat="43.51151" lon="6.69593">
        <ele>172.9</ele>
        <time>2025-10-26T11:30:36Z</time>
      </trkpt>
      <trkpt lat="43.5115" lon="6.69593">
        <ele>173</ele>
        <time>2025-10-26T11:30:37Z</time>
      </trkpt>
      <trkpt lat="43.5115" lon="6.69593">
        <ele>173</ele>
        <time>2025-10-26T11:30:38Z</time>
      </trkpt>
      <trkpt lat="43.5115" lon="6.69593">
        <ele>173.2</ele>
        <time>2025-10-26T11:30:39Z</time>
      </trkpt>
      <trkpt lat="43.51151" lon="6.69593">
        <ele>173.2</ele>
        <time>2025-10-26T11:30:40Z</time>
      </trkpt>
      <trkpt lat="43.51151" lon="6.69593">
        <ele>173.2</ele>
        <time>2025-10-26T11:30:41Z</time>
      </trkpt>
      <trkpt lat="43.51151" lon="6.69593">
        <ele>173.4</ele>
        <time>2025-10-26T11:30:42Z</time>
      </trkpt>
      <trkpt lat="43.51151" lon="6.69593">
        <ele>173.5</ele>
        <time>2025-10-26T11:30:43Z</time>
      </trkpt>
      <trkpt lat="43.51151" lon="6.69593">
        <ele>173.5</ele>
        <time>2025-10-26T11:30:44Z</time>
      </trkpt>
      <trkpt lat="43.51151" lon="6.69593">
        <ele>173.5</ele>
        <time>2025-10-26T11:30:45Z</time>
      </trkpt>
      <trkpt lat="43.51151" lon="6.69593">
        <ele>173.5</ele>
        <time>2025-10-26T11:30:46Z</time>
      </trkpt>
      <trkpt lat="43.51151" lon="6.69593">
        <ele>173.3</ele>
        <time>2025-10-26T11:30:47Z</time>
      </trkpt>
      <trkpt lat="43.51151" lon="6.69593">
        <ele>173.2</ele>
        <time>2025-10-26T11:30:48Z</time>
      </trkpt>
      <trkpt lat="43.51151" lon="6.69592">
        <ele>173.2</ele>
        <time>2025-10-26T11:30:49Z</time>
      </trkpt>
      <trkpt lat="43.51151" lon="6.69593">
        <ele>173.1</ele>
        <time>2025-10-26T11:30:50Z</time>
      </trkpt>
      <trkpt lat="43.51151" lon="6.69593">
        <ele>173.1</ele>
        <time>2025-10-26T11:30:51Z</time>
      </trkpt>
      <trkpt lat="43.51151" lon="6.69592">
        <ele>173.1</ele>
        <time>2025-10-26T11:30:52Z</time>
      </trkpt>
      <trkpt lat="43.51151" lon="6.69592">
        <ele>173</ele>
        <time>2025-10-26T11:30:53Z</time>
      </trkpt>
      <trkpt lat="43.51151" lon="6.69592">
        <ele>173</ele>
        <time>2025-10-26T11:30:54Z</time>
      </trkpt>
      <trkpt lat="43.51151" lon="6.69592">
        <ele>172.9</ele>
        <time>2025-10-26T11:30:55Z</time>
      </trkpt>
      <trkpt lat="43.51151" lon="6.69592">
        <ele>172.8</ele>
        <time>2025-10-26T11:30:56Z</time>
      </trkpt>
      <trkpt lat="43.51151" lon="6.69592">
        <ele>172.7</ele>
        <time>2025-10-26T11:30:57Z</time>
      </trkpt>
      <trkpt lat="43.51151" lon="6.69592">
        <ele>172.6</ele>
        <time>2025-10-26T11:30:58Z</time>
      </trkpt>
      <trkpt lat="43.51151" lon="6.69592">
        <ele>172.5</ele>
        <time>2025-10-26T11:30:59Z</time>
      </trkpt>
      <trkpt lat="43.51152" lon="6.69592">
        <ele>172.4</ele>
        <time>2025-10-26T11:31:00Z</time>
      </trkpt>
      <trkpt lat="43.51152" lon="6.69591">
        <ele>172.3</ele>
        <time>2025-10-26T11:31:01Z</time>
      </trkpt>
      <trkpt lat="43.51152" lon="6.69591">
        <ele>172.4</ele>
        <time>2025-10-26T11:31:02Z</time>
      </trkpt>
      <trkpt lat="43.51152" lon="6.69591">
        <ele>172.4</ele>
        <time>2025-10-26T11:31:03Z</time>
      </trkpt>
      <trkpt lat="43.51152" lon="6.69591">
        <ele>172.5</ele>
        <time>2025-10-26T11:31:04Z</time>
      </trkpt>
      <trkpt lat="43.51152" lon="6.69591">
        <ele>172.4</ele>
        <time>2025-10-26T11:31:05Z</time>
      </trkpt>
      <trkpt lat="43.51152" lon="6.69591">
        <ele>172.4</ele>
        <time>2025-10-26T11:31:06Z</time>
      </trkpt>
      <trkpt lat="43.51152" lon="6.69591">
        <ele>172.4</ele>
        <time>2025-10-26T11:31:07Z</time>
      </trkpt>
      <trkpt lat="43.51152" lon="6.6959">
        <ele>172.4</ele>
        <time>2025-10-26T11:31:08Z</time>
      </trkpt>
      <trkpt lat="43.51151" lon="6.6959">
        <ele>172.4</ele>
        <time>2025-10-26T11:31:09Z</time>
      </trkpt>
      <trkpt lat="43.51152" lon="6.6959">
        <ele>172.4</ele>
        <time>2025-10-26T11:31:10Z</time>
      </trkpt>
      <trkpt lat="43.51152" lon="6.6959">
        <ele>172.5</ele>
        <time>2025-10-26T11:31:11Z</time>
      </trkpt>
      <trkpt lat="43.51152" lon="6.69591">
        <ele>172.4</ele>
        <time>2025-10-26T11:31:12Z</time>
      </trkpt>
      <trkpt lat="43.51152" lon="6.69591">
        <ele>172.4</ele>
        <time>2025-10-26T11:31:13Z</time>
      </trkpt>
      <trkpt lat="43.51152" lon="6.69591">
        <ele>172.3</ele>
        <time>2025-10-26T11:31:14Z</time>
      </trkpt>
      <trkpt lat="43.51152" lon="6.69591">
        <ele>172.2</ele>
        <time>2025-10-26T11:31:15Z</time>
      </trkpt>
      <trkpt lat="43.51152" lon="6.69591">
        <ele>172.2</ele>
        <time>2025-10-26T11:31:16Z</time>
      </trkpt>
      <trkpt lat="43.51152" lon="6.69591">
        <ele>172.2</ele>
        <time>2025-10-26T11:31:17Z</time>
      </trkpt>
      <trkpt lat="43.51152" lon="6.69591">
        <ele>172.2</ele>
        <time>2025-10-26T11:31:18Z</time>
      </trkpt>
      <trkpt lat="43.51152" lon="6.69591">
        <ele>172.3</ele>
        <time>2025-10-26T11:31:19Z</time>
      </trkpt>
      <trkpt lat="43.51152" lon="6.69591">
        <ele>172.5</ele>
        <time>2025-10-26T11:31:20Z</time>
      </trkpt>
      <trkpt lat="43.51152" lon="6.6959">
        <ele>172.6</ele>
        <time>2025-10-26T11:31:21Z</time>
      </trkpt>
      <trkpt lat="43.51152" lon="6.6959">
        <ele>172.7</ele>
        <time>2025-10-26T11:31:22Z</time>
      </trkpt>
      <trkpt lat="43.51152" lon="6.69591">
        <ele>172.8</ele>
        <time>2025-10-26T11:31:23Z</time>
      </trkpt>
      <trkpt lat="43.51152" lon="6.69591">
        <ele>172.9</ele>
        <time>2025-10-26T11:31:24Z</time>
      </trkpt>
      <trkpt lat="43.51152" lon="6.69591">
        <ele>173</ele>
        <time>2025-10-26T11:31:25Z</time>
      </trkpt>
      <trkpt lat="43.51152" lon="6.69591">
        <ele>173</ele>
        <time>2025-10-26T11:31:26Z</time>
      </trkpt>
      <trkpt lat="43.51152" lon="6.69591">
        <ele>173</ele>
        <time>2025-10-26T11:31:27Z</time>
      </trkpt>
      <trkpt lat="43.51152" lon="6.69591">
        <ele>173</ele>
        <time>2025-10-26T11:31:28Z</time>
      </trkpt>
      <trkpt lat="43.51152" lon="6.69591">
        <ele>173</ele>
        <time>2025-10-26T11:31:29Z</time>
      </trkpt>
      <trkpt lat="43.51152" lon="6.69591">
        <ele>173.1</ele>
        <time>2025-10-26T11:31:30Z</time>
      </trkpt>
      <trkpt lat="43.51152" lon="6.69591">
        <ele>173.1</ele>
        <time>2025-10-26T11:31:31Z</time>
      </trkpt>
      <trkpt lat="43.51152" lon="6.69591">
        <ele>173</ele>
        <time>2025-10-26T11:31:32Z</time>
      </trkpt>
      <trkpt lat="43.51152" lon="6.69592">
        <ele>173</ele>
        <time>2025-10-26T11:31:33Z</time>
      </trkpt>
      <trkpt lat="43.51152" lon="6.69592">
        <ele>173</ele>
        <time>2025-10-26T11:31:34Z</time>
      </trkpt>
      <trkpt lat="43.51152" lon="6.69592">
        <ele>172.9</ele>
        <time>2025-10-26T11:31:35Z</time>
      </trkpt>
      <trkpt lat="43.51152" lon="6.69592">
        <ele>172.9</ele>
        <time>2025-10-26T11:31:36Z</time>
      </trkpt>
      <trkpt lat="43.51152" lon="6.69592">
        <ele>172.9</ele>
        <time>2025-10-26T11:31:37Z</time>
      </trkpt>
      <trkpt lat="43.51152" lon="6.69592">
        <ele>172.9</ele>
        <time>2025-10-26T11:31:38Z</time>
      </trkpt>
      <trkpt lat="43.51152" lon="6.69592">
        <ele>172.8</ele>
        <time>2025-10-26T11:31:39Z</time>
      </trkpt>
      <trkpt lat="43.51152" lon="6.69592">
        <ele>172.7</ele>
        <time>2025-10-26T11:31:40Z</time>
      </trkpt>
      <trkpt lat="43.51152" lon="6.69592">
        <ele>172.7</ele>
        <time>2025-10-26T11:31:41Z</time>
      </trkpt>
      <trkpt lat="43.51152" lon="6.69592">
        <ele>172.6</ele>
        <time>2025-10-26T11:31:42Z</time>
      </trkpt>
      <trkpt lat="43.51152" lon="6.69592">
        <ele>172.6</ele>
        <time>2025-10-26T11:31:43Z</time>
      </trkpt>
      <trkpt lat="43.51151" lon="6.69592">
        <ele>172.5</ele>
        <time>2025-10-26T11:31:44Z</time>
      </trkpt>
      <trkpt lat="43.51151" lon="6.69592">
        <ele>172.5</ele>
        <time>2025-10-26T11:31:45Z</time>
      </trkpt>
      <trkpt lat="43.51151" lon="6.69592">
        <ele>172.5</ele>
        <time>2025-10-26T11:31:46Z</time>
      </trkpt>
      <trkpt lat="43.51151" lon="6.69591">
        <ele>172.4</ele>
        <time>2025-10-26T11:31:47Z</time>
      </trkpt>
      <trkpt lat="43.51151" lon="6.69591">
        <ele>172.4</ele>
        <time>2025-10-26T11:31:48Z</time>
      </trkpt>
      <trkpt lat="43.51151" lon="6.69591">
        <ele>172.4</ele>
        <time>2025-10-26T11:31:49Z</time>
      </trkpt>
      <trkpt lat="43.51151" lon="6.69591">
        <ele>172.3</ele>
        <time>2025-10-26T11:31:50Z</time>
      </trkpt>
      <trkpt lat="43.51151" lon="6.69591">
        <ele>172.2</ele>
        <time>2025-10-26T11:31:51Z</time>
      </trkpt>
      <trkpt lat="43.51151" lon="6.6959">
        <ele>172.4</ele>
        <time>2025-10-26T11:31:52Z</time>
      </trkpt>
      <trkpt lat="43.51151" lon="6.69589">
        <ele>172.5</ele>
        <time>2025-10-26T11:31:53Z</time>
      </trkpt>
      <trkpt lat="43.5115" lon="6.69589">
        <ele>172.5</ele>
        <time>2025-10-26T11:31:54Z</time>
      </trkpt>
      <trkpt lat="43.5115" lon="6.69589">
        <ele>172.6</ele>
        <time>2025-10-26T11:31:55Z</time>
      </trkpt>
      <trkpt lat="43.5115" lon="6.69589">
        <ele>172.6</ele>
        <time>2025-10-26T11:31:56Z</time>
      </trkpt>
      <trkpt lat="43.5115" lon="6.69589">
        <ele>172.6</ele>
        <time>2025-10-26T11:31:57Z</time>
      </trkpt>
      <trkpt lat="43.5115" lon="6.69589">
        <ele>172.6</ele>
        <time>2025-10-26T11:31:58Z</time>
      </trkpt>
      <trkpt lat="43.51149" lon="6.69589">
        <ele>172.5</ele>
        <time>2025-10-26T11:31:59Z</time>
      </trkpt>
      <trkpt lat="43.51149" lon="6.69589">
        <ele>172.5</ele>
        <time>2025-10-26T11:32:00Z</time>
      </trkpt>
      <trkpt lat="43.51149" lon="6.69588">
        <ele>172.4</ele>
        <time>2025-10-26T11:32:01Z</time>
      </trkpt>
      <trkpt lat="43.51149" lon="6.69588">
        <ele>172.4</ele>
        <time>2025-10-26T11:32:02Z</time>
      </trkpt>
      <trkpt lat="43.51149" lon="6.69588">
        <ele>172.5</ele>
        <time>2025-10-26T11:32:03Z</time>
      </trkpt>
      <trkpt lat="43.51149" lon="6.69588">
        <ele>172.3</ele>
        <time>2025-10-26T11:32:04Z</time>
      </trkpt>
      <trkpt lat="43.51149" lon="6.69588">
        <ele>172.3</ele>
        <time>2025-10-26T11:32:05Z</time>
      </trkpt>
      <trkpt lat="43.51149" lon="6.69588">
        <ele>172.4</ele>
        <time>2025-10-26T11:32:06Z</time>
      </trkpt>
      <trkpt lat="43.51149" lon="6.69588">
        <ele>172.5</ele>
        <time>2025-10-26T11:32:07Z</time>
      </trkpt>
      <trkpt lat="43.51148" lon="6.69587">
        <ele>172.7</ele>
        <time>2025-10-26T11:32:08Z</time>
      </trkpt>
      <trkpt lat="43.51148" lon="6.69587">
        <ele>172.6</ele>
        <time>2025-10-26T11:32:09Z</time>
      </trkpt>
      <trkpt lat="43.51148" lon="6.69587">
        <ele>172.6</ele>
        <time>2025-10-26T11:32:10Z</time>
      </trkpt>
      <trkpt lat="43.51149" lon="6.69586">
        <ele>172.7</ele>
        <time>2025-10-26T11:32:11Z</time>
      </trkpt>
      <trkpt lat="43.51149" lon="6.69586">
        <ele>172.7</ele>
        <time>2025-10-26T11:32:12Z</time>
      </trkpt>
      <trkpt lat="43.51149" lon="6.69586">
        <ele>172.8</ele>
        <time>2025-10-26T11:32:13Z</time>
      </trkpt>
      <trkpt lat="43.51148" lon="6.69585">
        <ele>172.9</ele>
        <time>2025-10-26T11:32:14Z</time>
      </trkpt>
      <trkpt lat="43.51148" lon="6.69585">
        <ele>173</ele>
        <time>2025-10-26T11:32:15Z</time>
      </trkpt>
      <trkpt lat="43.51148" lon="6.69585">
        <ele>173.1</ele>
        <time>2025-10-26T11:32:16Z</time>
      </trkpt>
      <trkpt lat="43.51148" lon="6.69584">
        <ele>172.9</ele>
        <time>2025-10-26T11:32:17Z</time>
      </trkpt>
      <trkpt lat="43.51148" lon="6.69584">
        <ele>172.7</ele>
        <time>2025-10-26T11:32:18Z</time>
      </trkpt>
      <trkpt lat="43.51148" lon="6.69584">
        <ele>172.4</ele>
        <time>2025-10-26T11:32:19Z</time>
      </trkpt>
      <trkpt lat="43.51147" lon="6.69584">
        <ele>172.2</ele>
        <time>2025-10-26T11:32:20Z</time>
      </trkpt>
      <trkpt lat="43.51147" lon="6.69584">
        <ele>172.3</ele>
        <time>2025-10-26T11:32:21Z</time>
      </trkpt>
      <trkpt lat="43.51147" lon="6.69583">
        <ele>172.3</ele>
        <time>2025-10-26T11:32:22Z</time>
      </trkpt>
      <trkpt lat="43.51147" lon="6.69583">
        <ele>172.3</ele>
        <time>2025-10-26T11:32:23Z</time>
      </trkpt>
      <trkpt lat="43.51147" lon="6.69583">
        <ele>172.3</ele>
        <time>2025-10-26T11:32:24Z</time>
      </trkpt>
      <trkpt lat="43.51147" lon="6.69583">
        <ele>172.3</ele>
        <time>2025-10-26T11:32:25Z</time>
      </trkpt>
      <trkpt lat="43.51147" lon="6.69583">
        <ele>172.2</ele>
        <time>2025-10-26T11:32:26Z</time>
      </trkpt>
      <trkpt lat="43.51147" lon="6.69583">
        <ele>172.1</ele>
        <time>2025-10-26T11:32:27Z</time>
      </trkpt>
      <trkpt lat="43.51147" lon="6.69583">
        <ele>172.2</ele>
        <time>2025-10-26T11:32:28Z</time>
      </trkpt>
      <trkpt lat="43.51147" lon="6.69583">
        <ele>172.3</ele>
        <time>2025-10-26T11:32:29Z</time>
      </trkpt>
      <trkpt lat="43.51147" lon="6.69582">
        <ele>172.4</ele>
        <time>2025-10-26T11:32:30Z</time>
      </trkpt>
      <trkpt lat="43.51147" lon="6.69582">
        <ele>172.2</ele>
        <time>2025-10-26T11:32:31Z</time>
      </trkpt>
      <trkpt lat="43.51147" lon="6.69582">
        <ele>172.1</ele>
        <time>2025-10-26T11:32:32Z</time>
      </trkpt>
      <trkpt lat="43.51147" lon="6.69582">
        <ele>172.1</ele>
        <time>2025-10-26T11:32:33Z</time>
      </trkpt>
      <trkpt lat="43.51147" lon="6.69582">
        <ele>172.1</ele>
        <time>2025-10-26T11:32:34Z</time>
      </trkpt>
      <trkpt lat="43.51147" lon="6.69582">
        <ele>172.1</ele>
        <time>2025-10-26T11:32:35Z</time>
      </trkpt>
      <trkpt lat="43.51147" lon="6.69581">
        <ele>172.1</ele>
        <time>2025-10-26T11:32:36Z</time>
      </trkpt>
      <trkpt lat="43.51147" lon="6.69581">
        <ele>172.1</ele>
        <time>2025-10-26T11:32:37Z</time>
      </trkpt>
      <trkpt lat="43.51147" lon="6.69581">
        <ele>172</ele>
        <time>2025-10-26T11:32:38Z</time>
      </trkpt>
      <trkpt lat="43.51147" lon="6.69581">
        <ele>171.9</ele>
        <time>2025-10-26T11:32:39Z</time>
      </trkpt>
      <trkpt lat="43.51147" lon="6.69581">
        <ele>171.8</ele>
        <time>2025-10-26T11:32:40Z</time>
      </trkpt>
      <trkpt lat="43.51147" lon="6.69581">
        <ele>171.8</ele>
        <time>2025-10-26T11:32:41Z</time>
      </trkpt>
      <trkpt lat="43.51147" lon="6.69581">
        <ele>171.8</ele>
        <time>2025-10-26T11:32:42Z</time>
      </trkpt>
      <trkpt lat="43.51148" lon="6.69581">
        <ele>171.9</ele>
        <time>2025-10-26T11:32:43Z</time>
      </trkpt>
      <trkpt lat="43.51148" lon="6.6958">
        <ele>172.2</ele>
        <time>2025-10-26T11:32:44Z</time>
      </trkpt>
      <trkpt lat="43.51147" lon="6.6958">
        <ele>172.4</ele>
        <time>2025-10-26T11:32:45Z</time>
      </trkpt>
      <trkpt lat="43.51147" lon="6.6958">
        <ele>172.6</ele>
        <time>2025-10-26T11:32:46Z</time>
      </trkpt>
      <trkpt lat="43.51147" lon="6.6958">
        <ele>172.7</ele>
        <time>2025-10-26T11:32:47Z</time>
      </trkpt>
      <trkpt lat="43.51147" lon="6.6958">
        <ele>172.8</ele>
        <time>2025-10-26T11:32:48Z</time>
      </trkpt>
      <trkpt lat="43.51147" lon="6.6958">
        <ele>172.9</ele>
        <time>2025-10-26T11:32:49Z</time>
      </trkpt>
      <trkpt lat="43.51147" lon="6.6958">
        <ele>172.9</ele>
        <time>2025-10-26T11:32:50Z</time>
      </trkpt>
      <trkpt lat="43.51147" lon="6.6958">
        <ele>172.8</ele>
        <time>2025-10-26T11:32:51Z</time>
      </trkpt>
      <trkpt lat="43.51147" lon="6.6958">
        <ele>172.6</ele>
        <time>2025-10-26T11:32:52Z</time>
      </trkpt>
      <trkpt lat="43.51147" lon="6.6958">
        <ele>172.5</ele>
        <time>2025-10-26T11:32:53Z</time>
      </trkpt>
      <trkpt lat="43.51147" lon="6.6958">
        <ele>172.6</ele>
        <time>2025-10-26T11:32:54Z</time>
      </trkpt>
      <trkpt lat="43.51147" lon="6.6958">
        <ele>172.6</ele>
        <time>2025-10-26T11:32:55Z</time>
      </trkpt>
      <trkpt lat="43.51147" lon="6.69579">
        <ele>172.6</ele>
        <time>2025-10-26T11:32:56Z</time>
      </trkpt>
      <trkpt lat="43.51146" lon="6.69579">
        <ele>172.6</ele>
        <time>2025-10-26T11:32:57Z</time>
      </trkpt>
      <trkpt lat="43.51146" lon="6.69579">
        <ele>172.5</ele>
        <time>2025-10-26T11:32:58Z</time>
      </trkpt>
      <trkpt lat="43.51146" lon="6.69578">
        <ele>172.2</ele>
        <time>2025-10-26T11:32:59Z</time>
      </trkpt>
      <trkpt lat="43.51146" lon="6.69578">
        <ele>172</ele>
        <time>2025-10-26T11:33:00Z</time>
      </trkpt>
      <trkpt lat="43.51147" lon="6.69578">
        <ele>171.7</ele>
        <time>2025-10-26T11:33:01Z</time>
      </trkpt>
      <trkpt lat="43.51147" lon="6.69578">
        <ele>171.6</ele>
        <time>2025-10-26T11:33:02Z</time>
      </trkpt>
      <trkpt lat="43.51147" lon="6.69578">
        <ele>171.8</ele>
        <time>2025-10-26T11:33:03Z</time>
      </trkpt>
      <trkpt lat="43.51147" lon="6.69578">
        <ele>172</ele>
        <time>2025-10-26T11:33:04Z</time>
      </trkpt>
      <trkpt lat="43.51147" lon="6.69579">
        <ele>171.9</ele>
        <time>2025-10-26T11:33:05Z</time>
      </trkpt>
      <trkpt lat="43.51147" lon="6.69579">
        <ele>171.7</ele>
        <time>2025-10-26T11:33:06Z</time>
      </trkpt>
      <trkpt lat="43.51146" lon="6.69579">
        <ele>171.6</ele>
        <time>2025-10-26T11:33:07Z</time>
      </trkpt>
      <trkpt lat="43.51147" lon="6.6958">
        <ele>171.5</ele>
        <time>2025-10-26T11:33:08Z</time>
      </trkpt>
      <trkpt lat="43.51147" lon="6.69581">
        <ele>171.7</ele>
        <time>2025-10-26T11:33:09Z</time>
      </trkpt>
      <trkpt lat="43.51148" lon="6.69581">
        <ele>172.2</ele>
        <time>2025-10-26T11:33:10Z</time>
      </trkpt>
      <trkpt lat="43.51147" lon="6.69581">
        <ele>172.4</ele>
        <time>2025-10-26T11:33:11Z</time>
      </trkpt>
      <trkpt lat="43.51147" lon="6.6958">
        <ele>172.1</ele>
        <time>2025-10-26T11:33:12Z</time>
      </trkpt>
      <trkpt lat="43.51147" lon="6.6958">
        <ele>172</ele>
        <time>2025-10-26T11:33:13Z</time>
      </trkpt>
      <trkpt lat="43.51147" lon="6.6958">
        <ele>172.1</ele>
        <time>2025-10-26T11:33:14Z</time>
      </trkpt>
      <trkpt lat="43.51146" lon="6.6958">
        <ele>172.2</ele>
        <time>2025-10-26T11:33:15Z</time>
      </trkpt>
      <trkpt lat="43.51146" lon="6.6958">
        <ele>172.2</ele>
        <time>2025-10-26T11:33:16Z</time>
      </trkpt>
      <trkpt lat="43.51146" lon="6.6958">
        <ele>172.2</ele>
        <time>2025-10-26T11:33:17Z</time>
      </trkpt>
      <trkpt lat="43.51146" lon="6.6958">
        <ele>172.1</ele>
        <time>2025-10-26T11:33:18Z</time>
      </trkpt>
      <trkpt lat="43.51146" lon="6.6958">
        <ele>172.1</ele>
        <time>2025-10-26T11:33:19Z</time>
      </trkpt>
      <trkpt lat="43.51146" lon="6.69579">
        <ele>172.1</ele>
        <time>2025-10-26T11:33:20Z</time>
      </trkpt>
      <trkpt lat="43.51145" lon="6.69579">
        <ele>172.1</ele>
        <time>2025-10-26T11:33:21Z</time>
      </trkpt>
      <trkpt lat="43.51145" lon="6.69579">
        <ele>172.1</ele>
        <time>2025-10-26T11:33:22Z</time>
      </trkpt>
      <trkpt lat="43.51145" lon="6.69579">
        <ele>172.2</ele>
        <time>2025-10-26T11:33:23Z</time>
      </trkpt>
      <trkpt lat="43.51145" lon="6.69579">
        <ele>172.2</ele>
        <time>2025-10-26T11:33:24Z</time>
      </trkpt>
      <trkpt lat="43.51145" lon="6.69579">
        <ele>172.2</ele>
        <time>2025-10-26T11:33:25Z</time>
      </trkpt>
      <trkpt lat="43.51145" lon="6.69579">
        <ele>171.9</ele>
        <time>2025-10-26T11:33:26Z</time>
      </trkpt>
      <trkpt lat="43.51145" lon="6.69579">
        <ele>171.5</ele>
        <time>2025-10-26T11:33:27Z</time>
      </trkpt>
      <trkpt lat="43.51145" lon="6.69579">
        <ele>171.5</ele>
        <time>2025-10-26T11:33:28Z</time>
      </trkpt>
      <trkpt lat="43.51145" lon="6.6958">
        <ele>171.5</ele>
        <time>2025-10-26T11:33:29Z</time>
      </trkpt>
      <trkpt lat="43.51145" lon="6.6958">
        <ele>171.6</ele>
        <time>2025-10-26T11:33:30Z</time>
      </trkpt>
      <trkpt lat="43.51145" lon="6.69579">
        <ele>171.6</ele>
        <time>2025-10-26T11:33:31Z</time>
      </trkpt>
      <trkpt lat="43.51145" lon="6.69579">
        <ele>171.6</ele>
        <time>2025-10-26T11:33:32Z</time>
      </trkpt>
      <trkpt lat="43.51145" lon="6.69579">
        <ele>171.6</ele>
        <time>2025-10-26T11:33:33Z</time>
      </trkpt>
      <trkpt lat="43.51145" lon="6.69579">
        <ele>171.7</ele>
        <time>2025-10-26T11:33:34Z</time>
      </trkpt>
      <trkpt lat="43.51145" lon="6.69579">
        <ele>171.7</ele>
        <time>2025-10-26T11:33:35Z</time>
      </trkpt>
      <trkpt lat="43.51145" lon="6.69579">
        <ele>171.8</ele>
        <time>2025-10-26T11:33:36Z</time>
      </trkpt>
      <trkpt lat="43.51145" lon="6.69579">
        <ele>171.8</ele>
        <time>2025-10-26T11:33:37Z</time>
      </trkpt>
      <trkpt lat="43.51145" lon="6.69579">
        <ele>171.9</ele>
        <time>2025-10-26T11:33:38Z</time>
      </trkpt>
      <trkpt lat="43.51145" lon="6.69579">
        <ele>171.9</ele>
        <time>2025-10-26T11:33:39Z</time>
      </trkpt>
      <trkpt lat="43.51145" lon="6.69579">
        <ele>171.9</ele>
        <time>2025-10-26T11:33:40Z</time>
      </trkpt>
      <trkpt lat="43.51145" lon="6.69579">
        <ele>172</ele>
        <time>2025-10-26T11:33:41Z</time>
      </trkpt>
      <trkpt lat="43.51145" lon="6.69579">
        <ele>172</ele>
        <time>2025-10-26T11:33:42Z</time>
      </trkpt>
      <trkpt lat="43.51145" lon="6.69579">
        <ele>172</ele>
        <time>2025-10-26T11:33:43Z</time>
      </trkpt>
      <trkpt lat="43.51145" lon="6.6958">
        <ele>172</ele>
        <time>2025-10-26T11:33:44Z</time>
      </trkpt>
      <trkpt lat="43.51144" lon="6.69581">
        <ele>172</ele>
        <time>2025-10-26T11:33:45Z</time>
      </trkpt>
      <trkpt lat="43.51144" lon="6.69583">
        <ele>172</ele>
        <time>2025-10-26T11:33:46Z</time>
      </trkpt>
      <trkpt lat="43.51143" lon="6.69583">
        <ele>172</ele>
        <time>2025-10-26T11:33:47Z</time>
      </trkpt>
      <trkpt lat="43.51142" lon="6.69583">
        <ele>171.9</ele>
        <time>2025-10-26T11:33:48Z</time>
      </trkpt>
      <trkpt lat="43.51141" lon="6.69584">
        <ele>171.8</ele>
        <time>2025-10-26T11:33:49Z</time>
      </trkpt>
      <trkpt lat="43.51141" lon="6.69584">
        <ele>171.5</ele>
        <time>2025-10-26T11:33:50Z</time>
      </trkpt>
      <trkpt lat="43.51141" lon="6.69585">
        <ele>171.3</ele>
        <time>2025-10-26T11:33:51Z</time>
      </trkpt>
      <trkpt lat="43.51141" lon="6.69585">
        <ele>171.2</ele>
        <time>2025-10-26T11:33:52Z</time>
      </trkpt>
      <trkpt lat="43.51141" lon="6.69585">
        <ele>171.1</ele>
        <time>2025-10-26T11:33:53Z</time>
      </trkpt>
      <trkpt lat="43.51141" lon="6.69585">
        <ele>171.1</ele>
        <time>2025-10-26T11:33:54Z</time>
      </trkpt>
      <trkpt lat="43.51141" lon="6.69585">
        <ele>171.1</ele>
        <time>2025-10-26T11:33:55Z</time>
      </trkpt>
      <trkpt lat="43.51141" lon="6.69585">
        <ele>171.1</ele>
        <time>2025-10-26T11:33:56Z</time>
      </trkpt>
      <trkpt lat="43.51142" lon="6.69586">
        <ele>170.8</ele>
        <time>2025-10-26T11:33:57Z</time>
      </trkpt>
      <trkpt lat="43.51142" lon="6.69587">
        <ele>170.6</ele>
        <time>2025-10-26T11:33:58Z</time>
      </trkpt>
      <trkpt lat="43.51142" lon="6.69587">
        <ele>170.5</ele>
        <time>2025-10-26T11:33:59Z</time>
      </trkpt>
      <trkpt lat="43.51142" lon="6.69587">
        <ele>170.4</ele>
        <time>2025-10-26T11:34:00Z</time>
      </trkpt>
      <trkpt lat="43.51142" lon="6.69587">
        <ele>170.4</ele>
        <time>2025-10-26T11:34:01Z</time>
      </trkpt>
      <trkpt lat="43.51142" lon="6.69587">
        <ele>170.4</ele>
        <time>2025-10-26T11:34:02Z</time>
      </trkpt>
      <trkpt lat="43.51142" lon="6.69587">
        <ele>170.5</ele>
        <time>2025-10-26T11:34:03Z</time>
      </trkpt>
      <trkpt lat="43.51142" lon="6.69587">
        <ele>170.8</ele>
        <time>2025-10-26T11:34:04Z</time>
      </trkpt>
      <trkpt lat="43.51143" lon="6.69587">
        <ele>171</ele>
        <time>2025-10-26T11:34:05Z</time>
      </trkpt>
      <trkpt lat="43.51144" lon="6.69587">
        <ele>171.1</ele>
        <time>2025-10-26T11:34:06Z</time>
      </trkpt>
      <trkpt lat="43.51144" lon="6.69587">
        <ele>171.2</ele>
        <time>2025-10-26T11:34:07Z</time>
      </trkpt>
      <trkpt lat="43.51144" lon="6.69586">
        <ele>171.4</ele>
        <time>2025-10-26T11:34:08Z</time>
      </trkpt>
      <trkpt lat="43.51144" lon="6.69586">
        <ele>171.6</ele>
        <time>2025-10-26T11:34:09Z</time>
      </trkpt>
      <trkpt lat="43.51144" lon="6.69586">
        <ele>171.7</ele>
        <time>2025-10-26T11:34:10Z</time>
      </trkpt>
      <trkpt lat="43.51144" lon="6.69586">
        <ele>171.8</ele>
        <time>2025-10-26T11:34:11Z</time>
      </trkpt>
      <trkpt lat="43.51144" lon="6.69586">
        <ele>171.8</ele>
        <time>2025-10-26T11:34:12Z</time>
      </trkpt>
      <trkpt lat="43.51144" lon="6.69586">
        <ele>171.8</ele>
        <time>2025-10-26T11:34:13Z</time>
      </trkpt>
      <trkpt lat="43.51144" lon="6.69586">
        <ele>171.9</ele>
        <time>2025-10-26T11:34:14Z</time>
      </trkpt>
      <trkpt lat="43.51145" lon="6.69585">
        <ele>171.9</ele>
        <time>2025-10-26T11:34:15Z</time>
      </trkpt>
      <trkpt lat="43.51145" lon="6.69585">
        <ele>171.8</ele>
        <time>2025-10-26T11:34:16Z</time>
      </trkpt>
      <trkpt lat="43.51145" lon="6.69584">
        <ele>171.8</ele>
        <time>2025-10-26T11:34:17Z</time>
      </trkpt>
      <trkpt lat="43.51145" lon="6.69584">
        <ele>171.8</ele>
        <time>2025-10-26T11:34:18Z</time>
      </trkpt>
      <trkpt lat="43.51146" lon="6.69584">
        <ele>171.5</ele>
        <time>2025-10-26T11:34:19Z</time>
      </trkpt>
      <trkpt lat="43.51146" lon="6.69584">
        <ele>171.6</ele>
        <time>2025-10-26T11:34:20Z</time>
      </trkpt>
      <trkpt lat="43.51146" lon="6.69584">
        <ele>171.5</ele>
        <time>2025-10-26T11:34:21Z</time>
      </trkpt>
      <trkpt lat="43.51146" lon="6.69584">
        <ele>171.5</ele>
        <time>2025-10-26T11:34:22Z</time>
      </trkpt>
      <trkpt lat="43.51146" lon="6.69583">
        <ele>171.6</ele>
        <time>2025-10-26T11:34:23Z</time>
      </trkpt>
      <trkpt lat="43.51146" lon="6.69583">
        <ele>171.7</ele>
        <time>2025-10-26T11:34:24Z</time>
      </trkpt>
      <trkpt lat="43.51146" lon="6.69583">
        <ele>171.8</ele>
        <time>2025-10-26T11:34:25Z</time>
      </trkpt>
      <trkpt lat="43.51146" lon="6.69583">
        <ele>171.8</ele>
        <time>2025-10-26T11:34:26Z</time>
      </trkpt>
      <trkpt lat="43.51146" lon="6.69583">
        <ele>171.8</ele>
        <time>2025-10-26T11:34:27Z</time>
      </trkpt>
      <trkpt lat="43.51146" lon="6.69583">
        <ele>171.8</ele>
        <time>2025-10-26T11:34:28Z</time>
      </trkpt>
      <trkpt lat="43.51146" lon="6.69583">
        <ele>171.9</ele>
        <time>2025-10-26T11:34:29Z</time>
      </trkpt>
      <trkpt lat="43.51147" lon="6.69583">
        <ele>172</ele>
        <time>2025-10-26T11:34:30Z</time>
      </trkpt>
      <trkpt lat="43.51147" lon="6.69583">
        <ele>172.1</ele>
        <time>2025-10-26T11:34:31Z</time>
      </trkpt>
      <trkpt lat="43.51147" lon="6.69582">
        <ele>172.2</ele>
        <time>2025-10-26T11:34:32Z</time>
      </trkpt>
      <trkpt lat="43.51147" lon="6.69582">
        <ele>172.1</ele>
        <time>2025-10-26T11:34:33Z</time>
      </trkpt>
      <trkpt lat="43.51147" lon="6.69582">
        <ele>172.1</ele>
        <time>2025-10-26T11:34:34Z</time>
      </trkpt>
      <trkpt lat="43.51147" lon="6.69582">
        <ele>172</ele>
        <time>2025-10-26T11:34:35Z</time>
      </trkpt>
      <trkpt lat="43.51147" lon="6.69582">
        <ele>172</ele>
        <time>2025-10-26T11:34:36Z</time>
      </trkpt>
      <trkpt lat="43.51147" lon="6.69582">
        <ele>171.9</ele>
        <time>2025-10-26T11:34:37Z</time>
      </trkpt>
      <trkpt lat="43.51147" lon="6.69582">
        <ele>171.8</ele>
        <time>2025-10-26T11:34:38Z</time>
      </trkpt>
      <trkpt lat="43.51147" lon="6.69582">
        <ele>171.7</ele>
        <time>2025-10-26T11:34:39Z</time>
      </trkpt>
      <trkpt lat="43.51147" lon="6.69582">
        <ele>171.7</ele>
        <time>2025-10-26T11:34:40Z</time>
      </trkpt>
      <trkpt lat="43.51147" lon="6.69581">
        <ele>171.7</ele>
        <time>2025-10-26T11:34:41Z</time>
      </trkpt>
      <trkpt lat="43.51147" lon="6.69581">
        <ele>171.8</ele>
        <time>2025-10-26T11:34:42Z</time>
      </trkpt>
      <trkpt lat="43.51147" lon="6.69581">
        <ele>171.7</ele>
        <time>2025-10-26T11:34:43Z</time>
      </trkpt>
      <trkpt lat="43.51147" lon="6.69582">
        <ele>171.7</ele>
        <time>2025-10-26T11:34:44Z</time>
      </trkpt>
      <trkpt lat="43.51147" lon="6.69582">
        <ele>171.7</ele>
        <time>2025-10-26T11:34:45Z</time>
      </trkpt>
      <trkpt lat="43.51147" lon="6.69583">
        <ele>171.8</ele>
        <time>2025-10-26T11:34:46Z</time>
      </trkpt>
      <trkpt lat="43.51148" lon="6.69583">
        <ele>171.7</ele>
        <time>2025-10-26T11:34:47Z</time>
      </trkpt>
      <trkpt lat="43.51148" lon="6.69583">
        <ele>171.6</ele>
        <time>2025-10-26T11:34:48Z</time>
      </trkpt>
      <trkpt lat="43.51148" lon="6.69583">
        <ele>171.9</ele>
        <time>2025-10-26T11:34:49Z</time>
      </trkpt>
      <trkpt lat="43.51147" lon="6.69582">
        <ele>171.9</ele>
        <time>2025-10-26T11:34:50Z</time>
      </trkpt>
      <trkpt lat="43.51147" lon="6.69582">
        <ele>171.9</ele>
        <time>2025-10-26T11:34:51Z</time>
      </trkpt>
      <trkpt lat="43.51147" lon="6.69583">
        <ele>172</ele>
        <time>2025-10-26T11:34:52Z</time>
      </trkpt>
      <trkpt lat="43.51147" lon="6.69583">
        <ele>172</ele>
        <time>2025-10-26T11:34:53Z</time>
      </trkpt>
      <trkpt lat="43.51147" lon="6.69582">
        <ele>171.9</ele>
        <time>2025-10-26T11:34:54Z</time>
      </trkpt>
      <trkpt lat="43.51147" lon="6.69582">
        <ele>171.7</ele>
        <time>2025-10-26T11:34:55Z</time>
      </trkpt>
      <trkpt lat="43.51147" lon="6.69582">
        <ele>171.6</ele>
        <time>2025-10-26T11:34:56Z</time>
      </trkpt>
      <trkpt lat="43.51147" lon="6.69582">
        <ele>171.6</ele>
        <time>2025-10-26T11:34:57Z</time>
      </trkpt>
      <trkpt lat="43.51147" lon="6.69582">
        <ele>171.7</ele>
        <time>2025-10-26T11:34:58Z</time>
      </trkpt>
      <trkpt lat="43.51147" lon="6.69582">
        <ele>171.8</ele>
        <time>2025-10-26T11:34:59Z</time>
      </trkpt>
      <trkpt lat="43.51147" lon="6.69582">
        <ele>171.8</ele>
        <time>2025-10-26T11:35:00Z</time>
      </trkpt>
      <trkpt lat="43.51147" lon="6.69582">
        <ele>171.7</ele>
        <time>2025-10-26T11:35:01Z</time>
      </trkpt>
      <trkpt lat="43.51147" lon="6.69581">
        <ele>171.8</ele>
        <time>2025-10-26T11:35:02Z</time>
      </trkpt>
      <trkpt lat="43.51147" lon="6.69581">
        <ele>171.6</ele>
        <time>2025-10-26T11:35:03Z</time>
      </trkpt>
      <trkpt lat="43.51147" lon="6.69581">
        <ele>171.6</ele>
        <time>2025-10-26T11:35:04Z</time>
      </trkpt>
      <trkpt lat="43.51147" lon="6.69581">
        <ele>171.7</ele>
        <time>2025-10-26T11:35:05Z</time>
      </trkpt>
      <trkpt lat="43.51147" lon="6.69581">
        <ele>171.6</ele>
        <time>2025-10-26T11:35:06Z</time>
      </trkpt>
      <trkpt lat="43.51147" lon="6.69581">
        <ele>171.8</ele>
        <time>2025-10-26T11:35:07Z</time>
      </trkpt>
      <trkpt lat="43.51147" lon="6.69581">
        <ele>171.8</ele>
        <time>2025-10-26T11:35:08Z</time>
      </trkpt>
      <trkpt lat="43.51147" lon="6.69581">
        <ele>171.9</ele>
        <time>2025-10-26T11:35:09Z</time>
      </trkpt>
      <trkpt lat="43.51147" lon="6.69581">
        <ele>171.9</ele>
        <time>2025-10-26T11:35:10Z</time>
      </trkpt>
      <trkpt lat="43.51147" lon="6.69581">
        <ele>171.8</ele>
        <time>2025-10-26T11:35:11Z</time>
      </trkpt>
      <trkpt lat="43.51147" lon="6.69581">
        <ele>171.8</ele>
        <time>2025-10-26T11:35:12Z</time>
      </trkpt>
      <trkpt lat="43.51147" lon="6.69581">
        <ele>171.8</ele>
        <time>2025-10-26T11:35:13Z</time>
      </trkpt>
      <trkpt lat="43.51148" lon="6.69582">
        <ele>171.9</ele>
        <time>2025-10-26T11:35:14Z</time>
      </trkpt>
      <trkpt lat="43.51148" lon="6.69582">
        <ele>171.9</ele>
        <time>2025-10-26T11:35:15Z</time>
      </trkpt>
      <trkpt lat="43.51147" lon="6.69582">
        <ele>171.9</ele>
        <time>2025-10-26T11:35:16Z</time>
      </trkpt>
      <trkpt lat="43.51147" lon="6.69582">
        <ele>172</ele>
        <time>2025-10-26T11:35:17Z</time>
      </trkpt>
      <trkpt lat="43.51147" lon="6.69582">
        <ele>172</ele>
        <time>2025-10-26T11:35:18Z</time>
      </trkpt>
      <trkpt lat="43.51147" lon="6.69582">
        <ele>172</ele>
        <time>2025-10-26T11:35:19Z</time>
      </trkpt>
      <trkpt lat="43.51147" lon="6.69582">
        <ele>172</ele>
        <time>2025-10-26T11:35:20Z</time>
      </trkpt>
      <trkpt lat="43.51147" lon="6.69582">
        <ele>172.1</ele>
        <time>2025-10-26T11:35:21Z</time>
      </trkpt>
      <trkpt lat="43.51147" lon="6.69582">
        <ele>172</ele>
        <time>2025-10-26T11:35:22Z</time>
      </trkpt>
      <trkpt lat="43.51147" lon="6.69582">
        <ele>172.1</ele>
        <time>2025-10-26T11:35:23Z</time>
      </trkpt>
      <trkpt lat="43.51147" lon="6.69582">
        <ele>172.1</ele>
        <time>2025-10-26T11:35:24Z</time>
      </trkpt>
      <trkpt lat="43.51147" lon="6.69582">
        <ele>172.1</ele>
        <time>2025-10-26T11:35:25Z</time>
      </trkpt>
      <trkpt lat="43.51147" lon="6.69581">
        <ele>172.1</ele>
        <time>2025-10-26T11:35:26Z</time>
      </trkpt>
      <trkpt lat="43.51147" lon="6.69581">
        <ele>172.1</ele>
        <time>2025-10-26T11:35:27Z</time>
      </trkpt>
      <trkpt lat="43.51147" lon="6.69582">
        <ele>172</ele>
        <time>2025-10-26T11:35:28Z</time>
      </trkpt>
      <trkpt lat="43.51147" lon="6.69582">
        <ele>172</ele>
        <time>2025-10-26T11:35:29Z</time>
      </trkpt>
      <trkpt lat="43.51147" lon="6.69582">
        <ele>172</ele>
        <time>2025-10-26T11:35:30Z</time>
      </trkpt>
      <trkpt lat="43.51147" lon="6.69581">
        <ele>172</ele>
        <time>2025-10-26T11:35:31Z</time>
      </trkpt>
      <trkpt lat="43.51147" lon="6.69581">
        <ele>172</ele>
        <time>2025-10-26T11:35:32Z</time>
      </trkpt>
      <trkpt lat="43.51147" lon="6.69582">
        <ele>172</ele>
        <time>2025-10-26T11:35:33Z</time>
      </trkpt>
      <trkpt lat="43.51147" lon="6.69581">
        <ele>172</ele>
        <time>2025-10-26T11:35:34Z</time>
      </trkpt>
      <trkpt lat="43.51147" lon="6.69581">
        <ele>172</ele>
        <time>2025-10-26T11:35:35Z</time>
      </trkpt>
      <trkpt lat="43.51147" lon="6.69581">
        <ele>172</ele>
        <time>2025-10-26T11:35:36Z</time>
      </trkpt>
      <trkpt lat="43.51147" lon="6.69581">
        <ele>172.1</ele>
        <time>2025-10-26T11:35:37Z</time>
      </trkpt>
      <trkpt lat="43.51147" lon="6.69581">
        <ele>172.2</ele>
        <time>2025-10-26T11:35:38Z</time>
      </trkpt>
      <trkpt lat="43.51147" lon="6.69581">
        <ele>172.2</ele>
        <time>2025-10-26T11:35:39Z</time>
      </trkpt>
      <trkpt lat="43.51147" lon="6.69581">
        <ele>172.2</ele>
        <time>2025-10-26T11:35:40Z</time>
      </trkpt>
      <trkpt lat="43.51147" lon="6.69581">
        <ele>172.3</ele>
        <time>2025-10-26T11:35:41Z</time>
      </trkpt>
      <trkpt lat="43.51147" lon="6.69581">
        <ele>172.3</ele>
        <time>2025-10-26T11:35:42Z</time>
      </trkpt>
      <trkpt lat="43.51147" lon="6.69581">
        <ele>172.4</ele>
        <time>2025-10-26T11:35:43Z</time>
      </trkpt>
      <trkpt lat="43.51147" lon="6.69581">
        <ele>172.4</ele>
        <time>2025-10-26T11:35:44Z</time>
      </trkpt>
      <trkpt lat="43.51147" lon="6.69581">
        <ele>172.4</ele>
        <time>2025-10-26T11:35:45Z</time>
      </trkpt>
      <trkpt lat="43.51147" lon="6.69581">
        <ele>172.5</ele>
        <time>2025-10-26T11:35:46Z</time>
      </trkpt>
      <trkpt lat="43.51147" lon="6.69581">
        <ele>172.5</ele>
        <time>2025-10-26T11:35:47Z</time>
      </trkpt>
      <trkpt lat="43.51147" lon="6.69582">
        <ele>172.5</ele>
        <time>2025-10-26T11:35:48Z</time>
      </trkpt>
      <trkpt lat="43.51147" lon="6.69581">
        <ele>172.4</ele>
        <time>2025-10-26T11:35:49Z</time>
      </trkpt>
      <trkpt lat="43.51146" lon="6.69581">
        <ele>172.3</ele>
        <time>2025-10-26T11:35:50Z</time>
      </trkpt>
      <trkpt lat="43.51147" lon="6.69582">
        <ele>172.3</ele>
        <time>2025-10-26T11:35:51Z</time>
      </trkpt>
      <trkpt lat="43.51147" lon="6.69583">
        <ele>172.2</ele>
        <time>2025-10-26T11:35:52Z</time>
      </trkpt>
      <trkpt lat="43.51148" lon="6.69583">
        <ele>172.2</ele>
        <time>2025-10-26T11:35:53Z</time>
      </trkpt>
      <trkpt lat="43.51148" lon="6.69583">
        <ele>172.1</ele>
        <time>2025-10-26T11:35:54Z</time>
      </trkpt>
      <trkpt lat="43.51148" lon="6.69583">
        <ele>172.1</ele>
        <time>2025-10-26T11:35:55Z</time>
      </trkpt>
      <trkpt lat="43.51148" lon="6.69583">
        <ele>172.1</ele>
        <time>2025-10-26T11:35:56Z</time>
      </trkpt>
      <trkpt lat="43.51148" lon="6.69583">
        <ele>172</ele>
        <time>2025-10-26T11:35:57Z</time>
      </trkpt>
      <trkpt lat="43.51148" lon="6.69583">
        <ele>172</ele>
        <time>2025-10-26T11:35:58Z</time>
      </trkpt>
      <trkpt lat="43.51148" lon="6.69582">
        <ele>171.9</ele>
        <time>2025-10-26T11:35:59Z</time>
      </trkpt>
      <trkpt lat="43.51148" lon="6.69582">
        <ele>171.8</ele>
        <time>2025-10-26T11:36:00Z</time>
      </trkpt>
      <trkpt lat="43.51148" lon="6.69582">
        <ele>171.8</ele>
        <time>2025-10-26T11:36:01Z</time>
      </trkpt>
      <trkpt lat="43.51148" lon="6.69582">
        <ele>171.8</ele>
        <time>2025-10-26T11:36:02Z</time>
      </trkpt>
      <trkpt lat="43.51149" lon="6.69582">
        <ele>171.9</ele>
        <time>2025-10-26T11:36:03Z</time>
      </trkpt>
      <trkpt lat="43.51149" lon="6.69582">
        <ele>171.9</ele>
        <time>2025-10-26T11:36:04Z</time>
      </trkpt>
      <trkpt lat="43.51149" lon="6.69582">
        <ele>171.9</ele>
        <time>2025-10-26T11:36:05Z</time>
      </trkpt>
      <trkpt lat="43.51149" lon="6.69582">
        <ele>171.9</ele>
        <time>2025-10-26T11:36:06Z</time>
      </trkpt>
      <trkpt lat="43.51149" lon="6.69582">
        <ele>171.7</ele>
        <time>2025-10-26T11:36:07Z</time>
      </trkpt>
      <trkpt lat="43.51149" lon="6.69583">
        <ele>171.8</ele>
        <time>2025-10-26T11:36:08Z</time>
      </trkpt>
      <trkpt lat="43.5115" lon="6.69584">
        <ele>171.8</ele>
        <time>2025-10-26T11:36:09Z</time>
      </trkpt>
      <trkpt lat="43.5115" lon="6.69584">
        <ele>171.8</ele>
        <time>2025-10-26T11:36:10Z</time>
      </trkpt>
      <trkpt lat="43.51151" lon="6.69584">
        <ele>171.9</ele>
        <time>2025-10-26T11:36:11Z</time>
      </trkpt>
      <trkpt lat="43.51151" lon="6.69585">
        <ele>171.8</ele>
        <time>2025-10-26T11:36:12Z</time>
      </trkpt>
      <trkpt lat="43.51152" lon="6.69585">
        <ele>172</ele>
        <time>2025-10-26T11:36:13Z</time>
      </trkpt>
      <trkpt lat="43.51153" lon="6.69586">
        <ele>172.1</ele>
        <time>2025-10-26T11:36:14Z</time>
      </trkpt>
      <trkpt lat="43.51153" lon="6.69586">
        <ele>172.3</ele>
        <time>2025-10-26T11:36:15Z</time>
      </trkpt>
      <trkpt lat="43.51154" lon="6.69586">
        <ele>172.4</ele>
        <time>2025-10-26T11:36:16Z</time>
      </trkpt>
      <trkpt lat="43.51154" lon="6.69587">
        <ele>172.5</ele>
        <time>2025-10-26T11:36:17Z</time>
      </trkpt>
      <trkpt lat="43.51155" lon="6.69587">
        <ele>172.5</ele>
        <time>2025-10-26T11:36:18Z</time>
      </trkpt>
      <trkpt lat="43.51155" lon="6.69588">
        <ele>172.5</ele>
        <time>2025-10-26T11:36:19Z</time>
      </trkpt>
      <trkpt lat="43.51156" lon="6.69588">
        <ele>172.6</ele>
        <time>2025-10-26T11:36:20Z</time>
      </trkpt>
      <trkpt lat="43.51156" lon="6.69588">
        <ele>172.8</ele>
        <time>2025-10-26T11:36:21Z</time>
      </trkpt>
      <trkpt lat="43.51157" lon="6.69588">
        <ele>172.9</ele>
        <time>2025-10-26T11:36:22Z</time>
      </trkpt>
      <trkpt lat="43.51157" lon="6.69588">
        <ele>173</ele>
        <time>2025-10-26T11:36:23Z</time>
      </trkpt>
      <trkpt lat="43.51158" lon="6.69588">
        <ele>173.2</ele>
        <time>2025-10-26T11:36:24Z</time>
      </trkpt>
      <trkpt lat="43.51158" lon="6.69589">
        <ele>173.3</ele>
        <time>2025-10-26T11:36:25Z</time>
      </trkpt>
      <trkpt lat="43.51159" lon="6.6959">
        <ele>173.4</ele>
        <time>2025-10-26T11:36:26Z</time>
      </trkpt>
      <trkpt lat="43.51159" lon="6.69591">
        <ele>173.5</ele>
        <time>2025-10-26T11:36:27Z</time>
      </trkpt>
      <trkpt lat="43.5116" lon="6.69591">
        <ele>173.7</ele>
        <time>2025-10-26T11:36:28Z</time>
      </trkpt>
      <trkpt lat="43.5116" lon="6.69592">
        <ele>173.9</ele>
        <time>2025-10-26T11:36:29Z</time>
      </trkpt>
      <trkpt lat="43.5116" lon="6.69593">
        <ele>174.1</ele>
        <time>2025-10-26T11:36:30Z</time>
      </trkpt>
      <trkpt lat="43.51161" lon="6.69593">
        <ele>174.2</ele>
        <time>2025-10-26T11:36:31Z</time>
      </trkpt>
      <trkpt lat="43.51161" lon="6.69594">
        <ele>174.3</ele>
        <time>2025-10-26T11:36:32Z</time>
      </trkpt>
      <trkpt lat="43.51162" lon="6.69595">
        <ele>174.4</ele>
        <time>2025-10-26T11:36:33Z</time>
      </trkpt>
      <trkpt lat="43.51162" lon="6.69596">
        <ele>174.4</ele>
        <time>2025-10-26T11:36:34Z</time>
      </trkpt>
      <trkpt lat="43.51163" lon="6.69597">
        <ele>174.5</ele>
        <time>2025-10-26T11:36:35Z</time>
      </trkpt>
      <trkpt lat="43.51163" lon="6.69597">
        <ele>174.6</ele>
        <time>2025-10-26T11:36:36Z</time>
      </trkpt>
      <trkpt lat="43.51163" lon="6.69598">
        <ele>174.7</ele>
        <time>2025-10-26T11:36:37Z</time>
      </trkpt>
      <trkpt lat="43.51163" lon="6.69599">
        <ele>174.8</ele>
        <time>2025-10-26T11:36:38Z</time>
      </trkpt>
      <trkpt lat="43.51164" lon="6.696">
        <ele>175.1</ele>
        <time>2025-10-26T11:36:39Z</time>
      </trkpt>
      <trkpt lat="43.51164" lon="6.696">
        <ele>175.3</ele>
        <time>2025-10-26T11:36:40Z</time>
      </trkpt>
      <trkpt lat="43.51164" lon="6.696">
        <ele>175.4</ele>
        <time>2025-10-26T11:36:41Z</time>
      </trkpt>
      <trkpt lat="43.51164" lon="6.696">
        <ele>175.6</ele>
        <time>2025-10-26T11:36:42Z</time>
      </trkpt>
      <trkpt lat="43.51164" lon="6.696">
        <ele>175.7</ele>
        <time>2025-10-26T11:36:43Z</time>
      </trkpt>
      <trkpt lat="43.51164" lon="6.696">
        <ele>175.8</ele>
        <time>2025-10-26T11:36:44Z</time>
      </trkpt>
      <trkpt lat="43.51164" lon="6.696">
        <ele>175.9</ele>
        <time>2025-10-26T11:36:45Z</time>
      </trkpt>
      <trkpt lat="43.51164" lon="6.696">
        <ele>175.9</ele>
        <time>2025-10-26T11:36:46Z</time>
      </trkpt>
      <trkpt lat="43.51165" lon="6.696">
        <ele>175.9</ele>
        <time>2025-10-26T11:36:47Z</time>
      </trkpt>
      <trkpt lat="43.51165" lon="6.696">
        <ele>175.9</ele>
        <time>2025-10-26T11:36:48Z</time>
      </trkpt>
      <trkpt lat="43.51165" lon="6.69601">
        <ele>175.9</ele>
        <time>2025-10-26T11:36:49Z</time>
      </trkpt>
      <trkpt lat="43.51165" lon="6.696">
        <ele>175.7</ele>
        <time>2025-10-26T11:36:50Z</time>
      </trkpt>
      <trkpt lat="43.51165" lon="6.69601">
        <ele>175.6</ele>
        <time>2025-10-26T11:36:51Z</time>
      </trkpt>
      <trkpt lat="43.51165" lon="6.69601">
        <ele>175.6</ele>
        <time>2025-10-26T11:36:52Z</time>
      </trkpt>
      <trkpt lat="43.51166" lon="6.69602">
        <ele>175.5</ele>
        <time>2025-10-26T11:36:53Z</time>
      </trkpt>
      <trkpt lat="43.51166" lon="6.69602">
        <ele>175.5</ele>
        <time>2025-10-26T11:36:54Z</time>
      </trkpt>
      <trkpt lat="43.51166" lon="6.69603">
        <ele>175.4</ele>
        <time>2025-10-26T11:36:55Z</time>
      </trkpt>
      <trkpt lat="43.51167" lon="6.69603">
        <ele>175.4</ele>
        <time>2025-10-26T11:36:56Z</time>
      </trkpt>
      <trkpt lat="43.51167" lon="6.69604">
        <ele>175.5</ele>
        <time>2025-10-26T11:36:57Z</time>
      </trkpt>
      <trkpt lat="43.51168" lon="6.69605">
        <ele>175.4</ele>
        <time>2025-10-26T11:36:58Z</time>
      </trkpt>
      <trkpt lat="43.51169" lon="6.69606">
        <ele>175.4</ele>
        <time>2025-10-26T11:36:59Z</time>
      </trkpt>
      <trkpt lat="43.5117" lon="6.69606">
        <ele>175.4</ele>
        <time>2025-10-26T11:37:00Z</time>
      </trkpt>
      <trkpt lat="43.5117" lon="6.69606">
        <ele>175.5</ele>
        <time>2025-10-26T11:37:01Z</time>
      </trkpt>
      <trkpt lat="43.51171" lon="6.69606">
        <ele>175.5</ele>
        <time>2025-10-26T11:37:02Z</time>
      </trkpt>
      <trkpt lat="43.51171" lon="6.69607">
        <ele>175.5</ele>
        <time>2025-10-26T11:37:03Z</time>
      </trkpt>
      <trkpt lat="43.51172" lon="6.69608">
        <ele>175.5</ele>
        <time>2025-10-26T11:37:04Z</time>
      </trkpt>
      <trkpt lat="43.51172" lon="6.69608">
        <ele>175.6</ele>
        <time>2025-10-26T11:37:05Z</time>
      </trkpt>
      <trkpt lat="43.51172" lon="6.69609">
        <ele>175.6</ele>
        <time>2025-10-26T11:37:06Z</time>
      </trkpt>
      <trkpt lat="43.51172" lon="6.69608">
        <ele>175.7</ele>
        <time>2025-10-26T11:37:07Z</time>
      </trkpt>
      <trkpt lat="43.51171" lon="6.69609">
        <ele>175.7</ele>
        <time>2025-10-26T11:37:08Z</time>
      </trkpt>
      <trkpt lat="43.51171" lon="6.69609">
        <ele>175.8</ele>
        <time>2025-10-26T11:37:09Z</time>
      </trkpt>
      <trkpt lat="43.51171" lon="6.6961">
        <ele>175.9</ele>
        <time>2025-10-26T11:37:10Z</time>
      </trkpt>
      <trkpt lat="43.51172" lon="6.69611">
        <ele>176</ele>
        <time>2025-10-26T11:37:11Z</time>
      </trkpt>
      <trkpt lat="43.51173" lon="6.69612">
        <ele>176.1</ele>
        <time>2025-10-26T11:37:12Z</time>
      </trkpt>
      <trkpt lat="43.51173" lon="6.69612">
        <ele>176.2</ele>
        <time>2025-10-26T11:37:13Z</time>
      </trkpt>
      <trkpt lat="43.51174" lon="6.69613">
        <ele>176.2</ele>
        <time>2025-10-26T11:37:14Z</time>
      </trkpt>
      <trkpt lat="43.51174" lon="6.69613">
        <ele>176.3</ele>
        <time>2025-10-26T11:37:15Z</time>
      </trkpt>
      <trkpt lat="43.51174" lon="6.69614">
        <ele>176.3</ele>
        <time>2025-10-26T11:37:16Z</time>
      </trkpt>
      <trkpt lat="43.51174" lon="6.69615">
        <ele>176.3</ele>
        <time>2025-10-26T11:37:17Z</time>
      </trkpt>
      <trkpt lat="43.51174" lon="6.69616">
        <ele>176.4</ele>
        <time>2025-10-26T11:37:18Z</time>
      </trkpt>
      <trkpt lat="43.51174" lon="6.69618">
        <ele>176.6</ele>
        <time>2025-10-26T11:37:19Z</time>
      </trkpt>
      <trkpt lat="43.51175" lon="6.69618">
        <ele>176.6</ele>
        <time>2025-10-26T11:37:20Z</time>
      </trkpt>
      <trkpt lat="43.51175" lon="6.69619">
        <ele>176.7</ele>
        <time>2025-10-26T11:37:21Z</time>
      </trkpt>
      <trkpt lat="43.51175" lon="6.6962">
        <ele>176.8</ele>
        <time>2025-10-26T11:37:22Z</time>
      </trkpt>
      <trkpt lat="43.51176" lon="6.6962">
        <ele>176.8</ele>
        <time>2025-10-26T11:37:23Z</time>
      </trkpt>
      <trkpt lat="43.51176" lon="6.69621">
        <ele>176.9</ele>
        <time>2025-10-26T11:37:24Z</time>
      </trkpt>
      <trkpt lat="43.51176" lon="6.69621">
        <ele>176.9</ele>
        <time>2025-10-26T11:37:25Z</time>
      </trkpt>
      <trkpt lat="43.51176" lon="6.69621">
        <ele>177</ele>
        <time>2025-10-26T11:37:26Z</time>
      </trkpt>
      <trkpt lat="43.51176" lon="6.69621">
        <ele>177.1</ele>
        <time>2025-10-26T11:37:27Z</time>
      </trkpt>
      <trkpt lat="43.51176" lon="6.69623">
        <ele>177.2</ele>
        <time>2025-10-26T11:37:28Z</time>
      </trkpt>
      <trkpt lat="43.51176" lon="6.69624">
        <ele>177.4</ele>
        <time>2025-10-26T11:37:29Z</time>
      </trkpt>
      <trkpt lat="43.51176" lon="6.69624">
        <ele>177.5</ele>
        <time>2025-10-26T11:37:30Z</time>
      </trkpt>
      <trkpt lat="43.51177" lon="6.69625">
        <ele>177.7</ele>
        <time>2025-10-26T11:37:31Z</time>
      </trkpt>
      <trkpt lat="43.51177" lon="6.69626">
        <ele>177.8</ele>
        <time>2025-10-26T11:37:32Z</time>
      </trkpt>
      <trkpt lat="43.51177" lon="6.69627">
        <ele>177.8</ele>
        <time>2025-10-26T11:37:33Z</time>
      </trkpt>
      <trkpt lat="43.51178" lon="6.69627">
        <ele>177.9</ele>
        <time>2025-10-26T11:37:34Z</time>
      </trkpt>
      <trkpt lat="43.51178" lon="6.69628">
        <ele>177.9</ele>
        <time>2025-10-26T11:37:35Z</time>
      </trkpt>
      <trkpt lat="43.51178" lon="6.69628">
        <ele>177.9</ele>
        <time>2025-10-26T11:37:36Z</time>
      </trkpt>
      <trkpt lat="43.51179" lon="6.69629">
        <ele>178</ele>
        <time>2025-10-26T11:37:37Z</time>
      </trkpt>
      <trkpt lat="43.51179" lon="6.69629">
        <ele>178.1</ele>
        <time>2025-10-26T11:37:38Z</time>
      </trkpt>
      <trkpt lat="43.51179" lon="6.6963">
        <ele>178.2</ele>
        <time>2025-10-26T11:37:39Z</time>
      </trkpt>
      <trkpt lat="43.51179" lon="6.6963">
        <ele>178.3</ele>
        <time>2025-10-26T11:37:40Z</time>
      </trkpt>
      <trkpt lat="43.51179" lon="6.6963">
        <ele>178.4</ele>
        <time>2025-10-26T11:37:41Z</time>
      </trkpt>
      <trkpt lat="43.51179" lon="6.69631">
        <ele>178.4</ele>
        <time>2025-10-26T11:37:42Z</time>
      </trkpt>
      <trkpt lat="43.5118" lon="6.69631">
        <ele>178.5</ele>
        <time>2025-10-26T11:37:43Z</time>
      </trkpt>
      <trkpt lat="43.5118" lon="6.69632">
        <ele>178.5</ele>
        <time>2025-10-26T11:37:44Z</time>
      </trkpt>
      <trkpt lat="43.5118" lon="6.69633">
        <ele>178.5</ele>
        <time>2025-10-26T11:37:45Z</time>
      </trkpt>
      <trkpt lat="43.51181" lon="6.69633">
        <ele>178.6</ele>
        <time>2025-10-26T11:37:46Z</time>
      </trkpt>
      <trkpt lat="43.51181" lon="6.69634">
        <ele>178.6</ele>
        <time>2025-10-26T11:37:47Z</time>
      </trkpt>
      <trkpt lat="43.51181" lon="6.69635">
        <ele>178.6</ele>
        <time>2025-10-26T11:37:48Z</time>
      </trkpt>
      <trkpt lat="43.51181" lon="6.69636">
        <ele>178.7</ele>
        <time>2025-10-26T11:37:49Z</time>
      </trkpt>
      <trkpt lat="43.51181" lon="6.69637">
        <ele>178.9</ele>
        <time>2025-10-26T11:37:50Z</time>
      </trkpt>
      <trkpt lat="43.51181" lon="6.69637">
        <ele>178.9</ele>
        <time>2025-10-26T11:37:51Z</time>
      </trkpt>
      <trkpt lat="43.51181" lon="6.69638">
        <ele>179.1</ele>
        <time>2025-10-26T11:37:52Z</time>
      </trkpt>
      <trkpt lat="43.51181" lon="6.69639">
        <ele>179.3</ele>
        <time>2025-10-26T11:37:53Z</time>
      </trkpt>
      <trkpt lat="43.51181" lon="6.6964">
        <ele>179.3</ele>
        <time>2025-10-26T11:37:54Z</time>
      </trkpt>
      <trkpt lat="43.51182" lon="6.69641">
        <ele>179.3</ele>
        <time>2025-10-26T11:37:55Z</time>
      </trkpt>
      <trkpt lat="43.51182" lon="6.69642">
        <ele>179.4</ele>
        <time>2025-10-26T11:37:56Z</time>
      </trkpt>
      <trkpt lat="43.51182" lon="6.69643">
        <ele>179.3</ele>
        <time>2025-10-26T11:37:57Z</time>
      </trkpt>
      <trkpt lat="43.51183" lon="6.69644">
        <ele>179.3</ele>
        <time>2025-10-26T11:37:58Z</time>
      </trkpt>
      <trkpt lat="43.51183" lon="6.69644">
        <ele>179.3</ele>
        <time>2025-10-26T11:37:59Z</time>
      </trkpt>
      <trkpt lat="43.51183" lon="6.69645">
        <ele>179.3</ele>
        <time>2025-10-26T11:38:00Z</time>
      </trkpt>
      <trkpt lat="43.51183" lon="6.69646">
        <ele>179.3</ele>
        <time>2025-10-26T11:38:01Z</time>
      </trkpt>
      <trkpt lat="43.51183" lon="6.69646">
        <ele>179.3</ele>
        <time>2025-10-26T11:38:02Z</time>
      </trkpt>
      <trkpt lat="43.51184" lon="6.69646">
        <ele>179.3</ele>
        <time>2025-10-26T11:38:03Z</time>
      </trkpt>
      <trkpt lat="43.51184" lon="6.69646">
        <ele>179.3</ele>
        <time>2025-10-26T11:38:04Z</time>
      </trkpt>
      <trkpt lat="43.51184" lon="6.69646">
        <ele>179.3</ele>
        <time>2025-10-26T11:38:05Z</time>
      </trkpt>
      <trkpt lat="43.51184" lon="6.69646">
        <ele>179.3</ele>
        <time>2025-10-26T11:38:06Z</time>
      </trkpt>
      <trkpt lat="43.51184" lon="6.69647">
        <ele>179.3</ele>
        <time>2025-10-26T11:38:07Z</time>
      </trkpt>
      <trkpt lat="43.51184" lon="6.69647">
        <ele>179.2</ele>
        <time>2025-10-26T11:38:08Z</time>
      </trkpt>
      <trkpt lat="43.51184" lon="6.69647">
        <ele>179.2</ele>
        <time>2025-10-26T11:38:09Z</time>
      </trkpt>
      <trkpt lat="43.51184" lon="6.69648">
        <ele>179.2</ele>
        <time>2025-10-26T11:38:10Z</time>
      </trkpt>
      <trkpt lat="43.51184" lon="6.69648">
        <ele>179.3</ele>
        <time>2025-10-26T11:38:11Z</time>
      </trkpt>
      <trkpt lat="43.51184" lon="6.69648">
        <ele>179.3</ele>
        <time>2025-10-26T11:38:12Z</time>
      </trkpt>
      <trkpt lat="43.51184" lon="6.69648">
        <ele>179.3</ele>
        <time>2025-10-26T11:38:13Z</time>
      </trkpt>
      <trkpt lat="43.51184" lon="6.69649">
        <ele>179.3</ele>
        <time>2025-10-26T11:38:14Z</time>
      </trkpt>
      <trkpt lat="43.51184" lon="6.69649">
        <ele>179.3</ele>
        <time>2025-10-26T11:38:15Z</time>
      </trkpt>
      <trkpt lat="43.51184" lon="6.69649">
        <ele>179.4</ele>
        <time>2025-10-26T11:38:16Z</time>
      </trkpt>
      <trkpt lat="43.51185" lon="6.69649">
        <ele>179.5</ele>
        <time>2025-10-26T11:38:17Z</time>
      </trkpt>
      <trkpt lat="43.51185" lon="6.6965">
        <ele>179.5</ele>
        <time>2025-10-26T11:38:18Z</time>
      </trkpt>
      <trkpt lat="43.51185" lon="6.6965">
        <ele>179.4</ele>
        <time>2025-10-26T11:38:19Z</time>
      </trkpt>
      <trkpt lat="43.51185" lon="6.6965">
        <ele>179.4</ele>
        <time>2025-10-26T11:38:20Z</time>
      </trkpt>
      <trkpt lat="43.51185" lon="6.6965">
        <ele>179.4</ele>
        <time>2025-10-26T11:38:21Z</time>
      </trkpt>
      <trkpt lat="43.51185" lon="6.6965">
        <ele>179.4</ele>
        <time>2025-10-26T11:38:22Z</time>
      </trkpt>
      <trkpt lat="43.51185" lon="6.6965">
        <ele>179.3</ele>
        <time>2025-10-26T11:38:23Z</time>
      </trkpt>
      <trkpt lat="43.51185" lon="6.69651">
        <ele>179.3</ele>
        <time>2025-10-26T11:38:24Z</time>
      </trkpt>
      <trkpt lat="43.51185" lon="6.69651">
        <ele>179.2</ele>
        <time>2025-10-26T11:38:25Z</time>
      </trkpt>
      <trkpt lat="43.51186" lon="6.69651">
        <ele>179.2</ele>
        <time>2025-10-26T11:38:26Z</time>
      </trkpt>
      <trkpt lat="43.51186" lon="6.69651">
        <ele>179.2</ele>
        <time>2025-10-26T11:38:27Z</time>
      </trkpt>
      <trkpt lat="43.51186" lon="6.69651">
        <ele>179.2</ele>
        <time>2025-10-26T11:38:28Z</time>
      </trkpt>
      <trkpt lat="43.51186" lon="6.69651">
        <ele>179.2</ele>
        <time>2025-10-26T11:38:29Z</time>
      </trkpt>
      <trkpt lat="43.51186" lon="6.69651">
        <ele>179.2</ele>
        <time>2025-10-26T11:38:30Z</time>
      </trkpt>
      <trkpt lat="43.51185" lon="6.69652">
        <ele>179.2</ele>
        <time>2025-10-26T11:38:31Z</time>
      </trkpt>
      <trkpt lat="43.51185" lon="6.69653">
        <ele>179.2</ele>
        <time>2025-10-26T11:38:32Z</time>
      </trkpt>
      <trkpt lat="43.51186" lon="6.69654">
        <ele>179.1</ele>
        <time>2025-10-26T11:38:33Z</time>
      </trkpt>
      <trkpt lat="43.51186" lon="6.69654">
        <ele>178.9</ele>
        <time>2025-10-26T11:38:34Z</time>
      </trkpt>
      <trkpt lat="43.51186" lon="6.69655">
        <ele>178.9</ele>
        <time>2025-10-26T11:38:35Z</time>
      </trkpt>
      <trkpt lat="43.51186" lon="6.69656">
        <ele>178.8</ele>
        <time>2025-10-26T11:38:36Z</time>
      </trkpt>
      <trkpt lat="43.51186" lon="6.69656">
        <ele>178.8</ele>
        <time>2025-10-26T11:38:37Z</time>
      </trkpt>
      <trkpt lat="43.51186" lon="6.69657">
        <ele>178.8</ele>
        <time>2025-10-26T11:38:38Z</time>
      </trkpt>
      <trkpt lat="43.51186" lon="6.69658">
        <ele>178.7</ele>
        <time>2025-10-26T11:38:39Z</time>
      </trkpt>
      <trkpt lat="43.51186" lon="6.69658">
        <ele>178.6</ele>
        <time>2025-10-26T11:38:40Z</time>
      </trkpt>
      <trkpt lat="43.51186" lon="6.69659">
        <ele>178.5</ele>
        <time>2025-10-26T11:38:41Z</time>
      </trkpt>
      <trkpt lat="43.51187" lon="6.69659">
        <ele>178.5</ele>
        <time>2025-10-26T11:38:42Z</time>
      </trkpt>
      <trkpt lat="43.51186" lon="6.69659">
        <ele>178.5</ele>
        <time>2025-10-26T11:38:43Z</time>
      </trkpt>
      <trkpt lat="43.51186" lon="6.6966">
        <ele>178.3</ele>
        <time>2025-10-26T11:38:44Z</time>
      </trkpt>
      <trkpt lat="43.51186" lon="6.69661">
        <ele>178.2</ele>
        <time>2025-10-26T11:38:45Z</time>
      </trkpt>
      <trkpt lat="43.51187" lon="6.69662">
        <ele>178.2</ele>
        <time>2025-10-26T11:38:46Z</time>
      </trkpt>
      <trkpt lat="43.51187" lon="6.69662">
        <ele>178.2</ele>
        <time>2025-10-26T11:38:47Z</time>
      </trkpt>
      <trkpt lat="43.51188" lon="6.69662">
        <ele>178.1</ele>
        <time>2025-10-26T11:38:48Z</time>
      </trkpt>
      <trkpt lat="43.51188" lon="6.69662">
        <ele>178</ele>
        <time>2025-10-26T11:38:49Z</time>
      </trkpt>
      <trkpt lat="43.51189" lon="6.69662">
        <ele>177.9</ele>
        <time>2025-10-26T11:38:50Z</time>
      </trkpt>
      <trkpt lat="43.51189" lon="6.69662">
        <ele>177.8</ele>
        <time>2025-10-26T11:38:51Z</time>
      </trkpt>
      <trkpt lat="43.51189" lon="6.69662">
        <ele>177.9</ele>
        <time>2025-10-26T11:38:52Z</time>
      </trkpt>
      <trkpt lat="43.51189" lon="6.69662">
        <ele>178</ele>
        <time>2025-10-26T11:38:53Z</time>
      </trkpt>
      <trkpt lat="43.5119" lon="6.69663">
        <ele>178</ele>
        <time>2025-10-26T11:38:54Z</time>
      </trkpt>
      <trkpt lat="43.5119" lon="6.69663">
        <ele>178.2</ele>
        <time>2025-10-26T11:38:55Z</time>
      </trkpt>
      <trkpt lat="43.51191" lon="6.69663">
        <ele>178.4</ele>
        <time>2025-10-26T11:38:56Z</time>
      </trkpt>
      <trkpt lat="43.51192" lon="6.69664">
        <ele>178.6</ele>
        <time>2025-10-26T11:38:57Z</time>
      </trkpt>
      <trkpt lat="43.51192" lon="6.69664">
        <ele>178.7</ele>
        <time>2025-10-26T11:38:58Z</time>
      </trkpt>
      <trkpt lat="43.51192" lon="6.69665">
        <ele>178.7</ele>
        <time>2025-10-26T11:38:59Z</time>
      </trkpt>
      <trkpt lat="43.51193" lon="6.69666">
        <ele>178.8</ele>
        <time>2025-10-26T11:39:00Z</time>
      </trkpt>
      <trkpt lat="43.51194" lon="6.69666">
        <ele>178.8</ele>
        <time>2025-10-26T11:39:01Z</time>
      </trkpt>
      <trkpt lat="43.51194" lon="6.69667">
        <ele>178.8</ele>
        <time>2025-10-26T11:39:02Z</time>
      </trkpt>
      <trkpt lat="43.51195" lon="6.69667">
        <ele>178.9</ele>
        <time>2025-10-26T11:39:03Z</time>
      </trkpt>
      <trkpt lat="43.51195" lon="6.69667">
        <ele>178.9</ele>
        <time>2025-10-26T11:39:04Z</time>
      </trkpt>
      <trkpt lat="43.51196" lon="6.69667">
        <ele>178.8</ele>
        <time>2025-10-26T11:39:05Z</time>
      </trkpt>
      <trkpt lat="43.51197" lon="6.69667">
        <ele>178.8</ele>
        <time>2025-10-26T11:39:06Z</time>
      </trkpt>
      <trkpt lat="43.51197" lon="6.69667">
        <ele>178.9</ele>
        <time>2025-10-26T11:39:07Z</time>
      </trkpt>
      <trkpt lat="43.51198" lon="6.69667">
        <ele>178.9</ele>
        <time>2025-10-26T11:39:08Z</time>
      </trkpt>
      <trkpt lat="43.51198" lon="6.69667">
        <ele>179</ele>
        <time>2025-10-26T11:39:09Z</time>
      </trkpt>
      <trkpt lat="43.51198" lon="6.69668">
        <ele>178.9</ele>
        <time>2025-10-26T11:39:10Z</time>
      </trkpt>
      <trkpt lat="43.51198" lon="6.69668">
        <ele>178.9</ele>
        <time>2025-10-26T11:39:11Z</time>
      </trkpt>
      <trkpt lat="43.51198" lon="6.69668">
        <ele>178.7</ele>
        <time>2025-10-26T11:39:12Z</time>
      </trkpt>
      <trkpt lat="43.51198" lon="6.69669">
        <ele>178.7</ele>
        <time>2025-10-26T11:39:13Z</time>
      </trkpt>
      <trkpt lat="43.51199" lon="6.6967">
        <ele>178.5</ele>
        <time>2025-10-26T11:39:14Z</time>
      </trkpt>
      <trkpt lat="43.51199" lon="6.6967">
        <ele>178.4</ele>
        <time>2025-10-26T11:39:15Z</time>
      </trkpt>
      <trkpt lat="43.512" lon="6.69671">
        <ele>178.2</ele>
        <time>2025-10-26T11:39:16Z</time>
      </trkpt>
      <trkpt lat="43.51201" lon="6.69671">
        <ele>177.9</ele>
        <time>2025-10-26T11:39:17Z</time>
      </trkpt>
      <trkpt lat="43.51201" lon="6.6967">
        <ele>177.8</ele>
        <time>2025-10-26T11:39:18Z</time>
      </trkpt>
      <trkpt lat="43.51201" lon="6.69671">
        <ele>177.7</ele>
        <time>2025-10-26T11:39:19Z</time>
      </trkpt>
      <trkpt lat="43.51202" lon="6.69671">
        <ele>177.6</ele>
        <time>2025-10-26T11:39:20Z</time>
      </trkpt>
      <trkpt lat="43.51202" lon="6.69671">
        <ele>177.6</ele>
        <time>2025-10-26T11:39:21Z</time>
      </trkpt>
      <trkpt lat="43.51202" lon="6.69671">
        <ele>177.6</ele>
        <time>2025-10-26T11:39:22Z</time>
      </trkpt>
      <trkpt lat="43.51202" lon="6.69671">
        <ele>177.6</ele>
        <time>2025-10-26T11:39:23Z</time>
      </trkpt>
      <trkpt lat="43.51202" lon="6.69671">
        <ele>177.5</ele>
        <time>2025-10-26T11:39:24Z</time>
      </trkpt>
      <trkpt lat="43.51202" lon="6.69672">
        <ele>177.5</ele>
        <time>2025-10-26T11:39:25Z</time>
      </trkpt>
      <trkpt lat="43.51202" lon="6.69673">
        <ele>177.5</ele>
        <time>2025-10-26T11:39:26Z</time>
      </trkpt>
      <trkpt lat="43.51202" lon="6.69674">
        <ele>177.5</ele>
        <time>2025-10-26T11:39:27Z</time>
      </trkpt>
      <trkpt lat="43.51202" lon="6.69675">
        <ele>177.5</ele>
        <time>2025-10-26T11:39:28Z</time>
      </trkpt>
      <trkpt lat="43.51202" lon="6.69676">
        <ele>177.5</ele>
        <time>2025-10-26T11:39:29Z</time>
      </trkpt>
      <trkpt lat="43.51202" lon="6.69676">
        <ele>177.5</ele>
        <time>2025-10-26T11:39:30Z</time>
      </trkpt>
      <trkpt lat="43.51203" lon="6.69676">
        <ele>177.4</ele>
        <time>2025-10-26T11:39:31Z</time>
      </trkpt>
      <trkpt lat="43.51204" lon="6.69677">
        <ele>177.3</ele>
        <time>2025-10-26T11:39:32Z</time>
      </trkpt>
      <trkpt lat="43.51204" lon="6.69677">
        <ele>177.3</ele>
        <time>2025-10-26T11:39:33Z</time>
      </trkpt>
      <trkpt lat="43.51204" lon="6.69677">
        <ele>177.4</ele>
        <time>2025-10-26T11:39:34Z</time>
      </trkpt>
      <trkpt lat="43.51204" lon="6.69678">
        <ele>177.4</ele>
        <time>2025-10-26T11:39:35Z</time>
      </trkpt>
      <trkpt lat="43.51204" lon="6.69679">
        <ele>177.4</ele>
        <time>2025-10-26T11:39:36Z</time>
      </trkpt>
      <trkpt lat="43.51204" lon="6.6968">
        <ele>177.5</ele>
        <time>2025-10-26T11:39:37Z</time>
      </trkpt>
      <trkpt lat="43.51204" lon="6.69681">
        <ele>177.4</ele>
        <time>2025-10-26T11:39:38Z</time>
      </trkpt>
      <trkpt lat="43.51204" lon="6.69681">
        <ele>177.3</ele>
        <time>2025-10-26T11:39:39Z</time>
      </trkpt>
      <trkpt lat="43.51204" lon="6.69682">
        <ele>177.2</ele>
        <time>2025-10-26T11:39:40Z</time>
      </trkpt>
      <trkpt lat="43.51204" lon="6.69682">
        <ele>177.1</ele>
        <time>2025-10-26T11:39:41Z</time>
      </trkpt>
      <trkpt lat="43.51204" lon="6.69683">
        <ele>177.1</ele>
        <time>2025-10-26T11:39:42Z</time>
      </trkpt>
      <trkpt lat="43.51204" lon="6.69683">
        <ele>177</ele>
        <time>2025-10-26T11:39:43Z</time>
      </trkpt>
      <trkpt lat="43.51203" lon="6.69683">
        <ele>176.8</ele>
        <time>2025-10-26T11:39:44Z</time>
      </trkpt>
      <trkpt lat="43.51203" lon="6.69684">
        <ele>176.7</ele>
        <time>2025-10-26T11:39:45Z</time>
      </trkpt>
      <trkpt lat="43.51203" lon="6.69685">
        <ele>176.7</ele>
        <time>2025-10-26T11:39:46Z</time>
      </trkpt>
      <trkpt lat="43.51203" lon="6.69686">
        <ele>176.7</ele>
        <time>2025-10-26T11:39:47Z</time>
      </trkpt>
      <trkpt lat="43.51203" lon="6.69686">
        <ele>176.7</ele>
        <time>2025-10-26T11:39:48Z</time>
      </trkpt>
      <trkpt lat="43.51204" lon="6.69687">
        <ele>176.7</ele>
        <time>2025-10-26T11:39:49Z</time>
      </trkpt>
      <trkpt lat="43.51204" lon="6.69687">
        <ele>176.6</ele>
        <time>2025-10-26T11:39:50Z</time>
      </trkpt>
      <trkpt lat="43.51205" lon="6.69688">
        <ele>176.7</ele>
        <time>2025-10-26T11:39:51Z</time>
      </trkpt>
      <trkpt lat="43.51206" lon="6.69688">
        <ele>176.7</ele>
        <time>2025-10-26T11:39:52Z</time>
      </trkpt>
      <trkpt lat="43.51206" lon="6.69689">
        <ele>176.7</ele>
        <time>2025-10-26T11:39:53Z</time>
      </trkpt>
      <trkpt lat="43.51206" lon="6.69689">
        <ele>176.7</ele>
        <time>2025-10-26T11:39:54Z</time>
      </trkpt>
      <trkpt lat="43.51207" lon="6.6969">
        <ele>176.6</ele>
        <time>2025-10-26T11:39:55Z</time>
      </trkpt>
      <trkpt lat="43.51208" lon="6.6969">
        <ele>176.6</ele>
        <time>2025-10-26T11:39:56Z</time>
      </trkpt>
      <trkpt lat="43.51208" lon="6.6969">
        <ele>176.6</ele>
        <time>2025-10-26T11:39:57Z</time>
      </trkpt>
      <trkpt lat="43.51209" lon="6.6969">
        <ele>176.7</ele>
        <time>2025-10-26T11:39:58Z</time>
      </trkpt>
      <trkpt lat="43.51209" lon="6.69691">
        <ele>176.7</ele>
        <time>2025-10-26T11:39:59Z</time>
      </trkpt>
      <trkpt lat="43.51209" lon="6.69691">
        <ele>176.8</ele>
        <time>2025-10-26T11:40:00Z</time>
      </trkpt>
      <trkpt lat="43.5121" lon="6.6969">
        <ele>176.8</ele>
        <time>2025-10-26T11:40:01Z</time>
      </trkpt>
      <trkpt lat="43.5121" lon="6.69691">
        <ele>176.8</ele>
        <time>2025-10-26T11:40:02Z</time>
      </trkpt>
      <trkpt lat="43.5121" lon="6.6969">
        <ele>176.8</ele>
        <time>2025-10-26T11:40:03Z</time>
      </trkpt>
      <trkpt lat="43.5121" lon="6.6969">
        <ele>176.8</ele>
        <time>2025-10-26T11:40:04Z</time>
      </trkpt>
      <trkpt lat="43.5121" lon="6.6969">
        <ele>176.7</ele>
        <time>2025-10-26T11:40:05Z</time>
      </trkpt>
      <trkpt lat="43.5121" lon="6.6969">
        <ele>176.7</ele>
        <time>2025-10-26T11:40:06Z</time>
      </trkpt>
      <trkpt lat="43.5121" lon="6.6969">
        <ele>176.7</ele>
        <time>2025-10-26T11:40:07Z</time>
      </trkpt>
      <trkpt lat="43.5121" lon="6.6969">
        <ele>176.7</ele>
        <time>2025-10-26T11:40:08Z</time>
      </trkpt>
      <trkpt lat="43.5121" lon="6.6969">
        <ele>176.6</ele>
        <time>2025-10-26T11:40:09Z</time>
      </trkpt>
      <trkpt lat="43.5121" lon="6.6969">
        <ele>176.6</ele>
        <time>2025-10-26T11:40:10Z</time>
      </trkpt>
      <trkpt lat="43.51211" lon="6.6969">
        <ele>176.6</ele>
        <time>2025-10-26T11:40:11Z</time>
      </trkpt>
      <trkpt lat="43.51211" lon="6.6969">
        <ele>176.6</ele>
        <time>2025-10-26T11:40:12Z</time>
      </trkpt>
      <trkpt lat="43.51211" lon="6.6969">
        <ele>176.6</ele>
        <time>2025-10-26T11:40:13Z</time>
      </trkpt>
      <trkpt lat="43.51211" lon="6.6969">
        <ele>176.6</ele>
        <time>2025-10-26T11:40:14Z</time>
      </trkpt>
      <trkpt lat="43.51211" lon="6.69689">
        <ele>176.6</ele>
        <time>2025-10-26T11:40:15Z</time>
      </trkpt>
      <trkpt lat="43.51211" lon="6.69689">
        <ele>176.5</ele>
        <time>2025-10-26T11:40:16Z</time>
      </trkpt>
      <trkpt lat="43.51211" lon="6.69689">
        <ele>176.6</ele>
        <time>2025-10-26T11:40:17Z</time>
      </trkpt>
      <trkpt lat="43.51211" lon="6.69689">
        <ele>176.6</ele>
        <time>2025-10-26T11:40:18Z</time>
      </trkpt>
      <trkpt lat="43.51211" lon="6.69689">
        <ele>176.6</ele>
        <time>2025-10-26T11:40:19Z</time>
      </trkpt>
      <trkpt lat="43.51211" lon="6.69689">
        <ele>176.6</ele>
        <time>2025-10-26T11:40:20Z</time>
      </trkpt>
      <trkpt lat="43.51211" lon="6.69689">
        <ele>176.6</ele>
        <time>2025-10-26T11:40:21Z</time>
      </trkpt>
      <trkpt lat="43.51211" lon="6.69689">
        <ele>176.6</ele>
        <time>2025-10-26T11:40:22Z</time>
      </trkpt>
      <trkpt lat="43.51212" lon="6.69689">
        <ele>176.6</ele>
        <time>2025-10-26T11:40:23Z</time>
      </trkpt>
      <trkpt lat="43.51212" lon="6.69689">
        <ele>176.6</ele>
        <time>2025-10-26T11:40:24Z</time>
      </trkpt>
      <trkpt lat="43.51212" lon="6.69689">
        <ele>176.6</ele>
        <time>2025-10-26T11:40:25Z</time>
      </trkpt>
      <trkpt lat="43.51212" lon="6.69689">
        <ele>176.6</ele>
        <time>2025-10-26T11:40:26Z</time>
      </trkpt>
      <trkpt lat="43.51212" lon="6.69689">
        <ele>176.6</ele>
        <time>2025-10-26T11:40:27Z</time>
      </trkpt>
      <trkpt lat="43.51212" lon="6.69689">
        <ele>176.6</ele>
        <time>2025-10-26T11:40:28Z</time>
      </trkpt>
      <trkpt lat="43.51212" lon="6.69689">
        <ele>176.6</ele>
        <time>2025-10-26T11:40:29Z</time>
      </trkpt>
      <trkpt lat="43.51212" lon="6.69689">
        <ele>176.5</ele>
        <time>2025-10-26T11:40:30Z</time>
      </trkpt>
      <trkpt lat="43.51212" lon="6.69689">
        <ele>176.5</ele>
        <time>2025-10-26T11:40:31Z</time>
      </trkpt>
      <trkpt lat="43.51212" lon="6.69688">
        <ele>176.5</ele>
        <time>2025-10-26T11:40:32Z</time>
      </trkpt>
      <trkpt lat="43.51212" lon="6.69688">
        <ele>176.5</ele>
        <time>2025-10-26T11:40:33Z</time>
      </trkpt>
      <trkpt lat="43.51212" lon="6.69688">
        <ele>176.5</ele>
        <time>2025-10-26T11:40:34Z</time>
      </trkpt>
      <trkpt lat="43.51212" lon="6.69688">
        <ele>176.6</ele>
        <time>2025-10-26T11:40:35Z</time>
      </trkpt>
      <trkpt lat="43.51212" lon="6.69688">
        <ele>176.6</ele>
        <time>2025-10-26T11:40:36Z</time>
      </trkpt>
      <trkpt lat="43.51212" lon="6.69688">
        <ele>176.7</ele>
        <time>2025-10-26T11:40:37Z</time>
      </trkpt>
      <trkpt lat="43.51212" lon="6.69688">
        <ele>176.7</ele>
        <time>2025-10-26T11:40:38Z</time>
      </trkpt>
      <trkpt lat="43.51212" lon="6.69689">
        <ele>176.7</ele>
        <time>2025-10-26T11:40:39Z</time>
      </trkpt>
      <trkpt lat="43.51212" lon="6.69689">
        <ele>176.7</ele>
        <time>2025-10-26T11:40:40Z</time>
      </trkpt>
      <trkpt lat="43.51212" lon="6.69689">
        <ele>176.7</ele>
        <time>2025-10-26T11:40:41Z</time>
      </trkpt>
      <trkpt lat="43.51212" lon="6.69689">
        <ele>176.7</ele>
        <time>2025-10-26T11:40:42Z</time>
      </trkpt>
      <trkpt lat="43.51212" lon="6.69689">
        <ele>176.8</ele>
        <time>2025-10-26T11:40:43Z</time>
      </trkpt>
      <trkpt lat="43.51212" lon="6.69689">
        <ele>176.8</ele>
        <time>2025-10-26T11:40:44Z</time>
      </trkpt>
      <trkpt lat="43.51212" lon="6.69689">
        <ele>176.8</ele>
        <time>2025-10-26T11:40:45Z</time>
      </trkpt>
      <trkpt lat="43.51212" lon="6.69689">
        <ele>176.8</ele>
        <time>2025-10-26T11:40:46Z</time>
      </trkpt>
      <trkpt lat="43.51212" lon="6.69688">
        <ele>176.8</ele>
        <time>2025-10-26T11:40:47Z</time>
      </trkpt>
      <trkpt lat="43.51212" lon="6.69688">
        <ele>176.9</ele>
        <time>2025-10-26T11:40:48Z</time>
      </trkpt>
      <trkpt lat="43.51212" lon="6.69688">
        <ele>176.8</ele>
        <time>2025-10-26T11:40:49Z</time>
      </trkpt>
      <trkpt lat="43.51212" lon="6.69688">
        <ele>176.8</ele>
        <time>2025-10-26T11:40:50Z</time>
      </trkpt>
      <trkpt lat="43.51212" lon="6.69688">
        <ele>176.7</ele>
        <time>2025-10-26T11:40:51Z</time>
      </trkpt>
      <trkpt lat="43.51212" lon="6.69688">
        <ele>176.6</ele>
        <time>2025-10-26T11:40:52Z</time>
      </trkpt>
      <trkpt lat="43.51212" lon="6.69688">
        <ele>176.5</ele>
        <time>2025-10-26T11:40:53Z</time>
      </trkpt>
      <trkpt lat="43.51212" lon="6.69688">
        <ele>176.5</ele>
        <time>2025-10-26T11:40:54Z</time>
      </trkpt>
      <trkpt lat="43.51212" lon="6.69688">
        <ele>176.5</ele>
        <time>2025-10-26T11:40:55Z</time>
      </trkpt>
      <trkpt lat="43.51212" lon="6.69688">
        <ele>176.4</ele>
        <time>2025-10-26T11:40:56Z</time>
      </trkpt>
      <trkpt lat="43.51212" lon="6.69688">
        <ele>176.4</ele>
        <time>2025-10-26T11:40:57Z</time>
      </trkpt>
      <trkpt lat="43.51212" lon="6.69689">
        <ele>176.4</ele>
        <time>2025-10-26T11:40:58Z</time>
      </trkpt>
      <trkpt lat="43.51212" lon="6.69688">
        <ele>176.4</ele>
        <time>2025-10-26T11:40:59Z</time>
      </trkpt>
      <trkpt lat="43.51213" lon="6.69689">
        <ele>176.4</ele>
        <time>2025-10-26T11:41:00Z</time>
      </trkpt>
      <trkpt lat="43.51213" lon="6.69689">
        <ele>176.3</ele>
        <time>2025-10-26T11:41:01Z</time>
      </trkpt>
      <trkpt lat="43.51213" lon="6.69689">
        <ele>176.4</ele>
        <time>2025-10-26T11:41:02Z</time>
      </trkpt>
      <trkpt lat="43.51213" lon="6.69689">
        <ele>176.5</ele>
        <time>2025-10-26T11:41:03Z</time>
      </trkpt>
      <trkpt lat="43.51213" lon="6.69689">
        <ele>176.6</ele>
        <time>2025-10-26T11:41:04Z</time>
      </trkpt>
      <trkpt lat="43.51213" lon="6.69689">
        <ele>176.7</ele>
        <time>2025-10-26T11:41:05Z</time>
      </trkpt>
      <trkpt lat="43.51213" lon="6.69689">
        <ele>176.7</ele>
        <time>2025-10-26T11:41:06Z</time>
      </trkpt>
      <trkpt lat="43.51213" lon="6.69689">
        <ele>176.7</ele>
        <time>2025-10-26T11:41:07Z</time>
      </trkpt>
      <trkpt lat="43.51213" lon="6.69689">
        <ele>176.8</ele>
        <time>2025-10-26T11:41:08Z</time>
      </trkpt>
      <trkpt lat="43.51213" lon="6.69689">
        <ele>176.7</ele>
        <time>2025-10-26T11:41:09Z</time>
      </trkpt>
      <trkpt lat="43.51213" lon="6.69689">
        <ele>176.7</ele>
        <time>2025-10-26T11:41:10Z</time>
      </trkpt>
      <trkpt lat="43.51213" lon="6.69689">
        <ele>176.7</ele>
        <time>2025-10-26T11:41:11Z</time>
      </trkpt>
      <trkpt lat="43.51213" lon="6.69689">
        <ele>176.7</ele>
        <time>2025-10-26T11:41:12Z</time>
      </trkpt>
      <trkpt lat="43.51213" lon="6.69689">
        <ele>176.6</ele>
        <time>2025-10-26T11:41:13Z</time>
      </trkpt>
      <trkpt lat="43.51213" lon="6.69689">
        <ele>176.6</ele>
        <time>2025-10-26T11:41:14Z</time>
      </trkpt>
      <trkpt lat="43.51213" lon="6.69689">
        <ele>176.6</ele>
        <time>2025-10-26T11:41:15Z</time>
      </trkpt>
      <trkpt lat="43.51213" lon="6.69689">
        <ele>176.6</ele>
        <time>2025-10-26T11:41:16Z</time>
      </trkpt>
      <trkpt lat="43.51213" lon="6.69689">
        <ele>176.6</ele>
        <time>2025-10-26T11:41:17Z</time>
      </trkpt>
      <trkpt lat="43.51213" lon="6.69689">
        <ele>176.6</ele>
        <time>2025-10-26T11:41:18Z</time>
      </trkpt>
      <trkpt lat="43.51213" lon="6.69689">
        <ele>176.7</ele>
        <time>2025-10-26T11:41:19Z</time>
      </trkpt>
      <trkpt lat="43.51213" lon="6.69689">
        <ele>176.7</ele>
        <time>2025-10-26T11:41:20Z</time>
      </trkpt>
      <trkpt lat="43.51213" lon="6.69689">
        <ele>176.7</ele>
        <time>2025-10-26T11:41:21Z</time>
      </trkpt>
      <trkpt lat="43.51213" lon="6.69689">
        <ele>176.8</ele>
        <time>2025-10-26T11:41:22Z</time>
      </trkpt>
      <trkpt lat="43.51213" lon="6.69689">
        <ele>176.8</ele>
        <time>2025-10-26T11:41:23Z</time>
      </trkpt>
      <trkpt lat="43.51213" lon="6.69689">
        <ele>176.9</ele>
        <time>2025-10-26T11:41:24Z</time>
      </trkpt>
      <trkpt lat="43.51213" lon="6.6969">
        <ele>176.9</ele>
        <time>2025-10-26T11:41:25Z</time>
      </trkpt>
      <trkpt lat="43.51213" lon="6.69691">
        <ele>176.8</ele>
        <time>2025-10-26T11:41:26Z</time>
      </trkpt>
      <trkpt lat="43.51213" lon="6.69691">
        <ele>176.8</ele>
        <time>2025-10-26T11:41:27Z</time>
      </trkpt>
      <trkpt lat="43.51213" lon="6.69692">
        <ele>176.7</ele>
        <time>2025-10-26T11:41:28Z</time>
      </trkpt>
      <trkpt lat="43.51212" lon="6.69693">
        <ele>176.7</ele>
        <time>2025-10-26T11:41:29Z</time>
      </trkpt>
      <trkpt lat="43.51212" lon="6.69693">
        <ele>176.6</ele>
        <time>2025-10-26T11:41:30Z</time>
      </trkpt>
      <trkpt lat="43.51212" lon="6.69694">
        <ele>176.5</ele>
        <time>2025-10-26T11:41:31Z</time>
      </trkpt>
      <trkpt lat="43.51212" lon="6.69695">
        <ele>176.4</ele>
        <time>2025-10-26T11:41:32Z</time>
      </trkpt>
      <trkpt lat="43.51212" lon="6.69696">
        <ele>176.4</ele>
        <time>2025-10-26T11:41:33Z</time>
      </trkpt>
      <trkpt lat="43.51211" lon="6.69697">
        <ele>176.3</ele>
        <time>2025-10-26T11:41:34Z</time>
      </trkpt>
      <trkpt lat="43.51211" lon="6.69698">
        <ele>176.3</ele>
        <time>2025-10-26T11:41:35Z</time>
      </trkpt>
      <trkpt lat="43.51211" lon="6.69699">
        <ele>176.2</ele>
        <time>2025-10-26T11:41:36Z</time>
      </trkpt>
      <trkpt lat="43.5121" lon="6.69699">
        <ele>176.2</ele>
        <time>2025-10-26T11:41:37Z</time>
      </trkpt>
      <trkpt lat="43.5121" lon="6.697">
        <ele>176</ele>
        <time>2025-10-26T11:41:38Z</time>
      </trkpt>
      <trkpt lat="43.51211" lon="6.69701">
        <ele>176</ele>
        <time>2025-10-26T11:41:39Z</time>
      </trkpt>
      <trkpt lat="43.51211" lon="6.69702">
        <ele>176</ele>
        <time>2025-10-26T11:41:40Z</time>
      </trkpt>
      <trkpt lat="43.51212" lon="6.69703">
        <ele>175.9</ele>
        <time>2025-10-26T11:41:41Z</time>
      </trkpt>
      <trkpt lat="43.51212" lon="6.69705">
        <ele>176</ele>
        <time>2025-10-26T11:41:42Z</time>
      </trkpt>
      <trkpt lat="43.51212" lon="6.69706">
        <ele>176</ele>
        <time>2025-10-26T11:41:43Z</time>
      </trkpt>
      <trkpt lat="43.51211" lon="6.69707">
        <ele>176</ele>
        <time>2025-10-26T11:41:44Z</time>
      </trkpt>
      <trkpt lat="43.51211" lon="6.69709">
        <ele>176.2</ele>
        <time>2025-10-26T11:41:45Z</time>
      </trkpt>
      <trkpt lat="43.51211" lon="6.69709">
        <ele>176.3</ele>
        <time>2025-10-26T11:41:46Z</time>
      </trkpt>
      <trkpt lat="43.5121" lon="6.69709">
        <ele>176.4</ele>
        <time>2025-10-26T11:41:47Z</time>
      </trkpt>
      <trkpt lat="43.51209" lon="6.69709">
        <ele>176.5</ele>
        <time>2025-10-26T11:41:48Z</time>
      </trkpt>
      <trkpt lat="43.51209" lon="6.6971">
        <ele>176.5</ele>
        <time>2025-10-26T11:41:49Z</time>
      </trkpt>
      <trkpt lat="43.51208" lon="6.69711">
        <ele>176.5</ele>
        <time>2025-10-26T11:41:50Z</time>
      </trkpt>
      <trkpt lat="43.51208" lon="6.69712">
        <ele>176.6</ele>
        <time>2025-10-26T11:41:51Z</time>
      </trkpt>
      <trkpt lat="43.51208" lon="6.69713">
        <ele>176.7</ele>
        <time>2025-10-26T11:41:52Z</time>
      </trkpt>
      <trkpt lat="43.51208" lon="6.69714">
        <ele>176.7</ele>
        <time>2025-10-26T11:41:53Z</time>
      </trkpt>
      <trkpt lat="43.51207" lon="6.69714">
        <ele>176.7</ele>
        <time>2025-10-26T11:41:54Z</time>
      </trkpt>
      <trkpt lat="43.51206" lon="6.69714">
        <ele>176.8</ele>
        <time>2025-10-26T11:41:55Z</time>
      </trkpt>
      <trkpt lat="43.51205" lon="6.69715">
        <ele>176.8</ele>
        <time>2025-10-26T11:41:56Z</time>
      </trkpt>
      <trkpt lat="43.51204" lon="6.69715">
        <ele>176.8</ele>
        <time>2025-10-26T11:41:57Z</time>
      </trkpt>
      <trkpt lat="43.51204" lon="6.69715">
        <ele>176.8</ele>
        <time>2025-10-26T11:41:58Z</time>
      </trkpt>
      <trkpt lat="43.51203" lon="6.69716">
        <ele>176.8</ele>
        <time>2025-10-26T11:41:59Z</time>
      </trkpt>
      <trkpt lat="43.51202" lon="6.69716">
        <ele>176.9</ele>
        <time>2025-10-26T11:42:00Z</time>
      </trkpt>
      <trkpt lat="43.51202" lon="6.69717">
        <ele>176.9</ele>
        <time>2025-10-26T11:42:01Z</time>
      </trkpt>
      <trkpt lat="43.51201" lon="6.69717">
        <ele>176.9</ele>
        <time>2025-10-26T11:42:02Z</time>
      </trkpt>
      <trkpt lat="43.51201" lon="6.69717">
        <ele>177</ele>
        <time>2025-10-26T11:42:03Z</time>
      </trkpt>
      <trkpt lat="43.512" lon="6.69718">
        <ele>177</ele>
        <time>2025-10-26T11:42:04Z</time>
      </trkpt>
      <trkpt lat="43.512" lon="6.69718">
        <ele>177</ele>
        <time>2025-10-26T11:42:05Z</time>
      </trkpt>
      <trkpt lat="43.512" lon="6.69719">
        <ele>177</ele>
        <time>2025-10-26T11:42:06Z</time>
      </trkpt>
      <trkpt lat="43.512" lon="6.6972">
        <ele>177</ele>
        <time>2025-10-26T11:42:07Z</time>
      </trkpt>
      <trkpt lat="43.512" lon="6.69721">
        <ele>177</ele>
        <time>2025-10-26T11:42:08Z</time>
      </trkpt>
      <trkpt lat="43.512" lon="6.69722">
        <ele>177</ele>
        <time>2025-10-26T11:42:09Z</time>
      </trkpt>
      <trkpt lat="43.512" lon="6.69722">
        <ele>176.9</ele>
        <time>2025-10-26T11:42:10Z</time>
      </trkpt>
      <trkpt lat="43.512" lon="6.69723">
        <ele>176.9</ele>
        <time>2025-10-26T11:42:11Z</time>
      </trkpt>
      <trkpt lat="43.512" lon="6.69723">
        <ele>176.8</ele>
        <time>2025-10-26T11:42:12Z</time>
      </trkpt>
      <trkpt lat="43.512" lon="6.69724">
        <ele>176.8</ele>
        <time>2025-10-26T11:42:13Z</time>
      </trkpt>
      <trkpt lat="43.512" lon="6.69724">
        <ele>176.8</ele>
        <time>2025-10-26T11:42:14Z</time>
      </trkpt>
      <trkpt lat="43.512" lon="6.69724">
        <ele>176.8</ele>
        <time>2025-10-26T11:42:15Z</time>
      </trkpt>
      <trkpt lat="43.512" lon="6.69724">
        <ele>176.8</ele>
        <time>2025-10-26T11:42:16Z</time>
      </trkpt>
      <trkpt lat="43.512" lon="6.69725">
        <ele>176.8</ele>
        <time>2025-10-26T11:42:17Z</time>
      </trkpt>
      <trkpt lat="43.512" lon="6.69725">
        <ele>176.8</ele>
        <time>2025-10-26T11:42:18Z</time>
      </trkpt>
      <trkpt lat="43.512" lon="6.69725">
        <ele>176.8</ele>
        <time>2025-10-26T11:42:19Z</time>
      </trkpt>
      <trkpt lat="43.512" lon="6.69725">
        <ele>176.8</ele>
        <time>2025-10-26T11:42:20Z</time>
      </trkpt>
      <trkpt lat="43.512" lon="6.69725">
        <ele>176.8</ele>
        <time>2025-10-26T11:42:21Z</time>
      </trkpt>
      <trkpt lat="43.512" lon="6.69726">
        <ele>176.9</ele>
        <time>2025-10-26T11:42:22Z</time>
      </trkpt>
      <trkpt lat="43.512" lon="6.69726">
        <ele>176.9</ele>
        <time>2025-10-26T11:42:23Z</time>
      </trkpt>
      <trkpt lat="43.512" lon="6.69726">
        <ele>176.9</ele>
        <time>2025-10-26T11:42:24Z</time>
      </trkpt>
      <trkpt lat="43.512" lon="6.69726">
        <ele>177</ele>
        <time>2025-10-26T11:42:25Z</time>
      </trkpt>
      <trkpt lat="43.512" lon="6.69726">
        <ele>177</ele>
        <time>2025-10-26T11:42:26Z</time>
      </trkpt>
      <trkpt lat="43.51199" lon="6.69726">
        <ele>177</ele>
        <time>2025-10-26T11:42:27Z</time>
      </trkpt>
      <trkpt lat="43.51199" lon="6.69726">
        <ele>176.9</ele>
        <time>2025-10-26T11:42:28Z</time>
      </trkpt>
      <trkpt lat="43.51199" lon="6.69726">
        <ele>176.8</ele>
        <time>2025-10-26T11:42:29Z</time>
      </trkpt>
      <trkpt lat="43.51199" lon="6.69726">
        <ele>176.7</ele>
        <time>2025-10-26T11:42:30Z</time>
      </trkpt>
      <trkpt lat="43.51198" lon="6.69726">
        <ele>176.6</ele>
        <time>2025-10-26T11:42:31Z</time>
      </trkpt>
      <trkpt lat="43.51198" lon="6.69725">
        <ele>176.5</ele>
        <time>2025-10-26T11:42:32Z</time>
      </trkpt>
      <trkpt lat="43.51197" lon="6.69725">
        <ele>176.4</ele>
        <time>2025-10-26T11:42:33Z</time>
      </trkpt>
      <trkpt lat="43.51197" lon="6.69726">
        <ele>176.4</ele>
        <time>2025-10-26T11:42:34Z</time>
      </trkpt>
      <trkpt lat="43.51196" lon="6.69726">
        <ele>176.4</ele>
        <time>2025-10-26T11:42:35Z</time>
      </trkpt>
      <trkpt lat="43.51195" lon="6.69727">
        <ele>176.4</ele>
        <time>2025-10-26T11:42:36Z</time>
      </trkpt>
      <trkpt lat="43.51195" lon="6.69727">
        <ele>176.2</ele>
        <time>2025-10-26T11:42:37Z</time>
      </trkpt>
      <trkpt lat="43.51194" lon="6.69727">
        <ele>176.3</ele>
        <time>2025-10-26T11:42:38Z</time>
      </trkpt>
      <trkpt lat="43.51193" lon="6.69728">
        <ele>176.3</ele>
        <time>2025-10-26T11:42:39Z</time>
      </trkpt>
      <trkpt lat="43.51192" lon="6.69728">
        <ele>176.5</ele>
        <time>2025-10-26T11:42:40Z</time>
      </trkpt>
      <trkpt lat="43.51192" lon="6.69729">
        <ele>176.9</ele>
        <time>2025-10-26T11:42:41Z</time>
      </trkpt>
      <trkpt lat="43.51191" lon="6.69729">
        <ele>176.9</ele>
        <time>2025-10-26T11:42:42Z</time>
      </trkpt>
      <trkpt lat="43.5119" lon="6.69729">
        <ele>176.7</ele>
        <time>2025-10-26T11:42:43Z</time>
      </trkpt>
      <trkpt lat="43.51189" lon="6.6973">
        <ele>176.6</ele>
        <time>2025-10-26T11:42:44Z</time>
      </trkpt>
      <trkpt lat="43.51189" lon="6.6973">
        <ele>176.4</ele>
        <time>2025-10-26T11:42:45Z</time>
      </trkpt>
      <trkpt lat="43.51188" lon="6.69731">
        <ele>176.3</ele>
        <time>2025-10-26T11:42:46Z</time>
      </trkpt>
      <trkpt lat="43.51187" lon="6.69731">
        <ele>176.2</ele>
        <time>2025-10-26T11:42:47Z</time>
      </trkpt>
      <trkpt lat="43.51186" lon="6.69732">
        <ele>176</ele>
        <time>2025-10-26T11:42:48Z</time>
      </trkpt>
      <trkpt lat="43.51185" lon="6.69732">
        <ele>175.9</ele>
        <time>2025-10-26T11:42:49Z</time>
      </trkpt>
      <trkpt lat="43.51184" lon="6.69732">
        <ele>175.8</ele>
        <time>2025-10-26T11:42:50Z</time>
      </trkpt>
      <trkpt lat="43.51183" lon="6.69733">
        <ele>175.7</ele>
        <time>2025-10-26T11:42:51Z</time>
      </trkpt>
      <trkpt lat="43.51183" lon="6.69733">
        <ele>175.6</ele>
        <time>2025-10-26T11:42:52Z</time>
      </trkpt>
      <trkpt lat="43.51182" lon="6.69733">
        <ele>175.7</ele>
        <time>2025-10-26T11:42:53Z</time>
      </trkpt>
      <trkpt lat="43.51181" lon="6.69734">
        <ele>175.8</ele>
        <time>2025-10-26T11:42:54Z</time>
      </trkpt>
      <trkpt lat="43.51181" lon="6.69735">
        <ele>175.8</ele>
        <time>2025-10-26T11:42:55Z</time>
      </trkpt>
      <trkpt lat="43.5118" lon="6.69736">
        <ele>175.8</ele>
        <time>2025-10-26T11:42:56Z</time>
      </trkpt>
      <trkpt lat="43.5118" lon="6.69736">
        <ele>175.8</ele>
        <time>2025-10-26T11:42:57Z</time>
      </trkpt>
      <trkpt lat="43.51179" lon="6.69737">
        <ele>175.9</ele>
        <time>2025-10-26T11:42:58Z</time>
      </trkpt>
      <trkpt lat="43.51178" lon="6.69737">
        <ele>175.8</ele>
        <time>2025-10-26T11:42:59Z</time>
      </trkpt>
      <trkpt lat="43.51178" lon="6.69738">
        <ele>175.7</ele>
        <time>2025-10-26T11:43:00Z</time>
      </trkpt>
      <trkpt lat="43.51177" lon="6.69738">
        <ele>175.7</ele>
        <time>2025-10-26T11:43:01Z</time>
      </trkpt>
      <trkpt lat="43.51177" lon="6.69739">
        <ele>175.6</ele>
        <time>2025-10-26T11:43:02Z</time>
      </trkpt>
      <trkpt lat="43.51176" lon="6.6974">
        <ele>175.7</ele>
        <time>2025-10-26T11:43:03Z</time>
      </trkpt>
      <trkpt lat="43.51175" lon="6.69741">
        <ele>175.7</ele>
        <time>2025-10-26T11:43:04Z</time>
      </trkpt>
      <trkpt lat="43.51175" lon="6.69742">
        <ele>175.8</ele>
        <time>2025-10-26T11:43:05Z</time>
      </trkpt>
      <trkpt lat="43.51174" lon="6.69742">
        <ele>175.9</ele>
        <time>2025-10-26T11:43:06Z</time>
      </trkpt>
      <trkpt lat="43.51174" lon="6.69743">
        <ele>175.9</ele>
        <time>2025-10-26T11:43:07Z</time>
      </trkpt>
      <trkpt lat="43.51173" lon="6.69745">
        <ele>175.9</ele>
        <time>2025-10-26T11:43:08Z</time>
      </trkpt>
      <trkpt lat="43.51173" lon="6.69745">
        <ele>176.1</ele>
        <time>2025-10-26T11:43:09Z</time>
      </trkpt>
      <trkpt lat="43.51173" lon="6.69746">
        <ele>176.3</ele>
        <time>2025-10-26T11:43:10Z</time>
      </trkpt>
      <trkpt lat="43.51173" lon="6.69747">
        <ele>176.5</ele>
        <time>2025-10-26T11:43:11Z</time>
      </trkpt>
      <trkpt lat="43.51172" lon="6.69748">
        <ele>176.7</ele>
        <time>2025-10-26T11:43:12Z</time>
      </trkpt>
      <trkpt lat="43.51172" lon="6.69749">
        <ele>176.8</ele>
        <time>2025-10-26T11:43:13Z</time>
      </trkpt>
      <trkpt lat="43.51172" lon="6.6975">
        <ele>176.9</ele>
        <time>2025-10-26T11:43:14Z</time>
      </trkpt>
      <trkpt lat="43.51171" lon="6.69751">
        <ele>177.1</ele>
        <time>2025-10-26T11:43:15Z</time>
      </trkpt>
      <trkpt lat="43.51171" lon="6.69752">
        <ele>177.3</ele>
        <time>2025-10-26T11:43:16Z</time>
      </trkpt>
      <trkpt lat="43.5117" lon="6.69752">
        <ele>177.3</ele>
        <time>2025-10-26T11:43:17Z</time>
      </trkpt>
      <trkpt lat="43.5117" lon="6.69753">
        <ele>177.4</ele>
        <time>2025-10-26T11:43:18Z</time>
      </trkpt>
      <trkpt lat="43.5117" lon="6.69754">
        <ele>177.4</ele>
        <time>2025-10-26T11:43:19Z</time>
      </trkpt>
      <trkpt lat="43.5117" lon="6.69754">
        <ele>177.5</ele>
        <time>2025-10-26T11:43:20Z</time>
      </trkpt>
      <trkpt lat="43.51171" lon="6.69755">
        <ele>177.6</ele>
        <time>2025-10-26T11:43:21Z</time>
      </trkpt>
      <trkpt lat="43.51171" lon="6.69755">
        <ele>177.6</ele>
        <time>2025-10-26T11:43:22Z</time>
      </trkpt>
      <trkpt lat="43.51171" lon="6.69756">
        <ele>177.7</ele>
        <time>2025-10-26T11:43:23Z</time>
      </trkpt>
      <trkpt lat="43.51171" lon="6.69756">
        <ele>177.8</ele>
        <time>2025-10-26T11:43:24Z</time>
      </trkpt>
      <trkpt lat="43.51171" lon="6.69757">
        <ele>177.9</ele>
        <time>2025-10-26T11:43:25Z</time>
      </trkpt>
      <trkpt lat="43.51172" lon="6.69757">
        <ele>177.9</ele>
        <time>2025-10-26T11:43:26Z</time>
      </trkpt>
      <trkpt lat="43.51172" lon="6.69758">
        <ele>178</ele>
        <time>2025-10-26T11:43:27Z</time>
      </trkpt>
      <trkpt lat="43.51172" lon="6.69758">
        <ele>177.9</ele>
        <time>2025-10-26T11:43:28Z</time>
      </trkpt>
      <trkpt lat="43.51172" lon="6.69759">
        <ele>177.8</ele>
        <time>2025-10-26T11:43:29Z</time>
      </trkpt>
      <trkpt lat="43.51172" lon="6.69759">
        <ele>177.8</ele>
        <time>2025-10-26T11:43:30Z</time>
      </trkpt>
      <trkpt lat="43.51172" lon="6.69759">
        <ele>177.8</ele>
        <time>2025-10-26T11:43:31Z</time>
      </trkpt>
      <trkpt lat="43.51172" lon="6.6976">
        <ele>177.7</ele>
        <time>2025-10-26T11:43:32Z</time>
      </trkpt>
      <trkpt lat="43.51172" lon="6.6976">
        <ele>177.7</ele>
        <time>2025-10-26T11:43:33Z</time>
      </trkpt>
      <trkpt lat="43.51172" lon="6.6976">
        <ele>177.7</ele>
        <time>2025-10-26T11:43:34Z</time>
      </trkpt>
      <trkpt lat="43.51172" lon="6.6976">
        <ele>177.7</ele>
        <time>2025-10-26T11:43:35Z</time>
      </trkpt>
      <trkpt lat="43.51172" lon="6.6976">
        <ele>177.6</ele>
        <time>2025-10-26T11:43:36Z</time>
      </trkpt>
      <trkpt lat="43.51171" lon="6.6976">
        <ele>177.6</ele>
        <time>2025-10-26T11:43:37Z</time>
      </trkpt>
      <trkpt lat="43.51172" lon="6.69761">
        <ele>177.5</ele>
        <time>2025-10-26T11:43:38Z</time>
      </trkpt>
      <trkpt lat="43.51172" lon="6.69761">
        <ele>177.5</ele>
        <time>2025-10-26T11:43:39Z</time>
      </trkpt>
      <trkpt lat="43.51171" lon="6.69761">
        <ele>177.4</ele>
        <time>2025-10-26T11:43:40Z</time>
      </trkpt>
      <trkpt lat="43.51171" lon="6.69761">
        <ele>177.4</ele>
        <time>2025-10-26T11:43:41Z</time>
      </trkpt>
      <trkpt lat="43.51172" lon="6.6976">
        <ele>177.6</ele>
        <time>2025-10-26T11:43:42Z</time>
      </trkpt>
      <trkpt lat="43.51171" lon="6.6976">
        <ele>177.6</ele>
        <time>2025-10-26T11:43:43Z</time>
      </trkpt>
      <trkpt lat="43.51171" lon="6.69761">
        <ele>177.5</ele>
        <time>2025-10-26T11:43:44Z</time>
      </trkpt>
      <trkpt lat="43.51171" lon="6.69761">
        <ele>177.5</ele>
        <time>2025-10-26T11:43:45Z</time>
      </trkpt>
      <trkpt lat="43.5117" lon="6.69762">
        <ele>177.6</ele>
        <time>2025-10-26T11:43:46Z</time>
      </trkpt>
      <trkpt lat="43.5117" lon="6.69763">
        <ele>177.6</ele>
        <time>2025-10-26T11:43:47Z</time>
      </trkpt>
      <trkpt lat="43.5117" lon="6.69763">
        <ele>177.7</ele>
        <time>2025-10-26T11:43:48Z</time>
      </trkpt>
      <trkpt lat="43.51171" lon="6.69764">
        <ele>177.7</ele>
        <time>2025-10-26T11:43:49Z</time>
      </trkpt>
      <trkpt lat="43.51171" lon="6.69764">
        <ele>177.7</ele>
        <time>2025-10-26T11:43:50Z</time>
      </trkpt>
      <trkpt lat="43.51171" lon="6.69764">
        <ele>178</ele>
        <time>2025-10-26T11:43:51Z</time>
      </trkpt>
      <trkpt lat="43.51171" lon="6.69765">
        <ele>178.2</ele>
        <time>2025-10-26T11:43:52Z</time>
      </trkpt>
      <trkpt lat="43.51171" lon="6.69765">
        <ele>178.1</ele>
        <time>2025-10-26T11:43:53Z</time>
      </trkpt>
      <trkpt lat="43.51171" lon="6.69765">
        <ele>178.2</ele>
        <time>2025-10-26T11:43:54Z</time>
      </trkpt>
      <trkpt lat="43.51171" lon="6.69765">
        <ele>178.2</ele>
        <time>2025-10-26T11:43:55Z</time>
      </trkpt>
      <trkpt lat="43.51171" lon="6.69766">
        <ele>178.3</ele>
        <time>2025-10-26T11:43:56Z</time>
      </trkpt>
      <trkpt lat="43.51171" lon="6.69766">
        <ele>178.5</ele>
        <time>2025-10-26T11:43:57Z</time>
      </trkpt>
      <trkpt lat="43.51171" lon="6.69766">
        <ele>178.5</ele>
        <time>2025-10-26T11:43:58Z</time>
      </trkpt>
      <trkpt lat="43.51171" lon="6.69766">
        <ele>178.7</ele>
        <time>2025-10-26T11:43:59Z</time>
      </trkpt>
      <trkpt lat="43.51172" lon="6.69766">
        <ele>178.8</ele>
        <time>2025-10-26T11:44:00Z</time>
      </trkpt>
      <trkpt lat="43.51172" lon="6.69766">
        <ele>178.9</ele>
        <time>2025-10-26T11:44:01Z</time>
      </trkpt>
      <trkpt lat="43.51172" lon="6.69767">
        <ele>179</ele>
        <time>2025-10-26T11:44:02Z</time>
      </trkpt>
      <trkpt lat="43.51172" lon="6.69767">
        <ele>179</ele>
        <time>2025-10-26T11:44:03Z</time>
      </trkpt>
      <trkpt lat="43.51172" lon="6.69767">
        <ele>179</ele>
        <time>2025-10-26T11:44:04Z</time>
      </trkpt>
      <trkpt lat="43.51172" lon="6.69767">
        <ele>179.1</ele>
        <time>2025-10-26T11:44:05Z</time>
      </trkpt>
      <trkpt lat="43.51172" lon="6.69767">
        <ele>179</ele>
        <time>2025-10-26T11:44:06Z</time>
      </trkpt>
      <trkpt lat="43.51172" lon="6.69766">
        <ele>179</ele>
        <time>2025-10-26T11:44:07Z</time>
      </trkpt>
      <trkpt lat="43.51172" lon="6.69766">
        <ele>178.9</ele>
        <time>2025-10-26T11:44:08Z</time>
      </trkpt>
      <trkpt lat="43.51172" lon="6.69766">
        <ele>179</ele>
        <time>2025-10-26T11:44:09Z</time>
      </trkpt>
      <trkpt lat="43.51172" lon="6.69766">
        <ele>178.9</ele>
        <time>2025-10-26T11:44:10Z</time>
      </trkpt>
      <trkpt lat="43.51172" lon="6.69766">
        <ele>178.9</ele>
        <time>2025-10-26T11:44:11Z</time>
      </trkpt>
      <trkpt lat="43.51172" lon="6.69766">
        <ele>178.8</ele>
        <time>2025-10-26T11:44:12Z</time>
      </trkpt>
      <trkpt lat="43.51173" lon="6.69766">
        <ele>178.8</ele>
        <time>2025-10-26T11:44:13Z</time>
      </trkpt>
      <trkpt lat="43.51173" lon="6.69766">
        <ele>178.8</ele>
        <time>2025-10-26T11:44:14Z</time>
      </trkpt>
      <trkpt lat="43.51173" lon="6.69765">
        <ele>178.8</ele>
        <time>2025-10-26T11:44:15Z</time>
      </trkpt>
      <trkpt lat="43.51173" lon="6.69766">
        <ele>178.7</ele>
        <time>2025-10-26T11:44:16Z</time>
      </trkpt>
      <trkpt lat="43.51173" lon="6.69766">
        <ele>178.7</ele>
        <time>2025-10-26T11:44:17Z</time>
      </trkpt>
      <trkpt lat="43.51173" lon="6.69765">
        <ele>178.7</ele>
        <time>2025-10-26T11:44:18Z</time>
      </trkpt>
      <trkpt lat="43.51173" lon="6.69765">
        <ele>178.7</ele>
        <time>2025-10-26T11:44:19Z</time>
      </trkpt>
      <trkpt lat="43.51173" lon="6.69765">
        <ele>178.8</ele>
        <time>2025-10-26T11:44:20Z</time>
      </trkpt>
      <trkpt lat="43.51173" lon="6.69765">
        <ele>178.8</ele>
        <time>2025-10-26T11:44:21Z</time>
      </trkpt>
      <trkpt lat="43.51173" lon="6.69765">
        <ele>178.9</ele>
        <time>2025-10-26T11:44:22Z</time>
      </trkpt>
      <trkpt lat="43.51173" lon="6.69765">
        <ele>178.9</ele>
        <time>2025-10-26T11:44:23Z</time>
      </trkpt>
      <trkpt lat="43.51172" lon="6.69765">
        <ele>178.9</ele>
        <time>2025-10-26T11:44:24Z</time>
      </trkpt>
      <trkpt lat="43.51172" lon="6.69765">
        <ele>179</ele>
        <time>2025-10-26T11:44:25Z</time>
      </trkpt>
      <trkpt lat="43.51172" lon="6.69764">
        <ele>178.8</ele>
        <time>2025-10-26T11:44:26Z</time>
      </trkpt>
      <trkpt lat="43.51172" lon="6.69764">
        <ele>178.7</ele>
        <time>2025-10-26T11:44:27Z</time>
      </trkpt>
      <trkpt lat="43.51172" lon="6.69764">
        <ele>178.6</ele>
        <time>2025-10-26T11:44:28Z</time>
      </trkpt>
      <trkpt lat="43.51172" lon="6.69764">
        <ele>178.5</ele>
        <time>2025-10-26T11:44:29Z</time>
      </trkpt>
      <trkpt lat="43.51172" lon="6.69764">
        <ele>178.5</ele>
        <time>2025-10-26T11:44:30Z</time>
      </trkpt>
      <trkpt lat="43.51172" lon="6.69764">
        <ele>178.5</ele>
        <time>2025-10-26T11:44:31Z</time>
      </trkpt>
      <trkpt lat="43.51172" lon="6.69763">
        <ele>178.7</ele>
        <time>2025-10-26T11:44:32Z</time>
      </trkpt>
      <trkpt lat="43.51172" lon="6.69763">
        <ele>178.8</ele>
        <time>2025-10-26T11:44:33Z</time>
      </trkpt>
      <trkpt lat="43.51172" lon="6.69763">
        <ele>178.7</ele>
        <time>2025-10-26T11:44:34Z</time>
      </trkpt>
      <trkpt lat="43.51172" lon="6.69763">
        <ele>178.6</ele>
        <time>2025-10-26T11:44:35Z</time>
      </trkpt>
      <trkpt lat="43.51172" lon="6.69762">
        <ele>178.6</ele>
        <time>2025-10-26T11:44:36Z</time>
      </trkpt>
      <trkpt lat="43.51172" lon="6.69762">
        <ele>178.6</ele>
        <time>2025-10-26T11:44:37Z</time>
      </trkpt>
      <trkpt lat="43.51172" lon="6.69762">
        <ele>178.6</ele>
        <time>2025-10-26T11:44:38Z</time>
      </trkpt>
      <trkpt lat="43.51171" lon="6.69762">
        <ele>178.7</ele>
        <time>2025-10-26T11:44:39Z</time>
      </trkpt>
      <trkpt lat="43.51171" lon="6.69762">
        <ele>178.7</ele>
        <time>2025-10-26T11:44:40Z</time>
      </trkpt>
      <trkpt lat="43.51171" lon="6.69762">
        <ele>178.7</ele>
        <time>2025-10-26T11:44:41Z</time>
      </trkpt>
      <trkpt lat="43.51171" lon="6.69762">
        <ele>178.8</ele>
        <time>2025-10-26T11:44:42Z</time>
      </trkpt>
      <trkpt lat="43.51171" lon="6.69762">
        <ele>178.8</ele>
        <time>2025-10-26T11:44:43Z</time>
      </trkpt>
      <trkpt lat="43.51171" lon="6.69762">
        <ele>178.9</ele>
        <time>2025-10-26T11:44:44Z</time>
      </trkpt>
      <trkpt lat="43.51171" lon="6.69762">
        <ele>178.9</ele>
        <time>2025-10-26T11:44:45Z</time>
      </trkpt>
      <trkpt lat="43.51171" lon="6.69762">
        <ele>178.8</ele>
        <time>2025-10-26T11:44:46Z</time>
      </trkpt>
      <trkpt lat="43.51171" lon="6.69762">
        <ele>178.9</ele>
        <time>2025-10-26T11:44:47Z</time>
      </trkpt>
      <trkpt lat="43.51171" lon="6.69762">
        <ele>178.9</ele>
        <time>2025-10-26T11:44:48Z</time>
      </trkpt>
      <trkpt lat="43.5117" lon="6.69762">
        <ele>178.9</ele>
        <time>2025-10-26T11:44:49Z</time>
      </trkpt>
      <trkpt lat="43.5117" lon="6.69762">
        <ele>178.9</ele>
        <time>2025-10-26T11:44:50Z</time>
      </trkpt>
      <trkpt lat="43.5117" lon="6.69763">
        <ele>179</ele>
        <time>2025-10-26T11:44:51Z</time>
      </trkpt>
      <trkpt lat="43.5117" lon="6.69764">
        <ele>179</ele>
        <time>2025-10-26T11:44:52Z</time>
      </trkpt>
      <trkpt lat="43.5117" lon="6.69764">
        <ele>178.9</ele>
        <time>2025-10-26T11:44:53Z</time>
      </trkpt>
      <trkpt lat="43.5117" lon="6.69764">
        <ele>178.9</ele>
        <time>2025-10-26T11:44:54Z</time>
      </trkpt>
      <trkpt lat="43.5117" lon="6.69765">
        <ele>178.9</ele>
        <time>2025-10-26T11:44:55Z</time>
      </trkpt>
      <trkpt lat="43.51171" lon="6.69765">
        <ele>178.6</ele>
        <time>2025-10-26T11:44:56Z</time>
      </trkpt>
      <trkpt lat="43.51171" lon="6.69766">
        <ele>178.5</ele>
        <time>2025-10-26T11:44:57Z</time>
      </trkpt>
      <trkpt lat="43.51171" lon="6.69766">
        <ele>178.4</ele>
        <time>2025-10-26T11:44:58Z</time>
      </trkpt>
      <trkpt lat="43.51171" lon="6.69766">
        <ele>178.3</ele>
        <time>2025-10-26T11:44:59Z</time>
      </trkpt>
      <trkpt lat="43.51171" lon="6.69766">
        <ele>178.2</ele>
        <time>2025-10-26T11:45:00Z</time>
      </trkpt>
      <trkpt lat="43.51171" lon="6.69767">
        <ele>178.1</ele>
        <time>2025-10-26T11:45:01Z</time>
      </trkpt>
      <trkpt lat="43.51171" lon="6.69767">
        <ele>178.1</ele>
        <time>2025-10-26T11:45:02Z</time>
      </trkpt>
      <trkpt lat="43.51171" lon="6.69767">
        <ele>178.1</ele>
        <time>2025-10-26T11:45:03Z</time>
      </trkpt>
      <trkpt lat="43.51171" lon="6.69767">
        <ele>178.1</ele>
        <time>2025-10-26T11:45:04Z</time>
      </trkpt>
      <trkpt lat="43.51171" lon="6.69767">
        <ele>178.2</ele>
        <time>2025-10-26T11:45:05Z</time>
      </trkpt>
      <trkpt lat="43.51171" lon="6.69768">
        <ele>178.1</ele>
        <time>2025-10-26T11:45:06Z</time>
      </trkpt>
      <trkpt lat="43.5117" lon="6.69769">
        <ele>178.1</ele>
        <time>2025-10-26T11:45:07Z</time>
      </trkpt>
      <trkpt lat="43.51171" lon="6.6977">
        <ele>178.1</ele>
        <time>2025-10-26T11:45:08Z</time>
      </trkpt>
      <trkpt lat="43.51171" lon="6.69771">
        <ele>178.4</ele>
        <time>2025-10-26T11:45:09Z</time>
      </trkpt>
      <trkpt lat="43.51171" lon="6.69771">
        <ele>178.4</ele>
        <time>2025-10-26T11:45:10Z</time>
      </trkpt>
      <trkpt lat="43.51171" lon="6.69772">
        <ele>178.5</ele>
        <time>2025-10-26T11:45:11Z</time>
      </trkpt>
      <trkpt lat="43.51171" lon="6.69772">
        <ele>178.5</ele>
        <time>2025-10-26T11:45:12Z</time>
      </trkpt>
      <trkpt lat="43.51171" lon="6.69772">
        <ele>178.7</ele>
        <time>2025-10-26T11:45:13Z</time>
      </trkpt>
      <trkpt lat="43.51171" lon="6.69773">
        <ele>178.9</ele>
        <time>2025-10-26T11:45:14Z</time>
      </trkpt>
      <trkpt lat="43.51171" lon="6.69773">
        <ele>179</ele>
        <time>2025-10-26T11:45:15Z</time>
      </trkpt>
      <trkpt lat="43.51171" lon="6.69773">
        <ele>179.1</ele>
        <time>2025-10-26T11:45:16Z</time>
      </trkpt>
      <trkpt lat="43.5117" lon="6.69773">
        <ele>179.2</ele>
        <time>2025-10-26T11:45:17Z</time>
      </trkpt>
      <trkpt lat="43.5117" lon="6.69773">
        <ele>179.3</ele>
        <time>2025-10-26T11:45:18Z</time>
      </trkpt>
      <trkpt lat="43.5117" lon="6.69773">
        <ele>179.3</ele>
        <time>2025-10-26T11:45:19Z</time>
      </trkpt>
      <trkpt lat="43.5117" lon="6.69773">
        <ele>179.3</ele>
        <time>2025-10-26T11:45:20Z</time>
      </trkpt>
      <trkpt lat="43.5117" lon="6.69774">
        <ele>179.3</ele>
        <time>2025-10-26T11:45:21Z</time>
      </trkpt>
      <trkpt lat="43.5117" lon="6.69774">
        <ele>179.3</ele>
        <time>2025-10-26T11:45:22Z</time>
      </trkpt>
      <trkpt lat="43.5117" lon="6.69774">
        <ele>179.2</ele>
        <time>2025-10-26T11:45:23Z</time>
      </trkpt>
      <trkpt lat="43.5117" lon="6.69774">
        <ele>179.1</ele>
        <time>2025-10-26T11:45:24Z</time>
      </trkpt>
      <trkpt lat="43.5117" lon="6.69774">
        <ele>179.1</ele>
        <time>2025-10-26T11:45:25Z</time>
      </trkpt>
      <trkpt lat="43.5117" lon="6.69774">
        <ele>179.1</ele>
        <time>2025-10-26T11:45:26Z</time>
      </trkpt>
      <trkpt lat="43.5117" lon="6.69775">
        <ele>179.1</ele>
        <time>2025-10-26T11:45:27Z</time>
      </trkpt>
      <trkpt lat="43.5117" lon="6.69775">
        <ele>179.1</ele>
        <time>2025-10-26T11:45:28Z</time>
      </trkpt>
      <trkpt lat="43.5117" lon="6.69775">
        <ele>179</ele>
        <time>2025-10-26T11:45:29Z</time>
      </trkpt>
      <trkpt lat="43.5117" lon="6.69775">
        <ele>179</ele>
        <time>2025-10-26T11:45:30Z</time>
      </trkpt>
      <trkpt lat="43.5117" lon="6.69775">
        <ele>179</ele>
        <time>2025-10-26T11:45:31Z</time>
      </trkpt>
      <trkpt lat="43.5117" lon="6.69775">
        <ele>179</ele>
        <time>2025-10-26T11:45:32Z</time>
      </trkpt>
      <trkpt lat="43.5117" lon="6.69775">
        <ele>179</ele>
        <time>2025-10-26T11:45:33Z</time>
      </trkpt>
      <trkpt lat="43.5117" lon="6.69775">
        <ele>179.1</ele>
        <time>2025-10-26T11:45:34Z</time>
      </trkpt>
      <trkpt lat="43.5117" lon="6.69776">
        <ele>179.1</ele>
        <time>2025-10-26T11:45:35Z</time>
      </trkpt>
      <trkpt lat="43.5117" lon="6.69776">
        <ele>179.1</ele>
        <time>2025-10-26T11:45:36Z</time>
      </trkpt>
      <trkpt lat="43.5117" lon="6.69776">
        <ele>179.2</ele>
        <time>2025-10-26T11:45:37Z</time>
      </trkpt>
      <trkpt lat="43.5117" lon="6.69776">
        <ele>179.2</ele>
        <time>2025-10-26T11:45:38Z</time>
      </trkpt>
      <trkpt lat="43.5117" lon="6.69776">
        <ele>179.2</ele>
        <time>2025-10-26T11:45:39Z</time>
      </trkpt>
      <trkpt lat="43.5117" lon="6.69776">
        <ele>179.2</ele>
        <time>2025-10-26T11:45:40Z</time>
      </trkpt>
      <trkpt lat="43.5117" lon="6.69776">
        <ele>179.1</ele>
        <time>2025-10-26T11:45:41Z</time>
      </trkpt>
      <trkpt lat="43.5117" lon="6.69776">
        <ele>179.1</ele>
        <time>2025-10-26T11:45:42Z</time>
      </trkpt>
      <trkpt lat="43.5117" lon="6.69776">
        <ele>179</ele>
        <time>2025-10-26T11:45:43Z</time>
      </trkpt>
      <trkpt lat="43.5117" lon="6.69776">
        <ele>179.1</ele>
        <time>2025-10-26T11:45:44Z</time>
      </trkpt>
      <trkpt lat="43.5117" lon="6.69776">
        <ele>179.1</ele>
        <time>2025-10-26T11:45:45Z</time>
      </trkpt>
      <trkpt lat="43.5117" lon="6.69776">
        <ele>179.1</ele>
        <time>2025-10-26T11:45:46Z</time>
      </trkpt>
      <trkpt lat="43.5117" lon="6.69776">
        <ele>179.1</ele>
        <time>2025-10-26T11:45:47Z</time>
      </trkpt>
      <trkpt lat="43.5117" lon="6.69776">
        <ele>179.2</ele>
        <time>2025-10-26T11:45:48Z</time>
      </trkpt>
      <trkpt lat="43.5117" lon="6.69777">
        <ele>179.1</ele>
        <time>2025-10-26T11:45:49Z</time>
      </trkpt>
      <trkpt lat="43.5117" lon="6.69777">
        <ele>179.1</ele>
        <time>2025-10-26T11:45:50Z</time>
      </trkpt>
      <trkpt lat="43.5117" lon="6.69777">
        <ele>179.1</ele>
        <time>2025-10-26T11:45:51Z</time>
      </trkpt>
      <trkpt lat="43.5117" lon="6.69777">
        <ele>179.1</ele>
        <time>2025-10-26T11:45:52Z</time>
      </trkpt>
      <trkpt lat="43.5117" lon="6.69777">
        <ele>179.2</ele>
        <time>2025-10-26T11:45:53Z</time>
      </trkpt>
      <trkpt lat="43.5117" lon="6.69777">
        <ele>179.2</ele>
        <time>2025-10-26T11:45:54Z</time>
      </trkpt>
      <trkpt lat="43.5117" lon="6.69777">
        <ele>179.2</ele>
        <time>2025-10-26T11:45:55Z</time>
      </trkpt>
      <trkpt lat="43.5117" lon="6.69776">
        <ele>179.3</ele>
        <time>2025-10-26T11:45:56Z</time>
      </trkpt>
      <trkpt lat="43.5117" lon="6.69776">
        <ele>179.2</ele>
        <time>2025-10-26T11:45:57Z</time>
      </trkpt>
      <trkpt lat="43.5117" lon="6.69776">
        <ele>179.1</ele>
        <time>2025-10-26T11:45:58Z</time>
      </trkpt>
      <trkpt lat="43.5117" lon="6.69776">
        <ele>179</ele>
        <time>2025-10-26T11:45:59Z</time>
      </trkpt>
      <trkpt lat="43.5117" lon="6.69776">
        <ele>179.1</ele>
        <time>2025-10-26T11:46:00Z</time>
      </trkpt>
      <trkpt lat="43.5117" lon="6.69776">
        <ele>179.1</ele>
        <time>2025-10-26T11:46:01Z</time>
      </trkpt>
      <trkpt lat="43.5117" lon="6.69776">
        <ele>179.1</ele>
        <time>2025-10-26T11:46:02Z</time>
      </trkpt>
      <trkpt lat="43.51169" lon="6.69777">
        <ele>179</ele>
        <time>2025-10-26T11:46:03Z</time>
      </trkpt>
      <trkpt lat="43.51169" lon="6.69777">
        <ele>179</ele>
        <time>2025-10-26T11:46:04Z</time>
      </trkpt>
      <trkpt lat="43.51169" lon="6.69777">
        <ele>179</ele>
        <time>2025-10-26T11:46:05Z</time>
      </trkpt>
      <trkpt lat="43.51169" lon="6.69777">
        <ele>179</ele>
        <time>2025-10-26T11:46:06Z</time>
      </trkpt>
      <trkpt lat="43.51169" lon="6.69777">
        <ele>178.9</ele>
        <time>2025-10-26T11:46:07Z</time>
      </trkpt>
      <trkpt lat="43.51169" lon="6.69777">
        <ele>179</ele>
        <time>2025-10-26T11:46:08Z</time>
      </trkpt>
      <trkpt lat="43.51169" lon="6.69777">
        <ele>179</ele>
        <time>2025-10-26T11:46:09Z</time>
      </trkpt>
      <trkpt lat="43.51169" lon="6.69778">
        <ele>179</ele>
        <time>2025-10-26T11:46:10Z</time>
      </trkpt>
      <trkpt lat="43.51169" lon="6.69778">
        <ele>179</ele>
        <time>2025-10-26T11:46:11Z</time>
      </trkpt>
      <trkpt lat="43.51168" lon="6.69778">
        <ele>179.1</ele>
        <time>2025-10-26T11:46:12Z</time>
      </trkpt>
      <trkpt lat="43.51168" lon="6.69778">
        <ele>179.1</ele>
        <time>2025-10-26T11:46:13Z</time>
      </trkpt>
      <trkpt lat="43.51168" lon="6.69778">
        <ele>179.2</ele>
        <time>2025-10-26T11:46:14Z</time>
      </trkpt>
      <trkpt lat="43.51168" lon="6.69778">
        <ele>179.2</ele>
        <time>2025-10-26T11:46:15Z</time>
      </trkpt>
      <trkpt lat="43.51168" lon="6.69778">
        <ele>179.2</ele>
        <time>2025-10-26T11:46:16Z</time>
      </trkpt>
      <trkpt lat="43.51168" lon="6.69778">
        <ele>179.1</ele>
        <time>2025-10-26T11:46:17Z</time>
      </trkpt>
      <trkpt lat="43.51168" lon="6.69778">
        <ele>179.2</ele>
        <time>2025-10-26T11:46:18Z</time>
      </trkpt>
      <trkpt lat="43.51168" lon="6.69778">
        <ele>179.2</ele>
        <time>2025-10-26T11:46:19Z</time>
      </trkpt>
      <trkpt lat="43.51168" lon="6.69778">
        <ele>179.2</ele>
        <time>2025-10-26T11:46:20Z</time>
      </trkpt>
      <trkpt lat="43.51168" lon="6.69778">
        <ele>179.3</ele>
        <time>2025-10-26T11:46:21Z</time>
      </trkpt>
      <trkpt lat="43.51168" lon="6.69778">
        <ele>179.3</ele>
        <time>2025-10-26T11:46:22Z</time>
      </trkpt>
      <trkpt lat="43.51168" lon="6.69777">
        <ele>179.2</ele>
        <time>2025-10-26T11:46:23Z</time>
      </trkpt>
      <trkpt lat="43.51168" lon="6.69777">
        <ele>179.3</ele>
        <time>2025-10-26T11:46:24Z</time>
      </trkpt>
      <trkpt lat="43.51168" lon="6.69778">
        <ele>179.3</ele>
        <time>2025-10-26T11:46:25Z</time>
      </trkpt>
      <trkpt lat="43.51168" lon="6.69778">
        <ele>179.3</ele>
        <time>2025-10-26T11:46:26Z</time>
      </trkpt>
      <trkpt lat="43.51167" lon="6.69778">
        <ele>179.2</ele>
        <time>2025-10-26T11:46:27Z</time>
      </trkpt>
      <trkpt lat="43.51167" lon="6.69778">
        <ele>179.1</ele>
        <time>2025-10-26T11:46:28Z</time>
      </trkpt>
      <trkpt lat="43.51167" lon="6.69779">
        <ele>179.2</ele>
        <time>2025-10-26T11:46:29Z</time>
      </trkpt>
      <trkpt lat="43.51168" lon="6.69779">
        <ele>179.2</ele>
        <time>2025-10-26T11:46:30Z</time>
      </trkpt>
      <trkpt lat="43.51168" lon="6.69779">
        <ele>179.2</ele>
        <time>2025-10-26T11:46:31Z</time>
      </trkpt>
      <trkpt lat="43.51168" lon="6.6978">
        <ele>179.2</ele>
        <time>2025-10-26T11:46:32Z</time>
      </trkpt>
      <trkpt lat="43.51168" lon="6.69781">
        <ele>179.2</ele>
        <time>2025-10-26T11:46:33Z</time>
      </trkpt>
      <trkpt lat="43.51168" lon="6.69782">
        <ele>179.3</ele>
        <time>2025-10-26T11:46:34Z</time>
      </trkpt>
      <trkpt lat="43.51168" lon="6.69782">
        <ele>179.3</ele>
        <time>2025-10-26T11:46:35Z</time>
      </trkpt>
      <trkpt lat="43.51168" lon="6.69783">
        <ele>179.3</ele>
        <time>2025-10-26T11:46:36Z</time>
      </trkpt>
      <trkpt lat="43.51167" lon="6.69784">
        <ele>179.4</ele>
        <time>2025-10-26T11:46:37Z</time>
      </trkpt>
      <trkpt lat="43.51167" lon="6.69784">
        <ele>179.3</ele>
        <time>2025-10-26T11:46:38Z</time>
      </trkpt>
      <trkpt lat="43.51166" lon="6.69785">
        <ele>179.3</ele>
        <time>2025-10-26T11:46:39Z</time>
      </trkpt>
      <trkpt lat="43.51166" lon="6.69786">
        <ele>179.2</ele>
        <time>2025-10-26T11:46:40Z</time>
      </trkpt>
      <trkpt lat="43.51166" lon="6.69787">
        <ele>179.1</ele>
        <time>2025-10-26T11:46:41Z</time>
      </trkpt>
      <trkpt lat="43.51166" lon="6.69788">
        <ele>179.1</ele>
        <time>2025-10-26T11:46:42Z</time>
      </trkpt>
      <trkpt lat="43.51166" lon="6.69789">
        <ele>179</ele>
        <time>2025-10-26T11:46:43Z</time>
      </trkpt>
      <trkpt lat="43.51166" lon="6.69789">
        <ele>178.9</ele>
        <time>2025-10-26T11:46:44Z</time>
      </trkpt>
      <trkpt lat="43.51166" lon="6.6979">
        <ele>179</ele>
        <time>2025-10-26T11:46:45Z</time>
      </trkpt>
      <trkpt lat="43.51166" lon="6.6979">
        <ele>179</ele>
        <time>2025-10-26T11:46:46Z</time>
      </trkpt>
      <trkpt lat="43.51167" lon="6.69791">
        <ele>178.9</ele>
        <time>2025-10-26T11:46:47Z</time>
      </trkpt>
      <trkpt lat="43.51167" lon="6.69792">
        <ele>178.9</ele>
        <time>2025-10-26T11:46:48Z</time>
      </trkpt>
      <trkpt lat="43.51167" lon="6.69792">
        <ele>179.1</ele>
        <time>2025-10-26T11:46:49Z</time>
      </trkpt>
      <trkpt lat="43.51167" lon="6.69792">
        <ele>179.2</ele>
        <time>2025-10-26T11:46:50Z</time>
      </trkpt>
      <trkpt lat="43.51167" lon="6.69792">
        <ele>179.3</ele>
        <time>2025-10-26T11:46:51Z</time>
      </trkpt>
      <trkpt lat="43.51167" lon="6.69792">
        <ele>179.4</ele>
        <time>2025-10-26T11:46:52Z</time>
      </trkpt>
      <trkpt lat="43.51167" lon="6.69792">
        <ele>179.6</ele>
        <time>2025-10-26T11:46:53Z</time>
      </trkpt>
      <trkpt lat="43.51168" lon="6.69792">
        <ele>179.7</ele>
        <time>2025-10-26T11:46:54Z</time>
      </trkpt>
      <trkpt lat="43.51168" lon="6.69793">
        <ele>179.9</ele>
        <time>2025-10-26T11:46:55Z</time>
      </trkpt>
      <trkpt lat="43.51169" lon="6.69793">
        <ele>180</ele>
        <time>2025-10-26T11:46:56Z</time>
      </trkpt>
      <trkpt lat="43.51169" lon="6.69794">
        <ele>180</ele>
        <time>2025-10-26T11:46:57Z</time>
      </trkpt>
      <trkpt lat="43.5117" lon="6.69794">
        <ele>180.2</ele>
        <time>2025-10-26T11:46:58Z</time>
      </trkpt>
      <trkpt lat="43.5117" lon="6.69794">
        <ele>180.3</ele>
        <time>2025-10-26T11:46:59Z</time>
      </trkpt>
      <trkpt lat="43.51171" lon="6.69794">
        <ele>180.3</ele>
        <time>2025-10-26T11:47:00Z</time>
      </trkpt>
      <trkpt lat="43.51171" lon="6.69795">
        <ele>180.6</ele>
        <time>2025-10-26T11:47:01Z</time>
      </trkpt>
      <trkpt lat="43.51171" lon="6.69795">
        <ele>180.7</ele>
        <time>2025-10-26T11:47:02Z</time>
      </trkpt>
      <trkpt lat="43.51171" lon="6.69796">
        <ele>180.7</ele>
        <time>2025-10-26T11:47:03Z</time>
      </trkpt>
      <trkpt lat="43.51172" lon="6.69797">
        <ele>180.5</ele>
        <time>2025-10-26T11:47:04Z</time>
      </trkpt>
      <trkpt lat="43.51172" lon="6.69798">
        <ele>180.5</ele>
        <time>2025-10-26T11:47:05Z</time>
      </trkpt>
      <trkpt lat="43.51172" lon="6.69798">
        <ele>180.7</ele>
        <time>2025-10-26T11:47:06Z</time>
      </trkpt>
      <trkpt lat="43.51172" lon="6.69798">
        <ele>180.8</ele>
        <time>2025-10-26T11:47:07Z</time>
      </trkpt>
      <trkpt lat="43.51172" lon="6.69799">
        <ele>180.9</ele>
        <time>2025-10-26T11:47:08Z</time>
      </trkpt>
      <trkpt lat="43.51172" lon="6.69799">
        <ele>181</ele>
        <time>2025-10-26T11:47:09Z</time>
      </trkpt>
      <trkpt lat="43.51172" lon="6.698">
        <ele>181.1</ele>
        <time>2025-10-26T11:47:10Z</time>
      </trkpt>
      <trkpt lat="43.51173" lon="6.698">
        <ele>181.3</ele>
        <time>2025-10-26T11:47:11Z</time>
      </trkpt>
      <trkpt lat="43.51173" lon="6.698">
        <ele>181.6</ele>
        <time>2025-10-26T11:47:12Z</time>
      </trkpt>
      <trkpt lat="43.51173" lon="6.69801">
        <ele>181.8</ele>
        <time>2025-10-26T11:47:13Z</time>
      </trkpt>
      <trkpt lat="43.51173" lon="6.69801">
        <ele>181.9</ele>
        <time>2025-10-26T11:47:14Z</time>
      </trkpt>
      <trkpt lat="43.51173" lon="6.69802">
        <ele>182.1</ele>
        <time>2025-10-26T11:47:15Z</time>
      </trkpt>
      <trkpt lat="43.51173" lon="6.69802">
        <ele>182.4</ele>
        <time>2025-10-26T11:47:16Z</time>
      </trkpt>
      <trkpt lat="43.51173" lon="6.69802">
        <ele>182.8</ele>
        <time>2025-10-26T11:47:17Z</time>
      </trkpt>
      <trkpt lat="43.51174" lon="6.69802">
        <ele>183.2</ele>
        <time>2025-10-26T11:47:18Z</time>
      </trkpt>
      <trkpt lat="43.51174" lon="6.69802">
        <ele>183.5</ele>
        <time>2025-10-26T11:47:19Z</time>
      </trkpt>
      <trkpt lat="43.51174" lon="6.69802">
        <ele>183.7</ele>
        <time>2025-10-26T11:47:20Z</time>
      </trkpt>
      <trkpt lat="43.51175" lon="6.69802">
        <ele>183.9</ele>
        <time>2025-10-26T11:47:21Z</time>
      </trkpt>
      <trkpt lat="43.51175" lon="6.69803">
        <ele>184.1</ele>
        <time>2025-10-26T11:47:22Z</time>
      </trkpt>
      <trkpt lat="43.51175" lon="6.69803">
        <ele>184.4</ele>
        <time>2025-10-26T11:47:23Z</time>
      </trkpt>
      <trkpt lat="43.51175" lon="6.69804">
        <ele>184.6</ele>
        <time>2025-10-26T11:47:24Z</time>
      </trkpt>
      <trkpt lat="43.51175" lon="6.69804">
        <ele>184.8</ele>
        <time>2025-10-26T11:47:25Z</time>
      </trkpt>
      <trkpt lat="43.51175" lon="6.69804">
        <ele>185</ele>
        <time>2025-10-26T11:47:26Z</time>
      </trkpt>
      <trkpt lat="43.51175" lon="6.69805">
        <ele>185.1</ele>
        <time>2025-10-26T11:47:27Z</time>
      </trkpt>
      <trkpt lat="43.51175" lon="6.69806">
        <ele>185.2</ele>
        <time>2025-10-26T11:47:28Z</time>
      </trkpt>
      <trkpt lat="43.51175" lon="6.69806">
        <ele>185.2</ele>
        <time>2025-10-26T11:47:29Z</time>
      </trkpt>
      <trkpt lat="43.51176" lon="6.69807">
        <ele>185.3</ele>
        <time>2025-10-26T11:47:30Z</time>
      </trkpt>
      <trkpt lat="43.51176" lon="6.69808">
        <ele>185.4</ele>
        <time>2025-10-26T11:47:31Z</time>
      </trkpt>
      <trkpt lat="43.51176" lon="6.69808">
        <ele>185.5</ele>
        <time>2025-10-26T11:47:32Z</time>
      </trkpt>
      <trkpt lat="43.51176" lon="6.69808">
        <ele>185.5</ele>
        <time>2025-10-26T11:47:33Z</time>
      </trkpt>
      <trkpt lat="43.51176" lon="6.69808">
        <ele>185.6</ele>
        <time>2025-10-26T11:47:34Z</time>
      </trkpt>
      <trkpt lat="43.51176" lon="6.69808">
        <ele>185.6</ele>
        <time>2025-10-26T11:47:35Z</time>
      </trkpt>
      <trkpt lat="43.51176" lon="6.69809">
        <ele>185.6</ele>
        <time>2025-10-26T11:47:36Z</time>
      </trkpt>
      <trkpt lat="43.51176" lon="6.69809">
        <ele>185.5</ele>
        <time>2025-10-26T11:47:37Z</time>
      </trkpt>
      <trkpt lat="43.51176" lon="6.69809">
        <ele>185.5</ele>
        <time>2025-10-26T11:47:38Z</time>
      </trkpt>
      <trkpt lat="43.51177" lon="6.6981">
        <ele>185.5</ele>
        <time>2025-10-26T11:47:39Z</time>
      </trkpt>
      <trkpt lat="43.51177" lon="6.69811">
        <ele>185.6</ele>
        <time>2025-10-26T11:47:40Z</time>
      </trkpt>
      <trkpt lat="43.51177" lon="6.69812">
        <ele>185.6</ele>
        <time>2025-10-26T11:47:41Z</time>
      </trkpt>
      <trkpt lat="43.51177" lon="6.69812">
        <ele>185.8</ele>
        <time>2025-10-26T11:47:42Z</time>
      </trkpt>
      <trkpt lat="43.51177" lon="6.69812">
        <ele>185.9</ele>
        <time>2025-10-26T11:47:43Z</time>
      </trkpt>
      <trkpt lat="43.51177" lon="6.69812">
        <ele>186</ele>
        <time>2025-10-26T11:47:44Z</time>
      </trkpt>
      <trkpt lat="43.51177" lon="6.69812">
        <ele>185.8</ele>
        <time>2025-10-26T11:47:45Z</time>
      </trkpt>
      <trkpt lat="43.51177" lon="6.69811">
        <ele>185.9</ele>
        <time>2025-10-26T11:47:46Z</time>
      </trkpt>
      <trkpt lat="43.51177" lon="6.69812">
        <ele>185.9</ele>
        <time>2025-10-26T11:47:47Z</time>
      </trkpt>
      <trkpt lat="43.51178" lon="6.69812">
        <ele>185.8</ele>
        <time>2025-10-26T11:47:48Z</time>
      </trkpt>
      <trkpt lat="43.51178" lon="6.69812">
        <ele>185.8</ele>
        <time>2025-10-26T11:47:49Z</time>
      </trkpt>
      <trkpt lat="43.51178" lon="6.69812">
        <ele>185.9</ele>
        <time>2025-10-26T11:47:50Z</time>
      </trkpt>
      <trkpt lat="43.51178" lon="6.69813">
        <ele>186.2</ele>
        <time>2025-10-26T11:47:51Z</time>
      </trkpt>
      <trkpt lat="43.51178" lon="6.69813">
        <ele>186.4</ele>
        <time>2025-10-26T11:47:52Z</time>
      </trkpt>
      <trkpt lat="43.51178" lon="6.69814">
        <ele>186.6</ele>
        <time>2025-10-26T11:47:53Z</time>
      </trkpt>
      <trkpt lat="43.51178" lon="6.69814">
        <ele>186.8</ele>
        <time>2025-10-26T11:47:54Z</time>
      </trkpt>
      <trkpt lat="43.51178" lon="6.69814">
        <ele>186.8</ele>
        <time>2025-10-26T11:47:55Z</time>
      </trkpt>
      <trkpt lat="43.51178" lon="6.69814">
        <ele>186.8</ele>
        <time>2025-10-26T11:47:56Z</time>
      </trkpt>
      <trkpt lat="43.51178" lon="6.69815">
        <ele>186.8</ele>
        <time>2025-10-26T11:47:57Z</time>
      </trkpt>
      <trkpt lat="43.51178" lon="6.69815">
        <ele>186.7</ele>
        <time>2025-10-26T11:47:58Z</time>
      </trkpt>
      <trkpt lat="43.51178" lon="6.69815">
        <ele>186.9</ele>
        <time>2025-10-26T11:47:59Z</time>
      </trkpt>
      <trkpt lat="43.51178" lon="6.69816">
        <ele>187</ele>
        <time>2025-10-26T11:48:00Z</time>
      </trkpt>
      <trkpt lat="43.51178" lon="6.69816">
        <ele>187</ele>
        <time>2025-10-26T11:48:01Z</time>
      </trkpt>
      <trkpt lat="43.51178" lon="6.69816">
        <ele>187.1</ele>
        <time>2025-10-26T11:48:02Z</time>
      </trkpt>
      <trkpt lat="43.51178" lon="6.69816">
        <ele>187.1</ele>
        <time>2025-10-26T11:48:03Z</time>
      </trkpt>
      <trkpt lat="43.51178" lon="6.69816">
        <ele>187.1</ele>
        <time>2025-10-26T11:48:04Z</time>
      </trkpt>
      <trkpt lat="43.51178" lon="6.69816">
        <ele>187.2</ele>
        <time>2025-10-26T11:48:05Z</time>
      </trkpt>
      <trkpt lat="43.51178" lon="6.69817">
        <ele>187.2</ele>
        <time>2025-10-26T11:48:06Z</time>
      </trkpt>
      <trkpt lat="43.51178" lon="6.69817">
        <ele>187.2</ele>
        <time>2025-10-26T11:48:07Z</time>
      </trkpt>
      <trkpt lat="43.51178" lon="6.69817">
        <ele>187.3</ele>
        <time>2025-10-26T11:48:08Z</time>
      </trkpt>
      <trkpt lat="43.51178" lon="6.69817">
        <ele>187.4</ele>
        <time>2025-10-26T11:48:09Z</time>
      </trkpt>
      <trkpt lat="43.51178" lon="6.69817">
        <ele>187.3</ele>
        <time>2025-10-26T11:48:10Z</time>
      </trkpt>
      <trkpt lat="43.51178" lon="6.69817">
        <ele>187.3</ele>
        <time>2025-10-26T11:48:11Z</time>
      </trkpt>
      <trkpt lat="43.51178" lon="6.69817">
        <ele>187.3</ele>
        <time>2025-10-26T11:48:12Z</time>
      </trkpt>
      <trkpt lat="43.51177" lon="6.69817">
        <ele>187.3</ele>
        <time>2025-10-26T11:48:13Z</time>
      </trkpt>
      <trkpt lat="43.51177" lon="6.69817">
        <ele>187.2</ele>
        <time>2025-10-26T11:48:14Z</time>
      </trkpt>
      <trkpt lat="43.51177" lon="6.69818">
        <ele>187.2</ele>
        <time>2025-10-26T11:48:15Z</time>
      </trkpt>
      <trkpt lat="43.51177" lon="6.69818">
        <ele>187.2</ele>
        <time>2025-10-26T11:48:16Z</time>
      </trkpt>
      <trkpt lat="43.51177" lon="6.69818">
        <ele>187.2</ele>
        <time>2025-10-26T11:48:17Z</time>
      </trkpt>
      <trkpt lat="43.51177" lon="6.69818">
        <ele>187.3</ele>
        <time>2025-10-26T11:48:18Z</time>
      </trkpt>
      <trkpt lat="43.51177" lon="6.69818">
        <ele>187.4</ele>
        <time>2025-10-26T11:48:19Z</time>
      </trkpt>
      <trkpt lat="43.51178" lon="6.69818">
        <ele>187.4</ele>
        <time>2025-10-26T11:48:20Z</time>
      </trkpt>
      <trkpt lat="43.51178" lon="6.69818">
        <ele>187.4</ele>
        <time>2025-10-26T11:48:21Z</time>
      </trkpt>
      <trkpt lat="43.51178" lon="6.69818">
        <ele>187.4</ele>
        <time>2025-10-26T11:48:22Z</time>
      </trkpt>
      <trkpt lat="43.51178" lon="6.69818">
        <ele>187.4</ele>
        <time>2025-10-26T11:48:23Z</time>
      </trkpt>
      <trkpt lat="43.51178" lon="6.69818">
        <ele>187.4</ele>
        <time>2025-10-26T11:48:24Z</time>
      </trkpt>
      <trkpt lat="43.51178" lon="6.69818">
        <ele>187.4</ele>
        <time>2025-10-26T11:48:25Z</time>
      </trkpt>
      <trkpt lat="43.51178" lon="6.69818">
        <ele>187.4</ele>
        <time>2025-10-26T11:48:26Z</time>
      </trkpt>
      <trkpt lat="43.51178" lon="6.69818">
        <ele>187.3</ele>
        <time>2025-10-26T11:48:27Z</time>
      </trkpt>
      <trkpt lat="43.51178" lon="6.69818">
        <ele>187.2</ele>
        <time>2025-10-26T11:48:28Z</time>
      </trkpt>
      <trkpt lat="43.51178" lon="6.69818">
        <ele>187.2</ele>
        <time>2025-10-26T11:48:29Z</time>
      </trkpt>
      <trkpt lat="43.51178" lon="6.69818">
        <ele>187.2</ele>
        <time>2025-10-26T11:48:30Z</time>
      </trkpt>
      <trkpt lat="43.51178" lon="6.69818">
        <ele>187.2</ele>
        <time>2025-10-26T11:48:31Z</time>
      </trkpt>
      <trkpt lat="43.51178" lon="6.69818">
        <ele>187.2</ele>
        <time>2025-10-26T11:48:32Z</time>
      </trkpt>
      <trkpt lat="43.51178" lon="6.69818">
        <ele>187.2</ele>
        <time>2025-10-26T11:48:33Z</time>
      </trkpt>
      <trkpt lat="43.51178" lon="6.69818">
        <ele>187.3</ele>
        <time>2025-10-26T11:48:34Z</time>
      </trkpt>
      <trkpt lat="43.51178" lon="6.69818">
        <ele>187.3</ele>
        <time>2025-10-26T11:48:35Z</time>
      </trkpt>
      <trkpt lat="43.51178" lon="6.69818">
        <ele>187.3</ele>
        <time>2025-10-26T11:48:36Z</time>
      </trkpt>
      <trkpt lat="43.51178" lon="6.69818">
        <ele>187.3</ele>
        <time>2025-10-26T11:48:37Z</time>
      </trkpt>
      <trkpt lat="43.51178" lon="6.69818">
        <ele>187.4</ele>
        <time>2025-10-26T11:48:38Z</time>
      </trkpt>
      <trkpt lat="43.51178" lon="6.69818">
        <ele>187.3</ele>
        <time>2025-10-26T11:48:39Z</time>
      </trkpt>
      <trkpt lat="43.51178" lon="6.69818">
        <ele>187.2</ele>
        <time>2025-10-26T11:48:40Z</time>
      </trkpt>
      <trkpt lat="43.51178" lon="6.69818">
        <ele>187.2</ele>
        <time>2025-10-26T11:48:41Z</time>
      </trkpt>
      <trkpt lat="43.51178" lon="6.69818">
        <ele>187.1</ele>
        <time>2025-10-26T11:48:42Z</time>
      </trkpt>
      <trkpt lat="43.51178" lon="6.69818">
        <ele>187.1</ele>
        <time>2025-10-26T11:48:43Z</time>
      </trkpt>
      <trkpt lat="43.51178" lon="6.69819">
        <ele>187.1</ele>
        <time>2025-10-26T11:48:44Z</time>
      </trkpt>
      <trkpt lat="43.51178" lon="6.69819">
        <ele>187</ele>
        <time>2025-10-26T11:48:45Z</time>
      </trkpt>
      <trkpt lat="43.51178" lon="6.69819">
        <ele>187</ele>
        <time>2025-10-26T11:48:46Z</time>
      </trkpt>
      <trkpt lat="43.51178" lon="6.69819">
        <ele>186.9</ele>
        <time>2025-10-26T11:48:47Z</time>
      </trkpt>
      <trkpt lat="43.51178" lon="6.69819">
        <ele>187</ele>
        <time>2025-10-26T11:48:48Z</time>
      </trkpt>
      <trkpt lat="43.51178" lon="6.69819">
        <ele>187.1</ele>
        <time>2025-10-26T11:48:49Z</time>
      </trkpt>
      <trkpt lat="43.51178" lon="6.69819">
        <ele>187.2</ele>
        <time>2025-10-26T11:48:50Z</time>
      </trkpt>
      <trkpt lat="43.51178" lon="6.69819">
        <ele>187.4</ele>
        <time>2025-10-26T11:48:51Z</time>
      </trkpt>
      <trkpt lat="43.51178" lon="6.69819">
        <ele>187.4</ele>
        <time>2025-10-26T11:48:52Z</time>
      </trkpt>
      <trkpt lat="43.51178" lon="6.69819">
        <ele>187.4</ele>
        <time>2025-10-26T11:48:53Z</time>
      </trkpt>
      <trkpt lat="43.51179" lon="6.69819">
        <ele>187.4</ele>
        <time>2025-10-26T11:48:54Z</time>
      </trkpt>
      <trkpt lat="43.51178" lon="6.69819">
        <ele>187.4</ele>
        <time>2025-10-26T11:48:55Z</time>
      </trkpt>
      <trkpt lat="43.51178" lon="6.69819">
        <ele>187.4</ele>
        <time>2025-10-26T11:48:56Z</time>
      </trkpt>
      <trkpt lat="43.51178" lon="6.69819">
        <ele>187.3</ele>
        <time>2025-10-26T11:48:57Z</time>
      </trkpt>
      <trkpt lat="43.51178" lon="6.69819">
        <ele>187.3</ele>
        <time>2025-10-26T11:48:58Z</time>
      </trkpt>
      <trkpt lat="43.51179" lon="6.69819">
        <ele>187.3</ele>
        <time>2025-10-26T11:48:59Z</time>
      </trkpt>
      <trkpt lat="43.51179" lon="6.69819">
        <ele>187.3</ele>
        <time>2025-10-26T11:49:00Z</time>
      </trkpt>
      <trkpt lat="43.51179" lon="6.69819">
        <ele>187.3</ele>
        <time>2025-10-26T11:49:01Z</time>
      </trkpt>
      <trkpt lat="43.51179" lon="6.69819">
        <ele>187.3</ele>
        <time>2025-10-26T11:49:02Z</time>
      </trkpt>
      <trkpt lat="43.51178" lon="6.69819">
        <ele>187.3</ele>
        <time>2025-10-26T11:49:03Z</time>
      </trkpt>
      <trkpt lat="43.51178" lon="6.6982">
        <ele>187.3</ele>
        <time>2025-10-26T11:49:04Z</time>
      </trkpt>
      <trkpt lat="43.51178" lon="6.6982">
        <ele>187.3</ele>
        <time>2025-10-26T11:49:05Z</time>
      </trkpt>
      <trkpt lat="43.51178" lon="6.69819">
        <ele>187.3</ele>
        <time>2025-10-26T11:49:06Z</time>
      </trkpt>
      <trkpt lat="43.51178" lon="6.69819">
        <ele>187.3</ele>
        <time>2025-10-26T11:49:07Z</time>
      </trkpt>
      <trkpt lat="43.51178" lon="6.69819">
        <ele>187.3</ele>
        <time>2025-10-26T11:49:08Z</time>
      </trkpt>
      <trkpt lat="43.51178" lon="6.6982">
        <ele>187.3</ele>
        <time>2025-10-26T11:49:09Z</time>
      </trkpt>
      <trkpt lat="43.51178" lon="6.69819">
        <ele>187.3</ele>
        <time>2025-10-26T11:49:10Z</time>
      </trkpt>
      <trkpt lat="43.51178" lon="6.6982">
        <ele>187.3</ele>
        <time>2025-10-26T11:49:11Z</time>
      </trkpt>
      <trkpt lat="43.51178" lon="6.6982">
        <ele>187.3</ele>
        <time>2025-10-26T11:49:12Z</time>
      </trkpt>
      <trkpt lat="43.51178" lon="6.6982">
        <ele>187.2</ele>
        <time>2025-10-26T11:49:13Z</time>
      </trkpt>
      <trkpt lat="43.51178" lon="6.6982">
        <ele>187.3</ele>
        <time>2025-10-26T11:49:14Z</time>
      </trkpt>
      <trkpt lat="43.51179" lon="6.6982">
        <ele>187.2</ele>
        <time>2025-10-26T11:49:15Z</time>
      </trkpt>
      <trkpt lat="43.51179" lon="6.69821">
        <ele>187.1</ele>
        <time>2025-10-26T11:49:16Z</time>
      </trkpt>
      <trkpt lat="43.51178" lon="6.69821">
        <ele>187.1</ele>
        <time>2025-10-26T11:49:17Z</time>
      </trkpt>
      <trkpt lat="43.51178" lon="6.69822">
        <ele>187</ele>
        <time>2025-10-26T11:49:18Z</time>
      </trkpt>
      <trkpt lat="43.51178" lon="6.69824">
        <ele>187</ele>
        <time>2025-10-26T11:49:19Z</time>
      </trkpt>
      <trkpt lat="43.51178" lon="6.69825">
        <ele>187</ele>
        <time>2025-10-26T11:49:20Z</time>
      </trkpt>
      <trkpt lat="43.51179" lon="6.69826">
        <ele>187</ele>
        <time>2025-10-26T11:49:21Z</time>
      </trkpt>
      <trkpt lat="43.51179" lon="6.69826">
        <ele>187</ele>
        <time>2025-10-26T11:49:22Z</time>
      </trkpt>
      <trkpt lat="43.5118" lon="6.69827">
        <ele>187</ele>
        <time>2025-10-26T11:49:23Z</time>
      </trkpt>
      <trkpt lat="43.5118" lon="6.69827">
        <ele>187</ele>
        <time>2025-10-26T11:49:24Z</time>
      </trkpt>
      <trkpt lat="43.51181" lon="6.69827">
        <ele>187</ele>
        <time>2025-10-26T11:49:25Z</time>
      </trkpt>
      <trkpt lat="43.51181" lon="6.69827">
        <ele>187</ele>
        <time>2025-10-26T11:49:26Z</time>
      </trkpt>
      <trkpt lat="43.51182" lon="6.69827">
        <ele>187</ele>
        <time>2025-10-26T11:49:27Z</time>
      </trkpt>
      <trkpt lat="43.51182" lon="6.69827">
        <ele>186.9</ele>
        <time>2025-10-26T11:49:28Z</time>
      </trkpt>
      <trkpt lat="43.51182" lon="6.69827">
        <ele>187</ele>
        <time>2025-10-26T11:49:29Z</time>
      </trkpt>
      <trkpt lat="43.51183" lon="6.69828">
        <ele>187.1</ele>
        <time>2025-10-26T11:49:30Z</time>
      </trkpt>
      <trkpt lat="43.51182" lon="6.69828">
        <ele>187.1</ele>
        <time>2025-10-26T11:49:31Z</time>
      </trkpt>
      <trkpt lat="43.51183" lon="6.69828">
        <ele>187</ele>
        <time>2025-10-26T11:49:32Z</time>
      </trkpt>
      <trkpt lat="43.51183" lon="6.69827">
        <ele>187</ele>
        <time>2025-10-26T11:49:33Z</time>
      </trkpt>
      <trkpt lat="43.51183" lon="6.69828">
        <ele>187</ele>
        <time>2025-10-26T11:49:34Z</time>
      </trkpt>
      <trkpt lat="43.51183" lon="6.69827">
        <ele>187</ele>
        <time>2025-10-26T11:49:35Z</time>
      </trkpt>
      <trkpt lat="43.51184" lon="6.69827">
        <ele>187.1</ele>
        <time>2025-10-26T11:49:36Z</time>
      </trkpt>
      <trkpt lat="43.51184" lon="6.69826">
        <ele>187.1</ele>
        <time>2025-10-26T11:49:37Z</time>
      </trkpt>
      <trkpt lat="43.51184" lon="6.69826">
        <ele>187.3</ele>
        <time>2025-10-26T11:49:38Z</time>
      </trkpt>
      <trkpt lat="43.51184" lon="6.69826">
        <ele>187.4</ele>
        <time>2025-10-26T11:49:39Z</time>
      </trkpt>
      <trkpt lat="43.51184" lon="6.69826">
        <ele>187.4</ele>
        <time>2025-10-26T11:49:40Z</time>
      </trkpt>
      <trkpt lat="43.51184" lon="6.69826">
        <ele>187.6</ele>
        <time>2025-10-26T11:49:41Z</time>
      </trkpt>
      <trkpt lat="43.51184" lon="6.69825">
        <ele>187.7</ele>
        <time>2025-10-26T11:49:42Z</time>
      </trkpt>
      <trkpt lat="43.51184" lon="6.69825">
        <ele>187.7</ele>
        <time>2025-10-26T11:49:43Z</time>
      </trkpt>
      <trkpt lat="43.51184" lon="6.69825">
        <ele>187.7</ele>
        <time>2025-10-26T11:49:44Z</time>
      </trkpt>
      <trkpt lat="43.51184" lon="6.69825">
        <ele>187.7</ele>
        <time>2025-10-26T11:49:45Z</time>
      </trkpt>
      <trkpt lat="43.51184" lon="6.69825">
        <ele>187.7</ele>
        <time>2025-10-26T11:49:46Z</time>
      </trkpt>
      <trkpt lat="43.51184" lon="6.69826">
        <ele>187.6</ele>
        <time>2025-10-26T11:49:47Z</time>
      </trkpt>
      <trkpt lat="43.51184" lon="6.69826">
        <ele>187.7</ele>
        <time>2025-10-26T11:49:48Z</time>
      </trkpt>
      <trkpt lat="43.51184" lon="6.69826">
        <ele>187.6</ele>
        <time>2025-10-26T11:49:49Z</time>
      </trkpt>
      <trkpt lat="43.51184" lon="6.69826">
        <ele>187.6</ele>
        <time>2025-10-26T11:49:50Z</time>
      </trkpt>
      <trkpt lat="43.51184" lon="6.69825">
        <ele>187.4</ele>
        <time>2025-10-26T11:49:51Z</time>
      </trkpt>
      <trkpt lat="43.51184" lon="6.69825">
        <ele>187.3</ele>
        <time>2025-10-26T11:49:52Z</time>
      </trkpt>
      <trkpt lat="43.51185" lon="6.69825">
        <ele>187.3</ele>
        <time>2025-10-26T11:49:53Z</time>
      </trkpt>
      <trkpt lat="43.51185" lon="6.69825">
        <ele>187.4</ele>
        <time>2025-10-26T11:49:54Z</time>
      </trkpt>
      <trkpt lat="43.51185" lon="6.69825">
        <ele>187.5</ele>
        <time>2025-10-26T11:49:55Z</time>
      </trkpt>
      <trkpt lat="43.51185" lon="6.69825">
        <ele>187.5</ele>
        <time>2025-10-26T11:49:56Z</time>
      </trkpt>
      <trkpt lat="43.51185" lon="6.69825">
        <ele>187.4</ele>
        <time>2025-10-26T11:49:57Z</time>
      </trkpt>
      <trkpt lat="43.51185" lon="6.69825">
        <ele>187.2</ele>
        <time>2025-10-26T11:49:58Z</time>
      </trkpt>
      <trkpt lat="43.51185" lon="6.69825">
        <ele>187.3</ele>
        <time>2025-10-26T11:49:59Z</time>
      </trkpt>
      <trkpt lat="43.51185" lon="6.69825">
        <ele>187.3</ele>
        <time>2025-10-26T11:50:00Z</time>
      </trkpt>
      <trkpt lat="43.51185" lon="6.69825">
        <ele>187.2</ele>
        <time>2025-10-26T11:50:01Z</time>
      </trkpt>
      <trkpt lat="43.51185" lon="6.69825">
        <ele>187.2</ele>
        <time>2025-10-26T11:50:02Z</time>
      </trkpt>
      <trkpt lat="43.51185" lon="6.69824">
        <ele>187.3</ele>
        <time>2025-10-26T11:50:03Z</time>
      </trkpt>
      <trkpt lat="43.51185" lon="6.69824">
        <ele>187.3</ele>
        <time>2025-10-26T11:50:04Z</time>
      </trkpt>
      <trkpt lat="43.51185" lon="6.69824">
        <ele>187.3</ele>
        <time>2025-10-26T11:50:05Z</time>
      </trkpt>
      <trkpt lat="43.51185" lon="6.69824">
        <ele>187.4</ele>
        <time>2025-10-26T11:50:06Z</time>
      </trkpt>
      <trkpt lat="43.51185" lon="6.69824">
        <ele>187.5</ele>
        <time>2025-10-26T11:50:07Z</time>
      </trkpt>
      <trkpt lat="43.51185" lon="6.69824">
        <ele>187.6</ele>
        <time>2025-10-26T11:50:08Z</time>
      </trkpt>
      <trkpt lat="43.51185" lon="6.69824">
        <ele>187.6</ele>
        <time>2025-10-26T11:50:09Z</time>
      </trkpt>
      <trkpt lat="43.51186" lon="6.69825">
        <ele>187.6</ele>
        <time>2025-10-26T11:50:10Z</time>
      </trkpt>
      <trkpt lat="43.51186" lon="6.69825">
        <ele>187.7</ele>
        <time>2025-10-26T11:50:11Z</time>
      </trkpt>
      <trkpt lat="43.51186" lon="6.69825">
        <ele>187.7</ele>
        <time>2025-10-26T11:50:12Z</time>
      </trkpt>
      <trkpt lat="43.51185" lon="6.69825">
        <ele>187.8</ele>
        <time>2025-10-26T11:50:13Z</time>
      </trkpt>
      <trkpt lat="43.51186" lon="6.69825">
        <ele>187.9</ele>
        <time>2025-10-26T11:50:14Z</time>
      </trkpt>
      <trkpt lat="43.51186" lon="6.69826">
        <ele>187.9</ele>
        <time>2025-10-26T11:50:15Z</time>
      </trkpt>
      <trkpt lat="43.51186" lon="6.69826">
        <ele>188</ele>
        <time>2025-10-26T11:50:16Z</time>
      </trkpt>
      <trkpt lat="43.51186" lon="6.69826">
        <ele>188</ele>
        <time>2025-10-26T11:50:17Z</time>
      </trkpt>
      <trkpt lat="43.51186" lon="6.69826">
        <ele>188</ele>
        <time>2025-10-26T11:50:18Z</time>
      </trkpt>
      <trkpt lat="43.51186" lon="6.69825">
        <ele>187.9</ele>
        <time>2025-10-26T11:50:19Z</time>
      </trkpt>
      <trkpt lat="43.51185" lon="6.69825">
        <ele>187.8</ele>
        <time>2025-10-26T11:50:20Z</time>
      </trkpt>
      <trkpt lat="43.51185" lon="6.69825">
        <ele>187.8</ele>
        <time>2025-10-26T11:50:21Z</time>
      </trkpt>
      <trkpt lat="43.51185" lon="6.69826">
        <ele>187.7</ele>
        <time>2025-10-26T11:50:22Z</time>
      </trkpt>
      <trkpt lat="43.51185" lon="6.69826">
        <ele>187.6</ele>
        <time>2025-10-26T11:50:23Z</time>
      </trkpt>
      <trkpt lat="43.51185" lon="6.69826">
        <ele>187.5</ele>
        <time>2025-10-26T11:50:24Z</time>
      </trkpt>
      <trkpt lat="43.51186" lon="6.69826">
        <ele>187.5</ele>
        <time>2025-10-26T11:50:25Z</time>
      </trkpt>
      <trkpt lat="43.51186" lon="6.69826">
        <ele>187.4</ele>
        <time>2025-10-26T11:50:26Z</time>
      </trkpt>
      <trkpt lat="43.51186" lon="6.69826">
        <ele>187.4</ele>
        <time>2025-10-26T11:50:27Z</time>
      </trkpt>
      <trkpt lat="43.51185" lon="6.69826">
        <ele>187.6</ele>
        <time>2025-10-26T11:50:28Z</time>
      </trkpt>
      <trkpt lat="43.51185" lon="6.69826">
        <ele>187.7</ele>
        <time>2025-10-26T11:50:29Z</time>
      </trkpt>
      <trkpt lat="43.51185" lon="6.69826">
        <ele>187.6</ele>
        <time>2025-10-26T11:50:30Z</time>
      </trkpt>
      <trkpt lat="43.51185" lon="6.69826">
        <ele>187.6</ele>
        <time>2025-10-26T11:50:31Z</time>
      </trkpt>
      <trkpt lat="43.51185" lon="6.69826">
        <ele>187.4</ele>
        <time>2025-10-26T11:50:32Z</time>
      </trkpt>
      <trkpt lat="43.51184" lon="6.69826">
        <ele>187.4</ele>
        <time>2025-10-26T11:50:33Z</time>
      </trkpt>
      <trkpt lat="43.51184" lon="6.69827">
        <ele>187.4</ele>
        <time>2025-10-26T11:50:34Z</time>
      </trkpt>
      <trkpt lat="43.51184" lon="6.69828">
        <ele>187.5</ele>
        <time>2025-10-26T11:50:35Z</time>
      </trkpt>
      <trkpt lat="43.51184" lon="6.69828">
        <ele>187.7</ele>
        <time>2025-10-26T11:50:36Z</time>
      </trkpt>
      <trkpt lat="43.51184" lon="6.69829">
        <ele>187.9</ele>
        <time>2025-10-26T11:50:37Z</time>
      </trkpt>
      <trkpt lat="43.51184" lon="6.6983">
        <ele>188.1</ele>
        <time>2025-10-26T11:50:38Z</time>
      </trkpt>
      <trkpt lat="43.51184" lon="6.6983">
        <ele>188.2</ele>
        <time>2025-10-26T11:50:39Z</time>
      </trkpt>
      <trkpt lat="43.51184" lon="6.69831">
        <ele>188.3</ele>
        <time>2025-10-26T11:50:40Z</time>
      </trkpt>
      <trkpt lat="43.51184" lon="6.69831">
        <ele>188.5</ele>
        <time>2025-10-26T11:50:41Z</time>
      </trkpt>
      <trkpt lat="43.51184" lon="6.69832">
        <ele>188.7</ele>
        <time>2025-10-26T11:50:42Z</time>
      </trkpt>
      <trkpt lat="43.51184" lon="6.69833">
        <ele>188.9</ele>
        <time>2025-10-26T11:50:43Z</time>
      </trkpt>
      <trkpt lat="43.51184" lon="6.69834">
        <ele>189.1</ele>
        <time>2025-10-26T11:50:44Z</time>
      </trkpt>
      <trkpt lat="43.51185" lon="6.69834">
        <ele>189.3</ele>
        <time>2025-10-26T11:50:45Z</time>
      </trkpt>
      <trkpt lat="43.51185" lon="6.69834">
        <ele>189.4</ele>
        <time>2025-10-26T11:50:46Z</time>
      </trkpt>
      <trkpt lat="43.51185" lon="6.69834">
        <ele>189.6</ele>
        <time>2025-10-26T11:50:47Z</time>
      </trkpt>
      <trkpt lat="43.51186" lon="6.69834">
        <ele>189.8</ele>
        <time>2025-10-26T11:50:48Z</time>
      </trkpt>
      <trkpt lat="43.51186" lon="6.69834">
        <ele>190.1</ele>
        <time>2025-10-26T11:50:49Z</time>
      </trkpt>
      <trkpt lat="43.51186" lon="6.69834">
        <ele>190.2</ele>
        <time>2025-10-26T11:50:50Z</time>
      </trkpt>
      <trkpt lat="43.51186" lon="6.69834">
        <ele>190.4</ele>
        <time>2025-10-26T11:50:51Z</time>
      </trkpt>
      <trkpt lat="43.51186" lon="6.69834">
        <ele>190.5</ele>
        <time>2025-10-26T11:50:52Z</time>
      </trkpt>
      <trkpt lat="43.51186" lon="6.69835">
        <ele>190.6</ele>
        <time>2025-10-26T11:50:53Z</time>
      </trkpt>
      <trkpt lat="43.51186" lon="6.69835">
        <ele>190.6</ele>
        <time>2025-10-26T11:50:54Z</time>
      </trkpt>
      <trkpt lat="43.51186" lon="6.69835">
        <ele>190.6</ele>
        <time>2025-10-26T11:50:55Z</time>
      </trkpt>
      <trkpt lat="43.51186" lon="6.69836">
        <ele>190.6</ele>
        <time>2025-10-26T11:50:56Z</time>
      </trkpt>
      <trkpt lat="43.51186" lon="6.69836">
        <ele>190.6</ele>
        <time>2025-10-26T11:50:57Z</time>
      </trkpt>
      <trkpt lat="43.51186" lon="6.69836">
        <ele>190.6</ele>
        <time>2025-10-26T11:50:58Z</time>
      </trkpt>
      <trkpt lat="43.51186" lon="6.69836">
        <ele>190.6</ele>
        <time>2025-10-26T11:50:59Z</time>
      </trkpt>
      <trkpt lat="43.51186" lon="6.69836">
        <ele>190.5</ele>
        <time>2025-10-26T11:51:00Z</time>
      </trkpt>
      <trkpt lat="43.51186" lon="6.69836">
        <ele>190.6</ele>
        <time>2025-10-26T11:51:01Z</time>
      </trkpt>
      <trkpt lat="43.51186" lon="6.69837">
        <ele>190.6</ele>
        <time>2025-10-26T11:51:02Z</time>
      </trkpt>
      <trkpt lat="43.51186" lon="6.69837">
        <ele>190.6</ele>
        <time>2025-10-26T11:51:03Z</time>
      </trkpt>
      <trkpt lat="43.51187" lon="6.69837">
        <ele>190.6</ele>
        <time>2025-10-26T11:51:04Z</time>
      </trkpt>
      <trkpt lat="43.51187" lon="6.69837">
        <ele>190.6</ele>
        <time>2025-10-26T11:51:05Z</time>
      </trkpt>
      <trkpt lat="43.51187" lon="6.69837">
        <ele>190.6</ele>
        <time>2025-10-26T11:51:06Z</time>
      </trkpt>
      <trkpt lat="43.51187" lon="6.69837">
        <ele>190.5</ele>
        <time>2025-10-26T11:51:07Z</time>
      </trkpt>
      <trkpt lat="43.51187" lon="6.69837">
        <ele>190.4</ele>
        <time>2025-10-26T11:51:08Z</time>
      </trkpt>
      <trkpt lat="43.51187" lon="6.69837">
        <ele>190.3</ele>
        <time>2025-10-26T11:51:09Z</time>
      </trkpt>
      <trkpt lat="43.51187" lon="6.69837">
        <ele>190.2</ele>
        <time>2025-10-26T11:51:10Z</time>
      </trkpt>
      <trkpt lat="43.51187" lon="6.69838">
        <ele>190.2</ele>
        <time>2025-10-26T11:51:11Z</time>
      </trkpt>
      <trkpt lat="43.51187" lon="6.69838">
        <ele>190.1</ele>
        <time>2025-10-26T11:51:12Z</time>
      </trkpt>
      <trkpt lat="43.51187" lon="6.69838">
        <ele>190</ele>
        <time>2025-10-26T11:51:13Z</time>
      </trkpt>
      <trkpt lat="43.51187" lon="6.69838">
        <ele>189.9</ele>
        <time>2025-10-26T11:51:14Z</time>
      </trkpt>
      <trkpt lat="43.51187" lon="6.69838">
        <ele>189.9</ele>
        <time>2025-10-26T11:51:15Z</time>
      </trkpt>
      <trkpt lat="43.51187" lon="6.69838">
        <ele>189.9</ele>
        <time>2025-10-26T11:51:16Z</time>
      </trkpt>
      <trkpt lat="43.51187" lon="6.69838">
        <ele>190</ele>
        <time>2025-10-26T11:51:17Z</time>
      </trkpt>
      <trkpt lat="43.51187" lon="6.69838">
        <ele>190.1</ele>
        <time>2025-10-26T11:51:18Z</time>
      </trkpt>
      <trkpt lat="43.51188" lon="6.69838">
        <ele>190</ele>
        <time>2025-10-26T11:51:19Z</time>
      </trkpt>
      <trkpt lat="43.51187" lon="6.69838">
        <ele>190</ele>
        <time>2025-10-26T11:51:20Z</time>
      </trkpt>
      <trkpt lat="43.51187" lon="6.69838">
        <ele>190</ele>
        <time>2025-10-26T11:51:21Z</time>
      </trkpt>
      <trkpt lat="43.51187" lon="6.69838">
        <ele>189.9</ele>
        <time>2025-10-26T11:51:22Z</time>
      </trkpt>
      <trkpt lat="43.51187" lon="6.69838">
        <ele>189.9</ele>
        <time>2025-10-26T11:51:23Z</time>
      </trkpt>
      <trkpt lat="43.51187" lon="6.69839">
        <ele>189.9</ele>
        <time>2025-10-26T11:51:24Z</time>
      </trkpt>
      <trkpt lat="43.51187" lon="6.69839">
        <ele>189.9</ele>
        <time>2025-10-26T11:51:25Z</time>
      </trkpt>
      <trkpt lat="43.51187" lon="6.69839">
        <ele>189.9</ele>
        <time>2025-10-26T11:51:26Z</time>
      </trkpt>
      <trkpt lat="43.51187" lon="6.69839">
        <ele>189.9</ele>
        <time>2025-10-26T11:51:27Z</time>
      </trkpt>
      <trkpt lat="43.51187" lon="6.69839">
        <ele>190</ele>
        <time>2025-10-26T11:51:28Z</time>
      </trkpt>
      <trkpt lat="43.51187" lon="6.69839">
        <ele>190</ele>
        <time>2025-10-26T11:51:29Z</time>
      </trkpt>
      <trkpt lat="43.51187" lon="6.69839">
        <ele>190.1</ele>
        <time>2025-10-26T11:51:30Z</time>
      </trkpt>
      <trkpt lat="43.51187" lon="6.69839">
        <ele>190.1</ele>
        <time>2025-10-26T11:51:31Z</time>
      </trkpt>
      <trkpt lat="43.51188" lon="6.69839">
        <ele>190.2</ele>
        <time>2025-10-26T11:51:32Z</time>
      </trkpt>
      <trkpt lat="43.51188" lon="6.69839">
        <ele>190.3</ele>
        <time>2025-10-26T11:51:33Z</time>
      </trkpt>
      <trkpt lat="43.51188" lon="6.69839">
        <ele>190.5</ele>
        <time>2025-10-26T11:51:34Z</time>
      </trkpt>
      <trkpt lat="43.51188" lon="6.69838">
        <ele>190.6</ele>
        <time>2025-10-26T11:51:35Z</time>
      </trkpt>
      <trkpt lat="43.51188" lon="6.69838">
        <ele>190.6</ele>
        <time>2025-10-26T11:51:36Z</time>
      </trkpt>
      <trkpt lat="43.51189" lon="6.69837">
        <ele>190.7</ele>
        <time>2025-10-26T11:51:37Z</time>
      </trkpt>
      <trkpt lat="43.51189" lon="6.69837">
        <ele>190.7</ele>
        <time>2025-10-26T11:51:38Z</time>
      </trkpt>
      <trkpt lat="43.51189" lon="6.69836">
        <ele>190.7</ele>
        <time>2025-10-26T11:51:39Z</time>
      </trkpt>
      <trkpt lat="43.5119" lon="6.69836">
        <ele>190.8</ele>
        <time>2025-10-26T11:51:40Z</time>
      </trkpt>
      <trkpt lat="43.5119" lon="6.69836">
        <ele>191</ele>
        <time>2025-10-26T11:51:41Z</time>
      </trkpt>
      <trkpt lat="43.5119" lon="6.69835">
        <ele>191.1</ele>
        <time>2025-10-26T11:51:42Z</time>
      </trkpt>
      <trkpt lat="43.51191" lon="6.69836">
        <ele>191.2</ele>
        <time>2025-10-26T11:51:43Z</time>
      </trkpt>
      <trkpt lat="43.51191" lon="6.69836">
        <ele>191.3</ele>
        <time>2025-10-26T11:51:44Z</time>
      </trkpt>
      <trkpt lat="43.51192" lon="6.69836">
        <ele>191.5</ele>
        <time>2025-10-26T11:51:45Z</time>
      </trkpt>
      <trkpt lat="43.51192" lon="6.69836">
        <ele>191.7</ele>
        <time>2025-10-26T11:51:46Z</time>
      </trkpt>
      <trkpt lat="43.51192" lon="6.69836">
        <ele>191.9</ele>
        <time>2025-10-26T11:51:47Z</time>
      </trkpt>
      <trkpt lat="43.51193" lon="6.69836">
        <ele>192</ele>
        <time>2025-10-26T11:51:48Z</time>
      </trkpt>
      <trkpt lat="43.51193" lon="6.69836">
        <ele>192.2</ele>
        <time>2025-10-26T11:51:49Z</time>
      </trkpt>
      <trkpt lat="43.51193" lon="6.69836">
        <ele>192.3</ele>
        <time>2025-10-26T11:51:50Z</time>
      </trkpt>
      <trkpt lat="43.51193" lon="6.69836">
        <ele>192.5</ele>
        <time>2025-10-26T11:51:51Z</time>
      </trkpt>
      <trkpt lat="43.51193" lon="6.69836">
        <ele>192.7</ele>
        <time>2025-10-26T11:51:52Z</time>
      </trkpt>
      <trkpt lat="43.51193" lon="6.69836">
        <ele>192.9</ele>
        <time>2025-10-26T11:51:53Z</time>
      </trkpt>
      <trkpt lat="43.51193" lon="6.69837">
        <ele>193</ele>
        <time>2025-10-26T11:51:54Z</time>
      </trkpt>
      <trkpt lat="43.51193" lon="6.69837">
        <ele>193</ele>
        <time>2025-10-26T11:51:55Z</time>
      </trkpt>
      <trkpt lat="43.51193" lon="6.69837">
        <ele>193</ele>
        <time>2025-10-26T11:51:56Z</time>
      </trkpt>
      <trkpt lat="43.51193" lon="6.69836">
        <ele>193</ele>
        <time>2025-10-26T11:51:57Z</time>
      </trkpt>
      <trkpt lat="43.51194" lon="6.69836">
        <ele>193</ele>
        <time>2025-10-26T11:51:58Z</time>
      </trkpt>
      <trkpt lat="43.51194" lon="6.69836">
        <ele>192.9</ele>
        <time>2025-10-26T11:51:59Z</time>
      </trkpt>
      <trkpt lat="43.51194" lon="6.69835">
        <ele>192.8</ele>
        <time>2025-10-26T11:52:00Z</time>
      </trkpt>
      <trkpt lat="43.51195" lon="6.69835">
        <ele>192.8</ele>
        <time>2025-10-26T11:52:01Z</time>
      </trkpt>
      <trkpt lat="43.51195" lon="6.69834">
        <ele>192.9</ele>
        <time>2025-10-26T11:52:02Z</time>
      </trkpt>
      <trkpt lat="43.51195" lon="6.69833">
        <ele>192.9</ele>
        <time>2025-10-26T11:52:03Z</time>
      </trkpt>
      <trkpt lat="43.51196" lon="6.69832">
        <ele>193</ele>
        <time>2025-10-26T11:52:04Z</time>
      </trkpt>
      <trkpt lat="43.51196" lon="6.69831">
        <ele>193.1</ele>
        <time>2025-10-26T11:52:05Z</time>
      </trkpt>
      <trkpt lat="43.51196" lon="6.69831">
        <ele>193.2</ele>
        <time>2025-10-26T11:52:06Z</time>
      </trkpt>
      <trkpt lat="43.51196" lon="6.6983">
        <ele>193.2</ele>
        <time>2025-10-26T11:52:07Z</time>
      </trkpt>
      <trkpt lat="43.51196" lon="6.6983">
        <ele>193.3</ele>
        <time>2025-10-26T11:52:08Z</time>
      </trkpt>
      <trkpt lat="43.51195" lon="6.6983">
        <ele>193.3</ele>
        <time>2025-10-26T11:52:09Z</time>
      </trkpt>
      <trkpt lat="43.51195" lon="6.69831">
        <ele>193.2</ele>
        <time>2025-10-26T11:52:10Z</time>
      </trkpt>
      <trkpt lat="43.51196" lon="6.69831">
        <ele>193.3</ele>
        <time>2025-10-26T11:52:11Z</time>
      </trkpt>
      <trkpt lat="43.51196" lon="6.69831">
        <ele>193.4</ele>
        <time>2025-10-26T11:52:12Z</time>
      </trkpt>
      <trkpt lat="43.51196" lon="6.69831">
        <ele>193.4</ele>
        <time>2025-10-26T11:52:13Z</time>
      </trkpt>
      <trkpt lat="43.51196" lon="6.69831">
        <ele>193.4</ele>
        <time>2025-10-26T11:52:14Z</time>
      </trkpt>
      <trkpt lat="43.51197" lon="6.69831">
        <ele>193.4</ele>
        <time>2025-10-26T11:52:15Z</time>
      </trkpt>
      <trkpt lat="43.51197" lon="6.69831">
        <ele>193.5</ele>
        <time>2025-10-26T11:52:16Z</time>
      </trkpt>
      <trkpt lat="43.51197" lon="6.69831">
        <ele>193.5</ele>
        <time>2025-10-26T11:52:17Z</time>
      </trkpt>
      <trkpt lat="43.51197" lon="6.6983">
        <ele>193.5</ele>
        <time>2025-10-26T11:52:18Z</time>
      </trkpt>
      <trkpt lat="43.51197" lon="6.6983">
        <ele>193.5</ele>
        <time>2025-10-26T11:52:19Z</time>
      </trkpt>
      <trkpt lat="43.51197" lon="6.6983">
        <ele>193.4</ele>
        <time>2025-10-26T11:52:20Z</time>
      </trkpt>
      <trkpt lat="43.51196" lon="6.6983">
        <ele>193.4</ele>
        <time>2025-10-26T11:52:21Z</time>
      </trkpt>
      <trkpt lat="43.51196" lon="6.6983">
        <ele>193.4</ele>
        <time>2025-10-26T11:52:22Z</time>
      </trkpt>
      <trkpt lat="43.51196" lon="6.6983">
        <ele>193.4</ele>
        <time>2025-10-26T11:52:23Z</time>
      </trkpt>
      <trkpt lat="43.51196" lon="6.6983">
        <ele>193.4</ele>
        <time>2025-10-26T11:52:24Z</time>
      </trkpt>
      <trkpt lat="43.51196" lon="6.6983">
        <ele>193.3</ele>
        <time>2025-10-26T11:52:25Z</time>
      </trkpt>
      <trkpt lat="43.51196" lon="6.6983">
        <ele>193.3</ele>
        <time>2025-10-26T11:52:26Z</time>
      </trkpt>
      <trkpt lat="43.51196" lon="6.6983">
        <ele>193.3</ele>
        <time>2025-10-26T11:52:27Z</time>
      </trkpt>
      <trkpt lat="43.51196" lon="6.69831">
        <ele>193.3</ele>
        <time>2025-10-26T11:52:28Z</time>
      </trkpt>
      <trkpt lat="43.51196" lon="6.69831">
        <ele>193.3</ele>
        <time>2025-10-26T11:52:29Z</time>
      </trkpt>
      <trkpt lat="43.51196" lon="6.69831">
        <ele>193.3</ele>
        <time>2025-10-26T11:52:30Z</time>
      </trkpt>
      <trkpt lat="43.51196" lon="6.69831">
        <ele>193.3</ele>
        <time>2025-10-26T11:52:31Z</time>
      </trkpt>
      <trkpt lat="43.51195" lon="6.69831">
        <ele>193.3</ele>
        <time>2025-10-26T11:52:32Z</time>
      </trkpt>
      <trkpt lat="43.51195" lon="6.69831">
        <ele>193.3</ele>
        <time>2025-10-26T11:52:33Z</time>
      </trkpt>
      <trkpt lat="43.51195" lon="6.69831">
        <ele>193.3</ele>
        <time>2025-10-26T11:52:34Z</time>
      </trkpt>
      <trkpt lat="43.51195" lon="6.69831">
        <ele>193.3</ele>
        <time>2025-10-26T11:52:35Z</time>
      </trkpt>
      <trkpt lat="43.51195" lon="6.6983">
        <ele>193.3</ele>
        <time>2025-10-26T11:52:36Z</time>
      </trkpt>
      <trkpt lat="43.51195" lon="6.69831">
        <ele>193.3</ele>
        <time>2025-10-26T11:52:37Z</time>
      </trkpt>
      <trkpt lat="43.51195" lon="6.69831">
        <ele>193.4</ele>
        <time>2025-10-26T11:52:38Z</time>
      </trkpt>
      <trkpt lat="43.51195" lon="6.69831">
        <ele>193.5</ele>
        <time>2025-10-26T11:52:39Z</time>
      </trkpt>
      <trkpt lat="43.51195" lon="6.69831">
        <ele>193.5</ele>
        <time>2025-10-26T11:52:40Z</time>
      </trkpt>
      <trkpt lat="43.51195" lon="6.69831">
        <ele>193.5</ele>
        <time>2025-10-26T11:52:41Z</time>
      </trkpt>
      <trkpt lat="43.51195" lon="6.69831">
        <ele>193.5</ele>
        <time>2025-10-26T11:52:42Z</time>
      </trkpt>
      <trkpt lat="43.51195" lon="6.69831">
        <ele>193.5</ele>
        <time>2025-10-26T11:52:43Z</time>
      </trkpt>
      <trkpt lat="43.51195" lon="6.69831">
        <ele>193.6</ele>
        <time>2025-10-26T11:52:44Z</time>
      </trkpt>
      <trkpt lat="43.51195" lon="6.69831">
        <ele>193.6</ele>
        <time>2025-10-26T11:52:45Z</time>
      </trkpt>
      <trkpt lat="43.51195" lon="6.69831">
        <ele>193.5</ele>
        <time>2025-10-26T11:52:46Z</time>
      </trkpt>
      <trkpt lat="43.51195" lon="6.6983">
        <ele>193.5</ele>
        <time>2025-10-26T11:52:47Z</time>
      </trkpt>
      <trkpt lat="43.51195" lon="6.6983">
        <ele>193.5</ele>
        <time>2025-10-26T11:52:48Z</time>
      </trkpt>
      <trkpt lat="43.51195" lon="6.6983">
        <ele>193.5</ele>
        <time>2025-10-26T11:52:49Z</time>
      </trkpt>
      <trkpt lat="43.51195" lon="6.6983">
        <ele>193.4</ele>
        <time>2025-10-26T11:52:50Z</time>
      </trkpt>
      <trkpt lat="43.51194" lon="6.6983">
        <ele>193.3</ele>
        <time>2025-10-26T11:52:51Z</time>
      </trkpt>
      <trkpt lat="43.51194" lon="6.6983">
        <ele>193.1</ele>
        <time>2025-10-26T11:52:52Z</time>
      </trkpt>
      <trkpt lat="43.51194" lon="6.6983">
        <ele>193</ele>
        <time>2025-10-26T11:52:53Z</time>
      </trkpt>
      <trkpt lat="43.51195" lon="6.69829">
        <ele>192.9</ele>
        <time>2025-10-26T11:52:54Z</time>
      </trkpt>
      <trkpt lat="43.51195" lon="6.69829">
        <ele>192.8</ele>
        <time>2025-10-26T11:52:55Z</time>
      </trkpt>
      <trkpt lat="43.51195" lon="6.69829">
        <ele>192.8</ele>
        <time>2025-10-26T11:52:56Z</time>
      </trkpt>
      <trkpt lat="43.51195" lon="6.69829">
        <ele>192.7</ele>
        <time>2025-10-26T11:52:57Z</time>
      </trkpt>
      <trkpt lat="43.51195" lon="6.69829">
        <ele>192.7</ele>
        <time>2025-10-26T11:52:58Z</time>
      </trkpt>
      <trkpt lat="43.51195" lon="6.69829">
        <ele>192.8</ele>
        <time>2025-10-26T11:52:59Z</time>
      </trkpt>
      <trkpt lat="43.51195" lon="6.69829">
        <ele>193</ele>
        <time>2025-10-26T11:53:00Z</time>
      </trkpt>
      <trkpt lat="43.51196" lon="6.69828">
        <ele>193.1</ele>
        <time>2025-10-26T11:53:01Z</time>
      </trkpt>
      <trkpt lat="43.51196" lon="6.69828">
        <ele>193.1</ele>
        <time>2025-10-26T11:53:02Z</time>
      </trkpt>
      <trkpt lat="43.51196" lon="6.69828">
        <ele>193.1</ele>
        <time>2025-10-26T11:53:03Z</time>
      </trkpt>
      <trkpt lat="43.51196" lon="6.69828">
        <ele>193.1</ele>
        <time>2025-10-26T11:53:04Z</time>
      </trkpt>
      <trkpt lat="43.51196" lon="6.69828">
        <ele>193.1</ele>
        <time>2025-10-26T11:53:05Z</time>
      </trkpt>
      <trkpt lat="43.51196" lon="6.69828">
        <ele>193.1</ele>
        <time>2025-10-26T11:53:06Z</time>
      </trkpt>
      <trkpt lat="43.51196" lon="6.69828">
        <ele>193.2</ele>
        <time>2025-10-26T11:53:07Z</time>
      </trkpt>
      <trkpt lat="43.51196" lon="6.69828">
        <ele>193.2</ele>
        <time>2025-10-26T11:53:08Z</time>
      </trkpt>
      <trkpt lat="43.51196" lon="6.69828">
        <ele>193.2</ele>
        <time>2025-10-26T11:53:09Z</time>
      </trkpt>
      <trkpt lat="43.51196" lon="6.69828">
        <ele>193.2</ele>
        <time>2025-10-26T11:53:10Z</time>
      </trkpt>
      <trkpt lat="43.51196" lon="6.69828">
        <ele>193.2</ele>
        <time>2025-10-26T11:53:11Z</time>
      </trkpt>
      <trkpt lat="43.51196" lon="6.69828">
        <ele>193.2</ele>
        <time>2025-10-26T11:53:12Z</time>
      </trkpt>
      <trkpt lat="43.51196" lon="6.69827">
        <ele>193.3</ele>
        <time>2025-10-26T11:53:13Z</time>
      </trkpt>
      <trkpt lat="43.51196" lon="6.69827">
        <ele>193.3</ele>
        <time>2025-10-26T11:53:14Z</time>
      </trkpt>
      <trkpt lat="43.51196" lon="6.69827">
        <ele>193.2</ele>
        <time>2025-10-26T11:53:15Z</time>
      </trkpt>
      <trkpt lat="43.51196" lon="6.69827">
        <ele>193.2</ele>
        <time>2025-10-26T11:53:16Z</time>
      </trkpt>
      <trkpt lat="43.51196" lon="6.69827">
        <ele>193.1</ele>
        <time>2025-10-26T11:53:17Z</time>
      </trkpt>
      <trkpt lat="43.51196" lon="6.69827">
        <ele>193.2</ele>
        <time>2025-10-26T11:53:18Z</time>
      </trkpt>
      <trkpt lat="43.51196" lon="6.69827">
        <ele>193.2</ele>
        <time>2025-10-26T11:53:19Z</time>
      </trkpt>
      <trkpt lat="43.51196" lon="6.69827">
        <ele>193.2</ele>
        <time>2025-10-26T11:53:20Z</time>
      </trkpt>
      <trkpt lat="43.51196" lon="6.69827">
        <ele>193.2</ele>
        <time>2025-10-26T11:53:21Z</time>
      </trkpt>
      <trkpt lat="43.51197" lon="6.69826">
        <ele>193.3</ele>
        <time>2025-10-26T11:53:22Z</time>
      </trkpt>
      <trkpt lat="43.51197" lon="6.69826">
        <ele>193.3</ele>
        <time>2025-10-26T11:53:23Z</time>
      </trkpt>
      <trkpt lat="43.51197" lon="6.69826">
        <ele>193.4</ele>
        <time>2025-10-26T11:53:24Z</time>
      </trkpt>
      <trkpt lat="43.51197" lon="6.69826">
        <ele>193.4</ele>
        <time>2025-10-26T11:53:25Z</time>
      </trkpt>
      <trkpt lat="43.51197" lon="6.69826">
        <ele>193.5</ele>
        <time>2025-10-26T11:53:26Z</time>
      </trkpt>
      <trkpt lat="43.51196" lon="6.69826">
        <ele>193.5</ele>
        <time>2025-10-26T11:53:27Z</time>
      </trkpt>
      <trkpt lat="43.51196" lon="6.69826">
        <ele>193.5</ele>
        <time>2025-10-26T11:53:28Z</time>
      </trkpt>
      <trkpt lat="43.51196" lon="6.69825">
        <ele>193.5</ele>
        <time>2025-10-26T11:53:29Z</time>
      </trkpt>
      <trkpt lat="43.51197" lon="6.69825">
        <ele>193.5</ele>
        <time>2025-10-26T11:53:30Z</time>
      </trkpt>
      <trkpt lat="43.51197" lon="6.69826">
        <ele>193.2</ele>
        <time>2025-10-26T11:53:31Z</time>
      </trkpt>
      <trkpt lat="43.51196" lon="6.69826">
        <ele>193.1</ele>
        <time>2025-10-26T11:53:32Z</time>
      </trkpt>
      <trkpt lat="43.51196" lon="6.69827">
        <ele>193</ele>
        <time>2025-10-26T11:53:33Z</time>
      </trkpt>
      <trkpt lat="43.51196" lon="6.69827">
        <ele>193</ele>
        <time>2025-10-26T11:53:34Z</time>
      </trkpt>
      <trkpt lat="43.51196" lon="6.69827">
        <ele>193</ele>
        <time>2025-10-26T11:53:35Z</time>
      </trkpt>
      <trkpt lat="43.51196" lon="6.69827">
        <ele>193</ele>
        <time>2025-10-26T11:53:36Z</time>
      </trkpt>
      <trkpt lat="43.51196" lon="6.69827">
        <ele>193</ele>
        <time>2025-10-26T11:53:37Z</time>
      </trkpt>
      <trkpt lat="43.51196" lon="6.69827">
        <ele>193</ele>
        <time>2025-10-26T11:53:38Z</time>
      </trkpt>
      <trkpt lat="43.51196" lon="6.69828">
        <ele>193</ele>
        <time>2025-10-26T11:53:39Z</time>
      </trkpt>
      <trkpt lat="43.51196" lon="6.69828">
        <ele>193</ele>
        <time>2025-10-26T11:53:40Z</time>
      </trkpt>
      <trkpt lat="43.51195" lon="6.69828">
        <ele>192.9</ele>
        <time>2025-10-26T11:53:41Z</time>
      </trkpt>
      <trkpt lat="43.51195" lon="6.69828">
        <ele>192.8</ele>
        <time>2025-10-26T11:53:42Z</time>
      </trkpt>
      <trkpt lat="43.51195" lon="6.69828">
        <ele>192.8</ele>
        <time>2025-10-26T11:53:43Z</time>
      </trkpt>
      <trkpt lat="43.51195" lon="6.69828">
        <ele>192.7</ele>
        <time>2025-10-26T11:53:44Z</time>
      </trkpt>
      <trkpt lat="43.51195" lon="6.69828">
        <ele>192.7</ele>
        <time>2025-10-26T11:53:45Z</time>
      </trkpt>
      <trkpt lat="43.51195" lon="6.69828">
        <ele>192.6</ele>
        <time>2025-10-26T11:53:46Z</time>
      </trkpt>
      <trkpt lat="43.51195" lon="6.69828">
        <ele>192.6</ele>
        <time>2025-10-26T11:53:47Z</time>
      </trkpt>
      <trkpt lat="43.51195" lon="6.69828">
        <ele>192.6</ele>
        <time>2025-10-26T11:53:48Z</time>
      </trkpt>
      <trkpt lat="43.51195" lon="6.69828">
        <ele>192.5</ele>
        <time>2025-10-26T11:53:49Z</time>
      </trkpt>
      <trkpt lat="43.51195" lon="6.69829">
        <ele>192.5</ele>
        <time>2025-10-26T11:53:50Z</time>
      </trkpt>
      <trkpt lat="43.51194" lon="6.69829">
        <ele>192.5</ele>
        <time>2025-10-26T11:53:51Z</time>
      </trkpt>
      <trkpt lat="43.51194" lon="6.69829">
        <ele>192.5</ele>
        <time>2025-10-26T11:53:52Z</time>
      </trkpt>
      <trkpt lat="43.51194" lon="6.69829">
        <ele>192.5</ele>
        <time>2025-10-26T11:53:53Z</time>
      </trkpt>
      <trkpt lat="43.51194" lon="6.69829">
        <ele>192.5</ele>
        <time>2025-10-26T11:53:54Z</time>
      </trkpt>
      <trkpt lat="43.51194" lon="6.69829">
        <ele>192.5</ele>
        <time>2025-10-26T11:53:55Z</time>
      </trkpt>
      <trkpt lat="43.51194" lon="6.69829">
        <ele>192.4</ele>
        <time>2025-10-26T11:53:56Z</time>
      </trkpt>
      <trkpt lat="43.51194" lon="6.69829">
        <ele>192.3</ele>
        <time>2025-10-26T11:53:57Z</time>
      </trkpt>
      <trkpt lat="43.51194" lon="6.69829">
        <ele>192.3</ele>
        <time>2025-10-26T11:53:58Z</time>
      </trkpt>
      <trkpt lat="43.51195" lon="6.69829">
        <ele>192.2</ele>
        <time>2025-10-26T11:53:59Z</time>
      </trkpt>
      <trkpt lat="43.51195" lon="6.69829">
        <ele>192.2</ele>
        <time>2025-10-26T11:54:00Z</time>
      </trkpt>
      <trkpt lat="43.51195" lon="6.69829">
        <ele>192.2</ele>
        <time>2025-10-26T11:54:01Z</time>
      </trkpt>
      <trkpt lat="43.51194" lon="6.6983">
        <ele>192.3</ele>
        <time>2025-10-26T11:54:02Z</time>
      </trkpt>
      <trkpt lat="43.51194" lon="6.6983">
        <ele>192.3</ele>
        <time>2025-10-26T11:54:03Z</time>
      </trkpt>
      <trkpt lat="43.51194" lon="6.6983">
        <ele>192.2</ele>
        <time>2025-10-26T11:54:04Z</time>
      </trkpt>
      <trkpt lat="43.51194" lon="6.6983">
        <ele>192.1</ele>
        <time>2025-10-26T11:54:05Z</time>
      </trkpt>
      <trkpt lat="43.51194" lon="6.6983">
        <ele>192</ele>
        <time>2025-10-26T11:54:06Z</time>
      </trkpt>
      <trkpt lat="43.51193" lon="6.6983">
        <ele>192</ele>
        <time>2025-10-26T11:54:07Z</time>
      </trkpt>
      <trkpt lat="43.51193" lon="6.6983">
        <ele>192.1</ele>
        <time>2025-10-26T11:54:08Z</time>
      </trkpt>
      <trkpt lat="43.51193" lon="6.6983">
        <ele>192.1</ele>
        <time>2025-10-26T11:54:09Z</time>
      </trkpt>
      <trkpt lat="43.51193" lon="6.6983">
        <ele>192.1</ele>
        <time>2025-10-26T11:54:10Z</time>
      </trkpt>
      <trkpt lat="43.51193" lon="6.6983">
        <ele>192.2</ele>
        <time>2025-10-26T11:54:11Z</time>
      </trkpt>
      <trkpt lat="43.51193" lon="6.69829">
        <ele>192.2</ele>
        <time>2025-10-26T11:54:12Z</time>
      </trkpt>
      <trkpt lat="43.51193" lon="6.69829">
        <ele>192.3</ele>
        <time>2025-10-26T11:54:13Z</time>
      </trkpt>
      <trkpt lat="43.51193" lon="6.69829">
        <ele>192.4</ele>
        <time>2025-10-26T11:54:14Z</time>
      </trkpt>
      <trkpt lat="43.51193" lon="6.69829">
        <ele>192.5</ele>
        <time>2025-10-26T11:54:15Z</time>
      </trkpt>
      <trkpt lat="43.51193" lon="6.69829">
        <ele>192.6</ele>
        <time>2025-10-26T11:54:16Z</time>
      </trkpt>
      <trkpt lat="43.51193" lon="6.69829">
        <ele>192.6</ele>
        <time>2025-10-26T11:54:17Z</time>
      </trkpt>
      <trkpt lat="43.51193" lon="6.6983">
        <ele>192.6</ele>
        <time>2025-10-26T11:54:18Z</time>
      </trkpt>
      <trkpt lat="43.51192" lon="6.6983">
        <ele>192.6</ele>
        <time>2025-10-26T11:54:19Z</time>
      </trkpt>
      <trkpt lat="43.51192" lon="6.6983">
        <ele>192.6</ele>
        <time>2025-10-26T11:54:20Z</time>
      </trkpt>
      <trkpt lat="43.51192" lon="6.6983">
        <ele>192.6</ele>
        <time>2025-10-26T11:54:21Z</time>
      </trkpt>
      <trkpt lat="43.51192" lon="6.6983">
        <ele>192.6</ele>
        <time>2025-10-26T11:54:22Z</time>
      </trkpt>
      <trkpt lat="43.51192" lon="6.6983">
        <ele>192.6</ele>
        <time>2025-10-26T11:54:23Z</time>
      </trkpt>
      <trkpt lat="43.51192" lon="6.6983">
        <ele>192.6</ele>
        <time>2025-10-26T11:54:24Z</time>
      </trkpt>
      <trkpt lat="43.51192" lon="6.6983">
        <ele>192.6</ele>
        <time>2025-10-26T11:54:25Z</time>
      </trkpt>
      <trkpt lat="43.51192" lon="6.6983">
        <ele>192.6</ele>
        <time>2025-10-26T11:54:26Z</time>
      </trkpt>
      <trkpt lat="43.51192" lon="6.6983">
        <ele>192.5</ele>
        <time>2025-10-26T11:54:27Z</time>
      </trkpt>
      <trkpt lat="43.51192" lon="6.6983">
        <ele>192.4</ele>
        <time>2025-10-26T11:54:28Z</time>
      </trkpt>
      <trkpt lat="43.51192" lon="6.6983">
        <ele>192.4</ele>
        <time>2025-10-26T11:54:29Z</time>
      </trkpt>
      <trkpt lat="43.51192" lon="6.6983">
        <ele>192.3</ele>
        <time>2025-10-26T11:54:30Z</time>
      </trkpt>
      <trkpt lat="43.51192" lon="6.6983">
        <ele>192.2</ele>
        <time>2025-10-26T11:54:31Z</time>
      </trkpt>
      <trkpt lat="43.51192" lon="6.6983">
        <ele>192.2</ele>
        <time>2025-10-26T11:54:32Z</time>
      </trkpt>
      <trkpt lat="43.51192" lon="6.6983">
        <ele>192.2</ele>
        <time>2025-10-26T11:54:33Z</time>
      </trkpt>
      <trkpt lat="43.51192" lon="6.6983">
        <ele>192.2</ele>
        <time>2025-10-26T11:54:34Z</time>
      </trkpt>
      <trkpt lat="43.51192" lon="6.69831">
        <ele>192.2</ele>
        <time>2025-10-26T11:54:35Z</time>
      </trkpt>
      <trkpt lat="43.51192" lon="6.69831">
        <ele>192.2</ele>
        <time>2025-10-26T11:54:36Z</time>
      </trkpt>
      <trkpt lat="43.51192" lon="6.69831">
        <ele>192.2</ele>
        <time>2025-10-26T11:54:37Z</time>
      </trkpt>
      <trkpt lat="43.51192" lon="6.69831">
        <ele>192.2</ele>
        <time>2025-10-26T11:54:38Z</time>
      </trkpt>
      <trkpt lat="43.51192" lon="6.69831">
        <ele>192.2</ele>
        <time>2025-10-26T11:54:39Z</time>
      </trkpt>
      <trkpt lat="43.51192" lon="6.69831">
        <ele>192.2</ele>
        <time>2025-10-26T11:54:40Z</time>
      </trkpt>
      <trkpt lat="43.51192" lon="6.69831">
        <ele>192.2</ele>
        <time>2025-10-26T11:54:41Z</time>
      </trkpt>
      <trkpt lat="43.51192" lon="6.69831">
        <ele>192.1</ele>
        <time>2025-10-26T11:54:42Z</time>
      </trkpt>
      <trkpt lat="43.51192" lon="6.69831">
        <ele>192.1</ele>
        <time>2025-10-26T11:54:43Z</time>
      </trkpt>
      <trkpt lat="43.51192" lon="6.69831">
        <ele>192.1</ele>
        <time>2025-10-26T11:54:44Z</time>
      </trkpt>
      <trkpt lat="43.51192" lon="6.69831">
        <ele>191.9</ele>
        <time>2025-10-26T11:54:45Z</time>
      </trkpt>
      <trkpt lat="43.51192" lon="6.69831">
        <ele>191.9</ele>
        <time>2025-10-26T11:54:46Z</time>
      </trkpt>
      <trkpt lat="43.51192" lon="6.69831">
        <ele>191.8</ele>
        <time>2025-10-26T11:54:47Z</time>
      </trkpt>
      <trkpt lat="43.51192" lon="6.69831">
        <ele>191.7</ele>
        <time>2025-10-26T11:54:48Z</time>
      </trkpt>
      <trkpt lat="43.51192" lon="6.69831">
        <ele>191.7</ele>
        <time>2025-10-26T11:54:49Z</time>
      </trkpt>
      <trkpt lat="43.51192" lon="6.69831">
        <ele>191.7</ele>
        <time>2025-10-26T11:54:50Z</time>
      </trkpt>
      <trkpt lat="43.51192" lon="6.69831">
        <ele>191.8</ele>
        <time>2025-10-26T11:54:51Z</time>
      </trkpt>
      <trkpt lat="43.51192" lon="6.69831">
        <ele>191.9</ele>
        <time>2025-10-26T11:54:52Z</time>
      </trkpt>
      <trkpt lat="43.51192" lon="6.69831">
        <ele>191.9</ele>
        <time>2025-10-26T11:54:53Z</time>
      </trkpt>
      <trkpt lat="43.51192" lon="6.69831">
        <ele>192</ele>
        <time>2025-10-26T11:54:54Z</time>
      </trkpt>
      <trkpt lat="43.51192" lon="6.69831">
        <ele>192</ele>
        <time>2025-10-26T11:54:55Z</time>
      </trkpt>
      <trkpt lat="43.51192" lon="6.69831">
        <ele>192.1</ele>
        <time>2025-10-26T11:54:56Z</time>
      </trkpt>
      <trkpt lat="43.51192" lon="6.69831">
        <ele>192.2</ele>
        <time>2025-10-26T11:54:57Z</time>
      </trkpt>
      <trkpt lat="43.51192" lon="6.69831">
        <ele>192.1</ele>
        <time>2025-10-26T11:54:58Z</time>
      </trkpt>
      <trkpt lat="43.51192" lon="6.69831">
        <ele>192.1</ele>
        <time>2025-10-26T11:54:59Z</time>
      </trkpt>
      <trkpt lat="43.51192" lon="6.69831">
        <ele>192.1</ele>
        <time>2025-10-26T11:55:00Z</time>
      </trkpt>
      <trkpt lat="43.51192" lon="6.69831">
        <ele>192.1</ele>
        <time>2025-10-26T11:55:01Z</time>
      </trkpt>
      <trkpt lat="43.51192" lon="6.69831">
        <ele>192.2</ele>
        <time>2025-10-26T11:55:02Z</time>
      </trkpt>
      <trkpt lat="43.51192" lon="6.69831">
        <ele>192.1</ele>
        <time>2025-10-26T11:55:03Z</time>
      </trkpt>
      <trkpt lat="43.51192" lon="6.69831">
        <ele>192</ele>
        <time>2025-10-26T11:55:04Z</time>
      </trkpt>
      <trkpt lat="43.51192" lon="6.69831">
        <ele>191.9</ele>
        <time>2025-10-26T11:55:05Z</time>
      </trkpt>
      <trkpt lat="43.51192" lon="6.69831">
        <ele>192</ele>
        <time>2025-10-26T11:55:06Z</time>
      </trkpt>
      <trkpt lat="43.51192" lon="6.69831">
        <ele>192</ele>
        <time>2025-10-26T11:55:07Z</time>
      </trkpt>
      <trkpt lat="43.51192" lon="6.69831">
        <ele>192</ele>
        <time>2025-10-26T11:55:08Z</time>
      </trkpt>
      <trkpt lat="43.51192" lon="6.69831">
        <ele>192</ele>
        <time>2025-10-26T11:55:09Z</time>
      </trkpt>
      <trkpt lat="43.51192" lon="6.69831">
        <ele>192</ele>
        <time>2025-10-26T11:55:10Z</time>
      </trkpt>
      <trkpt lat="43.51192" lon="6.69831">
        <ele>192</ele>
        <time>2025-10-26T11:55:11Z</time>
      </trkpt>
      <trkpt lat="43.51191" lon="6.69831">
        <ele>192.1</ele>
        <time>2025-10-26T11:55:12Z</time>
      </trkpt>
      <trkpt lat="43.51191" lon="6.69831">
        <ele>192.1</ele>
        <time>2025-10-26T11:55:13Z</time>
      </trkpt>
      <trkpt lat="43.51191" lon="6.69831">
        <ele>192.1</ele>
        <time>2025-10-26T11:55:14Z</time>
      </trkpt>
      <trkpt lat="43.51191" lon="6.69831">
        <ele>192.1</ele>
        <time>2025-10-26T11:55:15Z</time>
      </trkpt>
      <trkpt lat="43.51191" lon="6.69831">
        <ele>192.1</ele>
        <time>2025-10-26T11:55:16Z</time>
      </trkpt>
      <trkpt lat="43.51191" lon="6.69831">
        <ele>192.1</ele>
        <time>2025-10-26T11:55:17Z</time>
      </trkpt>
      <trkpt lat="43.51191" lon="6.69831">
        <ele>192.1</ele>
        <time>2025-10-26T11:55:18Z</time>
      </trkpt>
      <trkpt lat="43.51191" lon="6.69831">
        <ele>191.9</ele>
        <time>2025-10-26T11:55:19Z</time>
      </trkpt>
      <trkpt lat="43.51191" lon="6.69831">
        <ele>191.9</ele>
        <time>2025-10-26T11:55:20Z</time>
      </trkpt>
      <trkpt lat="43.51191" lon="6.69831">
        <ele>191.9</ele>
        <time>2025-10-26T11:55:21Z</time>
      </trkpt>
      <trkpt lat="43.51191" lon="6.69831">
        <ele>191.8</ele>
        <time>2025-10-26T11:55:22Z</time>
      </trkpt>
      <trkpt lat="43.51191" lon="6.69831">
        <ele>191.9</ele>
        <time>2025-10-26T11:55:23Z</time>
      </trkpt>
      <trkpt lat="43.51191" lon="6.6983">
        <ele>192</ele>
        <time>2025-10-26T11:55:24Z</time>
      </trkpt>
      <trkpt lat="43.51191" lon="6.6983">
        <ele>192</ele>
        <time>2025-10-26T11:55:25Z</time>
      </trkpt>
      <trkpt lat="43.51191" lon="6.6983">
        <ele>192</ele>
        <time>2025-10-26T11:55:26Z</time>
      </trkpt>
      <trkpt lat="43.51191" lon="6.6983">
        <ele>192</ele>
        <time>2025-10-26T11:55:27Z</time>
      </trkpt>
      <trkpt lat="43.51191" lon="6.6983">
        <ele>192</ele>
        <time>2025-10-26T11:55:28Z</time>
      </trkpt>
      <trkpt lat="43.51191" lon="6.6983">
        <ele>192</ele>
        <time>2025-10-26T11:55:29Z</time>
      </trkpt>
      <trkpt lat="43.51191" lon="6.6983">
        <ele>192</ele>
        <time>2025-10-26T11:55:30Z</time>
      </trkpt>
      <trkpt lat="43.51191" lon="6.6983">
        <ele>192</ele>
        <time>2025-10-26T11:55:31Z</time>
      </trkpt>
      <trkpt lat="43.51191" lon="6.6983">
        <ele>192</ele>
        <time>2025-10-26T11:55:32Z</time>
      </trkpt>
      <trkpt lat="43.51191" lon="6.6983">
        <ele>192</ele>
        <time>2025-10-26T11:55:33Z</time>
      </trkpt>
      <trkpt lat="43.51191" lon="6.6983">
        <ele>192.1</ele>
        <time>2025-10-26T11:55:34Z</time>
      </trkpt>
      <trkpt lat="43.51191" lon="6.6983">
        <ele>192.2</ele>
        <time>2025-10-26T11:55:35Z</time>
      </trkpt>
      <trkpt lat="43.51191" lon="6.6983">
        <ele>192.3</ele>
        <time>2025-10-26T11:55:36Z</time>
      </trkpt>
      <trkpt lat="43.51191" lon="6.6983">
        <ele>192.3</ele>
        <time>2025-10-26T11:55:37Z</time>
      </trkpt>
      <trkpt lat="43.51191" lon="6.6983">
        <ele>192.3</ele>
        <time>2025-10-26T11:55:38Z</time>
      </trkpt>
      <trkpt lat="43.51191" lon="6.69829">
        <ele>192.3</ele>
        <time>2025-10-26T11:55:39Z</time>
      </trkpt>
      <trkpt lat="43.51191" lon="6.69829">
        <ele>192.2</ele>
        <time>2025-10-26T11:55:40Z</time>
      </trkpt>
      <trkpt lat="43.51191" lon="6.69829">
        <ele>192.2</ele>
        <time>2025-10-26T11:55:41Z</time>
      </trkpt>
      <trkpt lat="43.51191" lon="6.6983">
        <ele>192.2</ele>
        <time>2025-10-26T11:55:42Z</time>
      </trkpt>
      <trkpt lat="43.51191" lon="6.6983">
        <ele>192.2</ele>
        <time>2025-10-26T11:55:43Z</time>
      </trkpt>
      <trkpt lat="43.5119" lon="6.6983">
        <ele>192.1</ele>
        <time>2025-10-26T11:55:44Z</time>
      </trkpt>
      <trkpt lat="43.5119" lon="6.6983">
        <ele>192.1</ele>
        <time>2025-10-26T11:55:45Z</time>
      </trkpt>
      <trkpt lat="43.5119" lon="6.6983">
        <ele>192.1</ele>
        <time>2025-10-26T11:55:46Z</time>
      </trkpt>
      <trkpt lat="43.5119" lon="6.6983">
        <ele>192.1</ele>
        <time>2025-10-26T11:55:47Z</time>
      </trkpt>
      <trkpt lat="43.5119" lon="6.6983">
        <ele>192.1</ele>
        <time>2025-10-26T11:55:48Z</time>
      </trkpt>
      <trkpt lat="43.5119" lon="6.6983">
        <ele>192.1</ele>
        <time>2025-10-26T11:55:49Z</time>
      </trkpt>
      <trkpt lat="43.5119" lon="6.6983">
        <ele>192.1</ele>
        <time>2025-10-26T11:55:50Z</time>
      </trkpt>
      <trkpt lat="43.5119" lon="6.69829">
        <ele>192.2</ele>
        <time>2025-10-26T11:55:51Z</time>
      </trkpt>
      <trkpt lat="43.51191" lon="6.69829">
        <ele>192.3</ele>
        <time>2025-10-26T11:55:52Z</time>
      </trkpt>
      <trkpt lat="43.51191" lon="6.6983">
        <ele>192.3</ele>
        <time>2025-10-26T11:55:53Z</time>
      </trkpt>
      <trkpt lat="43.51191" lon="6.6983">
        <ele>192.4</ele>
        <time>2025-10-26T11:55:54Z</time>
      </trkpt>
      <trkpt lat="43.51191" lon="6.6983">
        <ele>192.5</ele>
        <time>2025-10-26T11:55:55Z</time>
      </trkpt>
      <trkpt lat="43.51191" lon="6.6983">
        <ele>192.5</ele>
        <time>2025-10-26T11:55:56Z</time>
      </trkpt>
      <trkpt lat="43.51191" lon="6.6983">
        <ele>192.6</ele>
        <time>2025-10-26T11:55:57Z</time>
      </trkpt>
      <trkpt lat="43.51191" lon="6.69831">
        <ele>192.7</ele>
        <time>2025-10-26T11:55:58Z</time>
      </trkpt>
      <trkpt lat="43.51191" lon="6.69831">
        <ele>192.7</ele>
        <time>2025-10-26T11:55:59Z</time>
      </trkpt>
      <trkpt lat="43.51191" lon="6.69831">
        <ele>192.7</ele>
        <time>2025-10-26T11:56:00Z</time>
      </trkpt>
      <trkpt lat="43.5119" lon="6.69831">
        <ele>192.7</ele>
        <time>2025-10-26T11:56:01Z</time>
      </trkpt>
      <trkpt lat="43.5119" lon="6.69831">
        <ele>192.6</ele>
        <time>2025-10-26T11:56:02Z</time>
      </trkpt>
      <trkpt lat="43.5119" lon="6.69831">
        <ele>192.5</ele>
        <time>2025-10-26T11:56:03Z</time>
      </trkpt>
      <trkpt lat="43.5119" lon="6.69832">
        <ele>192.3</ele>
        <time>2025-10-26T11:56:04Z</time>
      </trkpt>
      <trkpt lat="43.5119" lon="6.69832">
        <ele>192.3</ele>
        <time>2025-10-26T11:56:05Z</time>
      </trkpt>
      <trkpt lat="43.5119" lon="6.69832">
        <ele>192.2</ele>
        <time>2025-10-26T11:56:06Z</time>
      </trkpt>
      <trkpt lat="43.51191" lon="6.69833">
        <ele>192</ele>
        <time>2025-10-26T11:56:07Z</time>
      </trkpt>
      <trkpt lat="43.51191" lon="6.69833">
        <ele>192</ele>
        <time>2025-10-26T11:56:08Z</time>
      </trkpt>
      <trkpt lat="43.51191" lon="6.69833">
        <ele>191.9</ele>
        <time>2025-10-26T11:56:09Z</time>
      </trkpt>
      <trkpt lat="43.51191" lon="6.69833">
        <ele>191.9</ele>
        <time>2025-10-26T11:56:10Z</time>
      </trkpt>
      <trkpt lat="43.5119" lon="6.69833">
        <ele>191.8</ele>
        <time>2025-10-26T11:56:11Z</time>
      </trkpt>
      <trkpt lat="43.5119" lon="6.69833">
        <ele>191.7</ele>
        <time>2025-10-26T11:56:12Z</time>
      </trkpt>
      <trkpt lat="43.5119" lon="6.69833">
        <ele>191.7</ele>
        <time>2025-10-26T11:56:13Z</time>
      </trkpt>
      <trkpt lat="43.5119" lon="6.69833">
        <ele>191.5</ele>
        <time>2025-10-26T11:56:14Z</time>
      </trkpt>
      <trkpt lat="43.5119" lon="6.69834">
        <ele>191.4</ele>
        <time>2025-10-26T11:56:15Z</time>
      </trkpt>
      <trkpt lat="43.51189" lon="6.69834">
        <ele>191.4</ele>
        <time>2025-10-26T11:56:16Z</time>
      </trkpt>
      <trkpt lat="43.51189" lon="6.69834">
        <ele>191.1</ele>
        <time>2025-10-26T11:56:17Z</time>
      </trkpt>
      <trkpt lat="43.51189" lon="6.69834">
        <ele>191</ele>
        <time>2025-10-26T11:56:18Z</time>
      </trkpt>
      <trkpt lat="43.51188" lon="6.69835">
        <ele>191</ele>
        <time>2025-10-26T11:56:19Z</time>
      </trkpt>
      <trkpt lat="43.51188" lon="6.69836">
        <ele>191</ele>
        <time>2025-10-26T11:56:20Z</time>
      </trkpt>
      <trkpt lat="43.51187" lon="6.69836">
        <ele>190.9</ele>
        <time>2025-10-26T11:56:21Z</time>
      </trkpt>
      <trkpt lat="43.51187" lon="6.69836">
        <ele>190.8</ele>
        <time>2025-10-26T11:56:22Z</time>
      </trkpt>
      <trkpt lat="43.51186" lon="6.69836">
        <ele>190.6</ele>
        <time>2025-10-26T11:56:23Z</time>
      </trkpt>
      <trkpt lat="43.51186" lon="6.69836">
        <ele>190.5</ele>
        <time>2025-10-26T11:56:24Z</time>
      </trkpt>
      <trkpt lat="43.51186" lon="6.69836">
        <ele>190.4</ele>
        <time>2025-10-26T11:56:25Z</time>
      </trkpt>
      <trkpt lat="43.51186" lon="6.69835">
        <ele>190.3</ele>
        <time>2025-10-26T11:56:26Z</time>
      </trkpt>
      <trkpt lat="43.51186" lon="6.69835">
        <ele>190.2</ele>
        <time>2025-10-26T11:56:27Z</time>
      </trkpt>
      <trkpt lat="43.51186" lon="6.69835">
        <ele>190.1</ele>
        <time>2025-10-26T11:56:28Z</time>
      </trkpt>
      <trkpt lat="43.51185" lon="6.69834">
        <ele>189.9</ele>
        <time>2025-10-26T11:56:29Z</time>
      </trkpt>
      <trkpt lat="43.51185" lon="6.69834">
        <ele>189.7</ele>
        <time>2025-10-26T11:56:30Z</time>
      </trkpt>
      <trkpt lat="43.51185" lon="6.69833">
        <ele>189.5</ele>
        <time>2025-10-26T11:56:31Z</time>
      </trkpt>
      <trkpt lat="43.51185" lon="6.69833">
        <ele>189.4</ele>
        <time>2025-10-26T11:56:32Z</time>
      </trkpt>
      <trkpt lat="43.51185" lon="6.69832">
        <ele>189.2</ele>
        <time>2025-10-26T11:56:33Z</time>
      </trkpt>
      <trkpt lat="43.51185" lon="6.69832">
        <ele>188.9</ele>
        <time>2025-10-26T11:56:34Z</time>
      </trkpt>
      <trkpt lat="43.51185" lon="6.69832">
        <ele>188.7</ele>
        <time>2025-10-26T11:56:35Z</time>
      </trkpt>
      <trkpt lat="43.51185" lon="6.69831">
        <ele>188.6</ele>
        <time>2025-10-26T11:56:36Z</time>
      </trkpt>
      <trkpt lat="43.51184" lon="6.69831">
        <ele>188.4</ele>
        <time>2025-10-26T11:56:37Z</time>
      </trkpt>
      <trkpt lat="43.51184" lon="6.69831">
        <ele>188.2</ele>
        <time>2025-10-26T11:56:38Z</time>
      </trkpt>
      <trkpt lat="43.51184" lon="6.69831">
        <ele>188.2</ele>
        <time>2025-10-26T11:56:39Z</time>
      </trkpt>
      <trkpt lat="43.51184" lon="6.69831">
        <ele>188</ele>
        <time>2025-10-26T11:56:40Z</time>
      </trkpt>
      <trkpt lat="43.51184" lon="6.69831">
        <ele>188</ele>
        <time>2025-10-26T11:56:41Z</time>
      </trkpt>
      <trkpt lat="43.51184" lon="6.69831">
        <ele>187.9</ele>
        <time>2025-10-26T11:56:42Z</time>
      </trkpt>
      <trkpt lat="43.51184" lon="6.6983">
        <ele>187.8</ele>
        <time>2025-10-26T11:56:43Z</time>
      </trkpt>
      <trkpt lat="43.51184" lon="6.6983">
        <ele>187.8</ele>
        <time>2025-10-26T11:56:44Z</time>
      </trkpt>
      <trkpt lat="43.51184" lon="6.6983">
        <ele>187.8</ele>
        <time>2025-10-26T11:56:45Z</time>
      </trkpt>
      <trkpt lat="43.51183" lon="6.6983">
        <ele>187.7</ele>
        <time>2025-10-26T11:56:46Z</time>
      </trkpt>
      <trkpt lat="43.51183" lon="6.6983">
        <ele>187.7</ele>
        <time>2025-10-26T11:56:47Z</time>
      </trkpt>
      <trkpt lat="43.51183" lon="6.69829">
        <ele>187.7</ele>
        <time>2025-10-26T11:56:48Z</time>
      </trkpt>
      <trkpt lat="43.51183" lon="6.69829">
        <ele>187.6</ele>
        <time>2025-10-26T11:56:49Z</time>
      </trkpt>
      <trkpt lat="43.51183" lon="6.69829">
        <ele>187.5</ele>
        <time>2025-10-26T11:56:50Z</time>
      </trkpt>
      <trkpt lat="43.51183" lon="6.69829">
        <ele>187.3</ele>
        <time>2025-10-26T11:56:51Z</time>
      </trkpt>
      <trkpt lat="43.51183" lon="6.69829">
        <ele>187.1</ele>
        <time>2025-10-26T11:56:52Z</time>
      </trkpt>
      <trkpt lat="43.51183" lon="6.69829">
        <ele>187</ele>
        <time>2025-10-26T11:56:53Z</time>
      </trkpt>
      <trkpt lat="43.51183" lon="6.69829">
        <ele>187</ele>
        <time>2025-10-26T11:56:54Z</time>
      </trkpt>
      <trkpt lat="43.51183" lon="6.69829">
        <ele>186.9</ele>
        <time>2025-10-26T11:56:55Z</time>
      </trkpt>
      <trkpt lat="43.51183" lon="6.69828">
        <ele>186.8</ele>
        <time>2025-10-26T11:56:56Z</time>
      </trkpt>
      <trkpt lat="43.51183" lon="6.69828">
        <ele>186.8</ele>
        <time>2025-10-26T11:56:57Z</time>
      </trkpt>
      <trkpt lat="43.51183" lon="6.69828">
        <ele>186.7</ele>
        <time>2025-10-26T11:56:58Z</time>
      </trkpt>
      <trkpt lat="43.51183" lon="6.69828">
        <ele>186.7</ele>
        <time>2025-10-26T11:56:59Z</time>
      </trkpt>
      <trkpt lat="43.51183" lon="6.69828">
        <ele>186.7</ele>
        <time>2025-10-26T11:57:00Z</time>
      </trkpt>
      <trkpt lat="43.51183" lon="6.69828">
        <ele>186.8</ele>
        <time>2025-10-26T11:57:01Z</time>
      </trkpt>
      <trkpt lat="43.51183" lon="6.69828">
        <ele>186.8</ele>
        <time>2025-10-26T11:57:02Z</time>
      </trkpt>
      <trkpt lat="43.51183" lon="6.69828">
        <ele>187</ele>
        <time>2025-10-26T11:57:03Z</time>
      </trkpt>
      <trkpt lat="43.51183" lon="6.69828">
        <ele>187.1</ele>
        <time>2025-10-26T11:57:04Z</time>
      </trkpt>
      <trkpt lat="43.51183" lon="6.69828">
        <ele>187.2</ele>
        <time>2025-10-26T11:57:05Z</time>
      </trkpt>
      <trkpt lat="43.51183" lon="6.69828">
        <ele>187.2</ele>
        <time>2025-10-26T11:57:06Z</time>
      </trkpt>
      <trkpt lat="43.51183" lon="6.69827">
        <ele>187.3</ele>
        <time>2025-10-26T11:57:07Z</time>
      </trkpt>
      <trkpt lat="43.51183" lon="6.69826">
        <ele>187.3</ele>
        <time>2025-10-26T11:57:08Z</time>
      </trkpt>
      <trkpt lat="43.51183" lon="6.69826">
        <ele>187.4</ele>
        <time>2025-10-26T11:57:09Z</time>
      </trkpt>
      <trkpt lat="43.51184" lon="6.69826">
        <ele>187.6</ele>
        <time>2025-10-26T11:57:10Z</time>
      </trkpt>
      <trkpt lat="43.51184" lon="6.69826">
        <ele>187.7</ele>
        <time>2025-10-26T11:57:11Z</time>
      </trkpt>
      <trkpt lat="43.51184" lon="6.69825">
        <ele>187.8</ele>
        <time>2025-10-26T11:57:12Z</time>
      </trkpt>
      <trkpt lat="43.51184" lon="6.69824">
        <ele>187.8</ele>
        <time>2025-10-26T11:57:13Z</time>
      </trkpt>
      <trkpt lat="43.51183" lon="6.69824">
        <ele>187.8</ele>
        <time>2025-10-26T11:57:14Z</time>
      </trkpt>
      <trkpt lat="43.51183" lon="6.69823">
        <ele>187.9</ele>
        <time>2025-10-26T11:57:15Z</time>
      </trkpt>
      <trkpt lat="43.51183" lon="6.69822">
        <ele>187.9</ele>
        <time>2025-10-26T11:57:16Z</time>
      </trkpt>
      <trkpt lat="43.51183" lon="6.69821">
        <ele>187.9</ele>
        <time>2025-10-26T11:57:17Z</time>
      </trkpt>
      <trkpt lat="43.51183" lon="6.69821">
        <ele>187.9</ele>
        <time>2025-10-26T11:57:18Z</time>
      </trkpt>
      <trkpt lat="43.51182" lon="6.69821">
        <ele>187.9</ele>
        <time>2025-10-26T11:57:19Z</time>
      </trkpt>
      <trkpt lat="43.51182" lon="6.6982">
        <ele>187.9</ele>
        <time>2025-10-26T11:57:20Z</time>
      </trkpt>
      <trkpt lat="43.51182" lon="6.6982">
        <ele>187.8</ele>
        <time>2025-10-26T11:57:21Z</time>
      </trkpt>
      <trkpt lat="43.51181" lon="6.69819">
        <ele>187.7</ele>
        <time>2025-10-26T11:57:22Z</time>
      </trkpt>
      <trkpt lat="43.51181" lon="6.69819">
        <ele>187.7</ele>
        <time>2025-10-26T11:57:23Z</time>
      </trkpt>
      <trkpt lat="43.51181" lon="6.69819">
        <ele>187.6</ele>
        <time>2025-10-26T11:57:24Z</time>
      </trkpt>
      <trkpt lat="43.51181" lon="6.69819">
        <ele>187.5</ele>
        <time>2025-10-26T11:57:25Z</time>
      </trkpt>
      <trkpt lat="43.5118" lon="6.69819">
        <ele>187.5</ele>
        <time>2025-10-26T11:57:26Z</time>
      </trkpt>
      <trkpt lat="43.5118" lon="6.69819">
        <ele>187.4</ele>
        <time>2025-10-26T11:57:27Z</time>
      </trkpt>
      <trkpt lat="43.5118" lon="6.69819">
        <ele>187.4</ele>
        <time>2025-10-26T11:57:28Z</time>
      </trkpt>
      <trkpt lat="43.5118" lon="6.69818">
        <ele>187.4</ele>
        <time>2025-10-26T11:57:29Z</time>
      </trkpt>
      <trkpt lat="43.5118" lon="6.69818">
        <ele>187.3</ele>
        <time>2025-10-26T11:57:30Z</time>
      </trkpt>
      <trkpt lat="43.51179" lon="6.69817">
        <ele>187.2</ele>
        <time>2025-10-26T11:57:31Z</time>
      </trkpt>
      <trkpt lat="43.51179" lon="6.69816">
        <ele>187.1</ele>
        <time>2025-10-26T11:57:32Z</time>
      </trkpt>
      <trkpt lat="43.51179" lon="6.69816">
        <ele>186.9</ele>
        <time>2025-10-26T11:57:33Z</time>
      </trkpt>
      <trkpt lat="43.51179" lon="6.69815">
        <ele>187</ele>
        <time>2025-10-26T11:57:34Z</time>
      </trkpt>
      <trkpt lat="43.51179" lon="6.69814">
        <ele>187</ele>
        <time>2025-10-26T11:57:35Z</time>
      </trkpt>
      <trkpt lat="43.51179" lon="6.69813">
        <ele>186.7</ele>
        <time>2025-10-26T11:57:36Z</time>
      </trkpt>
      <trkpt lat="43.51179" lon="6.69812">
        <ele>186.6</ele>
        <time>2025-10-26T11:57:37Z</time>
      </trkpt>
      <trkpt lat="43.51179" lon="6.69812">
        <ele>186.4</ele>
        <time>2025-10-26T11:57:38Z</time>
      </trkpt>
      <trkpt lat="43.51179" lon="6.69811">
        <ele>186.3</ele>
        <time>2025-10-26T11:57:39Z</time>
      </trkpt>
      <trkpt lat="43.51179" lon="6.69811">
        <ele>186.3</ele>
        <time>2025-10-26T11:57:40Z</time>
      </trkpt>
      <trkpt lat="43.51179" lon="6.6981">
        <ele>186.2</ele>
        <time>2025-10-26T11:57:41Z</time>
      </trkpt>
      <trkpt lat="43.51179" lon="6.6981">
        <ele>186</ele>
        <time>2025-10-26T11:57:42Z</time>
      </trkpt>
      <trkpt lat="43.51179" lon="6.69809">
        <ele>185.9</ele>
        <time>2025-10-26T11:57:43Z</time>
      </trkpt>
      <trkpt lat="43.51179" lon="6.69808">
        <ele>185.8</ele>
        <time>2025-10-26T11:57:44Z</time>
      </trkpt>
      <trkpt lat="43.51179" lon="6.69807">
        <ele>185.7</ele>
        <time>2025-10-26T11:57:45Z</time>
      </trkpt>
      <trkpt lat="43.51178" lon="6.69807">
        <ele>185.5</ele>
        <time>2025-10-26T11:57:46Z</time>
      </trkpt>
      <trkpt lat="43.51178" lon="6.69806">
        <ele>185.2</ele>
        <time>2025-10-26T11:57:47Z</time>
      </trkpt>
      <trkpt lat="43.51178" lon="6.69806">
        <ele>185.2</ele>
        <time>2025-10-26T11:57:48Z</time>
      </trkpt>
      <trkpt lat="43.51178" lon="6.69806">
        <ele>185.1</ele>
        <time>2025-10-26T11:57:49Z</time>
      </trkpt>
      <trkpt lat="43.51178" lon="6.69806">
        <ele>184.9</ele>
        <time>2025-10-26T11:57:50Z</time>
      </trkpt>
      <trkpt lat="43.51178" lon="6.69806">
        <ele>184.8</ele>
        <time>2025-10-26T11:57:51Z</time>
      </trkpt>
      <trkpt lat="43.51178" lon="6.69806">
        <ele>184.7</ele>
        <time>2025-10-26T11:57:52Z</time>
      </trkpt>
      <trkpt lat="43.51178" lon="6.69806">
        <ele>184.6</ele>
        <time>2025-10-26T11:57:53Z</time>
      </trkpt>
      <trkpt lat="43.51178" lon="6.69806">
        <ele>184.6</ele>
        <time>2025-10-26T11:57:54Z</time>
      </trkpt>
      <trkpt lat="43.51178" lon="6.69806">
        <ele>184.5</ele>
        <time>2025-10-26T11:57:55Z</time>
      </trkpt>
      <trkpt lat="43.51178" lon="6.69806">
        <ele>184.4</ele>
        <time>2025-10-26T11:57:56Z</time>
      </trkpt>
      <trkpt lat="43.51178" lon="6.69806">
        <ele>184.3</ele>
        <time>2025-10-26T11:57:57Z</time>
      </trkpt>
      <trkpt lat="43.51178" lon="6.69805">
        <ele>184.2</ele>
        <time>2025-10-26T11:57:58Z</time>
      </trkpt>
      <trkpt lat="43.51178" lon="6.69804">
        <ele>184.1</ele>
        <time>2025-10-26T11:57:59Z</time>
      </trkpt>
      <trkpt lat="43.51178" lon="6.69803">
        <ele>184</ele>
        <time>2025-10-26T11:58:00Z</time>
      </trkpt>
      <trkpt lat="43.51177" lon="6.69802">
        <ele>183.9</ele>
        <time>2025-10-26T11:58:01Z</time>
      </trkpt>
      <trkpt lat="43.51177" lon="6.69801">
        <ele>183.7</ele>
        <time>2025-10-26T11:58:02Z</time>
      </trkpt>
      <trkpt lat="43.51177" lon="6.69801">
        <ele>183.6</ele>
        <time>2025-10-26T11:58:03Z</time>
      </trkpt>
      <trkpt lat="43.51177" lon="6.698">
        <ele>183.5</ele>
        <time>2025-10-26T11:58:04Z</time>
      </trkpt>
      <trkpt lat="43.51176" lon="6.69799">
        <ele>183.3</ele>
        <time>2025-10-26T11:58:05Z</time>
      </trkpt>
      <trkpt lat="43.51176" lon="6.69798">
        <ele>183.2</ele>
        <time>2025-10-26T11:58:06Z</time>
      </trkpt>
      <trkpt lat="43.51176" lon="6.69798">
        <ele>183.1</ele>
        <time>2025-10-26T11:58:07Z</time>
      </trkpt>
      <trkpt lat="43.51176" lon="6.69797">
        <ele>183.1</ele>
        <time>2025-10-26T11:58:08Z</time>
      </trkpt>
      <trkpt lat="43.51175" lon="6.69797">
        <ele>183</ele>
        <time>2025-10-26T11:58:09Z</time>
      </trkpt>
      <trkpt lat="43.51175" lon="6.69796">
        <ele>183</ele>
        <time>2025-10-26T11:58:10Z</time>
      </trkpt>
      <trkpt lat="43.51175" lon="6.69796">
        <ele>182.9</ele>
        <time>2025-10-26T11:58:11Z</time>
      </trkpt>
      <trkpt lat="43.51175" lon="6.69796">
        <ele>182.9</ele>
        <time>2025-10-26T11:58:12Z</time>
      </trkpt>
      <trkpt lat="43.51175" lon="6.69796">
        <ele>182.9</ele>
        <time>2025-10-26T11:58:13Z</time>
      </trkpt>
      <trkpt lat="43.51175" lon="6.69796">
        <ele>182.9</ele>
        <time>2025-10-26T11:58:14Z</time>
      </trkpt>
      <trkpt lat="43.51174" lon="6.69796">
        <ele>182.8</ele>
        <time>2025-10-26T11:58:15Z</time>
      </trkpt>
      <trkpt lat="43.51174" lon="6.69795">
        <ele>182.7</ele>
        <time>2025-10-26T11:58:16Z</time>
      </trkpt>
      <trkpt lat="43.51174" lon="6.69795">
        <ele>182.5</ele>
        <time>2025-10-26T11:58:17Z</time>
      </trkpt>
      <trkpt lat="43.51173" lon="6.69795">
        <ele>182.3</ele>
        <time>2025-10-26T11:58:18Z</time>
      </trkpt>
      <trkpt lat="43.51173" lon="6.69795">
        <ele>182.2</ele>
        <time>2025-10-26T11:58:19Z</time>
      </trkpt>
      <trkpt lat="43.51173" lon="6.69795">
        <ele>182.1</ele>
        <time>2025-10-26T11:58:20Z</time>
      </trkpt>
      <trkpt lat="43.51173" lon="6.69795">
        <ele>182</ele>
        <time>2025-10-26T11:58:21Z</time>
      </trkpt>
      <trkpt lat="43.51173" lon="6.69794">
        <ele>181.9</ele>
        <time>2025-10-26T11:58:22Z</time>
      </trkpt>
      <trkpt lat="43.51173" lon="6.69794">
        <ele>181.8</ele>
        <time>2025-10-26T11:58:23Z</time>
      </trkpt>
      <trkpt lat="43.51173" lon="6.69794">
        <ele>181.8</ele>
        <time>2025-10-26T11:58:24Z</time>
      </trkpt>
      <trkpt lat="43.51173" lon="6.69793">
        <ele>181.7</ele>
        <time>2025-10-26T11:58:25Z</time>
      </trkpt>
      <trkpt lat="43.51173" lon="6.69793">
        <ele>181.7</ele>
        <time>2025-10-26T11:58:26Z</time>
      </trkpt>
      <trkpt lat="43.51173" lon="6.69793">
        <ele>181.7</ele>
        <time>2025-10-26T11:58:27Z</time>
      </trkpt>
      <trkpt lat="43.51173" lon="6.69793">
        <ele>181.7</ele>
        <time>2025-10-26T11:58:28Z</time>
      </trkpt>
      <trkpt lat="43.51172" lon="6.69793">
        <ele>181.6</ele>
        <time>2025-10-26T11:58:29Z</time>
      </trkpt>
      <trkpt lat="43.51172" lon="6.69792">
        <ele>181.5</ele>
        <time>2025-10-26T11:58:30Z</time>
      </trkpt>
      <trkpt lat="43.51172" lon="6.69791">
        <ele>181.5</ele>
        <time>2025-10-26T11:58:31Z</time>
      </trkpt>
      <trkpt lat="43.51172" lon="6.69791">
        <ele>181.3</ele>
        <time>2025-10-26T11:58:32Z</time>
      </trkpt>
      <trkpt lat="43.51172" lon="6.69791">
        <ele>181</ele>
        <time>2025-10-26T11:58:33Z</time>
      </trkpt>
      <trkpt lat="43.51172" lon="6.69791">
        <ele>180.8</ele>
        <time>2025-10-26T11:58:34Z</time>
      </trkpt>
      <trkpt lat="43.51172" lon="6.6979">
        <ele>180.9</ele>
        <time>2025-10-26T11:58:35Z</time>
      </trkpt>
      <trkpt lat="43.51172" lon="6.69789">
        <ele>180.9</ele>
        <time>2025-10-26T11:58:36Z</time>
      </trkpt>
      <trkpt lat="43.51171" lon="6.69789">
        <ele>180.8</ele>
        <time>2025-10-26T11:58:37Z</time>
      </trkpt>
      <trkpt lat="43.51171" lon="6.69788">
        <ele>180.6</ele>
        <time>2025-10-26T11:58:38Z</time>
      </trkpt>
      <trkpt lat="43.51172" lon="6.69788">
        <ele>180.5</ele>
        <time>2025-10-26T11:58:39Z</time>
      </trkpt>
      <trkpt lat="43.51172" lon="6.69786">
        <ele>180.5</ele>
        <time>2025-10-26T11:58:40Z</time>
      </trkpt>
      <trkpt lat="43.51172" lon="6.69785">
        <ele>180.3</ele>
        <time>2025-10-26T11:58:41Z</time>
      </trkpt>
      <trkpt lat="43.51172" lon="6.69784">
        <ele>180.2</ele>
        <time>2025-10-26T11:58:42Z</time>
      </trkpt>
      <trkpt lat="43.51172" lon="6.69783">
        <ele>180.2</ele>
        <time>2025-10-26T11:58:43Z</time>
      </trkpt>
      <trkpt lat="43.51173" lon="6.69782">
        <ele>180.2</ele>
        <time>2025-10-26T11:58:44Z</time>
      </trkpt>
      <trkpt lat="43.51173" lon="6.69781">
        <ele>180.3</ele>
        <time>2025-10-26T11:58:45Z</time>
      </trkpt>
      <trkpt lat="43.51173" lon="6.6978">
        <ele>180.4</ele>
        <time>2025-10-26T11:58:46Z</time>
      </trkpt>
      <trkpt lat="43.51172" lon="6.69779">
        <ele>180.5</ele>
        <time>2025-10-26T11:58:47Z</time>
      </trkpt>
      <trkpt lat="43.51172" lon="6.69779">
        <ele>180.6</ele>
        <time>2025-10-26T11:58:48Z</time>
      </trkpt>
      <trkpt lat="43.51172" lon="6.69779">
        <ele>180.7</ele>
        <time>2025-10-26T11:58:49Z</time>
      </trkpt>
      <trkpt lat="43.51172" lon="6.69778">
        <ele>180.7</ele>
        <time>2025-10-26T11:58:50Z</time>
      </trkpt>
      <trkpt lat="43.51172" lon="6.69778">
        <ele>180.8</ele>
        <time>2025-10-26T11:58:51Z</time>
      </trkpt>
      <trkpt lat="43.51172" lon="6.69778">
        <ele>180.9</ele>
        <time>2025-10-26T11:58:52Z</time>
      </trkpt>
      <trkpt lat="43.51172" lon="6.69778">
        <ele>180.9</ele>
        <time>2025-10-26T11:58:53Z</time>
      </trkpt>
      <trkpt lat="43.51172" lon="6.69778">
        <ele>181</ele>
        <time>2025-10-26T11:58:54Z</time>
      </trkpt>
      <trkpt lat="43.51172" lon="6.69778">
        <ele>180.9</ele>
        <time>2025-10-26T11:58:55Z</time>
      </trkpt>
      <trkpt lat="43.51172" lon="6.69778">
        <ele>180.9</ele>
        <time>2025-10-26T11:58:56Z</time>
      </trkpt>
      <trkpt lat="43.51172" lon="6.69777">
        <ele>180.7</ele>
        <time>2025-10-26T11:58:57Z</time>
      </trkpt>
      <trkpt lat="43.51172" lon="6.69777">
        <ele>180.7</ele>
        <time>2025-10-26T11:58:58Z</time>
      </trkpt>
      <trkpt lat="43.51172" lon="6.69777">
        <ele>180.7</ele>
        <time>2025-10-26T11:58:59Z</time>
      </trkpt>
      <trkpt lat="43.51172" lon="6.69777">
        <ele>180.6</ele>
        <time>2025-10-26T11:59:00Z</time>
      </trkpt>
      <trkpt lat="43.51172" lon="6.69777">
        <ele>180.6</ele>
        <time>2025-10-26T11:59:01Z</time>
      </trkpt>
      <trkpt lat="43.51172" lon="6.69777">
        <ele>180.7</ele>
        <time>2025-10-26T11:59:02Z</time>
      </trkpt>
      <trkpt lat="43.51173" lon="6.69777">
        <ele>180.7</ele>
        <time>2025-10-26T11:59:03Z</time>
      </trkpt>
      <trkpt lat="43.51173" lon="6.69777">
        <ele>180.7</ele>
        <time>2025-10-26T11:59:04Z</time>
      </trkpt>
      <trkpt lat="43.51173" lon="6.69777">
        <ele>180.7</ele>
        <time>2025-10-26T11:59:05Z</time>
      </trkpt>
      <trkpt lat="43.51173" lon="6.69776">
        <ele>180.7</ele>
        <time>2025-10-26T11:59:06Z</time>
      </trkpt>
      <trkpt lat="43.51173" lon="6.69776">
        <ele>180.8</ele>
        <time>2025-10-26T11:59:07Z</time>
      </trkpt>
      <trkpt lat="43.51173" lon="6.69776">
        <ele>180.8</ele>
        <time>2025-10-26T11:59:08Z</time>
      </trkpt>
      <trkpt lat="43.51173" lon="6.69776">
        <ele>180.9</ele>
        <time>2025-10-26T11:59:09Z</time>
      </trkpt>
      <trkpt lat="43.51173" lon="6.69776">
        <ele>180.8</ele>
        <time>2025-10-26T11:59:10Z</time>
      </trkpt>
      <trkpt lat="43.51173" lon="6.69776">
        <ele>180.7</ele>
        <time>2025-10-26T11:59:11Z</time>
      </trkpt>
      <trkpt lat="43.51173" lon="6.69776">
        <ele>180.7</ele>
        <time>2025-10-26T11:59:12Z</time>
      </trkpt>
      <trkpt lat="43.51173" lon="6.69776">
        <ele>180.7</ele>
        <time>2025-10-26T11:59:13Z</time>
      </trkpt>
      <trkpt lat="43.51173" lon="6.69776">
        <ele>180.6</ele>
        <time>2025-10-26T11:59:14Z</time>
      </trkpt>
      <trkpt lat="43.51173" lon="6.69776">
        <ele>180.6</ele>
        <time>2025-10-26T11:59:15Z</time>
      </trkpt>
      <trkpt lat="43.51173" lon="6.69776">
        <ele>180.6</ele>
        <time>2025-10-26T11:59:16Z</time>
      </trkpt>
      <trkpt lat="43.51173" lon="6.69776">
        <ele>180.5</ele>
        <time>2025-10-26T11:59:17Z</time>
      </trkpt>
      <trkpt lat="43.51173" lon="6.69776">
        <ele>180.5</ele>
        <time>2025-10-26T11:59:18Z</time>
      </trkpt>
      <trkpt lat="43.51173" lon="6.69776">
        <ele>180.4</ele>
        <time>2025-10-26T11:59:19Z</time>
      </trkpt>
      <trkpt lat="43.51173" lon="6.69776">
        <ele>180.4</ele>
        <time>2025-10-26T11:59:20Z</time>
      </trkpt>
      <trkpt lat="43.51173" lon="6.69776">
        <ele>180.3</ele>
        <time>2025-10-26T11:59:21Z</time>
      </trkpt>
      <trkpt lat="43.51173" lon="6.69776">
        <ele>180.3</ele>
        <time>2025-10-26T11:59:22Z</time>
      </trkpt>
      <trkpt lat="43.51172" lon="6.69776">
        <ele>180.3</ele>
        <time>2025-10-26T11:59:23Z</time>
      </trkpt>
      <trkpt lat="43.51172" lon="6.69775">
        <ele>180.3</ele>
        <time>2025-10-26T11:59:24Z</time>
      </trkpt>
      <trkpt lat="43.51172" lon="6.69775">
        <ele>180.4</ele>
        <time>2025-10-26T11:59:25Z</time>
      </trkpt>
      <trkpt lat="43.51173" lon="6.69775">
        <ele>180.5</ele>
        <time>2025-10-26T11:59:26Z</time>
      </trkpt>
      <trkpt lat="43.51173" lon="6.69775">
        <ele>180.5</ele>
        <time>2025-10-26T11:59:27Z</time>
      </trkpt>
      <trkpt lat="43.51173" lon="6.69775">
        <ele>180.5</ele>
        <time>2025-10-26T11:59:28Z</time>
      </trkpt>
      <trkpt lat="43.51173" lon="6.69775">
        <ele>180.6</ele>
        <time>2025-10-26T11:59:29Z</time>
      </trkpt>
      <trkpt lat="43.51173" lon="6.69775">
        <ele>180.6</ele>
        <time>2025-10-26T11:59:30Z</time>
      </trkpt>
      <trkpt lat="43.51173" lon="6.69775">
        <ele>180.7</ele>
        <time>2025-10-26T11:59:31Z</time>
      </trkpt>
      <trkpt lat="43.51173" lon="6.69775">
        <ele>180.7</ele>
        <time>2025-10-26T11:59:32Z</time>
      </trkpt>
      <trkpt lat="43.51173" lon="6.69775">
        <ele>180.9</ele>
        <time>2025-10-26T11:59:33Z</time>
      </trkpt>
      <trkpt lat="43.51173" lon="6.69774">
        <ele>181</ele>
        <time>2025-10-26T11:59:34Z</time>
      </trkpt>
      <trkpt lat="43.51173" lon="6.69774">
        <ele>181</ele>
        <time>2025-10-26T11:59:35Z</time>
      </trkpt>
      <trkpt lat="43.51173" lon="6.69774">
        <ele>181</ele>
        <time>2025-10-26T11:59:36Z</time>
      </trkpt>
      <trkpt lat="43.51173" lon="6.69774">
        <ele>180.9</ele>
        <time>2025-10-26T11:59:37Z</time>
      </trkpt>
      <trkpt lat="43.51173" lon="6.69775">
        <ele>180.8</ele>
        <time>2025-10-26T11:59:38Z</time>
      </trkpt>
      <trkpt lat="43.51173" lon="6.69775">
        <ele>180.7</ele>
        <time>2025-10-26T11:59:39Z</time>
      </trkpt>
      <trkpt lat="43.51173" lon="6.69775">
        <ele>180.6</ele>
        <time>2025-10-26T11:59:40Z</time>
      </trkpt>
      <trkpt lat="43.51173" lon="6.69775">
        <ele>180.5</ele>
        <time>2025-10-26T11:59:41Z</time>
      </trkpt>
      <trkpt lat="43.51173" lon="6.69775">
        <ele>180.5</ele>
        <time>2025-10-26T11:59:42Z</time>
      </trkpt>
      <trkpt lat="43.51173" lon="6.69775">
        <ele>180.4</ele>
        <time>2025-10-26T11:59:43Z</time>
      </trkpt>
      <trkpt lat="43.51173" lon="6.69775">
        <ele>180.3</ele>
        <time>2025-10-26T11:59:44Z</time>
      </trkpt>
      <trkpt lat="43.51173" lon="6.69774">
        <ele>180.2</ele>
        <time>2025-10-26T11:59:45Z</time>
      </trkpt>
      <trkpt lat="43.51173" lon="6.69774">
        <ele>180.1</ele>
        <time>2025-10-26T11:59:46Z</time>
      </trkpt>
      <trkpt lat="43.51173" lon="6.69774">
        <ele>180.1</ele>
        <time>2025-10-26T11:59:47Z</time>
      </trkpt>
      <trkpt lat="43.51173" lon="6.69774">
        <ele>180.1</ele>
        <time>2025-10-26T11:59:48Z</time>
      </trkpt>
      <trkpt lat="43.51172" lon="6.69774">
        <ele>180.1</ele>
        <time>2025-10-26T11:59:49Z</time>
      </trkpt>
      <trkpt lat="43.51172" lon="6.69774">
        <ele>180.1</ele>
        <time>2025-10-26T11:59:50Z</time>
      </trkpt>
      <trkpt lat="43.51172" lon="6.69774">
        <ele>180.1</ele>
        <time>2025-10-26T11:59:51Z</time>
      </trkpt>
      <trkpt lat="43.51172" lon="6.69774">
        <ele>180</ele>
        <time>2025-10-26T11:59:52Z</time>
      </trkpt>
      <trkpt lat="43.51172" lon="6.69774">
        <ele>180</ele>
        <time>2025-10-26T11:59:53Z</time>
      </trkpt>
      <trkpt lat="43.51172" lon="6.69774">
        <ele>180</ele>
        <time>2025-10-26T11:59:54Z</time>
      </trkpt>
      <trkpt lat="43.51172" lon="6.69774">
        <ele>180</ele>
        <time>2025-10-26T11:59:55Z</time>
      </trkpt>
      <trkpt lat="43.51172" lon="6.69774">
        <ele>180.1</ele>
        <time>2025-10-26T11:59:56Z</time>
      </trkpt>
      <trkpt lat="43.51172" lon="6.69774">
        <ele>180.2</ele>
        <time>2025-10-26T11:59:57Z</time>
      </trkpt>
      <trkpt lat="43.51172" lon="6.69774">
        <ele>180.3</ele>
        <time>2025-10-26T11:59:58Z</time>
      </trkpt>
      <trkpt lat="43.51172" lon="6.69773">
        <ele>180.4</ele>
        <time>2025-10-26T11:59:59Z</time>
      </trkpt>
      <trkpt lat="43.51172" lon="6.69773">
        <ele>180.5</ele>
        <time>2025-10-26T12:00:00Z</time>
      </trkpt>
      <trkpt lat="43.51172" lon="6.69773">
        <ele>180.5</ele>
        <time>2025-10-26T12:00:01Z</time>
      </trkpt>
      <trkpt lat="43.51172" lon="6.69773">
        <ele>180.6</ele>
        <time>2025-10-26T12:00:02Z</time>
      </trkpt>
      <trkpt lat="43.51172" lon="6.69773">
        <ele>180.6</ele>
        <time>2025-10-26T12:00:03Z</time>
      </trkpt>
      <trkpt lat="43.51172" lon="6.69773">
        <ele>180.6</ele>
        <time>2025-10-26T12:00:04Z</time>
      </trkpt>
      <trkpt lat="43.51172" lon="6.69773">
        <ele>180.6</ele>
        <time>2025-10-26T12:00:05Z</time>
      </trkpt>
      <trkpt lat="43.51171" lon="6.69773">
        <ele>180.6</ele>
        <time>2025-10-26T12:00:06Z</time>
      </trkpt>
      <trkpt lat="43.51171" lon="6.69773">
        <ele>180.6</ele>
        <time>2025-10-26T12:00:07Z</time>
      </trkpt>
      <trkpt lat="43.51171" lon="6.69772">
        <ele>180.6</ele>
        <time>2025-10-26T12:00:08Z</time>
      </trkpt>
      <trkpt lat="43.51171" lon="6.6977">
        <ele>180.6</ele>
        <time>2025-10-26T12:00:09Z</time>
      </trkpt>
      <trkpt lat="43.51171" lon="6.69769">
        <ele>180.6</ele>
        <time>2025-10-26T12:00:10Z</time>
      </trkpt>
      <trkpt lat="43.51171" lon="6.69769">
        <ele>180.4</ele>
        <time>2025-10-26T12:00:11Z</time>
      </trkpt>
      <trkpt lat="43.51172" lon="6.69768">
        <ele>180.4</ele>
        <time>2025-10-26T12:00:12Z</time>
      </trkpt>
      <trkpt lat="43.51172" lon="6.69768">
        <ele>180.4</ele>
        <time>2025-10-26T12:00:13Z</time>
      </trkpt>
      <trkpt lat="43.51172" lon="6.69767">
        <ele>180.4</ele>
        <time>2025-10-26T12:00:14Z</time>
      </trkpt>
      <trkpt lat="43.51172" lon="6.69767">
        <ele>180.4</ele>
        <time>2025-10-26T12:00:15Z</time>
      </trkpt>
      <trkpt lat="43.51172" lon="6.69767">
        <ele>180.4</ele>
        <time>2025-10-26T12:00:16Z</time>
      </trkpt>
      <trkpt lat="43.51172" lon="6.69767">
        <ele>180.4</ele>
        <time>2025-10-26T12:00:17Z</time>
      </trkpt>
      <trkpt lat="43.51172" lon="6.69767">
        <ele>180.4</ele>
        <time>2025-10-26T12:00:18Z</time>
      </trkpt>
      <trkpt lat="43.51171" lon="6.69767">
        <ele>180.3</ele>
        <time>2025-10-26T12:00:19Z</time>
      </trkpt>
      <trkpt lat="43.51172" lon="6.69767">
        <ele>180.2</ele>
        <time>2025-10-26T12:00:20Z</time>
      </trkpt>
      <trkpt lat="43.51172" lon="6.69767">
        <ele>180.2</ele>
        <time>2025-10-26T12:00:21Z</time>
      </trkpt>
      <trkpt lat="43.51172" lon="6.69767">
        <ele>180.2</ele>
        <time>2025-10-26T12:00:22Z</time>
      </trkpt>
      <trkpt lat="43.51172" lon="6.69767">
        <ele>180.1</ele>
        <time>2025-10-26T12:00:23Z</time>
      </trkpt>
      <trkpt lat="43.51172" lon="6.69767">
        <ele>180.1</ele>
        <time>2025-10-26T12:00:24Z</time>
      </trkpt>
      <trkpt lat="43.51172" lon="6.69767">
        <ele>180.1</ele>
        <time>2025-10-26T12:00:25Z</time>
      </trkpt>
      <trkpt lat="43.51172" lon="6.69767">
        <ele>180</ele>
        <time>2025-10-26T12:00:26Z</time>
      </trkpt>
      <trkpt lat="43.51172" lon="6.69767">
        <ele>180</ele>
        <time>2025-10-26T12:00:27Z</time>
      </trkpt>
      <trkpt lat="43.51172" lon="6.69767">
        <ele>180</ele>
        <time>2025-10-26T12:00:28Z</time>
      </trkpt>
      <trkpt lat="43.51172" lon="6.69767">
        <ele>179.9</ele>
        <time>2025-10-26T12:00:29Z</time>
      </trkpt>
      <trkpt lat="43.51172" lon="6.69767">
        <ele>179.9</ele>
        <time>2025-10-26T12:00:30Z</time>
      </trkpt>
      <trkpt lat="43.51172" lon="6.69767">
        <ele>180</ele>
        <time>2025-10-26T12:00:31Z</time>
      </trkpt>
      <trkpt lat="43.51172" lon="6.69767">
        <ele>180</ele>
        <time>2025-10-26T12:00:32Z</time>
      </trkpt>
      <trkpt lat="43.51172" lon="6.69767">
        <ele>180</ele>
        <time>2025-10-26T12:00:33Z</time>
      </trkpt>
      <trkpt lat="43.51172" lon="6.69767">
        <ele>180</ele>
        <time>2025-10-26T12:00:34Z</time>
      </trkpt>
      <trkpt lat="43.51172" lon="6.69767">
        <ele>180</ele>
        <time>2025-10-26T12:00:35Z</time>
      </trkpt>
      <trkpt lat="43.51172" lon="6.69767">
        <ele>180.1</ele>
        <time>2025-10-26T12:00:36Z</time>
      </trkpt>
      <trkpt lat="43.51172" lon="6.69767">
        <ele>180.2</ele>
        <time>2025-10-26T12:00:37Z</time>
      </trkpt>
      <trkpt lat="43.51172" lon="6.69767">
        <ele>180.1</ele>
        <time>2025-10-26T12:00:38Z</time>
      </trkpt>
      <trkpt lat="43.51172" lon="6.69767">
        <ele>180</ele>
        <time>2025-10-26T12:00:39Z</time>
      </trkpt>
      <trkpt lat="43.51172" lon="6.69767">
        <ele>179.9</ele>
        <time>2025-10-26T12:00:40Z</time>
      </trkpt>
      <trkpt lat="43.51172" lon="6.69767">
        <ele>179.8</ele>
        <time>2025-10-26T12:00:41Z</time>
      </trkpt>
      <trkpt lat="43.51172" lon="6.69767">
        <ele>179.8</ele>
        <time>2025-10-26T12:00:42Z</time>
      </trkpt>
      <trkpt lat="43.51172" lon="6.69766">
        <ele>179.9</ele>
        <time>2025-10-26T12:00:43Z</time>
      </trkpt>
      <trkpt lat="43.51172" lon="6.69766">
        <ele>180</ele>
        <time>2025-10-26T12:00:44Z</time>
      </trkpt>
      <trkpt lat="43.51172" lon="6.69765">
        <ele>180.1</ele>
        <time>2025-10-26T12:00:45Z</time>
      </trkpt>
      <trkpt lat="43.51172" lon="6.69765">
        <ele>180.2</ele>
        <time>2025-10-26T12:00:46Z</time>
      </trkpt>
      <trkpt lat="43.51172" lon="6.69764">
        <ele>180.3</ele>
        <time>2025-10-26T12:00:47Z</time>
      </trkpt>
      <trkpt lat="43.51173" lon="6.69762">
        <ele>180.3</ele>
        <time>2025-10-26T12:00:48Z</time>
      </trkpt>
      <trkpt lat="43.51173" lon="6.69761">
        <ele>180.3</ele>
        <time>2025-10-26T12:00:49Z</time>
      </trkpt>
      <trkpt lat="43.51173" lon="6.6976">
        <ele>180.2</ele>
        <time>2025-10-26T12:00:50Z</time>
      </trkpt>
      <trkpt lat="43.51174" lon="6.69759">
        <ele>180</ele>
        <time>2025-10-26T12:00:51Z</time>
      </trkpt>
      <trkpt lat="43.51174" lon="6.69758">
        <ele>179.8</ele>
        <time>2025-10-26T12:00:52Z</time>
      </trkpt>
      <trkpt lat="43.51174" lon="6.69757">
        <ele>179.6</ele>
        <time>2025-10-26T12:00:53Z</time>
      </trkpt>
      <trkpt lat="43.51174" lon="6.69756">
        <ele>179.5</ele>
        <time>2025-10-26T12:00:54Z</time>
      </trkpt>
      <trkpt lat="43.51174" lon="6.69755">
        <ele>179.2</ele>
        <time>2025-10-26T12:00:55Z</time>
      </trkpt>
      <trkpt lat="43.51175" lon="6.69755">
        <ele>178.9</ele>
        <time>2025-10-26T12:00:56Z</time>
      </trkpt>
      <trkpt lat="43.51175" lon="6.69754">
        <ele>178.7</ele>
        <time>2025-10-26T12:00:57Z</time>
      </trkpt>
      <trkpt lat="43.51175" lon="6.69753">
        <ele>178.6</ele>
        <time>2025-10-26T12:00:58Z</time>
      </trkpt>
      <trkpt lat="43.51175" lon="6.69753">
        <ele>178.6</ele>
        <time>2025-10-26T12:00:59Z</time>
      </trkpt>
      <trkpt lat="43.51175" lon="6.69753">
        <ele>178.6</ele>
        <time>2025-10-26T12:01:00Z</time>
      </trkpt>
      <trkpt lat="43.51175" lon="6.69753">
        <ele>178.6</ele>
        <time>2025-10-26T12:01:01Z</time>
      </trkpt>
      <trkpt lat="43.51175" lon="6.69753">
        <ele>178.6</ele>
        <time>2025-10-26T12:01:02Z</time>
      </trkpt>
      <trkpt lat="43.51175" lon="6.69753">
        <ele>178.6</ele>
        <time>2025-10-26T12:01:03Z</time>
      </trkpt>
      <trkpt lat="43.51175" lon="6.69753">
        <ele>178.6</ele>
        <time>2025-10-26T12:01:04Z</time>
      </trkpt>
      <trkpt lat="43.51175" lon="6.69753">
        <ele>178.5</ele>
        <time>2025-10-26T12:01:05Z</time>
      </trkpt>
      <trkpt lat="43.51175" lon="6.69753">
        <ele>178.6</ele>
        <time>2025-10-26T12:01:06Z</time>
      </trkpt>
      <trkpt lat="43.51175" lon="6.69753">
        <ele>178.6</ele>
        <time>2025-10-26T12:01:07Z</time>
      </trkpt>
      <trkpt lat="43.51175" lon="6.69753">
        <ele>178.7</ele>
        <time>2025-10-26T12:01:08Z</time>
      </trkpt>
      <trkpt lat="43.51175" lon="6.69753">
        <ele>178.7</ele>
        <time>2025-10-26T12:01:09Z</time>
      </trkpt>
      <trkpt lat="43.51175" lon="6.69752">
        <ele>178.7</ele>
        <time>2025-10-26T12:01:10Z</time>
      </trkpt>
      <trkpt lat="43.51174" lon="6.69752">
        <ele>178.6</ele>
        <time>2025-10-26T12:01:11Z</time>
      </trkpt>
      <trkpt lat="43.51174" lon="6.69751">
        <ele>178.5</ele>
        <time>2025-10-26T12:01:12Z</time>
      </trkpt>
      <trkpt lat="43.51173" lon="6.69751">
        <ele>178.3</ele>
        <time>2025-10-26T12:01:13Z</time>
      </trkpt>
      <trkpt lat="43.51173" lon="6.69751">
        <ele>178.1</ele>
        <time>2025-10-26T12:01:14Z</time>
      </trkpt>
      <trkpt lat="43.51172" lon="6.6975">
        <ele>178</ele>
        <time>2025-10-26T12:01:15Z</time>
      </trkpt>
      <trkpt lat="43.51172" lon="6.6975">
        <ele>177.8</ele>
        <time>2025-10-26T12:01:16Z</time>
      </trkpt>
      <trkpt lat="43.51171" lon="6.69749">
        <ele>177.6</ele>
        <time>2025-10-26T12:01:17Z</time>
      </trkpt>
      <trkpt lat="43.51171" lon="6.69749">
        <ele>177.4</ele>
        <time>2025-10-26T12:01:18Z</time>
      </trkpt>
      <trkpt lat="43.5117" lon="6.69748">
        <ele>177.2</ele>
        <time>2025-10-26T12:01:19Z</time>
      </trkpt>
      <trkpt lat="43.5117" lon="6.69747">
        <ele>177</ele>
        <time>2025-10-26T12:01:20Z</time>
      </trkpt>
      <trkpt lat="43.5117" lon="6.69746">
        <ele>176.7</ele>
        <time>2025-10-26T12:01:21Z</time>
      </trkpt>
      <trkpt lat="43.5117" lon="6.69745">
        <ele>176.4</ele>
        <time>2025-10-26T12:01:22Z</time>
      </trkpt>
      <trkpt lat="43.5117" lon="6.69744">
        <ele>176.2</ele>
        <time>2025-10-26T12:01:23Z</time>
      </trkpt>
      <trkpt lat="43.5117" lon="6.69743">
        <ele>176</ele>
        <time>2025-10-26T12:01:24Z</time>
      </trkpt>
      <trkpt lat="43.5117" lon="6.69742">
        <ele>175.8</ele>
        <time>2025-10-26T12:01:25Z</time>
      </trkpt>
      <trkpt lat="43.51169" lon="6.69742">
        <ele>175.7</ele>
        <time>2025-10-26T12:01:26Z</time>
      </trkpt>
      <trkpt lat="43.51169" lon="6.69741">
        <ele>175.5</ele>
        <time>2025-10-26T12:01:27Z</time>
      </trkpt>
      <trkpt lat="43.51168" lon="6.6974">
        <ele>175.2</ele>
        <time>2025-10-26T12:01:28Z</time>
      </trkpt>
      <trkpt lat="43.51168" lon="6.6974">
        <ele>175</ele>
        <time>2025-10-26T12:01:29Z</time>
      </trkpt>
      <trkpt lat="43.51168" lon="6.69739">
        <ele>174.9</ele>
        <time>2025-10-26T12:01:30Z</time>
      </trkpt>
      <trkpt lat="43.51168" lon="6.69738">
        <ele>174.8</ele>
        <time>2025-10-26T12:01:31Z</time>
      </trkpt>
      <trkpt lat="43.51167" lon="6.69737">
        <ele>174.7</ele>
        <time>2025-10-26T12:01:32Z</time>
      </trkpt>
      <trkpt lat="43.51167" lon="6.69736">
        <ele>174.4</ele>
        <time>2025-10-26T12:01:33Z</time>
      </trkpt>
      <trkpt lat="43.51167" lon="6.69735">
        <ele>174.2</ele>
        <time>2025-10-26T12:01:34Z</time>
      </trkpt>
      <trkpt lat="43.51167" lon="6.69734">
        <ele>174</ele>
        <time>2025-10-26T12:01:35Z</time>
      </trkpt>
      <trkpt lat="43.51167" lon="6.69733">
        <ele>173.8</ele>
        <time>2025-10-26T12:01:36Z</time>
      </trkpt>
      <trkpt lat="43.51167" lon="6.69732">
        <ele>173.6</ele>
        <time>2025-10-26T12:01:37Z</time>
      </trkpt>
      <trkpt lat="43.51166" lon="6.69731">
        <ele>173.4</ele>
        <time>2025-10-26T12:01:38Z</time>
      </trkpt>
      <trkpt lat="43.51166" lon="6.6973">
        <ele>173.3</ele>
        <time>2025-10-26T12:01:39Z</time>
      </trkpt>
      <trkpt lat="43.51166" lon="6.69729">
        <ele>173.1</ele>
        <time>2025-10-26T12:01:40Z</time>
      </trkpt>
      <trkpt lat="43.51166" lon="6.69729">
        <ele>172.9</ele>
        <time>2025-10-26T12:01:41Z</time>
      </trkpt>
      <trkpt lat="43.51166" lon="6.69728">
        <ele>172.8</ele>
        <time>2025-10-26T12:01:42Z</time>
      </trkpt>
      <trkpt lat="43.51165" lon="6.69728">
        <ele>172.7</ele>
        <time>2025-10-26T12:01:43Z</time>
      </trkpt>
      <trkpt lat="43.51165" lon="6.69727">
        <ele>172.6</ele>
        <time>2025-10-26T12:01:44Z</time>
      </trkpt>
      <trkpt lat="43.51165" lon="6.69727">
        <ele>172.4</ele>
        <time>2025-10-26T12:01:45Z</time>
      </trkpt>
      <trkpt lat="43.51164" lon="6.69726">
        <ele>172.1</ele>
        <time>2025-10-26T12:01:46Z</time>
      </trkpt>
      <trkpt lat="43.51164" lon="6.69725">
        <ele>171.9</ele>
        <time>2025-10-26T12:01:47Z</time>
      </trkpt>
      <trkpt lat="43.51164" lon="6.69725">
        <ele>171.8</ele>
        <time>2025-10-26T12:01:48Z</time>
      </trkpt>
      <trkpt lat="43.51164" lon="6.69725">
        <ele>171.6</ele>
        <time>2025-10-26T12:01:49Z</time>
      </trkpt>
      <trkpt lat="43.51164" lon="6.69725">
        <ele>171.5</ele>
        <time>2025-10-26T12:01:50Z</time>
      </trkpt>
      <trkpt lat="43.51163" lon="6.69724">
        <ele>171.3</ele>
        <time>2025-10-26T12:01:51Z</time>
      </trkpt>
      <trkpt lat="43.51163" lon="6.69723">
        <ele>171.1</ele>
        <time>2025-10-26T12:01:52Z</time>
      </trkpt>
      <trkpt lat="43.51162" lon="6.69723">
        <ele>170.9</ele>
        <time>2025-10-26T12:01:53Z</time>
      </trkpt>
      <trkpt lat="43.51161" lon="6.69723">
        <ele>170.7</ele>
        <time>2025-10-26T12:01:54Z</time>
      </trkpt>
      <trkpt lat="43.51161" lon="6.69723">
        <ele>170.6</ele>
        <time>2025-10-26T12:01:55Z</time>
      </trkpt>
      <trkpt lat="43.5116" lon="6.69722">
        <ele>170.5</ele>
        <time>2025-10-26T12:01:56Z</time>
      </trkpt>
      <trkpt lat="43.51159" lon="6.69722">
        <ele>170.4</ele>
        <time>2025-10-26T12:01:57Z</time>
      </trkpt>
      <trkpt lat="43.51159" lon="6.69722">
        <ele>170.4</ele>
        <time>2025-10-26T12:01:58Z</time>
      </trkpt>
      <trkpt lat="43.51159" lon="6.69722">
        <ele>170.4</ele>
        <time>2025-10-26T12:01:59Z</time>
      </trkpt>
      <trkpt lat="43.51158" lon="6.69722">
        <ele>170.5</ele>
        <time>2025-10-26T12:02:00Z</time>
      </trkpt>
      <trkpt lat="43.51158" lon="6.69722">
        <ele>170.5</ele>
        <time>2025-10-26T12:02:01Z</time>
      </trkpt>
      <trkpt lat="43.51157" lon="6.69722">
        <ele>170.4</ele>
        <time>2025-10-26T12:02:02Z</time>
      </trkpt>
      <trkpt lat="43.51157" lon="6.69722">
        <ele>170.3</ele>
        <time>2025-10-26T12:02:03Z</time>
      </trkpt>
      <trkpt lat="43.51157" lon="6.69721">
        <ele>170.4</ele>
        <time>2025-10-26T12:02:04Z</time>
      </trkpt>
      <trkpt lat="43.51156" lon="6.69721">
        <ele>170.5</ele>
        <time>2025-10-26T12:02:05Z</time>
      </trkpt>
      <trkpt lat="43.51156" lon="6.69721">
        <ele>170.6</ele>
        <time>2025-10-26T12:02:06Z</time>
      </trkpt>
      <trkpt lat="43.51156" lon="6.69721">
        <ele>170.5</ele>
        <time>2025-10-26T12:02:07Z</time>
      </trkpt>
      <trkpt lat="43.51155" lon="6.69721">
        <ele>170.3</ele>
        <time>2025-10-26T12:02:08Z</time>
      </trkpt>
      <trkpt lat="43.51155" lon="6.69721">
        <ele>170.2</ele>
        <time>2025-10-26T12:02:09Z</time>
      </trkpt>
      <trkpt lat="43.51154" lon="6.69721">
        <ele>170.1</ele>
        <time>2025-10-26T12:02:10Z</time>
      </trkpt>
      <trkpt lat="43.51154" lon="6.69721">
        <ele>170.1</ele>
        <time>2025-10-26T12:02:11Z</time>
      </trkpt>
      <trkpt lat="43.51154" lon="6.69721">
        <ele>170</ele>
        <time>2025-10-26T12:02:12Z</time>
      </trkpt>
      <trkpt lat="43.51154" lon="6.69721">
        <ele>170.1</ele>
        <time>2025-10-26T12:02:13Z</time>
      </trkpt>
      <trkpt lat="43.51154" lon="6.69721">
        <ele>170.1</ele>
        <time>2025-10-26T12:02:14Z</time>
      </trkpt>
      <trkpt lat="43.51154" lon="6.6972">
        <ele>170.1</ele>
        <time>2025-10-26T12:02:15Z</time>
      </trkpt>
      <trkpt lat="43.51154" lon="6.6972">
        <ele>170.1</ele>
        <time>2025-10-26T12:02:16Z</time>
      </trkpt>
      <trkpt lat="43.51154" lon="6.69719">
        <ele>170</ele>
        <time>2025-10-26T12:02:17Z</time>
      </trkpt>
      <trkpt lat="43.51153" lon="6.69718">
        <ele>169.9</ele>
        <time>2025-10-26T12:02:18Z</time>
      </trkpt>
      <trkpt lat="43.51153" lon="6.69718">
        <ele>169.8</ele>
        <time>2025-10-26T12:02:19Z</time>
      </trkpt>
      <trkpt lat="43.51152" lon="6.69717">
        <ele>169.7</ele>
        <time>2025-10-26T12:02:20Z</time>
      </trkpt>
      <trkpt lat="43.51151" lon="6.69717">
        <ele>169.4</ele>
        <time>2025-10-26T12:02:21Z</time>
      </trkpt>
      <trkpt lat="43.51151" lon="6.69717">
        <ele>169.2</ele>
        <time>2025-10-26T12:02:22Z</time>
      </trkpt>
      <trkpt lat="43.5115" lon="6.69716">
        <ele>169</ele>
        <time>2025-10-26T12:02:23Z</time>
      </trkpt>
      <trkpt lat="43.5115" lon="6.69716">
        <ele>168.9</ele>
        <time>2025-10-26T12:02:24Z</time>
      </trkpt>
      <trkpt lat="43.51149" lon="6.69715">
        <ele>168.7</ele>
        <time>2025-10-26T12:02:25Z</time>
      </trkpt>
      <trkpt lat="43.51148" lon="6.69715">
        <ele>168.5</ele>
        <time>2025-10-26T12:02:26Z</time>
      </trkpt>
      <trkpt lat="43.51148" lon="6.69715">
        <ele>168.4</ele>
        <time>2025-10-26T12:02:27Z</time>
      </trkpt>
      <trkpt lat="43.51148" lon="6.69715">
        <ele>168.3</ele>
        <time>2025-10-26T12:02:28Z</time>
      </trkpt>
      <trkpt lat="43.51147" lon="6.69715">
        <ele>168.2</ele>
        <time>2025-10-26T12:02:29Z</time>
      </trkpt>
      <trkpt lat="43.51147" lon="6.69714">
        <ele>168.1</ele>
        <time>2025-10-26T12:02:30Z</time>
      </trkpt>
      <trkpt lat="43.51146" lon="6.69714">
        <ele>167.9</ele>
        <time>2025-10-26T12:02:31Z</time>
      </trkpt>
      <trkpt lat="43.51146" lon="6.69713">
        <ele>167.9</ele>
        <time>2025-10-26T12:02:32Z</time>
      </trkpt>
      <trkpt lat="43.51145" lon="6.69713">
        <ele>167.8</ele>
        <time>2025-10-26T12:02:33Z</time>
      </trkpt>
      <trkpt lat="43.51144" lon="6.69713">
        <ele>167.7</ele>
        <time>2025-10-26T12:02:34Z</time>
      </trkpt>
      <trkpt lat="43.51144" lon="6.69713">
        <ele>167.6</ele>
        <time>2025-10-26T12:02:35Z</time>
      </trkpt>
      <trkpt lat="43.51143" lon="6.69713">
        <ele>167.5</ele>
        <time>2025-10-26T12:02:36Z</time>
      </trkpt>
      <trkpt lat="43.51143" lon="6.69712">
        <ele>167.4</ele>
        <time>2025-10-26T12:02:37Z</time>
      </trkpt>
      <trkpt lat="43.51143" lon="6.69712">
        <ele>167.3</ele>
        <time>2025-10-26T12:02:38Z</time>
      </trkpt>
      <trkpt lat="43.51143" lon="6.69711">
        <ele>167.2</ele>
        <time>2025-10-26T12:02:39Z</time>
      </trkpt>
      <trkpt lat="43.51143" lon="6.69711">
        <ele>167</ele>
        <time>2025-10-26T12:02:40Z</time>
      </trkpt>
      <trkpt lat="43.51143" lon="6.6971">
        <ele>166.7</ele>
        <time>2025-10-26T12:02:41Z</time>
      </trkpt>
      <trkpt lat="43.51143" lon="6.69709">
        <ele>166.5</ele>
        <time>2025-10-26T12:02:42Z</time>
      </trkpt>
      <trkpt lat="43.51143" lon="6.69708">
        <ele>166.4</ele>
        <time>2025-10-26T12:02:43Z</time>
      </trkpt>
      <trkpt lat="43.51144" lon="6.69707">
        <ele>166.4</ele>
        <time>2025-10-26T12:02:44Z</time>
      </trkpt>
      <trkpt lat="43.51143" lon="6.69706">
        <ele>166.3</ele>
        <time>2025-10-26T12:02:45Z</time>
      </trkpt>
      <trkpt lat="43.51143" lon="6.69705">
        <ele>166.3</ele>
        <time>2025-10-26T12:02:46Z</time>
      </trkpt>
      <trkpt lat="43.51143" lon="6.69704">
        <ele>166.3</ele>
        <time>2025-10-26T12:02:47Z</time>
      </trkpt>
      <trkpt lat="43.51142" lon="6.69703">
        <ele>166.3</ele>
        <time>2025-10-26T12:02:48Z</time>
      </trkpt>
      <trkpt lat="43.51142" lon="6.69702">
        <ele>166.3</ele>
        <time>2025-10-26T12:02:49Z</time>
      </trkpt>
      <trkpt lat="43.51141" lon="6.69701">
        <ele>166.4</ele>
        <time>2025-10-26T12:02:50Z</time>
      </trkpt>
      <trkpt lat="43.51141" lon="6.697">
        <ele>166.4</ele>
        <time>2025-10-26T12:02:51Z</time>
      </trkpt>
      <trkpt lat="43.5114" lon="6.69699">
        <ele>166.4</ele>
        <time>2025-10-26T12:02:52Z</time>
      </trkpt>
      <trkpt lat="43.5114" lon="6.69699">
        <ele>166.4</ele>
        <time>2025-10-26T12:02:53Z</time>
      </trkpt>
      <trkpt lat="43.51139" lon="6.69698">
        <ele>166.4</ele>
        <time>2025-10-26T12:02:54Z</time>
      </trkpt>
      <trkpt lat="43.51139" lon="6.69697">
        <ele>166.5</ele>
        <time>2025-10-26T12:02:55Z</time>
      </trkpt>
      <trkpt lat="43.51139" lon="6.69696">
        <ele>166.5</ele>
        <time>2025-10-26T12:02:56Z</time>
      </trkpt>
      <trkpt lat="43.51138" lon="6.69696">
        <ele>166.4</ele>
        <time>2025-10-26T12:02:57Z</time>
      </trkpt>
      <trkpt lat="43.51137" lon="6.69695">
        <ele>166.3</ele>
        <time>2025-10-26T12:02:58Z</time>
      </trkpt>
      <trkpt lat="43.51136" lon="6.69695">
        <ele>166.2</ele>
        <time>2025-10-26T12:02:59Z</time>
      </trkpt>
      <trkpt lat="43.51136" lon="6.69695">
        <ele>166.1</ele>
        <time>2025-10-26T12:03:00Z</time>
      </trkpt>
      <trkpt lat="43.51135" lon="6.69694">
        <ele>166</ele>
        <time>2025-10-26T12:03:01Z</time>
      </trkpt>
      <trkpt lat="43.51135" lon="6.69694">
        <ele>166</ele>
        <time>2025-10-26T12:03:02Z</time>
      </trkpt>
      <trkpt lat="43.51135" lon="6.69693">
        <ele>166</ele>
        <time>2025-10-26T12:03:03Z</time>
      </trkpt>
      <trkpt lat="43.51134" lon="6.69692">
        <ele>166.1</ele>
        <time>2025-10-26T12:03:04Z</time>
      </trkpt>
      <trkpt lat="43.51134" lon="6.69692">
        <ele>166.1</ele>
        <time>2025-10-26T12:03:05Z</time>
      </trkpt>
      <trkpt lat="43.51134" lon="6.69692">
        <ele>166.2</ele>
        <time>2025-10-26T12:03:06Z</time>
      </trkpt>
      <trkpt lat="43.51133" lon="6.69692">
        <ele>166.2</ele>
        <time>2025-10-26T12:03:07Z</time>
      </trkpt>
      <trkpt lat="43.51133" lon="6.69691">
        <ele>166.2</ele>
        <time>2025-10-26T12:03:08Z</time>
      </trkpt>
      <trkpt lat="43.51133" lon="6.69691">
        <ele>166.3</ele>
        <time>2025-10-26T12:03:09Z</time>
      </trkpt>
      <trkpt lat="43.51133" lon="6.69691">
        <ele>166.2</ele>
        <time>2025-10-26T12:03:10Z</time>
      </trkpt>
      <trkpt lat="43.51133" lon="6.6969">
        <ele>166.1</ele>
        <time>2025-10-26T12:03:11Z</time>
      </trkpt>
      <trkpt lat="43.51133" lon="6.6969">
        <ele>166.1</ele>
        <time>2025-10-26T12:03:12Z</time>
      </trkpt>
      <trkpt lat="43.51133" lon="6.6969">
        <ele>166.2</ele>
        <time>2025-10-26T12:03:13Z</time>
      </trkpt>
      <trkpt lat="43.51132" lon="6.6969">
        <ele>166.1</ele>
        <time>2025-10-26T12:03:14Z</time>
      </trkpt>
      <trkpt lat="43.51132" lon="6.69689">
        <ele>166.1</ele>
        <time>2025-10-26T12:03:15Z</time>
      </trkpt>
      <trkpt lat="43.51132" lon="6.69689">
        <ele>166.1</ele>
        <time>2025-10-26T12:03:16Z</time>
      </trkpt>
      <trkpt lat="43.51132" lon="6.69689">
        <ele>166.1</ele>
        <time>2025-10-26T12:03:17Z</time>
      </trkpt>
      <trkpt lat="43.51132" lon="6.69689">
        <ele>166</ele>
        <time>2025-10-26T12:03:18Z</time>
      </trkpt>
      <trkpt lat="43.51132" lon="6.69689">
        <ele>166</ele>
        <time>2025-10-26T12:03:19Z</time>
      </trkpt>
      <trkpt lat="43.51132" lon="6.69689">
        <ele>166.1</ele>
        <time>2025-10-26T12:03:20Z</time>
      </trkpt>
      <trkpt lat="43.51132" lon="6.69689">
        <ele>166.1</ele>
        <time>2025-10-26T12:03:21Z</time>
      </trkpt>
      <trkpt lat="43.51132" lon="6.69689">
        <ele>166.2</ele>
        <time>2025-10-26T12:03:22Z</time>
      </trkpt>
      <trkpt lat="43.51132" lon="6.69689">
        <ele>166.2</ele>
        <time>2025-10-26T12:03:23Z</time>
      </trkpt>
      <trkpt lat="43.51132" lon="6.69688">
        <ele>166.2</ele>
        <time>2025-10-26T12:03:24Z</time>
      </trkpt>
      <trkpt lat="43.51132" lon="6.69688">
        <ele>166.3</ele>
        <time>2025-10-26T12:03:25Z</time>
      </trkpt>
      <trkpt lat="43.51132" lon="6.69688">
        <ele>166.2</ele>
        <time>2025-10-26T12:03:26Z</time>
      </trkpt>
      <trkpt lat="43.51132" lon="6.69688">
        <ele>166.3</ele>
        <time>2025-10-26T12:03:27Z</time>
      </trkpt>
      <trkpt lat="43.51132" lon="6.69687">
        <ele>166.3</ele>
        <time>2025-10-26T12:03:28Z</time>
      </trkpt>
      <trkpt lat="43.51132" lon="6.69687">
        <ele>166.3</ele>
        <time>2025-10-26T12:03:29Z</time>
      </trkpt>
      <trkpt lat="43.51132" lon="6.69687">
        <ele>166.3</ele>
        <time>2025-10-26T12:03:30Z</time>
      </trkpt>
      <trkpt lat="43.51132" lon="6.69687">
        <ele>166.3</ele>
        <time>2025-10-26T12:03:31Z</time>
      </trkpt>
      <trkpt lat="43.51132" lon="6.69687">
        <ele>166.4</ele>
        <time>2025-10-26T12:03:32Z</time>
      </trkpt>
      <trkpt lat="43.51132" lon="6.69687">
        <ele>166.4</ele>
        <time>2025-10-26T12:03:33Z</time>
      </trkpt>
      <trkpt lat="43.51132" lon="6.69687">
        <ele>166.3</ele>
        <time>2025-10-26T12:03:34Z</time>
      </trkpt>
      <trkpt lat="43.51132" lon="6.69687">
        <ele>166.2</ele>
        <time>2025-10-26T12:03:35Z</time>
      </trkpt>
      <trkpt lat="43.51132" lon="6.69687">
        <ele>166.3</ele>
        <time>2025-10-26T12:03:36Z</time>
      </trkpt>
      <trkpt lat="43.51132" lon="6.69686">
        <ele>166.3</ele>
        <time>2025-10-26T12:03:37Z</time>
      </trkpt>
      <trkpt lat="43.51132" lon="6.69686">
        <ele>166.4</ele>
        <time>2025-10-26T12:03:38Z</time>
      </trkpt>
      <trkpt lat="43.51132" lon="6.69686">
        <ele>166.5</ele>
        <time>2025-10-26T12:03:39Z</time>
      </trkpt>
      <trkpt lat="43.51132" lon="6.69686">
        <ele>166.6</ele>
        <time>2025-10-26T12:03:40Z</time>
      </trkpt>
      <trkpt lat="43.51132" lon="6.69686">
        <ele>166.7</ele>
        <time>2025-10-26T12:03:41Z</time>
      </trkpt>
      <trkpt lat="43.51132" lon="6.69686">
        <ele>166.7</ele>
        <time>2025-10-26T12:03:42Z</time>
      </trkpt>
      <trkpt lat="43.51132" lon="6.69686">
        <ele>166.7</ele>
        <time>2025-10-26T12:03:43Z</time>
      </trkpt>
      <trkpt lat="43.51132" lon="6.69686">
        <ele>166.6</ele>
        <time>2025-10-26T12:03:44Z</time>
      </trkpt>
      <trkpt lat="43.51132" lon="6.69686">
        <ele>166.6</ele>
        <time>2025-10-26T12:03:45Z</time>
      </trkpt>
      <trkpt lat="43.51132" lon="6.69686">
        <ele>166.5</ele>
        <time>2025-10-26T12:03:46Z</time>
      </trkpt>
      <trkpt lat="43.51132" lon="6.69686">
        <ele>166.5</ele>
        <time>2025-10-26T12:03:47Z</time>
      </trkpt>
      <trkpt lat="43.51132" lon="6.69686">
        <ele>166.5</ele>
        <time>2025-10-26T12:03:48Z</time>
      </trkpt>
      <trkpt lat="43.51132" lon="6.69686">
        <ele>166.6</ele>
        <time>2025-10-26T12:03:49Z</time>
      </trkpt>
      <trkpt lat="43.51132" lon="6.69686">
        <ele>166.6</ele>
        <time>2025-10-26T12:03:50Z</time>
      </trkpt>
      <trkpt lat="43.51131" lon="6.69686">
        <ele>166.6</ele>
        <time>2025-10-26T12:03:51Z</time>
      </trkpt>
      <trkpt lat="43.51131" lon="6.69686">
        <ele>166.6</ele>
        <time>2025-10-26T12:03:52Z</time>
      </trkpt>
      <trkpt lat="43.51131" lon="6.69686">
        <ele>166.6</ele>
        <time>2025-10-26T12:03:53Z</time>
      </trkpt>
      <trkpt lat="43.51131" lon="6.69686">
        <ele>166.5</ele>
        <time>2025-10-26T12:03:54Z</time>
      </trkpt>
      <trkpt lat="43.51131" lon="6.69686">
        <ele>166.5</ele>
        <time>2025-10-26T12:03:55Z</time>
      </trkpt>
      <trkpt lat="43.51131" lon="6.69686">
        <ele>166.5</ele>
        <time>2025-10-26T12:03:56Z</time>
      </trkpt>
      <trkpt lat="43.51131" lon="6.69686">
        <ele>166.6</ele>
        <time>2025-10-26T12:03:57Z</time>
      </trkpt>
      <trkpt lat="43.51131" lon="6.69686">
        <ele>166.6</ele>
        <time>2025-10-26T12:03:58Z</time>
      </trkpt>
      <trkpt lat="43.51131" lon="6.69687">
        <ele>166.5</ele>
        <time>2025-10-26T12:03:59Z</time>
      </trkpt>
      <trkpt lat="43.51131" lon="6.69686">
        <ele>166.5</ele>
        <time>2025-10-26T12:04:00Z</time>
      </trkpt>
      <trkpt lat="43.51131" lon="6.69686">
        <ele>166.5</ele>
        <time>2025-10-26T12:04:01Z</time>
      </trkpt>
      <trkpt lat="43.51131" lon="6.69686">
        <ele>166.4</ele>
        <time>2025-10-26T12:04:02Z</time>
      </trkpt>
      <trkpt lat="43.51131" lon="6.69685">
        <ele>166.3</ele>
        <time>2025-10-26T12:04:03Z</time>
      </trkpt>
      <trkpt lat="43.51131" lon="6.69685">
        <ele>166.3</ele>
        <time>2025-10-26T12:04:04Z</time>
      </trkpt>
      <trkpt lat="43.51131" lon="6.69685">
        <ele>166.4</ele>
        <time>2025-10-26T12:04:05Z</time>
      </trkpt>
      <trkpt lat="43.51131" lon="6.69685">
        <ele>166.4</ele>
        <time>2025-10-26T12:04:06Z</time>
      </trkpt>
      <trkpt lat="43.51131" lon="6.69685">
        <ele>166.5</ele>
        <time>2025-10-26T12:04:07Z</time>
      </trkpt>
      <trkpt lat="43.51131" lon="6.69685">
        <ele>166.6</ele>
        <time>2025-10-26T12:04:08Z</time>
      </trkpt>
      <trkpt lat="43.51131" lon="6.69685">
        <ele>166.6</ele>
        <time>2025-10-26T12:04:09Z</time>
      </trkpt>
      <trkpt lat="43.51132" lon="6.69685">
        <ele>166.6</ele>
        <time>2025-10-26T12:04:10Z</time>
      </trkpt>
      <trkpt lat="43.51132" lon="6.69685">
        <ele>166.6</ele>
        <time>2025-10-26T12:04:11Z</time>
      </trkpt>
      <trkpt lat="43.51132" lon="6.69685">
        <ele>166.6</ele>
        <time>2025-10-26T12:04:12Z</time>
      </trkpt>
      <trkpt lat="43.51132" lon="6.69685">
        <ele>166.6</ele>
        <time>2025-10-26T12:04:13Z</time>
      </trkpt>
      <trkpt lat="43.51131" lon="6.69685">
        <ele>166.6</ele>
        <time>2025-10-26T12:04:14Z</time>
      </trkpt>
      <trkpt lat="43.51132" lon="6.69685">
        <ele>166.5</ele>
        <time>2025-10-26T12:04:15Z</time>
      </trkpt>
      <trkpt lat="43.51132" lon="6.69685">
        <ele>166.5</ele>
        <time>2025-10-26T12:04:16Z</time>
      </trkpt>
      <trkpt lat="43.51132" lon="6.69685">
        <ele>166.5</ele>
        <time>2025-10-26T12:04:17Z</time>
      </trkpt>
      <trkpt lat="43.51132" lon="6.69685">
        <ele>166.5</ele>
        <time>2025-10-26T12:04:18Z</time>
      </trkpt>
      <trkpt lat="43.51132" lon="6.69685">
        <ele>166.4</ele>
        <time>2025-10-26T12:04:19Z</time>
      </trkpt>
      <trkpt lat="43.51132" lon="6.69685">
        <ele>166.4</ele>
        <time>2025-10-26T12:04:20Z</time>
      </trkpt>
      <trkpt lat="43.51132" lon="6.69685">
        <ele>166.4</ele>
        <time>2025-10-26T12:04:21Z</time>
      </trkpt>
      <trkpt lat="43.51132" lon="6.69685">
        <ele>166.4</ele>
        <time>2025-10-26T12:04:22Z</time>
      </trkpt>
      <trkpt lat="43.51132" lon="6.69685">
        <ele>166.4</ele>
        <time>2025-10-26T12:04:23Z</time>
      </trkpt>
      <trkpt lat="43.51131" lon="6.69684">
        <ele>166.5</ele>
        <time>2025-10-26T12:04:24Z</time>
      </trkpt>
      <trkpt lat="43.51131" lon="6.69684">
        <ele>166.4</ele>
        <time>2025-10-26T12:04:25Z</time>
      </trkpt>
      <trkpt lat="43.51131" lon="6.69684">
        <ele>166.3</ele>
        <time>2025-10-26T12:04:26Z</time>
      </trkpt>
      <trkpt lat="43.51131" lon="6.69684">
        <ele>166.3</ele>
        <time>2025-10-26T12:04:27Z</time>
      </trkpt>
      <trkpt lat="43.51131" lon="6.69684">
        <ele>166.3</ele>
        <time>2025-10-26T12:04:28Z</time>
      </trkpt>
      <trkpt lat="43.51131" lon="6.69684">
        <ele>166.2</ele>
        <time>2025-10-26T12:04:29Z</time>
      </trkpt>
      <trkpt lat="43.5113" lon="6.69684">
        <ele>166.1</ele>
        <time>2025-10-26T12:04:30Z</time>
      </trkpt>
      <trkpt lat="43.5113" lon="6.69684">
        <ele>166</ele>
        <time>2025-10-26T12:04:31Z</time>
      </trkpt>
      <trkpt lat="43.51129" lon="6.69684">
        <ele>165.9</ele>
        <time>2025-10-26T12:04:32Z</time>
      </trkpt>
      <trkpt lat="43.51129" lon="6.69683">
        <ele>165.9</ele>
        <time>2025-10-26T12:04:33Z</time>
      </trkpt>
      <trkpt lat="43.51128" lon="6.69683">
        <ele>166</ele>
        <time>2025-10-26T12:04:34Z</time>
      </trkpt>
      <trkpt lat="43.51128" lon="6.69682">
        <ele>165.9</ele>
        <time>2025-10-26T12:04:35Z</time>
      </trkpt>
      <trkpt lat="43.51127" lon="6.69682">
        <ele>165.7</ele>
        <time>2025-10-26T12:04:36Z</time>
      </trkpt>
      <trkpt lat="43.51127" lon="6.69681">
        <ele>165.6</ele>
        <time>2025-10-26T12:04:37Z</time>
      </trkpt>
      <trkpt lat="43.51126" lon="6.69681">
        <ele>165.5</ele>
        <time>2025-10-26T12:04:38Z</time>
      </trkpt>
      <trkpt lat="43.51125" lon="6.69681">
        <ele>165.3</ele>
        <time>2025-10-26T12:04:39Z</time>
      </trkpt>
      <trkpt lat="43.51125" lon="6.69681">
        <ele>165.1</ele>
        <time>2025-10-26T12:04:40Z</time>
      </trkpt>
      <trkpt lat="43.51125" lon="6.69681">
        <ele>165.1</ele>
        <time>2025-10-26T12:04:41Z</time>
      </trkpt>
      <trkpt lat="43.51126" lon="6.69682">
        <ele>165</ele>
        <time>2025-10-26T12:04:42Z</time>
      </trkpt>
      <trkpt lat="43.51125" lon="6.69682">
        <ele>164.9</ele>
        <time>2025-10-26T12:04:43Z</time>
      </trkpt>
      <trkpt lat="43.51125" lon="6.69682">
        <ele>164.9</ele>
        <time>2025-10-26T12:04:44Z</time>
      </trkpt>
      <trkpt lat="43.51125" lon="6.69683">
        <ele>164.8</ele>
        <time>2025-10-26T12:04:45Z</time>
      </trkpt>
      <trkpt lat="43.51125" lon="6.69684">
        <ele>164.7</ele>
        <time>2025-10-26T12:04:46Z</time>
      </trkpt>
      <trkpt lat="43.51124" lon="6.69685">
        <ele>164.7</ele>
        <time>2025-10-26T12:04:47Z</time>
      </trkpt>
      <trkpt lat="43.51124" lon="6.69686">
        <ele>164.5</ele>
        <time>2025-10-26T12:04:48Z</time>
      </trkpt>
      <trkpt lat="43.51123" lon="6.69687">
        <ele>164.3</ele>
        <time>2025-10-26T12:04:49Z</time>
      </trkpt>
      <trkpt lat="43.51123" lon="6.69688">
        <ele>164.1</ele>
        <time>2025-10-26T12:04:50Z</time>
      </trkpt>
      <trkpt lat="43.51123" lon="6.69689">
        <ele>164</ele>
        <time>2025-10-26T12:04:51Z</time>
      </trkpt>
      <trkpt lat="43.51123" lon="6.6969">
        <ele>163.9</ele>
        <time>2025-10-26T12:04:52Z</time>
      </trkpt>
      <trkpt lat="43.51122" lon="6.69692">
        <ele>163.8</ele>
        <time>2025-10-26T12:04:53Z</time>
      </trkpt>
      <trkpt lat="43.51122" lon="6.69693">
        <ele>163.6</ele>
        <time>2025-10-26T12:04:54Z</time>
      </trkpt>
      <trkpt lat="43.51122" lon="6.69694">
        <ele>163.5</ele>
        <time>2025-10-26T12:04:55Z</time>
      </trkpt>
      <trkpt lat="43.51122" lon="6.69695">
        <ele>163.2</ele>
        <time>2025-10-26T12:04:56Z</time>
      </trkpt>
      <trkpt lat="43.51121" lon="6.69697">
        <ele>163</ele>
        <time>2025-10-26T12:04:57Z</time>
      </trkpt>
      <trkpt lat="43.51121" lon="6.69698">
        <ele>162.8</ele>
        <time>2025-10-26T12:04:58Z</time>
      </trkpt>
      <trkpt lat="43.51121" lon="6.697">
        <ele>162.7</ele>
        <time>2025-10-26T12:04:59Z</time>
      </trkpt>
      <trkpt lat="43.5112" lon="6.69701">
        <ele>162.6</ele>
        <time>2025-10-26T12:05:00Z</time>
      </trkpt>
      <trkpt lat="43.5112" lon="6.69702">
        <ele>162.5</ele>
        <time>2025-10-26T12:05:01Z</time>
      </trkpt>
      <trkpt lat="43.5112" lon="6.69703">
        <ele>162.3</ele>
        <time>2025-10-26T12:05:02Z</time>
      </trkpt>
      <trkpt lat="43.5112" lon="6.69704">
        <ele>162.1</ele>
        <time>2025-10-26T12:05:03Z</time>
      </trkpt>
      <trkpt lat="43.51119" lon="6.69705">
        <ele>162</ele>
        <time>2025-10-26T12:05:04Z</time>
      </trkpt>
      <trkpt lat="43.51118" lon="6.69707">
        <ele>161.9</ele>
        <time>2025-10-26T12:05:05Z</time>
      </trkpt>
      <trkpt lat="43.51118" lon="6.69708">
        <ele>161.8</ele>
        <time>2025-10-26T12:05:06Z</time>
      </trkpt>
      <trkpt lat="43.51118" lon="6.6971">
        <ele>161.7</ele>
        <time>2025-10-26T12:05:07Z</time>
      </trkpt>
      <trkpt lat="43.51117" lon="6.69711">
        <ele>161.6</ele>
        <time>2025-10-26T12:05:08Z</time>
      </trkpt>
      <trkpt lat="43.51117" lon="6.69712">
        <ele>161.7</ele>
        <time>2025-10-26T12:05:09Z</time>
      </trkpt>
      <trkpt lat="43.51117" lon="6.69714">
        <ele>161.8</ele>
        <time>2025-10-26T12:05:10Z</time>
      </trkpt>
      <trkpt lat="43.51117" lon="6.69715">
        <ele>161.8</ele>
        <time>2025-10-26T12:05:11Z</time>
      </trkpt>
      <trkpt lat="43.51116" lon="6.69717">
        <ele>161.9</ele>
        <time>2025-10-26T12:05:12Z</time>
      </trkpt>
      <trkpt lat="43.51116" lon="6.69718">
        <ele>161.9</ele>
        <time>2025-10-26T12:05:13Z</time>
      </trkpt>
      <trkpt lat="43.51115" lon="6.69719">
        <ele>162</ele>
        <time>2025-10-26T12:05:14Z</time>
      </trkpt>
      <trkpt lat="43.51114" lon="6.69721">
        <ele>162</ele>
        <time>2025-10-26T12:05:15Z</time>
      </trkpt>
      <trkpt lat="43.51114" lon="6.69722">
        <ele>161.9</ele>
        <time>2025-10-26T12:05:16Z</time>
      </trkpt>
      <trkpt lat="43.51113" lon="6.69723">
        <ele>162</ele>
        <time>2025-10-26T12:05:17Z</time>
      </trkpt>
      <trkpt lat="43.51112" lon="6.69724">
        <ele>162.1</ele>
        <time>2025-10-26T12:05:18Z</time>
      </trkpt>
      <trkpt lat="43.51112" lon="6.69725">
        <ele>162.2</ele>
        <time>2025-10-26T12:05:19Z</time>
      </trkpt>
      <trkpt lat="43.51111" lon="6.69726">
        <ele>162.3</ele>
        <time>2025-10-26T12:05:20Z</time>
      </trkpt>
      <trkpt lat="43.51111" lon="6.69728">
        <ele>162.3</ele>
        <time>2025-10-26T12:05:21Z</time>
      </trkpt>
      <trkpt lat="43.5111" lon="6.69729">
        <ele>162.2</ele>
        <time>2025-10-26T12:05:22Z</time>
      </trkpt>
      <trkpt lat="43.5111" lon="6.6973">
        <ele>162.2</ele>
        <time>2025-10-26T12:05:23Z</time>
      </trkpt>
      <trkpt lat="43.5111" lon="6.69732">
        <ele>162.1</ele>
        <time>2025-10-26T12:05:24Z</time>
      </trkpt>
      <trkpt lat="43.5111" lon="6.69734">
        <ele>161.9</ele>
        <time>2025-10-26T12:05:25Z</time>
      </trkpt>
      <trkpt lat="43.5111" lon="6.69735">
        <ele>161.8</ele>
        <time>2025-10-26T12:05:26Z</time>
      </trkpt>
      <trkpt lat="43.51109" lon="6.69737">
        <ele>161.7</ele>
        <time>2025-10-26T12:05:27Z</time>
      </trkpt>
      <trkpt lat="43.51109" lon="6.69739">
        <ele>161.6</ele>
        <time>2025-10-26T12:05:28Z</time>
      </trkpt>
      <trkpt lat="43.51109" lon="6.6974">
        <ele>161.5</ele>
        <time>2025-10-26T12:05:29Z</time>
      </trkpt>
      <trkpt lat="43.51108" lon="6.69741">
        <ele>161.3</ele>
        <time>2025-10-26T12:05:30Z</time>
      </trkpt>
      <trkpt lat="43.51108" lon="6.69743">
        <ele>161.2</ele>
        <time>2025-10-26T12:05:31Z</time>
      </trkpt>
      <trkpt lat="43.51108" lon="6.69744">
        <ele>161.2</ele>
        <time>2025-10-26T12:05:32Z</time>
      </trkpt>
      <trkpt lat="43.51108" lon="6.69745">
        <ele>161.2</ele>
        <time>2025-10-26T12:05:33Z</time>
      </trkpt>
      <trkpt lat="43.51107" lon="6.69746">
        <ele>161.4</ele>
        <time>2025-10-26T12:05:34Z</time>
      </trkpt>
      <trkpt lat="43.51107" lon="6.69748">
        <ele>161.5</ele>
        <time>2025-10-26T12:05:35Z</time>
      </trkpt>
      <trkpt lat="43.51106" lon="6.69749">
        <ele>161.7</ele>
        <time>2025-10-26T12:05:36Z</time>
      </trkpt>
      <trkpt lat="43.51106" lon="6.69751">
        <ele>161.8</ele>
        <time>2025-10-26T12:05:37Z</time>
      </trkpt>
      <trkpt lat="43.51105" lon="6.69752">
        <ele>161.8</ele>
        <time>2025-10-26T12:05:38Z</time>
      </trkpt>
      <trkpt lat="43.51105" lon="6.69754">
        <ele>161.9</ele>
        <time>2025-10-26T12:05:39Z</time>
      </trkpt>
      <trkpt lat="43.51105" lon="6.69755">
        <ele>161.9</ele>
        <time>2025-10-26T12:05:40Z</time>
      </trkpt>
      <trkpt lat="43.51104" lon="6.69756">
        <ele>161.9</ele>
        <time>2025-10-26T12:05:41Z</time>
      </trkpt>
      <trkpt lat="43.51104" lon="6.69757">
        <ele>161.9</ele>
        <time>2025-10-26T12:05:42Z</time>
      </trkpt>
      <trkpt lat="43.51103" lon="6.69758">
        <ele>161.8</ele>
        <time>2025-10-26T12:05:43Z</time>
      </trkpt>
      <trkpt lat="43.51103" lon="6.69759">
        <ele>161.8</ele>
        <time>2025-10-26T12:05:44Z</time>
      </trkpt>
      <trkpt lat="43.51103" lon="6.69761">
        <ele>161.8</ele>
        <time>2025-10-26T12:05:45Z</time>
      </trkpt>
      <trkpt lat="43.51103" lon="6.69762">
        <ele>161.8</ele>
        <time>2025-10-26T12:05:46Z</time>
      </trkpt>
      <trkpt lat="43.51103" lon="6.69763">
        <ele>161.8</ele>
        <time>2025-10-26T12:05:47Z</time>
      </trkpt>
      <trkpt lat="43.51102" lon="6.69765">
        <ele>161.7</ele>
        <time>2025-10-26T12:05:48Z</time>
      </trkpt>
      <trkpt lat="43.51102" lon="6.69766">
        <ele>161.7</ele>
        <time>2025-10-26T12:05:49Z</time>
      </trkpt>
      <trkpt lat="43.51102" lon="6.69768">
        <ele>161.7</ele>
        <time>2025-10-26T12:05:50Z</time>
      </trkpt>
      <trkpt lat="43.51101" lon="6.69769">
        <ele>161.7</ele>
        <time>2025-10-26T12:05:51Z</time>
      </trkpt>
      <trkpt lat="43.51101" lon="6.6977">
        <ele>161.7</ele>
        <time>2025-10-26T12:05:52Z</time>
      </trkpt>
      <trkpt lat="43.51101" lon="6.69771">
        <ele>161.7</ele>
        <time>2025-10-26T12:05:53Z</time>
      </trkpt>
      <trkpt lat="43.51101" lon="6.69772">
        <ele>161.7</ele>
        <time>2025-10-26T12:05:54Z</time>
      </trkpt>
      <trkpt lat="43.511" lon="6.69774">
        <ele>161.6</ele>
        <time>2025-10-26T12:05:55Z</time>
      </trkpt>
      <trkpt lat="43.511" lon="6.69776">
        <ele>161.6</ele>
        <time>2025-10-26T12:05:56Z</time>
      </trkpt>
      <trkpt lat="43.511" lon="6.69777">
        <ele>161.5</ele>
        <time>2025-10-26T12:05:57Z</time>
      </trkpt>
      <trkpt lat="43.511" lon="6.69779">
        <ele>161.3</ele>
        <time>2025-10-26T12:05:58Z</time>
      </trkpt>
      <trkpt lat="43.51099" lon="6.6978">
        <ele>161.1</ele>
        <time>2025-10-26T12:05:59Z</time>
      </trkpt>
      <trkpt lat="43.51099" lon="6.69782">
        <ele>160.8</ele>
        <time>2025-10-26T12:06:00Z</time>
      </trkpt>
      <trkpt lat="43.51098" lon="6.69784">
        <ele>160.5</ele>
        <time>2025-10-26T12:06:01Z</time>
      </trkpt>
      <trkpt lat="43.51098" lon="6.69785">
        <ele>160.2</ele>
        <time>2025-10-26T12:06:02Z</time>
      </trkpt>
      <trkpt lat="43.51097" lon="6.69787">
        <ele>159.9</ele>
        <time>2025-10-26T12:06:03Z</time>
      </trkpt>
      <trkpt lat="43.51097" lon="6.69788">
        <ele>159.8</ele>
        <time>2025-10-26T12:06:04Z</time>
      </trkpt>
      <trkpt lat="43.51096" lon="6.6979">
        <ele>159.4</ele>
        <time>2025-10-26T12:06:05Z</time>
      </trkpt>
      <trkpt lat="43.51096" lon="6.69791">
        <ele>159.2</ele>
        <time>2025-10-26T12:06:06Z</time>
      </trkpt>
      <trkpt lat="43.51096" lon="6.69793">
        <ele>159</ele>
        <time>2025-10-26T12:06:07Z</time>
      </trkpt>
      <trkpt lat="43.51095" lon="6.69794">
        <ele>158.8</ele>
        <time>2025-10-26T12:06:08Z</time>
      </trkpt>
      <trkpt lat="43.51095" lon="6.69796">
        <ele>158.6</ele>
        <time>2025-10-26T12:06:09Z</time>
      </trkpt>
      <trkpt lat="43.51094" lon="6.69797">
        <ele>158.6</ele>
        <time>2025-10-26T12:06:10Z</time>
      </trkpt>
      <trkpt lat="43.51094" lon="6.69798">
        <ele>158.6</ele>
        <time>2025-10-26T12:06:11Z</time>
      </trkpt>
      <trkpt lat="43.51093" lon="6.698">
        <ele>158.6</ele>
        <time>2025-10-26T12:06:12Z</time>
      </trkpt>
      <trkpt lat="43.51093" lon="6.69801">
        <ele>158.6</ele>
        <time>2025-10-26T12:06:13Z</time>
      </trkpt>
      <trkpt lat="43.51093" lon="6.69803">
        <ele>158.7</ele>
        <time>2025-10-26T12:06:14Z</time>
      </trkpt>
      <trkpt lat="43.51093" lon="6.69805">
        <ele>158.7</ele>
        <time>2025-10-26T12:06:15Z</time>
      </trkpt>
      <trkpt lat="43.51092" lon="6.69807">
        <ele>158.8</ele>
        <time>2025-10-26T12:06:16Z</time>
      </trkpt>
      <trkpt lat="43.51092" lon="6.69808">
        <ele>158.9</ele>
        <time>2025-10-26T12:06:17Z</time>
      </trkpt>
      <trkpt lat="43.51092" lon="6.6981">
        <ele>158.9</ele>
        <time>2025-10-26T12:06:18Z</time>
      </trkpt>
      <trkpt lat="43.51091" lon="6.69811">
        <ele>158.8</ele>
        <time>2025-10-26T12:06:19Z</time>
      </trkpt>
      <trkpt lat="43.51091" lon="6.69813">
        <ele>158.8</ele>
        <time>2025-10-26T12:06:20Z</time>
      </trkpt>
      <trkpt lat="43.5109" lon="6.69814">
        <ele>158.7</ele>
        <time>2025-10-26T12:06:21Z</time>
      </trkpt>
      <trkpt lat="43.5109" lon="6.69816">
        <ele>158.6</ele>
        <time>2025-10-26T12:06:22Z</time>
      </trkpt>
      <trkpt lat="43.5109" lon="6.69817">
        <ele>158.6</ele>
        <time>2025-10-26T12:06:23Z</time>
      </trkpt>
      <trkpt lat="43.51089" lon="6.69818">
        <ele>158.5</ele>
        <time>2025-10-26T12:06:24Z</time>
      </trkpt>
      <trkpt lat="43.51089" lon="6.69819">
        <ele>158.4</ele>
        <time>2025-10-26T12:06:25Z</time>
      </trkpt>
      <trkpt lat="43.51088" lon="6.6982">
        <ele>158.2</ele>
        <time>2025-10-26T12:06:26Z</time>
      </trkpt>
      <trkpt lat="43.51088" lon="6.6982">
        <ele>157.9</ele>
        <time>2025-10-26T12:06:27Z</time>
      </trkpt>
      <trkpt lat="43.51088" lon="6.69821">
        <ele>157.7</ele>
        <time>2025-10-26T12:06:28Z</time>
      </trkpt>
      <trkpt lat="43.51087" lon="6.69822">
        <ele>157.5</ele>
        <time>2025-10-26T12:06:29Z</time>
      </trkpt>
      <trkpt lat="43.51087" lon="6.69823">
        <ele>157.4</ele>
        <time>2025-10-26T12:06:30Z</time>
      </trkpt>
      <trkpt lat="43.51086" lon="6.69824">
        <ele>157.3</ele>
        <time>2025-10-26T12:06:31Z</time>
      </trkpt>
      <trkpt lat="43.51086" lon="6.69825">
        <ele>157.2</ele>
        <time>2025-10-26T12:06:32Z</time>
      </trkpt>
      <trkpt lat="43.51086" lon="6.69825">
        <ele>157.1</ele>
        <time>2025-10-26T12:06:33Z</time>
      </trkpt>
      <trkpt lat="43.51086" lon="6.69827">
        <ele>156.4</ele>
        <time>2025-10-26T12:06:34Z</time>
      </trkpt>
      <trkpt lat="43.51086" lon="6.69829">
        <ele>156.3</ele>
        <time>2025-10-26T12:06:35Z</time>
      </trkpt>
      <trkpt lat="43.51085" lon="6.6983">
        <ele>156.1</ele>
        <time>2025-10-26T12:06:36Z</time>
      </trkpt>
      <trkpt lat="43.51085" lon="6.69832">
        <ele>156</ele>
        <time>2025-10-26T12:06:37Z</time>
      </trkpt>
      <trkpt lat="43.51085" lon="6.69833">
        <ele>155.9</ele>
        <time>2025-10-26T12:06:38Z</time>
      </trkpt>
      <trkpt lat="43.51085" lon="6.69834">
        <ele>155.8</ele>
        <time>2025-10-26T12:06:39Z</time>
      </trkpt>
      <trkpt lat="43.51085" lon="6.69835">
        <ele>155.7</ele>
        <time>2025-10-26T12:06:40Z</time>
      </trkpt>
      <trkpt lat="43.51085" lon="6.69836">
        <ele>155.6</ele>
        <time>2025-10-26T12:06:41Z</time>
      </trkpt>
      <trkpt lat="43.51085" lon="6.69837">
        <ele>155.5</ele>
        <time>2025-10-26T12:06:42Z</time>
      </trkpt>
      <trkpt lat="43.51085" lon="6.69838">
        <ele>155.4</ele>
        <time>2025-10-26T12:06:43Z</time>
      </trkpt>
      <trkpt lat="43.51085" lon="6.69838">
        <ele>155.4</ele>
        <time>2025-10-26T12:06:44Z</time>
      </trkpt>
      <trkpt lat="43.51085" lon="6.69839">
        <ele>155.3</ele>
        <time>2025-10-26T12:06:45Z</time>
      </trkpt>
      <trkpt lat="43.51085" lon="6.69839">
        <ele>155.3</ele>
        <time>2025-10-26T12:06:46Z</time>
      </trkpt>
      <trkpt lat="43.51085" lon="6.6984">
        <ele>155.4</ele>
        <time>2025-10-26T12:06:47Z</time>
      </trkpt>
      <trkpt lat="43.51085" lon="6.69841">
        <ele>155.5</ele>
        <time>2025-10-26T12:06:48Z</time>
      </trkpt>
      <trkpt lat="43.51085" lon="6.69841">
        <ele>155.6</ele>
        <time>2025-10-26T12:06:49Z</time>
      </trkpt>
      <trkpt lat="43.51085" lon="6.69841">
        <ele>155.4</ele>
        <time>2025-10-26T12:06:50Z</time>
      </trkpt>
      <trkpt lat="43.51085" lon="6.69842">
        <ele>155.4</ele>
        <time>2025-10-26T12:06:51Z</time>
      </trkpt>
      <trkpt lat="43.51085" lon="6.69842">
        <ele>155.3</ele>
        <time>2025-10-26T12:06:52Z</time>
      </trkpt>
      <trkpt lat="43.51085" lon="6.69842">
        <ele>155.3</ele>
        <time>2025-10-26T12:06:53Z</time>
      </trkpt>
      <trkpt lat="43.51085" lon="6.69843">
        <ele>155.4</ele>
        <time>2025-10-26T12:06:54Z</time>
      </trkpt>
      <trkpt lat="43.51086" lon="6.69843">
        <ele>155.4</ele>
        <time>2025-10-26T12:06:55Z</time>
      </trkpt>
      <trkpt lat="43.51086" lon="6.69843">
        <ele>155.4</ele>
        <time>2025-10-26T12:06:56Z</time>
      </trkpt>
      <trkpt lat="43.51086" lon="6.69844">
        <ele>155.4</ele>
        <time>2025-10-26T12:06:57Z</time>
      </trkpt>
      <trkpt lat="43.51086" lon="6.69844">
        <ele>155.3</ele>
        <time>2025-10-26T12:06:58Z</time>
      </trkpt>
      <trkpt lat="43.51086" lon="6.69844">
        <ele>155.3</ele>
        <time>2025-10-26T12:06:59Z</time>
      </trkpt>
      <trkpt lat="43.51086" lon="6.69844">
        <ele>155.3</ele>
        <time>2025-10-26T12:07:00Z</time>
      </trkpt>
      <trkpt lat="43.51086" lon="6.69845">
        <ele>155.4</ele>
        <time>2025-10-26T12:07:01Z</time>
      </trkpt>
      <trkpt lat="43.51086" lon="6.69845">
        <ele>155.4</ele>
        <time>2025-10-26T12:07:02Z</time>
      </trkpt>
      <trkpt lat="43.51086" lon="6.69845">
        <ele>155.5</ele>
        <time>2025-10-26T12:07:03Z</time>
      </trkpt>
      <trkpt lat="43.51086" lon="6.69845">
        <ele>155.6</ele>
        <time>2025-10-26T12:07:04Z</time>
      </trkpt>
      <trkpt lat="43.51086" lon="6.69845">
        <ele>155.5</ele>
        <time>2025-10-26T12:07:05Z</time>
      </trkpt>
      <trkpt lat="43.51086" lon="6.69846">
        <ele>155.5</ele>
        <time>2025-10-26T12:07:06Z</time>
      </trkpt>
      <trkpt lat="43.51086" lon="6.69846">
        <ele>155.5</ele>
        <time>2025-10-26T12:07:07Z</time>
      </trkpt>
      <trkpt lat="43.51086" lon="6.69846">
        <ele>155.5</ele>
        <time>2025-10-26T12:07:08Z</time>
      </trkpt>
      <trkpt lat="43.51086" lon="6.69845">
        <ele>155.5</ele>
        <time>2025-10-26T12:07:09Z</time>
      </trkpt>
      <trkpt lat="43.51086" lon="6.69845">
        <ele>155.5</ele>
        <time>2025-10-26T12:07:10Z</time>
      </trkpt>
      <trkpt lat="43.51085" lon="6.69845">
        <ele>155.4</ele>
        <time>2025-10-26T12:07:11Z</time>
      </trkpt>
      <trkpt lat="43.51085" lon="6.69845">
        <ele>155.4</ele>
        <time>2025-10-26T12:07:12Z</time>
      </trkpt>
      <trkpt lat="43.51085" lon="6.69845">
        <ele>155.4</ele>
        <time>2025-10-26T12:07:13Z</time>
      </trkpt>
      <trkpt lat="43.51085" lon="6.69845">
        <ele>155.4</ele>
        <time>2025-10-26T12:07:14Z</time>
      </trkpt>
      <trkpt lat="43.51085" lon="6.69845">
        <ele>155.4</ele>
        <time>2025-10-26T12:07:15Z</time>
      </trkpt>
      <trkpt lat="43.51085" lon="6.69845">
        <ele>155.4</ele>
        <time>2025-10-26T12:07:16Z</time>
      </trkpt>
      <trkpt lat="43.51085" lon="6.69846">
        <ele>155.4</ele>
        <time>2025-10-26T12:07:17Z</time>
      </trkpt>
      <trkpt lat="43.51085" lon="6.69846">
        <ele>155.3</ele>
        <time>2025-10-26T12:07:18Z</time>
      </trkpt>
      <trkpt lat="43.51085" lon="6.69846">
        <ele>155.3</ele>
        <time>2025-10-26T12:07:19Z</time>
      </trkpt>
      <trkpt lat="43.51085" lon="6.69846">
        <ele>155.2</ele>
        <time>2025-10-26T12:07:20Z</time>
      </trkpt>
      <trkpt lat="43.51085" lon="6.69846">
        <ele>155.2</ele>
        <time>2025-10-26T12:07:21Z</time>
      </trkpt>
      <trkpt lat="43.51085" lon="6.69847">
        <ele>155.1</ele>
        <time>2025-10-26T12:07:22Z</time>
      </trkpt>
      <trkpt lat="43.51085" lon="6.69847">
        <ele>155</ele>
        <time>2025-10-26T12:07:23Z</time>
      </trkpt>
      <trkpt lat="43.51085" lon="6.69847">
        <ele>155</ele>
        <time>2025-10-26T12:07:24Z</time>
      </trkpt>
      <trkpt lat="43.51085" lon="6.69846">
        <ele>155</ele>
        <time>2025-10-26T12:07:25Z</time>
      </trkpt>
      <trkpt lat="43.51085" lon="6.69846">
        <ele>155</ele>
        <time>2025-10-26T12:07:26Z</time>
      </trkpt>
      <trkpt lat="43.51085" lon="6.69846">
        <ele>155.1</ele>
        <time>2025-10-26T12:07:27Z</time>
      </trkpt>
      <trkpt lat="43.51085" lon="6.69846">
        <ele>155.1</ele>
        <time>2025-10-26T12:07:28Z</time>
      </trkpt>
      <trkpt lat="43.51085" lon="6.69847">
        <ele>155.2</ele>
        <time>2025-10-26T12:07:29Z</time>
      </trkpt>
      <trkpt lat="43.51085" lon="6.69847">
        <ele>155.2</ele>
        <time>2025-10-26T12:07:30Z</time>
      </trkpt>
      <trkpt lat="43.51085" lon="6.69847">
        <ele>155.2</ele>
        <time>2025-10-26T12:07:31Z</time>
      </trkpt>
      <trkpt lat="43.51086" lon="6.69847">
        <ele>155.2</ele>
        <time>2025-10-26T12:07:32Z</time>
      </trkpt>
      <trkpt lat="43.51086" lon="6.69847">
        <ele>155.2</ele>
        <time>2025-10-26T12:07:33Z</time>
      </trkpt>
      <trkpt lat="43.51086" lon="6.69847">
        <ele>155.2</ele>
        <time>2025-10-26T12:07:34Z</time>
      </trkpt>
      <trkpt lat="43.51086" lon="6.69848">
        <ele>155.2</ele>
        <time>2025-10-26T12:07:35Z</time>
      </trkpt>
      <trkpt lat="43.51086" lon="6.69848">
        <ele>155.2</ele>
        <time>2025-10-26T12:07:36Z</time>
      </trkpt>
      <trkpt lat="43.51086" lon="6.69848">
        <ele>155.2</ele>
        <time>2025-10-26T12:07:37Z</time>
      </trkpt>
      <trkpt lat="43.51086" lon="6.69848">
        <ele>155.2</ele>
        <time>2025-10-26T12:07:38Z</time>
      </trkpt>
      <trkpt lat="43.51086" lon="6.69848">
        <ele>155.2</ele>
        <time>2025-10-26T12:07:39Z</time>
      </trkpt>
      <trkpt lat="43.51086" lon="6.69848">
        <ele>155.2</ele>
        <time>2025-10-26T12:07:40Z</time>
      </trkpt>
      <trkpt lat="43.51087" lon="6.69849">
        <ele>155.2</ele>
        <time>2025-10-26T12:07:41Z</time>
      </trkpt>
      <trkpt lat="43.51087" lon="6.69849">
        <ele>155.2</ele>
        <time>2025-10-26T12:07:42Z</time>
      </trkpt>
      <trkpt lat="43.51087" lon="6.69849">
        <ele>155.1</ele>
        <time>2025-10-26T12:07:43Z</time>
      </trkpt>
      <trkpt lat="43.51087" lon="6.69849">
        <ele>155</ele>
        <time>2025-10-26T12:07:44Z</time>
      </trkpt>
      <trkpt lat="43.51087" lon="6.69849">
        <ele>155</ele>
        <time>2025-10-26T12:07:45Z</time>
      </trkpt>
      <trkpt lat="43.51087" lon="6.6985">
        <ele>155</ele>
        <time>2025-10-26T12:07:46Z</time>
      </trkpt>
      <trkpt lat="43.51087" lon="6.6985">
        <ele>154.9</ele>
        <time>2025-10-26T12:07:47Z</time>
      </trkpt>
      <trkpt lat="43.51087" lon="6.6985">
        <ele>154.9</ele>
        <time>2025-10-26T12:07:48Z</time>
      </trkpt>
      <trkpt lat="43.51087" lon="6.6985">
        <ele>154.9</ele>
        <time>2025-10-26T12:07:49Z</time>
      </trkpt>
      <trkpt lat="43.51088" lon="6.6985">
        <ele>154.9</ele>
        <time>2025-10-26T12:07:50Z</time>
      </trkpt>
      <trkpt lat="43.51088" lon="6.6985">
        <ele>154.9</ele>
        <time>2025-10-26T12:07:51Z</time>
      </trkpt>
      <trkpt lat="43.51088" lon="6.6985">
        <ele>154.9</ele>
        <time>2025-10-26T12:07:52Z</time>
      </trkpt>
      <trkpt lat="43.51088" lon="6.6985">
        <ele>154.9</ele>
        <time>2025-10-26T12:07:53Z</time>
      </trkpt>
      <trkpt lat="43.51088" lon="6.69851">
        <ele>154.9</ele>
        <time>2025-10-26T12:07:54Z</time>
      </trkpt>
      <trkpt lat="43.51088" lon="6.69851">
        <ele>154.9</ele>
        <time>2025-10-26T12:07:55Z</time>
      </trkpt>
      <trkpt lat="43.51088" lon="6.69851">
        <ele>154.9</ele>
        <time>2025-10-26T12:07:56Z</time>
      </trkpt>
      <trkpt lat="43.51088" lon="6.69851">
        <ele>154.8</ele>
        <time>2025-10-26T12:07:57Z</time>
      </trkpt>
      <trkpt lat="43.51088" lon="6.69851">
        <ele>154.9</ele>
        <time>2025-10-26T12:07:58Z</time>
      </trkpt>
      <trkpt lat="43.51088" lon="6.69851">
        <ele>154.9</ele>
        <time>2025-10-26T12:07:59Z</time>
      </trkpt>
      <trkpt lat="43.51088" lon="6.69851">
        <ele>155</ele>
        <time>2025-10-26T12:08:00Z</time>
      </trkpt>
      <trkpt lat="43.51088" lon="6.69851">
        <ele>155.2</ele>
        <time>2025-10-26T12:08:01Z</time>
      </trkpt>
      <trkpt lat="43.51088" lon="6.69851">
        <ele>155.3</ele>
        <time>2025-10-26T12:08:02Z</time>
      </trkpt>
      <trkpt lat="43.51088" lon="6.69851">
        <ele>155.4</ele>
        <time>2025-10-26T12:08:03Z</time>
      </trkpt>
      <trkpt lat="43.51088" lon="6.69851">
        <ele>155.3</ele>
        <time>2025-10-26T12:08:04Z</time>
      </trkpt>
      <trkpt lat="43.51088" lon="6.69851">
        <ele>155.4</ele>
        <time>2025-10-26T12:08:05Z</time>
      </trkpt>
      <trkpt lat="43.51088" lon="6.69852">
        <ele>155.5</ele>
        <time>2025-10-26T12:08:06Z</time>
      </trkpt>
      <trkpt lat="43.51088" lon="6.69852">
        <ele>155.5</ele>
        <time>2025-10-26T12:08:07Z</time>
      </trkpt>
      <trkpt lat="43.51088" lon="6.69852">
        <ele>155.6</ele>
        <time>2025-10-26T12:08:08Z</time>
      </trkpt>
      <trkpt lat="43.51088" lon="6.69852">
        <ele>155.6</ele>
        <time>2025-10-26T12:08:09Z</time>
      </trkpt>
      <trkpt lat="43.51088" lon="6.69852">
        <ele>155.5</ele>
        <time>2025-10-26T12:08:10Z</time>
      </trkpt>
      <trkpt lat="43.51088" lon="6.69852">
        <ele>155.5</ele>
        <time>2025-10-26T12:08:11Z</time>
      </trkpt>
      <trkpt lat="43.51089" lon="6.69852">
        <ele>155.4</ele>
        <time>2025-10-26T12:08:12Z</time>
      </trkpt>
      <trkpt lat="43.51088" lon="6.69852">
        <ele>155.3</ele>
        <time>2025-10-26T12:08:13Z</time>
      </trkpt>
      <trkpt lat="43.51089" lon="6.69852">
        <ele>155.2</ele>
        <time>2025-10-26T12:08:14Z</time>
      </trkpt>
      <trkpt lat="43.51089" lon="6.69852">
        <ele>155.1</ele>
        <time>2025-10-26T12:08:15Z</time>
      </trkpt>
      <trkpt lat="43.51089" lon="6.69853">
        <ele>155.1</ele>
        <time>2025-10-26T12:08:16Z</time>
      </trkpt>
      <trkpt lat="43.51089" lon="6.69853">
        <ele>155.1</ele>
        <time>2025-10-26T12:08:17Z</time>
      </trkpt>
      <trkpt lat="43.51089" lon="6.69853">
        <ele>155</ele>
        <time>2025-10-26T12:08:18Z</time>
      </trkpt>
      <trkpt lat="43.51089" lon="6.69853">
        <ele>155</ele>
        <time>2025-10-26T12:08:19Z</time>
      </trkpt>
      <trkpt lat="43.51089" lon="6.69853">
        <ele>154.9</ele>
        <time>2025-10-26T12:08:20Z</time>
      </trkpt>
      <trkpt lat="43.51089" lon="6.69853">
        <ele>154.9</ele>
        <time>2025-10-26T12:08:21Z</time>
      </trkpt>
      <trkpt lat="43.51089" lon="6.69853">
        <ele>154.9</ele>
        <time>2025-10-26T12:08:22Z</time>
      </trkpt>
      <trkpt lat="43.51089" lon="6.69853">
        <ele>154.9</ele>
        <time>2025-10-26T12:08:23Z</time>
      </trkpt>
      <trkpt lat="43.51089" lon="6.69853">
        <ele>154.8</ele>
        <time>2025-10-26T12:08:24Z</time>
      </trkpt>
      <trkpt lat="43.51089" lon="6.69853">
        <ele>154.9</ele>
        <time>2025-10-26T12:08:25Z</time>
      </trkpt>
      <trkpt lat="43.5109" lon="6.69853">
        <ele>154.9</ele>
        <time>2025-10-26T12:08:26Z</time>
      </trkpt>
      <trkpt lat="43.5109" lon="6.69853">
        <ele>155</ele>
        <time>2025-10-26T12:08:27Z</time>
      </trkpt>
      <trkpt lat="43.5109" lon="6.69853">
        <ele>155</ele>
        <time>2025-10-26T12:08:28Z</time>
      </trkpt>
      <trkpt lat="43.5109" lon="6.69853">
        <ele>155</ele>
        <time>2025-10-26T12:08:29Z</time>
      </trkpt>
      <trkpt lat="43.5109" lon="6.69853">
        <ele>155.1</ele>
        <time>2025-10-26T12:08:30Z</time>
      </trkpt>
      <trkpt lat="43.5109" lon="6.69853">
        <ele>155.2</ele>
        <time>2025-10-26T12:08:31Z</time>
      </trkpt>
      <trkpt lat="43.51091" lon="6.69853">
        <ele>155.2</ele>
        <time>2025-10-26T12:08:32Z</time>
      </trkpt>
      <trkpt lat="43.51091" lon="6.69853">
        <ele>155.2</ele>
        <time>2025-10-26T12:08:33Z</time>
      </trkpt>
      <trkpt lat="43.51091" lon="6.69853">
        <ele>155.2</ele>
        <time>2025-10-26T12:08:34Z</time>
      </trkpt>
      <trkpt lat="43.51091" lon="6.69853">
        <ele>155.2</ele>
        <time>2025-10-26T12:08:35Z</time>
      </trkpt>
      <trkpt lat="43.51091" lon="6.69853">
        <ele>155.2</ele>
        <time>2025-10-26T12:08:36Z</time>
      </trkpt>
      <trkpt lat="43.51091" lon="6.69853">
        <ele>155.2</ele>
        <time>2025-10-26T12:08:37Z</time>
      </trkpt>
      <trkpt lat="43.51091" lon="6.69853">
        <ele>155.1</ele>
        <time>2025-10-26T12:08:38Z</time>
      </trkpt>
      <trkpt lat="43.51091" lon="6.69853">
        <ele>155.1</ele>
        <time>2025-10-26T12:08:39Z</time>
      </trkpt>
      <trkpt lat="43.51091" lon="6.69853">
        <ele>155</ele>
        <time>2025-10-26T12:08:40Z</time>
      </trkpt>
      <trkpt lat="43.51092" lon="6.69853">
        <ele>155</ele>
        <time>2025-10-26T12:08:41Z</time>
      </trkpt>
      <trkpt lat="43.51092" lon="6.69853">
        <ele>155.1</ele>
        <time>2025-10-26T12:08:42Z</time>
      </trkpt>
      <trkpt lat="43.51092" lon="6.69853">
        <ele>155.2</ele>
        <time>2025-10-26T12:08:43Z</time>
      </trkpt>
      <trkpt lat="43.51092" lon="6.69853">
        <ele>155.2</ele>
        <time>2025-10-26T12:08:44Z</time>
      </trkpt>
      <trkpt lat="43.51092" lon="6.69853">
        <ele>155.3</ele>
        <time>2025-10-26T12:08:45Z</time>
      </trkpt>
      <trkpt lat="43.51092" lon="6.69853">
        <ele>155.2</ele>
        <time>2025-10-26T12:08:46Z</time>
      </trkpt>
      <trkpt lat="43.51092" lon="6.69853">
        <ele>155.2</ele>
        <time>2025-10-26T12:08:47Z</time>
      </trkpt>
      <trkpt lat="43.51092" lon="6.69853">
        <ele>155.2</ele>
        <time>2025-10-26T12:08:48Z</time>
      </trkpt>
      <trkpt lat="43.51092" lon="6.69853">
        <ele>155.2</ele>
        <time>2025-10-26T12:08:49Z</time>
      </trkpt>
      <trkpt lat="43.51092" lon="6.69853">
        <ele>155.2</ele>
        <time>2025-10-26T12:08:50Z</time>
      </trkpt>
      <trkpt lat="43.51092" lon="6.69853">
        <ele>155.2</ele>
        <time>2025-10-26T12:08:51Z</time>
      </trkpt>
      <trkpt lat="43.51092" lon="6.69853">
        <ele>155.2</ele>
        <time>2025-10-26T12:08:52Z</time>
      </trkpt>
      <trkpt lat="43.51092" lon="6.69853">
        <ele>155.2</ele>
        <time>2025-10-26T12:08:53Z</time>
      </trkpt>
      <trkpt lat="43.51091" lon="6.69853">
        <ele>155.2</ele>
        <time>2025-10-26T12:08:54Z</time>
      </trkpt>
      <trkpt lat="43.51091" lon="6.69853">
        <ele>155.2</ele>
        <time>2025-10-26T12:08:55Z</time>
      </trkpt>
      <trkpt lat="43.51091" lon="6.69852">
        <ele>155.2</ele>
        <time>2025-10-26T12:08:56Z</time>
      </trkpt>
      <trkpt lat="43.51091" lon="6.69852">
        <ele>155.1</ele>
        <time>2025-10-26T12:08:57Z</time>
      </trkpt>
      <trkpt lat="43.51091" lon="6.69852">
        <ele>155.2</ele>
        <time>2025-10-26T12:08:58Z</time>
      </trkpt>
      <trkpt lat="43.51091" lon="6.69852">
        <ele>155.1</ele>
        <time>2025-10-26T12:08:59Z</time>
      </trkpt>
      <trkpt lat="43.51091" lon="6.69852">
        <ele>155.3</ele>
        <time>2025-10-26T12:09:00Z</time>
      </trkpt>
      <trkpt lat="43.51091" lon="6.69852">
        <ele>155.3</ele>
        <time>2025-10-26T12:09:01Z</time>
      </trkpt>
      <trkpt lat="43.51091" lon="6.69852">
        <ele>155.3</ele>
        <time>2025-10-26T12:09:02Z</time>
      </trkpt>
      <trkpt lat="43.51091" lon="6.69852">
        <ele>155.3</ele>
        <time>2025-10-26T12:09:03Z</time>
      </trkpt>
      <trkpt lat="43.51091" lon="6.69852">
        <ele>155.3</ele>
        <time>2025-10-26T12:09:04Z</time>
      </trkpt>
      <trkpt lat="43.51091" lon="6.69852">
        <ele>155.3</ele>
        <time>2025-10-26T12:09:05Z</time>
      </trkpt>
      <trkpt lat="43.51091" lon="6.69852">
        <ele>155.3</ele>
        <time>2025-10-26T12:09:06Z</time>
      </trkpt>
      <trkpt lat="43.51091" lon="6.69852">
        <ele>155.3</ele>
        <time>2025-10-26T12:09:07Z</time>
      </trkpt>
      <trkpt lat="43.51091" lon="6.69852">
        <ele>155.2</ele>
        <time>2025-10-26T12:09:08Z</time>
      </trkpt>
      <trkpt lat="43.51091" lon="6.69852">
        <ele>155.3</ele>
        <time>2025-10-26T12:09:09Z</time>
      </trkpt>
      <trkpt lat="43.51091" lon="6.69852">
        <ele>155.2</ele>
        <time>2025-10-26T12:09:10Z</time>
      </trkpt>
      <trkpt lat="43.5109" lon="6.69852">
        <ele>155.1</ele>
        <time>2025-10-26T12:09:11Z</time>
      </trkpt>
      <trkpt lat="43.5109" lon="6.69852">
        <ele>155.1</ele>
        <time>2025-10-26T12:09:12Z</time>
      </trkpt>
      <trkpt lat="43.5109" lon="6.69852">
        <ele>155</ele>
        <time>2025-10-26T12:09:13Z</time>
      </trkpt>
      <trkpt lat="43.5109" lon="6.69852">
        <ele>155</ele>
        <time>2025-10-26T12:09:14Z</time>
      </trkpt>
      <trkpt lat="43.5109" lon="6.69852">
        <ele>155</ele>
        <time>2025-10-26T12:09:15Z</time>
      </trkpt>
      <trkpt lat="43.5109" lon="6.69852">
        <ele>155</ele>
        <time>2025-10-26T12:09:16Z</time>
      </trkpt>
      <trkpt lat="43.5109" lon="6.69852">
        <ele>155.1</ele>
        <time>2025-10-26T12:09:17Z</time>
      </trkpt>
      <trkpt lat="43.5109" lon="6.69852">
        <ele>155.1</ele>
        <time>2025-10-26T12:09:18Z</time>
      </trkpt>
      <trkpt lat="43.5109" lon="6.69852">
        <ele>155.1</ele>
        <time>2025-10-26T12:09:19Z</time>
      </trkpt>
      <trkpt lat="43.5109" lon="6.69852">
        <ele>155</ele>
        <time>2025-10-26T12:09:20Z</time>
      </trkpt>
      <trkpt lat="43.5109" lon="6.69852">
        <ele>155</ele>
        <time>2025-10-26T12:09:21Z</time>
      </trkpt>
      <trkpt lat="43.5109" lon="6.69852">
        <ele>155.1</ele>
        <time>2025-10-26T12:09:22Z</time>
      </trkpt>
      <trkpt lat="43.5109" lon="6.69852">
        <ele>155.2</ele>
        <time>2025-10-26T12:09:23Z</time>
      </trkpt>
      <trkpt lat="43.5109" lon="6.69852">
        <ele>155.2</ele>
        <time>2025-10-26T12:09:24Z</time>
      </trkpt>
      <trkpt lat="43.5109" lon="6.69852">
        <ele>155.2</ele>
        <time>2025-10-26T12:09:25Z</time>
      </trkpt>
      <trkpt lat="43.5109" lon="6.69852">
        <ele>155.2</ele>
        <time>2025-10-26T12:09:26Z</time>
      </trkpt>
      <trkpt lat="43.5109" lon="6.69852">
        <ele>155.2</ele>
        <time>2025-10-26T12:09:27Z</time>
      </trkpt>
      <trkpt lat="43.5109" lon="6.69852">
        <ele>155.2</ele>
        <time>2025-10-26T12:09:28Z</time>
      </trkpt>
      <trkpt lat="43.5109" lon="6.69852">
        <ele>155.2</ele>
        <time>2025-10-26T12:09:29Z</time>
      </trkpt>
      <trkpt lat="43.5109" lon="6.69852">
        <ele>155.2</ele>
        <time>2025-10-26T12:09:30Z</time>
      </trkpt>
      <trkpt lat="43.5109" lon="6.69852">
        <ele>155.2</ele>
        <time>2025-10-26T12:09:31Z</time>
      </trkpt>
      <trkpt lat="43.5109" lon="6.69852">
        <ele>155.2</ele>
        <time>2025-10-26T12:09:32Z</time>
      </trkpt>
      <trkpt lat="43.5109" lon="6.69852">
        <ele>155.2</ele>
        <time>2025-10-26T12:09:33Z</time>
      </trkpt>
      <trkpt lat="43.5109" lon="6.69853">
        <ele>155.2</ele>
        <time>2025-10-26T12:09:34Z</time>
      </trkpt>
      <trkpt lat="43.5109" lon="6.69853">
        <ele>155.2</ele>
        <time>2025-10-26T12:09:35Z</time>
      </trkpt>
      <trkpt lat="43.5109" lon="6.69853">
        <ele>155.1</ele>
        <time>2025-10-26T12:09:36Z</time>
      </trkpt>
      <trkpt lat="43.5109" lon="6.69853">
        <ele>155.2</ele>
        <time>2025-10-26T12:09:37Z</time>
      </trkpt>
      <trkpt lat="43.5109" lon="6.69852">
        <ele>155.3</ele>
        <time>2025-10-26T12:09:38Z</time>
      </trkpt>
      <trkpt lat="43.5109" lon="6.69852">
        <ele>155.3</ele>
        <time>2025-10-26T12:09:39Z</time>
      </trkpt>
      <trkpt lat="43.51089" lon="6.69852">
        <ele>155.4</ele>
        <time>2025-10-26T12:09:40Z</time>
      </trkpt>
      <trkpt lat="43.51089" lon="6.69852">
        <ele>155.4</ele>
        <time>2025-10-26T12:09:41Z</time>
      </trkpt>
      <trkpt lat="43.51089" lon="6.69852">
        <ele>155.5</ele>
        <time>2025-10-26T12:09:42Z</time>
      </trkpt>
      <trkpt lat="43.51089" lon="6.69852">
        <ele>155.6</ele>
        <time>2025-10-26T12:09:43Z</time>
      </trkpt>
      <trkpt lat="43.51089" lon="6.69852">
        <ele>155.6</ele>
        <time>2025-10-26T12:09:44Z</time>
      </trkpt>
      <trkpt lat="43.51088" lon="6.69852">
        <ele>155.6</ele>
        <time>2025-10-26T12:09:45Z</time>
      </trkpt>
      <trkpt lat="43.51088" lon="6.69852">
        <ele>155.6</ele>
        <time>2025-10-26T12:09:46Z</time>
      </trkpt>
      <trkpt lat="43.51088" lon="6.69852">
        <ele>155.6</ele>
        <time>2025-10-26T12:09:47Z</time>
      </trkpt>
      <trkpt lat="43.51087" lon="6.69852">
        <ele>155.6</ele>
        <time>2025-10-26T12:09:48Z</time>
      </trkpt>
      <trkpt lat="43.51087" lon="6.69852">
        <ele>155.6</ele>
        <time>2025-10-26T12:09:49Z</time>
      </trkpt>
      <trkpt lat="43.51087" lon="6.69852">
        <ele>155.7</ele>
        <time>2025-10-26T12:09:50Z</time>
      </trkpt>
      <trkpt lat="43.51087" lon="6.69852">
        <ele>155.7</ele>
        <time>2025-10-26T12:09:51Z</time>
      </trkpt>
      <trkpt lat="43.51086" lon="6.69852">
        <ele>155.7</ele>
        <time>2025-10-26T12:09:52Z</time>
      </trkpt>
      <trkpt lat="43.51086" lon="6.69852">
        <ele>155.7</ele>
        <time>2025-10-26T12:09:53Z</time>
      </trkpt>
      <trkpt lat="43.51086" lon="6.69852">
        <ele>155.8</ele>
        <time>2025-10-26T12:09:54Z</time>
      </trkpt>
      <trkpt lat="43.51086" lon="6.69852">
        <ele>155.8</ele>
        <time>2025-10-26T12:09:55Z</time>
      </trkpt>
      <trkpt lat="43.51086" lon="6.69853">
        <ele>155.8</ele>
        <time>2025-10-26T12:09:56Z</time>
      </trkpt>
      <trkpt lat="43.51085" lon="6.69853">
        <ele>155.7</ele>
        <time>2025-10-26T12:09:57Z</time>
      </trkpt>
      <trkpt lat="43.51085" lon="6.69853">
        <ele>155.7</ele>
        <time>2025-10-26T12:09:58Z</time>
      </trkpt>
      <trkpt lat="43.51085" lon="6.69853">
        <ele>155.7</ele>
        <time>2025-10-26T12:09:59Z</time>
      </trkpt>
      <trkpt lat="43.51085" lon="6.69853">
        <ele>155.7</ele>
        <time>2025-10-26T12:10:00Z</time>
      </trkpt>
      <trkpt lat="43.51085" lon="6.69853">
        <ele>155.7</ele>
        <time>2025-10-26T12:10:01Z</time>
      </trkpt>
      <trkpt lat="43.51085" lon="6.69853">
        <ele>155.7</ele>
        <time>2025-10-26T12:10:02Z</time>
      </trkpt>
      <trkpt lat="43.51085" lon="6.69853">
        <ele>155.6</ele>
        <time>2025-10-26T12:10:03Z</time>
      </trkpt>
      <trkpt lat="43.51085" lon="6.69854">
        <ele>155.7</ele>
        <time>2025-10-26T12:10:04Z</time>
      </trkpt>
      <trkpt lat="43.51085" lon="6.69854">
        <ele>155.6</ele>
        <time>2025-10-26T12:10:05Z</time>
      </trkpt>
      <trkpt lat="43.51085" lon="6.69854">
        <ele>155.6</ele>
        <time>2025-10-26T12:10:06Z</time>
      </trkpt>
      <trkpt lat="43.51085" lon="6.69854">
        <ele>155.6</ele>
        <time>2025-10-26T12:10:07Z</time>
      </trkpt>
      <trkpt lat="43.51085" lon="6.69854">
        <ele>155.6</ele>
        <time>2025-10-26T12:10:08Z</time>
      </trkpt>
      <trkpt lat="43.51085" lon="6.69854">
        <ele>155.5</ele>
        <time>2025-10-26T12:10:09Z</time>
      </trkpt>
      <trkpt lat="43.51085" lon="6.69854">
        <ele>155.5</ele>
        <time>2025-10-26T12:10:10Z</time>
      </trkpt>
      <trkpt lat="43.51084" lon="6.69854">
        <ele>155.5</ele>
        <time>2025-10-26T12:10:11Z</time>
      </trkpt>
      <trkpt lat="43.51084" lon="6.69855">
        <ele>155.5</ele>
        <time>2025-10-26T12:10:12Z</time>
      </trkpt>
      <trkpt lat="43.51084" lon="6.69855">
        <ele>155.5</ele>
        <time>2025-10-26T12:10:13Z</time>
      </trkpt>
      <trkpt lat="43.51085" lon="6.69855">
        <ele>155.6</ele>
        <time>2025-10-26T12:10:14Z</time>
      </trkpt>
      <trkpt lat="43.51085" lon="6.69855">
        <ele>155.5</ele>
        <time>2025-10-26T12:10:15Z</time>
      </trkpt>
      <trkpt lat="43.51085" lon="6.69855">
        <ele>155.4</ele>
        <time>2025-10-26T12:10:16Z</time>
      </trkpt>
      <trkpt lat="43.51085" lon="6.69854">
        <ele>155.3</ele>
        <time>2025-10-26T12:10:17Z</time>
      </trkpt>
      <trkpt lat="43.51085" lon="6.69854">
        <ele>155.3</ele>
        <time>2025-10-26T12:10:18Z</time>
      </trkpt>
      <trkpt lat="43.51085" lon="6.69854">
        <ele>155.2</ele>
        <time>2025-10-26T12:10:19Z</time>
      </trkpt>
      <trkpt lat="43.51085" lon="6.69854">
        <ele>155.2</ele>
        <time>2025-10-26T12:10:20Z</time>
      </trkpt>
      <trkpt lat="43.51084" lon="6.69854">
        <ele>155.1</ele>
        <time>2025-10-26T12:10:21Z</time>
      </trkpt>
      <trkpt lat="43.51084" lon="6.69854">
        <ele>155.2</ele>
        <time>2025-10-26T12:10:22Z</time>
      </trkpt>
      <trkpt lat="43.51085" lon="6.69855">
        <ele>155.2</ele>
        <time>2025-10-26T12:10:23Z</time>
      </trkpt>
      <trkpt lat="43.51085" lon="6.69855">
        <ele>155.1</ele>
        <time>2025-10-26T12:10:24Z</time>
      </trkpt>
      <trkpt lat="43.51086" lon="6.69855">
        <ele>155.1</ele>
        <time>2025-10-26T12:10:25Z</time>
      </trkpt>
      <trkpt lat="43.51086" lon="6.69855">
        <ele>155.3</ele>
        <time>2025-10-26T12:10:26Z</time>
      </trkpt>
      <trkpt lat="43.51086" lon="6.69856">
        <ele>155.5</ele>
        <time>2025-10-26T12:10:27Z</time>
      </trkpt>
      <trkpt lat="43.51086" lon="6.69856">
        <ele>155.7</ele>
        <time>2025-10-26T12:10:28Z</time>
      </trkpt>
      <trkpt lat="43.51087" lon="6.69857">
        <ele>155.8</ele>
        <time>2025-10-26T12:10:29Z</time>
      </trkpt>
      <trkpt lat="43.51088" lon="6.69857">
        <ele>155.8</ele>
        <time>2025-10-26T12:10:30Z</time>
      </trkpt>
      <trkpt lat="43.51088" lon="6.69857">
        <ele>155.8</ele>
        <time>2025-10-26T12:10:31Z</time>
      </trkpt>
      <trkpt lat="43.51089" lon="6.69858">
        <ele>155.8</ele>
        <time>2025-10-26T12:10:32Z</time>
      </trkpt>
      <trkpt lat="43.51089" lon="6.69859">
        <ele>155.8</ele>
        <time>2025-10-26T12:10:33Z</time>
      </trkpt>
      <trkpt lat="43.5109" lon="6.69859">
        <ele>155.9</ele>
        <time>2025-10-26T12:10:34Z</time>
      </trkpt>
      <trkpt lat="43.5109" lon="6.6986">
        <ele>155.9</ele>
        <time>2025-10-26T12:10:35Z</time>
      </trkpt>
      <trkpt lat="43.5109" lon="6.6986">
        <ele>156.1</ele>
        <time>2025-10-26T12:10:36Z</time>
      </trkpt>
      <trkpt lat="43.51091" lon="6.69861">
        <ele>156.1</ele>
        <time>2025-10-26T12:10:37Z</time>
      </trkpt>
      <trkpt lat="43.51091" lon="6.69862">
        <ele>156.2</ele>
        <time>2025-10-26T12:10:38Z</time>
      </trkpt>
      <trkpt lat="43.51091" lon="6.69862">
        <ele>156.1</ele>
        <time>2025-10-26T12:10:39Z</time>
      </trkpt>
      <trkpt lat="43.51092" lon="6.69863">
        <ele>156.2</ele>
        <time>2025-10-26T12:10:40Z</time>
      </trkpt>
      <trkpt lat="43.51092" lon="6.69864">
        <ele>156.3</ele>
        <time>2025-10-26T12:10:41Z</time>
      </trkpt>
      <trkpt lat="43.51093" lon="6.69865">
        <ele>156.4</ele>
        <time>2025-10-26T12:10:42Z</time>
      </trkpt>
      <trkpt lat="43.51093" lon="6.69866">
        <ele>156.4</ele>
        <time>2025-10-26T12:10:43Z</time>
      </trkpt>
      <trkpt lat="43.51093" lon="6.69867">
        <ele>156.6</ele>
        <time>2025-10-26T12:10:44Z</time>
      </trkpt>
      <trkpt lat="43.51093" lon="6.69867">
        <ele>156.6</ele>
        <time>2025-10-26T12:10:45Z</time>
      </trkpt>
      <trkpt lat="43.51093" lon="6.69867">
        <ele>156.5</ele>
        <time>2025-10-26T12:10:46Z</time>
      </trkpt>
      <trkpt lat="43.51093" lon="6.69868">
        <ele>156.6</ele>
        <time>2025-10-26T12:10:47Z</time>
      </trkpt>
      <trkpt lat="43.51094" lon="6.69868">
        <ele>156.7</ele>
        <time>2025-10-26T12:10:48Z</time>
      </trkpt>
      <trkpt lat="43.51094" lon="6.69869">
        <ele>156.9</ele>
        <time>2025-10-26T12:10:49Z</time>
      </trkpt>
      <trkpt lat="43.51094" lon="6.6987">
        <ele>157.1</ele>
        <time>2025-10-26T12:10:50Z</time>
      </trkpt>
      <trkpt lat="43.51094" lon="6.69871">
        <ele>157.3</ele>
        <time>2025-10-26T12:10:51Z</time>
      </trkpt>
      <trkpt lat="43.51095" lon="6.69872">
        <ele>157.5</ele>
        <time>2025-10-26T12:10:52Z</time>
      </trkpt>
      <trkpt lat="43.51095" lon="6.69873">
        <ele>157.7</ele>
        <time>2025-10-26T12:10:53Z</time>
      </trkpt>
      <trkpt lat="43.51095" lon="6.69873">
        <ele>157.8</ele>
        <time>2025-10-26T12:10:54Z</time>
      </trkpt>
      <trkpt lat="43.51095" lon="6.69874">
        <ele>157.9</ele>
        <time>2025-10-26T12:10:55Z</time>
      </trkpt>
      <trkpt lat="43.51095" lon="6.69875">
        <ele>158</ele>
        <time>2025-10-26T12:10:56Z</time>
      </trkpt>
      <trkpt lat="43.51095" lon="6.69876">
        <ele>158.1</ele>
        <time>2025-10-26T12:10:57Z</time>
      </trkpt>
      <trkpt lat="43.51095" lon="6.69877">
        <ele>158.2</ele>
        <time>2025-10-26T12:10:58Z</time>
      </trkpt>
      <trkpt lat="43.51095" lon="6.69878">
        <ele>158.1</ele>
        <time>2025-10-26T12:10:59Z</time>
      </trkpt>
      <trkpt lat="43.51095" lon="6.69879">
        <ele>158.1</ele>
        <time>2025-10-26T12:11:00Z</time>
      </trkpt>
      <trkpt lat="43.51095" lon="6.6988">
        <ele>158</ele>
        <time>2025-10-26T12:11:01Z</time>
      </trkpt>
      <trkpt lat="43.51095" lon="6.69881">
        <ele>158</ele>
        <time>2025-10-26T12:11:02Z</time>
      </trkpt>
      <trkpt lat="43.51095" lon="6.69882">
        <ele>158.2</ele>
        <time>2025-10-26T12:11:03Z</time>
      </trkpt>
      <trkpt lat="43.51096" lon="6.69883">
        <ele>158.3</ele>
        <time>2025-10-26T12:11:04Z</time>
      </trkpt>
      <trkpt lat="43.51096" lon="6.69885">
        <ele>158.4</ele>
        <time>2025-10-26T12:11:05Z</time>
      </trkpt>
      <trkpt lat="43.51097" lon="6.69886">
        <ele>158.4</ele>
        <time>2025-10-26T12:11:06Z</time>
      </trkpt>
      <trkpt lat="43.51097" lon="6.69887">
        <ele>158.5</ele>
        <time>2025-10-26T12:11:07Z</time>
      </trkpt>
      <trkpt lat="43.51097" lon="6.69888">
        <ele>158.6</ele>
        <time>2025-10-26T12:11:08Z</time>
      </trkpt>
      <trkpt lat="43.51097" lon="6.6989">
        <ele>158.6</ele>
        <time>2025-10-26T12:11:09Z</time>
      </trkpt>
      <trkpt lat="43.51097" lon="6.69891">
        <ele>158.7</ele>
        <time>2025-10-26T12:11:10Z</time>
      </trkpt>
      <trkpt lat="43.51097" lon="6.69892">
        <ele>158.8</ele>
        <time>2025-10-26T12:11:11Z</time>
      </trkpt>
      <trkpt lat="43.51097" lon="6.69893">
        <ele>158.8</ele>
        <time>2025-10-26T12:11:12Z</time>
      </trkpt>
      <trkpt lat="43.51097" lon="6.69894">
        <ele>158.8</ele>
        <time>2025-10-26T12:11:13Z</time>
      </trkpt>
      <trkpt lat="43.51097" lon="6.69896">
        <ele>158.7</ele>
        <time>2025-10-26T12:11:14Z</time>
      </trkpt>
      <trkpt lat="43.51097" lon="6.69897">
        <ele>158.7</ele>
        <time>2025-10-26T12:11:15Z</time>
      </trkpt>
      <trkpt lat="43.51097" lon="6.69898">
        <ele>158.6</ele>
        <time>2025-10-26T12:11:16Z</time>
      </trkpt>
      <trkpt lat="43.51097" lon="6.69899">
        <ele>158.6</ele>
        <time>2025-10-26T12:11:17Z</time>
      </trkpt>
      <trkpt lat="43.51097" lon="6.699">
        <ele>158.6</ele>
        <time>2025-10-26T12:11:18Z</time>
      </trkpt>
      <trkpt lat="43.51097" lon="6.69901">
        <ele>158.8</ele>
        <time>2025-10-26T12:11:19Z</time>
      </trkpt>
      <trkpt lat="43.51097" lon="6.69902">
        <ele>158.9</ele>
        <time>2025-10-26T12:11:20Z</time>
      </trkpt>
      <trkpt lat="43.51098" lon="6.69903">
        <ele>159.1</ele>
        <time>2025-10-26T12:11:21Z</time>
      </trkpt>
      <trkpt lat="43.51098" lon="6.69904">
        <ele>159.3</ele>
        <time>2025-10-26T12:11:22Z</time>
      </trkpt>
      <trkpt lat="43.51098" lon="6.69905">
        <ele>159.5</ele>
        <time>2025-10-26T12:11:23Z</time>
      </trkpt>
      <trkpt lat="43.51097" lon="6.69906">
        <ele>159.8</ele>
        <time>2025-10-26T12:11:24Z</time>
      </trkpt>
      <trkpt lat="43.51098" lon="6.69907">
        <ele>160.1</ele>
        <time>2025-10-26T12:11:25Z</time>
      </trkpt>
      <trkpt lat="43.51097" lon="6.69907">
        <ele>160.3</ele>
        <time>2025-10-26T12:11:26Z</time>
      </trkpt>
      <trkpt lat="43.51097" lon="6.69908">
        <ele>160.5</ele>
        <time>2025-10-26T12:11:27Z</time>
      </trkpt>
      <trkpt lat="43.51097" lon="6.69909">
        <ele>160.7</ele>
        <time>2025-10-26T12:11:28Z</time>
      </trkpt>
      <trkpt lat="43.51097" lon="6.69911">
        <ele>160.8</ele>
        <time>2025-10-26T12:11:29Z</time>
      </trkpt>
      <trkpt lat="43.51098" lon="6.69912">
        <ele>161</ele>
        <time>2025-10-26T12:11:30Z</time>
      </trkpt>
      <trkpt lat="43.51098" lon="6.69914">
        <ele>161.1</ele>
        <time>2025-10-26T12:11:31Z</time>
      </trkpt>
      <trkpt lat="43.51098" lon="6.69915">
        <ele>161.1</ele>
        <time>2025-10-26T12:11:32Z</time>
      </trkpt>
      <trkpt lat="43.51098" lon="6.69916">
        <ele>161.2</ele>
        <time>2025-10-26T12:11:33Z</time>
      </trkpt>
      <trkpt lat="43.51098" lon="6.69918">
        <ele>161.2</ele>
        <time>2025-10-26T12:11:34Z</time>
      </trkpt>
      <trkpt lat="43.51097" lon="6.6992">
        <ele>161.2</ele>
        <time>2025-10-26T12:11:35Z</time>
      </trkpt>
      <trkpt lat="43.51097" lon="6.69921">
        <ele>161.2</ele>
        <time>2025-10-26T12:11:36Z</time>
      </trkpt>
      <trkpt lat="43.51097" lon="6.69922">
        <ele>161.3</ele>
        <time>2025-10-26T12:11:37Z</time>
      </trkpt>
      <trkpt lat="43.51097" lon="6.69923">
        <ele>161.4</ele>
        <time>2025-10-26T12:11:38Z</time>
      </trkpt>
      <trkpt lat="43.51097" lon="6.69924">
        <ele>161.6</ele>
        <time>2025-10-26T12:11:39Z</time>
      </trkpt>
      <trkpt lat="43.51097" lon="6.69926">
        <ele>161.8</ele>
        <time>2025-10-26T12:11:40Z</time>
      </trkpt>
      <trkpt lat="43.51096" lon="6.69927">
        <ele>161.9</ele>
        <time>2025-10-26T12:11:41Z</time>
      </trkpt>
      <trkpt lat="43.51096" lon="6.69928">
        <ele>162.1</ele>
        <time>2025-10-26T12:11:42Z</time>
      </trkpt>
      <trkpt lat="43.51096" lon="6.69929">
        <ele>162.3</ele>
        <time>2025-10-26T12:11:43Z</time>
      </trkpt>
      <trkpt lat="43.51095" lon="6.6993">
        <ele>162.5</ele>
        <time>2025-10-26T12:11:44Z</time>
      </trkpt>
      <trkpt lat="43.51095" lon="6.69931">
        <ele>162.7</ele>
        <time>2025-10-26T12:11:45Z</time>
      </trkpt>
      <trkpt lat="43.51094" lon="6.69932">
        <ele>162.8</ele>
        <time>2025-10-26T12:11:46Z</time>
      </trkpt>
      <trkpt lat="43.51094" lon="6.69933">
        <ele>163</ele>
        <time>2025-10-26T12:11:47Z</time>
      </trkpt>
      <trkpt lat="43.51093" lon="6.69934">
        <ele>163.2</ele>
        <time>2025-10-26T12:11:48Z</time>
      </trkpt>
      <trkpt lat="43.51093" lon="6.69934">
        <ele>163.4</ele>
        <time>2025-10-26T12:11:49Z</time>
      </trkpt>
      <trkpt lat="43.51093" lon="6.69935">
        <ele>163.6</ele>
        <time>2025-10-26T12:11:50Z</time>
      </trkpt>
      <trkpt lat="43.51093" lon="6.69936">
        <ele>163.6</ele>
        <time>2025-10-26T12:11:51Z</time>
      </trkpt>
      <trkpt lat="43.51093" lon="6.69937">
        <ele>163.6</ele>
        <time>2025-10-26T12:11:52Z</time>
      </trkpt>
      <trkpt lat="43.51093" lon="6.69938">
        <ele>163.7</ele>
        <time>2025-10-26T12:11:53Z</time>
      </trkpt>
      <trkpt lat="43.51093" lon="6.69938">
        <ele>163.8</ele>
        <time>2025-10-26T12:11:54Z</time>
      </trkpt>
      <trkpt lat="43.51093" lon="6.69939">
        <ele>164</ele>
        <time>2025-10-26T12:11:55Z</time>
      </trkpt>
      <trkpt lat="43.51093" lon="6.69939">
        <ele>164.1</ele>
        <time>2025-10-26T12:11:56Z</time>
      </trkpt>
      <trkpt lat="43.51093" lon="6.6994">
        <ele>164.2</ele>
        <time>2025-10-26T12:11:57Z</time>
      </trkpt>
      <trkpt lat="43.51093" lon="6.6994">
        <ele>164.2</ele>
        <time>2025-10-26T12:11:58Z</time>
      </trkpt>
      <trkpt lat="43.51093" lon="6.69941">
        <ele>164.2</ele>
        <time>2025-10-26T12:11:59Z</time>
      </trkpt>
      <trkpt lat="43.51093" lon="6.69941">
        <ele>164.3</ele>
        <time>2025-10-26T12:12:00Z</time>
      </trkpt>
      <trkpt lat="43.51093" lon="6.69942">
        <ele>164.3</ele>
        <time>2025-10-26T12:12:01Z</time>
      </trkpt>
      <trkpt lat="43.51093" lon="6.69942">
        <ele>164.3</ele>
        <time>2025-10-26T12:12:02Z</time>
      </trkpt>
      <trkpt lat="43.51093" lon="6.69942">
        <ele>164.2</ele>
        <time>2025-10-26T12:12:03Z</time>
      </trkpt>
      <trkpt lat="43.51093" lon="6.69943">
        <ele>164.2</ele>
        <time>2025-10-26T12:12:04Z</time>
      </trkpt>
      <trkpt lat="43.51094" lon="6.69943">
        <ele>164.2</ele>
        <time>2025-10-26T12:12:05Z</time>
      </trkpt>
      <trkpt lat="43.51093" lon="6.69943">
        <ele>164.3</ele>
        <time>2025-10-26T12:12:06Z</time>
      </trkpt>
      <trkpt lat="43.51094" lon="6.69944">
        <ele>164.3</ele>
        <time>2025-10-26T12:12:07Z</time>
      </trkpt>
      <trkpt lat="43.51094" lon="6.69944">
        <ele>164.2</ele>
        <time>2025-10-26T12:12:08Z</time>
      </trkpt>
      <trkpt lat="43.51094" lon="6.69944">
        <ele>164.2</ele>
        <time>2025-10-26T12:12:09Z</time>
      </trkpt>
      <trkpt lat="43.51094" lon="6.69944">
        <ele>164.2</ele>
        <time>2025-10-26T12:12:10Z</time>
      </trkpt>
      <trkpt lat="43.51094" lon="6.69945">
        <ele>164.2</ele>
        <time>2025-10-26T12:12:11Z</time>
      </trkpt>
      <trkpt lat="43.51094" lon="6.69945">
        <ele>164.1</ele>
        <time>2025-10-26T12:12:12Z</time>
      </trkpt>
      <trkpt lat="43.51093" lon="6.69945">
        <ele>164</ele>
        <time>2025-10-26T12:12:13Z</time>
      </trkpt>
      <trkpt lat="43.51093" lon="6.69945">
        <ele>164</ele>
        <time>2025-10-26T12:12:14Z</time>
      </trkpt>
      <trkpt lat="43.51092" lon="6.69946">
        <ele>164.1</ele>
        <time>2025-10-26T12:12:15Z</time>
      </trkpt>
      <trkpt lat="43.51092" lon="6.69947">
        <ele>164.1</ele>
        <time>2025-10-26T12:12:16Z</time>
      </trkpt>
      <trkpt lat="43.51091" lon="6.69948">
        <ele>164.1</ele>
        <time>2025-10-26T12:12:17Z</time>
      </trkpt>
      <trkpt lat="43.51091" lon="6.69949">
        <ele>164.2</ele>
        <time>2025-10-26T12:12:18Z</time>
      </trkpt>
      <trkpt lat="43.5109" lon="6.6995">
        <ele>164.2</ele>
        <time>2025-10-26T12:12:19Z</time>
      </trkpt>
      <trkpt lat="43.5109" lon="6.69951">
        <ele>164.3</ele>
        <time>2025-10-26T12:12:20Z</time>
      </trkpt>
      <trkpt lat="43.5109" lon="6.69951">
        <ele>164.3</ele>
        <time>2025-10-26T12:12:21Z</time>
      </trkpt>
      <trkpt lat="43.5109" lon="6.69952">
        <ele>164.3</ele>
        <time>2025-10-26T12:12:22Z</time>
      </trkpt>
      <trkpt lat="43.51089" lon="6.69953">
        <ele>164.3</ele>
        <time>2025-10-26T12:12:23Z</time>
      </trkpt>
      <trkpt lat="43.51089" lon="6.69954">
        <ele>164.2</ele>
        <time>2025-10-26T12:12:24Z</time>
      </trkpt>
      <trkpt lat="43.51089" lon="6.69956">
        <ele>164.1</ele>
        <time>2025-10-26T12:12:25Z</time>
      </trkpt>
      <trkpt lat="43.51089" lon="6.69957">
        <ele>164</ele>
        <time>2025-10-26T12:12:26Z</time>
      </trkpt>
      <trkpt lat="43.51089" lon="6.69958">
        <ele>164</ele>
        <time>2025-10-26T12:12:27Z</time>
      </trkpt>
      <trkpt lat="43.51089" lon="6.69959">
        <ele>163.9</ele>
        <time>2025-10-26T12:12:28Z</time>
      </trkpt>
      <trkpt lat="43.51088" lon="6.6996">
        <ele>163.7</ele>
        <time>2025-10-26T12:12:29Z</time>
      </trkpt>
      <trkpt lat="43.51088" lon="6.69961">
        <ele>163.4</ele>
        <time>2025-10-26T12:12:30Z</time>
      </trkpt>
      <trkpt lat="43.51088" lon="6.69962">
        <ele>163.3</ele>
        <time>2025-10-26T12:12:31Z</time>
      </trkpt>
      <trkpt lat="43.51088" lon="6.69963">
        <ele>163.2</ele>
        <time>2025-10-26T12:12:32Z</time>
      </trkpt>
      <trkpt lat="43.51087" lon="6.69963">
        <ele>163.2</ele>
        <time>2025-10-26T12:12:33Z</time>
      </trkpt>
      <trkpt lat="43.51087" lon="6.69964">
        <ele>163</ele>
        <time>2025-10-26T12:12:34Z</time>
      </trkpt>
      <trkpt lat="43.51086" lon="6.69965">
        <ele>162.9</ele>
        <time>2025-10-26T12:12:35Z</time>
      </trkpt>
      <trkpt lat="43.51086" lon="6.69966">
        <ele>162.8</ele>
        <time>2025-10-26T12:12:36Z</time>
      </trkpt>
      <trkpt lat="43.51086" lon="6.69967">
        <ele>162.5</ele>
        <time>2025-10-26T12:12:37Z</time>
      </trkpt>
      <trkpt lat="43.51085" lon="6.69967">
        <ele>162.4</ele>
        <time>2025-10-26T12:12:38Z</time>
      </trkpt>
      <trkpt lat="43.51084" lon="6.69968">
        <ele>162.2</ele>
        <time>2025-10-26T12:12:39Z</time>
      </trkpt>
      <trkpt lat="43.51084" lon="6.69969">
        <ele>162.1</ele>
        <time>2025-10-26T12:12:40Z</time>
      </trkpt>
      <trkpt lat="43.51084" lon="6.69969">
        <ele>161.9</ele>
        <time>2025-10-26T12:12:41Z</time>
      </trkpt>
      <trkpt lat="43.51084" lon="6.69969">
        <ele>161.8</ele>
        <time>2025-10-26T12:12:42Z</time>
      </trkpt>
      <trkpt lat="43.51083" lon="6.6997">
        <ele>161.7</ele>
        <time>2025-10-26T12:12:43Z</time>
      </trkpt>
      <trkpt lat="43.51083" lon="6.69972">
        <ele>161.6</ele>
        <time>2025-10-26T12:12:44Z</time>
      </trkpt>
      <trkpt lat="43.51083" lon="6.69973">
        <ele>161.5</ele>
        <time>2025-10-26T12:12:45Z</time>
      </trkpt>
      <trkpt lat="43.51083" lon="6.69974">
        <ele>161.4</ele>
        <time>2025-10-26T12:12:46Z</time>
      </trkpt>
      <trkpt lat="43.51082" lon="6.69975">
        <ele>161.3</ele>
        <time>2025-10-26T12:12:47Z</time>
      </trkpt>
      <trkpt lat="43.51082" lon="6.69976">
        <ele>161.3</ele>
        <time>2025-10-26T12:12:48Z</time>
      </trkpt>
      <trkpt lat="43.51082" lon="6.69977">
        <ele>161.2</ele>
        <time>2025-10-26T12:12:49Z</time>
      </trkpt>
      <trkpt lat="43.51082" lon="6.69979">
        <ele>161.1</ele>
        <time>2025-10-26T12:12:50Z</time>
      </trkpt>
      <trkpt lat="43.51082" lon="6.69979">
        <ele>161.1</ele>
        <time>2025-10-26T12:12:51Z</time>
      </trkpt>
      <trkpt lat="43.51082" lon="6.69979">
        <ele>161.1</ele>
        <time>2025-10-26T12:12:52Z</time>
      </trkpt>
      <trkpt lat="43.51082" lon="6.6998">
        <ele>161</ele>
        <time>2025-10-26T12:12:53Z</time>
      </trkpt>
      <trkpt lat="43.51082" lon="6.69982">
        <ele>160.9</ele>
        <time>2025-10-26T12:12:54Z</time>
      </trkpt>
      <trkpt lat="43.51081" lon="6.69982">
        <ele>160.9</ele>
        <time>2025-10-26T12:12:55Z</time>
      </trkpt>
      <trkpt lat="43.51081" lon="6.69984">
        <ele>160.8</ele>
        <time>2025-10-26T12:12:56Z</time>
      </trkpt>
      <trkpt lat="43.51081" lon="6.69985">
        <ele>160.7</ele>
        <time>2025-10-26T12:12:57Z</time>
      </trkpt>
      <trkpt lat="43.5108" lon="6.69986">
        <ele>160.5</ele>
        <time>2025-10-26T12:12:58Z</time>
      </trkpt>
      <trkpt lat="43.5108" lon="6.69988">
        <ele>160.4</ele>
        <time>2025-10-26T12:12:59Z</time>
      </trkpt>
      <trkpt lat="43.5108" lon="6.69988">
        <ele>160.3</ele>
        <time>2025-10-26T12:13:00Z</time>
      </trkpt>
      <trkpt lat="43.51079" lon="6.69989">
        <ele>160.1</ele>
        <time>2025-10-26T12:13:01Z</time>
      </trkpt>
      <trkpt lat="43.51078" lon="6.69991">
        <ele>160</ele>
        <time>2025-10-26T12:13:02Z</time>
      </trkpt>
      <trkpt lat="43.51078" lon="6.69991">
        <ele>159.9</ele>
        <time>2025-10-26T12:13:03Z</time>
      </trkpt>
      <trkpt lat="43.51077" lon="6.69991">
        <ele>159.8</ele>
        <time>2025-10-26T12:13:04Z</time>
      </trkpt>
      <trkpt lat="43.51077" lon="6.69992">
        <ele>159.8</ele>
        <time>2025-10-26T12:13:05Z</time>
      </trkpt>
      <trkpt lat="43.51076" lon="6.69992">
        <ele>159.8</ele>
        <time>2025-10-26T12:13:06Z</time>
      </trkpt>
      <trkpt lat="43.51075" lon="6.69993">
        <ele>159.8</ele>
        <time>2025-10-26T12:13:07Z</time>
      </trkpt>
      <trkpt lat="43.51075" lon="6.69994">
        <ele>159.9</ele>
        <time>2025-10-26T12:13:08Z</time>
      </trkpt>
      <trkpt lat="43.51074" lon="6.69995">
        <ele>159.9</ele>
        <time>2025-10-26T12:13:09Z</time>
      </trkpt>
      <trkpt lat="43.51073" lon="6.69996">
        <ele>160</ele>
        <time>2025-10-26T12:13:10Z</time>
      </trkpt>
      <trkpt lat="43.51072" lon="6.69997">
        <ele>159.9</ele>
        <time>2025-10-26T12:13:11Z</time>
      </trkpt>
      <trkpt lat="43.51072" lon="6.69998">
        <ele>159.9</ele>
        <time>2025-10-26T12:13:12Z</time>
      </trkpt>
      <trkpt lat="43.51071" lon="6.69999">
        <ele>160</ele>
        <time>2025-10-26T12:13:13Z</time>
      </trkpt>
      <trkpt lat="43.5107" lon="6.69999">
        <ele>160</ele>
        <time>2025-10-26T12:13:14Z</time>
      </trkpt>
      <trkpt lat="43.51069" lon="6.7">
        <ele>160</ele>
        <time>2025-10-26T12:13:15Z</time>
      </trkpt>
      <trkpt lat="43.51068" lon="6.70001">
        <ele>159.9</ele>
        <time>2025-10-26T12:13:16Z</time>
      </trkpt>
      <trkpt lat="43.51067" lon="6.70001">
        <ele>159.9</ele>
        <time>2025-10-26T12:13:17Z</time>
      </trkpt>
      <trkpt lat="43.51066" lon="6.70001">
        <ele>159.9</ele>
        <time>2025-10-26T12:13:18Z</time>
      </trkpt>
      <trkpt lat="43.51065" lon="6.70001">
        <ele>159.9</ele>
        <time>2025-10-26T12:13:19Z</time>
      </trkpt>
      <trkpt lat="43.51065" lon="6.70001">
        <ele>160</ele>
        <time>2025-10-26T12:13:20Z</time>
      </trkpt>
      <trkpt lat="43.51065" lon="6.70002">
        <ele>159.7</ele>
        <time>2025-10-26T12:13:21Z</time>
      </trkpt>
      <trkpt lat="43.51064" lon="6.70003">
        <ele>159.8</ele>
        <time>2025-10-26T12:13:22Z</time>
      </trkpt>
      <trkpt lat="43.51064" lon="6.70004">
        <ele>160</ele>
        <time>2025-10-26T12:13:23Z</time>
      </trkpt>
      <trkpt lat="43.51064" lon="6.70004">
        <ele>160</ele>
        <time>2025-10-26T12:13:24Z</time>
      </trkpt>
      <trkpt lat="43.51064" lon="6.70005">
        <ele>160.1</ele>
        <time>2025-10-26T12:13:25Z</time>
      </trkpt>
      <trkpt lat="43.51064" lon="6.70005">
        <ele>160.2</ele>
        <time>2025-10-26T12:13:26Z</time>
      </trkpt>
      <trkpt lat="43.51063" lon="6.70004">
        <ele>160.2</ele>
        <time>2025-10-26T12:13:27Z</time>
      </trkpt>
      <trkpt lat="43.51063" lon="6.70004">
        <ele>160.3</ele>
        <time>2025-10-26T12:13:28Z</time>
      </trkpt>
      <trkpt lat="43.51062" lon="6.70003">
        <ele>160.3</ele>
        <time>2025-10-26T12:13:29Z</time>
      </trkpt>
      <trkpt lat="43.51061" lon="6.70003">
        <ele>160.4</ele>
        <time>2025-10-26T12:13:30Z</time>
      </trkpt>
      <trkpt lat="43.5106" lon="6.70002">
        <ele>160.3</ele>
        <time>2025-10-26T12:13:31Z</time>
      </trkpt>
      <trkpt lat="43.5106" lon="6.70002">
        <ele>160.2</ele>
        <time>2025-10-26T12:13:32Z</time>
      </trkpt>
      <trkpt lat="43.5106" lon="6.70001">
        <ele>160.2</ele>
        <time>2025-10-26T12:13:33Z</time>
      </trkpt>
      <trkpt lat="43.5106" lon="6.70001">
        <ele>160.2</ele>
        <time>2025-10-26T12:13:34Z</time>
      </trkpt>
      <trkpt lat="43.51059" lon="6.7">
        <ele>160.2</ele>
        <time>2025-10-26T12:13:35Z</time>
      </trkpt>
      <trkpt lat="43.51058" lon="6.69999">
        <ele>160</ele>
        <time>2025-10-26T12:13:36Z</time>
      </trkpt>
      <trkpt lat="43.51057" lon="6.69998">
        <ele>159.9</ele>
        <time>2025-10-26T12:13:37Z</time>
      </trkpt>
      <trkpt lat="43.51057" lon="6.69998">
        <ele>159.8</ele>
        <time>2025-10-26T12:13:38Z</time>
      </trkpt>
      <trkpt lat="43.51056" lon="6.69997">
        <ele>159.7</ele>
        <time>2025-10-26T12:13:39Z</time>
      </trkpt>
      <trkpt lat="43.51056" lon="6.69996">
        <ele>159.6</ele>
        <time>2025-10-26T12:13:40Z</time>
      </trkpt>
      <trkpt lat="43.51055" lon="6.69996">
        <ele>159.5</ele>
        <time>2025-10-26T12:13:41Z</time>
      </trkpt>
      <trkpt lat="43.51055" lon="6.69996">
        <ele>159.3</ele>
        <time>2025-10-26T12:13:42Z</time>
      </trkpt>
      <trkpt lat="43.51054" lon="6.69995">
        <ele>159.2</ele>
        <time>2025-10-26T12:13:43Z</time>
      </trkpt>
      <trkpt lat="43.51054" lon="6.69994">
        <ele>158.9</ele>
        <time>2025-10-26T12:13:44Z</time>
      </trkpt>
      <trkpt lat="43.51053" lon="6.69993">
        <ele>158.8</ele>
        <time>2025-10-26T12:13:45Z</time>
      </trkpt>
      <trkpt lat="43.51052" lon="6.69992">
        <ele>158.7</ele>
        <time>2025-10-26T12:13:46Z</time>
      </trkpt>
      <trkpt lat="43.51051" lon="6.69992">
        <ele>158.6</ele>
        <time>2025-10-26T12:13:47Z</time>
      </trkpt>
      <trkpt lat="43.5105" lon="6.69991">
        <ele>158.4</ele>
        <time>2025-10-26T12:13:48Z</time>
      </trkpt>
      <trkpt lat="43.51049" lon="6.69991">
        <ele>158.3</ele>
        <time>2025-10-26T12:13:49Z</time>
      </trkpt>
      <trkpt lat="43.51048" lon="6.6999">
        <ele>158.3</ele>
        <time>2025-10-26T12:13:50Z</time>
      </trkpt>
      <trkpt lat="43.51047" lon="6.6999">
        <ele>158.1</ele>
        <time>2025-10-26T12:13:51Z</time>
      </trkpt>
      <trkpt lat="43.51046" lon="6.6999">
        <ele>158</ele>
        <time>2025-10-26T12:13:52Z</time>
      </trkpt>
      <trkpt lat="43.51045" lon="6.6999">
        <ele>157.8</ele>
        <time>2025-10-26T12:13:53Z</time>
      </trkpt>
      <trkpt lat="43.51044" lon="6.6999">
        <ele>157.7</ele>
        <time>2025-10-26T12:13:54Z</time>
      </trkpt>
      <trkpt lat="43.51043" lon="6.6999">
        <ele>157.8</ele>
        <time>2025-10-26T12:13:55Z</time>
      </trkpt>
      <trkpt lat="43.51042" lon="6.6999">
        <ele>157.8</ele>
        <time>2025-10-26T12:13:56Z</time>
      </trkpt>
      <trkpt lat="43.51041" lon="6.69991">
        <ele>157.7</ele>
        <time>2025-10-26T12:13:57Z</time>
      </trkpt>
      <trkpt lat="43.5104" lon="6.69991">
        <ele>157.7</ele>
        <time>2025-10-26T12:13:58Z</time>
      </trkpt>
      <trkpt lat="43.51039" lon="6.69992">
        <ele>157.6</ele>
        <time>2025-10-26T12:13:59Z</time>
      </trkpt>
      <trkpt lat="43.51038" lon="6.69992">
        <ele>157.6</ele>
        <time>2025-10-26T12:14:00Z</time>
      </trkpt>
      <trkpt lat="43.51038" lon="6.69993">
        <ele>157.5</ele>
        <time>2025-10-26T12:14:01Z</time>
      </trkpt>
      <trkpt lat="43.51036" lon="6.69992">
        <ele>157.4</ele>
        <time>2025-10-26T12:14:02Z</time>
      </trkpt>
      <trkpt lat="43.51035" lon="6.69992">
        <ele>157.4</ele>
        <time>2025-10-26T12:14:03Z</time>
      </trkpt>
      <trkpt lat="43.51034" lon="6.69992">
        <ele>157.3</ele>
        <time>2025-10-26T12:14:04Z</time>
      </trkpt>
      <trkpt lat="43.51034" lon="6.69992">
        <ele>157.3</ele>
        <time>2025-10-26T12:14:05Z</time>
      </trkpt>
      <trkpt lat="43.51033" lon="6.69992">
        <ele>157.3</ele>
        <time>2025-10-26T12:14:06Z</time>
      </trkpt>
      <trkpt lat="43.51032" lon="6.69993">
        <ele>157.3</ele>
        <time>2025-10-26T12:14:07Z</time>
      </trkpt>
      <trkpt lat="43.5103" lon="6.69993">
        <ele>157.3</ele>
        <time>2025-10-26T12:14:08Z</time>
      </trkpt>
      <trkpt lat="43.51029" lon="6.69993">
        <ele>157.3</ele>
        <time>2025-10-26T12:14:09Z</time>
      </trkpt>
      <trkpt lat="43.51028" lon="6.69994">
        <ele>157.1</ele>
        <time>2025-10-26T12:14:10Z</time>
      </trkpt>
      <trkpt lat="43.51027" lon="6.69995">
        <ele>157</ele>
        <time>2025-10-26T12:14:11Z</time>
      </trkpt>
      <trkpt lat="43.51026" lon="6.69995">
        <ele>157</ele>
        <time>2025-10-26T12:14:12Z</time>
      </trkpt>
      <trkpt lat="43.51025" lon="6.69996">
        <ele>156.9</ele>
        <time>2025-10-26T12:14:13Z</time>
      </trkpt>
      <trkpt lat="43.51024" lon="6.69997">
        <ele>156.9</ele>
        <time>2025-10-26T12:14:14Z</time>
      </trkpt>
      <trkpt lat="43.51023" lon="6.69998">
        <ele>157</ele>
        <time>2025-10-26T12:14:15Z</time>
      </trkpt>
      <trkpt lat="43.51022" lon="6.69998">
        <ele>157</ele>
        <time>2025-10-26T12:14:16Z</time>
      </trkpt>
      <trkpt lat="43.51021" lon="6.69998">
        <ele>156.9</ele>
        <time>2025-10-26T12:14:17Z</time>
      </trkpt>
      <trkpt lat="43.51021" lon="6.69999">
        <ele>156.9</ele>
        <time>2025-10-26T12:14:18Z</time>
      </trkpt>
      <trkpt lat="43.5102" lon="6.7">
        <ele>156.7</ele>
        <time>2025-10-26T12:14:19Z</time>
      </trkpt>
      <trkpt lat="43.51019" lon="6.70001">
        <ele>156.6</ele>
        <time>2025-10-26T12:14:20Z</time>
      </trkpt>
      <trkpt lat="43.51018" lon="6.70002">
        <ele>156.5</ele>
        <time>2025-10-26T12:14:21Z</time>
      </trkpt>
      <trkpt lat="43.51017" lon="6.70002">
        <ele>156.5</ele>
        <time>2025-10-26T12:14:22Z</time>
      </trkpt>
      <trkpt lat="43.51016" lon="6.70003">
        <ele>156.5</ele>
        <time>2025-10-26T12:14:23Z</time>
      </trkpt>
      <trkpt lat="43.51016" lon="6.70005">
        <ele>156.4</ele>
        <time>2025-10-26T12:14:24Z</time>
      </trkpt>
      <trkpt lat="43.51015" lon="6.70006">
        <ele>156.3</ele>
        <time>2025-10-26T12:14:25Z</time>
      </trkpt>
      <trkpt lat="43.51014" lon="6.70006">
        <ele>156.3</ele>
        <time>2025-10-26T12:14:26Z</time>
      </trkpt>
      <trkpt lat="43.51014" lon="6.70007">
        <ele>156.3</ele>
        <time>2025-10-26T12:14:27Z</time>
      </trkpt>
      <trkpt lat="43.51013" lon="6.70008">
        <ele>156.2</ele>
        <time>2025-10-26T12:14:28Z</time>
      </trkpt>
      <trkpt lat="43.51012" lon="6.70009">
        <ele>156.2</ele>
        <time>2025-10-26T12:14:29Z</time>
      </trkpt>
      <trkpt lat="43.51011" lon="6.70009">
        <ele>156.1</ele>
        <time>2025-10-26T12:14:30Z</time>
      </trkpt>
      <trkpt lat="43.51011" lon="6.7001">
        <ele>156.1</ele>
        <time>2025-10-26T12:14:31Z</time>
      </trkpt>
      <trkpt lat="43.5101" lon="6.70012">
        <ele>156</ele>
        <time>2025-10-26T12:14:32Z</time>
      </trkpt>
      <trkpt lat="43.51009" lon="6.70012">
        <ele>156</ele>
        <time>2025-10-26T12:14:33Z</time>
      </trkpt>
      <trkpt lat="43.51009" lon="6.70013">
        <ele>155.9</ele>
        <time>2025-10-26T12:14:34Z</time>
      </trkpt>
      <trkpt lat="43.51008" lon="6.70014">
        <ele>155.9</ele>
        <time>2025-10-26T12:14:35Z</time>
      </trkpt>
      <trkpt lat="43.51007" lon="6.70014">
        <ele>155.8</ele>
        <time>2025-10-26T12:14:36Z</time>
      </trkpt>
      <trkpt lat="43.51006" lon="6.70015">
        <ele>155.7</ele>
        <time>2025-10-26T12:14:37Z</time>
      </trkpt>
      <trkpt lat="43.51005" lon="6.70015">
        <ele>155.6</ele>
        <time>2025-10-26T12:14:38Z</time>
      </trkpt>
      <trkpt lat="43.51005" lon="6.70017">
        <ele>155.5</ele>
        <time>2025-10-26T12:14:39Z</time>
      </trkpt>
      <trkpt lat="43.51004" lon="6.70018">
        <ele>155.5</ele>
        <time>2025-10-26T12:14:40Z</time>
      </trkpt>
      <trkpt lat="43.51003" lon="6.70019">
        <ele>155.2</ele>
        <time>2025-10-26T12:14:41Z</time>
      </trkpt>
      <trkpt lat="43.51002" lon="6.7002">
        <ele>155</ele>
        <time>2025-10-26T12:14:42Z</time>
      </trkpt>
      <trkpt lat="43.51001" lon="6.7002">
        <ele>154.9</ele>
        <time>2025-10-26T12:14:43Z</time>
      </trkpt>
      <trkpt lat="43.51" lon="6.70021">
        <ele>154.8</ele>
        <time>2025-10-26T12:14:44Z</time>
      </trkpt>
      <trkpt lat="43.51" lon="6.70022">
        <ele>154.7</ele>
        <time>2025-10-26T12:14:45Z</time>
      </trkpt>
      <trkpt lat="43.50999" lon="6.70022">
        <ele>154.7</ele>
        <time>2025-10-26T12:14:46Z</time>
      </trkpt>
      <trkpt lat="43.50998" lon="6.70024">
        <ele>154.6</ele>
        <time>2025-10-26T12:14:47Z</time>
      </trkpt>
      <trkpt lat="43.50998" lon="6.70024">
        <ele>154.6</ele>
        <time>2025-10-26T12:14:48Z</time>
      </trkpt>
      <trkpt lat="43.50997" lon="6.70025">
        <ele>154.6</ele>
        <time>2025-10-26T12:14:49Z</time>
      </trkpt>
      <trkpt lat="43.50996" lon="6.70026">
        <ele>154.5</ele>
        <time>2025-10-26T12:14:50Z</time>
      </trkpt>
      <trkpt lat="43.50995" lon="6.70027">
        <ele>154.4</ele>
        <time>2025-10-26T12:14:51Z</time>
      </trkpt>
      <trkpt lat="43.50994" lon="6.70027">
        <ele>154.3</ele>
        <time>2025-10-26T12:14:52Z</time>
      </trkpt>
      <trkpt lat="43.50993" lon="6.70028">
        <ele>154.2</ele>
        <time>2025-10-26T12:14:53Z</time>
      </trkpt>
      <trkpt lat="43.50992" lon="6.70029">
        <ele>154.1</ele>
        <time>2025-10-26T12:14:54Z</time>
      </trkpt>
      <trkpt lat="43.50992" lon="6.7003">
        <ele>154</ele>
        <time>2025-10-26T12:14:55Z</time>
      </trkpt>
      <trkpt lat="43.50991" lon="6.70031">
        <ele>154</ele>
        <time>2025-10-26T12:14:56Z</time>
      </trkpt>
      <trkpt lat="43.5099" lon="6.70032">
        <ele>153.9</ele>
        <time>2025-10-26T12:14:57Z</time>
      </trkpt>
      <trkpt lat="43.50989" lon="6.70033">
        <ele>153.9</ele>
        <time>2025-10-26T12:14:58Z</time>
      </trkpt>
      <trkpt lat="43.50988" lon="6.70034">
        <ele>153.9</ele>
        <time>2025-10-26T12:14:59Z</time>
      </trkpt>
      <trkpt lat="43.50988" lon="6.70035">
        <ele>153.8</ele>
        <time>2025-10-26T12:15:00Z</time>
      </trkpt>
      <trkpt lat="43.50987" lon="6.70036">
        <ele>153.8</ele>
        <time>2025-10-26T12:15:01Z</time>
      </trkpt>
      <trkpt lat="43.50986" lon="6.70037">
        <ele>153.7</ele>
        <time>2025-10-26T12:15:02Z</time>
      </trkpt>
      <trkpt lat="43.50986" lon="6.70038">
        <ele>153.7</ele>
        <time>2025-10-26T12:15:03Z</time>
      </trkpt>
      <trkpt lat="43.50985" lon="6.70039">
        <ele>153.7</ele>
        <time>2025-10-26T12:15:04Z</time>
      </trkpt>
      <trkpt lat="43.50984" lon="6.70041">
        <ele>153.7</ele>
        <time>2025-10-26T12:15:05Z</time>
      </trkpt>
      <trkpt lat="43.50983" lon="6.70042">
        <ele>153.5</ele>
        <time>2025-10-26T12:15:06Z</time>
      </trkpt>
      <trkpt lat="43.50982" lon="6.70043">
        <ele>153.5</ele>
        <time>2025-10-26T12:15:07Z</time>
      </trkpt>
      <trkpt lat="43.50982" lon="6.70044">
        <ele>153.4</ele>
        <time>2025-10-26T12:15:08Z</time>
      </trkpt>
      <trkpt lat="43.50981" lon="6.70045">
        <ele>153.3</ele>
        <time>2025-10-26T12:15:09Z</time>
      </trkpt>
      <trkpt lat="43.5098" lon="6.70046">
        <ele>153.3</ele>
        <time>2025-10-26T12:15:10Z</time>
      </trkpt>
      <trkpt lat="43.5098" lon="6.70047">
        <ele>153.2</ele>
        <time>2025-10-26T12:15:11Z</time>
      </trkpt>
      <trkpt lat="43.50979" lon="6.70047">
        <ele>153</ele>
        <time>2025-10-26T12:15:12Z</time>
      </trkpt>
      <trkpt lat="43.50978" lon="6.70048">
        <ele>152.9</ele>
        <time>2025-10-26T12:15:13Z</time>
      </trkpt>
      <trkpt lat="43.50977" lon="6.7005">
        <ele>152.7</ele>
        <time>2025-10-26T12:15:14Z</time>
      </trkpt>
      <trkpt lat="43.50977" lon="6.70051">
        <ele>152.5</ele>
        <time>2025-10-26T12:15:15Z</time>
      </trkpt>
      <trkpt lat="43.50976" lon="6.70052">
        <ele>152.3</ele>
        <time>2025-10-26T12:15:16Z</time>
      </trkpt>
      <trkpt lat="43.50976" lon="6.70053">
        <ele>152.3</ele>
        <time>2025-10-26T12:15:17Z</time>
      </trkpt>
      <trkpt lat="43.50975" lon="6.70054">
        <ele>152.2</ele>
        <time>2025-10-26T12:15:18Z</time>
      </trkpt>
      <trkpt lat="43.50975" lon="6.70055">
        <ele>151.9</ele>
        <time>2025-10-26T12:15:19Z</time>
      </trkpt>
      <trkpt lat="43.50974" lon="6.70056">
        <ele>151.8</ele>
        <time>2025-10-26T12:15:20Z</time>
      </trkpt>
      <trkpt lat="43.50973" lon="6.70057">
        <ele>151.7</ele>
        <time>2025-10-26T12:15:21Z</time>
      </trkpt>
      <trkpt lat="43.50972" lon="6.70058">
        <ele>151.5</ele>
        <time>2025-10-26T12:15:22Z</time>
      </trkpt>
      <trkpt lat="43.50972" lon="6.70059">
        <ele>151.4</ele>
        <time>2025-10-26T12:15:23Z</time>
      </trkpt>
      <trkpt lat="43.50971" lon="6.70061">
        <ele>151.2</ele>
        <time>2025-10-26T12:15:24Z</time>
      </trkpt>
      <trkpt lat="43.50971" lon="6.70062">
        <ele>151.1</ele>
        <time>2025-10-26T12:15:25Z</time>
      </trkpt>
      <trkpt lat="43.5097" lon="6.70063">
        <ele>151</ele>
        <time>2025-10-26T12:15:26Z</time>
      </trkpt>
      <trkpt lat="43.50969" lon="6.70064">
        <ele>150.9</ele>
        <time>2025-10-26T12:15:27Z</time>
      </trkpt>
      <trkpt lat="43.50968" lon="6.70065">
        <ele>150.9</ele>
        <time>2025-10-26T12:15:28Z</time>
      </trkpt>
      <trkpt lat="43.50967" lon="6.70066">
        <ele>150.9</ele>
        <time>2025-10-26T12:15:29Z</time>
      </trkpt>
      <trkpt lat="43.50966" lon="6.70067">
        <ele>150.9</ele>
        <time>2025-10-26T12:15:30Z</time>
      </trkpt>
      <trkpt lat="43.50965" lon="6.70067">
        <ele>150.9</ele>
        <time>2025-10-26T12:15:31Z</time>
      </trkpt>
      <trkpt lat="43.50965" lon="6.70068">
        <ele>150.9</ele>
        <time>2025-10-26T12:15:32Z</time>
      </trkpt>
      <trkpt lat="43.50964" lon="6.70068">
        <ele>150.8</ele>
        <time>2025-10-26T12:15:33Z</time>
      </trkpt>
      <trkpt lat="43.50963" lon="6.70069">
        <ele>150.7</ele>
        <time>2025-10-26T12:15:34Z</time>
      </trkpt>
      <trkpt lat="43.50962" lon="6.70069">
        <ele>150.6</ele>
        <time>2025-10-26T12:15:35Z</time>
      </trkpt>
      <trkpt lat="43.50961" lon="6.7007">
        <ele>150.7</ele>
        <time>2025-10-26T12:15:36Z</time>
      </trkpt>
      <trkpt lat="43.5096" lon="6.70071">
        <ele>150.6</ele>
        <time>2025-10-26T12:15:37Z</time>
      </trkpt>
      <trkpt lat="43.50959" lon="6.7007">
        <ele>150.5</ele>
        <time>2025-10-26T12:15:38Z</time>
      </trkpt>
      <trkpt lat="43.50958" lon="6.7007">
        <ele>150.3</ele>
        <time>2025-10-26T12:15:39Z</time>
      </trkpt>
      <trkpt lat="43.50957" lon="6.70071">
        <ele>150.2</ele>
        <time>2025-10-26T12:15:40Z</time>
      </trkpt>
      <trkpt lat="43.50957" lon="6.70071">
        <ele>150.1</ele>
        <time>2025-10-26T12:15:41Z</time>
      </trkpt>
      <trkpt lat="43.50956" lon="6.70071">
        <ele>150.1</ele>
        <time>2025-10-26T12:15:42Z</time>
      </trkpt>
      <trkpt lat="43.50955" lon="6.70072">
        <ele>150</ele>
        <time>2025-10-26T12:15:43Z</time>
      </trkpt>
      <trkpt lat="43.50955" lon="6.70073">
        <ele>149.9</ele>
        <time>2025-10-26T12:15:44Z</time>
      </trkpt>
      <trkpt lat="43.50954" lon="6.70073">
        <ele>149.8</ele>
        <time>2025-10-26T12:15:45Z</time>
      </trkpt>
      <trkpt lat="43.50953" lon="6.70074">
        <ele>149.7</ele>
        <time>2025-10-26T12:15:46Z</time>
      </trkpt>
      <trkpt lat="43.50953" lon="6.70075">
        <ele>149.7</ele>
        <time>2025-10-26T12:15:47Z</time>
      </trkpt>
      <trkpt lat="43.50952" lon="6.70077">
        <ele>149.4</ele>
        <time>2025-10-26T12:15:48Z</time>
      </trkpt>
      <trkpt lat="43.50951" lon="6.70078">
        <ele>149.3</ele>
        <time>2025-10-26T12:15:49Z</time>
      </trkpt>
      <trkpt lat="43.5095" lon="6.70079">
        <ele>149.2</ele>
        <time>2025-10-26T12:15:50Z</time>
      </trkpt>
      <trkpt lat="43.50949" lon="6.70079">
        <ele>149</ele>
        <time>2025-10-26T12:15:51Z</time>
      </trkpt>
      <trkpt lat="43.50948" lon="6.7008">
        <ele>148.9</ele>
        <time>2025-10-26T12:15:52Z</time>
      </trkpt>
      <trkpt lat="43.50947" lon="6.70081">
        <ele>148.7</ele>
        <time>2025-10-26T12:15:53Z</time>
      </trkpt>
      <trkpt lat="43.50946" lon="6.70082">
        <ele>148.6</ele>
        <time>2025-10-26T12:15:54Z</time>
      </trkpt>
      <trkpt lat="43.50945" lon="6.70083">
        <ele>148.5</ele>
        <time>2025-10-26T12:15:55Z</time>
      </trkpt>
      <trkpt lat="43.50944" lon="6.70083">
        <ele>148.3</ele>
        <time>2025-10-26T12:15:56Z</time>
      </trkpt>
      <trkpt lat="43.50942" lon="6.70083">
        <ele>148.1</ele>
        <time>2025-10-26T12:15:57Z</time>
      </trkpt>
      <trkpt lat="43.50941" lon="6.70083">
        <ele>148.1</ele>
        <time>2025-10-26T12:15:58Z</time>
      </trkpt>
      <trkpt lat="43.50941" lon="6.70084">
        <ele>148.1</ele>
        <time>2025-10-26T12:15:59Z</time>
      </trkpt>
      <trkpt lat="43.5094" lon="6.70084">
        <ele>148</ele>
        <time>2025-10-26T12:16:00Z</time>
      </trkpt>
      <trkpt lat="43.50939" lon="6.70085">
        <ele>147.9</ele>
        <time>2025-10-26T12:16:01Z</time>
      </trkpt>
      <trkpt lat="43.50938" lon="6.70085">
        <ele>147.8</ele>
        <time>2025-10-26T12:16:02Z</time>
      </trkpt>
      <trkpt lat="43.50938" lon="6.70086">
        <ele>147.4</ele>
        <time>2025-10-26T12:16:03Z</time>
      </trkpt>
      <trkpt lat="43.50937" lon="6.70086">
        <ele>147.3</ele>
        <time>2025-10-26T12:16:04Z</time>
      </trkpt>
      <trkpt lat="43.50936" lon="6.70087">
        <ele>147.2</ele>
        <time>2025-10-26T12:16:05Z</time>
      </trkpt>
      <trkpt lat="43.50935" lon="6.70087">
        <ele>147.1</ele>
        <time>2025-10-26T12:16:06Z</time>
      </trkpt>
      <trkpt lat="43.50935" lon="6.70087">
        <ele>147</ele>
        <time>2025-10-26T12:16:07Z</time>
      </trkpt>
      <trkpt lat="43.50935" lon="6.70087">
        <ele>146.9</ele>
        <time>2025-10-26T12:16:08Z</time>
      </trkpt>
      <trkpt lat="43.50934" lon="6.70087">
        <ele>146.9</ele>
        <time>2025-10-26T12:16:09Z</time>
      </trkpt>
      <trkpt lat="43.50934" lon="6.70087">
        <ele>146.8</ele>
        <time>2025-10-26T12:16:10Z</time>
      </trkpt>
      <trkpt lat="43.50934" lon="6.70087">
        <ele>146.7</ele>
        <time>2025-10-26T12:16:11Z</time>
      </trkpt>
      <trkpt lat="43.50933" lon="6.70087">
        <ele>146.6</ele>
        <time>2025-10-26T12:16:12Z</time>
      </trkpt>
      <trkpt lat="43.50931" lon="6.70088">
        <ele>146.5</ele>
        <time>2025-10-26T12:16:13Z</time>
      </trkpt>
      <trkpt lat="43.5093" lon="6.70088">
        <ele>146.4</ele>
        <time>2025-10-26T12:16:14Z</time>
      </trkpt>
      <trkpt lat="43.5093" lon="6.70088">
        <ele>146.3</ele>
        <time>2025-10-26T12:16:15Z</time>
      </trkpt>
      <trkpt lat="43.50929" lon="6.70088">
        <ele>146.2</ele>
        <time>2025-10-26T12:16:16Z</time>
      </trkpt>
      <trkpt lat="43.50928" lon="6.70088">
        <ele>146</ele>
        <time>2025-10-26T12:16:17Z</time>
      </trkpt>
      <trkpt lat="43.50927" lon="6.70088">
        <ele>145.8</ele>
        <time>2025-10-26T12:16:18Z</time>
      </trkpt>
      <trkpt lat="43.50926" lon="6.70088">
        <ele>145.7</ele>
        <time>2025-10-26T12:16:19Z</time>
      </trkpt>
      <trkpt lat="43.50925" lon="6.70088">
        <ele>145.6</ele>
        <time>2025-10-26T12:16:20Z</time>
      </trkpt>
      <trkpt lat="43.50924" lon="6.70088">
        <ele>145.5</ele>
        <time>2025-10-26T12:16:21Z</time>
      </trkpt>
      <trkpt lat="43.50923" lon="6.70087">
        <ele>145.5</ele>
        <time>2025-10-26T12:16:22Z</time>
      </trkpt>
      <trkpt lat="43.50922" lon="6.70087">
        <ele>145.4</ele>
        <time>2025-10-26T12:16:23Z</time>
      </trkpt>
      <trkpt lat="43.50921" lon="6.70087">
        <ele>145.3</ele>
        <time>2025-10-26T12:16:24Z</time>
      </trkpt>
      <trkpt lat="43.5092" lon="6.70087">
        <ele>145.2</ele>
        <time>2025-10-26T12:16:25Z</time>
      </trkpt>
      <trkpt lat="43.50919" lon="6.70087">
        <ele>145.2</ele>
        <time>2025-10-26T12:16:26Z</time>
      </trkpt>
      <trkpt lat="43.50918" lon="6.70086">
        <ele>145.1</ele>
        <time>2025-10-26T12:16:27Z</time>
      </trkpt>
      <trkpt lat="43.50917" lon="6.70086">
        <ele>145</ele>
        <time>2025-10-26T12:16:28Z</time>
      </trkpt>
      <trkpt lat="43.50916" lon="6.70085">
        <ele>144.9</ele>
        <time>2025-10-26T12:16:29Z</time>
      </trkpt>
      <trkpt lat="43.50915" lon="6.70086">
        <ele>145</ele>
        <time>2025-10-26T12:16:30Z</time>
      </trkpt>
      <trkpt lat="43.50914" lon="6.70085">
        <ele>144.9</ele>
        <time>2025-10-26T12:16:31Z</time>
      </trkpt>
      <trkpt lat="43.50913" lon="6.70085">
        <ele>144.8</ele>
        <time>2025-10-26T12:16:32Z</time>
      </trkpt>
      <trkpt lat="43.50913" lon="6.70085">
        <ele>144.7</ele>
        <time>2025-10-26T12:16:33Z</time>
      </trkpt>
      <trkpt lat="43.50912" lon="6.70085">
        <ele>144.7</ele>
        <time>2025-10-26T12:16:34Z</time>
      </trkpt>
      <trkpt lat="43.50911" lon="6.70085">
        <ele>144.6</ele>
        <time>2025-10-26T12:16:35Z</time>
      </trkpt>
      <trkpt lat="43.5091" lon="6.70084">
        <ele>144.7</ele>
        <time>2025-10-26T12:16:36Z</time>
      </trkpt>
      <trkpt lat="43.50909" lon="6.70083">
        <ele>144.7</ele>
        <time>2025-10-26T12:16:37Z</time>
      </trkpt>
      <trkpt lat="43.50907" lon="6.70083">
        <ele>144.7</ele>
        <time>2025-10-26T12:16:38Z</time>
      </trkpt>
      <trkpt lat="43.50906" lon="6.70083">
        <ele>144.8</ele>
        <time>2025-10-26T12:16:39Z</time>
      </trkpt>
      <trkpt lat="43.50905" lon="6.70082">
        <ele>144.8</ele>
        <time>2025-10-26T12:16:40Z</time>
      </trkpt>
      <trkpt lat="43.50904" lon="6.70082">
        <ele>144.9</ele>
        <time>2025-10-26T12:16:41Z</time>
      </trkpt>
      <trkpt lat="43.50903" lon="6.70081">
        <ele>144.9</ele>
        <time>2025-10-26T12:16:42Z</time>
      </trkpt>
      <trkpt lat="43.50902" lon="6.70081">
        <ele>145</ele>
        <time>2025-10-26T12:16:43Z</time>
      </trkpt>
      <trkpt lat="43.50901" lon="6.7008">
        <ele>144.9</ele>
        <time>2025-10-26T12:16:44Z</time>
      </trkpt>
      <trkpt lat="43.509" lon="6.7008">
        <ele>144.9</ele>
        <time>2025-10-26T12:16:45Z</time>
      </trkpt>
      <trkpt lat="43.50899" lon="6.7008">
        <ele>144.8</ele>
        <time>2025-10-26T12:16:46Z</time>
      </trkpt>
      <trkpt lat="43.50898" lon="6.7008">
        <ele>144.8</ele>
        <time>2025-10-26T12:16:47Z</time>
      </trkpt>
      <trkpt lat="43.50898" lon="6.7008">
        <ele>144.7</ele>
        <time>2025-10-26T12:16:48Z</time>
      </trkpt>
      <trkpt lat="43.50898" lon="6.70079">
        <ele>144.6</ele>
        <time>2025-10-26T12:16:49Z</time>
      </trkpt>
      <trkpt lat="43.50897" lon="6.70078">
        <ele>144.5</ele>
        <time>2025-10-26T12:16:50Z</time>
      </trkpt>
      <trkpt lat="43.50896" lon="6.70077">
        <ele>144.5</ele>
        <time>2025-10-26T12:16:51Z</time>
      </trkpt>
      <trkpt lat="43.50896" lon="6.70077">
        <ele>144.4</ele>
        <time>2025-10-26T12:16:52Z</time>
      </trkpt>
      <trkpt lat="43.50896" lon="6.70076">
        <ele>144.4</ele>
        <time>2025-10-26T12:16:53Z</time>
      </trkpt>
      <trkpt lat="43.50896" lon="6.70075">
        <ele>144.3</ele>
        <time>2025-10-26T12:16:54Z</time>
      </trkpt>
      <trkpt lat="43.50897" lon="6.70074">
        <ele>144.2</ele>
        <time>2025-10-26T12:16:55Z</time>
      </trkpt>
      <trkpt lat="43.50897" lon="6.70074">
        <ele>144.1</ele>
        <time>2025-10-26T12:16:56Z</time>
      </trkpt>
      <trkpt lat="43.50898" lon="6.70073">
        <ele>144</ele>
        <time>2025-10-26T12:16:57Z</time>
      </trkpt>
      <trkpt lat="43.50897" lon="6.70073">
        <ele>144</ele>
        <time>2025-10-26T12:16:58Z</time>
      </trkpt>
      <trkpt lat="43.50898" lon="6.70073">
        <ele>144.1</ele>
        <time>2025-10-26T12:16:59Z</time>
      </trkpt>
      <trkpt lat="43.50898" lon="6.70073">
        <ele>144.1</ele>
        <time>2025-10-26T12:17:00Z</time>
      </trkpt>
      <trkpt lat="43.50898" lon="6.70073">
        <ele>144.2</ele>
        <time>2025-10-26T12:17:01Z</time>
      </trkpt>
      <trkpt lat="43.50898" lon="6.70073">
        <ele>144.2</ele>
        <time>2025-10-26T12:17:02Z</time>
      </trkpt>
      <trkpt lat="43.50898" lon="6.70073">
        <ele>144.2</ele>
        <time>2025-10-26T12:17:03Z</time>
      </trkpt>
      <trkpt lat="43.50898" lon="6.70073">
        <ele>144.2</ele>
        <time>2025-10-26T12:17:04Z</time>
      </trkpt>
      <trkpt lat="43.50898" lon="6.70073">
        <ele>144.2</ele>
        <time>2025-10-26T12:17:05Z</time>
      </trkpt>
      <trkpt lat="43.50899" lon="6.70073">
        <ele>144.3</ele>
        <time>2025-10-26T12:17:06Z</time>
      </trkpt>
      <trkpt lat="43.50899" lon="6.70074">
        <ele>144.3</ele>
        <time>2025-10-26T12:17:07Z</time>
      </trkpt>
      <trkpt lat="43.50899" lon="6.70074">
        <ele>144.2</ele>
        <time>2025-10-26T12:17:08Z</time>
      </trkpt>
      <trkpt lat="43.50899" lon="6.70074">
        <ele>144.1</ele>
        <time>2025-10-26T12:17:09Z</time>
      </trkpt>
      <trkpt lat="43.50899" lon="6.70073">
        <ele>144.1</ele>
        <time>2025-10-26T12:17:10Z</time>
      </trkpt>
      <trkpt lat="43.50899" lon="6.70073">
        <ele>144</ele>
        <time>2025-10-26T12:17:11Z</time>
      </trkpt>
      <trkpt lat="43.50898" lon="6.70073">
        <ele>144</ele>
        <time>2025-10-26T12:17:12Z</time>
      </trkpt>
      <trkpt lat="43.50898" lon="6.70073">
        <ele>144</ele>
        <time>2025-10-26T12:17:13Z</time>
      </trkpt>
      <trkpt lat="43.50898" lon="6.70073">
        <ele>144</ele>
        <time>2025-10-26T12:17:14Z</time>
      </trkpt>
      <trkpt lat="43.50898" lon="6.70073">
        <ele>144.1</ele>
        <time>2025-10-26T12:17:15Z</time>
      </trkpt>
      <trkpt lat="43.50898" lon="6.70073">
        <ele>144.2</ele>
        <time>2025-10-26T12:17:16Z</time>
      </trkpt>
      <trkpt lat="43.50897" lon="6.70073">
        <ele>144.2</ele>
        <time>2025-10-26T12:17:17Z</time>
      </trkpt>
      <trkpt lat="43.50897" lon="6.70073">
        <ele>144.1</ele>
        <time>2025-10-26T12:17:18Z</time>
      </trkpt>
      <trkpt lat="43.50897" lon="6.70074">
        <ele>144.1</ele>
        <time>2025-10-26T12:17:19Z</time>
      </trkpt>
      <trkpt lat="43.50896" lon="6.70074">
        <ele>144.1</ele>
        <time>2025-10-26T12:17:20Z</time>
      </trkpt>
      <trkpt lat="43.50895" lon="6.70074">
        <ele>144.1</ele>
        <time>2025-10-26T12:17:21Z</time>
      </trkpt>
      <trkpt lat="43.50894" lon="6.70074">
        <ele>144</ele>
        <time>2025-10-26T12:17:22Z</time>
      </trkpt>
      <trkpt lat="43.50894" lon="6.70074">
        <ele>143.8</ele>
        <time>2025-10-26T12:17:23Z</time>
      </trkpt>
      <trkpt lat="43.50893" lon="6.70074">
        <ele>143.8</ele>
        <time>2025-10-26T12:17:24Z</time>
      </trkpt>
      <trkpt lat="43.50892" lon="6.70074">
        <ele>143.8</ele>
        <time>2025-10-26T12:17:25Z</time>
      </trkpt>
      <trkpt lat="43.50891" lon="6.70075">
        <ele>143.8</ele>
        <time>2025-10-26T12:17:26Z</time>
      </trkpt>
      <trkpt lat="43.5089" lon="6.70075">
        <ele>143.7</ele>
        <time>2025-10-26T12:17:27Z</time>
      </trkpt>
      <trkpt lat="43.50889" lon="6.70075">
        <ele>143.6</ele>
        <time>2025-10-26T12:17:28Z</time>
      </trkpt>
      <trkpt lat="43.50888" lon="6.70075">
        <ele>143.6</ele>
        <time>2025-10-26T12:17:29Z</time>
      </trkpt>
      <trkpt lat="43.50887" lon="6.70075">
        <ele>143.6</ele>
        <time>2025-10-26T12:17:30Z</time>
      </trkpt>
      <trkpt lat="43.50886" lon="6.70075">
        <ele>143.6</ele>
        <time>2025-10-26T12:17:31Z</time>
      </trkpt>
      <trkpt lat="43.50886" lon="6.70074">
        <ele>143.6</ele>
        <time>2025-10-26T12:17:32Z</time>
      </trkpt>
      <trkpt lat="43.50885" lon="6.70074">
        <ele>143.6</ele>
        <time>2025-10-26T12:17:33Z</time>
      </trkpt>
      <trkpt lat="43.50884" lon="6.70075">
        <ele>143.7</ele>
        <time>2025-10-26T12:17:34Z</time>
      </trkpt>
      <trkpt lat="43.50884" lon="6.70076">
        <ele>143.7</ele>
        <time>2025-10-26T12:17:35Z</time>
      </trkpt>
      <trkpt lat="43.50883" lon="6.70076">
        <ele>143.7</ele>
        <time>2025-10-26T12:17:36Z</time>
      </trkpt>
      <trkpt lat="43.50882" lon="6.70076">
        <ele>143.8</ele>
        <time>2025-10-26T12:17:37Z</time>
      </trkpt>
      <trkpt lat="43.50881" lon="6.70076">
        <ele>143.7</ele>
        <time>2025-10-26T12:17:38Z</time>
      </trkpt>
      <trkpt lat="43.50881" lon="6.70077">
        <ele>143.7</ele>
        <time>2025-10-26T12:17:39Z</time>
      </trkpt>
      <trkpt lat="43.50881" lon="6.70078">
        <ele>143.6</ele>
        <time>2025-10-26T12:17:40Z</time>
      </trkpt>
      <trkpt lat="43.50881" lon="6.70078">
        <ele>143.6</ele>
        <time>2025-10-26T12:17:41Z</time>
      </trkpt>
      <trkpt lat="43.50881" lon="6.70079">
        <ele>143.6</ele>
        <time>2025-10-26T12:17:42Z</time>
      </trkpt>
      <trkpt lat="43.5088" lon="6.70079">
        <ele>143.5</ele>
        <time>2025-10-26T12:17:43Z</time>
      </trkpt>
      <trkpt lat="43.50879" lon="6.70079">
        <ele>143.4</ele>
        <time>2025-10-26T12:17:44Z</time>
      </trkpt>
      <trkpt lat="43.50878" lon="6.70079">
        <ele>143.3</ele>
        <time>2025-10-26T12:17:45Z</time>
      </trkpt>
      <trkpt lat="43.50877" lon="6.70079">
        <ele>143.3</ele>
        <time>2025-10-26T12:17:46Z</time>
      </trkpt>
      <trkpt lat="43.50876" lon="6.70079">
        <ele>143.2</ele>
        <time>2025-10-26T12:17:47Z</time>
      </trkpt>
      <trkpt lat="43.50875" lon="6.70079">
        <ele>143.3</ele>
        <time>2025-10-26T12:17:48Z</time>
      </trkpt>
      <trkpt lat="43.50874" lon="6.70079">
        <ele>143.2</ele>
        <time>2025-10-26T12:17:49Z</time>
      </trkpt>
      <trkpt lat="43.50873" lon="6.70079">
        <ele>143.2</ele>
        <time>2025-10-26T12:17:50Z</time>
      </trkpt>
      <trkpt lat="43.50873" lon="6.70079">
        <ele>143.1</ele>
        <time>2025-10-26T12:17:51Z</time>
      </trkpt>
      <trkpt lat="43.50872" lon="6.70079">
        <ele>143</ele>
        <time>2025-10-26T12:17:52Z</time>
      </trkpt>
      <trkpt lat="43.50871" lon="6.7008">
        <ele>142.9</ele>
        <time>2025-10-26T12:17:53Z</time>
      </trkpt>
      <trkpt lat="43.5087" lon="6.7008">
        <ele>142.8</ele>
        <time>2025-10-26T12:17:54Z</time>
      </trkpt>
      <trkpt lat="43.50869" lon="6.7008">
        <ele>142.7</ele>
        <time>2025-10-26T12:17:55Z</time>
      </trkpt>
      <trkpt lat="43.50868" lon="6.70081">
        <ele>142.7</ele>
        <time>2025-10-26T12:17:56Z</time>
      </trkpt>
      <trkpt lat="43.50867" lon="6.70081">
        <ele>142.6</ele>
        <time>2025-10-26T12:17:57Z</time>
      </trkpt>
      <trkpt lat="43.50866" lon="6.70081">
        <ele>142.6</ele>
        <time>2025-10-26T12:17:58Z</time>
      </trkpt>
      <trkpt lat="43.50865" lon="6.70081">
        <ele>142.7</ele>
        <time>2025-10-26T12:17:59Z</time>
      </trkpt>
      <trkpt lat="43.50864" lon="6.7008">
        <ele>142.8</ele>
        <time>2025-10-26T12:18:00Z</time>
      </trkpt>
      <trkpt lat="43.50863" lon="6.7008">
        <ele>142.8</ele>
        <time>2025-10-26T12:18:01Z</time>
      </trkpt>
      <trkpt lat="43.50862" lon="6.7008">
        <ele>142.8</ele>
        <time>2025-10-26T12:18:02Z</time>
      </trkpt>
      <trkpt lat="43.50862" lon="6.7008">
        <ele>142.8</ele>
        <time>2025-10-26T12:18:03Z</time>
      </trkpt>
      <trkpt lat="43.50862" lon="6.7008">
        <ele>142.7</ele>
        <time>2025-10-26T12:18:04Z</time>
      </trkpt>
      <trkpt lat="43.50861" lon="6.7008">
        <ele>142.8</ele>
        <time>2025-10-26T12:18:05Z</time>
      </trkpt>
      <trkpt lat="43.5086" lon="6.7008">
        <ele>142.8</ele>
        <time>2025-10-26T12:18:06Z</time>
      </trkpt>
      <trkpt lat="43.5086" lon="6.70081">
        <ele>142.8</ele>
        <time>2025-10-26T12:18:07Z</time>
      </trkpt>
      <trkpt lat="43.50859" lon="6.70081">
        <ele>142.8</ele>
        <time>2025-10-26T12:18:08Z</time>
      </trkpt>
      <trkpt lat="43.50859" lon="6.7008">
        <ele>142.9</ele>
        <time>2025-10-26T12:18:09Z</time>
      </trkpt>
      <trkpt lat="43.50858" lon="6.70079">
        <ele>143</ele>
        <time>2025-10-26T12:18:10Z</time>
      </trkpt>
      <trkpt lat="43.50858" lon="6.70079">
        <ele>143.1</ele>
        <time>2025-10-26T12:18:11Z</time>
      </trkpt>
      <trkpt lat="43.50857" lon="6.70078">
        <ele>143.1</ele>
        <time>2025-10-26T12:18:12Z</time>
      </trkpt>
      <trkpt lat="43.50857" lon="6.70077">
        <ele>143.1</ele>
        <time>2025-10-26T12:18:13Z</time>
      </trkpt>
      <trkpt lat="43.50856" lon="6.70076">
        <ele>143.1</ele>
        <time>2025-10-26T12:18:14Z</time>
      </trkpt>
      <trkpt lat="43.50855" lon="6.70076">
        <ele>143.1</ele>
        <time>2025-10-26T12:18:15Z</time>
      </trkpt>
      <trkpt lat="43.50854" lon="6.70075">
        <ele>143.1</ele>
        <time>2025-10-26T12:18:16Z</time>
      </trkpt>
      <trkpt lat="43.50854" lon="6.70074">
        <ele>143.1</ele>
        <time>2025-10-26T12:18:17Z</time>
      </trkpt>
      <trkpt lat="43.50853" lon="6.70073">
        <ele>143.2</ele>
        <time>2025-10-26T12:18:18Z</time>
      </trkpt>
      <trkpt lat="43.50853" lon="6.70072">
        <ele>143.2</ele>
        <time>2025-10-26T12:18:19Z</time>
      </trkpt>
      <trkpt lat="43.50853" lon="6.70071">
        <ele>143.4</ele>
        <time>2025-10-26T12:18:20Z</time>
      </trkpt>
      <trkpt lat="43.50853" lon="6.7007">
        <ele>143.4</ele>
        <time>2025-10-26T12:18:21Z</time>
      </trkpt>
      <trkpt lat="43.50853" lon="6.70069">
        <ele>143.4</ele>
        <time>2025-10-26T12:18:22Z</time>
      </trkpt>
      <trkpt lat="43.50852" lon="6.70068">
        <ele>143.4</ele>
        <time>2025-10-26T12:18:23Z</time>
      </trkpt>
      <trkpt lat="43.50852" lon="6.70067">
        <ele>143.4</ele>
        <time>2025-10-26T12:18:24Z</time>
      </trkpt>
      <trkpt lat="43.50852" lon="6.70066">
        <ele>143.4</ele>
        <time>2025-10-26T12:18:25Z</time>
      </trkpt>
      <trkpt lat="43.50852" lon="6.70065">
        <ele>143.5</ele>
        <time>2025-10-26T12:18:26Z</time>
      </trkpt>
      <trkpt lat="43.50851" lon="6.70064">
        <ele>143.6</ele>
        <time>2025-10-26T12:18:27Z</time>
      </trkpt>
      <trkpt lat="43.50851" lon="6.70063">
        <ele>143.6</ele>
        <time>2025-10-26T12:18:28Z</time>
      </trkpt>
      <trkpt lat="43.50851" lon="6.70062">
        <ele>143.5</ele>
        <time>2025-10-26T12:18:29Z</time>
      </trkpt>
      <trkpt lat="43.5085" lon="6.70061">
        <ele>143.5</ele>
        <time>2025-10-26T12:18:30Z</time>
      </trkpt>
      <trkpt lat="43.5085" lon="6.70059">
        <ele>143.5</ele>
        <time>2025-10-26T12:18:31Z</time>
      </trkpt>
      <trkpt lat="43.5085" lon="6.70058">
        <ele>143.4</ele>
        <time>2025-10-26T12:18:32Z</time>
      </trkpt>
      <trkpt lat="43.50849" lon="6.70057">
        <ele>143.4</ele>
        <time>2025-10-26T12:18:33Z</time>
      </trkpt>
      <trkpt lat="43.50849" lon="6.70056">
        <ele>143.4</ele>
        <time>2025-10-26T12:18:34Z</time>
      </trkpt>
      <trkpt lat="43.50848" lon="6.70056">
        <ele>143.4</ele>
        <time>2025-10-26T12:18:35Z</time>
      </trkpt>
      <trkpt lat="43.50848" lon="6.70054">
        <ele>143.4</ele>
        <time>2025-10-26T12:18:36Z</time>
      </trkpt>
      <trkpt lat="43.50848" lon="6.70053">
        <ele>143.3</ele>
        <time>2025-10-26T12:18:37Z</time>
      </trkpt>
      <trkpt lat="43.50848" lon="6.70052">
        <ele>143.3</ele>
        <time>2025-10-26T12:18:38Z</time>
      </trkpt>
      <trkpt lat="43.50847" lon="6.70051">
        <ele>143.2</ele>
        <time>2025-10-26T12:18:39Z</time>
      </trkpt>
      <trkpt lat="43.50847" lon="6.70049">
        <ele>143.1</ele>
        <time>2025-10-26T12:18:40Z</time>
      </trkpt>
      <trkpt lat="43.50847" lon="6.70048">
        <ele>143</ele>
        <time>2025-10-26T12:18:41Z</time>
      </trkpt>
      <trkpt lat="43.50847" lon="6.70046">
        <ele>143</ele>
        <time>2025-10-26T12:18:42Z</time>
      </trkpt>
      <trkpt lat="43.50848" lon="6.70045">
        <ele>143</ele>
        <time>2025-10-26T12:18:43Z</time>
      </trkpt>
      <trkpt lat="43.50848" lon="6.70044">
        <ele>143.1</ele>
        <time>2025-10-26T12:18:44Z</time>
      </trkpt>
      <trkpt lat="43.50848" lon="6.70044">
        <ele>143.2</ele>
        <time>2025-10-26T12:18:45Z</time>
      </trkpt>
      <trkpt lat="43.50848" lon="6.70044">
        <ele>143.2</ele>
        <time>2025-10-26T12:18:46Z</time>
      </trkpt>
      <trkpt lat="43.50847" lon="6.70043">
        <ele>143.2</ele>
        <time>2025-10-26T12:18:47Z</time>
      </trkpt>
      <trkpt lat="43.50847" lon="6.70044">
        <ele>143.2</ele>
        <time>2025-10-26T12:18:48Z</time>
      </trkpt>
      <trkpt lat="43.50847" lon="6.70043">
        <ele>143.3</ele>
        <time>2025-10-26T12:18:49Z</time>
      </trkpt>
      <trkpt lat="43.50847" lon="6.70043">
        <ele>143.4</ele>
        <time>2025-10-26T12:18:50Z</time>
      </trkpt>
      <trkpt lat="43.50847" lon="6.70042">
        <ele>143.5</ele>
        <time>2025-10-26T12:18:51Z</time>
      </trkpt>
      <trkpt lat="43.50846" lon="6.70042">
        <ele>143.6</ele>
        <time>2025-10-26T12:18:52Z</time>
      </trkpt>
      <trkpt lat="43.50846" lon="6.70042">
        <ele>143.6</ele>
        <time>2025-10-26T12:18:53Z</time>
      </trkpt>
      <trkpt lat="43.50846" lon="6.70042">
        <ele>143.7</ele>
        <time>2025-10-26T12:18:54Z</time>
      </trkpt>
      <trkpt lat="43.50846" lon="6.70042">
        <ele>143.7</ele>
        <time>2025-10-26T12:18:55Z</time>
      </trkpt>
      <trkpt lat="43.50847" lon="6.70041">
        <ele>143.8</ele>
        <time>2025-10-26T12:18:56Z</time>
      </trkpt>
      <trkpt lat="43.50847" lon="6.7004">
        <ele>143.8</ele>
        <time>2025-10-26T12:18:57Z</time>
      </trkpt>
      <trkpt lat="43.50847" lon="6.70039">
        <ele>143.8</ele>
        <time>2025-10-26T12:18:58Z</time>
      </trkpt>
      <trkpt lat="43.50846" lon="6.70038">
        <ele>143.9</ele>
        <time>2025-10-26T12:18:59Z</time>
      </trkpt>
      <trkpt lat="43.50846" lon="6.70037">
        <ele>143.8</ele>
        <time>2025-10-26T12:19:00Z</time>
      </trkpt>
      <trkpt lat="43.50846" lon="6.70035">
        <ele>143.8</ele>
        <time>2025-10-26T12:19:01Z</time>
      </trkpt>
      <trkpt lat="43.50846" lon="6.70034">
        <ele>143.8</ele>
        <time>2025-10-26T12:19:02Z</time>
      </trkpt>
      <trkpt lat="43.50846" lon="6.70033">
        <ele>143.7</ele>
        <time>2025-10-26T12:19:03Z</time>
      </trkpt>
      <trkpt lat="43.50846" lon="6.70032">
        <ele>143.7</ele>
        <time>2025-10-26T12:19:04Z</time>
      </trkpt>
      <trkpt lat="43.50846" lon="6.7003">
        <ele>143.9</ele>
        <time>2025-10-26T12:19:05Z</time>
      </trkpt>
      <trkpt lat="43.50846" lon="6.70029">
        <ele>143.9</ele>
        <time>2025-10-26T12:19:06Z</time>
      </trkpt>
      <trkpt lat="43.50846" lon="6.70028">
        <ele>143.8</ele>
        <time>2025-10-26T12:19:07Z</time>
      </trkpt>
      <trkpt lat="43.50846" lon="6.70026">
        <ele>143.8</ele>
        <time>2025-10-26T12:19:08Z</time>
      </trkpt>
      <trkpt lat="43.50846" lon="6.70026">
        <ele>143.8</ele>
        <time>2025-10-26T12:19:09Z</time>
      </trkpt>
      <trkpt lat="43.50846" lon="6.70025">
        <ele>143.7</ele>
        <time>2025-10-26T12:19:10Z</time>
      </trkpt>
      <trkpt lat="43.50847" lon="6.70024">
        <ele>143.7</ele>
        <time>2025-10-26T12:19:11Z</time>
      </trkpt>
      <trkpt lat="43.50847" lon="6.70023">
        <ele>143.7</ele>
        <time>2025-10-26T12:19:12Z</time>
      </trkpt>
      <trkpt lat="43.50847" lon="6.70021">
        <ele>143.8</ele>
        <time>2025-10-26T12:19:13Z</time>
      </trkpt>
      <trkpt lat="43.50848" lon="6.7002">
        <ele>143.8</ele>
        <time>2025-10-26T12:19:14Z</time>
      </trkpt>
      <trkpt lat="43.50848" lon="6.70019">
        <ele>143.8</ele>
        <time>2025-10-26T12:19:15Z</time>
      </trkpt>
      <trkpt lat="43.50848" lon="6.70018">
        <ele>143.9</ele>
        <time>2025-10-26T12:19:16Z</time>
      </trkpt>
      <trkpt lat="43.50849" lon="6.70017">
        <ele>144</ele>
        <time>2025-10-26T12:19:17Z</time>
      </trkpt>
      <trkpt lat="43.5085" lon="6.70015">
        <ele>144</ele>
        <time>2025-10-26T12:19:18Z</time>
      </trkpt>
      <trkpt lat="43.5085" lon="6.70014">
        <ele>143.9</ele>
        <time>2025-10-26T12:19:19Z</time>
      </trkpt>
      <trkpt lat="43.50851" lon="6.70013">
        <ele>144</ele>
        <time>2025-10-26T12:19:20Z</time>
      </trkpt>
      <trkpt lat="43.50851" lon="6.70012">
        <ele>144.1</ele>
        <time>2025-10-26T12:19:21Z</time>
      </trkpt>
      <trkpt lat="43.50852" lon="6.70011">
        <ele>144.1</ele>
        <time>2025-10-26T12:19:22Z</time>
      </trkpt>
      <trkpt lat="43.50852" lon="6.7001">
        <ele>144.1</ele>
        <time>2025-10-26T12:19:23Z</time>
      </trkpt>
      <trkpt lat="43.50853" lon="6.70009">
        <ele>144.1</ele>
        <time>2025-10-26T12:19:24Z</time>
      </trkpt>
      <trkpt lat="43.50853" lon="6.70008">
        <ele>144.2</ele>
        <time>2025-10-26T12:19:25Z</time>
      </trkpt>
      <trkpt lat="43.50853" lon="6.70007">
        <ele>144.1</ele>
        <time>2025-10-26T12:19:26Z</time>
      </trkpt>
      <trkpt lat="43.50854" lon="6.70005">
        <ele>144.1</ele>
        <time>2025-10-26T12:19:27Z</time>
      </trkpt>
      <trkpt lat="43.50855" lon="6.70004">
        <ele>144.1</ele>
        <time>2025-10-26T12:19:28Z</time>
      </trkpt>
      <trkpt lat="43.50855" lon="6.70003">
        <ele>144.2</ele>
        <time>2025-10-26T12:19:29Z</time>
      </trkpt>
      <trkpt lat="43.50855" lon="6.70002">
        <ele>144.3</ele>
        <time>2025-10-26T12:19:30Z</time>
      </trkpt>
      <trkpt lat="43.50856" lon="6.70001">
        <ele>144.4</ele>
        <time>2025-10-26T12:19:31Z</time>
      </trkpt>
      <trkpt lat="43.50856" lon="6.7">
        <ele>144.4</ele>
        <time>2025-10-26T12:19:32Z</time>
      </trkpt>
      <trkpt lat="43.50857" lon="6.69999">
        <ele>144.4</ele>
        <time>2025-10-26T12:19:33Z</time>
      </trkpt>
      <trkpt lat="43.50857" lon="6.69998">
        <ele>144.5</ele>
        <time>2025-10-26T12:19:34Z</time>
      </trkpt>
      <trkpt lat="43.50857" lon="6.69997">
        <ele>144.5</ele>
        <time>2025-10-26T12:19:35Z</time>
      </trkpt>
      <trkpt lat="43.50858" lon="6.69995">
        <ele>144.6</ele>
        <time>2025-10-26T12:19:36Z</time>
      </trkpt>
      <trkpt lat="43.50858" lon="6.69994">
        <ele>144.8</ele>
        <time>2025-10-26T12:19:37Z</time>
      </trkpt>
      <trkpt lat="43.50859" lon="6.69993">
        <ele>144.9</ele>
        <time>2025-10-26T12:19:38Z</time>
      </trkpt>
      <trkpt lat="43.50859" lon="6.69992">
        <ele>145</ele>
        <time>2025-10-26T12:19:39Z</time>
      </trkpt>
      <trkpt lat="43.5086" lon="6.69991">
        <ele>145</ele>
        <time>2025-10-26T12:19:40Z</time>
      </trkpt>
      <trkpt lat="43.5086" lon="6.69989">
        <ele>145.3</ele>
        <time>2025-10-26T12:19:41Z</time>
      </trkpt>
      <trkpt lat="43.50861" lon="6.69989">
        <ele>145.2</ele>
        <time>2025-10-26T12:19:42Z</time>
      </trkpt>
      <trkpt lat="43.50861" lon="6.69988">
        <ele>145.3</ele>
        <time>2025-10-26T12:19:43Z</time>
      </trkpt>
      <trkpt lat="43.50861" lon="6.69987">
        <ele>145.4</ele>
        <time>2025-10-26T12:19:44Z</time>
      </trkpt>
      <trkpt lat="43.50862" lon="6.69985">
        <ele>145.4</ele>
        <time>2025-10-26T12:19:45Z</time>
      </trkpt>
      <trkpt lat="43.50862" lon="6.69984">
        <ele>145.5</ele>
        <time>2025-10-26T12:19:46Z</time>
      </trkpt>
      <trkpt lat="43.50863" lon="6.69983">
        <ele>145.5</ele>
        <time>2025-10-26T12:19:47Z</time>
      </trkpt>
      <trkpt lat="43.50863" lon="6.69982">
        <ele>145.5</ele>
        <time>2025-10-26T12:19:48Z</time>
      </trkpt>
      <trkpt lat="43.50863" lon="6.6998">
        <ele>145.6</ele>
        <time>2025-10-26T12:19:49Z</time>
      </trkpt>
      <trkpt lat="43.50864" lon="6.6998">
        <ele>145.6</ele>
        <time>2025-10-26T12:19:50Z</time>
      </trkpt>
      <trkpt lat="43.50864" lon="6.69978">
        <ele>145.6</ele>
        <time>2025-10-26T12:19:51Z</time>
      </trkpt>
      <trkpt lat="43.50864" lon="6.69977">
        <ele>145.7</ele>
        <time>2025-10-26T12:19:52Z</time>
      </trkpt>
      <trkpt lat="43.50865" lon="6.69976">
        <ele>145.7</ele>
        <time>2025-10-26T12:19:53Z</time>
      </trkpt>
      <trkpt lat="43.50866" lon="6.69975">
        <ele>145.9</ele>
        <time>2025-10-26T12:19:54Z</time>
      </trkpt>
      <trkpt lat="43.50866" lon="6.69974">
        <ele>146.1</ele>
        <time>2025-10-26T12:19:55Z</time>
      </trkpt>
      <trkpt lat="43.50866" lon="6.69973">
        <ele>146.2</ele>
        <time>2025-10-26T12:19:56Z</time>
      </trkpt>
      <trkpt lat="43.50867" lon="6.69972">
        <ele>146.3</ele>
        <time>2025-10-26T12:19:57Z</time>
      </trkpt>
      <trkpt lat="43.50867" lon="6.69971">
        <ele>146.4</ele>
        <time>2025-10-26T12:19:58Z</time>
      </trkpt>
      <trkpt lat="43.50868" lon="6.6997">
        <ele>146.5</ele>
        <time>2025-10-26T12:19:59Z</time>
      </trkpt>
      <trkpt lat="43.50868" lon="6.69968">
        <ele>146.5</ele>
        <time>2025-10-26T12:20:00Z</time>
      </trkpt>
      <trkpt lat="43.50869" lon="6.69967">
        <ele>146.6</ele>
        <time>2025-10-26T12:20:01Z</time>
      </trkpt>
      <trkpt lat="43.50869" lon="6.69966">
        <ele>146.6</ele>
        <time>2025-10-26T12:20:02Z</time>
      </trkpt>
      <trkpt lat="43.5087" lon="6.69965">
        <ele>146.6</ele>
        <time>2025-10-26T12:20:03Z</time>
      </trkpt>
      <trkpt lat="43.5087" lon="6.69963">
        <ele>146.7</ele>
        <time>2025-10-26T12:20:04Z</time>
      </trkpt>
      <trkpt lat="43.50871" lon="6.69962">
        <ele>146.8</ele>
        <time>2025-10-26T12:20:05Z</time>
      </trkpt>
      <trkpt lat="43.50871" lon="6.69961">
        <ele>146.9</ele>
        <time>2025-10-26T12:20:06Z</time>
      </trkpt>
      <trkpt lat="43.50872" lon="6.69959">
        <ele>146.9</ele>
        <time>2025-10-26T12:20:07Z</time>
      </trkpt>
      <trkpt lat="43.50872" lon="6.69959">
        <ele>147</ele>
        <time>2025-10-26T12:20:08Z</time>
      </trkpt>
      <trkpt lat="43.50873" lon="6.69958">
        <ele>147</ele>
        <time>2025-10-26T12:20:09Z</time>
      </trkpt>
      <trkpt lat="43.50873" lon="6.69957">
        <ele>147.1</ele>
        <time>2025-10-26T12:20:10Z</time>
      </trkpt>
      <trkpt lat="43.50874" lon="6.69956">
        <ele>147.1</ele>
        <time>2025-10-26T12:20:11Z</time>
      </trkpt>
      <trkpt lat="43.50874" lon="6.69955">
        <ele>147.2</ele>
        <time>2025-10-26T12:20:12Z</time>
      </trkpt>
      <trkpt lat="43.50875" lon="6.69954">
        <ele>147.3</ele>
        <time>2025-10-26T12:20:13Z</time>
      </trkpt>
      <trkpt lat="43.50875" lon="6.69953">
        <ele>147.3</ele>
        <time>2025-10-26T12:20:14Z</time>
      </trkpt>
      <trkpt lat="43.50876" lon="6.69952">
        <ele>147.4</ele>
        <time>2025-10-26T12:20:15Z</time>
      </trkpt>
      <trkpt lat="43.50877" lon="6.6995">
        <ele>147.4</ele>
        <time>2025-10-26T12:20:16Z</time>
      </trkpt>
      <trkpt lat="43.50877" lon="6.69949">
        <ele>147.5</ele>
        <time>2025-10-26T12:20:17Z</time>
      </trkpt>
      <trkpt lat="43.50877" lon="6.69948">
        <ele>147.6</ele>
        <time>2025-10-26T12:20:18Z</time>
      </trkpt>
      <trkpt lat="43.50878" lon="6.69947">
        <ele>147.7</ele>
        <time>2025-10-26T12:20:19Z</time>
      </trkpt>
      <trkpt lat="43.50878" lon="6.69946">
        <ele>147.9</ele>
        <time>2025-10-26T12:20:20Z</time>
      </trkpt>
      <trkpt lat="43.50879" lon="6.69945">
        <ele>148</ele>
        <time>2025-10-26T12:20:21Z</time>
      </trkpt>
      <trkpt lat="43.50879" lon="6.69943">
        <ele>148.1</ele>
        <time>2025-10-26T12:20:22Z</time>
      </trkpt>
      <trkpt lat="43.5088" lon="6.69942">
        <ele>148.2</ele>
        <time>2025-10-26T12:20:23Z</time>
      </trkpt>
      <trkpt lat="43.5088" lon="6.69941">
        <ele>148.4</ele>
        <time>2025-10-26T12:20:24Z</time>
      </trkpt>
      <trkpt lat="43.50881" lon="6.6994">
        <ele>148.5</ele>
        <time>2025-10-26T12:20:25Z</time>
      </trkpt>
      <trkpt lat="43.50882" lon="6.69939">
        <ele>148.5</ele>
        <time>2025-10-26T12:20:26Z</time>
      </trkpt>
      <trkpt lat="43.50883" lon="6.69938">
        <ele>148.6</ele>
        <time>2025-10-26T12:20:27Z</time>
      </trkpt>
      <trkpt lat="43.50883" lon="6.69937">
        <ele>148.7</ele>
        <time>2025-10-26T12:20:28Z</time>
      </trkpt>
      <trkpt lat="43.50884" lon="6.69935">
        <ele>148.7</ele>
        <time>2025-10-26T12:20:29Z</time>
      </trkpt>
      <trkpt lat="43.50884" lon="6.69934">
        <ele>148.7</ele>
        <time>2025-10-26T12:20:30Z</time>
      </trkpt>
      <trkpt lat="43.50885" lon="6.69933">
        <ele>148.8</ele>
        <time>2025-10-26T12:20:31Z</time>
      </trkpt>
      <trkpt lat="43.50885" lon="6.69932">
        <ele>148.8</ele>
        <time>2025-10-26T12:20:32Z</time>
      </trkpt>
      <trkpt lat="43.50886" lon="6.69931">
        <ele>148.9</ele>
        <time>2025-10-26T12:20:33Z</time>
      </trkpt>
      <trkpt lat="43.50886" lon="6.69929">
        <ele>148.9</ele>
        <time>2025-10-26T12:20:34Z</time>
      </trkpt>
      <trkpt lat="43.50887" lon="6.69928">
        <ele>149</ele>
        <time>2025-10-26T12:20:35Z</time>
      </trkpt>
      <trkpt lat="43.50887" lon="6.69927">
        <ele>149.1</ele>
        <time>2025-10-26T12:20:36Z</time>
      </trkpt>
      <trkpt lat="43.50888" lon="6.69926">
        <ele>149.2</ele>
        <time>2025-10-26T12:20:37Z</time>
      </trkpt>
      <trkpt lat="43.50888" lon="6.69924">
        <ele>149.4</ele>
        <time>2025-10-26T12:20:38Z</time>
      </trkpt>
      <trkpt lat="43.50889" lon="6.69923">
        <ele>149.5</ele>
        <time>2025-10-26T12:20:39Z</time>
      </trkpt>
      <trkpt lat="43.50889" lon="6.69922">
        <ele>149.6</ele>
        <time>2025-10-26T12:20:40Z</time>
      </trkpt>
      <trkpt lat="43.5089" lon="6.6992">
        <ele>149.7</ele>
        <time>2025-10-26T12:20:41Z</time>
      </trkpt>
      <trkpt lat="43.5089" lon="6.69919">
        <ele>149.7</ele>
        <time>2025-10-26T12:20:42Z</time>
      </trkpt>
      <trkpt lat="43.50891" lon="6.69918">
        <ele>149.7</ele>
        <time>2025-10-26T12:20:43Z</time>
      </trkpt>
      <trkpt lat="43.50891" lon="6.69917">
        <ele>149.8</ele>
        <time>2025-10-26T12:20:44Z</time>
      </trkpt>
      <trkpt lat="43.50891" lon="6.69915">
        <ele>149.8</ele>
        <time>2025-10-26T12:20:45Z</time>
      </trkpt>
      <trkpt lat="43.50892" lon="6.69914">
        <ele>149.9</ele>
        <time>2025-10-26T12:20:46Z</time>
      </trkpt>
      <trkpt lat="43.50892" lon="6.69913">
        <ele>150.1</ele>
        <time>2025-10-26T12:20:47Z</time>
      </trkpt>
      <trkpt lat="43.50893" lon="6.69912">
        <ele>150.3</ele>
        <time>2025-10-26T12:20:48Z</time>
      </trkpt>
      <trkpt lat="43.50893" lon="6.69911">
        <ele>150.4</ele>
        <time>2025-10-26T12:20:49Z</time>
      </trkpt>
      <trkpt lat="43.50894" lon="6.6991">
        <ele>150.6</ele>
        <time>2025-10-26T12:20:50Z</time>
      </trkpt>
      <trkpt lat="43.50894" lon="6.69909">
        <ele>150.7</ele>
        <time>2025-10-26T12:20:51Z</time>
      </trkpt>
      <trkpt lat="43.50895" lon="6.69907">
        <ele>150.9</ele>
        <time>2025-10-26T12:20:52Z</time>
      </trkpt>
      <trkpt lat="43.50895" lon="6.69906">
        <ele>151.1</ele>
        <time>2025-10-26T12:20:53Z</time>
      </trkpt>
      <trkpt lat="43.50896" lon="6.69905">
        <ele>151.1</ele>
        <time>2025-10-26T12:20:54Z</time>
      </trkpt>
      <trkpt lat="43.50896" lon="6.69904">
        <ele>151.1</ele>
        <time>2025-10-26T12:20:55Z</time>
      </trkpt>
      <trkpt lat="43.50897" lon="6.69902">
        <ele>151.1</ele>
        <time>2025-10-26T12:20:56Z</time>
      </trkpt>
      <trkpt lat="43.50897" lon="6.69901">
        <ele>151.1</ele>
        <time>2025-10-26T12:20:57Z</time>
      </trkpt>
      <trkpt lat="43.50897" lon="6.699">
        <ele>151.2</ele>
        <time>2025-10-26T12:20:58Z</time>
      </trkpt>
      <trkpt lat="43.50897" lon="6.69899">
        <ele>151.3</ele>
        <time>2025-10-26T12:20:59Z</time>
      </trkpt>
      <trkpt lat="43.50898" lon="6.69898">
        <ele>151.3</ele>
        <time>2025-10-26T12:21:00Z</time>
      </trkpt>
      <trkpt lat="43.50898" lon="6.69897">
        <ele>151.4</ele>
        <time>2025-10-26T12:21:01Z</time>
      </trkpt>
      <trkpt lat="43.50898" lon="6.69896">
        <ele>151.5</ele>
        <time>2025-10-26T12:21:02Z</time>
      </trkpt>
      <trkpt lat="43.50898" lon="6.69894">
        <ele>151.5</ele>
        <time>2025-10-26T12:21:03Z</time>
      </trkpt>
      <trkpt lat="43.50899" lon="6.69893">
        <ele>151.5</ele>
        <time>2025-10-26T12:21:04Z</time>
      </trkpt>
      <trkpt lat="43.509" lon="6.69892">
        <ele>151.6</ele>
        <time>2025-10-26T12:21:05Z</time>
      </trkpt>
      <trkpt lat="43.509" lon="6.69891">
        <ele>151.6</ele>
        <time>2025-10-26T12:21:06Z</time>
      </trkpt>
      <trkpt lat="43.50901" lon="6.69889">
        <ele>151.7</ele>
        <time>2025-10-26T12:21:07Z</time>
      </trkpt>
      <trkpt lat="43.50901" lon="6.69888">
        <ele>151.7</ele>
        <time>2025-10-26T12:21:08Z</time>
      </trkpt>
      <trkpt lat="43.50901" lon="6.69887">
        <ele>151.6</ele>
        <time>2025-10-26T12:21:09Z</time>
      </trkpt>
      <trkpt lat="43.50902" lon="6.69885">
        <ele>151.7</ele>
        <time>2025-10-26T12:21:10Z</time>
      </trkpt>
      <trkpt lat="43.50902" lon="6.69884">
        <ele>151.7</ele>
        <time>2025-10-26T12:21:11Z</time>
      </trkpt>
      <trkpt lat="43.50903" lon="6.69883">
        <ele>151.8</ele>
        <time>2025-10-26T12:21:12Z</time>
      </trkpt>
      <trkpt lat="43.50903" lon="6.69882">
        <ele>151.9</ele>
        <time>2025-10-26T12:21:13Z</time>
      </trkpt>
      <trkpt lat="43.50904" lon="6.69882">
        <ele>151.9</ele>
        <time>2025-10-26T12:21:14Z</time>
      </trkpt>
      <trkpt lat="43.50904" lon="6.69881">
        <ele>152</ele>
        <time>2025-10-26T12:21:15Z</time>
      </trkpt>
      <trkpt lat="43.50904" lon="6.69879">
        <ele>152</ele>
        <time>2025-10-26T12:21:16Z</time>
      </trkpt>
      <trkpt lat="43.50904" lon="6.69878">
        <ele>152</ele>
        <time>2025-10-26T12:21:17Z</time>
      </trkpt>
      <trkpt lat="43.50904" lon="6.69878">
        <ele>152.2</ele>
        <time>2025-10-26T12:21:18Z</time>
      </trkpt>
      <trkpt lat="43.50904" lon="6.69877">
        <ele>152.3</ele>
        <time>2025-10-26T12:21:19Z</time>
      </trkpt>
      <trkpt lat="43.50904" lon="6.69877">
        <ele>152.3</ele>
        <time>2025-10-26T12:21:20Z</time>
      </trkpt>
      <trkpt lat="43.50904" lon="6.69877">
        <ele>152.4</ele>
        <time>2025-10-26T12:21:21Z</time>
      </trkpt>
      <trkpt lat="43.50904" lon="6.69876">
        <ele>152.5</ele>
        <time>2025-10-26T12:21:22Z</time>
      </trkpt>
      <trkpt lat="43.50904" lon="6.69876">
        <ele>152.5</ele>
        <time>2025-10-26T12:21:23Z</time>
      </trkpt>
      <trkpt lat="43.50904" lon="6.69876">
        <ele>152.5</ele>
        <time>2025-10-26T12:21:24Z</time>
      </trkpt>
      <trkpt lat="43.50903" lon="6.69875">
        <ele>152.6</ele>
        <time>2025-10-26T12:21:25Z</time>
      </trkpt>
      <trkpt lat="43.50904" lon="6.69875">
        <ele>152.7</ele>
        <time>2025-10-26T12:21:26Z</time>
      </trkpt>
      <trkpt lat="43.50904" lon="6.69875">
        <ele>152.7</ele>
        <time>2025-10-26T12:21:27Z</time>
      </trkpt>
      <trkpt lat="43.50903" lon="6.69875">
        <ele>152.7</ele>
        <time>2025-10-26T12:21:28Z</time>
      </trkpt>
      <trkpt lat="43.50903" lon="6.69876">
        <ele>152.7</ele>
        <time>2025-10-26T12:21:29Z</time>
      </trkpt>
      <trkpt lat="43.50903" lon="6.69876">
        <ele>152.7</ele>
        <time>2025-10-26T12:21:30Z</time>
      </trkpt>
      <trkpt lat="43.50903" lon="6.69876">
        <ele>152.6</ele>
        <time>2025-10-26T12:21:31Z</time>
      </trkpt>
      <trkpt lat="43.50903" lon="6.69876">
        <ele>152.6</ele>
        <time>2025-10-26T12:21:32Z</time>
      </trkpt>
      <trkpt lat="43.50903" lon="6.69876">
        <ele>152.6</ele>
        <time>2025-10-26T12:21:33Z</time>
      </trkpt>
      <trkpt lat="43.50903" lon="6.69877">
        <ele>152.6</ele>
        <time>2025-10-26T12:21:34Z</time>
      </trkpt>
      <trkpt lat="43.50903" lon="6.69877">
        <ele>152.6</ele>
        <time>2025-10-26T12:21:35Z</time>
      </trkpt>
      <trkpt lat="43.50903" lon="6.69877">
        <ele>152.7</ele>
        <time>2025-10-26T12:21:36Z</time>
      </trkpt>
      <trkpt lat="43.50903" lon="6.69877">
        <ele>152.6</ele>
        <time>2025-10-26T12:21:37Z</time>
      </trkpt>
      <trkpt lat="43.50903" lon="6.69878">
        <ele>152.6</ele>
        <time>2025-10-26T12:21:38Z</time>
      </trkpt>
      <trkpt lat="43.50903" lon="6.69878">
        <ele>152.5</ele>
        <time>2025-10-26T12:21:39Z</time>
      </trkpt>
      <trkpt lat="43.50903" lon="6.69878">
        <ele>152.5</ele>
        <time>2025-10-26T12:21:40Z</time>
      </trkpt>
      <trkpt lat="43.50903" lon="6.69878">
        <ele>152.4</ele>
        <time>2025-10-26T12:21:41Z</time>
      </trkpt>
      <trkpt lat="43.50903" lon="6.69879">
        <ele>152.4</ele>
        <time>2025-10-26T12:21:42Z</time>
      </trkpt>
      <trkpt lat="43.50902" lon="6.69879">
        <ele>152.2</ele>
        <time>2025-10-26T12:21:43Z</time>
      </trkpt>
      <trkpt lat="43.50902" lon="6.69878">
        <ele>152.2</ele>
        <time>2025-10-26T12:21:44Z</time>
      </trkpt>
      <trkpt lat="43.50902" lon="6.69878">
        <ele>152.1</ele>
        <time>2025-10-26T12:21:45Z</time>
      </trkpt>
      <trkpt lat="43.50902" lon="6.69878">
        <ele>152.1</ele>
        <time>2025-10-26T12:21:46Z</time>
      </trkpt>
      <trkpt lat="43.50902" lon="6.69878">
        <ele>152.1</ele>
        <time>2025-10-26T12:21:47Z</time>
      </trkpt>
      <trkpt lat="43.50902" lon="6.69879">
        <ele>152.2</ele>
        <time>2025-10-26T12:21:48Z</time>
      </trkpt>
      <trkpt lat="43.50902" lon="6.69879">
        <ele>152.3</ele>
        <time>2025-10-26T12:21:49Z</time>
      </trkpt>
      <trkpt lat="43.50902" lon="6.69879">
        <ele>152.3</ele>
        <time>2025-10-26T12:21:50Z</time>
      </trkpt>
      <trkpt lat="43.50902" lon="6.69879">
        <ele>152.1</ele>
        <time>2025-10-26T12:21:51Z</time>
      </trkpt>
      <trkpt lat="43.50902" lon="6.69879">
        <ele>152.1</ele>
        <time>2025-10-26T12:21:52Z</time>
      </trkpt>
      <trkpt lat="43.50902" lon="6.69879">
        <ele>152.1</ele>
        <time>2025-10-26T12:21:53Z</time>
      </trkpt>
      <trkpt lat="43.50902" lon="6.69879">
        <ele>152.2</ele>
        <time>2025-10-26T12:21:54Z</time>
      </trkpt>
      <trkpt lat="43.50903" lon="6.69879">
        <ele>152.2</ele>
        <time>2025-10-26T12:21:55Z</time>
      </trkpt>
      <trkpt lat="43.50903" lon="6.69879">
        <ele>152.2</ele>
        <time>2025-10-26T12:21:56Z</time>
      </trkpt>
      <trkpt lat="43.50903" lon="6.6988">
        <ele>152.3</ele>
        <time>2025-10-26T12:21:57Z</time>
      </trkpt>
      <trkpt lat="43.50903" lon="6.6988">
        <ele>152.3</ele>
        <time>2025-10-26T12:21:58Z</time>
      </trkpt>
      <trkpt lat="43.50904" lon="6.6988">
        <ele>152.4</ele>
        <time>2025-10-26T12:21:59Z</time>
      </trkpt>
      <trkpt lat="43.50904" lon="6.6988">
        <ele>152.5</ele>
        <time>2025-10-26T12:22:00Z</time>
      </trkpt>
      <trkpt lat="43.50904" lon="6.6988">
        <ele>152.7</ele>
        <time>2025-10-26T12:22:01Z</time>
      </trkpt>
      <trkpt lat="43.50904" lon="6.6988">
        <ele>152.8</ele>
        <time>2025-10-26T12:22:02Z</time>
      </trkpt>
      <trkpt lat="43.50904" lon="6.6988">
        <ele>152.9</ele>
        <time>2025-10-26T12:22:03Z</time>
      </trkpt>
      <trkpt lat="43.50904" lon="6.6988">
        <ele>153.1</ele>
        <time>2025-10-26T12:22:04Z</time>
      </trkpt>
      <trkpt lat="43.50905" lon="6.6988">
        <ele>153.1</ele>
        <time>2025-10-26T12:22:05Z</time>
      </trkpt>
      <trkpt lat="43.50905" lon="6.69881">
        <ele>153.2</ele>
        <time>2025-10-26T12:22:06Z</time>
      </trkpt>
      <trkpt lat="43.50905" lon="6.69881">
        <ele>153.1</ele>
        <time>2025-10-26T12:22:07Z</time>
      </trkpt>
      <trkpt lat="43.50905" lon="6.69881">
        <ele>153.1</ele>
        <time>2025-10-26T12:22:08Z</time>
      </trkpt>
      <trkpt lat="43.50905" lon="6.69881">
        <ele>153.1</ele>
        <time>2025-10-26T12:22:09Z</time>
      </trkpt>
      <trkpt lat="43.50905" lon="6.69881">
        <ele>153.1</ele>
        <time>2025-10-26T12:22:10Z</time>
      </trkpt>
      <trkpt lat="43.50906" lon="6.69881">
        <ele>153.1</ele>
        <time>2025-10-26T12:22:11Z</time>
      </trkpt>
      <trkpt lat="43.50906" lon="6.69881">
        <ele>153.2</ele>
        <time>2025-10-26T12:22:12Z</time>
      </trkpt>
      <trkpt lat="43.50906" lon="6.6988">
        <ele>153.2</ele>
        <time>2025-10-26T12:22:13Z</time>
      </trkpt>
      <trkpt lat="43.50905" lon="6.6988">
        <ele>153.2</ele>
        <time>2025-10-26T12:22:14Z</time>
      </trkpt>
      <trkpt lat="43.50904" lon="6.69879">
        <ele>153.1</ele>
        <time>2025-10-26T12:22:15Z</time>
      </trkpt>
      <trkpt lat="43.50903" lon="6.69879">
        <ele>152.9</ele>
        <time>2025-10-26T12:22:16Z</time>
      </trkpt>
      <trkpt lat="43.50902" lon="6.69878">
        <ele>152.9</ele>
        <time>2025-10-26T12:22:17Z</time>
      </trkpt>
      <trkpt lat="43.50902" lon="6.69878">
        <ele>153</ele>
        <time>2025-10-26T12:22:18Z</time>
      </trkpt>
      <trkpt lat="43.50901" lon="6.69878">
        <ele>153</ele>
        <time>2025-10-26T12:22:19Z</time>
      </trkpt>
      <trkpt lat="43.50901" lon="6.69878">
        <ele>153</ele>
        <time>2025-10-26T12:22:20Z</time>
      </trkpt>
      <trkpt lat="43.509" lon="6.69877">
        <ele>153</ele>
        <time>2025-10-26T12:22:21Z</time>
      </trkpt>
      <trkpt lat="43.509" lon="6.69877">
        <ele>153</ele>
        <time>2025-10-26T12:22:22Z</time>
      </trkpt>
      <trkpt lat="43.50899" lon="6.69876">
        <ele>153</ele>
        <time>2025-10-26T12:22:23Z</time>
      </trkpt>
      <trkpt lat="43.50898" lon="6.69876">
        <ele>153</ele>
        <time>2025-10-26T12:22:24Z</time>
      </trkpt>
      <trkpt lat="43.50897" lon="6.69876">
        <ele>153</ele>
        <time>2025-10-26T12:22:25Z</time>
      </trkpt>
      <trkpt lat="43.50896" lon="6.69875">
        <ele>153</ele>
        <time>2025-10-26T12:22:26Z</time>
      </trkpt>
      <trkpt lat="43.50895" lon="6.69875">
        <ele>153.1</ele>
        <time>2025-10-26T12:22:27Z</time>
      </trkpt>
      <trkpt lat="43.50895" lon="6.69875">
        <ele>153.1</ele>
        <time>2025-10-26T12:22:28Z</time>
      </trkpt>
      <trkpt lat="43.50894" lon="6.69874">
        <ele>153.2</ele>
        <time>2025-10-26T12:22:29Z</time>
      </trkpt>
      <trkpt lat="43.50893" lon="6.69874">
        <ele>153.3</ele>
        <time>2025-10-26T12:22:30Z</time>
      </trkpt>
      <trkpt lat="43.50892" lon="6.69874">
        <ele>153.3</ele>
        <time>2025-10-26T12:22:31Z</time>
      </trkpt>
      <trkpt lat="43.50891" lon="6.69874">
        <ele>153.3</ele>
        <time>2025-10-26T12:22:32Z</time>
      </trkpt>
      <trkpt lat="43.5089" lon="6.69873">
        <ele>153.3</ele>
        <time>2025-10-26T12:22:33Z</time>
      </trkpt>
      <trkpt lat="43.5089" lon="6.69873">
        <ele>153.4</ele>
        <time>2025-10-26T12:22:34Z</time>
      </trkpt>
      <trkpt lat="43.50889" lon="6.69873">
        <ele>153.5</ele>
        <time>2025-10-26T12:22:35Z</time>
      </trkpt>
      <trkpt lat="43.50888" lon="6.69872">
        <ele>153.6</ele>
        <time>2025-10-26T12:22:36Z</time>
      </trkpt>
      <trkpt lat="43.50887" lon="6.69872">
        <ele>153.6</ele>
        <time>2025-10-26T12:22:37Z</time>
      </trkpt>
      <trkpt lat="43.50886" lon="6.69871">
        <ele>153.5</ele>
        <time>2025-10-26T12:22:38Z</time>
      </trkpt>
      <trkpt lat="43.50885" lon="6.6987">
        <ele>153.4</ele>
        <time>2025-10-26T12:22:39Z</time>
      </trkpt>
      <trkpt lat="43.50885" lon="6.6987">
        <ele>153.4</ele>
        <time>2025-10-26T12:22:40Z</time>
      </trkpt>
      <trkpt lat="43.50884" lon="6.69869">
        <ele>153.5</ele>
        <time>2025-10-26T12:22:41Z</time>
      </trkpt>
      <trkpt lat="43.50883" lon="6.69869">
        <ele>153.6</ele>
        <time>2025-10-26T12:22:42Z</time>
      </trkpt>
      <trkpt lat="43.50882" lon="6.69868">
        <ele>153.6</ele>
        <time>2025-10-26T12:22:43Z</time>
      </trkpt>
      <trkpt lat="43.50882" lon="6.69867">
        <ele>153.7</ele>
        <time>2025-10-26T12:22:44Z</time>
      </trkpt>
      <trkpt lat="43.50881" lon="6.69867">
        <ele>153.7</ele>
        <time>2025-10-26T12:22:45Z</time>
      </trkpt>
      <trkpt lat="43.50881" lon="6.69867">
        <ele>153.6</ele>
        <time>2025-10-26T12:22:46Z</time>
      </trkpt>
      <trkpt lat="43.5088" lon="6.69866">
        <ele>153.7</ele>
        <time>2025-10-26T12:22:47Z</time>
      </trkpt>
      <trkpt lat="43.50879" lon="6.69866">
        <ele>153.7</ele>
        <time>2025-10-26T12:22:48Z</time>
      </trkpt>
      <trkpt lat="43.50878" lon="6.69865">
        <ele>153.7</ele>
        <time>2025-10-26T12:22:49Z</time>
      </trkpt>
      <trkpt lat="43.50876" lon="6.69865">
        <ele>153.7</ele>
        <time>2025-10-26T12:22:50Z</time>
      </trkpt>
      <trkpt lat="43.50875" lon="6.69865">
        <ele>153.7</ele>
        <time>2025-10-26T12:22:51Z</time>
      </trkpt>
      <trkpt lat="43.50875" lon="6.69864">
        <ele>153.8</ele>
        <time>2025-10-26T12:22:52Z</time>
      </trkpt>
      <trkpt lat="43.50874" lon="6.69865">
        <ele>153.8</ele>
        <time>2025-10-26T12:22:53Z</time>
      </trkpt>
      <trkpt lat="43.50873" lon="6.69864">
        <ele>153.9</ele>
        <time>2025-10-26T12:22:54Z</time>
      </trkpt>
      <trkpt lat="43.50873" lon="6.69865">
        <ele>153.9</ele>
        <time>2025-10-26T12:22:55Z</time>
      </trkpt>
      <trkpt lat="43.50872" lon="6.69866">
        <ele>154</ele>
        <time>2025-10-26T12:22:56Z</time>
      </trkpt>
      <trkpt lat="43.50872" lon="6.69865">
        <ele>154.1</ele>
        <time>2025-10-26T12:22:57Z</time>
      </trkpt>
      <trkpt lat="43.50871" lon="6.69865">
        <ele>154.3</ele>
        <time>2025-10-26T12:22:58Z</time>
      </trkpt>
      <trkpt lat="43.5087" lon="6.69865">
        <ele>154.4</ele>
        <time>2025-10-26T12:22:59Z</time>
      </trkpt>
      <trkpt lat="43.50869" lon="6.69864">
        <ele>154.5</ele>
        <time>2025-10-26T12:23:00Z</time>
      </trkpt>
      <trkpt lat="43.50868" lon="6.69864">
        <ele>154.6</ele>
        <time>2025-10-26T12:23:01Z</time>
      </trkpt>
      <trkpt lat="43.50867" lon="6.69863">
        <ele>154.6</ele>
        <time>2025-10-26T12:23:02Z</time>
      </trkpt>
      <trkpt lat="43.50865" lon="6.69863">
        <ele>154.8</ele>
        <time>2025-10-26T12:23:03Z</time>
      </trkpt>
      <trkpt lat="43.50865" lon="6.69863">
        <ele>154.8</ele>
        <time>2025-10-26T12:23:04Z</time>
      </trkpt>
      <trkpt lat="43.50865" lon="6.69863">
        <ele>154.8</ele>
        <time>2025-10-26T12:23:05Z</time>
      </trkpt>
      <trkpt lat="43.50864" lon="6.69863">
        <ele>154.8</ele>
        <time>2025-10-26T12:23:06Z</time>
      </trkpt>
      <trkpt lat="43.50864" lon="6.69864">
        <ele>154.8</ele>
        <time>2025-10-26T12:23:07Z</time>
      </trkpt>
      <trkpt lat="43.50864" lon="6.69864">
        <ele>154.8</ele>
        <time>2025-10-26T12:23:08Z</time>
      </trkpt>
      <trkpt lat="43.50863" lon="6.69864">
        <ele>154.8</ele>
        <time>2025-10-26T12:23:09Z</time>
      </trkpt>
      <trkpt lat="43.50863" lon="6.69863">
        <ele>154.7</ele>
        <time>2025-10-26T12:23:10Z</time>
      </trkpt>
      <trkpt lat="43.50863" lon="6.69863">
        <ele>154.8</ele>
        <time>2025-10-26T12:23:11Z</time>
      </trkpt>
      <trkpt lat="43.50862" lon="6.69863">
        <ele>154.6</ele>
        <time>2025-10-26T12:23:12Z</time>
      </trkpt>
      <trkpt lat="43.50862" lon="6.69864">
        <ele>154.6</ele>
        <time>2025-10-26T12:23:13Z</time>
      </trkpt>
      <trkpt lat="43.50862" lon="6.69864">
        <ele>154.5</ele>
        <time>2025-10-26T12:23:14Z</time>
      </trkpt>
      <trkpt lat="43.50862" lon="6.69864">
        <ele>154.4</ele>
        <time>2025-10-26T12:23:15Z</time>
      </trkpt>
      <trkpt lat="43.50861" lon="6.69864">
        <ele>154.4</ele>
        <time>2025-10-26T12:23:16Z</time>
      </trkpt>
      <trkpt lat="43.50861" lon="6.69863">
        <ele>154.4</ele>
        <time>2025-10-26T12:23:17Z</time>
      </trkpt>
      <trkpt lat="43.5086" lon="6.69863">
        <ele>154.5</ele>
        <time>2025-10-26T12:23:18Z</time>
      </trkpt>
      <trkpt lat="43.5086" lon="6.69863">
        <ele>154.5</ele>
        <time>2025-10-26T12:23:19Z</time>
      </trkpt>
      <trkpt lat="43.50859" lon="6.69862">
        <ele>154.6</ele>
        <time>2025-10-26T12:23:20Z</time>
      </trkpt>
      <trkpt lat="43.50858" lon="6.69862">
        <ele>154.6</ele>
        <time>2025-10-26T12:23:21Z</time>
      </trkpt>
      <trkpt lat="43.50857" lon="6.69862">
        <ele>154.6</ele>
        <time>2025-10-26T12:23:22Z</time>
      </trkpt>
      <trkpt lat="43.50857" lon="6.69862">
        <ele>154.6</ele>
        <time>2025-10-26T12:23:23Z</time>
      </trkpt>
      <trkpt lat="43.50857" lon="6.69861">
        <ele>154.6</ele>
        <time>2025-10-26T12:23:24Z</time>
      </trkpt>
      <trkpt lat="43.50856" lon="6.6986">
        <ele>154.6</ele>
        <time>2025-10-26T12:23:25Z</time>
      </trkpt>
      <trkpt lat="43.50855" lon="6.69859">
        <ele>154.7</ele>
        <time>2025-10-26T12:23:26Z</time>
      </trkpt>
      <trkpt lat="43.50854" lon="6.69858">
        <ele>154.7</ele>
        <time>2025-10-26T12:23:27Z</time>
      </trkpt>
      <trkpt lat="43.50853" lon="6.69856">
        <ele>154.8</ele>
        <time>2025-10-26T12:23:28Z</time>
      </trkpt>
      <trkpt lat="43.50852" lon="6.69855">
        <ele>154.8</ele>
        <time>2025-10-26T12:23:29Z</time>
      </trkpt>
      <trkpt lat="43.50851" lon="6.69855">
        <ele>154.8</ele>
        <time>2025-10-26T12:23:30Z</time>
      </trkpt>
      <trkpt lat="43.5085" lon="6.69854">
        <ele>154.9</ele>
        <time>2025-10-26T12:23:31Z</time>
      </trkpt>
      <trkpt lat="43.50849" lon="6.69853">
        <ele>154.9</ele>
        <time>2025-10-26T12:23:32Z</time>
      </trkpt>
      <trkpt lat="43.50848" lon="6.69852">
        <ele>154.9</ele>
        <time>2025-10-26T12:23:33Z</time>
      </trkpt>
      <trkpt lat="43.50847" lon="6.69852">
        <ele>155</ele>
        <time>2025-10-26T12:23:34Z</time>
      </trkpt>
      <trkpt lat="43.50846" lon="6.69852">
        <ele>155.1</ele>
        <time>2025-10-26T12:23:35Z</time>
      </trkpt>
      <trkpt lat="43.50846" lon="6.69852">
        <ele>155.1</ele>
        <time>2025-10-26T12:23:36Z</time>
      </trkpt>
      <trkpt lat="43.50845" lon="6.69851">
        <ele>155.1</ele>
        <time>2025-10-26T12:23:37Z</time>
      </trkpt>
      <trkpt lat="43.50844" lon="6.6985">
        <ele>155.1</ele>
        <time>2025-10-26T12:23:38Z</time>
      </trkpt>
      <trkpt lat="43.50843" lon="6.69849">
        <ele>155.1</ele>
        <time>2025-10-26T12:23:39Z</time>
      </trkpt>
      <trkpt lat="43.50842" lon="6.69849">
        <ele>155.1</ele>
        <time>2025-10-26T12:23:40Z</time>
      </trkpt>
      <trkpt lat="43.5084" lon="6.69848">
        <ele>155.1</ele>
        <time>2025-10-26T12:23:41Z</time>
      </trkpt>
      <trkpt lat="43.50839" lon="6.69847">
        <ele>155.1</ele>
        <time>2025-10-26T12:23:42Z</time>
      </trkpt>
      <trkpt lat="43.50839" lon="6.69847">
        <ele>155</ele>
        <time>2025-10-26T12:23:43Z</time>
      </trkpt>
      <trkpt lat="43.50837" lon="6.69846">
        <ele>154.9</ele>
        <time>2025-10-26T12:23:44Z</time>
      </trkpt>
      <trkpt lat="43.50837" lon="6.69845">
        <ele>154.8</ele>
        <time>2025-10-26T12:23:45Z</time>
      </trkpt>
      <trkpt lat="43.50836" lon="6.69845">
        <ele>154.8</ele>
        <time>2025-10-26T12:23:46Z</time>
      </trkpt>
      <trkpt lat="43.50834" lon="6.69844">
        <ele>154.7</ele>
        <time>2025-10-26T12:23:47Z</time>
      </trkpt>
      <trkpt lat="43.50833" lon="6.69844">
        <ele>154.7</ele>
        <time>2025-10-26T12:23:48Z</time>
      </trkpt>
      <trkpt lat="43.50832" lon="6.69843">
        <ele>154.7</ele>
        <time>2025-10-26T12:23:49Z</time>
      </trkpt>
      <trkpt lat="43.50832" lon="6.69843">
        <ele>154.7</ele>
        <time>2025-10-26T12:23:50Z</time>
      </trkpt>
      <trkpt lat="43.5083" lon="6.69843">
        <ele>154.8</ele>
        <time>2025-10-26T12:23:51Z</time>
      </trkpt>
      <trkpt lat="43.50829" lon="6.69842">
        <ele>154.8</ele>
        <time>2025-10-26T12:23:52Z</time>
      </trkpt>
      <trkpt lat="43.50828" lon="6.69841">
        <ele>154.9</ele>
        <time>2025-10-26T12:23:53Z</time>
      </trkpt>
      <trkpt lat="43.50827" lon="6.69841">
        <ele>155.1</ele>
        <time>2025-10-26T12:23:54Z</time>
      </trkpt>
      <trkpt lat="43.50826" lon="6.6984">
        <ele>155.2</ele>
        <time>2025-10-26T12:23:55Z</time>
      </trkpt>
      <trkpt lat="43.50826" lon="6.6984">
        <ele>155.4</ele>
        <time>2025-10-26T12:23:56Z</time>
      </trkpt>
      <trkpt lat="43.50825" lon="6.69839">
        <ele>155.6</ele>
        <time>2025-10-26T12:23:57Z</time>
      </trkpt>
      <trkpt lat="43.50824" lon="6.69839">
        <ele>155.8</ele>
        <time>2025-10-26T12:23:58Z</time>
      </trkpt>
      <trkpt lat="43.50822" lon="6.69838">
        <ele>155.9</ele>
        <time>2025-10-26T12:23:59Z</time>
      </trkpt>
      <trkpt lat="43.50822" lon="6.69837">
        <ele>156</ele>
        <time>2025-10-26T12:24:00Z</time>
      </trkpt>
      <trkpt lat="43.50821" lon="6.69837">
        <ele>156.2</ele>
        <time>2025-10-26T12:24:01Z</time>
      </trkpt>
      <trkpt lat="43.5082" lon="6.69836">
        <ele>156.3</ele>
        <time>2025-10-26T12:24:02Z</time>
      </trkpt>
      <trkpt lat="43.50819" lon="6.69836">
        <ele>156.4</ele>
        <time>2025-10-26T12:24:03Z</time>
      </trkpt>
      <trkpt lat="43.50819" lon="6.69836">
        <ele>156.5</ele>
        <time>2025-10-26T12:24:04Z</time>
      </trkpt>
      <trkpt lat="43.50817" lon="6.69835">
        <ele>156.5</ele>
        <time>2025-10-26T12:24:05Z</time>
      </trkpt>
      <trkpt lat="43.50817" lon="6.69834">
        <ele>156.6</ele>
        <time>2025-10-26T12:24:06Z</time>
      </trkpt>
      <trkpt lat="43.50815" lon="6.69833">
        <ele>156.5</ele>
        <time>2025-10-26T12:24:07Z</time>
      </trkpt>
      <trkpt lat="43.50815" lon="6.69833">
        <ele>156.5</ele>
        <time>2025-10-26T12:24:08Z</time>
      </trkpt>
      <trkpt lat="43.50814" lon="6.69833">
        <ele>156.5</ele>
        <time>2025-10-26T12:24:09Z</time>
      </trkpt>
      <trkpt lat="43.50813" lon="6.69832">
        <ele>156.3</ele>
        <time>2025-10-26T12:24:10Z</time>
      </trkpt>
      <trkpt lat="43.50812" lon="6.69831">
        <ele>156.3</ele>
        <time>2025-10-26T12:24:11Z</time>
      </trkpt>
      <trkpt lat="43.50811" lon="6.69831">
        <ele>156.3</ele>
        <time>2025-10-26T12:24:12Z</time>
      </trkpt>
      <trkpt lat="43.5081" lon="6.69831">
        <ele>156.3</ele>
        <time>2025-10-26T12:24:13Z</time>
      </trkpt>
      <trkpt lat="43.5081" lon="6.69831">
        <ele>156.2</ele>
        <time>2025-10-26T12:24:14Z</time>
      </trkpt>
      <trkpt lat="43.50809" lon="6.69829">
        <ele>156.3</ele>
        <time>2025-10-26T12:24:15Z</time>
      </trkpt>
      <trkpt lat="43.50809" lon="6.69829">
        <ele>156.3</ele>
        <time>2025-10-26T12:24:16Z</time>
      </trkpt>
      <trkpt lat="43.50808" lon="6.69828">
        <ele>156.3</ele>
        <time>2025-10-26T12:24:17Z</time>
      </trkpt>
      <trkpt lat="43.50807" lon="6.69827">
        <ele>156.4</ele>
        <time>2025-10-26T12:24:18Z</time>
      </trkpt>
      <trkpt lat="43.50806" lon="6.69827">
        <ele>156.5</ele>
        <time>2025-10-26T12:24:19Z</time>
      </trkpt>
      <trkpt lat="43.50806" lon="6.69826">
        <ele>156.7</ele>
        <time>2025-10-26T12:24:20Z</time>
      </trkpt>
      <trkpt lat="43.50805" lon="6.69825">
        <ele>156.8</ele>
        <time>2025-10-26T12:24:21Z</time>
      </trkpt>
      <trkpt lat="43.50804" lon="6.69824">
        <ele>156.9</ele>
        <time>2025-10-26T12:24:22Z</time>
      </trkpt>
      <trkpt lat="43.50803" lon="6.69824">
        <ele>157</ele>
        <time>2025-10-26T12:24:23Z</time>
      </trkpt>
      <trkpt lat="43.50802" lon="6.69823">
        <ele>157.1</ele>
        <time>2025-10-26T12:24:24Z</time>
      </trkpt>
      <trkpt lat="43.50801" lon="6.69823">
        <ele>157.3</ele>
        <time>2025-10-26T12:24:25Z</time>
      </trkpt>
      <trkpt lat="43.50801" lon="6.69822">
        <ele>157.4</ele>
        <time>2025-10-26T12:24:26Z</time>
      </trkpt>
      <trkpt lat="43.508" lon="6.69821">
        <ele>157.6</ele>
        <time>2025-10-26T12:24:27Z</time>
      </trkpt>
      <trkpt lat="43.50799" lon="6.6982">
        <ele>157.7</ele>
        <time>2025-10-26T12:24:28Z</time>
      </trkpt>
      <trkpt lat="43.50798" lon="6.6982">
        <ele>157.7</ele>
        <time>2025-10-26T12:24:29Z</time>
      </trkpt>
      <trkpt lat="43.50797" lon="6.69819">
        <ele>157.9</ele>
        <time>2025-10-26T12:24:30Z</time>
      </trkpt>
      <trkpt lat="43.50796" lon="6.69819">
        <ele>158.1</ele>
        <time>2025-10-26T12:24:31Z</time>
      </trkpt>
      <trkpt lat="43.50795" lon="6.69818">
        <ele>158.2</ele>
        <time>2025-10-26T12:24:32Z</time>
      </trkpt>
      <trkpt lat="43.50794" lon="6.69817">
        <ele>158.4</ele>
        <time>2025-10-26T12:24:33Z</time>
      </trkpt>
      <trkpt lat="43.50793" lon="6.69817">
        <ele>158.5</ele>
        <time>2025-10-26T12:24:34Z</time>
      </trkpt>
      <trkpt lat="43.50792" lon="6.69816">
        <ele>158.7</ele>
        <time>2025-10-26T12:24:35Z</time>
      </trkpt>
      <trkpt lat="43.50791" lon="6.69817">
        <ele>158.9</ele>
        <time>2025-10-26T12:24:36Z</time>
      </trkpt>
      <trkpt lat="43.5079" lon="6.69816">
        <ele>159.1</ele>
        <time>2025-10-26T12:24:37Z</time>
      </trkpt>
      <trkpt lat="43.5079" lon="6.69816">
        <ele>159.2</ele>
        <time>2025-10-26T12:24:38Z</time>
      </trkpt>
      <trkpt lat="43.50789" lon="6.69815">
        <ele>159.4</ele>
        <time>2025-10-26T12:24:39Z</time>
      </trkpt>
      <trkpt lat="43.50788" lon="6.69815">
        <ele>159.5</ele>
        <time>2025-10-26T12:24:40Z</time>
      </trkpt>
      <trkpt lat="43.50788" lon="6.69814">
        <ele>159.6</ele>
        <time>2025-10-26T12:24:41Z</time>
      </trkpt>
      <trkpt lat="43.50787" lon="6.69814">
        <ele>159.6</ele>
        <time>2025-10-26T12:24:42Z</time>
      </trkpt>
      <trkpt lat="43.50786" lon="6.69814">
        <ele>159.8</ele>
        <time>2025-10-26T12:24:43Z</time>
      </trkpt>
      <trkpt lat="43.50786" lon="6.69813">
        <ele>160</ele>
        <time>2025-10-26T12:24:44Z</time>
      </trkpt>
      <trkpt lat="43.50785" lon="6.69812">
        <ele>160.1</ele>
        <time>2025-10-26T12:24:45Z</time>
      </trkpt>
      <trkpt lat="43.50784" lon="6.69811">
        <ele>160.2</ele>
        <time>2025-10-26T12:24:46Z</time>
      </trkpt>
      <trkpt lat="43.50784" lon="6.6981">
        <ele>160.4</ele>
        <time>2025-10-26T12:24:47Z</time>
      </trkpt>
      <trkpt lat="43.50783" lon="6.6981">
        <ele>160.6</ele>
        <time>2025-10-26T12:24:48Z</time>
      </trkpt>
      <trkpt lat="43.50783" lon="6.69809">
        <ele>161</ele>
        <time>2025-10-26T12:24:49Z</time>
      </trkpt>
      <trkpt lat="43.50782" lon="6.69808">
        <ele>161.1</ele>
        <time>2025-10-26T12:24:50Z</time>
      </trkpt>
      <trkpt lat="43.50782" lon="6.69807">
        <ele>161.2</ele>
        <time>2025-10-26T12:24:51Z</time>
      </trkpt>
      <trkpt lat="43.50782" lon="6.69806">
        <ele>161.3</ele>
        <time>2025-10-26T12:24:52Z</time>
      </trkpt>
      <trkpt lat="43.50781" lon="6.69805">
        <ele>161.5</ele>
        <time>2025-10-26T12:24:53Z</time>
      </trkpt>
      <trkpt lat="43.5078" lon="6.69805">
        <ele>161.7</ele>
        <time>2025-10-26T12:24:54Z</time>
      </trkpt>
      <trkpt lat="43.50779" lon="6.69805">
        <ele>161.7</ele>
        <time>2025-10-26T12:24:55Z</time>
      </trkpt>
      <trkpt lat="43.50779" lon="6.69804">
        <ele>161.7</ele>
        <time>2025-10-26T12:24:56Z</time>
      </trkpt>
      <trkpt lat="43.50778" lon="6.69804">
        <ele>161.6</ele>
        <time>2025-10-26T12:24:57Z</time>
      </trkpt>
      <trkpt lat="43.50777" lon="6.69802">
        <ele>161.6</ele>
        <time>2025-10-26T12:24:58Z</time>
      </trkpt>
      <trkpt lat="43.50776" lon="6.69801">
        <ele>161.4</ele>
        <time>2025-10-26T12:24:59Z</time>
      </trkpt>
      <trkpt lat="43.50775" lon="6.698">
        <ele>161.3</ele>
        <time>2025-10-26T12:25:00Z</time>
      </trkpt>
      <trkpt lat="43.50774" lon="6.69799">
        <ele>161.2</ele>
        <time>2025-10-26T12:25:01Z</time>
      </trkpt>
      <trkpt lat="43.50773" lon="6.69799">
        <ele>161.3</ele>
        <time>2025-10-26T12:25:02Z</time>
      </trkpt>
      <trkpt lat="43.50772" lon="6.69798">
        <ele>161.3</ele>
        <time>2025-10-26T12:25:03Z</time>
      </trkpt>
      <trkpt lat="43.50771" lon="6.69798">
        <ele>161.2</ele>
        <time>2025-10-26T12:25:04Z</time>
      </trkpt>
      <trkpt lat="43.5077" lon="6.69797">
        <ele>161.1</ele>
        <time>2025-10-26T12:25:05Z</time>
      </trkpt>
      <trkpt lat="43.50768" lon="6.69797">
        <ele>161.1</ele>
        <time>2025-10-26T12:25:06Z</time>
      </trkpt>
      <trkpt lat="43.50767" lon="6.69796">
        <ele>161.1</ele>
        <time>2025-10-26T12:25:07Z</time>
      </trkpt>
      <trkpt lat="43.50766" lon="6.69796">
        <ele>161.1</ele>
        <time>2025-10-26T12:25:08Z</time>
      </trkpt>
      <trkpt lat="43.50766" lon="6.69796">
        <ele>161</ele>
        <time>2025-10-26T12:25:09Z</time>
      </trkpt>
      <trkpt lat="43.50765" lon="6.69795">
        <ele>161</ele>
        <time>2025-10-26T12:25:10Z</time>
      </trkpt>
      <trkpt lat="43.50764" lon="6.69794">
        <ele>160.9</ele>
        <time>2025-10-26T12:25:11Z</time>
      </trkpt>
      <trkpt lat="43.50764" lon="6.69793">
        <ele>160.9</ele>
        <time>2025-10-26T12:25:12Z</time>
      </trkpt>
      <trkpt lat="43.50763" lon="6.69792">
        <ele>160.9</ele>
        <time>2025-10-26T12:25:13Z</time>
      </trkpt>
      <trkpt lat="43.50762" lon="6.69792">
        <ele>160.9</ele>
        <time>2025-10-26T12:25:14Z</time>
      </trkpt>
      <trkpt lat="43.50762" lon="6.69791">
        <ele>160.6</ele>
        <time>2025-10-26T12:25:15Z</time>
      </trkpt>
      <trkpt lat="43.5076" lon="6.6979">
        <ele>160.3</ele>
        <time>2025-10-26T12:25:16Z</time>
      </trkpt>
      <trkpt lat="43.50759" lon="6.69789">
        <ele>160</ele>
        <time>2025-10-26T12:25:17Z</time>
      </trkpt>
      <trkpt lat="43.50758" lon="6.69788">
        <ele>159.7</ele>
        <time>2025-10-26T12:25:18Z</time>
      </trkpt>
      <trkpt lat="43.50758" lon="6.69787">
        <ele>159.5</ele>
        <time>2025-10-26T12:25:19Z</time>
      </trkpt>
      <trkpt lat="43.50757" lon="6.69786">
        <ele>159.3</ele>
        <time>2025-10-26T12:25:20Z</time>
      </trkpt>
      <trkpt lat="43.50756" lon="6.69785">
        <ele>159</ele>
        <time>2025-10-26T12:25:21Z</time>
      </trkpt>
      <trkpt lat="43.50755" lon="6.69784">
        <ele>158.9</ele>
        <time>2025-10-26T12:25:22Z</time>
      </trkpt>
      <trkpt lat="43.50755" lon="6.69782">
        <ele>158.8</ele>
        <time>2025-10-26T12:25:23Z</time>
      </trkpt>
      <trkpt lat="43.50754" lon="6.69781">
        <ele>158.1</ele>
        <time>2025-10-26T12:25:24Z</time>
      </trkpt>
      <trkpt lat="43.50754" lon="6.69781">
        <ele>158</ele>
        <time>2025-10-26T12:25:25Z</time>
      </trkpt>
      <trkpt lat="43.50754" lon="6.6978">
        <ele>158.1</ele>
        <time>2025-10-26T12:25:26Z</time>
      </trkpt>
      <trkpt lat="43.50754" lon="6.6978">
        <ele>158.2</ele>
        <time>2025-10-26T12:25:27Z</time>
      </trkpt>
      <trkpt lat="43.50754" lon="6.6978">
        <ele>158.2</ele>
        <time>2025-10-26T12:25:28Z</time>
      </trkpt>
      <trkpt lat="43.50753" lon="6.6978">
        <ele>158.2</ele>
        <time>2025-10-26T12:25:29Z</time>
      </trkpt>
      <trkpt lat="43.50753" lon="6.6978">
        <ele>158.2</ele>
        <time>2025-10-26T12:25:30Z</time>
      </trkpt>
      <trkpt lat="43.50753" lon="6.6978">
        <ele>158.2</ele>
        <time>2025-10-26T12:25:31Z</time>
      </trkpt>
      <trkpt lat="43.50753" lon="6.69781">
        <ele>158.2</ele>
        <time>2025-10-26T12:25:32Z</time>
      </trkpt>
      <trkpt lat="43.50753" lon="6.6978">
        <ele>158.2</ele>
        <time>2025-10-26T12:25:33Z</time>
      </trkpt>
      <trkpt lat="43.50753" lon="6.6978">
        <ele>158.2</ele>
        <time>2025-10-26T12:25:34Z</time>
      </trkpt>
      <trkpt lat="43.50753" lon="6.6978">
        <ele>158.3</ele>
        <time>2025-10-26T12:25:35Z</time>
      </trkpt>
      <trkpt lat="43.50753" lon="6.6978">
        <ele>158.3</ele>
        <time>2025-10-26T12:25:36Z</time>
      </trkpt>
      <trkpt lat="43.50753" lon="6.6978">
        <ele>158.2</ele>
        <time>2025-10-26T12:25:37Z</time>
      </trkpt>
      <trkpt lat="43.50752" lon="6.6978">
        <ele>158.2</ele>
        <time>2025-10-26T12:25:38Z</time>
      </trkpt>
      <trkpt lat="43.50752" lon="6.6978">
        <ele>158.2</ele>
        <time>2025-10-26T12:25:39Z</time>
      </trkpt>
      <trkpt lat="43.50752" lon="6.69779">
        <ele>158.3</ele>
        <time>2025-10-26T12:25:40Z</time>
      </trkpt>
      <trkpt lat="43.50752" lon="6.6978">
        <ele>158.4</ele>
        <time>2025-10-26T12:25:41Z</time>
      </trkpt>
      <trkpt lat="43.50752" lon="6.69779">
        <ele>158.4</ele>
        <time>2025-10-26T12:25:42Z</time>
      </trkpt>
      <trkpt lat="43.50752" lon="6.69779">
        <ele>158.4</ele>
        <time>2025-10-26T12:25:43Z</time>
      </trkpt>
      <trkpt lat="43.50752" lon="6.69779">
        <ele>158.3</ele>
        <time>2025-10-26T12:25:44Z</time>
      </trkpt>
      <trkpt lat="43.50752" lon="6.69779">
        <ele>158.2</ele>
        <time>2025-10-26T12:25:45Z</time>
      </trkpt>
      <trkpt lat="43.50751" lon="6.69779">
        <ele>158</ele>
        <time>2025-10-26T12:25:46Z</time>
      </trkpt>
      <trkpt lat="43.50751" lon="6.69779">
        <ele>157.8</ele>
        <time>2025-10-26T12:25:47Z</time>
      </trkpt>
      <trkpt lat="43.50751" lon="6.69779">
        <ele>157.6</ele>
        <time>2025-10-26T12:25:48Z</time>
      </trkpt>
      <trkpt lat="43.50751" lon="6.69779">
        <ele>157.4</ele>
        <time>2025-10-26T12:25:49Z</time>
      </trkpt>
      <trkpt lat="43.50751" lon="6.69779">
        <ele>157.2</ele>
        <time>2025-10-26T12:25:50Z</time>
      </trkpt>
      <trkpt lat="43.50751" lon="6.69779">
        <ele>157</ele>
        <time>2025-10-26T12:25:51Z</time>
      </trkpt>
      <trkpt lat="43.50751" lon="6.69779">
        <ele>157.1</ele>
        <time>2025-10-26T12:25:52Z</time>
      </trkpt>
      <trkpt lat="43.50751" lon="6.69779">
        <ele>157.2</ele>
        <time>2025-10-26T12:25:53Z</time>
      </trkpt>
      <trkpt lat="43.50751" lon="6.69779">
        <ele>157.3</ele>
        <time>2025-10-26T12:25:54Z</time>
      </trkpt>
      <trkpt lat="43.50751" lon="6.69779">
        <ele>157.4</ele>
        <time>2025-10-26T12:25:55Z</time>
      </trkpt>
      <trkpt lat="43.50751" lon="6.69779">
        <ele>157.4</ele>
        <time>2025-10-26T12:25:56Z</time>
      </trkpt>
      <trkpt lat="43.50751" lon="6.69779">
        <ele>157.5</ele>
        <time>2025-10-26T12:25:57Z</time>
      </trkpt>
      <trkpt lat="43.50751" lon="6.69779">
        <ele>157.5</ele>
        <time>2025-10-26T12:25:58Z</time>
      </trkpt>
      <trkpt lat="43.50751" lon="6.69779">
        <ele>157.6</ele>
        <time>2025-10-26T12:25:59Z</time>
      </trkpt>
      <trkpt lat="43.50751" lon="6.69779">
        <ele>157.6</ele>
        <time>2025-10-26T12:26:00Z</time>
      </trkpt>
      <trkpt lat="43.50751" lon="6.69778">
        <ele>157.6</ele>
        <time>2025-10-26T12:26:01Z</time>
      </trkpt>
      <trkpt lat="43.50751" lon="6.69778">
        <ele>157.6</ele>
        <time>2025-10-26T12:26:02Z</time>
      </trkpt>
      <trkpt lat="43.50751" lon="6.69778">
        <ele>157.5</ele>
        <time>2025-10-26T12:26:03Z</time>
      </trkpt>
      <trkpt lat="43.50751" lon="6.69778">
        <ele>157.4</ele>
        <time>2025-10-26T12:26:04Z</time>
      </trkpt>
      <trkpt lat="43.50751" lon="6.69778">
        <ele>157.4</ele>
        <time>2025-10-26T12:26:05Z</time>
      </trkpt>
      <trkpt lat="43.50751" lon="6.69778">
        <ele>157.4</ele>
        <time>2025-10-26T12:26:06Z</time>
      </trkpt>
      <trkpt lat="43.50751" lon="6.69778">
        <ele>157.4</ele>
        <time>2025-10-26T12:26:07Z</time>
      </trkpt>
      <trkpt lat="43.50751" lon="6.69778">
        <ele>157.4</ele>
        <time>2025-10-26T12:26:08Z</time>
      </trkpt>
      <trkpt lat="43.50751" lon="6.69778">
        <ele>157.3</ele>
        <time>2025-10-26T12:26:09Z</time>
      </trkpt>
      <trkpt lat="43.50751" lon="6.69778">
        <ele>157.3</ele>
        <time>2025-10-26T12:26:10Z</time>
      </trkpt>
      <trkpt lat="43.50751" lon="6.69778">
        <ele>157.3</ele>
        <time>2025-10-26T12:26:11Z</time>
      </trkpt>
      <trkpt lat="43.50751" lon="6.69778">
        <ele>157.3</ele>
        <time>2025-10-26T12:26:12Z</time>
      </trkpt>
      <trkpt lat="43.5075" lon="6.69777">
        <ele>157.3</ele>
        <time>2025-10-26T12:26:13Z</time>
      </trkpt>
      <trkpt lat="43.5075" lon="6.69777">
        <ele>157.5</ele>
        <time>2025-10-26T12:26:14Z</time>
      </trkpt>
      <trkpt lat="43.50749" lon="6.69776">
        <ele>157.6</ele>
        <time>2025-10-26T12:26:15Z</time>
      </trkpt>
      <trkpt lat="43.50749" lon="6.69775">
        <ele>157.6</ele>
        <time>2025-10-26T12:26:16Z</time>
      </trkpt>
      <trkpt lat="43.50749" lon="6.69774">
        <ele>157.6</ele>
        <time>2025-10-26T12:26:17Z</time>
      </trkpt>
      <trkpt lat="43.50748" lon="6.69773">
        <ele>157.6</ele>
        <time>2025-10-26T12:26:18Z</time>
      </trkpt>
      <trkpt lat="43.50748" lon="6.69771">
        <ele>157.3</ele>
        <time>2025-10-26T12:26:19Z</time>
      </trkpt>
      <trkpt lat="43.50747" lon="6.6977">
        <ele>157.1</ele>
        <time>2025-10-26T12:26:20Z</time>
      </trkpt>
      <trkpt lat="43.50747" lon="6.69768">
        <ele>157</ele>
        <time>2025-10-26T12:26:21Z</time>
      </trkpt>
      <trkpt lat="43.50746" lon="6.69767">
        <ele>156.9</ele>
        <time>2025-10-26T12:26:22Z</time>
      </trkpt>
      <trkpt lat="43.50745" lon="6.69766">
        <ele>156.8</ele>
        <time>2025-10-26T12:26:23Z</time>
      </trkpt>
      <trkpt lat="43.50744" lon="6.69765">
        <ele>156.6</ele>
        <time>2025-10-26T12:26:24Z</time>
      </trkpt>
      <trkpt lat="43.50744" lon="6.69765">
        <ele>156.5</ele>
        <time>2025-10-26T12:26:25Z</time>
      </trkpt>
      <trkpt lat="43.50743" lon="6.69764">
        <ele>156.5</ele>
        <time>2025-10-26T12:26:26Z</time>
      </trkpt>
      <trkpt lat="43.50742" lon="6.69763">
        <ele>156.5</ele>
        <time>2025-10-26T12:26:27Z</time>
      </trkpt>
      <trkpt lat="43.50742" lon="6.69762">
        <ele>156.6</ele>
        <time>2025-10-26T12:26:28Z</time>
      </trkpt>
      <trkpt lat="43.50741" lon="6.69761">
        <ele>156.7</ele>
        <time>2025-10-26T12:26:29Z</time>
      </trkpt>
      <trkpt lat="43.50741" lon="6.6976">
        <ele>156.7</ele>
        <time>2025-10-26T12:26:30Z</time>
      </trkpt>
      <trkpt lat="43.5074" lon="6.69759">
        <ele>156.8</ele>
        <time>2025-10-26T12:26:31Z</time>
      </trkpt>
      <trkpt lat="43.5074" lon="6.69758">
        <ele>156.9</ele>
        <time>2025-10-26T12:26:32Z</time>
      </trkpt>
      <trkpt lat="43.50739" lon="6.69757">
        <ele>156.9</ele>
        <time>2025-10-26T12:26:33Z</time>
      </trkpt>
      <trkpt lat="43.50739" lon="6.69756">
        <ele>156.9</ele>
        <time>2025-10-26T12:26:34Z</time>
      </trkpt>
      <trkpt lat="43.50738" lon="6.69755">
        <ele>156.8</ele>
        <time>2025-10-26T12:26:35Z</time>
      </trkpt>
      <trkpt lat="43.50738" lon="6.69755">
        <ele>156.7</ele>
        <time>2025-10-26T12:26:36Z</time>
      </trkpt>
      <trkpt lat="43.50738" lon="6.69755">
        <ele>156.5</ele>
        <time>2025-10-26T12:26:37Z</time>
      </trkpt>
      <trkpt lat="43.50738" lon="6.69755">
        <ele>156.4</ele>
        <time>2025-10-26T12:26:38Z</time>
      </trkpt>
      <trkpt lat="43.50738" lon="6.69755">
        <ele>156.3</ele>
        <time>2025-10-26T12:26:39Z</time>
      </trkpt>
      <trkpt lat="43.50738" lon="6.69755">
        <ele>156.1</ele>
        <time>2025-10-26T12:26:40Z</time>
      </trkpt>
      <trkpt lat="43.50738" lon="6.69755">
        <ele>156.2</ele>
        <time>2025-10-26T12:26:41Z</time>
      </trkpt>
      <trkpt lat="43.50738" lon="6.69755">
        <ele>156.3</ele>
        <time>2025-10-26T12:26:42Z</time>
      </trkpt>
      <trkpt lat="43.50737" lon="6.69755">
        <ele>156.3</ele>
        <time>2025-10-26T12:26:43Z</time>
      </trkpt>
      <trkpt lat="43.50737" lon="6.69755">
        <ele>156.3</ele>
        <time>2025-10-26T12:26:44Z</time>
      </trkpt>
      <trkpt lat="43.50737" lon="6.69755">
        <ele>156.4</ele>
        <time>2025-10-26T12:26:45Z</time>
      </trkpt>
      <trkpt lat="43.50737" lon="6.69755">
        <ele>156.3</ele>
        <time>2025-10-26T12:26:46Z</time>
      </trkpt>
      <trkpt lat="43.50736" lon="6.69755">
        <ele>156.2</ele>
        <time>2025-10-26T12:26:47Z</time>
      </trkpt>
      <trkpt lat="43.50736" lon="6.69755">
        <ele>156.2</ele>
        <time>2025-10-26T12:26:48Z</time>
      </trkpt>
      <trkpt lat="43.50736" lon="6.69755">
        <ele>156.1</ele>
        <time>2025-10-26T12:26:49Z</time>
      </trkpt>
      <trkpt lat="43.50736" lon="6.69755">
        <ele>156.1</ele>
        <time>2025-10-26T12:26:50Z</time>
      </trkpt>
      <trkpt lat="43.50735" lon="6.69755">
        <ele>156.1</ele>
        <time>2025-10-26T12:26:51Z</time>
      </trkpt>
      <trkpt lat="43.50735" lon="6.69755">
        <ele>156</ele>
        <time>2025-10-26T12:26:52Z</time>
      </trkpt>
      <trkpt lat="43.50735" lon="6.69755">
        <ele>155.9</ele>
        <time>2025-10-26T12:26:53Z</time>
      </trkpt>
      <trkpt lat="43.50735" lon="6.69755">
        <ele>155.7</ele>
        <time>2025-10-26T12:26:54Z</time>
      </trkpt>
      <trkpt lat="43.50735" lon="6.69754">
        <ele>155.7</ele>
        <time>2025-10-26T12:26:55Z</time>
      </trkpt>
      <trkpt lat="43.50735" lon="6.69754">
        <ele>155.6</ele>
        <time>2025-10-26T12:26:56Z</time>
      </trkpt>
      <trkpt lat="43.50735" lon="6.69754">
        <ele>155.5</ele>
        <time>2025-10-26T12:26:57Z</time>
      </trkpt>
      <trkpt lat="43.50735" lon="6.69754">
        <ele>155.4</ele>
        <time>2025-10-26T12:26:58Z</time>
      </trkpt>
      <trkpt lat="43.50735" lon="6.69754">
        <ele>155.4</ele>
        <time>2025-10-26T12:26:59Z</time>
      </trkpt>
      <trkpt lat="43.50735" lon="6.69754">
        <ele>155.5</ele>
        <time>2025-10-26T12:27:00Z</time>
      </trkpt>
      <trkpt lat="43.50735" lon="6.69754">
        <ele>155.5</ele>
        <time>2025-10-26T12:27:01Z</time>
      </trkpt>
      <trkpt lat="43.50735" lon="6.69754">
        <ele>155.4</ele>
        <time>2025-10-26T12:27:02Z</time>
      </trkpt>
      <trkpt lat="43.50735" lon="6.69754">
        <ele>155.3</ele>
        <time>2025-10-26T12:27:03Z</time>
      </trkpt>
      <trkpt lat="43.50735" lon="6.69754">
        <ele>155.3</ele>
        <time>2025-10-26T12:27:04Z</time>
      </trkpt>
      <trkpt lat="43.50735" lon="6.69754">
        <ele>155.3</ele>
        <time>2025-10-26T12:27:05Z</time>
      </trkpt>
      <trkpt lat="43.50735" lon="6.69754">
        <ele>155.3</ele>
        <time>2025-10-26T12:27:06Z</time>
      </trkpt>
      <trkpt lat="43.50735" lon="6.69753">
        <ele>155.2</ele>
        <time>2025-10-26T12:27:07Z</time>
      </trkpt>
      <trkpt lat="43.50736" lon="6.69752">
        <ele>155</ele>
        <time>2025-10-26T12:27:08Z</time>
      </trkpt>
      <trkpt lat="43.50737" lon="6.69751">
        <ele>155</ele>
        <time>2025-10-26T12:27:09Z</time>
      </trkpt>
      <trkpt lat="43.50737" lon="6.6975">
        <ele>154.9</ele>
        <time>2025-10-26T12:27:10Z</time>
      </trkpt>
      <trkpt lat="43.50738" lon="6.69749">
        <ele>155</ele>
        <time>2025-10-26T12:27:11Z</time>
      </trkpt>
      <trkpt lat="43.50739" lon="6.69748">
        <ele>155.2</ele>
        <time>2025-10-26T12:27:12Z</time>
      </trkpt>
      <trkpt lat="43.50741" lon="6.69747">
        <ele>155.5</ele>
        <time>2025-10-26T12:27:13Z</time>
      </trkpt>
      <trkpt lat="43.50741" lon="6.69746">
        <ele>155.7</ele>
        <time>2025-10-26T12:27:14Z</time>
      </trkpt>
      <trkpt lat="43.50742" lon="6.69745">
        <ele>155.9</ele>
        <time>2025-10-26T12:27:15Z</time>
      </trkpt>
      <trkpt lat="43.50742" lon="6.69744">
        <ele>156.1</ele>
        <time>2025-10-26T12:27:16Z</time>
      </trkpt>
      <trkpt lat="43.50743" lon="6.69743">
        <ele>156.4</ele>
        <time>2025-10-26T12:27:17Z</time>
      </trkpt>
      <trkpt lat="43.50743" lon="6.69742">
        <ele>156.6</ele>
        <time>2025-10-26T12:27:18Z</time>
      </trkpt>
      <trkpt lat="43.50743" lon="6.69741">
        <ele>156.9</ele>
        <time>2025-10-26T12:27:19Z</time>
      </trkpt>
      <trkpt lat="43.50743" lon="6.69741">
        <ele>157.1</ele>
        <time>2025-10-26T12:27:20Z</time>
      </trkpt>
      <trkpt lat="43.50743" lon="6.69741">
        <ele>157.1</ele>
        <time>2025-10-26T12:27:21Z</time>
      </trkpt>
      <trkpt lat="43.50743" lon="6.6974">
        <ele>157.1</ele>
        <time>2025-10-26T12:27:22Z</time>
      </trkpt>
      <trkpt lat="43.50743" lon="6.69739">
        <ele>157</ele>
        <time>2025-10-26T12:27:23Z</time>
      </trkpt>
      <trkpt lat="43.50743" lon="6.69739">
        <ele>157</ele>
        <time>2025-10-26T12:27:24Z</time>
      </trkpt>
      <trkpt lat="43.50743" lon="6.69739">
        <ele>157</ele>
        <time>2025-10-26T12:27:25Z</time>
      </trkpt>
      <trkpt lat="43.50743" lon="6.69739">
        <ele>157</ele>
        <time>2025-10-26T12:27:26Z</time>
      </trkpt>
      <trkpt lat="43.50742" lon="6.69738">
        <ele>157.1</ele>
        <time>2025-10-26T12:27:27Z</time>
      </trkpt>
      <trkpt lat="43.50742" lon="6.69738">
        <ele>157</ele>
        <time>2025-10-26T12:27:28Z</time>
      </trkpt>
      <trkpt lat="43.50742" lon="6.69738">
        <ele>157</ele>
        <time>2025-10-26T12:27:29Z</time>
      </trkpt>
      <trkpt lat="43.50742" lon="6.69738">
        <ele>157</ele>
        <time>2025-10-26T12:27:30Z</time>
      </trkpt>
      <trkpt lat="43.50742" lon="6.69738">
        <ele>157.1</ele>
        <time>2025-10-26T12:27:31Z</time>
      </trkpt>
      <trkpt lat="43.50742" lon="6.69737">
        <ele>157.2</ele>
        <time>2025-10-26T12:27:32Z</time>
      </trkpt>
      <trkpt lat="43.50742" lon="6.69737">
        <ele>157.4</ele>
        <time>2025-10-26T12:27:33Z</time>
      </trkpt>
      <trkpt lat="43.50743" lon="6.69738">
        <ele>157.5</ele>
        <time>2025-10-26T12:27:34Z</time>
      </trkpt>
      <trkpt lat="43.50743" lon="6.69739">
        <ele>157.6</ele>
        <time>2025-10-26T12:27:35Z</time>
      </trkpt>
      <trkpt lat="43.50743" lon="6.69739">
        <ele>157.6</ele>
        <time>2025-10-26T12:27:36Z</time>
      </trkpt>
      <trkpt lat="43.50743" lon="6.6974">
        <ele>157.6</ele>
        <time>2025-10-26T12:27:37Z</time>
      </trkpt>
      <trkpt lat="43.50743" lon="6.69741">
        <ele>157.6</ele>
        <time>2025-10-26T12:27:38Z</time>
      </trkpt>
      <trkpt lat="43.50743" lon="6.69741">
        <ele>157.5</ele>
        <time>2025-10-26T12:27:39Z</time>
      </trkpt>
      <trkpt lat="43.50743" lon="6.69741">
        <ele>157.5</ele>
        <time>2025-10-26T12:27:40Z</time>
      </trkpt>
      <trkpt lat="43.50743" lon="6.69741">
        <ele>157.5</ele>
        <time>2025-10-26T12:27:41Z</time>
      </trkpt>
      <trkpt lat="43.50742" lon="6.69741">
        <ele>157.6</ele>
        <time>2025-10-26T12:27:42Z</time>
      </trkpt>
      <trkpt lat="43.50742" lon="6.69741">
        <ele>157.5</ele>
        <time>2025-10-26T12:27:43Z</time>
      </trkpt>
      <trkpt lat="43.50741" lon="6.69742">
        <ele>157.4</ele>
        <time>2025-10-26T12:27:44Z</time>
      </trkpt>
      <trkpt lat="43.50741" lon="6.69742">
        <ele>157.3</ele>
        <time>2025-10-26T12:27:45Z</time>
      </trkpt>
      <trkpt lat="43.50741" lon="6.69743">
        <ele>157.1</ele>
        <time>2025-10-26T12:27:46Z</time>
      </trkpt>
      <trkpt lat="43.5074" lon="6.69743">
        <ele>157</ele>
        <time>2025-10-26T12:27:47Z</time>
      </trkpt>
      <trkpt lat="43.5074" lon="6.69744">
        <ele>156.8</ele>
        <time>2025-10-26T12:27:48Z</time>
      </trkpt>
      <trkpt lat="43.50739" lon="6.69745">
        <ele>156.7</ele>
        <time>2025-10-26T12:27:49Z</time>
      </trkpt>
      <trkpt lat="43.50739" lon="6.69746">
        <ele>156.5</ele>
        <time>2025-10-26T12:27:50Z</time>
      </trkpt>
      <trkpt lat="43.50738" lon="6.69746">
        <ele>156.3</ele>
        <time>2025-10-26T12:27:51Z</time>
      </trkpt>
      <trkpt lat="43.50737" lon="6.69747">
        <ele>156.2</ele>
        <time>2025-10-26T12:27:52Z</time>
      </trkpt>
      <trkpt lat="43.50736" lon="6.69748">
        <ele>156.1</ele>
        <time>2025-10-26T12:27:53Z</time>
      </trkpt>
      <trkpt lat="43.50736" lon="6.69748">
        <ele>156.2</ele>
        <time>2025-10-26T12:27:54Z</time>
      </trkpt>
      <trkpt lat="43.50735" lon="6.69748">
        <ele>156.2</ele>
        <time>2025-10-26T12:27:55Z</time>
      </trkpt>
      <trkpt lat="43.50735" lon="6.69749">
        <ele>156.3</ele>
        <time>2025-10-26T12:27:56Z</time>
      </trkpt>
      <trkpt lat="43.50735" lon="6.69749">
        <ele>156.3</ele>
        <time>2025-10-26T12:27:57Z</time>
      </trkpt>
      <trkpt lat="43.50735" lon="6.6975">
        <ele>156.3</ele>
        <time>2025-10-26T12:27:58Z</time>
      </trkpt>
      <trkpt lat="43.50734" lon="6.6975">
        <ele>156.3</ele>
        <time>2025-10-26T12:27:59Z</time>
      </trkpt>
      <trkpt lat="43.50734" lon="6.69751">
        <ele>156.2</ele>
        <time>2025-10-26T12:28:00Z</time>
      </trkpt>
      <trkpt lat="43.50734" lon="6.69751">
        <ele>156.2</ele>
        <time>2025-10-26T12:28:01Z</time>
      </trkpt>
      <trkpt lat="43.50734" lon="6.69751">
        <ele>156.1</ele>
        <time>2025-10-26T12:28:02Z</time>
      </trkpt>
      <trkpt lat="43.50734" lon="6.69751">
        <ele>156.1</ele>
        <time>2025-10-26T12:28:03Z</time>
      </trkpt>
      <trkpt lat="43.50734" lon="6.69751">
        <ele>156</ele>
        <time>2025-10-26T12:28:04Z</time>
      </trkpt>
      <trkpt lat="43.50734" lon="6.69751">
        <ele>155.9</ele>
        <time>2025-10-26T12:28:05Z</time>
      </trkpt>
      <trkpt lat="43.50734" lon="6.69752">
        <ele>155.8</ele>
        <time>2025-10-26T12:28:06Z</time>
      </trkpt>
      <trkpt lat="43.50734" lon="6.69752">
        <ele>155.8</ele>
        <time>2025-10-26T12:28:07Z</time>
      </trkpt>
      <trkpt lat="43.50734" lon="6.69752">
        <ele>155.8</ele>
        <time>2025-10-26T12:28:08Z</time>
      </trkpt>
      <trkpt lat="43.50734" lon="6.69752">
        <ele>155.8</ele>
        <time>2025-10-26T12:28:09Z</time>
      </trkpt>
      <trkpt lat="43.50734" lon="6.69752">
        <ele>155.8</ele>
        <time>2025-10-26T12:28:10Z</time>
      </trkpt>
      <trkpt lat="43.50734" lon="6.69752">
        <ele>155.8</ele>
        <time>2025-10-26T12:28:11Z</time>
      </trkpt>
      <trkpt lat="43.50734" lon="6.69752">
        <ele>155.8</ele>
        <time>2025-10-26T12:28:12Z</time>
      </trkpt>
      <trkpt lat="43.50734" lon="6.69752">
        <ele>155.8</ele>
        <time>2025-10-26T12:28:13Z</time>
      </trkpt>
      <trkpt lat="43.50734" lon="6.69752">
        <ele>155.8</ele>
        <time>2025-10-26T12:28:14Z</time>
      </trkpt>
      <trkpt lat="43.50734" lon="6.69753">
        <ele>155.7</ele>
        <time>2025-10-26T12:28:15Z</time>
      </trkpt>
      <trkpt lat="43.50734" lon="6.69753">
        <ele>155.7</ele>
        <time>2025-10-26T12:28:16Z</time>
      </trkpt>
      <trkpt lat="43.50734" lon="6.69753">
        <ele>155.7</ele>
        <time>2025-10-26T12:28:17Z</time>
      </trkpt>
      <trkpt lat="43.50734" lon="6.69753">
        <ele>155.7</ele>
        <time>2025-10-26T12:28:18Z</time>
      </trkpt>
      <trkpt lat="43.50734" lon="6.69753">
        <ele>155.7</ele>
        <time>2025-10-26T12:28:19Z</time>
      </trkpt>
      <trkpt lat="43.50734" lon="6.69753">
        <ele>155.7</ele>
        <time>2025-10-26T12:28:20Z</time>
      </trkpt>
      <trkpt lat="43.50734" lon="6.69753">
        <ele>155.7</ele>
        <time>2025-10-26T12:28:21Z</time>
      </trkpt>
      <trkpt lat="43.50734" lon="6.69754">
        <ele>155.6</ele>
        <time>2025-10-26T12:28:22Z</time>
      </trkpt>
      <trkpt lat="43.50734" lon="6.69754">
        <ele>155.6</ele>
        <time>2025-10-26T12:28:23Z</time>
      </trkpt>
      <trkpt lat="43.50734" lon="6.69753">
        <ele>155.5</ele>
        <time>2025-10-26T12:28:24Z</time>
      </trkpt>
      <trkpt lat="43.50734" lon="6.69753">
        <ele>155.6</ele>
        <time>2025-10-26T12:28:25Z</time>
      </trkpt>
      <trkpt lat="43.50734" lon="6.69753">
        <ele>155.7</ele>
        <time>2025-10-26T12:28:26Z</time>
      </trkpt>
      <trkpt lat="43.50734" lon="6.69753">
        <ele>155.7</ele>
        <time>2025-10-26T12:28:27Z</time>
      </trkpt>
      <trkpt lat="43.50734" lon="6.69753">
        <ele>155.7</ele>
        <time>2025-10-26T12:28:28Z</time>
      </trkpt>
      <trkpt lat="43.50733" lon="6.69753">
        <ele>155.8</ele>
        <time>2025-10-26T12:28:29Z</time>
      </trkpt>
      <trkpt lat="43.50733" lon="6.69753">
        <ele>155.8</ele>
        <time>2025-10-26T12:28:30Z</time>
      </trkpt>
      <trkpt lat="43.50733" lon="6.69753">
        <ele>155.8</ele>
        <time>2025-10-26T12:28:31Z</time>
      </trkpt>
      <trkpt lat="43.50733" lon="6.69753">
        <ele>155.8</ele>
        <time>2025-10-26T12:28:32Z</time>
      </trkpt>
      <trkpt lat="43.50733" lon="6.69752">
        <ele>155.7</ele>
        <time>2025-10-26T12:28:33Z</time>
      </trkpt>
      <trkpt lat="43.50733" lon="6.69753">
        <ele>155.7</ele>
        <time>2025-10-26T12:28:34Z</time>
      </trkpt>
      <trkpt lat="43.50733" lon="6.69753">
        <ele>155.7</ele>
        <time>2025-10-26T12:28:35Z</time>
      </trkpt>
      <trkpt lat="43.50733" lon="6.69752">
        <ele>155.7</ele>
        <time>2025-10-26T12:28:36Z</time>
      </trkpt>
      <trkpt lat="43.50732" lon="6.69752">
        <ele>155.6</ele>
        <time>2025-10-26T12:28:37Z</time>
      </trkpt>
      <trkpt lat="43.50732" lon="6.69752">
        <ele>155.5</ele>
        <time>2025-10-26T12:28:38Z</time>
      </trkpt>
      <trkpt lat="43.50732" lon="6.69752">
        <ele>155.4</ele>
        <time>2025-10-26T12:28:39Z</time>
      </trkpt>
      <trkpt lat="43.50732" lon="6.69751">
        <ele>155.3</ele>
        <time>2025-10-26T12:28:40Z</time>
      </trkpt>
      <trkpt lat="43.50732" lon="6.6975">
        <ele>155.2</ele>
        <time>2025-10-26T12:28:41Z</time>
      </trkpt>
      <trkpt lat="43.50732" lon="6.69749">
        <ele>155</ele>
        <time>2025-10-26T12:28:42Z</time>
      </trkpt>
      <trkpt lat="43.50732" lon="6.69749">
        <ele>155</ele>
        <time>2025-10-26T12:28:43Z</time>
      </trkpt>
      <trkpt lat="43.50732" lon="6.69749">
        <ele>155.1</ele>
        <time>2025-10-26T12:28:44Z</time>
      </trkpt>
      <trkpt lat="43.50731" lon="6.69749">
        <ele>155.1</ele>
        <time>2025-10-26T12:28:45Z</time>
      </trkpt>
      <trkpt lat="43.50731" lon="6.69748">
        <ele>154.9</ele>
        <time>2025-10-26T12:28:46Z</time>
      </trkpt>
      <trkpt lat="43.50731" lon="6.69747">
        <ele>154.8</ele>
        <time>2025-10-26T12:28:47Z</time>
      </trkpt>
      <trkpt lat="43.5073" lon="6.69745">
        <ele>154.7</ele>
        <time>2025-10-26T12:28:48Z</time>
      </trkpt>
      <trkpt lat="43.5073" lon="6.69744">
        <ele>154.6</ele>
        <time>2025-10-26T12:28:49Z</time>
      </trkpt>
      <trkpt lat="43.50729" lon="6.69742">
        <ele>154.6</ele>
        <time>2025-10-26T12:28:50Z</time>
      </trkpt>
      <trkpt lat="43.50729" lon="6.6974">
        <ele>154.6</ele>
        <time>2025-10-26T12:28:51Z</time>
      </trkpt>
      <trkpt lat="43.50728" lon="6.69739">
        <ele>154.8</ele>
        <time>2025-10-26T12:28:52Z</time>
      </trkpt>
      <trkpt lat="43.50728" lon="6.69737">
        <ele>154.9</ele>
        <time>2025-10-26T12:28:53Z</time>
      </trkpt>
      <trkpt lat="43.50727" lon="6.69736">
        <ele>154.9</ele>
        <time>2025-10-26T12:28:54Z</time>
      </trkpt>
      <trkpt lat="43.50727" lon="6.69734">
        <ele>154.8</ele>
        <time>2025-10-26T12:28:55Z</time>
      </trkpt>
      <trkpt lat="43.50727" lon="6.69733">
        <ele>154.7</ele>
        <time>2025-10-26T12:28:56Z</time>
      </trkpt>
      <trkpt lat="43.50726" lon="6.69732">
        <ele>154.6</ele>
        <time>2025-10-26T12:28:57Z</time>
      </trkpt>
      <trkpt lat="43.50726" lon="6.6973">
        <ele>154.5</ele>
        <time>2025-10-26T12:28:58Z</time>
      </trkpt>
      <trkpt lat="43.50725" lon="6.69728">
        <ele>154.4</ele>
        <time>2025-10-26T12:28:59Z</time>
      </trkpt>
      <trkpt lat="43.50725" lon="6.69726">
        <ele>154.3</ele>
        <time>2025-10-26T12:29:00Z</time>
      </trkpt>
      <trkpt lat="43.50724" lon="6.69725">
        <ele>154.3</ele>
        <time>2025-10-26T12:29:01Z</time>
      </trkpt>
      <trkpt lat="43.50724" lon="6.69724">
        <ele>154.2</ele>
        <time>2025-10-26T12:29:02Z</time>
      </trkpt>
      <trkpt lat="43.50723" lon="6.69723">
        <ele>154.1</ele>
        <time>2025-10-26T12:29:03Z</time>
      </trkpt>
      <trkpt lat="43.50722" lon="6.69721">
        <ele>154</ele>
        <time>2025-10-26T12:29:04Z</time>
      </trkpt>
      <trkpt lat="43.50722" lon="6.6972">
        <ele>153.8</ele>
        <time>2025-10-26T12:29:05Z</time>
      </trkpt>
      <trkpt lat="43.50722" lon="6.69719">
        <ele>153.7</ele>
        <time>2025-10-26T12:29:06Z</time>
      </trkpt>
      <trkpt lat="43.50722" lon="6.69718">
        <ele>153.7</ele>
        <time>2025-10-26T12:29:07Z</time>
      </trkpt>
      <trkpt lat="43.50722" lon="6.69718">
        <ele>153.6</ele>
        <time>2025-10-26T12:29:08Z</time>
      </trkpt>
      <trkpt lat="43.50722" lon="6.69718">
        <ele>153.5</ele>
        <time>2025-10-26T12:29:09Z</time>
      </trkpt>
      <trkpt lat="43.50722" lon="6.69718">
        <ele>153.5</ele>
        <time>2025-10-26T12:29:10Z</time>
      </trkpt>
      <trkpt lat="43.50722" lon="6.69717">
        <ele>153.4</ele>
        <time>2025-10-26T12:29:11Z</time>
      </trkpt>
      <trkpt lat="43.50722" lon="6.69716">
        <ele>153.4</ele>
        <time>2025-10-26T12:29:12Z</time>
      </trkpt>
      <trkpt lat="43.50722" lon="6.69715">
        <ele>153.5</ele>
        <time>2025-10-26T12:29:13Z</time>
      </trkpt>
      <trkpt lat="43.50722" lon="6.69713">
        <ele>153.6</ele>
        <time>2025-10-26T12:29:14Z</time>
      </trkpt>
      <trkpt lat="43.50722" lon="6.69711">
        <ele>153.6</ele>
        <time>2025-10-26T12:29:15Z</time>
      </trkpt>
      <trkpt lat="43.50722" lon="6.6971">
        <ele>153.6</ele>
        <time>2025-10-26T12:29:16Z</time>
      </trkpt>
      <trkpt lat="43.50722" lon="6.69709">
        <ele>153.5</ele>
        <time>2025-10-26T12:29:17Z</time>
      </trkpt>
      <trkpt lat="43.50722" lon="6.69707">
        <ele>153.6</ele>
        <time>2025-10-26T12:29:18Z</time>
      </trkpt>
      <trkpt lat="43.50722" lon="6.69706">
        <ele>153.6</ele>
        <time>2025-10-26T12:29:19Z</time>
      </trkpt>
      <trkpt lat="43.50721" lon="6.69705">
        <ele>153.6</ele>
        <time>2025-10-26T12:29:20Z</time>
      </trkpt>
      <trkpt lat="43.50721" lon="6.69704">
        <ele>153.7</ele>
        <time>2025-10-26T12:29:21Z</time>
      </trkpt>
      <trkpt lat="43.50721" lon="6.69702">
        <ele>153.7</ele>
        <time>2025-10-26T12:29:22Z</time>
      </trkpt>
      <trkpt lat="43.50721" lon="6.69701">
        <ele>153.8</ele>
        <time>2025-10-26T12:29:23Z</time>
      </trkpt>
      <trkpt lat="43.5072" lon="6.697">
        <ele>153.9</ele>
        <time>2025-10-26T12:29:24Z</time>
      </trkpt>
      <trkpt lat="43.5072" lon="6.69699">
        <ele>154.1</ele>
        <time>2025-10-26T12:29:25Z</time>
      </trkpt>
      <trkpt lat="43.5072" lon="6.69697">
        <ele>154.2</ele>
        <time>2025-10-26T12:29:26Z</time>
      </trkpt>
      <trkpt lat="43.5072" lon="6.69696">
        <ele>154.3</ele>
        <time>2025-10-26T12:29:27Z</time>
      </trkpt>
      <trkpt lat="43.5072" lon="6.69694">
        <ele>154.4</ele>
        <time>2025-10-26T12:29:28Z</time>
      </trkpt>
      <trkpt lat="43.5072" lon="6.69693">
        <ele>154.5</ele>
        <time>2025-10-26T12:29:29Z</time>
      </trkpt>
      <trkpt lat="43.50721" lon="6.69691">
        <ele>154.6</ele>
        <time>2025-10-26T12:29:30Z</time>
      </trkpt>
      <trkpt lat="43.50721" lon="6.69689">
        <ele>154.6</ele>
        <time>2025-10-26T12:29:31Z</time>
      </trkpt>
      <trkpt lat="43.50721" lon="6.69688">
        <ele>154.6</ele>
        <time>2025-10-26T12:29:32Z</time>
      </trkpt>
      <trkpt lat="43.5072" lon="6.69686">
        <ele>154.5</ele>
        <time>2025-10-26T12:29:33Z</time>
      </trkpt>
      <trkpt lat="43.5072" lon="6.69685">
        <ele>154.7</ele>
        <time>2025-10-26T12:29:34Z</time>
      </trkpt>
      <trkpt lat="43.5072" lon="6.69683">
        <ele>154.7</ele>
        <time>2025-10-26T12:29:35Z</time>
      </trkpt>
      <trkpt lat="43.5072" lon="6.69682">
        <ele>154.7</ele>
        <time>2025-10-26T12:29:36Z</time>
      </trkpt>
      <trkpt lat="43.5072" lon="6.6968">
        <ele>154.7</ele>
        <time>2025-10-26T12:29:37Z</time>
      </trkpt>
      <trkpt lat="43.50719" lon="6.69679">
        <ele>154.8</ele>
        <time>2025-10-26T12:29:38Z</time>
      </trkpt>
      <trkpt lat="43.50719" lon="6.69678">
        <ele>154.8</ele>
        <time>2025-10-26T12:29:39Z</time>
      </trkpt>
      <trkpt lat="43.50719" lon="6.69676">
        <ele>154.8</ele>
        <time>2025-10-26T12:29:40Z</time>
      </trkpt>
      <trkpt lat="43.50719" lon="6.69674">
        <ele>154.7</ele>
        <time>2025-10-26T12:29:41Z</time>
      </trkpt>
      <trkpt lat="43.50719" lon="6.69673">
        <ele>154.8</ele>
        <time>2025-10-26T12:29:42Z</time>
      </trkpt>
      <trkpt lat="43.50719" lon="6.69672">
        <ele>154.8</ele>
        <time>2025-10-26T12:29:43Z</time>
      </trkpt>
      <trkpt lat="43.50718" lon="6.6967">
        <ele>154.9</ele>
        <time>2025-10-26T12:29:44Z</time>
      </trkpt>
      <trkpt lat="43.50717" lon="6.69669">
        <ele>155.1</ele>
        <time>2025-10-26T12:29:45Z</time>
      </trkpt>
      <trkpt lat="43.50717" lon="6.69668">
        <ele>155.2</ele>
        <time>2025-10-26T12:29:46Z</time>
      </trkpt>
      <trkpt lat="43.50716" lon="6.69667">
        <ele>155.3</ele>
        <time>2025-10-26T12:29:47Z</time>
      </trkpt>
      <trkpt lat="43.50715" lon="6.69666">
        <ele>155.3</ele>
        <time>2025-10-26T12:29:48Z</time>
      </trkpt>
      <trkpt lat="43.50714" lon="6.69665">
        <ele>155.3</ele>
        <time>2025-10-26T12:29:49Z</time>
      </trkpt>
      <trkpt lat="43.50713" lon="6.69664">
        <ele>155.4</ele>
        <time>2025-10-26T12:29:50Z</time>
      </trkpt>
      <trkpt lat="43.50712" lon="6.69663">
        <ele>155.4</ele>
        <time>2025-10-26T12:29:51Z</time>
      </trkpt>
      <trkpt lat="43.50711" lon="6.69662">
        <ele>155.5</ele>
        <time>2025-10-26T12:29:52Z</time>
      </trkpt>
      <trkpt lat="43.5071" lon="6.69662">
        <ele>155.6</ele>
        <time>2025-10-26T12:29:53Z</time>
      </trkpt>
      <trkpt lat="43.5071" lon="6.69661">
        <ele>155.7</ele>
        <time>2025-10-26T12:29:54Z</time>
      </trkpt>
      <trkpt lat="43.50709" lon="6.6966">
        <ele>155.8</ele>
        <time>2025-10-26T12:29:55Z</time>
      </trkpt>
      <trkpt lat="43.50708" lon="6.69659">
        <ele>156</ele>
        <time>2025-10-26T12:29:56Z</time>
      </trkpt>
      <trkpt lat="43.50708" lon="6.69658">
        <ele>156.1</ele>
        <time>2025-10-26T12:29:57Z</time>
      </trkpt>
      <trkpt lat="43.50707" lon="6.69658">
        <ele>156.2</ele>
        <time>2025-10-26T12:29:58Z</time>
      </trkpt>
      <trkpt lat="43.50706" lon="6.69657">
        <ele>156.2</ele>
        <time>2025-10-26T12:29:59Z</time>
      </trkpt>
      <trkpt lat="43.50705" lon="6.69656">
        <ele>156.2</ele>
        <time>2025-10-26T12:30:00Z</time>
      </trkpt>
      <trkpt lat="43.50704" lon="6.69655">
        <ele>156.3</ele>
        <time>2025-10-26T12:30:01Z</time>
      </trkpt>
      <trkpt lat="43.50704" lon="6.69655">
        <ele>156.3</ele>
        <time>2025-10-26T12:30:02Z</time>
      </trkpt>
      <trkpt lat="43.50703" lon="6.69654">
        <ele>156.3</ele>
        <time>2025-10-26T12:30:03Z</time>
      </trkpt>
      <trkpt lat="43.50702" lon="6.69654">
        <ele>156.3</ele>
        <time>2025-10-26T12:30:04Z</time>
      </trkpt>
      <trkpt lat="43.507" lon="6.69654">
        <ele>156.3</ele>
        <time>2025-10-26T12:30:05Z</time>
      </trkpt>
      <trkpt lat="43.50699" lon="6.69654">
        <ele>156.4</ele>
        <time>2025-10-26T12:30:06Z</time>
      </trkpt>
      <trkpt lat="43.50698" lon="6.69653">
        <ele>156.3</ele>
        <time>2025-10-26T12:30:07Z</time>
      </trkpt>
      <trkpt lat="43.50697" lon="6.69652">
        <ele>156.3</ele>
        <time>2025-10-26T12:30:08Z</time>
      </trkpt>
      <trkpt lat="43.50696" lon="6.69651">
        <ele>156.3</ele>
        <time>2025-10-26T12:30:09Z</time>
      </trkpt>
      <trkpt lat="43.50695" lon="6.6965">
        <ele>156.4</ele>
        <time>2025-10-26T12:30:10Z</time>
      </trkpt>
      <trkpt lat="43.50694" lon="6.69649">
        <ele>156.5</ele>
        <time>2025-10-26T12:30:11Z</time>
      </trkpt>
      <trkpt lat="43.50693" lon="6.69649">
        <ele>156.5</ele>
        <time>2025-10-26T12:30:12Z</time>
      </trkpt>
      <trkpt lat="43.50692" lon="6.69648">
        <ele>156.6</ele>
        <time>2025-10-26T12:30:13Z</time>
      </trkpt>
      <trkpt lat="43.50691" lon="6.69647">
        <ele>156.6</ele>
        <time>2025-10-26T12:30:14Z</time>
      </trkpt>
      <trkpt lat="43.50691" lon="6.69646">
        <ele>156.7</ele>
        <time>2025-10-26T12:30:15Z</time>
      </trkpt>
      <trkpt lat="43.50691" lon="6.69645">
        <ele>156.7</ele>
        <time>2025-10-26T12:30:16Z</time>
      </trkpt>
      <trkpt lat="43.5069" lon="6.69643">
        <ele>156.7</ele>
        <time>2025-10-26T12:30:17Z</time>
      </trkpt>
      <trkpt lat="43.50689" lon="6.69641">
        <ele>156.7</ele>
        <time>2025-10-26T12:30:18Z</time>
      </trkpt>
      <trkpt lat="43.50689" lon="6.6964">
        <ele>156.7</ele>
        <time>2025-10-26T12:30:19Z</time>
      </trkpt>
      <trkpt lat="43.50688" lon="6.69639">
        <ele>156.7</ele>
        <time>2025-10-26T12:30:20Z</time>
      </trkpt>
      <trkpt lat="43.50688" lon="6.69638">
        <ele>156.7</ele>
        <time>2025-10-26T12:30:21Z</time>
      </trkpt>
      <trkpt lat="43.50687" lon="6.69637">
        <ele>156.8</ele>
        <time>2025-10-26T12:30:22Z</time>
      </trkpt>
      <trkpt lat="43.50686" lon="6.69635">
        <ele>156.8</ele>
        <time>2025-10-26T12:30:23Z</time>
      </trkpt>
      <trkpt lat="43.50684" lon="6.69635">
        <ele>156.9</ele>
        <time>2025-10-26T12:30:24Z</time>
      </trkpt>
      <trkpt lat="43.50683" lon="6.69634">
        <ele>156.9</ele>
        <time>2025-10-26T12:30:25Z</time>
      </trkpt>
      <trkpt lat="43.50682" lon="6.69633">
        <ele>157</ele>
        <time>2025-10-26T12:30:26Z</time>
      </trkpt>
      <trkpt lat="43.50681" lon="6.69632">
        <ele>157.1</ele>
        <time>2025-10-26T12:30:27Z</time>
      </trkpt>
      <trkpt lat="43.5068" lon="6.69631">
        <ele>157.1</ele>
        <time>2025-10-26T12:30:28Z</time>
      </trkpt>
      <trkpt lat="43.50679" lon="6.6963">
        <ele>157.2</ele>
        <time>2025-10-26T12:30:29Z</time>
      </trkpt>
      <trkpt lat="43.50678" lon="6.69628">
        <ele>157.2</ele>
        <time>2025-10-26T12:30:30Z</time>
      </trkpt>
      <trkpt lat="43.50678" lon="6.69627">
        <ele>157.3</ele>
        <time>2025-10-26T12:30:31Z</time>
      </trkpt>
      <trkpt lat="43.50677" lon="6.69625">
        <ele>157.3</ele>
        <time>2025-10-26T12:30:32Z</time>
      </trkpt>
      <trkpt lat="43.50676" lon="6.69624">
        <ele>157.4</ele>
        <time>2025-10-26T12:30:33Z</time>
      </trkpt>
      <trkpt lat="43.50675" lon="6.69623">
        <ele>157.4</ele>
        <time>2025-10-26T12:30:34Z</time>
      </trkpt>
      <trkpt lat="43.50674" lon="6.69622">
        <ele>157.4</ele>
        <time>2025-10-26T12:30:35Z</time>
      </trkpt>
      <trkpt lat="43.50674" lon="6.69621">
        <ele>157.3</ele>
        <time>2025-10-26T12:30:36Z</time>
      </trkpt>
      <trkpt lat="43.50673" lon="6.69619">
        <ele>157.3</ele>
        <time>2025-10-26T12:30:37Z</time>
      </trkpt>
      <trkpt lat="43.50673" lon="6.69617">
        <ele>157.3</ele>
        <time>2025-10-26T12:30:38Z</time>
      </trkpt>
      <trkpt lat="43.50672" lon="6.69616">
        <ele>157.2</ele>
        <time>2025-10-26T12:30:39Z</time>
      </trkpt>
      <trkpt lat="43.50672" lon="6.69614">
        <ele>157.1</ele>
        <time>2025-10-26T12:30:40Z</time>
      </trkpt>
      <trkpt lat="43.50671" lon="6.69612">
        <ele>157.1</ele>
        <time>2025-10-26T12:30:41Z</time>
      </trkpt>
      <trkpt lat="43.50671" lon="6.69611">
        <ele>157.1</ele>
        <time>2025-10-26T12:30:42Z</time>
      </trkpt>
      <trkpt lat="43.5067" lon="6.69609">
        <ele>157.1</ele>
        <time>2025-10-26T12:30:43Z</time>
      </trkpt>
      <trkpt lat="43.50669" lon="6.69608">
        <ele>157</ele>
        <time>2025-10-26T12:30:44Z</time>
      </trkpt>
      <trkpt lat="43.50668" lon="6.69606">
        <ele>157</ele>
        <time>2025-10-26T12:30:45Z</time>
      </trkpt>
      <trkpt lat="43.50667" lon="6.69605">
        <ele>157</ele>
        <time>2025-10-26T12:30:46Z</time>
      </trkpt>
      <trkpt lat="43.50667" lon="6.69603">
        <ele>157.1</ele>
        <time>2025-10-26T12:30:47Z</time>
      </trkpt>
      <trkpt lat="43.50666" lon="6.69602">
        <ele>157.2</ele>
        <time>2025-10-26T12:30:48Z</time>
      </trkpt>
      <trkpt lat="43.50665" lon="6.696">
        <ele>157.1</ele>
        <time>2025-10-26T12:30:49Z</time>
      </trkpt>
      <trkpt lat="43.50665" lon="6.69599">
        <ele>157.1</ele>
        <time>2025-10-26T12:30:50Z</time>
      </trkpt>
      <trkpt lat="43.50664" lon="6.69597">
        <ele>157</ele>
        <time>2025-10-26T12:30:51Z</time>
      </trkpt>
      <trkpt lat="43.50663" lon="6.69597">
        <ele>157</ele>
        <time>2025-10-26T12:30:52Z</time>
      </trkpt>
      <trkpt lat="43.50663" lon="6.69595">
        <ele>157.1</ele>
        <time>2025-10-26T12:30:53Z</time>
      </trkpt>
      <trkpt lat="43.50662" lon="6.69594">
        <ele>157.2</ele>
        <time>2025-10-26T12:30:54Z</time>
      </trkpt>
      <trkpt lat="43.50662" lon="6.69593">
        <ele>157.2</ele>
        <time>2025-10-26T12:30:55Z</time>
      </trkpt>
      <trkpt lat="43.50662" lon="6.69591">
        <ele>157.3</ele>
        <time>2025-10-26T12:30:56Z</time>
      </trkpt>
      <trkpt lat="43.50662" lon="6.6959">
        <ele>157.3</ele>
        <time>2025-10-26T12:30:57Z</time>
      </trkpt>
      <trkpt lat="43.50662" lon="6.69588">
        <ele>157.3</ele>
        <time>2025-10-26T12:30:58Z</time>
      </trkpt>
      <trkpt lat="43.50662" lon="6.69587">
        <ele>157.3</ele>
        <time>2025-10-26T12:30:59Z</time>
      </trkpt>
      <trkpt lat="43.50662" lon="6.69585">
        <ele>157.2</ele>
        <time>2025-10-26T12:31:00Z</time>
      </trkpt>
      <trkpt lat="43.50662" lon="6.69583">
        <ele>157.2</ele>
        <time>2025-10-26T12:31:01Z</time>
      </trkpt>
      <trkpt lat="43.50662" lon="6.69582">
        <ele>157.1</ele>
        <time>2025-10-26T12:31:02Z</time>
      </trkpt>
      <trkpt lat="43.50662" lon="6.6958">
        <ele>157</ele>
        <time>2025-10-26T12:31:03Z</time>
      </trkpt>
      <trkpt lat="43.50662" lon="6.69579">
        <ele>156.9</ele>
        <time>2025-10-26T12:31:04Z</time>
      </trkpt>
      <trkpt lat="43.50662" lon="6.69577">
        <ele>156.8</ele>
        <time>2025-10-26T12:31:05Z</time>
      </trkpt>
      <trkpt lat="43.50662" lon="6.69576">
        <ele>156.8</ele>
        <time>2025-10-26T12:31:06Z</time>
      </trkpt>
      <trkpt lat="43.50662" lon="6.69574">
        <ele>156.8</ele>
        <time>2025-10-26T12:31:07Z</time>
      </trkpt>
      <trkpt lat="43.50662" lon="6.69573">
        <ele>156.7</ele>
        <time>2025-10-26T12:31:08Z</time>
      </trkpt>
      <trkpt lat="43.50662" lon="6.69571">
        <ele>156.7</ele>
        <time>2025-10-26T12:31:09Z</time>
      </trkpt>
      <trkpt lat="43.50662" lon="6.6957">
        <ele>156.6</ele>
        <time>2025-10-26T12:31:10Z</time>
      </trkpt>
      <trkpt lat="43.50662" lon="6.69568">
        <ele>156.5</ele>
        <time>2025-10-26T12:31:11Z</time>
      </trkpt>
      <trkpt lat="43.50662" lon="6.69567">
        <ele>156.4</ele>
        <time>2025-10-26T12:31:12Z</time>
      </trkpt>
      <trkpt lat="43.50662" lon="6.69565">
        <ele>156.4</ele>
        <time>2025-10-26T12:31:13Z</time>
      </trkpt>
      <trkpt lat="43.50662" lon="6.69564">
        <ele>156.4</ele>
        <time>2025-10-26T12:31:14Z</time>
      </trkpt>
      <trkpt lat="43.50662" lon="6.69563">
        <ele>156.4</ele>
        <time>2025-10-26T12:31:15Z</time>
      </trkpt>
      <trkpt lat="43.50661" lon="6.69562">
        <ele>156.4</ele>
        <time>2025-10-26T12:31:16Z</time>
      </trkpt>
      <trkpt lat="43.50661" lon="6.69561">
        <ele>156.5</ele>
        <time>2025-10-26T12:31:17Z</time>
      </trkpt>
      <trkpt lat="43.50661" lon="6.69559">
        <ele>156.4</ele>
        <time>2025-10-26T12:31:18Z</time>
      </trkpt>
      <trkpt lat="43.50661" lon="6.69558">
        <ele>156.2</ele>
        <time>2025-10-26T12:31:19Z</time>
      </trkpt>
      <trkpt lat="43.50661" lon="6.69557">
        <ele>156.2</ele>
        <time>2025-10-26T12:31:20Z</time>
      </trkpt>
      <trkpt lat="43.5066" lon="6.69556">
        <ele>156.1</ele>
        <time>2025-10-26T12:31:21Z</time>
      </trkpt>
      <trkpt lat="43.5066" lon="6.69554">
        <ele>156</ele>
        <time>2025-10-26T12:31:22Z</time>
      </trkpt>
      <trkpt lat="43.50659" lon="6.69554">
        <ele>155.9</ele>
        <time>2025-10-26T12:31:23Z</time>
      </trkpt>
      <trkpt lat="43.50658" lon="6.69553">
        <ele>155.8</ele>
        <time>2025-10-26T12:31:24Z</time>
      </trkpt>
      <trkpt lat="43.50658" lon="6.69552">
        <ele>155.8</ele>
        <time>2025-10-26T12:31:25Z</time>
      </trkpt>
      <trkpt lat="43.50657" lon="6.69551">
        <ele>155.6</ele>
        <time>2025-10-26T12:31:26Z</time>
      </trkpt>
      <trkpt lat="43.50657" lon="6.6955">
        <ele>155.6</ele>
        <time>2025-10-26T12:31:27Z</time>
      </trkpt>
      <trkpt lat="43.50656" lon="6.69549">
        <ele>155.5</ele>
        <time>2025-10-26T12:31:28Z</time>
      </trkpt>
      <trkpt lat="43.50656" lon="6.69547">
        <ele>155.4</ele>
        <time>2025-10-26T12:31:29Z</time>
      </trkpt>
      <trkpt lat="43.50655" lon="6.69546">
        <ele>155.4</ele>
        <time>2025-10-26T12:31:30Z</time>
      </trkpt>
      <trkpt lat="43.50654" lon="6.69544">
        <ele>155.3</ele>
        <time>2025-10-26T12:31:31Z</time>
      </trkpt>
      <trkpt lat="43.50653" lon="6.69544">
        <ele>155.3</ele>
        <time>2025-10-26T12:31:32Z</time>
      </trkpt>
      <trkpt lat="43.50653" lon="6.69542">
        <ele>155.2</ele>
        <time>2025-10-26T12:31:33Z</time>
      </trkpt>
      <trkpt lat="43.50652" lon="6.69541">
        <ele>155</ele>
        <time>2025-10-26T12:31:34Z</time>
      </trkpt>
      <trkpt lat="43.50651" lon="6.6954">
        <ele>154.8</ele>
        <time>2025-10-26T12:31:35Z</time>
      </trkpt>
      <trkpt lat="43.5065" lon="6.69538">
        <ele>154.7</ele>
        <time>2025-10-26T12:31:36Z</time>
      </trkpt>
      <trkpt lat="43.5065" lon="6.69537">
        <ele>154.5</ele>
        <time>2025-10-26T12:31:37Z</time>
      </trkpt>
      <trkpt lat="43.50649" lon="6.69536">
        <ele>154.3</ele>
        <time>2025-10-26T12:31:38Z</time>
      </trkpt>
      <trkpt lat="43.50649" lon="6.69534">
        <ele>154.1</ele>
        <time>2025-10-26T12:31:39Z</time>
      </trkpt>
      <trkpt lat="43.50648" lon="6.69532">
        <ele>154.1</ele>
        <time>2025-10-26T12:31:40Z</time>
      </trkpt>
      <trkpt lat="43.50648" lon="6.6953">
        <ele>154</ele>
        <time>2025-10-26T12:31:41Z</time>
      </trkpt>
      <trkpt lat="43.50648" lon="6.69528">
        <ele>153.9</ele>
        <time>2025-10-26T12:31:42Z</time>
      </trkpt>
      <trkpt lat="43.50647" lon="6.69526">
        <ele>153.8</ele>
        <time>2025-10-26T12:31:43Z</time>
      </trkpt>
      <trkpt lat="43.50647" lon="6.69524">
        <ele>153.7</ele>
        <time>2025-10-26T12:31:44Z</time>
      </trkpt>
      <trkpt lat="43.50645" lon="6.69522">
        <ele>153.7</ele>
        <time>2025-10-26T12:31:45Z</time>
      </trkpt>
      <trkpt lat="43.50645" lon="6.69521">
        <ele>153.6</ele>
        <time>2025-10-26T12:31:46Z</time>
      </trkpt>
      <trkpt lat="43.50644" lon="6.6952">
        <ele>153.5</ele>
        <time>2025-10-26T12:31:47Z</time>
      </trkpt>
      <trkpt lat="43.50643" lon="6.69518">
        <ele>153.3</ele>
        <time>2025-10-26T12:31:48Z</time>
      </trkpt>
      <trkpt lat="43.50643" lon="6.69516">
        <ele>153.2</ele>
        <time>2025-10-26T12:31:49Z</time>
      </trkpt>
      <trkpt lat="43.50642" lon="6.69515">
        <ele>153.1</ele>
        <time>2025-10-26T12:31:50Z</time>
      </trkpt>
      <trkpt lat="43.50641" lon="6.69514">
        <ele>153.1</ele>
        <time>2025-10-26T12:31:51Z</time>
      </trkpt>
      <trkpt lat="43.50641" lon="6.69512">
        <ele>153</ele>
        <time>2025-10-26T12:31:52Z</time>
      </trkpt>
      <trkpt lat="43.5064" lon="6.69511">
        <ele>153</ele>
        <time>2025-10-26T12:31:53Z</time>
      </trkpt>
      <trkpt lat="43.5064" lon="6.6951">
        <ele>152.8</ele>
        <time>2025-10-26T12:31:54Z</time>
      </trkpt>
      <trkpt lat="43.50639" lon="6.6951">
        <ele>152.8</ele>
        <time>2025-10-26T12:31:55Z</time>
      </trkpt>
      <trkpt lat="43.50638" lon="6.69509">
        <ele>152.8</ele>
        <time>2025-10-26T12:31:56Z</time>
      </trkpt>
      <trkpt lat="43.50639" lon="6.69509">
        <ele>152.8</ele>
        <time>2025-10-26T12:31:57Z</time>
      </trkpt>
      <trkpt lat="43.50639" lon="6.69508">
        <ele>152.8</ele>
        <time>2025-10-26T12:31:58Z</time>
      </trkpt>
      <trkpt lat="43.50639" lon="6.69508">
        <ele>152.8</ele>
        <time>2025-10-26T12:31:59Z</time>
      </trkpt>
      <trkpt lat="43.5064" lon="6.69507">
        <ele>152.7</ele>
        <time>2025-10-26T12:32:00Z</time>
      </trkpt>
      <trkpt lat="43.5064" lon="6.69507">
        <ele>152.7</ele>
        <time>2025-10-26T12:32:01Z</time>
      </trkpt>
      <trkpt lat="43.50641" lon="6.69506">
        <ele>152.7</ele>
        <time>2025-10-26T12:32:02Z</time>
      </trkpt>
      <trkpt lat="43.50641" lon="6.69505">
        <ele>152.7</ele>
        <time>2025-10-26T12:32:03Z</time>
      </trkpt>
      <trkpt lat="43.50642" lon="6.69505">
        <ele>152.6</ele>
        <time>2025-10-26T12:32:04Z</time>
      </trkpt>
      <trkpt lat="43.50642" lon="6.69504">
        <ele>152.5</ele>
        <time>2025-10-26T12:32:05Z</time>
      </trkpt>
      <trkpt lat="43.50643" lon="6.69503">
        <ele>152.4</ele>
        <time>2025-10-26T12:32:06Z</time>
      </trkpt>
      <trkpt lat="43.50644" lon="6.69502">
        <ele>152.4</ele>
        <time>2025-10-26T12:32:07Z</time>
      </trkpt>
      <trkpt lat="43.50644" lon="6.69501">
        <ele>152.4</ele>
        <time>2025-10-26T12:32:08Z</time>
      </trkpt>
      <trkpt lat="43.50645" lon="6.695">
        <ele>152.2</ele>
        <time>2025-10-26T12:32:09Z</time>
      </trkpt>
      <trkpt lat="43.50644" lon="6.69499">
        <ele>152.2</ele>
        <time>2025-10-26T12:32:10Z</time>
      </trkpt>
      <trkpt lat="43.50644" lon="6.69499">
        <ele>152.1</ele>
        <time>2025-10-26T12:32:11Z</time>
      </trkpt>
      <trkpt lat="43.50645" lon="6.695">
        <ele>152.1</ele>
        <time>2025-10-26T12:32:12Z</time>
      </trkpt>
      <trkpt lat="43.50646" lon="6.695">
        <ele>152.1</ele>
        <time>2025-10-26T12:32:13Z</time>
      </trkpt>
      <trkpt lat="43.50647" lon="6.695">
        <ele>152</ele>
        <time>2025-10-26T12:32:14Z</time>
      </trkpt>
      <trkpt lat="43.50647" lon="6.69499">
        <ele>152</ele>
        <time>2025-10-26T12:32:15Z</time>
      </trkpt>
      <trkpt lat="43.50648" lon="6.69499">
        <ele>151.9</ele>
        <time>2025-10-26T12:32:16Z</time>
      </trkpt>
      <trkpt lat="43.50648" lon="6.69498">
        <ele>151.9</ele>
        <time>2025-10-26T12:32:17Z</time>
      </trkpt>
      <trkpt lat="43.50648" lon="6.69498">
        <ele>151.9</ele>
        <time>2025-10-26T12:32:18Z</time>
      </trkpt>
      <trkpt lat="43.50649" lon="6.69497">
        <ele>151.8</ele>
        <time>2025-10-26T12:32:19Z</time>
      </trkpt>
      <trkpt lat="43.50649" lon="6.69497">
        <ele>151.8</ele>
        <time>2025-10-26T12:32:20Z</time>
      </trkpt>
      <trkpt lat="43.50649" lon="6.69497">
        <ele>151.8</ele>
        <time>2025-10-26T12:32:21Z</time>
      </trkpt>
      <trkpt lat="43.50649" lon="6.69497">
        <ele>151.9</ele>
        <time>2025-10-26T12:32:22Z</time>
      </trkpt>
      <trkpt lat="43.50649" lon="6.69497">
        <ele>151.9</ele>
        <time>2025-10-26T12:32:23Z</time>
      </trkpt>
      <trkpt lat="43.50649" lon="6.69496">
        <ele>151.9</ele>
        <time>2025-10-26T12:32:24Z</time>
      </trkpt>
      <trkpt lat="43.50649" lon="6.69496">
        <ele>152</ele>
        <time>2025-10-26T12:32:25Z</time>
      </trkpt>
      <trkpt lat="43.50649" lon="6.69496">
        <ele>152</ele>
        <time>2025-10-26T12:32:26Z</time>
      </trkpt>
      <trkpt lat="43.50649" lon="6.69496">
        <ele>151.9</ele>
        <time>2025-10-26T12:32:27Z</time>
      </trkpt>
      <trkpt lat="43.50649" lon="6.69496">
        <ele>151.9</ele>
        <time>2025-10-26T12:32:28Z</time>
      </trkpt>
      <trkpt lat="43.5065" lon="6.69496">
        <ele>151.8</ele>
        <time>2025-10-26T12:32:29Z</time>
      </trkpt>
      <trkpt lat="43.5065" lon="6.69496">
        <ele>151.8</ele>
        <time>2025-10-26T12:32:30Z</time>
      </trkpt>
      <trkpt lat="43.5065" lon="6.69496">
        <ele>151.7</ele>
        <time>2025-10-26T12:32:31Z</time>
      </trkpt>
      <trkpt lat="43.5065" lon="6.69495">
        <ele>151.7</ele>
        <time>2025-10-26T12:32:32Z</time>
      </trkpt>
      <trkpt lat="43.5065" lon="6.69495">
        <ele>151.6</ele>
        <time>2025-10-26T12:32:33Z</time>
      </trkpt>
      <trkpt lat="43.5065" lon="6.69495">
        <ele>151.6</ele>
        <time>2025-10-26T12:32:34Z</time>
      </trkpt>
      <trkpt lat="43.5065" lon="6.69495">
        <ele>151.6</ele>
        <time>2025-10-26T12:32:35Z</time>
      </trkpt>
      <trkpt lat="43.5065" lon="6.69495">
        <ele>151.5</ele>
        <time>2025-10-26T12:32:36Z</time>
      </trkpt>
      <trkpt lat="43.5065" lon="6.69495">
        <ele>151.4</ele>
        <time>2025-10-26T12:32:37Z</time>
      </trkpt>
      <trkpt lat="43.5065" lon="6.69495">
        <ele>151.3</ele>
        <time>2025-10-26T12:32:38Z</time>
      </trkpt>
      <trkpt lat="43.5065" lon="6.69495">
        <ele>151.2</ele>
        <time>2025-10-26T12:32:39Z</time>
      </trkpt>
      <trkpt lat="43.5065" lon="6.69495">
        <ele>151.1</ele>
        <time>2025-10-26T12:32:40Z</time>
      </trkpt>
      <trkpt lat="43.5065" lon="6.69495">
        <ele>151</ele>
        <time>2025-10-26T12:32:41Z</time>
      </trkpt>
      <trkpt lat="43.5065" lon="6.69494">
        <ele>151</ele>
        <time>2025-10-26T12:32:42Z</time>
      </trkpt>
      <trkpt lat="43.5065" lon="6.69494">
        <ele>151</ele>
        <time>2025-10-26T12:32:43Z</time>
      </trkpt>
      <trkpt lat="43.5065" lon="6.69494">
        <ele>151</ele>
        <time>2025-10-26T12:32:44Z</time>
      </trkpt>
      <trkpt lat="43.5065" lon="6.69494">
        <ele>151.1</ele>
        <time>2025-10-26T12:32:45Z</time>
      </trkpt>
      <trkpt lat="43.5065" lon="6.69494">
        <ele>151.3</ele>
        <time>2025-10-26T12:32:46Z</time>
      </trkpt>
      <trkpt lat="43.5065" lon="6.69494">
        <ele>151.4</ele>
        <time>2025-10-26T12:32:47Z</time>
      </trkpt>
      <trkpt lat="43.5065" lon="6.69494">
        <ele>151.5</ele>
        <time>2025-10-26T12:32:48Z</time>
      </trkpt>
      <trkpt lat="43.5065" lon="6.69494">
        <ele>151.5</ele>
        <time>2025-10-26T12:32:49Z</time>
      </trkpt>
      <trkpt lat="43.5065" lon="6.69494">
        <ele>151.5</ele>
        <time>2025-10-26T12:32:50Z</time>
      </trkpt>
      <trkpt lat="43.5065" lon="6.69494">
        <ele>151.5</ele>
        <time>2025-10-26T12:32:51Z</time>
      </trkpt>
      <trkpt lat="43.50649" lon="6.69494">
        <ele>151.4</ele>
        <time>2025-10-26T12:32:52Z</time>
      </trkpt>
      <trkpt lat="43.50649" lon="6.69494">
        <ele>151.4</ele>
        <time>2025-10-26T12:32:53Z</time>
      </trkpt>
      <trkpt lat="43.50649" lon="6.69494">
        <ele>151.3</ele>
        <time>2025-10-26T12:32:54Z</time>
      </trkpt>
      <trkpt lat="43.50649" lon="6.69493">
        <ele>151.3</ele>
        <time>2025-10-26T12:32:55Z</time>
      </trkpt>
      <trkpt lat="43.50649" lon="6.69493">
        <ele>151.2</ele>
        <time>2025-10-26T12:32:56Z</time>
      </trkpt>
      <trkpt lat="43.50649" lon="6.69493">
        <ele>151.2</ele>
        <time>2025-10-26T12:32:57Z</time>
      </trkpt>
      <trkpt lat="43.50649" lon="6.69493">
        <ele>151.1</ele>
        <time>2025-10-26T12:32:58Z</time>
      </trkpt>
      <trkpt lat="43.50649" lon="6.69493">
        <ele>151.1</ele>
        <time>2025-10-26T12:32:59Z</time>
      </trkpt>
      <trkpt lat="43.50649" lon="6.69493">
        <ele>151</ele>
        <time>2025-10-26T12:33:00Z</time>
      </trkpt>
      <trkpt lat="43.50649" lon="6.69493">
        <ele>151</ele>
        <time>2025-10-26T12:33:01Z</time>
      </trkpt>
      <trkpt lat="43.50649" lon="6.69493">
        <ele>151</ele>
        <time>2025-10-26T12:33:02Z</time>
      </trkpt>
      <trkpt lat="43.50649" lon="6.69493">
        <ele>151.1</ele>
        <time>2025-10-26T12:33:03Z</time>
      </trkpt>
      <trkpt lat="43.50649" lon="6.69493">
        <ele>151.2</ele>
        <time>2025-10-26T12:33:04Z</time>
      </trkpt>
      <trkpt lat="43.50649" lon="6.69493">
        <ele>151.2</ele>
        <time>2025-10-26T12:33:05Z</time>
      </trkpt>
      <trkpt lat="43.50649" lon="6.69493">
        <ele>151.3</ele>
        <time>2025-10-26T12:33:06Z</time>
      </trkpt>
      <trkpt lat="43.50649" lon="6.69492">
        <ele>151.3</ele>
        <time>2025-10-26T12:33:07Z</time>
      </trkpt>
      <trkpt lat="43.50649" lon="6.69493">
        <ele>151.2</ele>
        <time>2025-10-26T12:33:08Z</time>
      </trkpt>
      <trkpt lat="43.50649" lon="6.69493">
        <ele>151.2</ele>
        <time>2025-10-26T12:33:09Z</time>
      </trkpt>
      <trkpt lat="43.50649" lon="6.69493">
        <ele>151.3</ele>
        <time>2025-10-26T12:33:10Z</time>
      </trkpt>
      <trkpt lat="43.50649" lon="6.69493">
        <ele>151.3</ele>
        <time>2025-10-26T12:33:11Z</time>
      </trkpt>
      <trkpt lat="43.50649" lon="6.69493">
        <ele>151.4</ele>
        <time>2025-10-26T12:33:12Z</time>
      </trkpt>
      <trkpt lat="43.50649" lon="6.69493">
        <ele>151.4</ele>
        <time>2025-10-26T12:33:13Z</time>
      </trkpt>
      <trkpt lat="43.50649" lon="6.69493">
        <ele>151.4</ele>
        <time>2025-10-26T12:33:14Z</time>
      </trkpt>
      <trkpt lat="43.50649" lon="6.69493">
        <ele>151.4</ele>
        <time>2025-10-26T12:33:15Z</time>
      </trkpt>
      <trkpt lat="43.50649" lon="6.69493">
        <ele>151.4</ele>
        <time>2025-10-26T12:33:16Z</time>
      </trkpt>
      <trkpt lat="43.50649" lon="6.69493">
        <ele>151.3</ele>
        <time>2025-10-26T12:33:17Z</time>
      </trkpt>
      <trkpt lat="43.50649" lon="6.69493">
        <ele>151.3</ele>
        <time>2025-10-26T12:33:18Z</time>
      </trkpt>
      <trkpt lat="43.50649" lon="6.69493">
        <ele>151.2</ele>
        <time>2025-10-26T12:33:19Z</time>
      </trkpt>
      <trkpt lat="43.50649" lon="6.69493">
        <ele>151.3</ele>
        <time>2025-10-26T12:33:20Z</time>
      </trkpt>
      <trkpt lat="43.50649" lon="6.69493">
        <ele>151.3</ele>
        <time>2025-10-26T12:33:21Z</time>
      </trkpt>
      <trkpt lat="43.50649" lon="6.69492">
        <ele>151.3</ele>
        <time>2025-10-26T12:33:22Z</time>
      </trkpt>
      <trkpt lat="43.50649" lon="6.69492">
        <ele>151.4</ele>
        <time>2025-10-26T12:33:23Z</time>
      </trkpt>
      <trkpt lat="43.50649" lon="6.69492">
        <ele>151.3</ele>
        <time>2025-10-26T12:33:24Z</time>
      </trkpt>
      <trkpt lat="43.50649" lon="6.69492">
        <ele>151.2</ele>
        <time>2025-10-26T12:33:25Z</time>
      </trkpt>
      <trkpt lat="43.50649" lon="6.69492">
        <ele>151.1</ele>
        <time>2025-10-26T12:33:26Z</time>
      </trkpt>
      <trkpt lat="43.50649" lon="6.69491">
        <ele>151</ele>
        <time>2025-10-26T12:33:27Z</time>
      </trkpt>
      <trkpt lat="43.50649" lon="6.69491">
        <ele>151</ele>
        <time>2025-10-26T12:33:28Z</time>
      </trkpt>
      <trkpt lat="43.50649" lon="6.69491">
        <ele>151</ele>
        <time>2025-10-26T12:33:29Z</time>
      </trkpt>
      <trkpt lat="43.50649" lon="6.69491">
        <ele>151</ele>
        <time>2025-10-26T12:33:30Z</time>
      </trkpt>
      <trkpt lat="43.5065" lon="6.6949">
        <ele>151</ele>
        <time>2025-10-26T12:33:31Z</time>
      </trkpt>
      <trkpt lat="43.50649" lon="6.6949">
        <ele>151</ele>
        <time>2025-10-26T12:33:32Z</time>
      </trkpt>
      <trkpt lat="43.50649" lon="6.6949">
        <ele>151</ele>
        <time>2025-10-26T12:33:33Z</time>
      </trkpt>
      <trkpt lat="43.50649" lon="6.6949">
        <ele>151</ele>
        <time>2025-10-26T12:33:34Z</time>
      </trkpt>
      <trkpt lat="43.50649" lon="6.6949">
        <ele>151.1</ele>
        <time>2025-10-26T12:33:35Z</time>
      </trkpt>
      <trkpt lat="43.50649" lon="6.6949">
        <ele>151</ele>
        <time>2025-10-26T12:33:36Z</time>
      </trkpt>
      <trkpt lat="43.50649" lon="6.6949">
        <ele>151</ele>
        <time>2025-10-26T12:33:37Z</time>
      </trkpt>
      <trkpt lat="43.50649" lon="6.6949">
        <ele>150.9</ele>
        <time>2025-10-26T12:33:38Z</time>
      </trkpt>
      <trkpt lat="43.50648" lon="6.69489">
        <ele>150.8</ele>
        <time>2025-10-26T12:33:39Z</time>
      </trkpt>
      <trkpt lat="43.50648" lon="6.69489">
        <ele>150.8</ele>
        <time>2025-10-26T12:33:40Z</time>
      </trkpt>
      <trkpt lat="43.50647" lon="6.69489">
        <ele>150.8</ele>
        <time>2025-10-26T12:33:41Z</time>
      </trkpt>
      <trkpt lat="43.50647" lon="6.69489">
        <ele>150.7</ele>
        <time>2025-10-26T12:33:42Z</time>
      </trkpt>
      <trkpt lat="43.50647" lon="6.69489">
        <ele>150.7</ele>
        <time>2025-10-26T12:33:43Z</time>
      </trkpt>
      <trkpt lat="43.50647" lon="6.69489">
        <ele>150.6</ele>
        <time>2025-10-26T12:33:44Z</time>
      </trkpt>
      <trkpt lat="43.50647" lon="6.69489">
        <ele>150.6</ele>
        <time>2025-10-26T12:33:45Z</time>
      </trkpt>
      <trkpt lat="43.50647" lon="6.69489">
        <ele>150.5</ele>
        <time>2025-10-26T12:33:46Z</time>
      </trkpt>
      <trkpt lat="43.50647" lon="6.69489">
        <ele>150.4</ele>
        <time>2025-10-26T12:33:47Z</time>
      </trkpt>
      <trkpt lat="43.50647" lon="6.69489">
        <ele>150.4</ele>
        <time>2025-10-26T12:33:48Z</time>
      </trkpt>
      <trkpt lat="43.50647" lon="6.69489">
        <ele>150.4</ele>
        <time>2025-10-26T12:33:49Z</time>
      </trkpt>
      <trkpt lat="43.50646" lon="6.69489">
        <ele>150.5</ele>
        <time>2025-10-26T12:33:50Z</time>
      </trkpt>
      <trkpt lat="43.50646" lon="6.69489">
        <ele>150.5</ele>
        <time>2025-10-26T12:33:51Z</time>
      </trkpt>
      <trkpt lat="43.50645" lon="6.69489">
        <ele>150.5</ele>
        <time>2025-10-26T12:33:52Z</time>
      </trkpt>
      <trkpt lat="43.50645" lon="6.69489">
        <ele>150.5</ele>
        <time>2025-10-26T12:33:53Z</time>
      </trkpt>
      <trkpt lat="43.50645" lon="6.69489">
        <ele>150.5</ele>
        <time>2025-10-26T12:33:54Z</time>
      </trkpt>
      <trkpt lat="43.50645" lon="6.69489">
        <ele>150.5</ele>
        <time>2025-10-26T12:33:55Z</time>
      </trkpt>
      <trkpt lat="43.50645" lon="6.69489">
        <ele>150.5</ele>
        <time>2025-10-26T12:33:56Z</time>
      </trkpt>
      <trkpt lat="43.50645" lon="6.69489">
        <ele>150.5</ele>
        <time>2025-10-26T12:33:57Z</time>
      </trkpt>
      <trkpt lat="43.50644" lon="6.69489">
        <ele>150.5</ele>
        <time>2025-10-26T12:33:58Z</time>
      </trkpt>
      <trkpt lat="43.50644" lon="6.69489">
        <ele>150.5</ele>
        <time>2025-10-26T12:33:59Z</time>
      </trkpt>
      <trkpt lat="43.50644" lon="6.69489">
        <ele>150.5</ele>
        <time>2025-10-26T12:34:00Z</time>
      </trkpt>
      <trkpt lat="43.50644" lon="6.6949">
        <ele>150.6</ele>
        <time>2025-10-26T12:34:01Z</time>
      </trkpt>
      <trkpt lat="43.50643" lon="6.6949">
        <ele>150.6</ele>
        <time>2025-10-26T12:34:02Z</time>
      </trkpt>
      <trkpt lat="43.50643" lon="6.6949">
        <ele>150.7</ele>
        <time>2025-10-26T12:34:03Z</time>
      </trkpt>
      <trkpt lat="43.50643" lon="6.6949">
        <ele>150.7</ele>
        <time>2025-10-26T12:34:04Z</time>
      </trkpt>
      <trkpt lat="43.50643" lon="6.6949">
        <ele>150.8</ele>
        <time>2025-10-26T12:34:05Z</time>
      </trkpt>
      <trkpt lat="43.50643" lon="6.6949">
        <ele>150.9</ele>
        <time>2025-10-26T12:34:06Z</time>
      </trkpt>
      <trkpt lat="43.50643" lon="6.69491">
        <ele>150.9</ele>
        <time>2025-10-26T12:34:07Z</time>
      </trkpt>
      <trkpt lat="43.50643" lon="6.69491">
        <ele>150.9</ele>
        <time>2025-10-26T12:34:08Z</time>
      </trkpt>
      <trkpt lat="43.50642" lon="6.69492">
        <ele>150.8</ele>
        <time>2025-10-26T12:34:09Z</time>
      </trkpt>
      <trkpt lat="43.50641" lon="6.69492">
        <ele>150.8</ele>
        <time>2025-10-26T12:34:10Z</time>
      </trkpt>
      <trkpt lat="43.50641" lon="6.69493">
        <ele>150.8</ele>
        <time>2025-10-26T12:34:11Z</time>
      </trkpt>
      <trkpt lat="43.5064" lon="6.69494">
        <ele>150.9</ele>
        <time>2025-10-26T12:34:12Z</time>
      </trkpt>
      <trkpt lat="43.50639" lon="6.69494">
        <ele>150.9</ele>
        <time>2025-10-26T12:34:13Z</time>
      </trkpt>
      <trkpt lat="43.50638" lon="6.69494">
        <ele>150.9</ele>
        <time>2025-10-26T12:34:14Z</time>
      </trkpt>
      <trkpt lat="43.50637" lon="6.69494">
        <ele>150.9</ele>
        <time>2025-10-26T12:34:15Z</time>
      </trkpt>
      <trkpt lat="43.50636" lon="6.69494">
        <ele>150.9</ele>
        <time>2025-10-26T12:34:16Z</time>
      </trkpt>
      <trkpt lat="43.50636" lon="6.69494">
        <ele>150.9</ele>
        <time>2025-10-26T12:34:17Z</time>
      </trkpt>
      <trkpt lat="43.50636" lon="6.69495">
        <ele>150.9</ele>
        <time>2025-10-26T12:34:18Z</time>
      </trkpt>
      <trkpt lat="43.50636" lon="6.69495">
        <ele>150.9</ele>
        <time>2025-10-26T12:34:19Z</time>
      </trkpt>
      <trkpt lat="43.50636" lon="6.69495">
        <ele>150.9</ele>
        <time>2025-10-26T12:34:20Z</time>
      </trkpt>
      <trkpt lat="43.50635" lon="6.69495">
        <ele>150.9</ele>
        <time>2025-10-26T12:34:21Z</time>
      </trkpt>
      <trkpt lat="43.50635" lon="6.69495">
        <ele>150.8</ele>
        <time>2025-10-26T12:34:22Z</time>
      </trkpt>
      <trkpt lat="43.50635" lon="6.69495">
        <ele>150.8</ele>
        <time>2025-10-26T12:34:23Z</time>
      </trkpt>
      <trkpt lat="43.50635" lon="6.69494">
        <ele>150.8</ele>
        <time>2025-10-26T12:34:24Z</time>
      </trkpt>
      <trkpt lat="43.50635" lon="6.69494">
        <ele>150.7</ele>
        <time>2025-10-26T12:34:25Z</time>
      </trkpt>
      <trkpt lat="43.50635" lon="6.69494">
        <ele>150.6</ele>
        <time>2025-10-26T12:34:26Z</time>
      </trkpt>
      <trkpt lat="43.50634" lon="6.69494">
        <ele>150.6</ele>
        <time>2025-10-26T12:34:27Z</time>
      </trkpt>
      <trkpt lat="43.50634" lon="6.69494">
        <ele>150.7</ele>
        <time>2025-10-26T12:34:28Z</time>
      </trkpt>
      <trkpt lat="43.50634" lon="6.69494">
        <ele>150.7</ele>
        <time>2025-10-26T12:34:29Z</time>
      </trkpt>
      <trkpt lat="43.50634" lon="6.69495">
        <ele>150.7</ele>
        <time>2025-10-26T12:34:30Z</time>
      </trkpt>
      <trkpt lat="43.50635" lon="6.69495">
        <ele>150.7</ele>
        <time>2025-10-26T12:34:31Z</time>
      </trkpt>
      <trkpt lat="43.50635" lon="6.69496">
        <ele>150.7</ele>
        <time>2025-10-26T12:34:32Z</time>
      </trkpt>
      <trkpt lat="43.50634" lon="6.69496">
        <ele>150.6</ele>
        <time>2025-10-26T12:34:33Z</time>
      </trkpt>
      <trkpt lat="43.50634" lon="6.69496">
        <ele>150.7</ele>
        <time>2025-10-26T12:34:34Z</time>
      </trkpt>
      <trkpt lat="43.50634" lon="6.69496">
        <ele>150.8</ele>
        <time>2025-10-26T12:34:35Z</time>
      </trkpt>
      <trkpt lat="43.50634" lon="6.69496">
        <ele>150.8</ele>
        <time>2025-10-26T12:34:36Z</time>
      </trkpt>
      <trkpt lat="43.50634" lon="6.69496">
        <ele>150.8</ele>
        <time>2025-10-26T12:34:37Z</time>
      </trkpt>
      <trkpt lat="43.50634" lon="6.69496">
        <ele>150.8</ele>
        <time>2025-10-26T12:34:38Z</time>
      </trkpt>
      <trkpt lat="43.50634" lon="6.69495">
        <ele>150.8</ele>
        <time>2025-10-26T12:34:39Z</time>
      </trkpt>
      <trkpt lat="43.50634" lon="6.69495">
        <ele>150.7</ele>
        <time>2025-10-26T12:34:40Z</time>
      </trkpt>
      <trkpt lat="43.50634" lon="6.69495">
        <ele>150.6</ele>
        <time>2025-10-26T12:34:41Z</time>
      </trkpt>
      <trkpt lat="43.50634" lon="6.69494">
        <ele>150.6</ele>
        <time>2025-10-26T12:34:42Z</time>
      </trkpt>
      <trkpt lat="43.50633" lon="6.69494">
        <ele>150.6</ele>
        <time>2025-10-26T12:34:43Z</time>
      </trkpt>
      <trkpt lat="43.50633" lon="6.69493">
        <ele>150.6</ele>
        <time>2025-10-26T12:34:44Z</time>
      </trkpt>
      <trkpt lat="43.50632" lon="6.69493">
        <ele>150.5</ele>
        <time>2025-10-26T12:34:45Z</time>
      </trkpt>
      <trkpt lat="43.50632" lon="6.69492">
        <ele>150.4</ele>
        <time>2025-10-26T12:34:46Z</time>
      </trkpt>
      <trkpt lat="43.50631" lon="6.69491">
        <ele>150.2</ele>
        <time>2025-10-26T12:34:47Z</time>
      </trkpt>
      <trkpt lat="43.50631" lon="6.6949">
        <ele>150.2</ele>
        <time>2025-10-26T12:34:48Z</time>
      </trkpt>
      <trkpt lat="43.5063" lon="6.69489">
        <ele>150.2</ele>
        <time>2025-10-26T12:34:49Z</time>
      </trkpt>
      <trkpt lat="43.5063" lon="6.69488">
        <ele>150.1</ele>
        <time>2025-10-26T12:34:50Z</time>
      </trkpt>
      <trkpt lat="43.5063" lon="6.69486">
        <ele>150</ele>
        <time>2025-10-26T12:34:51Z</time>
      </trkpt>
      <trkpt lat="43.50629" lon="6.69485">
        <ele>149.8</ele>
        <time>2025-10-26T12:34:52Z</time>
      </trkpt>
      <trkpt lat="43.50628" lon="6.69484">
        <ele>149.8</ele>
        <time>2025-10-26T12:34:53Z</time>
      </trkpt>
      <trkpt lat="43.50628" lon="6.69483">
        <ele>149.8</ele>
        <time>2025-10-26T12:34:54Z</time>
      </trkpt>
      <trkpt lat="43.50628" lon="6.69481">
        <ele>149.6</ele>
        <time>2025-10-26T12:34:55Z</time>
      </trkpt>
      <trkpt lat="43.50627" lon="6.6948">
        <ele>149.6</ele>
        <time>2025-10-26T12:34:56Z</time>
      </trkpt>
      <trkpt lat="43.50627" lon="6.69479">
        <ele>149.6</ele>
        <time>2025-10-26T12:34:57Z</time>
      </trkpt>
      <trkpt lat="43.50627" lon="6.69478">
        <ele>149.6</ele>
        <time>2025-10-26T12:34:58Z</time>
      </trkpt>
      <trkpt lat="43.50626" lon="6.69477">
        <ele>149.6</ele>
        <time>2025-10-26T12:34:59Z</time>
      </trkpt>
      <trkpt lat="43.50626" lon="6.69476">
        <ele>149.7</ele>
        <time>2025-10-26T12:35:00Z</time>
      </trkpt>
      <trkpt lat="43.50625" lon="6.69475">
        <ele>149.8</ele>
        <time>2025-10-26T12:35:01Z</time>
      </trkpt>
      <trkpt lat="43.50625" lon="6.69475">
        <ele>150</ele>
        <time>2025-10-26T12:35:02Z</time>
      </trkpt>
      <trkpt lat="43.50624" lon="6.69474">
        <ele>150.1</ele>
        <time>2025-10-26T12:35:03Z</time>
      </trkpt>
      <trkpt lat="43.50623" lon="6.69473">
        <ele>150.1</ele>
        <time>2025-10-26T12:35:04Z</time>
      </trkpt>
      <trkpt lat="43.50623" lon="6.69472">
        <ele>150.2</ele>
        <time>2025-10-26T12:35:05Z</time>
      </trkpt>
      <trkpt lat="43.50622" lon="6.6947">
        <ele>150.1</ele>
        <time>2025-10-26T12:35:06Z</time>
      </trkpt>
      <trkpt lat="43.50622" lon="6.69469">
        <ele>150.1</ele>
        <time>2025-10-26T12:35:07Z</time>
      </trkpt>
      <trkpt lat="43.50621" lon="6.69468">
        <ele>150</ele>
        <time>2025-10-26T12:35:08Z</time>
      </trkpt>
      <trkpt lat="43.50621" lon="6.69466">
        <ele>149.9</ele>
        <time>2025-10-26T12:35:09Z</time>
      </trkpt>
      <trkpt lat="43.50621" lon="6.69465">
        <ele>149.8</ele>
        <time>2025-10-26T12:35:10Z</time>
      </trkpt>
      <trkpt lat="43.50621" lon="6.69463">
        <ele>149.7</ele>
        <time>2025-10-26T12:35:11Z</time>
      </trkpt>
      <trkpt lat="43.50621" lon="6.69462">
        <ele>149.5</ele>
        <time>2025-10-26T12:35:12Z</time>
      </trkpt>
      <trkpt lat="43.50621" lon="6.6946">
        <ele>149.4</ele>
        <time>2025-10-26T12:35:13Z</time>
      </trkpt>
      <trkpt lat="43.50621" lon="6.69459">
        <ele>149.3</ele>
        <time>2025-10-26T12:35:14Z</time>
      </trkpt>
      <trkpt lat="43.5062" lon="6.69457">
        <ele>149.2</ele>
        <time>2025-10-26T12:35:15Z</time>
      </trkpt>
      <trkpt lat="43.5062" lon="6.69456">
        <ele>149.2</ele>
        <time>2025-10-26T12:35:16Z</time>
      </trkpt>
      <trkpt lat="43.5062" lon="6.69454">
        <ele>149</ele>
        <time>2025-10-26T12:35:17Z</time>
      </trkpt>
      <trkpt lat="43.5062" lon="6.69452">
        <ele>148.9</ele>
        <time>2025-10-26T12:35:18Z</time>
      </trkpt>
      <trkpt lat="43.5062" lon="6.69451">
        <ele>148.8</ele>
        <time>2025-10-26T12:35:19Z</time>
      </trkpt>
      <trkpt lat="43.5062" lon="6.69449">
        <ele>148.8</ele>
        <time>2025-10-26T12:35:20Z</time>
      </trkpt>
      <trkpt lat="43.5062" lon="6.69448">
        <ele>148.7</ele>
        <time>2025-10-26T12:35:21Z</time>
      </trkpt>
      <trkpt lat="43.50619" lon="6.69446">
        <ele>148.2</ele>
        <time>2025-10-26T12:35:22Z</time>
      </trkpt>
      <trkpt lat="43.50619" lon="6.69445">
        <ele>148.1</ele>
        <time>2025-10-26T12:35:23Z</time>
      </trkpt>
      <trkpt lat="43.50619" lon="6.69444">
        <ele>147.9</ele>
        <time>2025-10-26T12:35:24Z</time>
      </trkpt>
      <trkpt lat="43.50619" lon="6.69442">
        <ele>147.7</ele>
        <time>2025-10-26T12:35:25Z</time>
      </trkpt>
      <trkpt lat="43.50619" lon="6.6944">
        <ele>147.6</ele>
        <time>2025-10-26T12:35:26Z</time>
      </trkpt>
      <trkpt lat="43.50619" lon="6.69439">
        <ele>147.5</ele>
        <time>2025-10-26T12:35:27Z</time>
      </trkpt>
      <trkpt lat="43.50619" lon="6.69437">
        <ele>147.4</ele>
        <time>2025-10-26T12:35:28Z</time>
      </trkpt>
      <trkpt lat="43.50619" lon="6.69436">
        <ele>147.3</ele>
        <time>2025-10-26T12:35:29Z</time>
      </trkpt>
      <trkpt lat="43.50619" lon="6.69434">
        <ele>147.1</ele>
        <time>2025-10-26T12:35:30Z</time>
      </trkpt>
      <trkpt lat="43.50618" lon="6.69433">
        <ele>146.9</ele>
        <time>2025-10-26T12:35:31Z</time>
      </trkpt>
      <trkpt lat="43.50618" lon="6.69431">
        <ele>146.9</ele>
        <time>2025-10-26T12:35:32Z</time>
      </trkpt>
      <trkpt lat="43.50618" lon="6.6943">
        <ele>146.8</ele>
        <time>2025-10-26T12:35:33Z</time>
      </trkpt>
      <trkpt lat="43.50618" lon="6.69429">
        <ele>146.9</ele>
        <time>2025-10-26T12:35:34Z</time>
      </trkpt>
      <trkpt lat="43.50618" lon="6.69427">
        <ele>146.9</ele>
        <time>2025-10-26T12:35:35Z</time>
      </trkpt>
      <trkpt lat="43.50619" lon="6.69425">
        <ele>146.9</ele>
        <time>2025-10-26T12:35:36Z</time>
      </trkpt>
      <trkpt lat="43.50619" lon="6.69423">
        <ele>146.8</ele>
        <time>2025-10-26T12:35:37Z</time>
      </trkpt>
      <trkpt lat="43.50619" lon="6.69421">
        <ele>146.8</ele>
        <time>2025-10-26T12:35:38Z</time>
      </trkpt>
      <trkpt lat="43.50619" lon="6.6942">
        <ele>146.8</ele>
        <time>2025-10-26T12:35:39Z</time>
      </trkpt>
      <trkpt lat="43.50619" lon="6.69418">
        <ele>146.8</ele>
        <time>2025-10-26T12:35:40Z</time>
      </trkpt>
      <trkpt lat="43.50619" lon="6.69417">
        <ele>146.8</ele>
        <time>2025-10-26T12:35:41Z</time>
      </trkpt>
      <trkpt lat="43.50619" lon="6.69415">
        <ele>146.8</ele>
        <time>2025-10-26T12:35:42Z</time>
      </trkpt>
      <trkpt lat="43.50618" lon="6.69414">
        <ele>146.8</ele>
        <time>2025-10-26T12:35:43Z</time>
      </trkpt>
      <trkpt lat="43.50618" lon="6.69413">
        <ele>146.8</ele>
        <time>2025-10-26T12:35:44Z</time>
      </trkpt>
      <trkpt lat="43.50618" lon="6.69412">
        <ele>146.7</ele>
        <time>2025-10-26T12:35:45Z</time>
      </trkpt>
      <trkpt lat="43.50617" lon="6.6941">
        <ele>146.8</ele>
        <time>2025-10-26T12:35:46Z</time>
      </trkpt>
      <trkpt lat="43.50617" lon="6.69409">
        <ele>146.9</ele>
        <time>2025-10-26T12:35:47Z</time>
      </trkpt>
      <trkpt lat="43.50617" lon="6.69408">
        <ele>146.9</ele>
        <time>2025-10-26T12:35:48Z</time>
      </trkpt>
      <trkpt lat="43.50616" lon="6.69406">
        <ele>146.9</ele>
        <time>2025-10-26T12:35:49Z</time>
      </trkpt>
      <trkpt lat="43.50616" lon="6.69405">
        <ele>146.9</ele>
        <time>2025-10-26T12:35:50Z</time>
      </trkpt>
      <trkpt lat="43.50616" lon="6.69403">
        <ele>146.8</ele>
        <time>2025-10-26T12:35:51Z</time>
      </trkpt>
      <trkpt lat="43.50615" lon="6.69402">
        <ele>146.8</ele>
        <time>2025-10-26T12:35:52Z</time>
      </trkpt>
      <trkpt lat="43.50615" lon="6.69401">
        <ele>146.8</ele>
        <time>2025-10-26T12:35:53Z</time>
      </trkpt>
      <trkpt lat="43.50615" lon="6.69399">
        <ele>146.8</ele>
        <time>2025-10-26T12:35:54Z</time>
      </trkpt>
      <trkpt lat="43.50614" lon="6.69398">
        <ele>146.8</ele>
        <time>2025-10-26T12:35:55Z</time>
      </trkpt>
      <trkpt lat="43.50614" lon="6.69396">
        <ele>146.8</ele>
        <time>2025-10-26T12:35:56Z</time>
      </trkpt>
      <trkpt lat="43.50613" lon="6.69394">
        <ele>146.8</ele>
        <time>2025-10-26T12:35:57Z</time>
      </trkpt>
      <trkpt lat="43.50613" lon="6.69393">
        <ele>146.9</ele>
        <time>2025-10-26T12:35:58Z</time>
      </trkpt>
      <trkpt lat="43.50612" lon="6.69392">
        <ele>146.9</ele>
        <time>2025-10-26T12:35:59Z</time>
      </trkpt>
      <trkpt lat="43.50612" lon="6.69391">
        <ele>147</ele>
        <time>2025-10-26T12:36:00Z</time>
      </trkpt>
      <trkpt lat="43.50612" lon="6.6939">
        <ele>147</ele>
        <time>2025-10-26T12:36:01Z</time>
      </trkpt>
      <trkpt lat="43.50612" lon="6.6939">
        <ele>147</ele>
        <time>2025-10-26T12:36:02Z</time>
      </trkpt>
      <trkpt lat="43.50612" lon="6.6939">
        <ele>147</ele>
        <time>2025-10-26T12:36:03Z</time>
      </trkpt>
      <trkpt lat="43.50612" lon="6.6939">
        <ele>147</ele>
        <time>2025-10-26T12:36:04Z</time>
      </trkpt>
      <trkpt lat="43.50611" lon="6.6939">
        <ele>147</ele>
        <time>2025-10-26T12:36:05Z</time>
      </trkpt>
      <trkpt lat="43.50611" lon="6.6939">
        <ele>147</ele>
        <time>2025-10-26T12:36:06Z</time>
      </trkpt>
      <trkpt lat="43.50611" lon="6.6939">
        <ele>146.9</ele>
        <time>2025-10-26T12:36:07Z</time>
      </trkpt>
      <trkpt lat="43.50611" lon="6.6939">
        <ele>146.9</ele>
        <time>2025-10-26T12:36:08Z</time>
      </trkpt>
      <trkpt lat="43.50611" lon="6.6939">
        <ele>146.8</ele>
        <time>2025-10-26T12:36:09Z</time>
      </trkpt>
      <trkpt lat="43.5061" lon="6.69389">
        <ele>146.8</ele>
        <time>2025-10-26T12:36:10Z</time>
      </trkpt>
      <trkpt lat="43.5061" lon="6.69389">
        <ele>146.8</ele>
        <time>2025-10-26T12:36:11Z</time>
      </trkpt>
      <trkpt lat="43.5061" lon="6.69389">
        <ele>146.8</ele>
        <time>2025-10-26T12:36:12Z</time>
      </trkpt>
      <trkpt lat="43.5061" lon="6.69389">
        <ele>146.9</ele>
        <time>2025-10-26T12:36:13Z</time>
      </trkpt>
      <trkpt lat="43.5061" lon="6.69388">
        <ele>147</ele>
        <time>2025-10-26T12:36:14Z</time>
      </trkpt>
      <trkpt lat="43.50609" lon="6.69388">
        <ele>147</ele>
        <time>2025-10-26T12:36:15Z</time>
      </trkpt>
      <trkpt lat="43.50609" lon="6.69387">
        <ele>147.1</ele>
        <time>2025-10-26T12:36:16Z</time>
      </trkpt>
      <trkpt lat="43.50609" lon="6.69387">
        <ele>147.1</ele>
        <time>2025-10-26T12:36:17Z</time>
      </trkpt>
      <trkpt lat="43.50608" lon="6.69386">
        <ele>147</ele>
        <time>2025-10-26T12:36:18Z</time>
      </trkpt>
      <trkpt lat="43.50607" lon="6.69386">
        <ele>147</ele>
        <time>2025-10-26T12:36:19Z</time>
      </trkpt>
      <trkpt lat="43.50606" lon="6.69385">
        <ele>147</ele>
        <time>2025-10-26T12:36:20Z</time>
      </trkpt>
      <trkpt lat="43.50605" lon="6.69384">
        <ele>147</ele>
        <time>2025-10-26T12:36:21Z</time>
      </trkpt>
      <trkpt lat="43.50604" lon="6.69384">
        <ele>147</ele>
        <time>2025-10-26T12:36:22Z</time>
      </trkpt>
      <trkpt lat="43.50603" lon="6.69383">
        <ele>147</ele>
        <time>2025-10-26T12:36:23Z</time>
      </trkpt>
      <trkpt lat="43.50602" lon="6.69382">
        <ele>147</ele>
        <time>2025-10-26T12:36:24Z</time>
      </trkpt>
      <trkpt lat="43.50601" lon="6.69382">
        <ele>147</ele>
        <time>2025-10-26T12:36:25Z</time>
      </trkpt>
      <trkpt lat="43.506" lon="6.69381">
        <ele>147</ele>
        <time>2025-10-26T12:36:26Z</time>
      </trkpt>
      <trkpt lat="43.506" lon="6.69381">
        <ele>146.9</ele>
        <time>2025-10-26T12:36:27Z</time>
      </trkpt>
      <trkpt lat="43.50599" lon="6.6938">
        <ele>146.8</ele>
        <time>2025-10-26T12:36:28Z</time>
      </trkpt>
      <trkpt lat="43.50597" lon="6.6938">
        <ele>146.7</ele>
        <time>2025-10-26T12:36:29Z</time>
      </trkpt>
      <trkpt lat="43.50596" lon="6.69379">
        <ele>146.7</ele>
        <time>2025-10-26T12:36:30Z</time>
      </trkpt>
      <trkpt lat="43.50596" lon="6.69378">
        <ele>146.6</ele>
        <time>2025-10-26T12:36:31Z</time>
      </trkpt>
      <trkpt lat="43.50595" lon="6.69378">
        <ele>146.5</ele>
        <time>2025-10-26T12:36:32Z</time>
      </trkpt>
      <trkpt lat="43.50595" lon="6.69377">
        <ele>146.4</ele>
        <time>2025-10-26T12:36:33Z</time>
      </trkpt>
      <trkpt lat="43.50594" lon="6.69376">
        <ele>146.3</ele>
        <time>2025-10-26T12:36:34Z</time>
      </trkpt>
      <trkpt lat="43.50594" lon="6.69375">
        <ele>146.2</ele>
        <time>2025-10-26T12:36:35Z</time>
      </trkpt>
      <trkpt lat="43.50593" lon="6.69373">
        <ele>146.2</ele>
        <time>2025-10-26T12:36:36Z</time>
      </trkpt>
      <trkpt lat="43.50593" lon="6.69372">
        <ele>146.1</ele>
        <time>2025-10-26T12:36:37Z</time>
      </trkpt>
      <trkpt lat="43.50593" lon="6.69371">
        <ele>146.1</ele>
        <time>2025-10-26T12:36:38Z</time>
      </trkpt>
      <trkpt lat="43.50592" lon="6.6937">
        <ele>146.1</ele>
        <time>2025-10-26T12:36:39Z</time>
      </trkpt>
      <trkpt lat="43.50592" lon="6.6937">
        <ele>146.1</ele>
        <time>2025-10-26T12:36:40Z</time>
      </trkpt>
      <trkpt lat="43.50592" lon="6.69369">
        <ele>146.1</ele>
        <time>2025-10-26T12:36:41Z</time>
      </trkpt>
      <trkpt lat="43.50591" lon="6.69369">
        <ele>146</ele>
        <time>2025-10-26T12:36:42Z</time>
      </trkpt>
      <trkpt lat="43.50591" lon="6.69368">
        <ele>146</ele>
        <time>2025-10-26T12:36:43Z</time>
      </trkpt>
      <trkpt lat="43.5059" lon="6.69366">
        <ele>145.8</ele>
        <time>2025-10-26T12:36:44Z</time>
      </trkpt>
      <trkpt lat="43.50589" lon="6.69365">
        <ele>145.7</ele>
        <time>2025-10-26T12:36:45Z</time>
      </trkpt>
      <trkpt lat="43.50588" lon="6.69364">
        <ele>145.6</ele>
        <time>2025-10-26T12:36:46Z</time>
      </trkpt>
      <trkpt lat="43.50587" lon="6.69363">
        <ele>145.5</ele>
        <time>2025-10-26T12:36:47Z</time>
      </trkpt>
      <trkpt lat="43.50586" lon="6.69362">
        <ele>145.4</ele>
        <time>2025-10-26T12:36:48Z</time>
      </trkpt>
      <trkpt lat="43.50586" lon="6.69362">
        <ele>145.4</ele>
        <time>2025-10-26T12:36:49Z</time>
      </trkpt>
      <trkpt lat="43.50585" lon="6.6936">
        <ele>145.3</ele>
        <time>2025-10-26T12:36:50Z</time>
      </trkpt>
      <trkpt lat="43.50584" lon="6.69359">
        <ele>145.3</ele>
        <time>2025-10-26T12:36:51Z</time>
      </trkpt>
      <trkpt lat="43.50584" lon="6.69358">
        <ele>145.2</ele>
        <time>2025-10-26T12:36:52Z</time>
      </trkpt>
      <trkpt lat="43.50584" lon="6.69357">
        <ele>145.2</ele>
        <time>2025-10-26T12:36:53Z</time>
      </trkpt>
      <trkpt lat="43.50583" lon="6.69355">
        <ele>145.1</ele>
        <time>2025-10-26T12:36:54Z</time>
      </trkpt>
      <trkpt lat="43.50583" lon="6.69354">
        <ele>145.1</ele>
        <time>2025-10-26T12:36:55Z</time>
      </trkpt>
      <trkpt lat="43.50582" lon="6.69353">
        <ele>145.1</ele>
        <time>2025-10-26T12:36:56Z</time>
      </trkpt>
      <trkpt lat="43.50582" lon="6.69351">
        <ele>145</ele>
        <time>2025-10-26T12:36:57Z</time>
      </trkpt>
      <trkpt lat="43.50581" lon="6.6935">
        <ele>144.9</ele>
        <time>2025-10-26T12:36:58Z</time>
      </trkpt>
      <trkpt lat="43.50581" lon="6.6935">
        <ele>144.9</ele>
        <time>2025-10-26T12:36:59Z</time>
      </trkpt>
      <trkpt lat="43.50581" lon="6.6935">
        <ele>145</ele>
        <time>2025-10-26T12:37:00Z</time>
      </trkpt>
      <trkpt lat="43.50581" lon="6.6935">
        <ele>145.1</ele>
        <time>2025-10-26T12:37:01Z</time>
      </trkpt>
      <trkpt lat="43.50581" lon="6.6935">
        <ele>145.2</ele>
        <time>2025-10-26T12:37:02Z</time>
      </trkpt>
      <trkpt lat="43.50581" lon="6.6935">
        <ele>145.3</ele>
        <time>2025-10-26T12:37:03Z</time>
      </trkpt>
      <trkpt lat="43.50581" lon="6.69349">
        <ele>145.2</ele>
        <time>2025-10-26T12:37:04Z</time>
      </trkpt>
      <trkpt lat="43.5058" lon="6.69349">
        <ele>145.1</ele>
        <time>2025-10-26T12:37:05Z</time>
      </trkpt>
      <trkpt lat="43.5058" lon="6.69349">
        <ele>144.9</ele>
        <time>2025-10-26T12:37:06Z</time>
      </trkpt>
      <trkpt lat="43.5058" lon="6.69348">
        <ele>144.8</ele>
        <time>2025-10-26T12:37:07Z</time>
      </trkpt>
      <trkpt lat="43.5058" lon="6.69348">
        <ele>144.6</ele>
        <time>2025-10-26T12:37:08Z</time>
      </trkpt>
      <trkpt lat="43.50579" lon="6.69346">
        <ele>144.5</ele>
        <time>2025-10-26T12:37:09Z</time>
      </trkpt>
      <trkpt lat="43.50578" lon="6.69346">
        <ele>144.3</ele>
        <time>2025-10-26T12:37:10Z</time>
      </trkpt>
      <trkpt lat="43.50578" lon="6.69345">
        <ele>144.1</ele>
        <time>2025-10-26T12:37:11Z</time>
      </trkpt>
      <trkpt lat="43.50577" lon="6.69344">
        <ele>144</ele>
        <time>2025-10-26T12:37:12Z</time>
      </trkpt>
      <trkpt lat="43.50577" lon="6.69343">
        <ele>144</ele>
        <time>2025-10-26T12:37:13Z</time>
      </trkpt>
      <trkpt lat="43.50576" lon="6.69342">
        <ele>143.9</ele>
        <time>2025-10-26T12:37:14Z</time>
      </trkpt>
      <trkpt lat="43.50576" lon="6.69341">
        <ele>143.9</ele>
        <time>2025-10-26T12:37:15Z</time>
      </trkpt>
      <trkpt lat="43.50576" lon="6.69339">
        <ele>143.8</ele>
        <time>2025-10-26T12:37:16Z</time>
      </trkpt>
      <trkpt lat="43.50575" lon="6.69338">
        <ele>143.8</ele>
        <time>2025-10-26T12:37:17Z</time>
      </trkpt>
      <trkpt lat="43.50575" lon="6.69337">
        <ele>143.7</ele>
        <time>2025-10-26T12:37:18Z</time>
      </trkpt>
      <trkpt lat="43.50574" lon="6.69336">
        <ele>143.6</ele>
        <time>2025-10-26T12:37:19Z</time>
      </trkpt>
      <trkpt lat="43.50573" lon="6.69335">
        <ele>143.6</ele>
        <time>2025-10-26T12:37:20Z</time>
      </trkpt>
      <trkpt lat="43.50572" lon="6.69334">
        <ele>143.5</ele>
        <time>2025-10-26T12:37:21Z</time>
      </trkpt>
      <trkpt lat="43.50572" lon="6.69333">
        <ele>143.4</ele>
        <time>2025-10-26T12:37:22Z</time>
      </trkpt>
      <trkpt lat="43.50571" lon="6.69333">
        <ele>143.3</ele>
        <time>2025-10-26T12:37:23Z</time>
      </trkpt>
      <trkpt lat="43.50571" lon="6.69331">
        <ele>143.2</ele>
        <time>2025-10-26T12:37:24Z</time>
      </trkpt>
      <trkpt lat="43.5057" lon="6.6933">
        <ele>143</ele>
        <time>2025-10-26T12:37:25Z</time>
      </trkpt>
      <trkpt lat="43.5057" lon="6.69328">
        <ele>142.9</ele>
        <time>2025-10-26T12:37:26Z</time>
      </trkpt>
      <trkpt lat="43.50569" lon="6.69327">
        <ele>142.9</ele>
        <time>2025-10-26T12:37:27Z</time>
      </trkpt>
      <trkpt lat="43.50569" lon="6.69326">
        <ele>142.8</ele>
        <time>2025-10-26T12:37:28Z</time>
      </trkpt>
      <trkpt lat="43.50568" lon="6.69325">
        <ele>142.7</ele>
        <time>2025-10-26T12:37:29Z</time>
      </trkpt>
      <trkpt lat="43.50567" lon="6.69324">
        <ele>142.6</ele>
        <time>2025-10-26T12:37:30Z</time>
      </trkpt>
      <trkpt lat="43.50567" lon="6.69323">
        <ele>142.5</ele>
        <time>2025-10-26T12:37:31Z</time>
      </trkpt>
      <trkpt lat="43.50566" lon="6.69321">
        <ele>142.4</ele>
        <time>2025-10-26T12:37:32Z</time>
      </trkpt>
      <trkpt lat="43.50566" lon="6.6932">
        <ele>142.2</ele>
        <time>2025-10-26T12:37:33Z</time>
      </trkpt>
      <trkpt lat="43.50565" lon="6.69319">
        <ele>142</ele>
        <time>2025-10-26T12:37:34Z</time>
      </trkpt>
      <trkpt lat="43.50565" lon="6.69317">
        <ele>141.8</ele>
        <time>2025-10-26T12:37:35Z</time>
      </trkpt>
      <trkpt lat="43.50564" lon="6.69316">
        <ele>141.7</ele>
        <time>2025-10-26T12:37:36Z</time>
      </trkpt>
      <trkpt lat="43.50563" lon="6.69315">
        <ele>141.5</ele>
        <time>2025-10-26T12:37:37Z</time>
      </trkpt>
      <trkpt lat="43.50563" lon="6.69314">
        <ele>141.4</ele>
        <time>2025-10-26T12:37:38Z</time>
      </trkpt>
      <trkpt lat="43.50562" lon="6.69313">
        <ele>141.2</ele>
        <time>2025-10-26T12:37:39Z</time>
      </trkpt>
      <trkpt lat="43.50562" lon="6.69312">
        <ele>141.1</ele>
        <time>2025-10-26T12:37:40Z</time>
      </trkpt>
      <trkpt lat="43.50561" lon="6.69311">
        <ele>141.1</ele>
        <time>2025-10-26T12:37:41Z</time>
      </trkpt>
      <trkpt lat="43.5056" lon="6.6931">
        <ele>141.2</ele>
        <time>2025-10-26T12:37:42Z</time>
      </trkpt>
      <trkpt lat="43.5056" lon="6.69309">
        <ele>141.4</ele>
        <time>2025-10-26T12:37:43Z</time>
      </trkpt>
      <trkpt lat="43.50559" lon="6.69307">
        <ele>141.5</ele>
        <time>2025-10-26T12:37:44Z</time>
      </trkpt>
      <trkpt lat="43.50559" lon="6.69307">
        <ele>141.4</ele>
        <time>2025-10-26T12:37:45Z</time>
      </trkpt>
      <trkpt lat="43.50558" lon="6.69306">
        <ele>141.4</ele>
        <time>2025-10-26T12:37:46Z</time>
      </trkpt>
      <trkpt lat="43.50558" lon="6.69305">
        <ele>141.4</ele>
        <time>2025-10-26T12:37:47Z</time>
      </trkpt>
      <trkpt lat="43.50558" lon="6.69305">
        <ele>141.3</ele>
        <time>2025-10-26T12:37:48Z</time>
      </trkpt>
      <trkpt lat="43.50557" lon="6.69304">
        <ele>141.3</ele>
        <time>2025-10-26T12:37:49Z</time>
      </trkpt>
      <trkpt lat="43.50557" lon="6.69303">
        <ele>141.2</ele>
        <time>2025-10-26T12:37:50Z</time>
      </trkpt>
      <trkpt lat="43.50556" lon="6.69303">
        <ele>141</ele>
        <time>2025-10-26T12:37:51Z</time>
      </trkpt>
      <trkpt lat="43.50555" lon="6.69302">
        <ele>140.9</ele>
        <time>2025-10-26T12:37:52Z</time>
      </trkpt>
      <trkpt lat="43.50555" lon="6.69301">
        <ele>140.7</ele>
        <time>2025-10-26T12:37:53Z</time>
      </trkpt>
      <trkpt lat="43.50555" lon="6.693">
        <ele>140.5</ele>
        <time>2025-10-26T12:37:54Z</time>
      </trkpt>
      <trkpt lat="43.50554" lon="6.69299">
        <ele>140.5</ele>
        <time>2025-10-26T12:37:55Z</time>
      </trkpt>
      <trkpt lat="43.50554" lon="6.69298">
        <ele>140.5</ele>
        <time>2025-10-26T12:37:56Z</time>
      </trkpt>
      <trkpt lat="43.50553" lon="6.69297">
        <ele>140.5</ele>
        <time>2025-10-26T12:37:57Z</time>
      </trkpt>
      <trkpt lat="43.50553" lon="6.69296">
        <ele>140.7</ele>
        <time>2025-10-26T12:37:58Z</time>
      </trkpt>
      <trkpt lat="43.50553" lon="6.69295">
        <ele>140.8</ele>
        <time>2025-10-26T12:37:59Z</time>
      </trkpt>
      <trkpt lat="43.50552" lon="6.69294">
        <ele>141.2</ele>
        <time>2025-10-26T12:38:00Z</time>
      </trkpt>
      <trkpt lat="43.50552" lon="6.69292">
        <ele>140.9</ele>
        <time>2025-10-26T12:38:01Z</time>
      </trkpt>
      <trkpt lat="43.50552" lon="6.69291">
        <ele>140.7</ele>
        <time>2025-10-26T12:38:02Z</time>
      </trkpt>
      <trkpt lat="43.50552" lon="6.6929">
        <ele>140.5</ele>
        <time>2025-10-26T12:38:03Z</time>
      </trkpt>
      <trkpt lat="43.50551" lon="6.69289">
        <ele>140.2</ele>
        <time>2025-10-26T12:38:04Z</time>
      </trkpt>
      <trkpt lat="43.50551" lon="6.69288">
        <ele>140</ele>
        <time>2025-10-26T12:38:05Z</time>
      </trkpt>
      <trkpt lat="43.50551" lon="6.69286">
        <ele>139.9</ele>
        <time>2025-10-26T12:38:06Z</time>
      </trkpt>
      <trkpt lat="43.5055" lon="6.69285">
        <ele>139.8</ele>
        <time>2025-10-26T12:38:07Z</time>
      </trkpt>
      <trkpt lat="43.5055" lon="6.69284">
        <ele>139.7</ele>
        <time>2025-10-26T12:38:08Z</time>
      </trkpt>
      <trkpt lat="43.50549" lon="6.69282">
        <ele>139.7</ele>
        <time>2025-10-26T12:38:09Z</time>
      </trkpt>
      <trkpt lat="43.50549" lon="6.69281">
        <ele>139.5</ele>
        <time>2025-10-26T12:38:10Z</time>
      </trkpt>
      <trkpt lat="43.50548" lon="6.6928">
        <ele>139.4</ele>
        <time>2025-10-26T12:38:11Z</time>
      </trkpt>
      <trkpt lat="43.50548" lon="6.69279">
        <ele>139.3</ele>
        <time>2025-10-26T12:38:12Z</time>
      </trkpt>
      <trkpt lat="43.50547" lon="6.69278">
        <ele>139.1</ele>
        <time>2025-10-26T12:38:13Z</time>
      </trkpt>
      <trkpt lat="43.50546" lon="6.69278">
        <ele>139</ele>
        <time>2025-10-26T12:38:14Z</time>
      </trkpt>
      <trkpt lat="43.50545" lon="6.69277">
        <ele>138.9</ele>
        <time>2025-10-26T12:38:15Z</time>
      </trkpt>
      <trkpt lat="43.50544" lon="6.69276">
        <ele>138.7</ele>
        <time>2025-10-26T12:38:16Z</time>
      </trkpt>
      <trkpt lat="43.50544" lon="6.69275">
        <ele>138.5</ele>
        <time>2025-10-26T12:38:17Z</time>
      </trkpt>
      <trkpt lat="43.50543" lon="6.69274">
        <ele>138.2</ele>
        <time>2025-10-26T12:38:18Z</time>
      </trkpt>
      <trkpt lat="43.50542" lon="6.69273">
        <ele>138.2</ele>
        <time>2025-10-26T12:38:19Z</time>
      </trkpt>
      <trkpt lat="43.50541" lon="6.69273">
        <ele>138.1</ele>
        <time>2025-10-26T12:38:20Z</time>
      </trkpt>
      <trkpt lat="43.50541" lon="6.69272">
        <ele>138</ele>
        <time>2025-10-26T12:38:21Z</time>
      </trkpt>
      <trkpt lat="43.5054" lon="6.69272">
        <ele>137.8</ele>
        <time>2025-10-26T12:38:22Z</time>
      </trkpt>
      <trkpt lat="43.50539" lon="6.69272">
        <ele>137.7</ele>
        <time>2025-10-26T12:38:23Z</time>
      </trkpt>
      <trkpt lat="43.50538" lon="6.69271">
        <ele>137.6</ele>
        <time>2025-10-26T12:38:24Z</time>
      </trkpt>
      <trkpt lat="43.50537" lon="6.69271">
        <ele>137.6</ele>
        <time>2025-10-26T12:38:25Z</time>
      </trkpt>
      <trkpt lat="43.50537" lon="6.6927">
        <ele>137.5</ele>
        <time>2025-10-26T12:38:26Z</time>
      </trkpt>
      <trkpt lat="43.50536" lon="6.69269">
        <ele>137.4</ele>
        <time>2025-10-26T12:38:27Z</time>
      </trkpt>
      <trkpt lat="43.50535" lon="6.69268">
        <ele>137.3</ele>
        <time>2025-10-26T12:38:28Z</time>
      </trkpt>
      <trkpt lat="43.50534" lon="6.69267">
        <ele>137.2</ele>
        <time>2025-10-26T12:38:29Z</time>
      </trkpt>
      <trkpt lat="43.50534" lon="6.69265">
        <ele>137</ele>
        <time>2025-10-26T12:38:30Z</time>
      </trkpt>
      <trkpt lat="43.50533" lon="6.69264">
        <ele>137</ele>
        <time>2025-10-26T12:38:31Z</time>
      </trkpt>
      <trkpt lat="43.50532" lon="6.69263">
        <ele>136.9</ele>
        <time>2025-10-26T12:38:32Z</time>
      </trkpt>
      <trkpt lat="43.50532" lon="6.69262">
        <ele>136.8</ele>
        <time>2025-10-26T12:38:33Z</time>
      </trkpt>
      <trkpt lat="43.50531" lon="6.69261">
        <ele>136.8</ele>
        <time>2025-10-26T12:38:34Z</time>
      </trkpt>
      <trkpt lat="43.5053" lon="6.6926">
        <ele>136.7</ele>
        <time>2025-10-26T12:38:35Z</time>
      </trkpt>
      <trkpt lat="43.50529" lon="6.6926">
        <ele>136.6</ele>
        <time>2025-10-26T12:38:36Z</time>
      </trkpt>
      <trkpt lat="43.50529" lon="6.69259">
        <ele>136.4</ele>
        <time>2025-10-26T12:38:37Z</time>
      </trkpt>
      <trkpt lat="43.50528" lon="6.69259">
        <ele>136.3</ele>
        <time>2025-10-26T12:38:38Z</time>
      </trkpt>
      <trkpt lat="43.50527" lon="6.69258">
        <ele>136.2</ele>
        <time>2025-10-26T12:38:39Z</time>
      </trkpt>
      <trkpt lat="43.50526" lon="6.69258">
        <ele>135.8</ele>
        <time>2025-10-26T12:38:40Z</time>
      </trkpt>
      <trkpt lat="43.50526" lon="6.69258">
        <ele>135.5</ele>
        <time>2025-10-26T12:38:41Z</time>
      </trkpt>
      <trkpt lat="43.50525" lon="6.69257">
        <ele>135.3</ele>
        <time>2025-10-26T12:38:42Z</time>
      </trkpt>
      <trkpt lat="43.50524" lon="6.69256">
        <ele>135</ele>
        <time>2025-10-26T12:38:43Z</time>
      </trkpt>
      <trkpt lat="43.50523" lon="6.69256">
        <ele>134.7</ele>
        <time>2025-10-26T12:38:44Z</time>
      </trkpt>
      <trkpt lat="43.50522" lon="6.69255">
        <ele>134.4</ele>
        <time>2025-10-26T12:38:45Z</time>
      </trkpt>
      <trkpt lat="43.50521" lon="6.69253">
        <ele>134</ele>
        <time>2025-10-26T12:38:46Z</time>
      </trkpt>
      <trkpt lat="43.50521" lon="6.69252">
        <ele>133.8</ele>
        <time>2025-10-26T12:38:47Z</time>
      </trkpt>
      <trkpt lat="43.5052" lon="6.69251">
        <ele>133.6</ele>
        <time>2025-10-26T12:38:48Z</time>
      </trkpt>
      <trkpt lat="43.50519" lon="6.6925">
        <ele>133.5</ele>
        <time>2025-10-26T12:38:49Z</time>
      </trkpt>
      <trkpt lat="43.50518" lon="6.69249">
        <ele>133.4</ele>
        <time>2025-10-26T12:38:50Z</time>
      </trkpt>
      <trkpt lat="43.50517" lon="6.69249">
        <ele>133.2</ele>
        <time>2025-10-26T12:38:51Z</time>
      </trkpt>
      <trkpt lat="43.50517" lon="6.69247">
        <ele>133</ele>
        <time>2025-10-26T12:38:52Z</time>
      </trkpt>
      <trkpt lat="43.50516" lon="6.69246">
        <ele>132.9</ele>
        <time>2025-10-26T12:38:53Z</time>
      </trkpt>
      <trkpt lat="43.50516" lon="6.69245">
        <ele>132.7</ele>
        <time>2025-10-26T12:38:54Z</time>
      </trkpt>
      <trkpt lat="43.50515" lon="6.69244">
        <ele>132.5</ele>
        <time>2025-10-26T12:38:55Z</time>
      </trkpt>
      <trkpt lat="43.50514" lon="6.69243">
        <ele>132.3</ele>
        <time>2025-10-26T12:38:56Z</time>
      </trkpt>
      <trkpt lat="43.50514" lon="6.69242">
        <ele>132.1</ele>
        <time>2025-10-26T12:38:57Z</time>
      </trkpt>
      <trkpt lat="43.50513" lon="6.6924">
        <ele>131.9</ele>
        <time>2025-10-26T12:38:58Z</time>
      </trkpt>
      <trkpt lat="43.50513" lon="6.69239">
        <ele>131.8</ele>
        <time>2025-10-26T12:38:59Z</time>
      </trkpt>
      <trkpt lat="43.50513" lon="6.69238">
        <ele>131.7</ele>
        <time>2025-10-26T12:39:00Z</time>
      </trkpt>
      <trkpt lat="43.50512" lon="6.69237">
        <ele>131.5</ele>
        <time>2025-10-26T12:39:01Z</time>
      </trkpt>
      <trkpt lat="43.50511" lon="6.69236">
        <ele>131.3</ele>
        <time>2025-10-26T12:39:02Z</time>
      </trkpt>
      <trkpt lat="43.50511" lon="6.69234">
        <ele>131.1</ele>
        <time>2025-10-26T12:39:03Z</time>
      </trkpt>
      <trkpt lat="43.50511" lon="6.69233">
        <ele>131</ele>
        <time>2025-10-26T12:39:04Z</time>
      </trkpt>
      <trkpt lat="43.5051" lon="6.69232">
        <ele>130.9</ele>
        <time>2025-10-26T12:39:05Z</time>
      </trkpt>
      <trkpt lat="43.5051" lon="6.69231">
        <ele>130.7</ele>
        <time>2025-10-26T12:39:06Z</time>
      </trkpt>
      <trkpt lat="43.50509" lon="6.69229">
        <ele>130.6</ele>
        <time>2025-10-26T12:39:07Z</time>
      </trkpt>
      <trkpt lat="43.50509" lon="6.69229">
        <ele>130.5</ele>
        <time>2025-10-26T12:39:08Z</time>
      </trkpt>
      <trkpt lat="43.50508" lon="6.69228">
        <ele>130.5</ele>
        <time>2025-10-26T12:39:09Z</time>
      </trkpt>
      <trkpt lat="43.50508" lon="6.69227">
        <ele>130.4</ele>
        <time>2025-10-26T12:39:10Z</time>
      </trkpt>
      <trkpt lat="43.50507" lon="6.69226">
        <ele>130.3</ele>
        <time>2025-10-26T12:39:11Z</time>
      </trkpt>
      <trkpt lat="43.50507" lon="6.69225">
        <ele>130</ele>
        <time>2025-10-26T12:39:12Z</time>
      </trkpt>
      <trkpt lat="43.50506" lon="6.69224">
        <ele>129.8</ele>
        <time>2025-10-26T12:39:13Z</time>
      </trkpt>
      <trkpt lat="43.50506" lon="6.69223">
        <ele>129.7</ele>
        <time>2025-10-26T12:39:14Z</time>
      </trkpt>
      <trkpt lat="43.50506" lon="6.69222">
        <ele>129.4</ele>
        <time>2025-10-26T12:39:15Z</time>
      </trkpt>
      <trkpt lat="43.50506" lon="6.69221">
        <ele>129.3</ele>
        <time>2025-10-26T12:39:16Z</time>
      </trkpt>
      <trkpt lat="43.50505" lon="6.69221">
        <ele>129.1</ele>
        <time>2025-10-26T12:39:17Z</time>
      </trkpt>
      <trkpt lat="43.50504" lon="6.6922">
        <ele>128.9</ele>
        <time>2025-10-26T12:39:18Z</time>
      </trkpt>
      <trkpt lat="43.50504" lon="6.69218">
        <ele>128.8</ele>
        <time>2025-10-26T12:39:19Z</time>
      </trkpt>
      <trkpt lat="43.50503" lon="6.69217">
        <ele>128.6</ele>
        <time>2025-10-26T12:39:20Z</time>
      </trkpt>
      <trkpt lat="43.50503" lon="6.69215">
        <ele>128.4</ele>
        <time>2025-10-26T12:39:21Z</time>
      </trkpt>
      <trkpt lat="43.50502" lon="6.69214">
        <ele>128.2</ele>
        <time>2025-10-26T12:39:22Z</time>
      </trkpt>
      <trkpt lat="43.50502" lon="6.69213">
        <ele>128.1</ele>
        <time>2025-10-26T12:39:23Z</time>
      </trkpt>
      <trkpt lat="43.50502" lon="6.69212">
        <ele>127.9</ele>
        <time>2025-10-26T12:39:24Z</time>
      </trkpt>
      <trkpt lat="43.50502" lon="6.69211">
        <ele>127.7</ele>
        <time>2025-10-26T12:39:25Z</time>
      </trkpt>
      <trkpt lat="43.50501" lon="6.69209">
        <ele>127.6</ele>
        <time>2025-10-26T12:39:26Z</time>
      </trkpt>
      <trkpt lat="43.50501" lon="6.69208">
        <ele>127.4</ele>
        <time>2025-10-26T12:39:27Z</time>
      </trkpt>
      <trkpt lat="43.50501" lon="6.69207">
        <ele>127.2</ele>
        <time>2025-10-26T12:39:28Z</time>
      </trkpt>
      <trkpt lat="43.505" lon="6.69205">
        <ele>127.1</ele>
        <time>2025-10-26T12:39:29Z</time>
      </trkpt>
      <trkpt lat="43.505" lon="6.69204">
        <ele>126.9</ele>
        <time>2025-10-26T12:39:30Z</time>
      </trkpt>
      <trkpt lat="43.505" lon="6.69203">
        <ele>126.8</ele>
        <time>2025-10-26T12:39:31Z</time>
      </trkpt>
      <trkpt lat="43.505" lon="6.69201">
        <ele>126.7</ele>
        <time>2025-10-26T12:39:32Z</time>
      </trkpt>
      <trkpt lat="43.50499" lon="6.692">
        <ele>126.4</ele>
        <time>2025-10-26T12:39:33Z</time>
      </trkpt>
      <trkpt lat="43.50499" lon="6.69199">
        <ele>126.4</ele>
        <time>2025-10-26T12:39:34Z</time>
      </trkpt>
      <trkpt lat="43.50499" lon="6.69198">
        <ele>126.4</ele>
        <time>2025-10-26T12:39:35Z</time>
      </trkpt>
      <trkpt lat="43.50499" lon="6.69196">
        <ele>126.5</ele>
        <time>2025-10-26T12:39:36Z</time>
      </trkpt>
      <trkpt lat="43.50499" lon="6.69194">
        <ele>126.3</ele>
        <time>2025-10-26T12:39:37Z</time>
      </trkpt>
      <trkpt lat="43.50499" lon="6.69193">
        <ele>126.2</ele>
        <time>2025-10-26T12:39:38Z</time>
      </trkpt>
      <trkpt lat="43.50499" lon="6.69192">
        <ele>126.1</ele>
        <time>2025-10-26T12:39:39Z</time>
      </trkpt>
      <trkpt lat="43.50499" lon="6.69191">
        <ele>125.9</ele>
        <time>2025-10-26T12:39:40Z</time>
      </trkpt>
      <trkpt lat="43.50499" lon="6.69189">
        <ele>125.7</ele>
        <time>2025-10-26T12:39:41Z</time>
      </trkpt>
      <trkpt lat="43.50499" lon="6.69188">
        <ele>125.3</ele>
        <time>2025-10-26T12:39:42Z</time>
      </trkpt>
      <trkpt lat="43.50499" lon="6.69188">
        <ele>125.1</ele>
        <time>2025-10-26T12:39:43Z</time>
      </trkpt>
      <trkpt lat="43.50499" lon="6.69187">
        <ele>125</ele>
        <time>2025-10-26T12:39:44Z</time>
      </trkpt>
      <trkpt lat="43.50499" lon="6.69186">
        <ele>124.8</ele>
        <time>2025-10-26T12:39:45Z</time>
      </trkpt>
      <trkpt lat="43.50499" lon="6.69185">
        <ele>124.6</ele>
        <time>2025-10-26T12:39:46Z</time>
      </trkpt>
      <trkpt lat="43.50499" lon="6.69184">
        <ele>124.4</ele>
        <time>2025-10-26T12:39:47Z</time>
      </trkpt>
      <trkpt lat="43.50498" lon="6.69183">
        <ele>124.1</ele>
        <time>2025-10-26T12:39:48Z</time>
      </trkpt>
      <trkpt lat="43.50498" lon="6.69182">
        <ele>123.8</ele>
        <time>2025-10-26T12:39:49Z</time>
      </trkpt>
      <trkpt lat="43.50498" lon="6.69181">
        <ele>123.5</ele>
        <time>2025-10-26T12:39:50Z</time>
      </trkpt>
      <trkpt lat="43.50497" lon="6.6918">
        <ele>123.3</ele>
        <time>2025-10-26T12:39:51Z</time>
      </trkpt>
      <trkpt lat="43.50497" lon="6.69179">
        <ele>123.3</ele>
        <time>2025-10-26T12:39:52Z</time>
      </trkpt>
      <trkpt lat="43.50496" lon="6.69178">
        <ele>123.1</ele>
        <time>2025-10-26T12:39:53Z</time>
      </trkpt>
      <trkpt lat="43.50495" lon="6.69177">
        <ele>123</ele>
        <time>2025-10-26T12:39:54Z</time>
      </trkpt>
      <trkpt lat="43.50495" lon="6.69176">
        <ele>122.9</ele>
        <time>2025-10-26T12:39:55Z</time>
      </trkpt>
      <trkpt lat="43.50495" lon="6.69175">
        <ele>122.8</ele>
        <time>2025-10-26T12:39:56Z</time>
      </trkpt>
      <trkpt lat="43.50495" lon="6.69174">
        <ele>122.6</ele>
        <time>2025-10-26T12:39:57Z</time>
      </trkpt>
      <trkpt lat="43.50495" lon="6.69173">
        <ele>122.4</ele>
        <time>2025-10-26T12:39:58Z</time>
      </trkpt>
      <trkpt lat="43.50495" lon="6.69172">
        <ele>122.2</ele>
        <time>2025-10-26T12:39:59Z</time>
      </trkpt>
      <trkpt lat="43.50494" lon="6.69171">
        <ele>122</ele>
        <time>2025-10-26T12:40:00Z</time>
      </trkpt>
      <trkpt lat="43.50494" lon="6.6917">
        <ele>121.9</ele>
        <time>2025-10-26T12:40:01Z</time>
      </trkpt>
      <trkpt lat="43.50494" lon="6.69169">
        <ele>121.7</ele>
        <time>2025-10-26T12:40:02Z</time>
      </trkpt>
      <trkpt lat="43.50494" lon="6.69168">
        <ele>121.7</ele>
        <time>2025-10-26T12:40:03Z</time>
      </trkpt>
      <trkpt lat="43.50493" lon="6.69167">
        <ele>121.6</ele>
        <time>2025-10-26T12:40:04Z</time>
      </trkpt>
      <trkpt lat="43.50493" lon="6.69167">
        <ele>121.4</ele>
        <time>2025-10-26T12:40:05Z</time>
      </trkpt>
      <trkpt lat="43.50492" lon="6.69166">
        <ele>121.3</ele>
        <time>2025-10-26T12:40:06Z</time>
      </trkpt>
      <trkpt lat="43.50492" lon="6.69165">
        <ele>121.1</ele>
        <time>2025-10-26T12:40:07Z</time>
      </trkpt>
      <trkpt lat="43.50491" lon="6.69164">
        <ele>121</ele>
        <time>2025-10-26T12:40:08Z</time>
      </trkpt>
      <trkpt lat="43.50491" lon="6.69163">
        <ele>120.8</ele>
        <time>2025-10-26T12:40:09Z</time>
      </trkpt>
      <trkpt lat="43.5049" lon="6.69162">
        <ele>120.7</ele>
        <time>2025-10-26T12:40:10Z</time>
      </trkpt>
      <trkpt lat="43.5049" lon="6.69161">
        <ele>120.5</ele>
        <time>2025-10-26T12:40:11Z</time>
      </trkpt>
      <trkpt lat="43.50489" lon="6.6916">
        <ele>120.4</ele>
        <time>2025-10-26T12:40:12Z</time>
      </trkpt>
      <trkpt lat="43.50489" lon="6.69159">
        <ele>120.3</ele>
        <time>2025-10-26T12:40:13Z</time>
      </trkpt>
      <trkpt lat="43.50488" lon="6.69158">
        <ele>120</ele>
        <time>2025-10-26T12:40:14Z</time>
      </trkpt>
      <trkpt lat="43.50488" lon="6.69156">
        <ele>119.8</ele>
        <time>2025-10-26T12:40:15Z</time>
      </trkpt>
      <trkpt lat="43.50488" lon="6.69156">
        <ele>119.7</ele>
        <time>2025-10-26T12:40:16Z</time>
      </trkpt>
      <trkpt lat="43.50488" lon="6.69155">
        <ele>119.4</ele>
        <time>2025-10-26T12:40:17Z</time>
      </trkpt>
      <trkpt lat="43.50488" lon="6.69154">
        <ele>119</ele>
        <time>2025-10-26T12:40:18Z</time>
      </trkpt>
      <trkpt lat="43.50488" lon="6.69152">
        <ele>118.7</ele>
        <time>2025-10-26T12:40:19Z</time>
      </trkpt>
      <trkpt lat="43.50487" lon="6.69151">
        <ele>118.4</ele>
        <time>2025-10-26T12:40:20Z</time>
      </trkpt>
      <trkpt lat="43.50487" lon="6.6915">
        <ele>118.2</ele>
        <time>2025-10-26T12:40:21Z</time>
      </trkpt>
      <trkpt lat="43.50487" lon="6.69148">
        <ele>118.1</ele>
        <time>2025-10-26T12:40:22Z</time>
      </trkpt>
      <trkpt lat="43.50487" lon="6.69146">
        <ele>118.1</ele>
        <time>2025-10-26T12:40:23Z</time>
      </trkpt>
      <trkpt lat="43.50487" lon="6.69145">
        <ele>118</ele>
        <time>2025-10-26T12:40:24Z</time>
      </trkpt>
      <trkpt lat="43.50487" lon="6.69144">
        <ele>117.9</ele>
        <time>2025-10-26T12:40:25Z</time>
      </trkpt>
      <trkpt lat="43.50487" lon="6.69143">
        <ele>117.8</ele>
        <time>2025-10-26T12:40:26Z</time>
      </trkpt>
      <trkpt lat="43.50487" lon="6.69142">
        <ele>117.7</ele>
        <time>2025-10-26T12:40:27Z</time>
      </trkpt>
      <trkpt lat="43.50486" lon="6.69141">
        <ele>117.4</ele>
        <time>2025-10-26T12:40:28Z</time>
      </trkpt>
      <trkpt lat="43.50486" lon="6.6914">
        <ele>117.1</ele>
        <time>2025-10-26T12:40:29Z</time>
      </trkpt>
      <trkpt lat="43.50485" lon="6.69139">
        <ele>116.8</ele>
        <time>2025-10-26T12:40:30Z</time>
      </trkpt>
      <trkpt lat="43.50485" lon="6.69137">
        <ele>116.6</ele>
        <time>2025-10-26T12:40:31Z</time>
      </trkpt>
      <trkpt lat="43.50485" lon="6.69137">
        <ele>116.4</ele>
        <time>2025-10-26T12:40:32Z</time>
      </trkpt>
      <trkpt lat="43.50485" lon="6.69136">
        <ele>116.2</ele>
        <time>2025-10-26T12:40:33Z</time>
      </trkpt>
      <trkpt lat="43.50484" lon="6.69135">
        <ele>116</ele>
        <time>2025-10-26T12:40:34Z</time>
      </trkpt>
      <trkpt lat="43.50484" lon="6.69133">
        <ele>115.9</ele>
        <time>2025-10-26T12:40:35Z</time>
      </trkpt>
      <trkpt lat="43.50482" lon="6.69131">
        <ele>115.5</ele>
        <time>2025-10-26T12:40:36Z</time>
      </trkpt>
      <trkpt lat="43.50482" lon="6.6913">
        <ele>115.5</ele>
        <time>2025-10-26T12:40:37Z</time>
      </trkpt>
      <trkpt lat="43.50481" lon="6.69129">
        <ele>115.2</ele>
        <time>2025-10-26T12:40:38Z</time>
      </trkpt>
      <trkpt lat="43.5048" lon="6.69128">
        <ele>114.9</ele>
        <time>2025-10-26T12:40:39Z</time>
      </trkpt>
      <trkpt lat="43.5048" lon="6.69127">
        <ele>114.9</ele>
        <time>2025-10-26T12:40:40Z</time>
      </trkpt>
      <trkpt lat="43.5048" lon="6.69126">
        <ele>114.3</ele>
        <time>2025-10-26T12:40:41Z</time>
      </trkpt>
      <trkpt lat="43.50479" lon="6.69124">
        <ele>113.8</ele>
        <time>2025-10-26T12:40:42Z</time>
      </trkpt>
      <trkpt lat="43.50478" lon="6.69123">
        <ele>113.4</ele>
        <time>2025-10-26T12:40:43Z</time>
      </trkpt>
      <trkpt lat="43.50478" lon="6.69123">
        <ele>113.2</ele>
        <time>2025-10-26T12:40:44Z</time>
      </trkpt>
      <trkpt lat="43.50477" lon="6.69122">
        <ele>113.6</ele>
        <time>2025-10-26T12:40:45Z</time>
      </trkpt>
      <trkpt lat="43.50477" lon="6.69121">
        <ele>113.4</ele>
        <time>2025-10-26T12:40:46Z</time>
      </trkpt>
      <trkpt lat="43.50475" lon="6.6912">
        <ele>113.1</ele>
        <time>2025-10-26T12:40:47Z</time>
      </trkpt>
      <trkpt lat="43.50475" lon="6.6912">
        <ele>112.8</ele>
        <time>2025-10-26T12:40:48Z</time>
      </trkpt>
      <trkpt lat="43.50474" lon="6.6912">
        <ele>112.5</ele>
        <time>2025-10-26T12:40:49Z</time>
      </trkpt>
      <trkpt lat="43.50473" lon="6.69121">
        <ele>112.3</ele>
        <time>2025-10-26T12:40:50Z</time>
      </trkpt>
      <trkpt lat="43.50472" lon="6.69121">
        <ele>112.1</ele>
        <time>2025-10-26T12:40:51Z</time>
      </trkpt>
      <trkpt lat="43.50471" lon="6.69121">
        <ele>111.9</ele>
        <time>2025-10-26T12:40:52Z</time>
      </trkpt>
      <trkpt lat="43.5047" lon="6.69121">
        <ele>111.7</ele>
        <time>2025-10-26T12:40:53Z</time>
      </trkpt>
      <trkpt lat="43.5047" lon="6.69121">
        <ele>111.4</ele>
        <time>2025-10-26T12:40:54Z</time>
      </trkpt>
      <trkpt lat="43.50469" lon="6.69122">
        <ele>111.2</ele>
        <time>2025-10-26T12:40:55Z</time>
      </trkpt>
      <trkpt lat="43.50469" lon="6.69122">
        <ele>111</ele>
        <time>2025-10-26T12:40:56Z</time>
      </trkpt>
      <trkpt lat="43.50468" lon="6.69122">
        <ele>110.8</ele>
        <time>2025-10-26T12:40:57Z</time>
      </trkpt>
      <trkpt lat="43.50468" lon="6.69122">
        <ele>110.6</ele>
        <time>2025-10-26T12:40:58Z</time>
      </trkpt>
      <trkpt lat="43.50466" lon="6.69122">
        <ele>110.4</ele>
        <time>2025-10-26T12:40:59Z</time>
      </trkpt>
      <trkpt lat="43.50465" lon="6.69122">
        <ele>110.1</ele>
        <time>2025-10-26T12:41:00Z</time>
      </trkpt>
      <trkpt lat="43.50464" lon="6.69123">
        <ele>109.8</ele>
        <time>2025-10-26T12:41:01Z</time>
      </trkpt>
      <trkpt lat="43.50463" lon="6.69122">
        <ele>109.5</ele>
        <time>2025-10-26T12:41:02Z</time>
      </trkpt>
      <trkpt lat="43.50462" lon="6.69123">
        <ele>109.2</ele>
        <time>2025-10-26T12:41:03Z</time>
      </trkpt>
      <trkpt lat="43.50462" lon="6.69123">
        <ele>108.9</ele>
        <time>2025-10-26T12:41:04Z</time>
      </trkpt>
      <trkpt lat="43.5046" lon="6.69123">
        <ele>108.5</ele>
        <time>2025-10-26T12:41:05Z</time>
      </trkpt>
      <trkpt lat="43.50459" lon="6.69123">
        <ele>108.2</ele>
        <time>2025-10-26T12:41:06Z</time>
      </trkpt>
      <trkpt lat="43.50458" lon="6.69122">
        <ele>108</ele>
        <time>2025-10-26T12:41:07Z</time>
      </trkpt>
      <trkpt lat="43.50457" lon="6.69122">
        <ele>107.9</ele>
        <time>2025-10-26T12:41:08Z</time>
      </trkpt>
      <trkpt lat="43.50456" lon="6.69123">
        <ele>107.7</ele>
        <time>2025-10-26T12:41:09Z</time>
      </trkpt>
      <trkpt lat="43.50455" lon="6.69122">
        <ele>107.5</ele>
        <time>2025-10-26T12:41:10Z</time>
      </trkpt>
      <trkpt lat="43.50454" lon="6.69123">
        <ele>107.4</ele>
        <time>2025-10-26T12:41:11Z</time>
      </trkpt>
      <trkpt lat="43.50453" lon="6.69123">
        <ele>107.1</ele>
        <time>2025-10-26T12:41:12Z</time>
      </trkpt>
      <trkpt lat="43.50452" lon="6.69123">
        <ele>106.8</ele>
        <time>2025-10-26T12:41:13Z</time>
      </trkpt>
      <trkpt lat="43.50451" lon="6.69122">
        <ele>106.6</ele>
        <time>2025-10-26T12:41:14Z</time>
      </trkpt>
      <trkpt lat="43.5045" lon="6.69122">
        <ele>106.3</ele>
        <time>2025-10-26T12:41:15Z</time>
      </trkpt>
      <trkpt lat="43.50449" lon="6.69122">
        <ele>106.1</ele>
        <time>2025-10-26T12:41:16Z</time>
      </trkpt>
      <trkpt lat="43.50449" lon="6.69122">
        <ele>105.9</ele>
        <time>2025-10-26T12:41:17Z</time>
      </trkpt>
      <trkpt lat="43.50448" lon="6.69122">
        <ele>105.6</ele>
        <time>2025-10-26T12:41:18Z</time>
      </trkpt>
      <trkpt lat="43.50447" lon="6.69122">
        <ele>105.4</ele>
        <time>2025-10-26T12:41:19Z</time>
      </trkpt>
      <trkpt lat="43.50446" lon="6.69121">
        <ele>105.1</ele>
        <time>2025-10-26T12:41:20Z</time>
      </trkpt>
      <trkpt lat="43.50445" lon="6.6912">
        <ele>104.8</ele>
        <time>2025-10-26T12:41:21Z</time>
      </trkpt>
      <trkpt lat="43.50445" lon="6.6912">
        <ele>104.6</ele>
        <time>2025-10-26T12:41:22Z</time>
      </trkpt>
      <trkpt lat="43.50444" lon="6.6912">
        <ele>104.4</ele>
        <time>2025-10-26T12:41:23Z</time>
      </trkpt>
      <trkpt lat="43.50443" lon="6.69119">
        <ele>104.2</ele>
        <time>2025-10-26T12:41:24Z</time>
      </trkpt>
      <trkpt lat="43.50442" lon="6.69118">
        <ele>103.9</ele>
        <time>2025-10-26T12:41:25Z</time>
      </trkpt>
      <trkpt lat="43.50442" lon="6.69118">
        <ele>103.7</ele>
        <time>2025-10-26T12:41:26Z</time>
      </trkpt>
      <trkpt lat="43.50441" lon="6.69118">
        <ele>103.5</ele>
        <time>2025-10-26T12:41:27Z</time>
      </trkpt>
      <trkpt lat="43.50439" lon="6.69118">
        <ele>103.3</ele>
        <time>2025-10-26T12:41:28Z</time>
      </trkpt>
      <trkpt lat="43.50439" lon="6.69118">
        <ele>103.3</ele>
        <time>2025-10-26T12:41:29Z</time>
      </trkpt>
      <trkpt lat="43.50438" lon="6.69117">
        <ele>103.2</ele>
        <time>2025-10-26T12:41:30Z</time>
      </trkpt>
      <trkpt lat="43.50437" lon="6.69117">
        <ele>103.2</ele>
        <time>2025-10-26T12:41:31Z</time>
      </trkpt>
      <trkpt lat="43.50436" lon="6.69116">
        <ele>103.1</ele>
        <time>2025-10-26T12:41:32Z</time>
      </trkpt>
      <trkpt lat="43.50436" lon="6.69116">
        <ele>103</ele>
        <time>2025-10-26T12:41:33Z</time>
      </trkpt>
      <trkpt lat="43.50435" lon="6.69115">
        <ele>102.9</ele>
        <time>2025-10-26T12:41:34Z</time>
      </trkpt>
      <trkpt lat="43.50434" lon="6.69115">
        <ele>102.7</ele>
        <time>2025-10-26T12:41:35Z</time>
      </trkpt>
      <trkpt lat="43.50433" lon="6.69115">
        <ele>102.5</ele>
        <time>2025-10-26T12:41:36Z</time>
      </trkpt>
      <trkpt lat="43.50433" lon="6.69114">
        <ele>102.4</ele>
        <time>2025-10-26T12:41:37Z</time>
      </trkpt>
      <trkpt lat="43.50432" lon="6.69113">
        <ele>102.2</ele>
        <time>2025-10-26T12:41:38Z</time>
      </trkpt>
      <trkpt lat="43.50432" lon="6.69113">
        <ele>102.1</ele>
        <time>2025-10-26T12:41:39Z</time>
      </trkpt>
      <trkpt lat="43.50431" lon="6.69112">
        <ele>102.4</ele>
        <time>2025-10-26T12:41:40Z</time>
      </trkpt>
      <trkpt lat="43.5043" lon="6.69112">
        <ele>102.1</ele>
        <time>2025-10-26T12:41:41Z</time>
      </trkpt>
      <trkpt lat="43.5043" lon="6.69111">
        <ele>101.8</ele>
        <time>2025-10-26T12:41:42Z</time>
      </trkpt>
      <trkpt lat="43.50429" lon="6.69111">
        <ele>101.6</ele>
        <time>2025-10-26T12:41:43Z</time>
      </trkpt>
      <trkpt lat="43.50429" lon="6.69111">
        <ele>101.4</ele>
        <time>2025-10-26T12:41:44Z</time>
      </trkpt>
      <trkpt lat="43.50429" lon="6.69111">
        <ele>101.3</ele>
        <time>2025-10-26T12:41:45Z</time>
      </trkpt>
      <trkpt lat="43.50429" lon="6.6911">
        <ele>101.3</ele>
        <time>2025-10-26T12:41:46Z</time>
      </trkpt>
      <trkpt lat="43.50428" lon="6.69109">
        <ele>101.3</ele>
        <time>2025-10-26T12:41:47Z</time>
      </trkpt>
      <trkpt lat="43.50428" lon="6.69109">
        <ele>101.2</ele>
        <time>2025-10-26T12:41:48Z</time>
      </trkpt>
      <trkpt lat="43.50428" lon="6.69109">
        <ele>101.2</ele>
        <time>2025-10-26T12:41:49Z</time>
      </trkpt>
      <trkpt lat="43.50427" lon="6.69108">
        <ele>101.1</ele>
        <time>2025-10-26T12:41:50Z</time>
      </trkpt>
      <trkpt lat="43.50427" lon="6.69107">
        <ele>100.9</ele>
        <time>2025-10-26T12:41:51Z</time>
      </trkpt>
      <trkpt lat="43.50427" lon="6.69107">
        <ele>100.7</ele>
        <time>2025-10-26T12:41:52Z</time>
      </trkpt>
      <trkpt lat="43.50426" lon="6.69106">
        <ele>100.6</ele>
        <time>2025-10-26T12:41:53Z</time>
      </trkpt>
      <trkpt lat="43.50425" lon="6.69105">
        <ele>100.5</ele>
        <time>2025-10-26T12:41:54Z</time>
      </trkpt>
      <trkpt lat="43.50425" lon="6.69105">
        <ele>100.3</ele>
        <time>2025-10-26T12:41:55Z</time>
      </trkpt>
      <trkpt lat="43.50424" lon="6.69104">
        <ele>100.2</ele>
        <time>2025-10-26T12:41:56Z</time>
      </trkpt>
      <trkpt lat="43.50424" lon="6.69102">
        <ele>100.1</ele>
        <time>2025-10-26T12:41:57Z</time>
      </trkpt>
      <trkpt lat="43.50423" lon="6.69101">
        <ele>99.9</ele>
        <time>2025-10-26T12:41:58Z</time>
      </trkpt>
      <trkpt lat="43.50422" lon="6.691">
        <ele>99.8</ele>
        <time>2025-10-26T12:41:59Z</time>
      </trkpt>
      <trkpt lat="43.50422" lon="6.69099">
        <ele>99.7</ele>
        <time>2025-10-26T12:42:00Z</time>
      </trkpt>
      <trkpt lat="43.50421" lon="6.69098">
        <ele>99.5</ele>
        <time>2025-10-26T12:42:01Z</time>
      </trkpt>
      <trkpt lat="43.5042" lon="6.69098">
        <ele>99.3</ele>
        <time>2025-10-26T12:42:02Z</time>
      </trkpt>
      <trkpt lat="43.50419" lon="6.69097">
        <ele>99.3</ele>
        <time>2025-10-26T12:42:03Z</time>
      </trkpt>
      <trkpt lat="43.50418" lon="6.69098">
        <ele>99.2</ele>
        <time>2025-10-26T12:42:04Z</time>
      </trkpt>
      <trkpt lat="43.50416" lon="6.69098">
        <ele>99.1</ele>
        <time>2025-10-26T12:42:05Z</time>
      </trkpt>
      <trkpt lat="43.50415" lon="6.69098">
        <ele>99</ele>
        <time>2025-10-26T12:42:06Z</time>
      </trkpt>
      <trkpt lat="43.50414" lon="6.69098">
        <ele>98.9</ele>
        <time>2025-10-26T12:42:07Z</time>
      </trkpt>
      <trkpt lat="43.50413" lon="6.69099">
        <ele>98.8</ele>
        <time>2025-10-26T12:42:08Z</time>
      </trkpt>
      <trkpt lat="43.50412" lon="6.69099">
        <ele>98.6</ele>
        <time>2025-10-26T12:42:09Z</time>
      </trkpt>
      <trkpt lat="43.50411" lon="6.691">
        <ele>98.4</ele>
        <time>2025-10-26T12:42:10Z</time>
      </trkpt>
      <trkpt lat="43.5041" lon="6.691">
        <ele>98.3</ele>
        <time>2025-10-26T12:42:11Z</time>
      </trkpt>
      <trkpt lat="43.50409" lon="6.69101">
        <ele>98.1</ele>
        <time>2025-10-26T12:42:12Z</time>
      </trkpt>
      <trkpt lat="43.50408" lon="6.69101">
        <ele>98</ele>
        <time>2025-10-26T12:42:13Z</time>
      </trkpt>
      <trkpt lat="43.50408" lon="6.69101">
        <ele>97.9</ele>
        <time>2025-10-26T12:42:14Z</time>
      </trkpt>
      <trkpt lat="43.50407" lon="6.69102">
        <ele>97.8</ele>
        <time>2025-10-26T12:42:15Z</time>
      </trkpt>
      <trkpt lat="43.50406" lon="6.69102">
        <ele>97.8</ele>
        <time>2025-10-26T12:42:16Z</time>
      </trkpt>
      <trkpt lat="43.50406" lon="6.69102">
        <ele>97.7</ele>
        <time>2025-10-26T12:42:17Z</time>
      </trkpt>
      <trkpt lat="43.50405" lon="6.69103">
        <ele>97.6</ele>
        <time>2025-10-26T12:42:18Z</time>
      </trkpt>
      <trkpt lat="43.50404" lon="6.69103">
        <ele>97.6</ele>
        <time>2025-10-26T12:42:19Z</time>
      </trkpt>
      <trkpt lat="43.50404" lon="6.69103">
        <ele>97.5</ele>
        <time>2025-10-26T12:42:20Z</time>
      </trkpt>
      <trkpt lat="43.50403" lon="6.69103">
        <ele>97.4</ele>
        <time>2025-10-26T12:42:21Z</time>
      </trkpt>
      <trkpt lat="43.50403" lon="6.69103">
        <ele>97.4</ele>
        <time>2025-10-26T12:42:22Z</time>
      </trkpt>
      <trkpt lat="43.50403" lon="6.69104">
        <ele>97.5</ele>
        <time>2025-10-26T12:42:23Z</time>
      </trkpt>
      <trkpt lat="43.50403" lon="6.69104">
        <ele>97.6</ele>
        <time>2025-10-26T12:42:24Z</time>
      </trkpt>
      <trkpt lat="43.50403" lon="6.69104">
        <ele>97.6</ele>
        <time>2025-10-26T12:42:25Z</time>
      </trkpt>
      <trkpt lat="43.50403" lon="6.69105">
        <ele>97.7</ele>
        <time>2025-10-26T12:42:26Z</time>
      </trkpt>
      <trkpt lat="43.50403" lon="6.69106">
        <ele>97.7</ele>
        <time>2025-10-26T12:42:27Z</time>
      </trkpt>
      <trkpt lat="43.50403" lon="6.69106">
        <ele>97.6</ele>
        <time>2025-10-26T12:42:28Z</time>
      </trkpt>
      <trkpt lat="43.50403" lon="6.69106">
        <ele>97.6</ele>
        <time>2025-10-26T12:42:29Z</time>
      </trkpt>
      <trkpt lat="43.50403" lon="6.69106">
        <ele>97.6</ele>
        <time>2025-10-26T12:42:30Z</time>
      </trkpt>
      <trkpt lat="43.50403" lon="6.69106">
        <ele>97.6</ele>
        <time>2025-10-26T12:42:31Z</time>
      </trkpt>
      <trkpt lat="43.50403" lon="6.69106">
        <ele>97.6</ele>
        <time>2025-10-26T12:42:32Z</time>
      </trkpt>
      <trkpt lat="43.50403" lon="6.69107">
        <ele>97.5</ele>
        <time>2025-10-26T12:42:33Z</time>
      </trkpt>
      <trkpt lat="43.50403" lon="6.69107">
        <ele>97.5</ele>
        <time>2025-10-26T12:42:34Z</time>
      </trkpt>
      <trkpt lat="43.50403" lon="6.69107">
        <ele>97.4</ele>
        <time>2025-10-26T12:42:35Z</time>
      </trkpt>
      <trkpt lat="43.50402" lon="6.69107">
        <ele>97.3</ele>
        <time>2025-10-26T12:42:36Z</time>
      </trkpt>
      <trkpt lat="43.50402" lon="6.69107">
        <ele>97.3</ele>
        <time>2025-10-26T12:42:37Z</time>
      </trkpt>
      <trkpt lat="43.50403" lon="6.69107">
        <ele>97.3</ele>
        <time>2025-10-26T12:42:38Z</time>
      </trkpt>
      <trkpt lat="43.50403" lon="6.69107">
        <ele>97.2</ele>
        <time>2025-10-26T12:42:39Z</time>
      </trkpt>
      <trkpt lat="43.50403" lon="6.69107">
        <ele>97.2</ele>
        <time>2025-10-26T12:42:40Z</time>
      </trkpt>
      <trkpt lat="43.50404" lon="6.69107">
        <ele>97.2</ele>
        <time>2025-10-26T12:42:41Z</time>
      </trkpt>
      <trkpt lat="43.50404" lon="6.69107">
        <ele>97.2</ele>
        <time>2025-10-26T12:42:42Z</time>
      </trkpt>
      <trkpt lat="43.50404" lon="6.69107">
        <ele>97.2</ele>
        <time>2025-10-26T12:42:43Z</time>
      </trkpt>
      <trkpt lat="43.50404" lon="6.69107">
        <ele>97.2</ele>
        <time>2025-10-26T12:42:44Z</time>
      </trkpt>
      <trkpt lat="43.50404" lon="6.69107">
        <ele>97.2</ele>
        <time>2025-10-26T12:42:45Z</time>
      </trkpt>
      <trkpt lat="43.50404" lon="6.69107">
        <ele>97.2</ele>
        <time>2025-10-26T12:42:46Z</time>
      </trkpt>
      <trkpt lat="43.50404" lon="6.69107">
        <ele>97.2</ele>
        <time>2025-10-26T12:42:47Z</time>
      </trkpt>
      <trkpt lat="43.50404" lon="6.69107">
        <ele>97.2</ele>
        <time>2025-10-26T12:42:48Z</time>
      </trkpt>
      <trkpt lat="43.50404" lon="6.69108">
        <ele>97.2</ele>
        <time>2025-10-26T12:42:49Z</time>
      </trkpt>
      <trkpt lat="43.50404" lon="6.69108">
        <ele>97.2</ele>
        <time>2025-10-26T12:42:50Z</time>
      </trkpt>
      <trkpt lat="43.50404" lon="6.69108">
        <ele>97.2</ele>
        <time>2025-10-26T12:42:51Z</time>
      </trkpt>
      <trkpt lat="43.50404" lon="6.69107">
        <ele>97.2</ele>
        <time>2025-10-26T12:42:52Z</time>
      </trkpt>
      <trkpt lat="43.50404" lon="6.69107">
        <ele>97.3</ele>
        <time>2025-10-26T12:42:53Z</time>
      </trkpt>
      <trkpt lat="43.50404" lon="6.69108">
        <ele>97.4</ele>
        <time>2025-10-26T12:42:54Z</time>
      </trkpt>
      <trkpt lat="43.50404" lon="6.69108">
        <ele>97.3</ele>
        <time>2025-10-26T12:42:55Z</time>
      </trkpt>
      <trkpt lat="43.50404" lon="6.69108">
        <ele>97.2</ele>
        <time>2025-10-26T12:42:56Z</time>
      </trkpt>
      <trkpt lat="43.50404" lon="6.69108">
        <ele>97.1</ele>
        <time>2025-10-26T12:42:57Z</time>
      </trkpt>
      <trkpt lat="43.50404" lon="6.69108">
        <ele>97</ele>
        <time>2025-10-26T12:42:58Z</time>
      </trkpt>
      <trkpt lat="43.50404" lon="6.69108">
        <ele>96.9</ele>
        <time>2025-10-26T12:42:59Z</time>
      </trkpt>
      <trkpt lat="43.50404" lon="6.69108">
        <ele>96.8</ele>
        <time>2025-10-26T12:43:00Z</time>
      </trkpt>
      <trkpt lat="43.50404" lon="6.69108">
        <ele>96.8</ele>
        <time>2025-10-26T12:43:01Z</time>
      </trkpt>
      <trkpt lat="43.50404" lon="6.69108">
        <ele>96.8</ele>
        <time>2025-10-26T12:43:02Z</time>
      </trkpt>
      <trkpt lat="43.50404" lon="6.69109">
        <ele>96.7</ele>
        <time>2025-10-26T12:43:03Z</time>
      </trkpt>
      <trkpt lat="43.50404" lon="6.69109">
        <ele>96.7</ele>
        <time>2025-10-26T12:43:04Z</time>
      </trkpt>
      <trkpt lat="43.50404" lon="6.69109">
        <ele>96.7</ele>
        <time>2025-10-26T12:43:05Z</time>
      </trkpt>
      <trkpt lat="43.50403" lon="6.69109">
        <ele>96.8</ele>
        <time>2025-10-26T12:43:06Z</time>
      </trkpt>
      <trkpt lat="43.50403" lon="6.69109">
        <ele>96.8</ele>
        <time>2025-10-26T12:43:07Z</time>
      </trkpt>
      <trkpt lat="43.50403" lon="6.69109">
        <ele>96.8</ele>
        <time>2025-10-26T12:43:08Z</time>
      </trkpt>
      <trkpt lat="43.50403" lon="6.69109">
        <ele>96.9</ele>
        <time>2025-10-26T12:43:09Z</time>
      </trkpt>
      <trkpt lat="43.50403" lon="6.69109">
        <ele>96.8</ele>
        <time>2025-10-26T12:43:10Z</time>
      </trkpt>
      <trkpt lat="43.50403" lon="6.69109">
        <ele>96.8</ele>
        <time>2025-10-26T12:43:11Z</time>
      </trkpt>
      <trkpt lat="43.50403" lon="6.69109">
        <ele>96.8</ele>
        <time>2025-10-26T12:43:12Z</time>
      </trkpt>
      <trkpt lat="43.50403" lon="6.69109">
        <ele>96.8</ele>
        <time>2025-10-26T12:43:13Z</time>
      </trkpt>
      <trkpt lat="43.50403" lon="6.69109">
        <ele>96.8</ele>
        <time>2025-10-26T12:43:14Z</time>
      </trkpt>
      <trkpt lat="43.50403" lon="6.69109">
        <ele>96.8</ele>
        <time>2025-10-26T12:43:15Z</time>
      </trkpt>
      <trkpt lat="43.50403" lon="6.69109">
        <ele>96.9</ele>
        <time>2025-10-26T12:43:16Z</time>
      </trkpt>
      <trkpt lat="43.50403" lon="6.69109">
        <ele>96.9</ele>
        <time>2025-10-26T12:43:17Z</time>
      </trkpt>
      <trkpt lat="43.50403" lon="6.6911">
        <ele>97</ele>
        <time>2025-10-26T12:43:18Z</time>
      </trkpt>
      <trkpt lat="43.50402" lon="6.6911">
        <ele>97.1</ele>
        <time>2025-10-26T12:43:19Z</time>
      </trkpt>
      <trkpt lat="43.50402" lon="6.6911">
        <ele>97.2</ele>
        <time>2025-10-26T12:43:20Z</time>
      </trkpt>
      <trkpt lat="43.50402" lon="6.6911">
        <ele>97.3</ele>
        <time>2025-10-26T12:43:21Z</time>
      </trkpt>
      <trkpt lat="43.50402" lon="6.6911">
        <ele>97.3</ele>
        <time>2025-10-26T12:43:22Z</time>
      </trkpt>
      <trkpt lat="43.50402" lon="6.6911">
        <ele>97.4</ele>
        <time>2025-10-26T12:43:23Z</time>
      </trkpt>
      <trkpt lat="43.50402" lon="6.6911">
        <ele>97.5</ele>
        <time>2025-10-26T12:43:24Z</time>
      </trkpt>
      <trkpt lat="43.50402" lon="6.6911">
        <ele>97.5</ele>
        <time>2025-10-26T12:43:25Z</time>
      </trkpt>
      <trkpt lat="43.50402" lon="6.6911">
        <ele>97.5</ele>
        <time>2025-10-26T12:43:26Z</time>
      </trkpt>
      <trkpt lat="43.50402" lon="6.6911">
        <ele>97.5</ele>
        <time>2025-10-26T12:43:27Z</time>
      </trkpt>
      <trkpt lat="43.50402" lon="6.6911">
        <ele>97.5</ele>
        <time>2025-10-26T12:43:28Z</time>
      </trkpt>
      <trkpt lat="43.50402" lon="6.6911">
        <ele>97.5</ele>
        <time>2025-10-26T12:43:29Z</time>
      </trkpt>
      <trkpt lat="43.50402" lon="6.6911">
        <ele>97.4</ele>
        <time>2025-10-26T12:43:30Z</time>
      </trkpt>
      <trkpt lat="43.50402" lon="6.6911">
        <ele>97.3</ele>
        <time>2025-10-26T12:43:31Z</time>
      </trkpt>
      <trkpt lat="43.50402" lon="6.6911">
        <ele>97.3</ele>
        <time>2025-10-26T12:43:32Z</time>
      </trkpt>
      <trkpt lat="43.50402" lon="6.6911">
        <ele>97.3</ele>
        <time>2025-10-26T12:43:33Z</time>
      </trkpt>
      <trkpt lat="43.50402" lon="6.6911">
        <ele>97.3</ele>
        <time>2025-10-26T12:43:34Z</time>
      </trkpt>
      <trkpt lat="43.50402" lon="6.6911">
        <ele>97.2</ele>
        <time>2025-10-26T12:43:35Z</time>
      </trkpt>
      <trkpt lat="43.50402" lon="6.6911">
        <ele>97.2</ele>
        <time>2025-10-26T12:43:36Z</time>
      </trkpt>
      <trkpt lat="43.50402" lon="6.6911">
        <ele>97.2</ele>
        <time>2025-10-26T12:43:37Z</time>
      </trkpt>
      <trkpt lat="43.50402" lon="6.6911">
        <ele>97.2</ele>
        <time>2025-10-26T12:43:38Z</time>
      </trkpt>
      <trkpt lat="43.50402" lon="6.6911">
        <ele>97.2</ele>
        <time>2025-10-26T12:43:39Z</time>
      </trkpt>
      <trkpt lat="43.50402" lon="6.6911">
        <ele>97.1</ele>
        <time>2025-10-26T12:43:40Z</time>
      </trkpt>
      <trkpt lat="43.50402" lon="6.6911">
        <ele>97.2</ele>
        <time>2025-10-26T12:43:41Z</time>
      </trkpt>
      <trkpt lat="43.50402" lon="6.6911">
        <ele>97.2</ele>
        <time>2025-10-26T12:43:42Z</time>
      </trkpt>
      <trkpt lat="43.50402" lon="6.6911">
        <ele>97.2</ele>
        <time>2025-10-26T12:43:43Z</time>
      </trkpt>
      <trkpt lat="43.50401" lon="6.6911">
        <ele>97.2</ele>
        <time>2025-10-26T12:43:44Z</time>
      </trkpt>
      <trkpt lat="43.50401" lon="6.6911">
        <ele>97.2</ele>
        <time>2025-10-26T12:43:45Z</time>
      </trkpt>
      <trkpt lat="43.50401" lon="6.6911">
        <ele>97.1</ele>
        <time>2025-10-26T12:43:46Z</time>
      </trkpt>
      <trkpt lat="43.50401" lon="6.6911">
        <ele>97.1</ele>
        <time>2025-10-26T12:43:47Z</time>
      </trkpt>
      <trkpt lat="43.50401" lon="6.6911">
        <ele>97.2</ele>
        <time>2025-10-26T12:43:48Z</time>
      </trkpt>
      <trkpt lat="43.50401" lon="6.6911">
        <ele>97.2</ele>
        <time>2025-10-26T12:43:49Z</time>
      </trkpt>
      <trkpt lat="43.50401" lon="6.6911">
        <ele>97.2</ele>
        <time>2025-10-26T12:43:50Z</time>
      </trkpt>
      <trkpt lat="43.50401" lon="6.6911">
        <ele>97.2</ele>
        <time>2025-10-26T12:43:51Z</time>
      </trkpt>
      <trkpt lat="43.50401" lon="6.6911">
        <ele>97.2</ele>
        <time>2025-10-26T12:43:52Z</time>
      </trkpt>
      <trkpt lat="43.50402" lon="6.6911">
        <ele>97.3</ele>
        <time>2025-10-26T12:43:53Z</time>
      </trkpt>
      <trkpt lat="43.50402" lon="6.6911">
        <ele>97.3</ele>
        <time>2025-10-26T12:43:54Z</time>
      </trkpt>
      <trkpt lat="43.50402" lon="6.6911">
        <ele>97.4</ele>
        <time>2025-10-26T12:43:55Z</time>
      </trkpt>
      <trkpt lat="43.50402" lon="6.6911">
        <ele>97.4</ele>
        <time>2025-10-26T12:43:56Z</time>
      </trkpt>
      <trkpt lat="43.50402" lon="6.6911">
        <ele>97.4</ele>
        <time>2025-10-26T12:43:57Z</time>
      </trkpt>
      <trkpt lat="43.50402" lon="6.6911">
        <ele>97.5</ele>
        <time>2025-10-26T12:43:58Z</time>
      </trkpt>
      <trkpt lat="43.50402" lon="6.6911">
        <ele>97.5</ele>
        <time>2025-10-26T12:43:59Z</time>
      </trkpt>
      <trkpt lat="43.50402" lon="6.6911">
        <ele>97.5</ele>
        <time>2025-10-26T12:44:00Z</time>
      </trkpt>
      <trkpt lat="43.50402" lon="6.6911">
        <ele>97.5</ele>
        <time>2025-10-26T12:44:01Z</time>
      </trkpt>
      <trkpt lat="43.50402" lon="6.6911">
        <ele>97.5</ele>
        <time>2025-10-26T12:44:02Z</time>
      </trkpt>
      <trkpt lat="43.50402" lon="6.6911">
        <ele>97.5</ele>
        <time>2025-10-26T12:44:03Z</time>
      </trkpt>
      <trkpt lat="43.50402" lon="6.6911">
        <ele>97.4</ele>
        <time>2025-10-26T12:44:04Z</time>
      </trkpt>
      <trkpt lat="43.50402" lon="6.6911">
        <ele>97.4</ele>
        <time>2025-10-26T12:44:05Z</time>
      </trkpt>
      <trkpt lat="43.50402" lon="6.6911">
        <ele>97.4</ele>
        <time>2025-10-26T12:44:06Z</time>
      </trkpt>
      <trkpt lat="43.50402" lon="6.6911">
        <ele>97.3</ele>
        <time>2025-10-26T12:44:07Z</time>
      </trkpt>
      <trkpt lat="43.50402" lon="6.6911">
        <ele>97.3</ele>
        <time>2025-10-26T12:44:08Z</time>
      </trkpt>
      <trkpt lat="43.50402" lon="6.6911">
        <ele>97.2</ele>
        <time>2025-10-26T12:44:09Z</time>
      </trkpt>
      <trkpt lat="43.50402" lon="6.6911">
        <ele>97.2</ele>
        <time>2025-10-26T12:44:10Z</time>
      </trkpt>
      <trkpt lat="43.50402" lon="6.6911">
        <ele>97.2</ele>
        <time>2025-10-26T12:44:11Z</time>
      </trkpt>
      <trkpt lat="43.50402" lon="6.6911">
        <ele>97.4</ele>
        <time>2025-10-26T12:44:12Z</time>
      </trkpt>
      <trkpt lat="43.50402" lon="6.6911">
        <ele>97.3</ele>
        <time>2025-10-26T12:44:13Z</time>
      </trkpt>
      <trkpt lat="43.50402" lon="6.6911">
        <ele>97.4</ele>
        <time>2025-10-26T12:44:14Z</time>
      </trkpt>
      <trkpt lat="43.50402" lon="6.6911">
        <ele>97.4</ele>
        <time>2025-10-26T12:44:15Z</time>
      </trkpt>
      <trkpt lat="43.50402" lon="6.6911">
        <ele>97.4</ele>
        <time>2025-10-26T12:44:16Z</time>
      </trkpt>
      <trkpt lat="43.50402" lon="6.6911">
        <ele>97.4</ele>
        <time>2025-10-26T12:44:17Z</time>
      </trkpt>
      <trkpt lat="43.50402" lon="6.6911">
        <ele>97.4</ele>
        <time>2025-10-26T12:44:18Z</time>
      </trkpt>
      <trkpt lat="43.50402" lon="6.6911">
        <ele>97.4</ele>
        <time>2025-10-26T12:44:19Z</time>
      </trkpt>
      <trkpt lat="43.50402" lon="6.6911">
        <ele>97.4</ele>
        <time>2025-10-26T12:44:20Z</time>
      </trkpt>
      <trkpt lat="43.50402" lon="6.6911">
        <ele>97.4</ele>
        <time>2025-10-26T12:44:21Z</time>
      </trkpt>
      <trkpt lat="43.50402" lon="6.6911">
        <ele>97.3</ele>
        <time>2025-10-26T12:44:22Z</time>
      </trkpt>
      <trkpt lat="43.50402" lon="6.6911">
        <ele>97.3</ele>
        <time>2025-10-26T12:44:23Z</time>
      </trkpt>
      <trkpt lat="43.50402" lon="6.6911">
        <ele>97.3</ele>
        <time>2025-10-26T12:44:24Z</time>
      </trkpt>
      <trkpt lat="43.50402" lon="6.6911">
        <ele>97.3</ele>
        <time>2025-10-26T12:44:25Z</time>
      </trkpt>
      <trkpt lat="43.50402" lon="6.6911">
        <ele>97.3</ele>
        <time>2025-10-26T12:44:26Z</time>
      </trkpt>
      <trkpt lat="43.50402" lon="6.6911">
        <ele>97.2</ele>
        <time>2025-10-26T12:44:27Z</time>
      </trkpt>
      <trkpt lat="43.50402" lon="6.6911">
        <ele>97.2</ele>
        <time>2025-10-26T12:44:28Z</time>
      </trkpt>
      <trkpt lat="43.50402" lon="6.6911">
        <ele>97.1</ele>
        <time>2025-10-26T12:44:29Z</time>
      </trkpt>
      <trkpt lat="43.50402" lon="6.6911">
        <ele>97.1</ele>
        <time>2025-10-26T12:44:30Z</time>
      </trkpt>
      <trkpt lat="43.50402" lon="6.6911">
        <ele>97.1</ele>
        <time>2025-10-26T12:44:31Z</time>
      </trkpt>
      <trkpt lat="43.50402" lon="6.6911">
        <ele>97.1</ele>
        <time>2025-10-26T12:44:32Z</time>
      </trkpt>
      <trkpt lat="43.50402" lon="6.6911">
        <ele>97.1</ele>
        <time>2025-10-26T12:44:33Z</time>
      </trkpt>
      <trkpt lat="43.50402" lon="6.6911">
        <ele>97.1</ele>
        <time>2025-10-26T12:44:34Z</time>
      </trkpt>
      <trkpt lat="43.50402" lon="6.6911">
        <ele>97</ele>
        <time>2025-10-26T12:44:35Z</time>
      </trkpt>
      <trkpt lat="43.50402" lon="6.6911">
        <ele>97</ele>
        <time>2025-10-26T12:44:36Z</time>
      </trkpt>
      <trkpt lat="43.50402" lon="6.6911">
        <ele>96.9</ele>
        <time>2025-10-26T12:44:37Z</time>
      </trkpt>
      <trkpt lat="43.50402" lon="6.6911">
        <ele>96.8</ele>
        <time>2025-10-26T12:44:38Z</time>
      </trkpt>
      <trkpt lat="43.50402" lon="6.6911">
        <ele>96.8</ele>
        <time>2025-10-26T12:44:39Z</time>
      </trkpt>
      <trkpt lat="43.50402" lon="6.6911">
        <ele>96.7</ele>
        <time>2025-10-26T12:44:40Z</time>
      </trkpt>
      <trkpt lat="43.50402" lon="6.6911">
        <ele>96.6</ele>
        <time>2025-10-26T12:44:41Z</time>
      </trkpt>
      <trkpt lat="43.50402" lon="6.6911">
        <ele>96.5</ele>
        <time>2025-10-26T12:44:42Z</time>
      </trkpt>
      <trkpt lat="43.50402" lon="6.6911">
        <ele>96.4</ele>
        <time>2025-10-26T12:44:43Z</time>
      </trkpt>
      <trkpt lat="43.50402" lon="6.6911">
        <ele>96.3</ele>
        <time>2025-10-26T12:44:44Z</time>
      </trkpt>
      <trkpt lat="43.50402" lon="6.6911">
        <ele>96.3</ele>
        <time>2025-10-26T12:44:45Z</time>
      </trkpt>
      <trkpt lat="43.50402" lon="6.6911">
        <ele>96.3</ele>
        <time>2025-10-26T12:44:46Z</time>
      </trkpt>
      <trkpt lat="43.50403" lon="6.6911">
        <ele>96.4</ele>
        <time>2025-10-26T12:44:47Z</time>
      </trkpt>
      <trkpt lat="43.50403" lon="6.6911">
        <ele>96.4</ele>
        <time>2025-10-26T12:44:48Z</time>
      </trkpt>
      <trkpt lat="43.50403" lon="6.6911">
        <ele>96.5</ele>
        <time>2025-10-26T12:44:49Z</time>
      </trkpt>
      <trkpt lat="43.50403" lon="6.6911">
        <ele>96.6</ele>
        <time>2025-10-26T12:44:50Z</time>
      </trkpt>
      <trkpt lat="43.50403" lon="6.69111">
        <ele>96.6</ele>
        <time>2025-10-26T12:44:51Z</time>
      </trkpt>
      <trkpt lat="43.50403" lon="6.69111">
        <ele>96.7</ele>
        <time>2025-10-26T12:44:52Z</time>
      </trkpt>
      <trkpt lat="43.50402" lon="6.69111">
        <ele>96.7</ele>
        <time>2025-10-26T12:44:53Z</time>
      </trkpt>
      <trkpt lat="43.50402" lon="6.69111">
        <ele>96.6</ele>
        <time>2025-10-26T12:44:54Z</time>
      </trkpt>
      <trkpt lat="43.50402" lon="6.69111">
        <ele>96.6</ele>
        <time>2025-10-26T12:44:55Z</time>
      </trkpt>
      <trkpt lat="43.50402" lon="6.69111">
        <ele>96.4</ele>
        <time>2025-10-26T12:44:56Z</time>
      </trkpt>
      <trkpt lat="43.50402" lon="6.69111">
        <ele>96.2</ele>
        <time>2025-10-26T12:44:57Z</time>
      </trkpt>
      <trkpt lat="43.50403" lon="6.69111">
        <ele>96.1</ele>
        <time>2025-10-26T12:44:58Z</time>
      </trkpt>
      <trkpt lat="43.50403" lon="6.69111">
        <ele>96.1</ele>
        <time>2025-10-26T12:44:59Z</time>
      </trkpt>
      <trkpt lat="43.50403" lon="6.69111">
        <ele>96.1</ele>
        <time>2025-10-26T12:45:00Z</time>
      </trkpt>
      <trkpt lat="43.50403" lon="6.69111">
        <ele>96.1</ele>
        <time>2025-10-26T12:45:01Z</time>
      </trkpt>
      <trkpt lat="43.50403" lon="6.69111">
        <ele>96.1</ele>
        <time>2025-10-26T12:45:02Z</time>
      </trkpt>
      <trkpt lat="43.50403" lon="6.69111">
        <ele>96.1</ele>
        <time>2025-10-26T12:45:03Z</time>
      </trkpt>
      <trkpt lat="43.50403" lon="6.69111">
        <ele>96.2</ele>
        <time>2025-10-26T12:45:04Z</time>
      </trkpt>
      <trkpt lat="43.50403" lon="6.69111">
        <ele>96.2</ele>
        <time>2025-10-26T12:45:05Z</time>
      </trkpt>
      <trkpt lat="43.50403" lon="6.69111">
        <ele>96.3</ele>
        <time>2025-10-26T12:45:06Z</time>
      </trkpt>
      <trkpt lat="43.50403" lon="6.69111">
        <ele>96.4</ele>
        <time>2025-10-26T12:45:07Z</time>
      </trkpt>
      <trkpt lat="43.50403" lon="6.69111">
        <ele>96.5</ele>
        <time>2025-10-26T12:45:08Z</time>
      </trkpt>
      <trkpt lat="43.50403" lon="6.69111">
        <ele>96.5</ele>
        <time>2025-10-26T12:45:09Z</time>
      </trkpt>
      <trkpt lat="43.50403" lon="6.69111">
        <ele>96.6</ele>
        <time>2025-10-26T12:45:10Z</time>
      </trkpt>
      <trkpt lat="43.50403" lon="6.69111">
        <ele>96.6</ele>
        <time>2025-10-26T12:45:11Z</time>
      </trkpt>
      <trkpt lat="43.50403" lon="6.69111">
        <ele>96.6</ele>
        <time>2025-10-26T12:45:12Z</time>
      </trkpt>
      <trkpt lat="43.50403" lon="6.69111">
        <ele>96.6</ele>
        <time>2025-10-26T12:45:13Z</time>
      </trkpt>
      <trkpt lat="43.50403" lon="6.69111">
        <ele>96.5</ele>
        <time>2025-10-26T12:45:14Z</time>
      </trkpt>
      <trkpt lat="43.50403" lon="6.69111">
        <ele>96.6</ele>
        <time>2025-10-26T12:45:15Z</time>
      </trkpt>
      <trkpt lat="43.50403" lon="6.69112">
        <ele>96.6</ele>
        <time>2025-10-26T12:45:16Z</time>
      </trkpt>
      <trkpt lat="43.50403" lon="6.69112">
        <ele>96.6</ele>
        <time>2025-10-26T12:45:17Z</time>
      </trkpt>
      <trkpt lat="43.50403" lon="6.69111">
        <ele>96.6</ele>
        <time>2025-10-26T12:45:18Z</time>
      </trkpt>
      <trkpt lat="43.50403" lon="6.69111">
        <ele>96.6</ele>
        <time>2025-10-26T12:45:19Z</time>
      </trkpt>
      <trkpt lat="43.50403" lon="6.69111">
        <ele>96.5</ele>
        <time>2025-10-26T12:45:20Z</time>
      </trkpt>
      <trkpt lat="43.50403" lon="6.69111">
        <ele>96.5</ele>
        <time>2025-10-26T12:45:21Z</time>
      </trkpt>
      <trkpt lat="43.50403" lon="6.69111">
        <ele>96.5</ele>
        <time>2025-10-26T12:45:22Z</time>
      </trkpt>
      <trkpt lat="43.50403" lon="6.69111">
        <ele>96.5</ele>
        <time>2025-10-26T12:45:23Z</time>
      </trkpt>
      <trkpt lat="43.50403" lon="6.69111">
        <ele>96.5</ele>
        <time>2025-10-26T12:45:24Z</time>
      </trkpt>
      <trkpt lat="43.50403" lon="6.69111">
        <ele>96.4</ele>
        <time>2025-10-26T12:45:25Z</time>
      </trkpt>
      <trkpt lat="43.50403" lon="6.69111">
        <ele>96.4</ele>
        <time>2025-10-26T12:45:26Z</time>
      </trkpt>
      <trkpt lat="43.50403" lon="6.69111">
        <ele>96.4</ele>
        <time>2025-10-26T12:45:27Z</time>
      </trkpt>
      <trkpt lat="43.50403" lon="6.69111">
        <ele>96.4</ele>
        <time>2025-10-26T12:45:28Z</time>
      </trkpt>
      <trkpt lat="43.50403" lon="6.69111">
        <ele>96.4</ele>
        <time>2025-10-26T12:45:29Z</time>
      </trkpt>
      <trkpt lat="43.50403" lon="6.69111">
        <ele>96.4</ele>
        <time>2025-10-26T12:45:30Z</time>
      </trkpt>
      <trkpt lat="43.50403" lon="6.69111">
        <ele>96.4</ele>
        <time>2025-10-26T12:45:31Z</time>
      </trkpt>
      <trkpt lat="43.50403" lon="6.69111">
        <ele>96.4</ele>
        <time>2025-10-26T12:45:32Z</time>
      </trkpt>
      <trkpt lat="43.50403" lon="6.69111">
        <ele>96.3</ele>
        <time>2025-10-26T12:45:33Z</time>
      </trkpt>
      <trkpt lat="43.50403" lon="6.69111">
        <ele>96.3</ele>
        <time>2025-10-26T12:45:34Z</time>
      </trkpt>
      <trkpt lat="43.50403" lon="6.69111">
        <ele>96.2</ele>
        <time>2025-10-26T12:45:35Z</time>
      </trkpt>
      <trkpt lat="43.50403" lon="6.69111">
        <ele>96.1</ele>
        <time>2025-10-26T12:45:36Z</time>
      </trkpt>
      <trkpt lat="43.50403" lon="6.69111">
        <ele>96.1</ele>
        <time>2025-10-26T12:45:37Z</time>
      </trkpt>
      <trkpt lat="43.50403" lon="6.69111">
        <ele>96.1</ele>
        <time>2025-10-26T12:45:38Z</time>
      </trkpt>
      <trkpt lat="43.50403" lon="6.69111">
        <ele>96</ele>
        <time>2025-10-26T12:45:39Z</time>
      </trkpt>
      <trkpt lat="43.50404" lon="6.69111">
        <ele>96</ele>
        <time>2025-10-26T12:45:40Z</time>
      </trkpt>
      <trkpt lat="43.50403" lon="6.69111">
        <ele>95.9</ele>
        <time>2025-10-26T12:45:41Z</time>
      </trkpt>
      <trkpt lat="43.50403" lon="6.69111">
        <ele>95.8</ele>
        <time>2025-10-26T12:45:42Z</time>
      </trkpt>
      <trkpt lat="43.50402" lon="6.69111">
        <ele>95.7</ele>
        <time>2025-10-26T12:45:43Z</time>
      </trkpt>
      <trkpt lat="43.50402" lon="6.6911">
        <ele>95.6</ele>
        <time>2025-10-26T12:45:44Z</time>
      </trkpt>
      <trkpt lat="43.50401" lon="6.6911">
        <ele>95.4</ele>
        <time>2025-10-26T12:45:45Z</time>
      </trkpt>
      <trkpt lat="43.504" lon="6.69109">
        <ele>95.4</ele>
        <time>2025-10-26T12:45:46Z</time>
      </trkpt>
      <trkpt lat="43.504" lon="6.69109">
        <ele>95.2</ele>
        <time>2025-10-26T12:45:47Z</time>
      </trkpt>
      <trkpt lat="43.50399" lon="6.69109">
        <ele>95.1</ele>
        <time>2025-10-26T12:45:48Z</time>
      </trkpt>
      <trkpt lat="43.50398" lon="6.69109">
        <ele>95.1</ele>
        <time>2025-10-26T12:45:49Z</time>
      </trkpt>
      <trkpt lat="43.50397" lon="6.69109">
        <ele>95.3</ele>
        <time>2025-10-26T12:45:50Z</time>
      </trkpt>
      <trkpt lat="43.50397" lon="6.69109">
        <ele>95.4</ele>
        <time>2025-10-26T12:45:51Z</time>
      </trkpt>
      <trkpt lat="43.50396" lon="6.6911">
        <ele>95.4</ele>
        <time>2025-10-26T12:45:52Z</time>
      </trkpt>
      <trkpt lat="43.50395" lon="6.6911">
        <ele>95.4</ele>
        <time>2025-10-26T12:45:53Z</time>
      </trkpt>
      <trkpt lat="43.50394" lon="6.6911">
        <ele>95.4</ele>
        <time>2025-10-26T12:45:54Z</time>
      </trkpt>
      <trkpt lat="43.50393" lon="6.69111">
        <ele>95.3</ele>
        <time>2025-10-26T12:45:55Z</time>
      </trkpt>
      <trkpt lat="43.50392" lon="6.69111">
        <ele>95.3</ele>
        <time>2025-10-26T12:45:56Z</time>
      </trkpt>
      <trkpt lat="43.50391" lon="6.69111">
        <ele>95.2</ele>
        <time>2025-10-26T12:45:57Z</time>
      </trkpt>
      <trkpt lat="43.5039" lon="6.69112">
        <ele>95.1</ele>
        <time>2025-10-26T12:45:58Z</time>
      </trkpt>
      <trkpt lat="43.50389" lon="6.69112">
        <ele>95.2</ele>
        <time>2025-10-26T12:45:59Z</time>
      </trkpt>
      <trkpt lat="43.50389" lon="6.69113">
        <ele>95.2</ele>
        <time>2025-10-26T12:46:00Z</time>
      </trkpt>
      <trkpt lat="43.50389" lon="6.69113">
        <ele>95.2</ele>
        <time>2025-10-26T12:46:01Z</time>
      </trkpt>
      <trkpt lat="43.50388" lon="6.69113">
        <ele>95.1</ele>
        <time>2025-10-26T12:46:02Z</time>
      </trkpt>
      <trkpt lat="43.50387" lon="6.69113">
        <ele>95.1</ele>
        <time>2025-10-26T12:46:03Z</time>
      </trkpt>
      <trkpt lat="43.50386" lon="6.69112">
        <ele>95.1</ele>
        <time>2025-10-26T12:46:04Z</time>
      </trkpt>
      <trkpt lat="43.50385" lon="6.69113">
        <ele>95</ele>
        <time>2025-10-26T12:46:05Z</time>
      </trkpt>
      <trkpt lat="43.50384" lon="6.69113">
        <ele>95</ele>
        <time>2025-10-26T12:46:06Z</time>
      </trkpt>
      <trkpt lat="43.50384" lon="6.69114">
        <ele>94.9</ele>
        <time>2025-10-26T12:46:07Z</time>
      </trkpt>
      <trkpt lat="43.50383" lon="6.69115">
        <ele>94.8</ele>
        <time>2025-10-26T12:46:08Z</time>
      </trkpt>
      <trkpt lat="43.50383" lon="6.69115">
        <ele>94.6</ele>
        <time>2025-10-26T12:46:09Z</time>
      </trkpt>
      <trkpt lat="43.50382" lon="6.69116">
        <ele>94.5</ele>
        <time>2025-10-26T12:46:10Z</time>
      </trkpt>
      <trkpt lat="43.50382" lon="6.69117">
        <ele>94.5</ele>
        <time>2025-10-26T12:46:11Z</time>
      </trkpt>
      <trkpt lat="43.50381" lon="6.69117">
        <ele>94.4</ele>
        <time>2025-10-26T12:46:12Z</time>
      </trkpt>
      <trkpt lat="43.5038" lon="6.69118">
        <ele>94.4</ele>
        <time>2025-10-26T12:46:13Z</time>
      </trkpt>
      <trkpt lat="43.5038" lon="6.69118">
        <ele>94.3</ele>
        <time>2025-10-26T12:46:14Z</time>
      </trkpt>
      <trkpt lat="43.50379" lon="6.69118">
        <ele>94.2</ele>
        <time>2025-10-26T12:46:15Z</time>
      </trkpt>
      <trkpt lat="43.50378" lon="6.69118">
        <ele>94.2</ele>
        <time>2025-10-26T12:46:16Z</time>
      </trkpt>
      <trkpt lat="43.50377" lon="6.69119">
        <ele>94</ele>
        <time>2025-10-26T12:46:17Z</time>
      </trkpt>
      <trkpt lat="43.50376" lon="6.69119">
        <ele>93.9</ele>
        <time>2025-10-26T12:46:18Z</time>
      </trkpt>
      <trkpt lat="43.50376" lon="6.6912">
        <ele>93.8</ele>
        <time>2025-10-26T12:46:19Z</time>
      </trkpt>
      <trkpt lat="43.50375" lon="6.69121">
        <ele>93.8</ele>
        <time>2025-10-26T12:46:20Z</time>
      </trkpt>
      <trkpt lat="43.50375" lon="6.69122">
        <ele>93.8</ele>
        <time>2025-10-26T12:46:21Z</time>
      </trkpt>
      <trkpt lat="43.50374" lon="6.69123">
        <ele>93.8</ele>
        <time>2025-10-26T12:46:22Z</time>
      </trkpt>
      <trkpt lat="43.50373" lon="6.69124">
        <ele>93.9</ele>
        <time>2025-10-26T12:46:23Z</time>
      </trkpt>
      <trkpt lat="43.50371" lon="6.69124">
        <ele>94</ele>
        <time>2025-10-26T12:46:24Z</time>
      </trkpt>
      <trkpt lat="43.50371" lon="6.69125">
        <ele>94.1</ele>
        <time>2025-10-26T12:46:25Z</time>
      </trkpt>
      <trkpt lat="43.5037" lon="6.69126">
        <ele>94.1</ele>
        <time>2025-10-26T12:46:26Z</time>
      </trkpt>
      <trkpt lat="43.50369" lon="6.69126">
        <ele>94.2</ele>
        <time>2025-10-26T12:46:27Z</time>
      </trkpt>
      <trkpt lat="43.50369" lon="6.69127">
        <ele>94.2</ele>
        <time>2025-10-26T12:46:28Z</time>
      </trkpt>
      <trkpt lat="43.50368" lon="6.69128">
        <ele>94.3</ele>
        <time>2025-10-26T12:46:29Z</time>
      </trkpt>
      <trkpt lat="43.50367" lon="6.69128">
        <ele>94.3</ele>
        <time>2025-10-26T12:46:30Z</time>
      </trkpt>
      <trkpt lat="43.50366" lon="6.69129">
        <ele>94.4</ele>
        <time>2025-10-26T12:46:31Z</time>
      </trkpt>
      <trkpt lat="43.50365" lon="6.6913">
        <ele>94.4</ele>
        <time>2025-10-26T12:46:32Z</time>
      </trkpt>
      <trkpt lat="43.50364" lon="6.69131">
        <ele>94.5</ele>
        <time>2025-10-26T12:46:33Z</time>
      </trkpt>
      <trkpt lat="43.50363" lon="6.69133">
        <ele>94.5</ele>
        <time>2025-10-26T12:46:34Z</time>
      </trkpt>
      <trkpt lat="43.50362" lon="6.69133">
        <ele>94.5</ele>
        <time>2025-10-26T12:46:35Z</time>
      </trkpt>
      <trkpt lat="43.50361" lon="6.69134">
        <ele>94.5</ele>
        <time>2025-10-26T12:46:36Z</time>
      </trkpt>
      <trkpt lat="43.5036" lon="6.69135">
        <ele>94.5</ele>
        <time>2025-10-26T12:46:37Z</time>
      </trkpt>
      <trkpt lat="43.50358" lon="6.69135">
        <ele>94.6</ele>
        <time>2025-10-26T12:46:38Z</time>
      </trkpt>
      <trkpt lat="43.50357" lon="6.69135">
        <ele>94.5</ele>
        <time>2025-10-26T12:46:39Z</time>
      </trkpt>
      <trkpt lat="43.50356" lon="6.69135">
        <ele>94.6</ele>
        <time>2025-10-26T12:46:40Z</time>
      </trkpt>
      <trkpt lat="43.50355" lon="6.69136">
        <ele>94.6</ele>
        <time>2025-10-26T12:46:41Z</time>
      </trkpt>
      <trkpt lat="43.50354" lon="6.69137">
        <ele>94.4</ele>
        <time>2025-10-26T12:46:42Z</time>
      </trkpt>
      <trkpt lat="43.50353" lon="6.69138">
        <ele>94.2</ele>
        <time>2025-10-26T12:46:43Z</time>
      </trkpt>
      <trkpt lat="43.50353" lon="6.69139">
        <ele>94</ele>
        <time>2025-10-26T12:46:44Z</time>
      </trkpt>
      <trkpt lat="43.50352" lon="6.69139">
        <ele>93.8</ele>
        <time>2025-10-26T12:46:45Z</time>
      </trkpt>
      <trkpt lat="43.50351" lon="6.6914">
        <ele>93.6</ele>
        <time>2025-10-26T12:46:46Z</time>
      </trkpt>
      <trkpt lat="43.50351" lon="6.6914">
        <ele>93.5</ele>
        <time>2025-10-26T12:46:47Z</time>
      </trkpt>
      <trkpt lat="43.5035" lon="6.69141">
        <ele>93.4</ele>
        <time>2025-10-26T12:46:48Z</time>
      </trkpt>
      <trkpt lat="43.50349" lon="6.69141">
        <ele>93.2</ele>
        <time>2025-10-26T12:46:49Z</time>
      </trkpt>
      <trkpt lat="43.50349" lon="6.69141">
        <ele>93.1</ele>
        <time>2025-10-26T12:46:50Z</time>
      </trkpt>
      <trkpt lat="43.50349" lon="6.69141">
        <ele>93.1</ele>
        <time>2025-10-26T12:46:51Z</time>
      </trkpt>
      <trkpt lat="43.50349" lon="6.69141">
        <ele>93.2</ele>
        <time>2025-10-26T12:46:52Z</time>
      </trkpt>
      <trkpt lat="43.50349" lon="6.69141">
        <ele>93.3</ele>
        <time>2025-10-26T12:46:53Z</time>
      </trkpt>
      <trkpt lat="43.50349" lon="6.69141">
        <ele>93.3</ele>
        <time>2025-10-26T12:46:54Z</time>
      </trkpt>
      <trkpt lat="43.50349" lon="6.69142">
        <ele>93.3</ele>
        <time>2025-10-26T12:46:55Z</time>
      </trkpt>
      <trkpt lat="43.50349" lon="6.69142">
        <ele>93.3</ele>
        <time>2025-10-26T12:46:56Z</time>
      </trkpt>
      <trkpt lat="43.50349" lon="6.69142">
        <ele>93.1</ele>
        <time>2025-10-26T12:46:57Z</time>
      </trkpt>
      <trkpt lat="43.50348" lon="6.69141">
        <ele>93</ele>
        <time>2025-10-26T12:46:58Z</time>
      </trkpt>
      <trkpt lat="43.50348" lon="6.69141">
        <ele>93</ele>
        <time>2025-10-26T12:46:59Z</time>
      </trkpt>
      <trkpt lat="43.50348" lon="6.69141">
        <ele>92.9</ele>
        <time>2025-10-26T12:47:00Z</time>
      </trkpt>
      <trkpt lat="43.50348" lon="6.69141">
        <ele>92.8</ele>
        <time>2025-10-26T12:47:01Z</time>
      </trkpt>
      <trkpt lat="43.50348" lon="6.69141">
        <ele>92.8</ele>
        <time>2025-10-26T12:47:02Z</time>
      </trkpt>
      <trkpt lat="43.50348" lon="6.69141">
        <ele>92.7</ele>
        <time>2025-10-26T12:47:03Z</time>
      </trkpt>
      <trkpt lat="43.50348" lon="6.69142">
        <ele>92.7</ele>
        <time>2025-10-26T12:47:04Z</time>
      </trkpt>
      <trkpt lat="43.50348" lon="6.69141">
        <ele>92.7</ele>
        <time>2025-10-26T12:47:05Z</time>
      </trkpt>
      <trkpt lat="43.50348" lon="6.69142">
        <ele>92.7</ele>
        <time>2025-10-26T12:47:06Z</time>
      </trkpt>
      <trkpt lat="43.50347" lon="6.69142">
        <ele>92.7</ele>
        <time>2025-10-26T12:47:07Z</time>
      </trkpt>
      <trkpt lat="43.50347" lon="6.69142">
        <ele>92.8</ele>
        <time>2025-10-26T12:47:08Z</time>
      </trkpt>
      <trkpt lat="43.50346" lon="6.69141">
        <ele>92.8</ele>
        <time>2025-10-26T12:47:09Z</time>
      </trkpt>
      <trkpt lat="43.50346" lon="6.6914">
        <ele>92.7</ele>
        <time>2025-10-26T12:47:10Z</time>
      </trkpt>
      <trkpt lat="43.50345" lon="6.6914">
        <ele>92.7</ele>
        <time>2025-10-26T12:47:11Z</time>
      </trkpt>
      <trkpt lat="43.50345" lon="6.6914">
        <ele>92.6</ele>
        <time>2025-10-26T12:47:12Z</time>
      </trkpt>
      <trkpt lat="43.50344" lon="6.69139">
        <ele>92.5</ele>
        <time>2025-10-26T12:47:13Z</time>
      </trkpt>
      <trkpt lat="43.50344" lon="6.69138">
        <ele>92.4</ele>
        <time>2025-10-26T12:47:14Z</time>
      </trkpt>
      <trkpt lat="43.50343" lon="6.69138">
        <ele>92.3</ele>
        <time>2025-10-26T12:47:15Z</time>
      </trkpt>
      <trkpt lat="43.50342" lon="6.69137">
        <ele>92.3</ele>
        <time>2025-10-26T12:47:16Z</time>
      </trkpt>
      <trkpt lat="43.50342" lon="6.69137">
        <ele>92.3</ele>
        <time>2025-10-26T12:47:17Z</time>
      </trkpt>
      <trkpt lat="43.50342" lon="6.69136">
        <ele>92.3</ele>
        <time>2025-10-26T12:47:18Z</time>
      </trkpt>
      <trkpt lat="43.50341" lon="6.69135">
        <ele>92.4</ele>
        <time>2025-10-26T12:47:19Z</time>
      </trkpt>
      <trkpt lat="43.50341" lon="6.69134">
        <ele>92.4</ele>
        <time>2025-10-26T12:47:20Z</time>
      </trkpt>
      <trkpt lat="43.50341" lon="6.69133">
        <ele>92.6</ele>
        <time>2025-10-26T12:47:21Z</time>
      </trkpt>
      <trkpt lat="43.5034" lon="6.69132">
        <ele>92.6</ele>
        <time>2025-10-26T12:47:22Z</time>
      </trkpt>
      <trkpt lat="43.50339" lon="6.69131">
        <ele>92.6</ele>
        <time>2025-10-26T12:47:23Z</time>
      </trkpt>
      <trkpt lat="43.50339" lon="6.69129">
        <ele>92.6</ele>
        <time>2025-10-26T12:47:24Z</time>
      </trkpt>
      <trkpt lat="43.50338" lon="6.69128">
        <ele>92.6</ele>
        <time>2025-10-26T12:47:25Z</time>
      </trkpt>
      <trkpt lat="43.50338" lon="6.69127">
        <ele>92.7</ele>
        <time>2025-10-26T12:47:26Z</time>
      </trkpt>
      <trkpt lat="43.50337" lon="6.69126">
        <ele>92.7</ele>
        <time>2025-10-26T12:47:27Z</time>
      </trkpt>
      <trkpt lat="43.50337" lon="6.69125">
        <ele>92.7</ele>
        <time>2025-10-26T12:47:28Z</time>
      </trkpt>
      <trkpt lat="43.50337" lon="6.69124">
        <ele>92.7</ele>
        <time>2025-10-26T12:47:29Z</time>
      </trkpt>
      <trkpt lat="43.50337" lon="6.69123">
        <ele>92.8</ele>
        <time>2025-10-26T12:47:30Z</time>
      </trkpt>
      <trkpt lat="43.50337" lon="6.69122">
        <ele>92.9</ele>
        <time>2025-10-26T12:47:31Z</time>
      </trkpt>
      <trkpt lat="43.50338" lon="6.69122">
        <ele>92.9</ele>
        <time>2025-10-26T12:47:32Z</time>
      </trkpt>
      <trkpt lat="43.50338" lon="6.69122">
        <ele>92.9</ele>
        <time>2025-10-26T12:47:33Z</time>
      </trkpt>
      <trkpt lat="43.50338" lon="6.69122">
        <ele>93</ele>
        <time>2025-10-26T12:47:34Z</time>
      </trkpt>
      <trkpt lat="43.50338" lon="6.69122">
        <ele>92.9</ele>
        <time>2025-10-26T12:47:35Z</time>
      </trkpt>
      <trkpt lat="43.50338" lon="6.69122">
        <ele>92.8</ele>
        <time>2025-10-26T12:47:36Z</time>
      </trkpt>
      <trkpt lat="43.50338" lon="6.69121">
        <ele>92.7</ele>
        <time>2025-10-26T12:47:37Z</time>
      </trkpt>
      <trkpt lat="43.50338" lon="6.6912">
        <ele>92.7</ele>
        <time>2025-10-26T12:47:38Z</time>
      </trkpt>
      <trkpt lat="43.50338" lon="6.6912">
        <ele>92.7</ele>
        <time>2025-10-26T12:47:39Z</time>
      </trkpt>
      <trkpt lat="43.50338" lon="6.69119">
        <ele>92.6</ele>
        <time>2025-10-26T12:47:40Z</time>
      </trkpt>
      <trkpt lat="43.50339" lon="6.69119">
        <ele>92.8</ele>
        <time>2025-10-26T12:47:41Z</time>
      </trkpt>
      <trkpt lat="43.50339" lon="6.69119">
        <ele>92.9</ele>
        <time>2025-10-26T12:47:42Z</time>
      </trkpt>
      <trkpt lat="43.50339" lon="6.69118">
        <ele>93.1</ele>
        <time>2025-10-26T12:47:43Z</time>
      </trkpt>
      <trkpt lat="43.50339" lon="6.69118">
        <ele>93.2</ele>
        <time>2025-10-26T12:47:44Z</time>
      </trkpt>
      <trkpt lat="43.5034" lon="6.69117">
        <ele>93.4</ele>
        <time>2025-10-26T12:47:45Z</time>
      </trkpt>
      <trkpt lat="43.5034" lon="6.69116">
        <ele>93.4</ele>
        <time>2025-10-26T12:47:46Z</time>
      </trkpt>
      <trkpt lat="43.5034" lon="6.69116">
        <ele>93.4</ele>
        <time>2025-10-26T12:47:47Z</time>
      </trkpt>
      <trkpt lat="43.5034" lon="6.69115">
        <ele>93.3</ele>
        <time>2025-10-26T12:47:48Z</time>
      </trkpt>
      <trkpt lat="43.50341" lon="6.69115">
        <ele>93.2</ele>
        <time>2025-10-26T12:47:49Z</time>
      </trkpt>
      <trkpt lat="43.50341" lon="6.69114">
        <ele>93.3</ele>
        <time>2025-10-26T12:47:50Z</time>
      </trkpt>
      <trkpt lat="43.50342" lon="6.69113">
        <ele>93.2</ele>
        <time>2025-10-26T12:47:51Z</time>
      </trkpt>
      <trkpt lat="43.50342" lon="6.69112">
        <ele>93.1</ele>
        <time>2025-10-26T12:47:52Z</time>
      </trkpt>
      <trkpt lat="43.50343" lon="6.69112">
        <ele>93.2</ele>
        <time>2025-10-26T12:47:53Z</time>
      </trkpt>
      <trkpt lat="43.50344" lon="6.69111">
        <ele>93.3</ele>
        <time>2025-10-26T12:47:54Z</time>
      </trkpt>
      <trkpt lat="43.50344" lon="6.6911">
        <ele>93.4</ele>
        <time>2025-10-26T12:47:55Z</time>
      </trkpt>
      <trkpt lat="43.50345" lon="6.69109">
        <ele>93.5</ele>
        <time>2025-10-26T12:47:56Z</time>
      </trkpt>
      <trkpt lat="43.50345" lon="6.69108">
        <ele>93.5</ele>
        <time>2025-10-26T12:47:57Z</time>
      </trkpt>
      <trkpt lat="43.50345" lon="6.69107">
        <ele>93.5</ele>
        <time>2025-10-26T12:47:58Z</time>
      </trkpt>
      <trkpt lat="43.50346" lon="6.69105">
        <ele>93.5</ele>
        <time>2025-10-26T12:47:59Z</time>
      </trkpt>
      <trkpt lat="43.50346" lon="6.69104">
        <ele>93.5</ele>
        <time>2025-10-26T12:48:00Z</time>
      </trkpt>
      <trkpt lat="43.50346" lon="6.69103">
        <ele>93.5</ele>
        <time>2025-10-26T12:48:01Z</time>
      </trkpt>
      <trkpt lat="43.50347" lon="6.69102">
        <ele>93.5</ele>
        <time>2025-10-26T12:48:02Z</time>
      </trkpt>
      <trkpt lat="43.50347" lon="6.69101">
        <ele>93.4</ele>
        <time>2025-10-26T12:48:03Z</time>
      </trkpt>
      <trkpt lat="43.50347" lon="6.69099">
        <ele>93.3</ele>
        <time>2025-10-26T12:48:04Z</time>
      </trkpt>
      <trkpt lat="43.50347" lon="6.69098">
        <ele>93.3</ele>
        <time>2025-10-26T12:48:05Z</time>
      </trkpt>
      <trkpt lat="43.50347" lon="6.69097">
        <ele>93.2</ele>
        <time>2025-10-26T12:48:06Z</time>
      </trkpt>
      <trkpt lat="43.50348" lon="6.69095">
        <ele>93.1</ele>
        <time>2025-10-26T12:48:07Z</time>
      </trkpt>
      <trkpt lat="43.50348" lon="6.69094">
        <ele>93</ele>
        <time>2025-10-26T12:48:08Z</time>
      </trkpt>
      <trkpt lat="43.50349" lon="6.69092">
        <ele>92.9</ele>
        <time>2025-10-26T12:48:09Z</time>
      </trkpt>
      <trkpt lat="43.5035" lon="6.69091">
        <ele>92.9</ele>
        <time>2025-10-26T12:48:10Z</time>
      </trkpt>
      <trkpt lat="43.5035" lon="6.6909">
        <ele>92.9</ele>
        <time>2025-10-26T12:48:11Z</time>
      </trkpt>
      <trkpt lat="43.50351" lon="6.69089">
        <ele>93</ele>
        <time>2025-10-26T12:48:12Z</time>
      </trkpt>
      <trkpt lat="43.50351" lon="6.69087">
        <ele>93.2</ele>
        <time>2025-10-26T12:48:13Z</time>
      </trkpt>
      <trkpt lat="43.50351" lon="6.69086">
        <ele>93.3</ele>
        <time>2025-10-26T12:48:14Z</time>
      </trkpt>
      <trkpt lat="43.50352" lon="6.69085">
        <ele>93.4</ele>
        <time>2025-10-26T12:48:15Z</time>
      </trkpt>
      <trkpt lat="43.50352" lon="6.69084">
        <ele>93.4</ele>
        <time>2025-10-26T12:48:16Z</time>
      </trkpt>
      <trkpt lat="43.50353" lon="6.69083">
        <ele>93.6</ele>
        <time>2025-10-26T12:48:17Z</time>
      </trkpt>
      <trkpt lat="43.50353" lon="6.69082">
        <ele>93.4</ele>
        <time>2025-10-26T12:48:18Z</time>
      </trkpt>
      <trkpt lat="43.50354" lon="6.69081">
        <ele>93.4</ele>
        <time>2025-10-26T12:48:19Z</time>
      </trkpt>
      <trkpt lat="43.50354" lon="6.6908">
        <ele>93.4</ele>
        <time>2025-10-26T12:48:20Z</time>
      </trkpt>
      <trkpt lat="43.50355" lon="6.69079">
        <ele>93.5</ele>
        <time>2025-10-26T12:48:21Z</time>
      </trkpt>
      <trkpt lat="43.50355" lon="6.69077">
        <ele>93.6</ele>
        <time>2025-10-26T12:48:22Z</time>
      </trkpt>
      <trkpt lat="43.50355" lon="6.69076">
        <ele>93.7</ele>
        <time>2025-10-26T12:48:23Z</time>
      </trkpt>
      <trkpt lat="43.50356" lon="6.69075">
        <ele>93.7</ele>
        <time>2025-10-26T12:48:24Z</time>
      </trkpt>
      <trkpt lat="43.50356" lon="6.69074">
        <ele>93.7</ele>
        <time>2025-10-26T12:48:25Z</time>
      </trkpt>
      <trkpt lat="43.50356" lon="6.69073">
        <ele>93.7</ele>
        <time>2025-10-26T12:48:26Z</time>
      </trkpt>
      <trkpt lat="43.50356" lon="6.69072">
        <ele>93.7</ele>
        <time>2025-10-26T12:48:27Z</time>
      </trkpt>
      <trkpt lat="43.50357" lon="6.69071">
        <ele>93.6</ele>
        <time>2025-10-26T12:48:28Z</time>
      </trkpt>
      <trkpt lat="43.50357" lon="6.6907">
        <ele>93.5</ele>
        <time>2025-10-26T12:48:29Z</time>
      </trkpt>
      <trkpt lat="43.50357" lon="6.69069">
        <ele>93.5</ele>
        <time>2025-10-26T12:48:30Z</time>
      </trkpt>
      <trkpt lat="43.50357" lon="6.69068">
        <ele>93.6</ele>
        <time>2025-10-26T12:48:31Z</time>
      </trkpt>
      <trkpt lat="43.50358" lon="6.69066">
        <ele>93.5</ele>
        <time>2025-10-26T12:48:32Z</time>
      </trkpt>
      <trkpt lat="43.50358" lon="6.69065">
        <ele>93.5</ele>
        <time>2025-10-26T12:48:33Z</time>
      </trkpt>
      <trkpt lat="43.50358" lon="6.69064">
        <ele>93.6</ele>
        <time>2025-10-26T12:48:34Z</time>
      </trkpt>
      <trkpt lat="43.50359" lon="6.69063">
        <ele>93.7</ele>
        <time>2025-10-26T12:48:35Z</time>
      </trkpt>
      <trkpt lat="43.50359" lon="6.69062">
        <ele>93.7</ele>
        <time>2025-10-26T12:48:36Z</time>
      </trkpt>
      <trkpt lat="43.5036" lon="6.6906">
        <ele>93.8</ele>
        <time>2025-10-26T12:48:37Z</time>
      </trkpt>
      <trkpt lat="43.5036" lon="6.69059">
        <ele>93.8</ele>
        <time>2025-10-26T12:48:38Z</time>
      </trkpt>
      <trkpt lat="43.5036" lon="6.69057">
        <ele>93.8</ele>
        <time>2025-10-26T12:48:39Z</time>
      </trkpt>
      <trkpt lat="43.50361" lon="6.69056">
        <ele>93.9</ele>
        <time>2025-10-26T12:48:40Z</time>
      </trkpt>
      <trkpt lat="43.50361" lon="6.69055">
        <ele>94</ele>
        <time>2025-10-26T12:48:41Z</time>
      </trkpt>
      <trkpt lat="43.50362" lon="6.69053">
        <ele>94</ele>
        <time>2025-10-26T12:48:42Z</time>
      </trkpt>
      <trkpt lat="43.50362" lon="6.69052">
        <ele>94.1</ele>
        <time>2025-10-26T12:48:43Z</time>
      </trkpt>
      <trkpt lat="43.50362" lon="6.6905">
        <ele>94.1</ele>
        <time>2025-10-26T12:48:44Z</time>
      </trkpt>
      <trkpt lat="43.50362" lon="6.69049">
        <ele>94.1</ele>
        <time>2025-10-26T12:48:45Z</time>
      </trkpt>
      <trkpt lat="43.50363" lon="6.69047">
        <ele>94.1</ele>
        <time>2025-10-26T12:48:46Z</time>
      </trkpt>
      <trkpt lat="43.50362" lon="6.69045">
        <ele>94.1</ele>
        <time>2025-10-26T12:48:47Z</time>
      </trkpt>
      <trkpt lat="43.50362" lon="6.69044">
        <ele>94.1</ele>
        <time>2025-10-26T12:48:48Z</time>
      </trkpt>
      <trkpt lat="43.50363" lon="6.69042">
        <ele>94.1</ele>
        <time>2025-10-26T12:48:49Z</time>
      </trkpt>
      <trkpt lat="43.50363" lon="6.6904">
        <ele>94.2</ele>
        <time>2025-10-26T12:48:50Z</time>
      </trkpt>
      <trkpt lat="43.50363" lon="6.69039">
        <ele>94.2</ele>
        <time>2025-10-26T12:48:51Z</time>
      </trkpt>
      <trkpt lat="43.50364" lon="6.69037">
        <ele>94.2</ele>
        <time>2025-10-26T12:48:52Z</time>
      </trkpt>
      <trkpt lat="43.50364" lon="6.69036">
        <ele>94.2</ele>
        <time>2025-10-26T12:48:53Z</time>
      </trkpt>
      <trkpt lat="43.50364" lon="6.69034">
        <ele>94.2</ele>
        <time>2025-10-26T12:48:54Z</time>
      </trkpt>
      <trkpt lat="43.50364" lon="6.69032">
        <ele>94.3</ele>
        <time>2025-10-26T12:48:55Z</time>
      </trkpt>
      <trkpt lat="43.50364" lon="6.69031">
        <ele>94.3</ele>
        <time>2025-10-26T12:48:56Z</time>
      </trkpt>
      <trkpt lat="43.50364" lon="6.69029">
        <ele>94.4</ele>
        <time>2025-10-26T12:48:57Z</time>
      </trkpt>
      <trkpt lat="43.50364" lon="6.69028">
        <ele>94.5</ele>
        <time>2025-10-26T12:48:58Z</time>
      </trkpt>
      <trkpt lat="43.50364" lon="6.69026">
        <ele>94.5</ele>
        <time>2025-10-26T12:48:59Z</time>
      </trkpt>
      <trkpt lat="43.50365" lon="6.69025">
        <ele>94.5</ele>
        <time>2025-10-26T12:49:00Z</time>
      </trkpt>
      <trkpt lat="43.50365" lon="6.69023">
        <ele>94.4</ele>
        <time>2025-10-26T12:49:01Z</time>
      </trkpt>
      <trkpt lat="43.50365" lon="6.69022">
        <ele>94.4</ele>
        <time>2025-10-26T12:49:02Z</time>
      </trkpt>
      <trkpt lat="43.50365" lon="6.6902">
        <ele>94.4</ele>
        <time>2025-10-26T12:49:03Z</time>
      </trkpt>
      <trkpt lat="43.50365" lon="6.69019">
        <ele>94.4</ele>
        <time>2025-10-26T12:49:04Z</time>
      </trkpt>
      <trkpt lat="43.50365" lon="6.69017">
        <ele>94.3</ele>
        <time>2025-10-26T12:49:05Z</time>
      </trkpt>
      <trkpt lat="43.50366" lon="6.69015">
        <ele>94.3</ele>
        <time>2025-10-26T12:49:06Z</time>
      </trkpt>
      <trkpt lat="43.50366" lon="6.69013">
        <ele>94.5</ele>
        <time>2025-10-26T12:49:07Z</time>
      </trkpt>
      <trkpt lat="43.50366" lon="6.69012">
        <ele>94.6</ele>
        <time>2025-10-26T12:49:08Z</time>
      </trkpt>
      <trkpt lat="43.50366" lon="6.6901">
        <ele>94.6</ele>
        <time>2025-10-26T12:49:09Z</time>
      </trkpt>
      <trkpt lat="43.50366" lon="6.69009">
        <ele>94.6</ele>
        <time>2025-10-26T12:49:10Z</time>
      </trkpt>
      <trkpt lat="43.50366" lon="6.69007">
        <ele>94.7</ele>
        <time>2025-10-26T12:49:11Z</time>
      </trkpt>
      <trkpt lat="43.50366" lon="6.69006">
        <ele>94.7</ele>
        <time>2025-10-26T12:49:12Z</time>
      </trkpt>
      <trkpt lat="43.50367" lon="6.69004">
        <ele>94.6</ele>
        <time>2025-10-26T12:49:13Z</time>
      </trkpt>
      <trkpt lat="43.50367" lon="6.69002">
        <ele>94.6</ele>
        <time>2025-10-26T12:49:14Z</time>
      </trkpt>
      <trkpt lat="43.50367" lon="6.69">
        <ele>94.6</ele>
        <time>2025-10-26T12:49:15Z</time>
      </trkpt>
      <trkpt lat="43.50367" lon="6.68998">
        <ele>94.6</ele>
        <time>2025-10-26T12:49:16Z</time>
      </trkpt>
      <trkpt lat="43.50366" lon="6.68997">
        <ele>94.5</ele>
        <time>2025-10-26T12:49:17Z</time>
      </trkpt>
      <trkpt lat="43.50366" lon="6.68996">
        <ele>94.6</ele>
        <time>2025-10-26T12:49:18Z</time>
      </trkpt>
      <trkpt lat="43.50366" lon="6.68994">
        <ele>94.6</ele>
        <time>2025-10-26T12:49:19Z</time>
      </trkpt>
      <trkpt lat="43.50366" lon="6.68993">
        <ele>94.7</ele>
        <time>2025-10-26T12:49:20Z</time>
      </trkpt>
      <trkpt lat="43.50367" lon="6.68991">
        <ele>94.7</ele>
        <time>2025-10-26T12:49:21Z</time>
      </trkpt>
      <trkpt lat="43.50367" lon="6.6899">
        <ele>94.8</ele>
        <time>2025-10-26T12:49:22Z</time>
      </trkpt>
      <trkpt lat="43.50367" lon="6.68988">
        <ele>94.9</ele>
        <time>2025-10-26T12:49:23Z</time>
      </trkpt>
      <trkpt lat="43.50367" lon="6.68987">
        <ele>94.9</ele>
        <time>2025-10-26T12:49:24Z</time>
      </trkpt>
      <trkpt lat="43.50367" lon="6.68985">
        <ele>95</ele>
        <time>2025-10-26T12:49:25Z</time>
      </trkpt>
      <trkpt lat="43.50368" lon="6.68984">
        <ele>95.1</ele>
        <time>2025-10-26T12:49:26Z</time>
      </trkpt>
      <trkpt lat="43.50368" lon="6.68983">
        <ele>95.2</ele>
        <time>2025-10-26T12:49:27Z</time>
      </trkpt>
      <trkpt lat="43.50368" lon="6.68982">
        <ele>95.3</ele>
        <time>2025-10-26T12:49:28Z</time>
      </trkpt>
      <trkpt lat="43.50368" lon="6.68981">
        <ele>95.5</ele>
        <time>2025-10-26T12:49:29Z</time>
      </trkpt>
      <trkpt lat="43.50368" lon="6.68979">
        <ele>95.6</ele>
        <time>2025-10-26T12:49:30Z</time>
      </trkpt>
      <trkpt lat="43.50369" lon="6.68978">
        <ele>95.8</ele>
        <time>2025-10-26T12:49:31Z</time>
      </trkpt>
      <trkpt lat="43.50369" lon="6.68977">
        <ele>95.8</ele>
        <time>2025-10-26T12:49:32Z</time>
      </trkpt>
      <trkpt lat="43.50369" lon="6.68976">
        <ele>95.7</ele>
        <time>2025-10-26T12:49:33Z</time>
      </trkpt>
      <trkpt lat="43.5037" lon="6.68975">
        <ele>95.7</ele>
        <time>2025-10-26T12:49:34Z</time>
      </trkpt>
      <trkpt lat="43.50371" lon="6.68974">
        <ele>95.8</ele>
        <time>2025-10-26T12:49:35Z</time>
      </trkpt>
      <trkpt lat="43.50371" lon="6.68974">
        <ele>95.9</ele>
        <time>2025-10-26T12:49:36Z</time>
      </trkpt>
      <trkpt lat="43.50372" lon="6.68972">
        <ele>96</ele>
        <time>2025-10-26T12:49:37Z</time>
      </trkpt>
      <trkpt lat="43.50372" lon="6.68971">
        <ele>96</ele>
        <time>2025-10-26T12:49:38Z</time>
      </trkpt>
      <trkpt lat="43.50373" lon="6.6897">
        <ele>96</ele>
        <time>2025-10-26T12:49:39Z</time>
      </trkpt>
      <trkpt lat="43.50373" lon="6.68969">
        <ele>96.1</ele>
        <time>2025-10-26T12:49:40Z</time>
      </trkpt>
      <trkpt lat="43.50374" lon="6.68968">
        <ele>96.1</ele>
        <time>2025-10-26T12:49:41Z</time>
      </trkpt>
      <trkpt lat="43.50375" lon="6.68967">
        <ele>96.1</ele>
        <time>2025-10-26T12:49:42Z</time>
      </trkpt>
      <trkpt lat="43.50375" lon="6.68966">
        <ele>96.2</ele>
        <time>2025-10-26T12:49:43Z</time>
      </trkpt>
      <trkpt lat="43.50376" lon="6.68965">
        <ele>96.2</ele>
        <time>2025-10-26T12:49:44Z</time>
      </trkpt>
      <trkpt lat="43.50377" lon="6.68964">
        <ele>96.3</ele>
        <time>2025-10-26T12:49:45Z</time>
      </trkpt>
      <trkpt lat="43.50377" lon="6.68962">
        <ele>96.3</ele>
        <time>2025-10-26T12:49:46Z</time>
      </trkpt>
      <trkpt lat="43.50378" lon="6.68961">
        <ele>96.4</ele>
        <time>2025-10-26T12:49:47Z</time>
      </trkpt>
      <trkpt lat="43.50379" lon="6.6896">
        <ele>96.5</ele>
        <time>2025-10-26T12:49:48Z</time>
      </trkpt>
      <trkpt lat="43.50379" lon="6.68958">
        <ele>96.6</ele>
        <time>2025-10-26T12:49:49Z</time>
      </trkpt>
      <trkpt lat="43.5038" lon="6.68957">
        <ele>96.7</ele>
        <time>2025-10-26T12:49:50Z</time>
      </trkpt>
      <trkpt lat="43.5038" lon="6.68955">
        <ele>96.7</ele>
        <time>2025-10-26T12:49:51Z</time>
      </trkpt>
      <trkpt lat="43.50381" lon="6.68954">
        <ele>96.8</ele>
        <time>2025-10-26T12:49:52Z</time>
      </trkpt>
      <trkpt lat="43.50381" lon="6.68952">
        <ele>96.9</ele>
        <time>2025-10-26T12:49:53Z</time>
      </trkpt>
      <trkpt lat="43.50382" lon="6.68951">
        <ele>97</ele>
        <time>2025-10-26T12:49:54Z</time>
      </trkpt>
      <trkpt lat="43.50382" lon="6.68949">
        <ele>97.1</ele>
        <time>2025-10-26T12:49:55Z</time>
      </trkpt>
      <trkpt lat="43.50383" lon="6.68947">
        <ele>97.1</ele>
        <time>2025-10-26T12:49:56Z</time>
      </trkpt>
      <trkpt lat="43.50383" lon="6.68946">
        <ele>97</ele>
        <time>2025-10-26T12:49:57Z</time>
      </trkpt>
      <trkpt lat="43.50383" lon="6.68945">
        <ele>97</ele>
        <time>2025-10-26T12:49:58Z</time>
      </trkpt>
      <trkpt lat="43.50384" lon="6.68943">
        <ele>97</ele>
        <time>2025-10-26T12:49:59Z</time>
      </trkpt>
      <trkpt lat="43.50384" lon="6.68942">
        <ele>97</ele>
        <time>2025-10-26T12:50:00Z</time>
      </trkpt>
      <trkpt lat="43.50384" lon="6.6894">
        <ele>97</ele>
        <time>2025-10-26T12:50:01Z</time>
      </trkpt>
      <trkpt lat="43.50384" lon="6.68939">
        <ele>97</ele>
        <time>2025-10-26T12:50:02Z</time>
      </trkpt>
      <trkpt lat="43.50385" lon="6.68937">
        <ele>97</ele>
        <time>2025-10-26T12:50:03Z</time>
      </trkpt>
      <trkpt lat="43.50385" lon="6.68935">
        <ele>97</ele>
        <time>2025-10-26T12:50:04Z</time>
      </trkpt>
      <trkpt lat="43.50384" lon="6.68934">
        <ele>97</ele>
        <time>2025-10-26T12:50:05Z</time>
      </trkpt>
      <trkpt lat="43.50384" lon="6.68932">
        <ele>97</ele>
        <time>2025-10-26T12:50:06Z</time>
      </trkpt>
      <trkpt lat="43.50384" lon="6.68931">
        <ele>97</ele>
        <time>2025-10-26T12:50:07Z</time>
      </trkpt>
      <trkpt lat="43.50384" lon="6.68929">
        <ele>96.9</ele>
        <time>2025-10-26T12:50:08Z</time>
      </trkpt>
      <trkpt lat="43.50384" lon="6.68927">
        <ele>96.9</ele>
        <time>2025-10-26T12:50:09Z</time>
      </trkpt>
      <trkpt lat="43.50384" lon="6.68926">
        <ele>96.9</ele>
        <time>2025-10-26T12:50:10Z</time>
      </trkpt>
      <trkpt lat="43.50384" lon="6.68924">
        <ele>97</ele>
        <time>2025-10-26T12:50:11Z</time>
      </trkpt>
      <trkpt lat="43.50384" lon="6.68923">
        <ele>97.1</ele>
        <time>2025-10-26T12:50:12Z</time>
      </trkpt>
      <trkpt lat="43.50384" lon="6.68921">
        <ele>97.1</ele>
        <time>2025-10-26T12:50:13Z</time>
      </trkpt>
      <trkpt lat="43.50384" lon="6.68919">
        <ele>97</ele>
        <time>2025-10-26T12:50:14Z</time>
      </trkpt>
      <trkpt lat="43.50383" lon="6.68918">
        <ele>96.9</ele>
        <time>2025-10-26T12:50:15Z</time>
      </trkpt>
      <trkpt lat="43.50383" lon="6.68916">
        <ele>96.9</ele>
        <time>2025-10-26T12:50:16Z</time>
      </trkpt>
      <trkpt lat="43.50383" lon="6.68915">
        <ele>96.9</ele>
        <time>2025-10-26T12:50:17Z</time>
      </trkpt>
      <trkpt lat="43.50383" lon="6.68913">
        <ele>96.8</ele>
        <time>2025-10-26T12:50:18Z</time>
      </trkpt>
      <trkpt lat="43.50383" lon="6.68911">
        <ele>96.7</ele>
        <time>2025-10-26T12:50:19Z</time>
      </trkpt>
      <trkpt lat="43.50383" lon="6.68909">
        <ele>96.5</ele>
        <time>2025-10-26T12:50:20Z</time>
      </trkpt>
      <trkpt lat="43.50383" lon="6.68907">
        <ele>96.5</ele>
        <time>2025-10-26T12:50:21Z</time>
      </trkpt>
      <trkpt lat="43.50382" lon="6.68905">
        <ele>96.5</ele>
        <time>2025-10-26T12:50:22Z</time>
      </trkpt>
      <trkpt lat="43.50382" lon="6.68904">
        <ele>96.4</ele>
        <time>2025-10-26T12:50:23Z</time>
      </trkpt>
      <trkpt lat="43.50381" lon="6.68902">
        <ele>96.3</ele>
        <time>2025-10-26T12:50:24Z</time>
      </trkpt>
      <trkpt lat="43.50381" lon="6.68901">
        <ele>96.2</ele>
        <time>2025-10-26T12:50:25Z</time>
      </trkpt>
      <trkpt lat="43.50382" lon="6.68899">
        <ele>96.2</ele>
        <time>2025-10-26T12:50:26Z</time>
      </trkpt>
      <trkpt lat="43.50382" lon="6.68897">
        <ele>96.1</ele>
        <time>2025-10-26T12:50:27Z</time>
      </trkpt>
      <trkpt lat="43.50382" lon="6.68895">
        <ele>96.1</ele>
        <time>2025-10-26T12:50:28Z</time>
      </trkpt>
      <trkpt lat="43.50382" lon="6.68894">
        <ele>96.1</ele>
        <time>2025-10-26T12:50:29Z</time>
      </trkpt>
      <trkpt lat="43.50381" lon="6.68892">
        <ele>96.1</ele>
        <time>2025-10-26T12:50:30Z</time>
      </trkpt>
      <trkpt lat="43.50381" lon="6.6889">
        <ele>96</ele>
        <time>2025-10-26T12:50:31Z</time>
      </trkpt>
      <trkpt lat="43.50381" lon="6.68889">
        <ele>96</ele>
        <time>2025-10-26T12:50:32Z</time>
      </trkpt>
      <trkpt lat="43.5038" lon="6.68888">
        <ele>96</ele>
        <time>2025-10-26T12:50:33Z</time>
      </trkpt>
      <trkpt lat="43.5038" lon="6.68887">
        <ele>96</ele>
        <time>2025-10-26T12:50:34Z</time>
      </trkpt>
      <trkpt lat="43.50379" lon="6.68885">
        <ele>95.9</ele>
        <time>2025-10-26T12:50:35Z</time>
      </trkpt>
      <trkpt lat="43.50378" lon="6.68884">
        <ele>95.8</ele>
        <time>2025-10-26T12:50:36Z</time>
      </trkpt>
      <trkpt lat="43.50376" lon="6.68883">
        <ele>95.7</ele>
        <time>2025-10-26T12:50:37Z</time>
      </trkpt>
      <trkpt lat="43.50375" lon="6.68883">
        <ele>95.6</ele>
        <time>2025-10-26T12:50:38Z</time>
      </trkpt>
      <trkpt lat="43.50374" lon="6.68882">
        <ele>95.5</ele>
        <time>2025-10-26T12:50:39Z</time>
      </trkpt>
      <trkpt lat="43.50373" lon="6.68881">
        <ele>95.4</ele>
        <time>2025-10-26T12:50:40Z</time>
      </trkpt>
      <trkpt lat="43.50371" lon="6.6888">
        <ele>95.2</ele>
        <time>2025-10-26T12:50:41Z</time>
      </trkpt>
      <trkpt lat="43.5037" lon="6.6888">
        <ele>95.1</ele>
        <time>2025-10-26T12:50:42Z</time>
      </trkpt>
      <trkpt lat="43.50369" lon="6.68879">
        <ele>95.1</ele>
        <time>2025-10-26T12:50:43Z</time>
      </trkpt>
      <trkpt lat="43.50368" lon="6.68879">
        <ele>95</ele>
        <time>2025-10-26T12:50:44Z</time>
      </trkpt>
      <trkpt lat="43.50367" lon="6.68878">
        <ele>94.9</ele>
        <time>2025-10-26T12:50:45Z</time>
      </trkpt>
      <trkpt lat="43.50366" lon="6.68877">
        <ele>94.8</ele>
        <time>2025-10-26T12:50:46Z</time>
      </trkpt>
      <trkpt lat="43.50365" lon="6.68877">
        <ele>94.7</ele>
        <time>2025-10-26T12:50:47Z</time>
      </trkpt>
      <trkpt lat="43.50365" lon="6.68876">
        <ele>94.5</ele>
        <time>2025-10-26T12:50:48Z</time>
      </trkpt>
      <trkpt lat="43.50364" lon="6.68876">
        <ele>94.3</ele>
        <time>2025-10-26T12:50:49Z</time>
      </trkpt>
      <trkpt lat="43.50363" lon="6.68875">
        <ele>94.2</ele>
        <time>2025-10-26T12:50:50Z</time>
      </trkpt>
      <trkpt lat="43.50363" lon="6.68874">
        <ele>94</ele>
        <time>2025-10-26T12:50:51Z</time>
      </trkpt>
      <trkpt lat="43.50362" lon="6.68873">
        <ele>93.9</ele>
        <time>2025-10-26T12:50:52Z</time>
      </trkpt>
      <trkpt lat="43.50362" lon="6.68872">
        <ele>93.8</ele>
        <time>2025-10-26T12:50:53Z</time>
      </trkpt>
      <trkpt lat="43.50362" lon="6.68871">
        <ele>93.7</ele>
        <time>2025-10-26T12:50:54Z</time>
      </trkpt>
      <trkpt lat="43.50362" lon="6.6887">
        <ele>93.6</ele>
        <time>2025-10-26T12:50:55Z</time>
      </trkpt>
      <trkpt lat="43.50363" lon="6.68869">
        <ele>93.5</ele>
        <time>2025-10-26T12:50:56Z</time>
      </trkpt>
      <trkpt lat="43.50363" lon="6.68868">
        <ele>93.4</ele>
        <time>2025-10-26T12:50:57Z</time>
      </trkpt>
      <trkpt lat="43.50363" lon="6.68867">
        <ele>93.3</ele>
        <time>2025-10-26T12:50:58Z</time>
      </trkpt>
      <trkpt lat="43.50363" lon="6.68866">
        <ele>93.3</ele>
        <time>2025-10-26T12:50:59Z</time>
      </trkpt>
      <trkpt lat="43.50363" lon="6.68866">
        <ele>93.2</ele>
        <time>2025-10-26T12:51:00Z</time>
      </trkpt>
      <trkpt lat="43.50363" lon="6.68866">
        <ele>93.2</ele>
        <time>2025-10-26T12:51:01Z</time>
      </trkpt>
      <trkpt lat="43.50364" lon="6.68865">
        <ele>93.2</ele>
        <time>2025-10-26T12:51:02Z</time>
      </trkpt>
      <trkpt lat="43.50364" lon="6.68865">
        <ele>93.1</ele>
        <time>2025-10-26T12:51:03Z</time>
      </trkpt>
      <trkpt lat="43.50364" lon="6.68864">
        <ele>93.1</ele>
        <time>2025-10-26T12:51:04Z</time>
      </trkpt>
      <trkpt lat="43.50364" lon="6.68862">
        <ele>93</ele>
        <time>2025-10-26T12:51:05Z</time>
      </trkpt>
      <trkpt lat="43.50364" lon="6.68861">
        <ele>93</ele>
        <time>2025-10-26T12:51:06Z</time>
      </trkpt>
      <trkpt lat="43.50364" lon="6.6886">
        <ele>93</ele>
        <time>2025-10-26T12:51:07Z</time>
      </trkpt>
      <trkpt lat="43.50364" lon="6.68859">
        <ele>93</ele>
        <time>2025-10-26T12:51:08Z</time>
      </trkpt>
      <trkpt lat="43.50364" lon="6.68858">
        <ele>92.9</ele>
        <time>2025-10-26T12:51:09Z</time>
      </trkpt>
      <trkpt lat="43.50364" lon="6.68857">
        <ele>92.8</ele>
        <time>2025-10-26T12:51:10Z</time>
      </trkpt>
      <trkpt lat="43.50365" lon="6.68855">
        <ele>92.8</ele>
        <time>2025-10-26T12:51:11Z</time>
      </trkpt>
      <trkpt lat="43.50365" lon="6.68854">
        <ele>92.9</ele>
        <time>2025-10-26T12:51:12Z</time>
      </trkpt>
      <trkpt lat="43.50365" lon="6.68853">
        <ele>93</ele>
        <time>2025-10-26T12:51:13Z</time>
      </trkpt>
      <trkpt lat="43.50365" lon="6.68852">
        <ele>92.9</ele>
        <time>2025-10-26T12:51:14Z</time>
      </trkpt>
      <trkpt lat="43.50364" lon="6.68852">
        <ele>92.8</ele>
        <time>2025-10-26T12:51:15Z</time>
      </trkpt>
      <trkpt lat="43.50364" lon="6.68852">
        <ele>92.7</ele>
        <time>2025-10-26T12:51:16Z</time>
      </trkpt>
      <trkpt lat="43.50364" lon="6.68852">
        <ele>92.7</ele>
        <time>2025-10-26T12:51:17Z</time>
      </trkpt>
      <trkpt lat="43.50364" lon="6.68852">
        <ele>92.7</ele>
        <time>2025-10-26T12:51:18Z</time>
      </trkpt>
      <trkpt lat="43.50364" lon="6.68852">
        <ele>92.8</ele>
        <time>2025-10-26T12:51:19Z</time>
      </trkpt>
      <trkpt lat="43.50364" lon="6.68851">
        <ele>92.9</ele>
        <time>2025-10-26T12:51:20Z</time>
      </trkpt>
      <trkpt lat="43.50363" lon="6.68851">
        <ele>92.9</ele>
        <time>2025-10-26T12:51:21Z</time>
      </trkpt>
      <trkpt lat="43.50363" lon="6.68851">
        <ele>93</ele>
        <time>2025-10-26T12:51:22Z</time>
      </trkpt>
      <trkpt lat="43.50363" lon="6.6885">
        <ele>93</ele>
        <time>2025-10-26T12:51:23Z</time>
      </trkpt>
      <trkpt lat="43.50363" lon="6.6885">
        <ele>93</ele>
        <time>2025-10-26T12:51:24Z</time>
      </trkpt>
      <trkpt lat="43.50363" lon="6.6885">
        <ele>93.1</ele>
        <time>2025-10-26T12:51:25Z</time>
      </trkpt>
      <trkpt lat="43.50363" lon="6.6885">
        <ele>93.1</ele>
        <time>2025-10-26T12:51:26Z</time>
      </trkpt>
      <trkpt lat="43.50363" lon="6.6885">
        <ele>93.1</ele>
        <time>2025-10-26T12:51:27Z</time>
      </trkpt>
      <trkpt lat="43.50363" lon="6.68849">
        <ele>93.1</ele>
        <time>2025-10-26T12:51:28Z</time>
      </trkpt>
      <trkpt lat="43.50363" lon="6.68849">
        <ele>93</ele>
        <time>2025-10-26T12:51:29Z</time>
      </trkpt>
      <trkpt lat="43.50363" lon="6.68849">
        <ele>92.9</ele>
        <time>2025-10-26T12:51:30Z</time>
      </trkpt>
      <trkpt lat="43.50362" lon="6.68849">
        <ele>92.8</ele>
        <time>2025-10-26T12:51:31Z</time>
      </trkpt>
      <trkpt lat="43.50362" lon="6.68849">
        <ele>92.8</ele>
        <time>2025-10-26T12:51:32Z</time>
      </trkpt>
      <trkpt lat="43.50362" lon="6.68849">
        <ele>92.7</ele>
        <time>2025-10-26T12:51:33Z</time>
      </trkpt>
      <trkpt lat="43.50362" lon="6.68848">
        <ele>92.8</ele>
        <time>2025-10-26T12:51:34Z</time>
      </trkpt>
      <trkpt lat="43.50362" lon="6.68848">
        <ele>92.8</ele>
        <time>2025-10-26T12:51:35Z</time>
      </trkpt>
      <trkpt lat="43.50362" lon="6.68848">
        <ele>92.8</ele>
        <time>2025-10-26T12:51:36Z</time>
      </trkpt>
      <trkpt lat="43.50362" lon="6.68847">
        <ele>92.9</ele>
        <time>2025-10-26T12:51:37Z</time>
      </trkpt>
      <trkpt lat="43.50362" lon="6.68847">
        <ele>93</ele>
        <time>2025-10-26T12:51:38Z</time>
      </trkpt>
      <trkpt lat="43.50362" lon="6.68847">
        <ele>93.1</ele>
        <time>2025-10-26T12:51:39Z</time>
      </trkpt>
      <trkpt lat="43.50362" lon="6.68847">
        <ele>93.1</ele>
        <time>2025-10-26T12:51:40Z</time>
      </trkpt>
      <trkpt lat="43.50362" lon="6.68847">
        <ele>93.2</ele>
        <time>2025-10-26T12:51:41Z</time>
      </trkpt>
      <trkpt lat="43.50362" lon="6.68847">
        <ele>93.1</ele>
        <time>2025-10-26T12:51:42Z</time>
      </trkpt>
      <trkpt lat="43.50362" lon="6.68847">
        <ele>93.1</ele>
        <time>2025-10-26T12:51:43Z</time>
      </trkpt>
      <trkpt lat="43.50362" lon="6.68847">
        <ele>93.1</ele>
        <time>2025-10-26T12:51:44Z</time>
      </trkpt>
      <trkpt lat="43.50362" lon="6.68847">
        <ele>93.2</ele>
        <time>2025-10-26T12:51:45Z</time>
      </trkpt>
      <trkpt lat="43.50362" lon="6.68847">
        <ele>93.2</ele>
        <time>2025-10-26T12:51:46Z</time>
      </trkpt>
      <trkpt lat="43.50362" lon="6.68847">
        <ele>93.2</ele>
        <time>2025-10-26T12:51:47Z</time>
      </trkpt>
      <trkpt lat="43.50361" lon="6.68847">
        <ele>93.3</ele>
        <time>2025-10-26T12:51:48Z</time>
      </trkpt>
      <trkpt lat="43.50361" lon="6.68847">
        <ele>93.4</ele>
        <time>2025-10-26T12:51:49Z</time>
      </trkpt>
      <trkpt lat="43.50361" lon="6.68847">
        <ele>93.4</ele>
        <time>2025-10-26T12:51:50Z</time>
      </trkpt>
      <trkpt lat="43.50361" lon="6.68847">
        <ele>93.4</ele>
        <time>2025-10-26T12:51:51Z</time>
      </trkpt>
      <trkpt lat="43.50361" lon="6.68847">
        <ele>93.5</ele>
        <time>2025-10-26T12:51:52Z</time>
      </trkpt>
      <trkpt lat="43.5036" lon="6.68847">
        <ele>93.4</ele>
        <time>2025-10-26T12:51:53Z</time>
      </trkpt>
      <trkpt lat="43.5036" lon="6.68847">
        <ele>93.4</ele>
        <time>2025-10-26T12:51:54Z</time>
      </trkpt>
      <trkpt lat="43.5036" lon="6.68847">
        <ele>93.5</ele>
        <time>2025-10-26T12:51:55Z</time>
      </trkpt>
      <trkpt lat="43.5036" lon="6.68847">
        <ele>93.5</ele>
        <time>2025-10-26T12:51:56Z</time>
      </trkpt>
      <trkpt lat="43.5036" lon="6.68847">
        <ele>93.5</ele>
        <time>2025-10-26T12:51:57Z</time>
      </trkpt>
      <trkpt lat="43.5036" lon="6.68847">
        <ele>93.5</ele>
        <time>2025-10-26T12:51:58Z</time>
      </trkpt>
      <trkpt lat="43.5036" lon="6.68847">
        <ele>93.5</ele>
        <time>2025-10-26T12:51:59Z</time>
      </trkpt>
      <trkpt lat="43.5036" lon="6.68847">
        <ele>93.5</ele>
        <time>2025-10-26T12:52:00Z</time>
      </trkpt>
      <trkpt lat="43.5036" lon="6.68847">
        <ele>93.5</ele>
        <time>2025-10-26T12:52:01Z</time>
      </trkpt>
      <trkpt lat="43.5036" lon="6.68847">
        <ele>93.5</ele>
        <time>2025-10-26T12:52:02Z</time>
      </trkpt>
      <trkpt lat="43.5036" lon="6.68847">
        <ele>93.5</ele>
        <time>2025-10-26T12:52:03Z</time>
      </trkpt>
      <trkpt lat="43.5036" lon="6.68847">
        <ele>93.4</ele>
        <time>2025-10-26T12:52:04Z</time>
      </trkpt>
      <trkpt lat="43.50359" lon="6.68847">
        <ele>93.3</ele>
        <time>2025-10-26T12:52:05Z</time>
      </trkpt>
      <trkpt lat="43.50359" lon="6.68847">
        <ele>93</ele>
        <time>2025-10-26T12:52:06Z</time>
      </trkpt>
      <trkpt lat="43.50359" lon="6.68847">
        <ele>92.9</ele>
        <time>2025-10-26T12:52:07Z</time>
      </trkpt>
      <trkpt lat="43.50359" lon="6.68847">
        <ele>92.9</ele>
        <time>2025-10-26T12:52:08Z</time>
      </trkpt>
      <trkpt lat="43.50359" lon="6.68847">
        <ele>92.8</ele>
        <time>2025-10-26T12:52:09Z</time>
      </trkpt>
      <trkpt lat="43.50359" lon="6.68847">
        <ele>92.8</ele>
        <time>2025-10-26T12:52:10Z</time>
      </trkpt>
      <trkpt lat="43.50359" lon="6.68847">
        <ele>92.8</ele>
        <time>2025-10-26T12:52:11Z</time>
      </trkpt>
      <trkpt lat="43.50359" lon="6.68847">
        <ele>92.9</ele>
        <time>2025-10-26T12:52:12Z</time>
      </trkpt>
      <trkpt lat="43.50359" lon="6.68847">
        <ele>92.9</ele>
        <time>2025-10-26T12:52:13Z</time>
      </trkpt>
      <trkpt lat="43.50359" lon="6.68847">
        <ele>92.9</ele>
        <time>2025-10-26T12:52:14Z</time>
      </trkpt>
      <trkpt lat="43.50359" lon="6.68847">
        <ele>92.9</ele>
        <time>2025-10-26T12:52:15Z</time>
      </trkpt>
      <trkpt lat="43.50359" lon="6.68847">
        <ele>93</ele>
        <time>2025-10-26T12:52:16Z</time>
      </trkpt>
      <trkpt lat="43.50359" lon="6.68847">
        <ele>93</ele>
        <time>2025-10-26T12:52:17Z</time>
      </trkpt>
      <trkpt lat="43.50359" lon="6.68847">
        <ele>93</ele>
        <time>2025-10-26T12:52:18Z</time>
      </trkpt>
      <trkpt lat="43.50359" lon="6.68847">
        <ele>93.1</ele>
        <time>2025-10-26T12:52:19Z</time>
      </trkpt>
      <trkpt lat="43.50358" lon="6.68847">
        <ele>93.1</ele>
        <time>2025-10-26T12:52:20Z</time>
      </trkpt>
      <trkpt lat="43.50358" lon="6.68847">
        <ele>93.2</ele>
        <time>2025-10-26T12:52:21Z</time>
      </trkpt>
      <trkpt lat="43.50358" lon="6.68847">
        <ele>93.2</ele>
        <time>2025-10-26T12:52:22Z</time>
      </trkpt>
      <trkpt lat="43.50358" lon="6.68847">
        <ele>93.2</ele>
        <time>2025-10-26T12:52:23Z</time>
      </trkpt>
      <trkpt lat="43.50358" lon="6.68847">
        <ele>93.3</ele>
        <time>2025-10-26T12:52:24Z</time>
      </trkpt>
      <trkpt lat="43.50358" lon="6.68848">
        <ele>93.3</ele>
        <time>2025-10-26T12:52:25Z</time>
      </trkpt>
      <trkpt lat="43.50358" lon="6.68848">
        <ele>93.3</ele>
        <time>2025-10-26T12:52:26Z</time>
      </trkpt>
      <trkpt lat="43.50358" lon="6.68847">
        <ele>93.4</ele>
        <time>2025-10-26T12:52:27Z</time>
      </trkpt>
      <trkpt lat="43.50358" lon="6.68847">
        <ele>93.3</ele>
        <time>2025-10-26T12:52:28Z</time>
      </trkpt>
      <trkpt lat="43.50357" lon="6.68848">
        <ele>93.4</ele>
        <time>2025-10-26T12:52:29Z</time>
      </trkpt>
      <trkpt lat="43.50357" lon="6.68848">
        <ele>93.3</ele>
        <time>2025-10-26T12:52:30Z</time>
      </trkpt>
      <trkpt lat="43.50358" lon="6.68848">
        <ele>93.3</ele>
        <time>2025-10-26T12:52:31Z</time>
      </trkpt>
      <trkpt lat="43.50358" lon="6.68848">
        <ele>93.3</ele>
        <time>2025-10-26T12:52:32Z</time>
      </trkpt>
      <trkpt lat="43.50358" lon="6.68848">
        <ele>93.2</ele>
        <time>2025-10-26T12:52:33Z</time>
      </trkpt>
      <trkpt lat="43.50357" lon="6.68848">
        <ele>93.1</ele>
        <time>2025-10-26T12:52:34Z</time>
      </trkpt>
      <trkpt lat="43.50358" lon="6.68848">
        <ele>93</ele>
        <time>2025-10-26T12:52:35Z</time>
      </trkpt>
      <trkpt lat="43.50357" lon="6.68848">
        <ele>92.9</ele>
        <time>2025-10-26T12:52:36Z</time>
      </trkpt>
      <trkpt lat="43.50357" lon="6.68848">
        <ele>92.8</ele>
        <time>2025-10-26T12:52:37Z</time>
      </trkpt>
      <trkpt lat="43.50357" lon="6.68848">
        <ele>92.8</ele>
        <time>2025-10-26T12:52:38Z</time>
      </trkpt>
      <trkpt lat="43.50357" lon="6.68848">
        <ele>92.7</ele>
        <time>2025-10-26T12:52:39Z</time>
      </trkpt>
      <trkpt lat="43.50357" lon="6.68848">
        <ele>92.7</ele>
        <time>2025-10-26T12:52:40Z</time>
      </trkpt>
      <trkpt lat="43.50357" lon="6.68848">
        <ele>92.7</ele>
        <time>2025-10-26T12:52:41Z</time>
      </trkpt>
      <trkpt lat="43.50357" lon="6.68848">
        <ele>92.7</ele>
        <time>2025-10-26T12:52:42Z</time>
      </trkpt>
      <trkpt lat="43.50357" lon="6.68848">
        <ele>92.6</ele>
        <time>2025-10-26T12:52:43Z</time>
      </trkpt>
      <trkpt lat="43.50357" lon="6.68848">
        <ele>92.6</ele>
        <time>2025-10-26T12:52:44Z</time>
      </trkpt>
      <trkpt lat="43.50357" lon="6.68848">
        <ele>92.5</ele>
        <time>2025-10-26T12:52:45Z</time>
      </trkpt>
      <trkpt lat="43.50357" lon="6.68848">
        <ele>92.5</ele>
        <time>2025-10-26T12:52:46Z</time>
      </trkpt>
      <trkpt lat="43.50358" lon="6.68848">
        <ele>92.4</ele>
        <time>2025-10-26T12:52:47Z</time>
      </trkpt>
      <trkpt lat="43.50358" lon="6.68848">
        <ele>92.4</ele>
        <time>2025-10-26T12:52:48Z</time>
      </trkpt>
      <trkpt lat="43.50358" lon="6.68848">
        <ele>92.4</ele>
        <time>2025-10-26T12:52:49Z</time>
      </trkpt>
      <trkpt lat="43.50358" lon="6.68848">
        <ele>92.4</ele>
        <time>2025-10-26T12:52:50Z</time>
      </trkpt>
      <trkpt lat="43.50357" lon="6.68848">
        <ele>92.5</ele>
        <time>2025-10-26T12:52:51Z</time>
      </trkpt>
      <trkpt lat="43.50357" lon="6.68848">
        <ele>92.5</ele>
        <time>2025-10-26T12:52:52Z</time>
      </trkpt>
      <trkpt lat="43.50357" lon="6.68848">
        <ele>92.6</ele>
        <time>2025-10-26T12:52:53Z</time>
      </trkpt>
      <trkpt lat="43.50357" lon="6.68848">
        <ele>92.6</ele>
        <time>2025-10-26T12:52:54Z</time>
      </trkpt>
      <trkpt lat="43.50357" lon="6.68848">
        <ele>92.6</ele>
        <time>2025-10-26T12:52:55Z</time>
      </trkpt>
      <trkpt lat="43.50358" lon="6.68848">
        <ele>92.7</ele>
        <time>2025-10-26T12:52:56Z</time>
      </trkpt>
      <trkpt lat="43.50358" lon="6.68848">
        <ele>92.7</ele>
        <time>2025-10-26T12:52:57Z</time>
      </trkpt>
      <trkpt lat="43.50358" lon="6.68847">
        <ele>92.8</ele>
        <time>2025-10-26T12:52:58Z</time>
      </trkpt>
      <trkpt lat="43.50358" lon="6.68847">
        <ele>92.8</ele>
        <time>2025-10-26T12:52:59Z</time>
      </trkpt>
      <trkpt lat="43.50358" lon="6.68847">
        <ele>92.9</ele>
        <time>2025-10-26T12:53:00Z</time>
      </trkpt>
      <trkpt lat="43.50358" lon="6.68847">
        <ele>92.8</ele>
        <time>2025-10-26T12:53:01Z</time>
      </trkpt>
      <trkpt lat="43.50358" lon="6.68847">
        <ele>92.7</ele>
        <time>2025-10-26T12:53:02Z</time>
      </trkpt>
      <trkpt lat="43.50358" lon="6.68847">
        <ele>92.6</ele>
        <time>2025-10-26T12:53:03Z</time>
      </trkpt>
      <trkpt lat="43.50358" lon="6.68847">
        <ele>92.6</ele>
        <time>2025-10-26T12:53:04Z</time>
      </trkpt>
      <trkpt lat="43.50358" lon="6.68847">
        <ele>92.6</ele>
        <time>2025-10-26T12:53:05Z</time>
      </trkpt>
      <trkpt lat="43.50358" lon="6.68847">
        <ele>92.6</ele>
        <time>2025-10-26T12:53:06Z</time>
      </trkpt>
      <trkpt lat="43.50358" lon="6.68847">
        <ele>92.6</ele>
        <time>2025-10-26T12:53:07Z</time>
      </trkpt>
      <trkpt lat="43.50358" lon="6.68847">
        <ele>92.6</ele>
        <time>2025-10-26T12:53:08Z</time>
      </trkpt>
      <trkpt lat="43.50358" lon="6.68847">
        <ele>92.7</ele>
        <time>2025-10-26T12:53:09Z</time>
      </trkpt>
      <trkpt lat="43.50358" lon="6.68846">
        <ele>92.8</ele>
        <time>2025-10-26T12:53:10Z</time>
      </trkpt>
      <trkpt lat="43.50358" lon="6.68846">
        <ele>92.8</ele>
        <time>2025-10-26T12:53:11Z</time>
      </trkpt>
      <trkpt lat="43.50358" lon="6.68846">
        <ele>92.8</ele>
        <time>2025-10-26T12:53:12Z</time>
      </trkpt>
      <trkpt lat="43.50358" lon="6.68846">
        <ele>92.8</ele>
        <time>2025-10-26T12:53:13Z</time>
      </trkpt>
      <trkpt lat="43.50358" lon="6.68846">
        <ele>92.9</ele>
        <time>2025-10-26T12:53:14Z</time>
      </trkpt>
      <trkpt lat="43.50358" lon="6.68846">
        <ele>92.9</ele>
        <time>2025-10-26T12:53:15Z</time>
      </trkpt>
      <trkpt lat="43.50358" lon="6.68846">
        <ele>92.8</ele>
        <time>2025-10-26T12:53:16Z</time>
      </trkpt>
      <trkpt lat="43.50358" lon="6.68846">
        <ele>92.6</ele>
        <time>2025-10-26T12:53:17Z</time>
      </trkpt>
      <trkpt lat="43.50358" lon="6.68846">
        <ele>92.5</ele>
        <time>2025-10-26T12:53:18Z</time>
      </trkpt>
      <trkpt lat="43.50358" lon="6.68846">
        <ele>92.4</ele>
        <time>2025-10-26T12:53:19Z</time>
      </trkpt>
      <trkpt lat="43.50357" lon="6.68846">
        <ele>92.3</ele>
        <time>2025-10-26T12:53:20Z</time>
      </trkpt>
      <trkpt lat="43.50357" lon="6.68846">
        <ele>92.3</ele>
        <time>2025-10-26T12:53:21Z</time>
      </trkpt>
      <trkpt lat="43.50357" lon="6.68846">
        <ele>92.3</ele>
        <time>2025-10-26T12:53:22Z</time>
      </trkpt>
      <trkpt lat="43.50357" lon="6.68846">
        <ele>92.3</ele>
        <time>2025-10-26T12:53:23Z</time>
      </trkpt>
      <trkpt lat="43.50357" lon="6.68846">
        <ele>92.3</ele>
        <time>2025-10-26T12:53:24Z</time>
      </trkpt>
      <trkpt lat="43.50357" lon="6.68846">
        <ele>92.3</ele>
        <time>2025-10-26T12:53:25Z</time>
      </trkpt>
      <trkpt lat="43.50357" lon="6.68846">
        <ele>92.3</ele>
        <time>2025-10-26T12:53:26Z</time>
      </trkpt>
      <trkpt lat="43.50357" lon="6.68846">
        <ele>92.3</ele>
        <time>2025-10-26T12:53:27Z</time>
      </trkpt>
      <trkpt lat="43.50357" lon="6.68846">
        <ele>92.3</ele>
        <time>2025-10-26T12:53:28Z</time>
      </trkpt>
      <trkpt lat="43.50357" lon="6.68846">
        <ele>92.3</ele>
        <time>2025-10-26T12:53:29Z</time>
      </trkpt>
      <trkpt lat="43.50357" lon="6.68846">
        <ele>92.3</ele>
        <time>2025-10-26T12:53:30Z</time>
      </trkpt>
      <trkpt lat="43.50357" lon="6.68846">
        <ele>92.2</ele>
        <time>2025-10-26T12:53:31Z</time>
      </trkpt>
      <trkpt lat="43.50357" lon="6.68846">
        <ele>92.2</ele>
        <time>2025-10-26T12:53:32Z</time>
      </trkpt>
      <trkpt lat="43.50357" lon="6.68846">
        <ele>92.2</ele>
        <time>2025-10-26T12:53:33Z</time>
      </trkpt>
      <trkpt lat="43.50357" lon="6.68846">
        <ele>92.3</ele>
        <time>2025-10-26T12:53:34Z</time>
      </trkpt>
      <trkpt lat="43.50357" lon="6.68847">
        <ele>92.4</ele>
        <time>2025-10-26T12:53:35Z</time>
      </trkpt>
      <trkpt lat="43.50357" lon="6.68847">
        <ele>92.4</ele>
        <time>2025-10-26T12:53:36Z</time>
      </trkpt>
      <trkpt lat="43.50357" lon="6.68847">
        <ele>92.3</ele>
        <time>2025-10-26T12:53:37Z</time>
      </trkpt>
      <trkpt lat="43.50357" lon="6.68847">
        <ele>92.3</ele>
        <time>2025-10-26T12:53:38Z</time>
      </trkpt>
      <trkpt lat="43.50357" lon="6.68847">
        <ele>92.1</ele>
        <time>2025-10-26T12:53:39Z</time>
      </trkpt>
      <trkpt lat="43.50357" lon="6.68847">
        <ele>92.1</ele>
        <time>2025-10-26T12:53:40Z</time>
      </trkpt>
      <trkpt lat="43.50357" lon="6.68847">
        <ele>92</ele>
        <time>2025-10-26T12:53:41Z</time>
      </trkpt>
      <trkpt lat="43.50357" lon="6.68847">
        <ele>92.1</ele>
        <time>2025-10-26T12:53:42Z</time>
      </trkpt>
      <trkpt lat="43.50357" lon="6.68847">
        <ele>92.2</ele>
        <time>2025-10-26T12:53:43Z</time>
      </trkpt>
      <trkpt lat="43.50357" lon="6.68847">
        <ele>92.3</ele>
        <time>2025-10-26T12:53:44Z</time>
      </trkpt>
      <trkpt lat="43.50357" lon="6.68847">
        <ele>92.5</ele>
        <time>2025-10-26T12:53:45Z</time>
      </trkpt>
      <trkpt lat="43.50357" lon="6.68847">
        <ele>92.6</ele>
        <time>2025-10-26T12:53:46Z</time>
      </trkpt>
      <trkpt lat="43.50358" lon="6.68848">
        <ele>92.7</ele>
        <time>2025-10-26T12:53:47Z</time>
      </trkpt>
      <trkpt lat="43.50358" lon="6.68848">
        <ele>92.7</ele>
        <time>2025-10-26T12:53:48Z</time>
      </trkpt>
      <trkpt lat="43.50358" lon="6.68848">
        <ele>92.6</ele>
        <time>2025-10-26T12:53:49Z</time>
      </trkpt>
      <trkpt lat="43.50358" lon="6.68848">
        <ele>92.6</ele>
        <time>2025-10-26T12:53:50Z</time>
      </trkpt>
      <trkpt lat="43.50358" lon="6.68848">
        <ele>92.5</ele>
        <time>2025-10-26T12:53:51Z</time>
      </trkpt>
      <trkpt lat="43.50357" lon="6.68848">
        <ele>92.4</ele>
        <time>2025-10-26T12:53:52Z</time>
      </trkpt>
      <trkpt lat="43.50357" lon="6.68848">
        <ele>92.4</ele>
        <time>2025-10-26T12:53:53Z</time>
      </trkpt>
      <trkpt lat="43.50357" lon="6.68849">
        <ele>92.3</ele>
        <time>2025-10-26T12:53:54Z</time>
      </trkpt>
      <trkpt lat="43.50357" lon="6.68849">
        <ele>92.4</ele>
        <time>2025-10-26T12:53:55Z</time>
      </trkpt>
      <trkpt lat="43.50358" lon="6.68849">
        <ele>92.6</ele>
        <time>2025-10-26T12:53:56Z</time>
      </trkpt>
      <trkpt lat="43.50357" lon="6.68849">
        <ele>92.8</ele>
        <time>2025-10-26T12:53:57Z</time>
      </trkpt>
      <trkpt lat="43.50358" lon="6.68849">
        <ele>92.8</ele>
        <time>2025-10-26T12:53:58Z</time>
      </trkpt>
      <trkpt lat="43.50358" lon="6.68849">
        <ele>92.7</ele>
        <time>2025-10-26T12:53:59Z</time>
      </trkpt>
      <trkpt lat="43.50358" lon="6.68849">
        <ele>92.6</ele>
        <time>2025-10-26T12:54:00Z</time>
      </trkpt>
      <trkpt lat="43.50358" lon="6.68849">
        <ele>92.5</ele>
        <time>2025-10-26T12:54:01Z</time>
      </trkpt>
      <trkpt lat="43.50358" lon="6.68849">
        <ele>92.4</ele>
        <time>2025-10-26T12:54:02Z</time>
      </trkpt>
      <trkpt lat="43.50358" lon="6.68849">
        <ele>92.4</ele>
        <time>2025-10-26T12:54:03Z</time>
      </trkpt>
      <trkpt lat="43.50358" lon="6.68849">
        <ele>92.4</ele>
        <time>2025-10-26T12:54:04Z</time>
      </trkpt>
      <trkpt lat="43.50358" lon="6.68849">
        <ele>92.4</ele>
        <time>2025-10-26T12:54:05Z</time>
      </trkpt>
      <trkpt lat="43.50358" lon="6.68849">
        <ele>92.4</ele>
        <time>2025-10-26T12:54:06Z</time>
      </trkpt>
      <trkpt lat="43.50358" lon="6.68849">
        <ele>92.5</ele>
        <time>2025-10-26T12:54:07Z</time>
      </trkpt>
      <trkpt lat="43.50359" lon="6.68849">
        <ele>92.6</ele>
        <time>2025-10-26T12:54:08Z</time>
      </trkpt>
      <trkpt lat="43.50359" lon="6.68849">
        <ele>92.6</ele>
        <time>2025-10-26T12:54:09Z</time>
      </trkpt>
      <trkpt lat="43.50359" lon="6.68849">
        <ele>92.6</ele>
        <time>2025-10-26T12:54:10Z</time>
      </trkpt>
      <trkpt lat="43.50358" lon="6.68848">
        <ele>92.5</ele>
        <time>2025-10-26T12:54:11Z</time>
      </trkpt>
      <trkpt lat="43.50358" lon="6.68848">
        <ele>92.4</ele>
        <time>2025-10-26T12:54:12Z</time>
      </trkpt>
      <trkpt lat="43.50358" lon="6.68848">
        <ele>92.6</ele>
        <time>2025-10-26T12:54:13Z</time>
      </trkpt>
      <trkpt lat="43.50358" lon="6.68848">
        <ele>92.8</ele>
        <time>2025-10-26T12:54:14Z</time>
      </trkpt>
      <trkpt lat="43.50358" lon="6.68848">
        <ele>92.8</ele>
        <time>2025-10-26T12:54:15Z</time>
      </trkpt>
      <trkpt lat="43.50358" lon="6.68848">
        <ele>92.8</ele>
        <time>2025-10-26T12:54:16Z</time>
      </trkpt>
      <trkpt lat="43.50358" lon="6.68848">
        <ele>92.8</ele>
        <time>2025-10-26T12:54:17Z</time>
      </trkpt>
      <trkpt lat="43.50358" lon="6.68847">
        <ele>92.7</ele>
        <time>2025-10-26T12:54:18Z</time>
      </trkpt>
      <trkpt lat="43.50358" lon="6.68847">
        <ele>92.6</ele>
        <time>2025-10-26T12:54:19Z</time>
      </trkpt>
      <trkpt lat="43.50358" lon="6.68847">
        <ele>92.5</ele>
        <time>2025-10-26T12:54:20Z</time>
      </trkpt>
      <trkpt lat="43.50358" lon="6.68847">
        <ele>92.5</ele>
        <time>2025-10-26T12:54:21Z</time>
      </trkpt>
      <trkpt lat="43.50358" lon="6.68847">
        <ele>92.4</ele>
        <time>2025-10-26T12:54:22Z</time>
      </trkpt>
      <trkpt lat="43.50358" lon="6.68847">
        <ele>92.3</ele>
        <time>2025-10-26T12:54:23Z</time>
      </trkpt>
      <trkpt lat="43.50359" lon="6.68847">
        <ele>92.2</ele>
        <time>2025-10-26T12:54:24Z</time>
      </trkpt>
      <trkpt lat="43.50359" lon="6.68847">
        <ele>92.3</ele>
        <time>2025-10-26T12:54:25Z</time>
      </trkpt>
      <trkpt lat="43.50359" lon="6.68846">
        <ele>92.4</ele>
        <time>2025-10-26T12:54:26Z</time>
      </trkpt>
      <trkpt lat="43.5036" lon="6.68846">
        <ele>92.4</ele>
        <time>2025-10-26T12:54:27Z</time>
      </trkpt>
      <trkpt lat="43.5036" lon="6.68845">
        <ele>92.3</ele>
        <time>2025-10-26T12:54:28Z</time>
      </trkpt>
      <trkpt lat="43.50361" lon="6.68843">
        <ele>92.3</ele>
        <time>2025-10-26T12:54:29Z</time>
      </trkpt>
      <trkpt lat="43.50361" lon="6.68843">
        <ele>92.3</ele>
        <time>2025-10-26T12:54:30Z</time>
      </trkpt>
      <trkpt lat="43.50362" lon="6.68841">
        <ele>92.3</ele>
        <time>2025-10-26T12:54:31Z</time>
      </trkpt>
      <trkpt lat="43.50362" lon="6.6884">
        <ele>92.3</ele>
        <time>2025-10-26T12:54:32Z</time>
      </trkpt>
      <trkpt lat="43.50363" lon="6.68839">
        <ele>92.2</ele>
        <time>2025-10-26T12:54:33Z</time>
      </trkpt>
      <trkpt lat="43.50363" lon="6.68838">
        <ele>92.1</ele>
        <time>2025-10-26T12:54:34Z</time>
      </trkpt>
      <trkpt lat="43.50364" lon="6.68837">
        <ele>92.1</ele>
        <time>2025-10-26T12:54:35Z</time>
      </trkpt>
      <trkpt lat="43.50364" lon="6.68836">
        <ele>92.1</ele>
        <time>2025-10-26T12:54:36Z</time>
      </trkpt>
      <trkpt lat="43.50364" lon="6.68834">
        <ele>92.2</ele>
        <time>2025-10-26T12:54:37Z</time>
      </trkpt>
      <trkpt lat="43.50364" lon="6.68833">
        <ele>92.3</ele>
        <time>2025-10-26T12:54:38Z</time>
      </trkpt>
      <trkpt lat="43.50365" lon="6.68832">
        <ele>92.3</ele>
        <time>2025-10-26T12:54:39Z</time>
      </trkpt>
      <trkpt lat="43.50366" lon="6.6883">
        <ele>92.4</ele>
        <time>2025-10-26T12:54:40Z</time>
      </trkpt>
      <trkpt lat="43.50366" lon="6.68829">
        <ele>92.3</ele>
        <time>2025-10-26T12:54:41Z</time>
      </trkpt>
      <trkpt lat="43.50366" lon="6.68827">
        <ele>92.2</ele>
        <time>2025-10-26T12:54:42Z</time>
      </trkpt>
      <trkpt lat="43.50367" lon="6.68826">
        <ele>92.3</ele>
        <time>2025-10-26T12:54:43Z</time>
      </trkpt>
      <trkpt lat="43.50367" lon="6.68824">
        <ele>92.5</ele>
        <time>2025-10-26T12:54:44Z</time>
      </trkpt>
      <trkpt lat="43.50368" lon="6.68823">
        <ele>92.6</ele>
        <time>2025-10-26T12:54:45Z</time>
      </trkpt>
      <trkpt lat="43.50369" lon="6.68821">
        <ele>92.9</ele>
        <time>2025-10-26T12:54:46Z</time>
      </trkpt>
      <trkpt lat="43.50369" lon="6.6882">
        <ele>92.9</ele>
        <time>2025-10-26T12:54:47Z</time>
      </trkpt>
      <trkpt lat="43.50369" lon="6.68819">
        <ele>92.8</ele>
        <time>2025-10-26T12:54:48Z</time>
      </trkpt>
      <trkpt lat="43.5037" lon="6.68817">
        <ele>92.7</ele>
        <time>2025-10-26T12:54:49Z</time>
      </trkpt>
      <trkpt lat="43.5037" lon="6.68816">
        <ele>92.6</ele>
        <time>2025-10-26T12:54:50Z</time>
      </trkpt>
      <trkpt lat="43.50371" lon="6.68815">
        <ele>92.6</ele>
        <time>2025-10-26T12:54:51Z</time>
      </trkpt>
      <trkpt lat="43.50371" lon="6.68814">
        <ele>92.6</ele>
        <time>2025-10-26T12:54:52Z</time>
      </trkpt>
      <trkpt lat="43.50372" lon="6.68812">
        <ele>92.6</ele>
        <time>2025-10-26T12:54:53Z</time>
      </trkpt>
      <trkpt lat="43.50372" lon="6.68811">
        <ele>92.8</ele>
        <time>2025-10-26T12:54:54Z</time>
      </trkpt>
      <trkpt lat="43.50372" lon="6.68809">
        <ele>93</ele>
        <time>2025-10-26T12:54:55Z</time>
      </trkpt>
      <trkpt lat="43.50373" lon="6.68808">
        <ele>93</ele>
        <time>2025-10-26T12:54:56Z</time>
      </trkpt>
      <trkpt lat="43.50373" lon="6.68806">
        <ele>92.9</ele>
        <time>2025-10-26T12:54:57Z</time>
      </trkpt>
      <trkpt lat="43.50374" lon="6.68805">
        <ele>92.9</ele>
        <time>2025-10-26T12:54:58Z</time>
      </trkpt>
      <trkpt lat="43.50374" lon="6.68803">
        <ele>93</ele>
        <time>2025-10-26T12:54:59Z</time>
      </trkpt>
      <trkpt lat="43.50375" lon="6.68802">
        <ele>93</ele>
        <time>2025-10-26T12:55:00Z</time>
      </trkpt>
      <trkpt lat="43.50375" lon="6.68801">
        <ele>93</ele>
        <time>2025-10-26T12:55:01Z</time>
      </trkpt>
      <trkpt lat="43.50375" lon="6.68799">
        <ele>93</ele>
        <time>2025-10-26T12:55:02Z</time>
      </trkpt>
      <trkpt lat="43.50376" lon="6.68798">
        <ele>93</ele>
        <time>2025-10-26T12:55:03Z</time>
      </trkpt>
      <trkpt lat="43.50376" lon="6.68796">
        <ele>92.9</ele>
        <time>2025-10-26T12:55:04Z</time>
      </trkpt>
      <trkpt lat="43.50377" lon="6.68795">
        <ele>92.9</ele>
        <time>2025-10-26T12:55:05Z</time>
      </trkpt>
      <trkpt lat="43.50378" lon="6.68794">
        <ele>92.9</ele>
        <time>2025-10-26T12:55:06Z</time>
      </trkpt>
      <trkpt lat="43.50378" lon="6.68792">
        <ele>92.9</ele>
        <time>2025-10-26T12:55:07Z</time>
      </trkpt>
      <trkpt lat="43.50378" lon="6.68791">
        <ele>92.9</ele>
        <time>2025-10-26T12:55:08Z</time>
      </trkpt>
      <trkpt lat="43.50378" lon="6.6879">
        <ele>93</ele>
        <time>2025-10-26T12:55:09Z</time>
      </trkpt>
      <trkpt lat="43.50379" lon="6.68788">
        <ele>93</ele>
        <time>2025-10-26T12:55:10Z</time>
      </trkpt>
      <trkpt lat="43.50379" lon="6.68787">
        <ele>93</ele>
        <time>2025-10-26T12:55:11Z</time>
      </trkpt>
      <trkpt lat="43.5038" lon="6.68786">
        <ele>93</ele>
        <time>2025-10-26T12:55:12Z</time>
      </trkpt>
      <trkpt lat="43.5038" lon="6.68785">
        <ele>93.1</ele>
        <time>2025-10-26T12:55:13Z</time>
      </trkpt>
      <trkpt lat="43.50381" lon="6.68783">
        <ele>93.2</ele>
        <time>2025-10-26T12:55:14Z</time>
      </trkpt>
      <trkpt lat="43.50381" lon="6.68782">
        <ele>93.2</ele>
        <time>2025-10-26T12:55:15Z</time>
      </trkpt>
      <trkpt lat="43.50382" lon="6.6878">
        <ele>93.3</ele>
        <time>2025-10-26T12:55:16Z</time>
      </trkpt>
      <trkpt lat="43.50383" lon="6.68778">
        <ele>93.4</ele>
        <time>2025-10-26T12:55:17Z</time>
      </trkpt>
      <trkpt lat="43.50383" lon="6.68778">
        <ele>93.5</ele>
        <time>2025-10-26T12:55:18Z</time>
      </trkpt>
      <trkpt lat="43.50383" lon="6.68776">
        <ele>93.5</ele>
        <time>2025-10-26T12:55:19Z</time>
      </trkpt>
      <trkpt lat="43.50384" lon="6.68775">
        <ele>93.6</ele>
        <time>2025-10-26T12:55:20Z</time>
      </trkpt>
      <trkpt lat="43.50384" lon="6.68774">
        <ele>93.7</ele>
        <time>2025-10-26T12:55:21Z</time>
      </trkpt>
      <trkpt lat="43.50385" lon="6.68773">
        <ele>93.8</ele>
        <time>2025-10-26T12:55:22Z</time>
      </trkpt>
      <trkpt lat="43.50386" lon="6.68771">
        <ele>93.8</ele>
        <time>2025-10-26T12:55:23Z</time>
      </trkpt>
      <trkpt lat="43.50386" lon="6.68769">
        <ele>93.9</ele>
        <time>2025-10-26T12:55:24Z</time>
      </trkpt>
      <trkpt lat="43.50387" lon="6.68768">
        <ele>93.9</ele>
        <time>2025-10-26T12:55:25Z</time>
      </trkpt>
      <trkpt lat="43.50387" lon="6.68767">
        <ele>93.9</ele>
        <time>2025-10-26T12:55:26Z</time>
      </trkpt>
      <trkpt lat="43.50387" lon="6.68765">
        <ele>93.8</ele>
        <time>2025-10-26T12:55:27Z</time>
      </trkpt>
      <trkpt lat="43.50388" lon="6.68764">
        <ele>93.7</ele>
        <time>2025-10-26T12:55:28Z</time>
      </trkpt>
      <trkpt lat="43.50388" lon="6.68762">
        <ele>93.7</ele>
        <time>2025-10-26T12:55:29Z</time>
      </trkpt>
      <trkpt lat="43.50388" lon="6.68761">
        <ele>93.7</ele>
        <time>2025-10-26T12:55:30Z</time>
      </trkpt>
      <trkpt lat="43.50389" lon="6.6876">
        <ele>93.7</ele>
        <time>2025-10-26T12:55:31Z</time>
      </trkpt>
      <trkpt lat="43.50389" lon="6.68759">
        <ele>93.9</ele>
        <time>2025-10-26T12:55:32Z</time>
      </trkpt>
      <trkpt lat="43.50389" lon="6.68758">
        <ele>93.9</ele>
        <time>2025-10-26T12:55:33Z</time>
      </trkpt>
      <trkpt lat="43.50389" lon="6.68757">
        <ele>94.1</ele>
        <time>2025-10-26T12:55:34Z</time>
      </trkpt>
      <trkpt lat="43.5039" lon="6.68755">
        <ele>94.3</ele>
        <time>2025-10-26T12:55:35Z</time>
      </trkpt>
      <trkpt lat="43.5039" lon="6.68754">
        <ele>94.5</ele>
        <time>2025-10-26T12:55:36Z</time>
      </trkpt>
      <trkpt lat="43.50391" lon="6.68752">
        <ele>94.6</ele>
        <time>2025-10-26T12:55:37Z</time>
      </trkpt>
      <trkpt lat="43.50391" lon="6.68751">
        <ele>94.8</ele>
        <time>2025-10-26T12:55:38Z</time>
      </trkpt>
      <trkpt lat="43.50391" lon="6.6875">
        <ele>94.9</ele>
        <time>2025-10-26T12:55:39Z</time>
      </trkpt>
      <trkpt lat="43.50392" lon="6.68749">
        <ele>95</ele>
        <time>2025-10-26T12:55:40Z</time>
      </trkpt>
      <trkpt lat="43.50393" lon="6.68747">
        <ele>95.1</ele>
        <time>2025-10-26T12:55:41Z</time>
      </trkpt>
      <trkpt lat="43.50393" lon="6.68746">
        <ele>95.2</ele>
        <time>2025-10-26T12:55:42Z</time>
      </trkpt>
      <trkpt lat="43.50394" lon="6.68744">
        <ele>95.2</ele>
        <time>2025-10-26T12:55:43Z</time>
      </trkpt>
      <trkpt lat="43.50394" lon="6.68743">
        <ele>95.3</ele>
        <time>2025-10-26T12:55:44Z</time>
      </trkpt>
      <trkpt lat="43.50394" lon="6.68741">
        <ele>95.3</ele>
        <time>2025-10-26T12:55:45Z</time>
      </trkpt>
      <trkpt lat="43.50395" lon="6.6874">
        <ele>95.3</ele>
        <time>2025-10-26T12:55:46Z</time>
      </trkpt>
      <trkpt lat="43.50395" lon="6.68738">
        <ele>95.3</ele>
        <time>2025-10-26T12:55:47Z</time>
      </trkpt>
      <trkpt lat="43.50395" lon="6.68737">
        <ele>95.3</ele>
        <time>2025-10-26T12:55:48Z</time>
      </trkpt>
      <trkpt lat="43.50396" lon="6.68736">
        <ele>95.3</ele>
        <time>2025-10-26T12:55:49Z</time>
      </trkpt>
      <trkpt lat="43.50397" lon="6.68734">
        <ele>95.4</ele>
        <time>2025-10-26T12:55:50Z</time>
      </trkpt>
      <trkpt lat="43.50397" lon="6.68733">
        <ele>95.4</ele>
        <time>2025-10-26T12:55:51Z</time>
      </trkpt>
      <trkpt lat="43.50398" lon="6.68731">
        <ele>95.4</ele>
        <time>2025-10-26T12:55:52Z</time>
      </trkpt>
      <trkpt lat="43.50398" lon="6.6873">
        <ele>95.6</ele>
        <time>2025-10-26T12:55:53Z</time>
      </trkpt>
      <trkpt lat="43.50398" lon="6.68728">
        <ele>95.6</ele>
        <time>2025-10-26T12:55:54Z</time>
      </trkpt>
      <trkpt lat="43.50399" lon="6.68727">
        <ele>95.6</ele>
        <time>2025-10-26T12:55:55Z</time>
      </trkpt>
      <trkpt lat="43.50399" lon="6.68726">
        <ele>95.8</ele>
        <time>2025-10-26T12:55:56Z</time>
      </trkpt>
      <trkpt lat="43.504" lon="6.68725">
        <ele>95.7</ele>
        <time>2025-10-26T12:55:57Z</time>
      </trkpt>
      <trkpt lat="43.504" lon="6.68723">
        <ele>95.7</ele>
        <time>2025-10-26T12:55:58Z</time>
      </trkpt>
      <trkpt lat="43.50401" lon="6.68722">
        <ele>95.8</ele>
        <time>2025-10-26T12:55:59Z</time>
      </trkpt>
      <trkpt lat="43.50401" lon="6.6872">
        <ele>95.9</ele>
        <time>2025-10-26T12:56:00Z</time>
      </trkpt>
      <trkpt lat="43.50401" lon="6.68719">
        <ele>96.1</ele>
        <time>2025-10-26T12:56:01Z</time>
      </trkpt>
      <trkpt lat="43.50402" lon="6.68717">
        <ele>96.2</ele>
        <time>2025-10-26T12:56:02Z</time>
      </trkpt>
      <trkpt lat="43.50402" lon="6.68716">
        <ele>96.3</ele>
        <time>2025-10-26T12:56:03Z</time>
      </trkpt>
      <trkpt lat="43.50402" lon="6.68715">
        <ele>96.3</ele>
        <time>2025-10-26T12:56:04Z</time>
      </trkpt>
      <trkpt lat="43.50403" lon="6.68714">
        <ele>96.3</ele>
        <time>2025-10-26T12:56:05Z</time>
      </trkpt>
      <trkpt lat="43.50403" lon="6.68712">
        <ele>96.4</ele>
        <time>2025-10-26T12:56:06Z</time>
      </trkpt>
      <trkpt lat="43.50404" lon="6.68711">
        <ele>96.4</ele>
        <time>2025-10-26T12:56:07Z</time>
      </trkpt>
      <trkpt lat="43.50404" lon="6.68709">
        <ele>96.5</ele>
        <time>2025-10-26T12:56:08Z</time>
      </trkpt>
      <trkpt lat="43.50404" lon="6.68708">
        <ele>96.5</ele>
        <time>2025-10-26T12:56:09Z</time>
      </trkpt>
      <trkpt lat="43.50405" lon="6.68706">
        <ele>96.6</ele>
        <time>2025-10-26T12:56:10Z</time>
      </trkpt>
      <trkpt lat="43.50405" lon="6.68705">
        <ele>96.7</ele>
        <time>2025-10-26T12:56:11Z</time>
      </trkpt>
      <trkpt lat="43.50405" lon="6.68704">
        <ele>96.9</ele>
        <time>2025-10-26T12:56:12Z</time>
      </trkpt>
      <trkpt lat="43.50405" lon="6.68703">
        <ele>97.1</ele>
        <time>2025-10-26T12:56:13Z</time>
      </trkpt>
      <trkpt lat="43.50406" lon="6.68701">
        <ele>97.3</ele>
        <time>2025-10-26T12:56:14Z</time>
      </trkpt>
      <trkpt lat="43.50406" lon="6.687">
        <ele>97.4</ele>
        <time>2025-10-26T12:56:15Z</time>
      </trkpt>
      <trkpt lat="43.50406" lon="6.68699">
        <ele>97.5</ele>
        <time>2025-10-26T12:56:16Z</time>
      </trkpt>
      <trkpt lat="43.50407" lon="6.68697">
        <ele>97.5</ele>
        <time>2025-10-26T12:56:17Z</time>
      </trkpt>
      <trkpt lat="43.50407" lon="6.68695">
        <ele>97.7</ele>
        <time>2025-10-26T12:56:18Z</time>
      </trkpt>
      <trkpt lat="43.50408" lon="6.68693">
        <ele>97.6</ele>
        <time>2025-10-26T12:56:19Z</time>
      </trkpt>
      <trkpt lat="43.50408" lon="6.68691">
        <ele>97.7</ele>
        <time>2025-10-26T12:56:20Z</time>
      </trkpt>
      <trkpt lat="43.50408" lon="6.6869">
        <ele>97.6</ele>
        <time>2025-10-26T12:56:21Z</time>
      </trkpt>
      <trkpt lat="43.50409" lon="6.68688">
        <ele>97.6</ele>
        <time>2025-10-26T12:56:22Z</time>
      </trkpt>
      <trkpt lat="43.50409" lon="6.68687">
        <ele>97.5</ele>
        <time>2025-10-26T12:56:23Z</time>
      </trkpt>
      <trkpt lat="43.50409" lon="6.68685">
        <ele>97.6</ele>
        <time>2025-10-26T12:56:24Z</time>
      </trkpt>
      <trkpt lat="43.5041" lon="6.68684">
        <ele>97.6</ele>
        <time>2025-10-26T12:56:25Z</time>
      </trkpt>
      <trkpt lat="43.50411" lon="6.68683">
        <ele>97.6</ele>
        <time>2025-10-26T12:56:26Z</time>
      </trkpt>
      <trkpt lat="43.50411" lon="6.68681">
        <ele>97.6</ele>
        <time>2025-10-26T12:56:27Z</time>
      </trkpt>
      <trkpt lat="43.50412" lon="6.6868">
        <ele>97.6</ele>
        <time>2025-10-26T12:56:28Z</time>
      </trkpt>
      <trkpt lat="43.50412" lon="6.68678">
        <ele>97.7</ele>
        <time>2025-10-26T12:56:29Z</time>
      </trkpt>
      <trkpt lat="43.50413" lon="6.68677">
        <ele>97.7</ele>
        <time>2025-10-26T12:56:30Z</time>
      </trkpt>
      <trkpt lat="43.50413" lon="6.68675">
        <ele>97.7</ele>
        <time>2025-10-26T12:56:31Z</time>
      </trkpt>
      <trkpt lat="43.50414" lon="6.68673">
        <ele>97.7</ele>
        <time>2025-10-26T12:56:32Z</time>
      </trkpt>
      <trkpt lat="43.50414" lon="6.68671">
        <ele>97.7</ele>
        <time>2025-10-26T12:56:33Z</time>
      </trkpt>
      <trkpt lat="43.50415" lon="6.6867">
        <ele>97.7</ele>
        <time>2025-10-26T12:56:34Z</time>
      </trkpt>
      <trkpt lat="43.50415" lon="6.68668">
        <ele>97.6</ele>
        <time>2025-10-26T12:56:35Z</time>
      </trkpt>
      <trkpt lat="43.50416" lon="6.68667">
        <ele>97.6</ele>
        <time>2025-10-26T12:56:36Z</time>
      </trkpt>
      <trkpt lat="43.50416" lon="6.68665">
        <ele>97.8</ele>
        <time>2025-10-26T12:56:37Z</time>
      </trkpt>
      <trkpt lat="43.50417" lon="6.68664">
        <ele>97.9</ele>
        <time>2025-10-26T12:56:38Z</time>
      </trkpt>
      <trkpt lat="43.50417" lon="6.68662">
        <ele>98</ele>
        <time>2025-10-26T12:56:39Z</time>
      </trkpt>
      <trkpt lat="43.50418" lon="6.68661">
        <ele>98.1</ele>
        <time>2025-10-26T12:56:40Z</time>
      </trkpt>
      <trkpt lat="43.50419" lon="6.68659">
        <ele>98</ele>
        <time>2025-10-26T12:56:41Z</time>
      </trkpt>
      <trkpt lat="43.50419" lon="6.68658">
        <ele>98</ele>
        <time>2025-10-26T12:56:42Z</time>
      </trkpt>
      <trkpt lat="43.50419" lon="6.68656">
        <ele>98</ele>
        <time>2025-10-26T12:56:43Z</time>
      </trkpt>
      <trkpt lat="43.5042" lon="6.68655">
        <ele>98</ele>
        <time>2025-10-26T12:56:44Z</time>
      </trkpt>
      <trkpt lat="43.5042" lon="6.68653">
        <ele>97.9</ele>
        <time>2025-10-26T12:56:45Z</time>
      </trkpt>
      <trkpt lat="43.50421" lon="6.68652">
        <ele>97.8</ele>
        <time>2025-10-26T12:56:46Z</time>
      </trkpt>
      <trkpt lat="43.50421" lon="6.68651">
        <ele>97.6</ele>
        <time>2025-10-26T12:56:47Z</time>
      </trkpt>
      <trkpt lat="43.50422" lon="6.68649">
        <ele>97.5</ele>
        <time>2025-10-26T12:56:48Z</time>
      </trkpt>
      <trkpt lat="43.50422" lon="6.68648">
        <ele>97.3</ele>
        <time>2025-10-26T12:56:49Z</time>
      </trkpt>
      <trkpt lat="43.50422" lon="6.68646">
        <ele>97.2</ele>
        <time>2025-10-26T12:56:50Z</time>
      </trkpt>
      <trkpt lat="43.50423" lon="6.68645">
        <ele>97.2</ele>
        <time>2025-10-26T12:56:51Z</time>
      </trkpt>
      <trkpt lat="43.50423" lon="6.68643">
        <ele>97.2</ele>
        <time>2025-10-26T12:56:52Z</time>
      </trkpt>
      <trkpt lat="43.50423" lon="6.68641">
        <ele>97.2</ele>
        <time>2025-10-26T12:56:53Z</time>
      </trkpt>
      <trkpt lat="43.50424" lon="6.6864">
        <ele>97.3</ele>
        <time>2025-10-26T12:56:54Z</time>
      </trkpt>
      <trkpt lat="43.50424" lon="6.68638">
        <ele>97.1</ele>
        <time>2025-10-26T12:56:55Z</time>
      </trkpt>
      <trkpt lat="43.50424" lon="6.68636">
        <ele>96.9</ele>
        <time>2025-10-26T12:56:56Z</time>
      </trkpt>
      <trkpt lat="43.50425" lon="6.68635">
        <ele>96.7</ele>
        <time>2025-10-26T12:56:57Z</time>
      </trkpt>
      <trkpt lat="43.50425" lon="6.68633">
        <ele>96.6</ele>
        <time>2025-10-26T12:56:58Z</time>
      </trkpt>
      <trkpt lat="43.50426" lon="6.68631">
        <ele>96.5</ele>
        <time>2025-10-26T12:56:59Z</time>
      </trkpt>
      <trkpt lat="43.50426" lon="6.6863">
        <ele>96.5</ele>
        <time>2025-10-26T12:57:00Z</time>
      </trkpt>
      <trkpt lat="43.50427" lon="6.68629">
        <ele>96.5</ele>
        <time>2025-10-26T12:57:01Z</time>
      </trkpt>
      <trkpt lat="43.50427" lon="6.68627">
        <ele>96.5</ele>
        <time>2025-10-26T12:57:02Z</time>
      </trkpt>
      <trkpt lat="43.50428" lon="6.68625">
        <ele>96.5</ele>
        <time>2025-10-26T12:57:03Z</time>
      </trkpt>
      <trkpt lat="43.50428" lon="6.68624">
        <ele>96.5</ele>
        <time>2025-10-26T12:57:04Z</time>
      </trkpt>
      <trkpt lat="43.50429" lon="6.68622">
        <ele>96.5</ele>
        <time>2025-10-26T12:57:05Z</time>
      </trkpt>
      <trkpt lat="43.50429" lon="6.68621">
        <ele>96.5</ele>
        <time>2025-10-26T12:57:06Z</time>
      </trkpt>
      <trkpt lat="43.5043" lon="6.68619">
        <ele>96.4</ele>
        <time>2025-10-26T12:57:07Z</time>
      </trkpt>
      <trkpt lat="43.5043" lon="6.68618">
        <ele>96.3</ele>
        <time>2025-10-26T12:57:08Z</time>
      </trkpt>
      <trkpt lat="43.50431" lon="6.68616">
        <ele>96.2</ele>
        <time>2025-10-26T12:57:09Z</time>
      </trkpt>
      <trkpt lat="43.50431" lon="6.68614">
        <ele>96.1</ele>
        <time>2025-10-26T12:57:10Z</time>
      </trkpt>
      <trkpt lat="43.50432" lon="6.68613">
        <ele>96</ele>
        <time>2025-10-26T12:57:11Z</time>
      </trkpt>
      <trkpt lat="43.50432" lon="6.68611">
        <ele>95.9</ele>
        <time>2025-10-26T12:57:12Z</time>
      </trkpt>
      <trkpt lat="43.50433" lon="6.6861">
        <ele>95.8</ele>
        <time>2025-10-26T12:57:13Z</time>
      </trkpt>
      <trkpt lat="43.50433" lon="6.68608">
        <ele>95.7</ele>
        <time>2025-10-26T12:57:14Z</time>
      </trkpt>
      <trkpt lat="43.50434" lon="6.68606">
        <ele>95.7</ele>
        <time>2025-10-26T12:57:15Z</time>
      </trkpt>
      <trkpt lat="43.50434" lon="6.68605">
        <ele>95.4</ele>
        <time>2025-10-26T12:57:16Z</time>
      </trkpt>
      <trkpt lat="43.50435" lon="6.68603">
        <ele>95.3</ele>
        <time>2025-10-26T12:57:17Z</time>
      </trkpt>
      <trkpt lat="43.50435" lon="6.68601">
        <ele>95.2</ele>
        <time>2025-10-26T12:57:18Z</time>
      </trkpt>
      <trkpt lat="43.50436" lon="6.686">
        <ele>95.1</ele>
        <time>2025-10-26T12:57:19Z</time>
      </trkpt>
      <trkpt lat="43.50436" lon="6.68598">
        <ele>95.1</ele>
        <time>2025-10-26T12:57:20Z</time>
      </trkpt>
      <trkpt lat="43.50437" lon="6.68597">
        <ele>95.1</ele>
        <time>2025-10-26T12:57:21Z</time>
      </trkpt>
      <trkpt lat="43.50437" lon="6.68595">
        <ele>95.1</ele>
        <time>2025-10-26T12:57:22Z</time>
      </trkpt>
      <trkpt lat="43.50438" lon="6.68593">
        <ele>94.9</ele>
        <time>2025-10-26T12:57:23Z</time>
      </trkpt>
      <trkpt lat="43.50438" lon="6.68591">
        <ele>94.8</ele>
        <time>2025-10-26T12:57:24Z</time>
      </trkpt>
      <trkpt lat="43.50438" lon="6.6859">
        <ele>94.8</ele>
        <time>2025-10-26T12:57:25Z</time>
      </trkpt>
      <trkpt lat="43.50439" lon="6.68589">
        <ele>94.8</ele>
        <time>2025-10-26T12:57:26Z</time>
      </trkpt>
      <trkpt lat="43.50439" lon="6.68587">
        <ele>94.8</ele>
        <time>2025-10-26T12:57:27Z</time>
      </trkpt>
      <trkpt lat="43.5044" lon="6.68586">
        <ele>94.7</ele>
        <time>2025-10-26T12:57:28Z</time>
      </trkpt>
      <trkpt lat="43.5044" lon="6.68584">
        <ele>94.7</ele>
        <time>2025-10-26T12:57:29Z</time>
      </trkpt>
      <trkpt lat="43.50441" lon="6.68582">
        <ele>94.5</ele>
        <time>2025-10-26T12:57:30Z</time>
      </trkpt>
      <trkpt lat="43.50441" lon="6.6858">
        <ele>94.6</ele>
        <time>2025-10-26T12:57:31Z</time>
      </trkpt>
      <trkpt lat="43.50442" lon="6.68578">
        <ele>94.5</ele>
        <time>2025-10-26T12:57:32Z</time>
      </trkpt>
      <trkpt lat="43.50442" lon="6.68577">
        <ele>94.4</ele>
        <time>2025-10-26T12:57:33Z</time>
      </trkpt>
      <trkpt lat="43.50442" lon="6.68576">
        <ele>94.3</ele>
        <time>2025-10-26T12:57:34Z</time>
      </trkpt>
      <trkpt lat="43.50443" lon="6.68575">
        <ele>94.2</ele>
        <time>2025-10-26T12:57:35Z</time>
      </trkpt>
      <trkpt lat="43.50444" lon="6.68573">
        <ele>94.2</ele>
        <time>2025-10-26T12:57:36Z</time>
      </trkpt>
      <trkpt lat="43.50444" lon="6.68572">
        <ele>94.3</ele>
        <time>2025-10-26T12:57:37Z</time>
      </trkpt>
      <trkpt lat="43.50444" lon="6.6857">
        <ele>94.3</ele>
        <time>2025-10-26T12:57:38Z</time>
      </trkpt>
      <trkpt lat="43.50444" lon="6.68568">
        <ele>94.4</ele>
        <time>2025-10-26T12:57:39Z</time>
      </trkpt>
      <trkpt lat="43.50445" lon="6.68566">
        <ele>94.4</ele>
        <time>2025-10-26T12:57:40Z</time>
      </trkpt>
      <trkpt lat="43.50446" lon="6.68565">
        <ele>94.5</ele>
        <time>2025-10-26T12:57:41Z</time>
      </trkpt>
      <trkpt lat="43.50446" lon="6.68563">
        <ele>94.5</ele>
        <time>2025-10-26T12:57:42Z</time>
      </trkpt>
      <trkpt lat="43.50447" lon="6.68562">
        <ele>94.5</ele>
        <time>2025-10-26T12:57:43Z</time>
      </trkpt>
      <trkpt lat="43.50447" lon="6.68561">
        <ele>94.5</ele>
        <time>2025-10-26T12:57:44Z</time>
      </trkpt>
      <trkpt lat="43.50447" lon="6.6856">
        <ele>94.4</ele>
        <time>2025-10-26T12:57:45Z</time>
      </trkpt>
      <trkpt lat="43.50448" lon="6.68558">
        <ele>94.5</ele>
        <time>2025-10-26T12:57:46Z</time>
      </trkpt>
      <trkpt lat="43.50449" lon="6.68556">
        <ele>94.4</ele>
        <time>2025-10-26T12:57:47Z</time>
      </trkpt>
      <trkpt lat="43.5045" lon="6.68554">
        <ele>94.4</ele>
        <time>2025-10-26T12:57:48Z</time>
      </trkpt>
      <trkpt lat="43.5045" lon="6.68552">
        <ele>94.3</ele>
        <time>2025-10-26T12:57:49Z</time>
      </trkpt>
      <trkpt lat="43.50451" lon="6.6855">
        <ele>94.2</ele>
        <time>2025-10-26T12:57:50Z</time>
      </trkpt>
      <trkpt lat="43.50452" lon="6.68549">
        <ele>94.1</ele>
        <time>2025-10-26T12:57:51Z</time>
      </trkpt>
      <trkpt lat="43.50452" lon="6.68547">
        <ele>94</ele>
        <time>2025-10-26T12:57:52Z</time>
      </trkpt>
      <trkpt lat="43.50453" lon="6.68545">
        <ele>93.8</ele>
        <time>2025-10-26T12:57:53Z</time>
      </trkpt>
      <trkpt lat="43.50453" lon="6.68543">
        <ele>93.7</ele>
        <time>2025-10-26T12:57:54Z</time>
      </trkpt>
      <trkpt lat="43.50454" lon="6.68542">
        <ele>93.6</ele>
        <time>2025-10-26T12:57:55Z</time>
      </trkpt>
      <trkpt lat="43.50454" lon="6.6854">
        <ele>93.5</ele>
        <time>2025-10-26T12:57:56Z</time>
      </trkpt>
      <trkpt lat="43.50455" lon="6.68538">
        <ele>93.4</ele>
        <time>2025-10-26T12:57:57Z</time>
      </trkpt>
      <trkpt lat="43.50456" lon="6.68537">
        <ele>93.2</ele>
        <time>2025-10-26T12:57:58Z</time>
      </trkpt>
      <trkpt lat="43.50456" lon="6.68535">
        <ele>93</ele>
        <time>2025-10-26T12:57:59Z</time>
      </trkpt>
      <trkpt lat="43.50456" lon="6.68533">
        <ele>92.8</ele>
        <time>2025-10-26T12:58:00Z</time>
      </trkpt>
      <trkpt lat="43.50457" lon="6.68532">
        <ele>92.7</ele>
        <time>2025-10-26T12:58:01Z</time>
      </trkpt>
      <trkpt lat="43.50457" lon="6.6853">
        <ele>92.7</ele>
        <time>2025-10-26T12:58:02Z</time>
      </trkpt>
      <trkpt lat="43.50457" lon="6.68528">
        <ele>92.8</ele>
        <time>2025-10-26T12:58:03Z</time>
      </trkpt>
      <trkpt lat="43.50458" lon="6.68527">
        <ele>92.8</ele>
        <time>2025-10-26T12:58:04Z</time>
      </trkpt>
      <trkpt lat="43.50459" lon="6.68525">
        <ele>92.9</ele>
        <time>2025-10-26T12:58:05Z</time>
      </trkpt>
      <trkpt lat="43.50459" lon="6.68524">
        <ele>92.9</ele>
        <time>2025-10-26T12:58:06Z</time>
      </trkpt>
      <trkpt lat="43.5046" lon="6.68522">
        <ele>92.9</ele>
        <time>2025-10-26T12:58:07Z</time>
      </trkpt>
      <trkpt lat="43.50461" lon="6.68521">
        <ele>92.8</ele>
        <time>2025-10-26T12:58:08Z</time>
      </trkpt>
      <trkpt lat="43.50461" lon="6.68519">
        <ele>92.7</ele>
        <time>2025-10-26T12:58:09Z</time>
      </trkpt>
      <trkpt lat="43.50462" lon="6.68517">
        <ele>92.6</ele>
        <time>2025-10-26T12:58:10Z</time>
      </trkpt>
      <trkpt lat="43.50462" lon="6.68515">
        <ele>92.5</ele>
        <time>2025-10-26T12:58:11Z</time>
      </trkpt>
      <trkpt lat="43.50463" lon="6.68514">
        <ele>92.5</ele>
        <time>2025-10-26T12:58:12Z</time>
      </trkpt>
      <trkpt lat="43.50463" lon="6.68512">
        <ele>92.6</ele>
        <time>2025-10-26T12:58:13Z</time>
      </trkpt>
      <trkpt lat="43.50463" lon="6.6851">
        <ele>92.6</ele>
        <time>2025-10-26T12:58:14Z</time>
      </trkpt>
      <trkpt lat="43.50464" lon="6.68508">
        <ele>92.6</ele>
        <time>2025-10-26T12:58:15Z</time>
      </trkpt>
      <trkpt lat="43.50465" lon="6.68506">
        <ele>92.6</ele>
        <time>2025-10-26T12:58:16Z</time>
      </trkpt>
      <trkpt lat="43.50465" lon="6.68505">
        <ele>92.6</ele>
        <time>2025-10-26T12:58:17Z</time>
      </trkpt>
      <trkpt lat="43.50465" lon="6.68503">
        <ele>92.6</ele>
        <time>2025-10-26T12:58:18Z</time>
      </trkpt>
      <trkpt lat="43.50466" lon="6.68502">
        <ele>92.6</ele>
        <time>2025-10-26T12:58:19Z</time>
      </trkpt>
      <trkpt lat="43.50466" lon="6.685">
        <ele>92.4</ele>
        <time>2025-10-26T12:58:20Z</time>
      </trkpt>
      <trkpt lat="43.50466" lon="6.68498">
        <ele>92.5</ele>
        <time>2025-10-26T12:58:21Z</time>
      </trkpt>
      <trkpt lat="43.50467" lon="6.68497">
        <ele>92.5</ele>
        <time>2025-10-26T12:58:22Z</time>
      </trkpt>
      <trkpt lat="43.50467" lon="6.68496">
        <ele>92.5</ele>
        <time>2025-10-26T12:58:23Z</time>
      </trkpt>
      <trkpt lat="43.50468" lon="6.68494">
        <ele>92.7</ele>
        <time>2025-10-26T12:58:24Z</time>
      </trkpt>
      <trkpt lat="43.50468" lon="6.68492">
        <ele>92.8</ele>
        <time>2025-10-26T12:58:25Z</time>
      </trkpt>
      <trkpt lat="43.50469" lon="6.68491">
        <ele>93.1</ele>
        <time>2025-10-26T12:58:26Z</time>
      </trkpt>
      <trkpt lat="43.50469" lon="6.68489">
        <ele>93.3</ele>
        <time>2025-10-26T12:58:27Z</time>
      </trkpt>
      <trkpt lat="43.5047" lon="6.68487">
        <ele>93.4</ele>
        <time>2025-10-26T12:58:28Z</time>
      </trkpt>
      <trkpt lat="43.5047" lon="6.68486">
        <ele>93.5</ele>
        <time>2025-10-26T12:58:29Z</time>
      </trkpt>
      <trkpt lat="43.5047" lon="6.68484">
        <ele>93.7</ele>
        <time>2025-10-26T12:58:30Z</time>
      </trkpt>
      <trkpt lat="43.50471" lon="6.68482">
        <ele>93.8</ele>
        <time>2025-10-26T12:58:31Z</time>
      </trkpt>
      <trkpt lat="43.50471" lon="6.68481">
        <ele>94</ele>
        <time>2025-10-26T12:58:32Z</time>
      </trkpt>
      <trkpt lat="43.50472" lon="6.68479">
        <ele>94.2</ele>
        <time>2025-10-26T12:58:33Z</time>
      </trkpt>
      <trkpt lat="43.50472" lon="6.68478">
        <ele>94.4</ele>
        <time>2025-10-26T12:58:34Z</time>
      </trkpt>
      <trkpt lat="43.50473" lon="6.68476">
        <ele>94.5</ele>
        <time>2025-10-26T12:58:35Z</time>
      </trkpt>
      <trkpt lat="43.50473" lon="6.68475">
        <ele>94.7</ele>
        <time>2025-10-26T12:58:36Z</time>
      </trkpt>
      <trkpt lat="43.50473" lon="6.68473">
        <ele>94.9</ele>
        <time>2025-10-26T12:58:37Z</time>
      </trkpt>
      <trkpt lat="43.50474" lon="6.68472">
        <ele>95</ele>
        <time>2025-10-26T12:58:38Z</time>
      </trkpt>
      <trkpt lat="43.50474" lon="6.6847">
        <ele>95.1</ele>
        <time>2025-10-26T12:58:39Z</time>
      </trkpt>
      <trkpt lat="43.50474" lon="6.6847">
        <ele>95.3</ele>
        <time>2025-10-26T12:58:40Z</time>
      </trkpt>
      <trkpt lat="43.50475" lon="6.68469">
        <ele>95.3</ele>
        <time>2025-10-26T12:58:41Z</time>
      </trkpt>
      <trkpt lat="43.50475" lon="6.68467">
        <ele>95.3</ele>
        <time>2025-10-26T12:58:42Z</time>
      </trkpt>
      <trkpt lat="43.50475" lon="6.68466">
        <ele>95.4</ele>
        <time>2025-10-26T12:58:43Z</time>
      </trkpt>
      <trkpt lat="43.50476" lon="6.68464">
        <ele>95.4</ele>
        <time>2025-10-26T12:58:44Z</time>
      </trkpt>
      <trkpt lat="43.50476" lon="6.68463">
        <ele>95.3</ele>
        <time>2025-10-26T12:58:45Z</time>
      </trkpt>
      <trkpt lat="43.50476" lon="6.68461">
        <ele>95.3</ele>
        <time>2025-10-26T12:58:46Z</time>
      </trkpt>
      <trkpt lat="43.50477" lon="6.6846">
        <ele>95.3</ele>
        <time>2025-10-26T12:58:47Z</time>
      </trkpt>
      <trkpt lat="43.50477" lon="6.68459">
        <ele>95.4</ele>
        <time>2025-10-26T12:58:48Z</time>
      </trkpt>
      <trkpt lat="43.50478" lon="6.68457">
        <ele>95.4</ele>
        <time>2025-10-26T12:58:49Z</time>
      </trkpt>
      <trkpt lat="43.50478" lon="6.68456">
        <ele>95.5</ele>
        <time>2025-10-26T12:58:50Z</time>
      </trkpt>
      <trkpt lat="43.50479" lon="6.68454">
        <ele>95.6</ele>
        <time>2025-10-26T12:58:51Z</time>
      </trkpt>
      <trkpt lat="43.50479" lon="6.68452">
        <ele>95.7</ele>
        <time>2025-10-26T12:58:52Z</time>
      </trkpt>
      <trkpt lat="43.5048" lon="6.68451">
        <ele>96</ele>
        <time>2025-10-26T12:58:53Z</time>
      </trkpt>
      <trkpt lat="43.5048" lon="6.68449">
        <ele>96.1</ele>
        <time>2025-10-26T12:58:54Z</time>
      </trkpt>
      <trkpt lat="43.50481" lon="6.68448">
        <ele>96.2</ele>
        <time>2025-10-26T12:58:55Z</time>
      </trkpt>
      <trkpt lat="43.50481" lon="6.68446">
        <ele>96.3</ele>
        <time>2025-10-26T12:58:56Z</time>
      </trkpt>
      <trkpt lat="43.50482" lon="6.68445">
        <ele>96.3</ele>
        <time>2025-10-26T12:58:57Z</time>
      </trkpt>
      <trkpt lat="43.50482" lon="6.68443">
        <ele>96.4</ele>
        <time>2025-10-26T12:58:58Z</time>
      </trkpt>
      <trkpt lat="43.50483" lon="6.68442">
        <ele>96.3</ele>
        <time>2025-10-26T12:58:59Z</time>
      </trkpt>
      <trkpt lat="43.50483" lon="6.6844">
        <ele>96.4</ele>
        <time>2025-10-26T12:59:00Z</time>
      </trkpt>
      <trkpt lat="43.50484" lon="6.68439">
        <ele>96.5</ele>
        <time>2025-10-26T12:59:01Z</time>
      </trkpt>
      <trkpt lat="43.50484" lon="6.68438">
        <ele>96.5</ele>
        <time>2025-10-26T12:59:02Z</time>
      </trkpt>
      <trkpt lat="43.50485" lon="6.68436">
        <ele>96.7</ele>
        <time>2025-10-26T12:59:03Z</time>
      </trkpt>
      <trkpt lat="43.50486" lon="6.68434">
        <ele>96.9</ele>
        <time>2025-10-26T12:59:04Z</time>
      </trkpt>
      <trkpt lat="43.50486" lon="6.68433">
        <ele>97</ele>
        <time>2025-10-26T12:59:05Z</time>
      </trkpt>
      <trkpt lat="43.50487" lon="6.68432">
        <ele>97</ele>
        <time>2025-10-26T12:59:06Z</time>
      </trkpt>
      <trkpt lat="43.50487" lon="6.6843">
        <ele>97.1</ele>
        <time>2025-10-26T12:59:07Z</time>
      </trkpt>
      <trkpt lat="43.50487" lon="6.68429">
        <ele>97.2</ele>
        <time>2025-10-26T12:59:08Z</time>
      </trkpt>
      <trkpt lat="43.50487" lon="6.68428">
        <ele>97.3</ele>
        <time>2025-10-26T12:59:09Z</time>
      </trkpt>
      <trkpt lat="43.50487" lon="6.68426">
        <ele>97.4</ele>
        <time>2025-10-26T12:59:10Z</time>
      </trkpt>
      <trkpt lat="43.50487" lon="6.68425">
        <ele>97.5</ele>
        <time>2025-10-26T12:59:11Z</time>
      </trkpt>
      <trkpt lat="43.50487" lon="6.68423">
        <ele>97.7</ele>
        <time>2025-10-26T12:59:12Z</time>
      </trkpt>
      <trkpt lat="43.50488" lon="6.68422">
        <ele>97.8</ele>
        <time>2025-10-26T12:59:13Z</time>
      </trkpt>
      <trkpt lat="43.50488" lon="6.6842">
        <ele>97.8</ele>
        <time>2025-10-26T12:59:14Z</time>
      </trkpt>
      <trkpt lat="43.50489" lon="6.68419">
        <ele>97.9</ele>
        <time>2025-10-26T12:59:15Z</time>
      </trkpt>
      <trkpt lat="43.5049" lon="6.68417">
        <ele>97.7</ele>
        <time>2025-10-26T12:59:16Z</time>
      </trkpt>
      <trkpt lat="43.5049" lon="6.68415">
        <ele>97.7</ele>
        <time>2025-10-26T12:59:17Z</time>
      </trkpt>
      <trkpt lat="43.5049" lon="6.68414">
        <ele>97.6</ele>
        <time>2025-10-26T12:59:18Z</time>
      </trkpt>
      <trkpt lat="43.50491" lon="6.68412">
        <ele>97.6</ele>
        <time>2025-10-26T12:59:19Z</time>
      </trkpt>
      <trkpt lat="43.50491" lon="6.6841">
        <ele>97.5</ele>
        <time>2025-10-26T12:59:20Z</time>
      </trkpt>
      <trkpt lat="43.50492" lon="6.68409">
        <ele>97.4</ele>
        <time>2025-10-26T12:59:21Z</time>
      </trkpt>
      <trkpt lat="43.50492" lon="6.68407">
        <ele>97.4</ele>
        <time>2025-10-26T12:59:22Z</time>
      </trkpt>
      <trkpt lat="43.50493" lon="6.68406">
        <ele>97.4</ele>
        <time>2025-10-26T12:59:23Z</time>
      </trkpt>
      <trkpt lat="43.50493" lon="6.68404">
        <ele>97.4</ele>
        <time>2025-10-26T12:59:24Z</time>
      </trkpt>
      <trkpt lat="43.50493" lon="6.68403">
        <ele>97.4</ele>
        <time>2025-10-26T12:59:25Z</time>
      </trkpt>
      <trkpt lat="43.50494" lon="6.68402">
        <ele>97.5</ele>
        <time>2025-10-26T12:59:26Z</time>
      </trkpt>
      <trkpt lat="43.50494" lon="6.684">
        <ele>97.5</ele>
        <time>2025-10-26T12:59:27Z</time>
      </trkpt>
      <trkpt lat="43.50494" lon="6.68399">
        <ele>97.5</ele>
        <time>2025-10-26T12:59:28Z</time>
      </trkpt>
      <trkpt lat="43.50494" lon="6.68397">
        <ele>97.4</ele>
        <time>2025-10-26T12:59:29Z</time>
      </trkpt>
      <trkpt lat="43.50495" lon="6.68396">
        <ele>97.4</ele>
        <time>2025-10-26T12:59:30Z</time>
      </trkpt>
      <trkpt lat="43.50495" lon="6.68394">
        <ele>97.4</ele>
        <time>2025-10-26T12:59:31Z</time>
      </trkpt>
      <trkpt lat="43.50496" lon="6.68393">
        <ele>97.4</ele>
        <time>2025-10-26T12:59:32Z</time>
      </trkpt>
      <trkpt lat="43.50496" lon="6.68391">
        <ele>97.5</ele>
        <time>2025-10-26T12:59:33Z</time>
      </trkpt>
      <trkpt lat="43.50497" lon="6.6839">
        <ele>97.6</ele>
        <time>2025-10-26T12:59:34Z</time>
      </trkpt>
      <trkpt lat="43.50497" lon="6.68388">
        <ele>97.8</ele>
        <time>2025-10-26T12:59:35Z</time>
      </trkpt>
      <trkpt lat="43.50498" lon="6.68386">
        <ele>97.8</ele>
        <time>2025-10-26T12:59:36Z</time>
      </trkpt>
      <trkpt lat="43.50498" lon="6.68385">
        <ele>97.9</ele>
        <time>2025-10-26T12:59:37Z</time>
      </trkpt>
      <trkpt lat="43.50498" lon="6.68383">
        <ele>98</ele>
        <time>2025-10-26T12:59:38Z</time>
      </trkpt>
      <trkpt lat="43.50499" lon="6.68382">
        <ele>98</ele>
        <time>2025-10-26T12:59:39Z</time>
      </trkpt>
      <trkpt lat="43.50499" lon="6.6838">
        <ele>98</ele>
        <time>2025-10-26T12:59:40Z</time>
      </trkpt>
      <trkpt lat="43.505" lon="6.68379">
        <ele>98</ele>
        <time>2025-10-26T12:59:41Z</time>
      </trkpt>
      <trkpt lat="43.505" lon="6.68377">
        <ele>97.9</ele>
        <time>2025-10-26T12:59:42Z</time>
      </trkpt>
      <trkpt lat="43.505" lon="6.68376">
        <ele>97.9</ele>
        <time>2025-10-26T12:59:43Z</time>
      </trkpt>
      <trkpt lat="43.50501" lon="6.68374">
        <ele>98</ele>
        <time>2025-10-26T12:59:44Z</time>
      </trkpt>
      <trkpt lat="43.50501" lon="6.68373">
        <ele>98</ele>
        <time>2025-10-26T12:59:45Z</time>
      </trkpt>
      <trkpt lat="43.50501" lon="6.68371">
        <ele>98.1</ele>
        <time>2025-10-26T12:59:46Z</time>
      </trkpt>
      <trkpt lat="43.50502" lon="6.6837">
        <ele>98.2</ele>
        <time>2025-10-26T12:59:47Z</time>
      </trkpt>
      <trkpt lat="43.50503" lon="6.68368">
        <ele>98.4</ele>
        <time>2025-10-26T12:59:48Z</time>
      </trkpt>
      <trkpt lat="43.50503" lon="6.68367">
        <ele>98.4</ele>
        <time>2025-10-26T12:59:49Z</time>
      </trkpt>
      <trkpt lat="43.50503" lon="6.68365">
        <ele>98.5</ele>
        <time>2025-10-26T12:59:50Z</time>
      </trkpt>
      <trkpt lat="43.50503" lon="6.68363">
        <ele>98.5</ele>
        <time>2025-10-26T12:59:51Z</time>
      </trkpt>
      <trkpt lat="43.50503" lon="6.68362">
        <ele>98.5</ele>
        <time>2025-10-26T12:59:52Z</time>
      </trkpt>
      <trkpt lat="43.50504" lon="6.6836">
        <ele>98.7</ele>
        <time>2025-10-26T12:59:53Z</time>
      </trkpt>
      <trkpt lat="43.50504" lon="6.68358">
        <ele>98.8</ele>
        <time>2025-10-26T12:59:54Z</time>
      </trkpt>
      <trkpt lat="43.50505" lon="6.68357">
        <ele>98.9</ele>
        <time>2025-10-26T12:59:55Z</time>
      </trkpt>
      <trkpt lat="43.50505" lon="6.68355">
        <ele>99</ele>
        <time>2025-10-26T12:59:56Z</time>
      </trkpt>
      <trkpt lat="43.50506" lon="6.68354">
        <ele>99.1</ele>
        <time>2025-10-26T12:59:57Z</time>
      </trkpt>
      <trkpt lat="43.50506" lon="6.68352">
        <ele>99.2</ele>
        <time>2025-10-26T12:59:58Z</time>
      </trkpt>
      <trkpt lat="43.50507" lon="6.68351">
        <ele>99.2</ele>
        <time>2025-10-26T12:59:59Z</time>
      </trkpt>
      <trkpt lat="43.50507" lon="6.68349">
        <ele>99.2</ele>
        <time>2025-10-26T13:00:00Z</time>
      </trkpt>
      <trkpt lat="43.50508" lon="6.68348">
        <ele>99.4</ele>
        <time>2025-10-26T13:00:01Z</time>
      </trkpt>
      <trkpt lat="43.50508" lon="6.68347">
        <ele>99.5</ele>
        <time>2025-10-26T13:00:02Z</time>
      </trkpt>
      <trkpt lat="43.50509" lon="6.68346">
        <ele>99.6</ele>
        <time>2025-10-26T13:00:03Z</time>
      </trkpt>
      <trkpt lat="43.5051" lon="6.68344">
        <ele>99.6</ele>
        <time>2025-10-26T13:00:04Z</time>
      </trkpt>
      <trkpt lat="43.50511" lon="6.68343">
        <ele>99.6</ele>
        <time>2025-10-26T13:00:05Z</time>
      </trkpt>
      <trkpt lat="43.50511" lon="6.68341">
        <ele>99.5</ele>
        <time>2025-10-26T13:00:06Z</time>
      </trkpt>
      <trkpt lat="43.50512" lon="6.6834">
        <ele>99.5</ele>
        <time>2025-10-26T13:00:07Z</time>
      </trkpt>
      <trkpt lat="43.50513" lon="6.68339">
        <ele>99.4</ele>
        <time>2025-10-26T13:00:08Z</time>
      </trkpt>
      <trkpt lat="43.50514" lon="6.68337">
        <ele>99.3</ele>
        <time>2025-10-26T13:00:09Z</time>
      </trkpt>
      <trkpt lat="43.50514" lon="6.68336">
        <ele>99.1</ele>
        <time>2025-10-26T13:00:10Z</time>
      </trkpt>
      <trkpt lat="43.50514" lon="6.68334">
        <ele>99</ele>
        <time>2025-10-26T13:00:11Z</time>
      </trkpt>
      <trkpt lat="43.50515" lon="6.68332">
        <ele>98.8</ele>
        <time>2025-10-26T13:00:12Z</time>
      </trkpt>
      <trkpt lat="43.50515" lon="6.68331">
        <ele>98.6</ele>
        <time>2025-10-26T13:00:13Z</time>
      </trkpt>
      <trkpt lat="43.50515" lon="6.68329">
        <ele>98.5</ele>
        <time>2025-10-26T13:00:14Z</time>
      </trkpt>
      <trkpt lat="43.50515" lon="6.68328">
        <ele>98.4</ele>
        <time>2025-10-26T13:00:15Z</time>
      </trkpt>
      <trkpt lat="43.50516" lon="6.68326">
        <ele>98.4</ele>
        <time>2025-10-26T13:00:16Z</time>
      </trkpt>
      <trkpt lat="43.50516" lon="6.68325">
        <ele>98.4</ele>
        <time>2025-10-26T13:00:17Z</time>
      </trkpt>
      <trkpt lat="43.50517" lon="6.68323">
        <ele>98.4</ele>
        <time>2025-10-26T13:00:18Z</time>
      </trkpt>
      <trkpt lat="43.50518" lon="6.68321">
        <ele>98.5</ele>
        <time>2025-10-26T13:00:19Z</time>
      </trkpt>
      <trkpt lat="43.50518" lon="6.6832">
        <ele>98.7</ele>
        <time>2025-10-26T13:00:20Z</time>
      </trkpt>
      <trkpt lat="43.50518" lon="6.68318">
        <ele>98.9</ele>
        <time>2025-10-26T13:00:21Z</time>
      </trkpt>
      <trkpt lat="43.50518" lon="6.68317">
        <ele>99</ele>
        <time>2025-10-26T13:00:22Z</time>
      </trkpt>
      <trkpt lat="43.50519" lon="6.68315">
        <ele>99</ele>
        <time>2025-10-26T13:00:23Z</time>
      </trkpt>
      <trkpt lat="43.50519" lon="6.68313">
        <ele>99</ele>
        <time>2025-10-26T13:00:24Z</time>
      </trkpt>
      <trkpt lat="43.50519" lon="6.68312">
        <ele>99</ele>
        <time>2025-10-26T13:00:25Z</time>
      </trkpt>
      <trkpt lat="43.5052" lon="6.6831">
        <ele>99</ele>
        <time>2025-10-26T13:00:26Z</time>
      </trkpt>
      <trkpt lat="43.5052" lon="6.68308">
        <ele>98.9</ele>
        <time>2025-10-26T13:00:27Z</time>
      </trkpt>
      <trkpt lat="43.50521" lon="6.68307">
        <ele>98.9</ele>
        <time>2025-10-26T13:00:28Z</time>
      </trkpt>
      <trkpt lat="43.50521" lon="6.68306">
        <ele>98.9</ele>
        <time>2025-10-26T13:00:29Z</time>
      </trkpt>
      <trkpt lat="43.50522" lon="6.68304">
        <ele>98.8</ele>
        <time>2025-10-26T13:00:30Z</time>
      </trkpt>
      <trkpt lat="43.50522" lon="6.68303">
        <ele>98.7</ele>
        <time>2025-10-26T13:00:31Z</time>
      </trkpt>
      <trkpt lat="43.50523" lon="6.68301">
        <ele>98.7</ele>
        <time>2025-10-26T13:00:32Z</time>
      </trkpt>
      <trkpt lat="43.50523" lon="6.68299">
        <ele>98.6</ele>
        <time>2025-10-26T13:00:33Z</time>
      </trkpt>
      <trkpt lat="43.50523" lon="6.68298">
        <ele>98.6</ele>
        <time>2025-10-26T13:00:34Z</time>
      </trkpt>
      <trkpt lat="43.50524" lon="6.68296">
        <ele>98.6</ele>
        <time>2025-10-26T13:00:35Z</time>
      </trkpt>
      <trkpt lat="43.50524" lon="6.68295">
        <ele>98.7</ele>
        <time>2025-10-26T13:00:36Z</time>
      </trkpt>
      <trkpt lat="43.50525" lon="6.68293">
        <ele>98.7</ele>
        <time>2025-10-26T13:00:37Z</time>
      </trkpt>
      <trkpt lat="43.50525" lon="6.68292">
        <ele>98.7</ele>
        <time>2025-10-26T13:00:38Z</time>
      </trkpt>
      <trkpt lat="43.50526" lon="6.6829">
        <ele>98.7</ele>
        <time>2025-10-26T13:00:39Z</time>
      </trkpt>
      <trkpt lat="43.50526" lon="6.68289">
        <ele>98.6</ele>
        <time>2025-10-26T13:00:40Z</time>
      </trkpt>
      <trkpt lat="43.50527" lon="6.68287">
        <ele>98.5</ele>
        <time>2025-10-26T13:00:41Z</time>
      </trkpt>
      <trkpt lat="43.50528" lon="6.68285">
        <ele>98.5</ele>
        <time>2025-10-26T13:00:42Z</time>
      </trkpt>
      <trkpt lat="43.50528" lon="6.68283">
        <ele>98.2</ele>
        <time>2025-10-26T13:00:43Z</time>
      </trkpt>
      <trkpt lat="43.50528" lon="6.68282">
        <ele>98</ele>
        <time>2025-10-26T13:00:44Z</time>
      </trkpt>
      <trkpt lat="43.50528" lon="6.6828">
        <ele>98</ele>
        <time>2025-10-26T13:00:45Z</time>
      </trkpt>
      <trkpt lat="43.50529" lon="6.68279">
        <ele>97.9</ele>
        <time>2025-10-26T13:00:46Z</time>
      </trkpt>
      <trkpt lat="43.5053" lon="6.68277">
        <ele>97.8</ele>
        <time>2025-10-26T13:00:47Z</time>
      </trkpt>
      <trkpt lat="43.5053" lon="6.68275">
        <ele>97.8</ele>
        <time>2025-10-26T13:00:48Z</time>
      </trkpt>
      <trkpt lat="43.50531" lon="6.68274">
        <ele>97.7</ele>
        <time>2025-10-26T13:00:49Z</time>
      </trkpt>
      <trkpt lat="43.50531" lon="6.68272">
        <ele>97.7</ele>
        <time>2025-10-26T13:00:50Z</time>
      </trkpt>
      <trkpt lat="43.50532" lon="6.6827">
        <ele>97.6</ele>
        <time>2025-10-26T13:00:51Z</time>
      </trkpt>
      <trkpt lat="43.50532" lon="6.68268">
        <ele>97.5</ele>
        <time>2025-10-26T13:00:52Z</time>
      </trkpt>
      <trkpt lat="43.50533" lon="6.68267">
        <ele>97.4</ele>
        <time>2025-10-26T13:00:53Z</time>
      </trkpt>
      <trkpt lat="43.50533" lon="6.68265">
        <ele>97.4</ele>
        <time>2025-10-26T13:00:54Z</time>
      </trkpt>
      <trkpt lat="43.50534" lon="6.68264">
        <ele>97.5</ele>
        <time>2025-10-26T13:00:55Z</time>
      </trkpt>
      <trkpt lat="43.50534" lon="6.68262">
        <ele>97.5</ele>
        <time>2025-10-26T13:00:56Z</time>
      </trkpt>
      <trkpt lat="43.50535" lon="6.68261">
        <ele>97.5</ele>
        <time>2025-10-26T13:00:57Z</time>
      </trkpt>
      <trkpt lat="43.50535" lon="6.68259">
        <ele>97.7</ele>
        <time>2025-10-26T13:00:58Z</time>
      </trkpt>
      <trkpt lat="43.50536" lon="6.68257">
        <ele>97.8</ele>
        <time>2025-10-26T13:00:59Z</time>
      </trkpt>
      <trkpt lat="43.50537" lon="6.68256">
        <ele>97.9</ele>
        <time>2025-10-26T13:01:00Z</time>
      </trkpt>
      <trkpt lat="43.50537" lon="6.68254">
        <ele>97.9</ele>
        <time>2025-10-26T13:01:01Z</time>
      </trkpt>
      <trkpt lat="43.50538" lon="6.68253">
        <ele>97.9</ele>
        <time>2025-10-26T13:01:02Z</time>
      </trkpt>
      <trkpt lat="43.50538" lon="6.68251">
        <ele>97.7</ele>
        <time>2025-10-26T13:01:03Z</time>
      </trkpt>
      <trkpt lat="43.50539" lon="6.6825">
        <ele>97.6</ele>
        <time>2025-10-26T13:01:04Z</time>
      </trkpt>
      <trkpt lat="43.5054" lon="6.68248">
        <ele>97.5</ele>
        <time>2025-10-26T13:01:05Z</time>
      </trkpt>
      <trkpt lat="43.5054" lon="6.68247">
        <ele>97.6</ele>
        <time>2025-10-26T13:01:06Z</time>
      </trkpt>
      <trkpt lat="43.50541" lon="6.68245">
        <ele>97.5</ele>
        <time>2025-10-26T13:01:07Z</time>
      </trkpt>
      <trkpt lat="43.50541" lon="6.68243">
        <ele>97.5</ele>
        <time>2025-10-26T13:01:08Z</time>
      </trkpt>
      <trkpt lat="43.50542" lon="6.68242">
        <ele>97.6</ele>
        <time>2025-10-26T13:01:09Z</time>
      </trkpt>
      <trkpt lat="43.50542" lon="6.6824">
        <ele>97.7</ele>
        <time>2025-10-26T13:01:10Z</time>
      </trkpt>
      <trkpt lat="43.50543" lon="6.68239">
        <ele>97.7</ele>
        <time>2025-10-26T13:01:11Z</time>
      </trkpt>
      <trkpt lat="43.50543" lon="6.68237">
        <ele>97.6</ele>
        <time>2025-10-26T13:01:12Z</time>
      </trkpt>
      <trkpt lat="43.50544" lon="6.68236">
        <ele>97.6</ele>
        <time>2025-10-26T13:01:13Z</time>
      </trkpt>
      <trkpt lat="43.50544" lon="6.68234">
        <ele>97.6</ele>
        <time>2025-10-26T13:01:14Z</time>
      </trkpt>
      <trkpt lat="43.50545" lon="6.68232">
        <ele>97.5</ele>
        <time>2025-10-26T13:01:15Z</time>
      </trkpt>
      <trkpt lat="43.50545" lon="6.6823">
        <ele>97.4</ele>
        <time>2025-10-26T13:01:16Z</time>
      </trkpt>
      <trkpt lat="43.50546" lon="6.68229">
        <ele>97.3</ele>
        <time>2025-10-26T13:01:17Z</time>
      </trkpt>
      <trkpt lat="43.50546" lon="6.68227">
        <ele>97.3</ele>
        <time>2025-10-26T13:01:18Z</time>
      </trkpt>
      <trkpt lat="43.50546" lon="6.68226">
        <ele>97.3</ele>
        <time>2025-10-26T13:01:19Z</time>
      </trkpt>
      <trkpt lat="43.50546" lon="6.68224">
        <ele>97.3</ele>
        <time>2025-10-26T13:01:20Z</time>
      </trkpt>
      <trkpt lat="43.50547" lon="6.68222">
        <ele>97.3</ele>
        <time>2025-10-26T13:01:21Z</time>
      </trkpt>
      <trkpt lat="43.50547" lon="6.6822">
        <ele>97.2</ele>
        <time>2025-10-26T13:01:22Z</time>
      </trkpt>
      <trkpt lat="43.50548" lon="6.68219">
        <ele>97.1</ele>
        <time>2025-10-26T13:01:23Z</time>
      </trkpt>
      <trkpt lat="43.50548" lon="6.68217">
        <ele>97</ele>
        <time>2025-10-26T13:01:24Z</time>
      </trkpt>
      <trkpt lat="43.50548" lon="6.68215">
        <ele>97.1</ele>
        <time>2025-10-26T13:01:25Z</time>
      </trkpt>
      <trkpt lat="43.50549" lon="6.68214">
        <ele>97</ele>
        <time>2025-10-26T13:01:26Z</time>
      </trkpt>
      <trkpt lat="43.50549" lon="6.68212">
        <ele>96.9</ele>
        <time>2025-10-26T13:01:27Z</time>
      </trkpt>
      <trkpt lat="43.50549" lon="6.68211">
        <ele>96.9</ele>
        <time>2025-10-26T13:01:28Z</time>
      </trkpt>
      <trkpt lat="43.5055" lon="6.6821">
        <ele>96.9</ele>
        <time>2025-10-26T13:01:29Z</time>
      </trkpt>
      <trkpt lat="43.5055" lon="6.68208">
        <ele>96.8</ele>
        <time>2025-10-26T13:01:30Z</time>
      </trkpt>
      <trkpt lat="43.5055" lon="6.68206">
        <ele>96.8</ele>
        <time>2025-10-26T13:01:31Z</time>
      </trkpt>
      <trkpt lat="43.50551" lon="6.68205">
        <ele>96.9</ele>
        <time>2025-10-26T13:01:32Z</time>
      </trkpt>
      <trkpt lat="43.50551" lon="6.68204">
        <ele>97.1</ele>
        <time>2025-10-26T13:01:33Z</time>
      </trkpt>
      <trkpt lat="43.50552" lon="6.68202">
        <ele>97.2</ele>
        <time>2025-10-26T13:01:34Z</time>
      </trkpt>
      <trkpt lat="43.50552" lon="6.68201">
        <ele>97.3</ele>
        <time>2025-10-26T13:01:35Z</time>
      </trkpt>
      <trkpt lat="43.50553" lon="6.68199">
        <ele>97.4</ele>
        <time>2025-10-26T13:01:36Z</time>
      </trkpt>
      <trkpt lat="43.50554" lon="6.68198">
        <ele>97.4</ele>
        <time>2025-10-26T13:01:37Z</time>
      </trkpt>
      <trkpt lat="43.50554" lon="6.68196">
        <ele>97.5</ele>
        <time>2025-10-26T13:01:38Z</time>
      </trkpt>
      <trkpt lat="43.50555" lon="6.68195">
        <ele>97.6</ele>
        <time>2025-10-26T13:01:39Z</time>
      </trkpt>
      <trkpt lat="43.50555" lon="6.68193">
        <ele>97.8</ele>
        <time>2025-10-26T13:01:40Z</time>
      </trkpt>
      <trkpt lat="43.50556" lon="6.68192">
        <ele>97.9</ele>
        <time>2025-10-26T13:01:41Z</time>
      </trkpt>
      <trkpt lat="43.50556" lon="6.6819">
        <ele>98</ele>
        <time>2025-10-26T13:01:42Z</time>
      </trkpt>
      <trkpt lat="43.50557" lon="6.68189">
        <ele>98.1</ele>
        <time>2025-10-26T13:01:43Z</time>
      </trkpt>
      <trkpt lat="43.50557" lon="6.68187">
        <ele>98.1</ele>
        <time>2025-10-26T13:01:44Z</time>
      </trkpt>
      <trkpt lat="43.50558" lon="6.68186">
        <ele>98.2</ele>
        <time>2025-10-26T13:01:45Z</time>
      </trkpt>
      <trkpt lat="43.50558" lon="6.68184">
        <ele>98.3</ele>
        <time>2025-10-26T13:01:46Z</time>
      </trkpt>
      <trkpt lat="43.50559" lon="6.68183">
        <ele>98.4</ele>
        <time>2025-10-26T13:01:47Z</time>
      </trkpt>
      <trkpt lat="43.50559" lon="6.68181">
        <ele>98.4</ele>
        <time>2025-10-26T13:01:48Z</time>
      </trkpt>
      <trkpt lat="43.5056" lon="6.6818">
        <ele>98.3</ele>
        <time>2025-10-26T13:01:49Z</time>
      </trkpt>
      <trkpt lat="43.5056" lon="6.68178">
        <ele>98.3</ele>
        <time>2025-10-26T13:01:50Z</time>
      </trkpt>
      <trkpt lat="43.50561" lon="6.68176">
        <ele>98.4</ele>
        <time>2025-10-26T13:01:51Z</time>
      </trkpt>
      <trkpt lat="43.50562" lon="6.68175">
        <ele>98.5</ele>
        <time>2025-10-26T13:01:52Z</time>
      </trkpt>
      <trkpt lat="43.50562" lon="6.68173">
        <ele>98.6</ele>
        <time>2025-10-26T13:01:53Z</time>
      </trkpt>
      <trkpt lat="43.50562" lon="6.68172">
        <ele>98.6</ele>
        <time>2025-10-26T13:01:54Z</time>
      </trkpt>
      <trkpt lat="43.50563" lon="6.6817">
        <ele>98.6</ele>
        <time>2025-10-26T13:01:55Z</time>
      </trkpt>
      <trkpt lat="43.50563" lon="6.68169">
        <ele>98.5</ele>
        <time>2025-10-26T13:01:56Z</time>
      </trkpt>
      <trkpt lat="43.50564" lon="6.68167">
        <ele>98.3</ele>
        <time>2025-10-26T13:01:57Z</time>
      </trkpt>
      <trkpt lat="43.50564" lon="6.68166">
        <ele>98.3</ele>
        <time>2025-10-26T13:01:58Z</time>
      </trkpt>
      <trkpt lat="43.50564" lon="6.68164">
        <ele>98.2</ele>
        <time>2025-10-26T13:01:59Z</time>
      </trkpt>
      <trkpt lat="43.50565" lon="6.68163">
        <ele>98.1</ele>
        <time>2025-10-26T13:02:00Z</time>
      </trkpt>
      <trkpt lat="43.50565" lon="6.68161">
        <ele>98.1</ele>
        <time>2025-10-26T13:02:01Z</time>
      </trkpt>
      <trkpt lat="43.50566" lon="6.6816">
        <ele>98</ele>
        <time>2025-10-26T13:02:02Z</time>
      </trkpt>
      <trkpt lat="43.50566" lon="6.68158">
        <ele>98.1</ele>
        <time>2025-10-26T13:02:03Z</time>
      </trkpt>
      <trkpt lat="43.50567" lon="6.68157">
        <ele>98.2</ele>
        <time>2025-10-26T13:02:04Z</time>
      </trkpt>
      <trkpt lat="43.50567" lon="6.68155">
        <ele>98.3</ele>
        <time>2025-10-26T13:02:05Z</time>
      </trkpt>
      <trkpt lat="43.50568" lon="6.68154">
        <ele>98.2</ele>
        <time>2025-10-26T13:02:06Z</time>
      </trkpt>
      <trkpt lat="43.50569" lon="6.68153">
        <ele>98.1</ele>
        <time>2025-10-26T13:02:07Z</time>
      </trkpt>
      <trkpt lat="43.50569" lon="6.68151">
        <ele>98.1</ele>
        <time>2025-10-26T13:02:08Z</time>
      </trkpt>
      <trkpt lat="43.5057" lon="6.6815">
        <ele>98.1</ele>
        <time>2025-10-26T13:02:09Z</time>
      </trkpt>
      <trkpt lat="43.50571" lon="6.68149">
        <ele>98.2</ele>
        <time>2025-10-26T13:02:10Z</time>
      </trkpt>
      <trkpt lat="43.50571" lon="6.68147">
        <ele>98.3</ele>
        <time>2025-10-26T13:02:11Z</time>
      </trkpt>
      <trkpt lat="43.50572" lon="6.68145">
        <ele>98.3</ele>
        <time>2025-10-26T13:02:12Z</time>
      </trkpt>
      <trkpt lat="43.50572" lon="6.68144">
        <ele>98.3</ele>
        <time>2025-10-26T13:02:13Z</time>
      </trkpt>
      <trkpt lat="43.50573" lon="6.68142">
        <ele>98.4</ele>
        <time>2025-10-26T13:02:14Z</time>
      </trkpt>
      <trkpt lat="43.50573" lon="6.68141">
        <ele>98.4</ele>
        <time>2025-10-26T13:02:15Z</time>
      </trkpt>
      <trkpt lat="43.50574" lon="6.68139">
        <ele>98.4</ele>
        <time>2025-10-26T13:02:16Z</time>
      </trkpt>
      <trkpt lat="43.50575" lon="6.68138">
        <ele>98.4</ele>
        <time>2025-10-26T13:02:17Z</time>
      </trkpt>
      <trkpt lat="43.50575" lon="6.68136">
        <ele>98.5</ele>
        <time>2025-10-26T13:02:18Z</time>
      </trkpt>
      <trkpt lat="43.50576" lon="6.68135">
        <ele>98.5</ele>
        <time>2025-10-26T13:02:19Z</time>
      </trkpt>
      <trkpt lat="43.50577" lon="6.68133">
        <ele>98.5</ele>
        <time>2025-10-26T13:02:20Z</time>
      </trkpt>
      <trkpt lat="43.50577" lon="6.68132">
        <ele>98.5</ele>
        <time>2025-10-26T13:02:21Z</time>
      </trkpt>
      <trkpt lat="43.50578" lon="6.6813">
        <ele>98.5</ele>
        <time>2025-10-26T13:02:22Z</time>
      </trkpt>
      <trkpt lat="43.50578" lon="6.68129">
        <ele>98.5</ele>
        <time>2025-10-26T13:02:23Z</time>
      </trkpt>
      <trkpt lat="43.50579" lon="6.68128">
        <ele>98.6</ele>
        <time>2025-10-26T13:02:24Z</time>
      </trkpt>
      <trkpt lat="43.50579" lon="6.68126">
        <ele>98.6</ele>
        <time>2025-10-26T13:02:25Z</time>
      </trkpt>
      <trkpt lat="43.5058" lon="6.68125">
        <ele>98.7</ele>
        <time>2025-10-26T13:02:26Z</time>
      </trkpt>
      <trkpt lat="43.5058" lon="6.68123">
        <ele>98.7</ele>
        <time>2025-10-26T13:02:27Z</time>
      </trkpt>
      <trkpt lat="43.5058" lon="6.68122">
        <ele>98.7</ele>
        <time>2025-10-26T13:02:28Z</time>
      </trkpt>
      <trkpt lat="43.5058" lon="6.6812">
        <ele>98.8</ele>
        <time>2025-10-26T13:02:29Z</time>
      </trkpt>
      <trkpt lat="43.50581" lon="6.68118">
        <ele>98.9</ele>
        <time>2025-10-26T13:02:30Z</time>
      </trkpt>
      <trkpt lat="43.50581" lon="6.68117">
        <ele>99.1</ele>
        <time>2025-10-26T13:02:31Z</time>
      </trkpt>
      <trkpt lat="43.50582" lon="6.68115">
        <ele>99.2</ele>
        <time>2025-10-26T13:02:32Z</time>
      </trkpt>
      <trkpt lat="43.50582" lon="6.68114">
        <ele>99.3</ele>
        <time>2025-10-26T13:02:33Z</time>
      </trkpt>
      <trkpt lat="43.50583" lon="6.68112">
        <ele>99.3</ele>
        <time>2025-10-26T13:02:34Z</time>
      </trkpt>
      <trkpt lat="43.50584" lon="6.68111">
        <ele>99.4</ele>
        <time>2025-10-26T13:02:35Z</time>
      </trkpt>
      <trkpt lat="43.50584" lon="6.68109">
        <ele>99.5</ele>
        <time>2025-10-26T13:02:36Z</time>
      </trkpt>
      <trkpt lat="43.50584" lon="6.68107">
        <ele>99.5</ele>
        <time>2025-10-26T13:02:37Z</time>
      </trkpt>
      <trkpt lat="43.50584" lon="6.68106">
        <ele>99.6</ele>
        <time>2025-10-26T13:02:38Z</time>
      </trkpt>
      <trkpt lat="43.50585" lon="6.68105">
        <ele>99.6</ele>
        <time>2025-10-26T13:02:39Z</time>
      </trkpt>
      <trkpt lat="43.50585" lon="6.68103">
        <ele>99.7</ele>
        <time>2025-10-26T13:02:40Z</time>
      </trkpt>
      <trkpt lat="43.50586" lon="6.68102">
        <ele>99.7</ele>
        <time>2025-10-26T13:02:41Z</time>
      </trkpt>
      <trkpt lat="43.50586" lon="6.681">
        <ele>99.8</ele>
        <time>2025-10-26T13:02:42Z</time>
      </trkpt>
      <trkpt lat="43.50586" lon="6.68099">
        <ele>99.9</ele>
        <time>2025-10-26T13:02:43Z</time>
      </trkpt>
      <trkpt lat="43.50586" lon="6.68098">
        <ele>100</ele>
        <time>2025-10-26T13:02:44Z</time>
      </trkpt>
      <trkpt lat="43.50587" lon="6.68096">
        <ele>100.2</ele>
        <time>2025-10-26T13:02:45Z</time>
      </trkpt>
      <trkpt lat="43.50587" lon="6.68095">
        <ele>100.4</ele>
        <time>2025-10-26T13:02:46Z</time>
      </trkpt>
      <trkpt lat="43.50587" lon="6.68093">
        <ele>100.5</ele>
        <time>2025-10-26T13:02:47Z</time>
      </trkpt>
      <trkpt lat="43.50587" lon="6.68092">
        <ele>100.5</ele>
        <time>2025-10-26T13:02:48Z</time>
      </trkpt>
      <trkpt lat="43.50588" lon="6.68091">
        <ele>100.6</ele>
        <time>2025-10-26T13:02:49Z</time>
      </trkpt>
      <trkpt lat="43.50588" lon="6.6809">
        <ele>100.6</ele>
        <time>2025-10-26T13:02:50Z</time>
      </trkpt>
      <trkpt lat="43.50588" lon="6.68088">
        <ele>100.7</ele>
        <time>2025-10-26T13:02:51Z</time>
      </trkpt>
      <trkpt lat="43.50589" lon="6.68086">
        <ele>100.8</ele>
        <time>2025-10-26T13:02:52Z</time>
      </trkpt>
      <trkpt lat="43.50589" lon="6.68084">
        <ele>100.9</ele>
        <time>2025-10-26T13:02:53Z</time>
      </trkpt>
      <trkpt lat="43.5059" lon="6.68083">
        <ele>101</ele>
        <time>2025-10-26T13:02:54Z</time>
      </trkpt>
      <trkpt lat="43.5059" lon="6.68082">
        <ele>101.1</ele>
        <time>2025-10-26T13:02:55Z</time>
      </trkpt>
      <trkpt lat="43.5059" lon="6.6808">
        <ele>101.1</ele>
        <time>2025-10-26T13:02:56Z</time>
      </trkpt>
      <trkpt lat="43.50591" lon="6.68079">
        <ele>101.1</ele>
        <time>2025-10-26T13:02:57Z</time>
      </trkpt>
      <trkpt lat="43.50591" lon="6.68078">
        <ele>101.1</ele>
        <time>2025-10-26T13:02:58Z</time>
      </trkpt>
      <trkpt lat="43.50591" lon="6.68077">
        <ele>101.1</ele>
        <time>2025-10-26T13:02:59Z</time>
      </trkpt>
      <trkpt lat="43.50592" lon="6.68075">
        <ele>101.1</ele>
        <time>2025-10-26T13:03:00Z</time>
      </trkpt>
      <trkpt lat="43.50592" lon="6.68074">
        <ele>101.2</ele>
        <time>2025-10-26T13:03:01Z</time>
      </trkpt>
      <trkpt lat="43.50593" lon="6.68072">
        <ele>101.5</ele>
        <time>2025-10-26T13:03:02Z</time>
      </trkpt>
      <trkpt lat="43.50593" lon="6.68071">
        <ele>101.7</ele>
        <time>2025-10-26T13:03:03Z</time>
      </trkpt>
      <trkpt lat="43.50593" lon="6.6807">
        <ele>101.8</ele>
        <time>2025-10-26T13:03:04Z</time>
      </trkpt>
      <trkpt lat="43.50594" lon="6.68069">
        <ele>101.9</ele>
        <time>2025-10-26T13:03:05Z</time>
      </trkpt>
      <trkpt lat="43.50594" lon="6.68067">
        <ele>102</ele>
        <time>2025-10-26T13:03:06Z</time>
      </trkpt>
      <trkpt lat="43.50594" lon="6.68067">
        <ele>102.2</ele>
        <time>2025-10-26T13:03:07Z</time>
      </trkpt>
      <trkpt lat="43.50594" lon="6.68066">
        <ele>102.4</ele>
        <time>2025-10-26T13:03:08Z</time>
      </trkpt>
      <trkpt lat="43.50595" lon="6.68065">
        <ele>102.6</ele>
        <time>2025-10-26T13:03:09Z</time>
      </trkpt>
      <trkpt lat="43.50595" lon="6.68064">
        <ele>102.7</ele>
        <time>2025-10-26T13:03:10Z</time>
      </trkpt>
      <trkpt lat="43.50595" lon="6.68063">
        <ele>102.9</ele>
        <time>2025-10-26T13:03:11Z</time>
      </trkpt>
      <trkpt lat="43.50596" lon="6.68061">
        <ele>103.1</ele>
        <time>2025-10-26T13:03:12Z</time>
      </trkpt>
      <trkpt lat="43.50596" lon="6.6806">
        <ele>103.3</ele>
        <time>2025-10-26T13:03:13Z</time>
      </trkpt>
      <trkpt lat="43.50597" lon="6.68058">
        <ele>103.4</ele>
        <time>2025-10-26T13:03:14Z</time>
      </trkpt>
      <trkpt lat="43.50597" lon="6.68057">
        <ele>103.5</ele>
        <time>2025-10-26T13:03:15Z</time>
      </trkpt>
      <trkpt lat="43.50597" lon="6.68056">
        <ele>103.5</ele>
        <time>2025-10-26T13:03:16Z</time>
      </trkpt>
      <trkpt lat="43.50597" lon="6.68055">
        <ele>103.5</ele>
        <time>2025-10-26T13:03:17Z</time>
      </trkpt>
      <trkpt lat="43.50597" lon="6.68054">
        <ele>103.6</ele>
        <time>2025-10-26T13:03:18Z</time>
      </trkpt>
      <trkpt lat="43.50598" lon="6.68054">
        <ele>103.5</ele>
        <time>2025-10-26T13:03:19Z</time>
      </trkpt>
      <trkpt lat="43.50598" lon="6.68053">
        <ele>103.5</ele>
        <time>2025-10-26T13:03:20Z</time>
      </trkpt>
      <trkpt lat="43.50598" lon="6.68052">
        <ele>103.6</ele>
        <time>2025-10-26T13:03:21Z</time>
      </trkpt>
      <trkpt lat="43.50598" lon="6.68051">
        <ele>103.8</ele>
        <time>2025-10-26T13:03:22Z</time>
      </trkpt>
      <trkpt lat="43.50599" lon="6.6805">
        <ele>104</ele>
        <time>2025-10-26T13:03:23Z</time>
      </trkpt>
      <trkpt lat="43.50599" lon="6.68048">
        <ele>104.2</ele>
        <time>2025-10-26T13:03:24Z</time>
      </trkpt>
      <trkpt lat="43.506" lon="6.68047">
        <ele>104.3</ele>
        <time>2025-10-26T13:03:25Z</time>
      </trkpt>
      <trkpt lat="43.506" lon="6.68046">
        <ele>104.4</ele>
        <time>2025-10-26T13:03:26Z</time>
      </trkpt>
      <trkpt lat="43.506" lon="6.68045">
        <ele>104.4</ele>
        <time>2025-10-26T13:03:27Z</time>
      </trkpt>
      <trkpt lat="43.506" lon="6.68043">
        <ele>104.6</ele>
        <time>2025-10-26T13:03:28Z</time>
      </trkpt>
      <trkpt lat="43.506" lon="6.68043">
        <ele>104.8</ele>
        <time>2025-10-26T13:03:29Z</time>
      </trkpt>
      <trkpt lat="43.50601" lon="6.68041">
        <ele>105</ele>
        <time>2025-10-26T13:03:30Z</time>
      </trkpt>
      <trkpt lat="43.50601" lon="6.6804">
        <ele>105.2</ele>
        <time>2025-10-26T13:03:31Z</time>
      </trkpt>
      <trkpt lat="43.50602" lon="6.68039">
        <ele>105.4</ele>
        <time>2025-10-26T13:03:32Z</time>
      </trkpt>
      <trkpt lat="43.50602" lon="6.68037">
        <ele>105.6</ele>
        <time>2025-10-26T13:03:33Z</time>
      </trkpt>
      <trkpt lat="43.50602" lon="6.68036">
        <ele>105.7</ele>
        <time>2025-10-26T13:03:34Z</time>
      </trkpt>
      <trkpt lat="43.50602" lon="6.68035">
        <ele>105.8</ele>
        <time>2025-10-26T13:03:35Z</time>
      </trkpt>
      <trkpt lat="43.50602" lon="6.68033">
        <ele>106.1</ele>
        <time>2025-10-26T13:03:36Z</time>
      </trkpt>
      <trkpt lat="43.50603" lon="6.68032">
        <ele>106.4</ele>
        <time>2025-10-26T13:03:37Z</time>
      </trkpt>
      <trkpt lat="43.50603" lon="6.6803">
        <ele>106.6</ele>
        <time>2025-10-26T13:03:38Z</time>
      </trkpt>
      <trkpt lat="43.50604" lon="6.68029">
        <ele>106.8</ele>
        <time>2025-10-26T13:03:39Z</time>
      </trkpt>
      <trkpt lat="43.50604" lon="6.68027">
        <ele>107</ele>
        <time>2025-10-26T13:03:40Z</time>
      </trkpt>
      <trkpt lat="43.50604" lon="6.68026">
        <ele>107.2</ele>
        <time>2025-10-26T13:03:41Z</time>
      </trkpt>
      <trkpt lat="43.50604" lon="6.68025">
        <ele>107.4</ele>
        <time>2025-10-26T13:03:42Z</time>
      </trkpt>
      <trkpt lat="43.50605" lon="6.68023">
        <ele>107.5</ele>
        <time>2025-10-26T13:03:43Z</time>
      </trkpt>
      <trkpt lat="43.50605" lon="6.68021">
        <ele>107.7</ele>
        <time>2025-10-26T13:03:44Z</time>
      </trkpt>
      <trkpt lat="43.50605" lon="6.6802">
        <ele>107.7</ele>
        <time>2025-10-26T13:03:45Z</time>
      </trkpt>
      <trkpt lat="43.50605" lon="6.68018">
        <ele>107.8</ele>
        <time>2025-10-26T13:03:46Z</time>
      </trkpt>
      <trkpt lat="43.50605" lon="6.68017">
        <ele>108</ele>
        <time>2025-10-26T13:03:47Z</time>
      </trkpt>
      <trkpt lat="43.50605" lon="6.68015">
        <ele>108.1</ele>
        <time>2025-10-26T13:03:48Z</time>
      </trkpt>
      <trkpt lat="43.50606" lon="6.68014">
        <ele>108.2</ele>
        <time>2025-10-26T13:03:49Z</time>
      </trkpt>
      <trkpt lat="43.50606" lon="6.68012">
        <ele>108.3</ele>
        <time>2025-10-26T13:03:50Z</time>
      </trkpt>
      <trkpt lat="43.50606" lon="6.68011">
        <ele>108.3</ele>
        <time>2025-10-26T13:03:51Z</time>
      </trkpt>
      <trkpt lat="43.50607" lon="6.6801">
        <ele>108.3</ele>
        <time>2025-10-26T13:03:52Z</time>
      </trkpt>
      <trkpt lat="43.50607" lon="6.68008">
        <ele>108.4</ele>
        <time>2025-10-26T13:03:53Z</time>
      </trkpt>
      <trkpt lat="43.50607" lon="6.68007">
        <ele>108.5</ele>
        <time>2025-10-26T13:03:54Z</time>
      </trkpt>
      <trkpt lat="43.50607" lon="6.68005">
        <ele>108.7</ele>
        <time>2025-10-26T13:03:55Z</time>
      </trkpt>
      <trkpt lat="43.50608" lon="6.68004">
        <ele>108.7</ele>
        <time>2025-10-26T13:03:56Z</time>
      </trkpt>
      <trkpt lat="43.50608" lon="6.68002">
        <ele>108.7</ele>
        <time>2025-10-26T13:03:57Z</time>
      </trkpt>
      <trkpt lat="43.50609" lon="6.68001">
        <ele>108.8</ele>
        <time>2025-10-26T13:03:58Z</time>
      </trkpt>
      <trkpt lat="43.50609" lon="6.67999">
        <ele>108.9</ele>
        <time>2025-10-26T13:03:59Z</time>
      </trkpt>
      <trkpt lat="43.5061" lon="6.67998">
        <ele>108.9</ele>
        <time>2025-10-26T13:04:00Z</time>
      </trkpt>
      <trkpt lat="43.5061" lon="6.67996">
        <ele>109</ele>
        <time>2025-10-26T13:04:01Z</time>
      </trkpt>
      <trkpt lat="43.5061" lon="6.67994">
        <ele>109.1</ele>
        <time>2025-10-26T13:04:02Z</time>
      </trkpt>
      <trkpt lat="43.5061" lon="6.67993">
        <ele>109.3</ele>
        <time>2025-10-26T13:04:03Z</time>
      </trkpt>
      <trkpt lat="43.50611" lon="6.67992">
        <ele>109.3</ele>
        <time>2025-10-26T13:04:04Z</time>
      </trkpt>
      <trkpt lat="43.50611" lon="6.6799">
        <ele>109.3</ele>
        <time>2025-10-26T13:04:05Z</time>
      </trkpt>
      <trkpt lat="43.50612" lon="6.67989">
        <ele>109.3</ele>
        <time>2025-10-26T13:04:06Z</time>
      </trkpt>
      <trkpt lat="43.50613" lon="6.67987">
        <ele>109.3</ele>
        <time>2025-10-26T13:04:07Z</time>
      </trkpt>
      <trkpt lat="43.50613" lon="6.67986">
        <ele>109.3</ele>
        <time>2025-10-26T13:04:08Z</time>
      </trkpt>
      <trkpt lat="43.50614" lon="6.67984">
        <ele>109.3</ele>
        <time>2025-10-26T13:04:09Z</time>
      </trkpt>
      <trkpt lat="43.50614" lon="6.67983">
        <ele>109.5</ele>
        <time>2025-10-26T13:04:10Z</time>
      </trkpt>
      <trkpt lat="43.50614" lon="6.67982">
        <ele>109.6</ele>
        <time>2025-10-26T13:04:11Z</time>
      </trkpt>
      <trkpt lat="43.50615" lon="6.6798">
        <ele>109.6</ele>
        <time>2025-10-26T13:04:12Z</time>
      </trkpt>
      <trkpt lat="43.50615" lon="6.67979">
        <ele>109.7</ele>
        <time>2025-10-26T13:04:13Z</time>
      </trkpt>
      <trkpt lat="43.50616" lon="6.67977">
        <ele>109.8</ele>
        <time>2025-10-26T13:04:14Z</time>
      </trkpt>
      <trkpt lat="43.50616" lon="6.67976">
        <ele>109.8</ele>
        <time>2025-10-26T13:04:15Z</time>
      </trkpt>
      <trkpt lat="43.50617" lon="6.67975">
        <ele>109.9</ele>
        <time>2025-10-26T13:04:16Z</time>
      </trkpt>
      <trkpt lat="43.50617" lon="6.67974">
        <ele>109.8</ele>
        <time>2025-10-26T13:04:17Z</time>
      </trkpt>
      <trkpt lat="43.50617" lon="6.67972">
        <ele>109.8</ele>
        <time>2025-10-26T13:04:18Z</time>
      </trkpt>
      <trkpt lat="43.50618" lon="6.67971">
        <ele>109.8</ele>
        <time>2025-10-26T13:04:19Z</time>
      </trkpt>
      <trkpt lat="43.50618" lon="6.6797">
        <ele>109.8</ele>
        <time>2025-10-26T13:04:20Z</time>
      </trkpt>
      <trkpt lat="43.50618" lon="6.67969">
        <ele>109.8</ele>
        <time>2025-10-26T13:04:21Z</time>
      </trkpt>
      <trkpt lat="43.50618" lon="6.67968">
        <ele>109.8</ele>
        <time>2025-10-26T13:04:22Z</time>
      </trkpt>
      <trkpt lat="43.50619" lon="6.67967">
        <ele>109.9</ele>
        <time>2025-10-26T13:04:23Z</time>
      </trkpt>
      <trkpt lat="43.50619" lon="6.67966">
        <ele>110.1</ele>
        <time>2025-10-26T13:04:24Z</time>
      </trkpt>
      <trkpt lat="43.50619" lon="6.67965">
        <ele>110.3</ele>
        <time>2025-10-26T13:04:25Z</time>
      </trkpt>
      <trkpt lat="43.5062" lon="6.67964">
        <ele>110.5</ele>
        <time>2025-10-26T13:04:26Z</time>
      </trkpt>
      <trkpt lat="43.5062" lon="6.67963">
        <ele>110.5</ele>
        <time>2025-10-26T13:04:27Z</time>
      </trkpt>
      <trkpt lat="43.50621" lon="6.67962">
        <ele>110.6</ele>
        <time>2025-10-26T13:04:28Z</time>
      </trkpt>
      <trkpt lat="43.50621" lon="6.67961">
        <ele>110.5</ele>
        <time>2025-10-26T13:04:29Z</time>
      </trkpt>
      <trkpt lat="43.50622" lon="6.6796">
        <ele>110.5</ele>
        <time>2025-10-26T13:04:30Z</time>
      </trkpt>
      <trkpt lat="43.50622" lon="6.67959">
        <ele>110.4</ele>
        <time>2025-10-26T13:04:31Z</time>
      </trkpt>
      <trkpt lat="43.50622" lon="6.67958">
        <ele>110.3</ele>
        <time>2025-10-26T13:04:32Z</time>
      </trkpt>
      <trkpt lat="43.50622" lon="6.67957">
        <ele>110.3</ele>
        <time>2025-10-26T13:04:33Z</time>
      </trkpt>
      <trkpt lat="43.50622" lon="6.67957">
        <ele>110.3</ele>
        <time>2025-10-26T13:04:34Z</time>
      </trkpt>
      <trkpt lat="43.50622" lon="6.67957">
        <ele>110.4</ele>
        <time>2025-10-26T13:04:35Z</time>
      </trkpt>
      <trkpt lat="43.50622" lon="6.67957">
        <ele>110.3</ele>
        <time>2025-10-26T13:04:36Z</time>
      </trkpt>
      <trkpt lat="43.50622" lon="6.67957">
        <ele>110.4</ele>
        <time>2025-10-26T13:04:37Z</time>
      </trkpt>
      <trkpt lat="43.50622" lon="6.67957">
        <ele>110.3</ele>
        <time>2025-10-26T13:04:38Z</time>
      </trkpt>
      <trkpt lat="43.50622" lon="6.67957">
        <ele>110.3</ele>
        <time>2025-10-26T13:04:39Z</time>
      </trkpt>
      <trkpt lat="43.50623" lon="6.67957">
        <ele>110.2</ele>
        <time>2025-10-26T13:04:40Z</time>
      </trkpt>
      <trkpt lat="43.50623" lon="6.67958">
        <ele>110.3</ele>
        <time>2025-10-26T13:04:41Z</time>
      </trkpt>
      <trkpt lat="43.50623" lon="6.67958">
        <ele>110.3</ele>
        <time>2025-10-26T13:04:42Z</time>
      </trkpt>
      <trkpt lat="43.50623" lon="6.67958">
        <ele>110.3</ele>
        <time>2025-10-26T13:04:43Z</time>
      </trkpt>
      <trkpt lat="43.50623" lon="6.67958">
        <ele>110.4</ele>
        <time>2025-10-26T13:04:44Z</time>
      </trkpt>
      <trkpt lat="43.50623" lon="6.67958">
        <ele>110.4</ele>
        <time>2025-10-26T13:04:45Z</time>
      </trkpt>
      <trkpt lat="43.50623" lon="6.67958">
        <ele>110.2</ele>
        <time>2025-10-26T13:04:46Z</time>
      </trkpt>
      <trkpt lat="43.50623" lon="6.67958">
        <ele>110</ele>
        <time>2025-10-26T13:04:47Z</time>
      </trkpt>
      <trkpt lat="43.50624" lon="6.67957">
        <ele>109.9</ele>
        <time>2025-10-26T13:04:48Z</time>
      </trkpt>
      <trkpt lat="43.50624" lon="6.67956">
        <ele>109.9</ele>
        <time>2025-10-26T13:04:49Z</time>
      </trkpt>
      <trkpt lat="43.50624" lon="6.67956">
        <ele>110</ele>
        <time>2025-10-26T13:04:50Z</time>
      </trkpt>
      <trkpt lat="43.50624" lon="6.67956">
        <ele>110</ele>
        <time>2025-10-26T13:04:51Z</time>
      </trkpt>
      <trkpt lat="43.50624" lon="6.67955">
        <ele>110.2</ele>
        <time>2025-10-26T13:04:52Z</time>
      </trkpt>
      <trkpt lat="43.50624" lon="6.67955">
        <ele>110.4</ele>
        <time>2025-10-26T13:04:53Z</time>
      </trkpt>
      <trkpt lat="43.50624" lon="6.67955">
        <ele>110.5</ele>
        <time>2025-10-26T13:04:54Z</time>
      </trkpt>
      <trkpt lat="43.50624" lon="6.67955">
        <ele>110.4</ele>
        <time>2025-10-26T13:04:55Z</time>
      </trkpt>
      <trkpt lat="43.50624" lon="6.67955">
        <ele>110.2</ele>
        <time>2025-10-26T13:04:56Z</time>
      </trkpt>
      <trkpt lat="43.50624" lon="6.67954">
        <ele>110.1</ele>
        <time>2025-10-26T13:04:57Z</time>
      </trkpt>
      <trkpt lat="43.50624" lon="6.67954">
        <ele>110.1</ele>
        <time>2025-10-26T13:04:58Z</time>
      </trkpt>
      <trkpt lat="43.50624" lon="6.67954">
        <ele>110.1</ele>
        <time>2025-10-26T13:04:59Z</time>
      </trkpt>
      <trkpt lat="43.50624" lon="6.67953">
        <ele>110.2</ele>
        <time>2025-10-26T13:05:00Z</time>
      </trkpt>
      <trkpt lat="43.50624" lon="6.67953">
        <ele>110.3</ele>
        <time>2025-10-26T13:05:01Z</time>
      </trkpt>
      <trkpt lat="43.50624" lon="6.67953">
        <ele>110.3</ele>
        <time>2025-10-26T13:05:02Z</time>
      </trkpt>
      <trkpt lat="43.50624" lon="6.67953">
        <ele>110.4</ele>
        <time>2025-10-26T13:05:03Z</time>
      </trkpt>
      <trkpt lat="43.50624" lon="6.67952">
        <ele>110.5</ele>
        <time>2025-10-26T13:05:04Z</time>
      </trkpt>
      <trkpt lat="43.50624" lon="6.67952">
        <ele>110.5</ele>
        <time>2025-10-26T13:05:05Z</time>
      </trkpt>
      <trkpt lat="43.50624" lon="6.67952">
        <ele>110.6</ele>
        <time>2025-10-26T13:05:06Z</time>
      </trkpt>
      <trkpt lat="43.50623" lon="6.67951">
        <ele>110.6</ele>
        <time>2025-10-26T13:05:07Z</time>
      </trkpt>
      <trkpt lat="43.50623" lon="6.67951">
        <ele>110.6</ele>
        <time>2025-10-26T13:05:08Z</time>
      </trkpt>
      <trkpt lat="43.50624" lon="6.67951">
        <ele>110.6</ele>
        <time>2025-10-26T13:05:09Z</time>
      </trkpt>
      <trkpt lat="43.50624" lon="6.67951">
        <ele>110.6</ele>
        <time>2025-10-26T13:05:10Z</time>
      </trkpt>
      <trkpt lat="43.50623" lon="6.67951">
        <ele>110.5</ele>
        <time>2025-10-26T13:05:11Z</time>
      </trkpt>
      <trkpt lat="43.50623" lon="6.67951">
        <ele>110.5</ele>
        <time>2025-10-26T13:05:12Z</time>
      </trkpt>
      <trkpt lat="43.50623" lon="6.6795">
        <ele>110.5</ele>
        <time>2025-10-26T13:05:13Z</time>
      </trkpt>
      <trkpt lat="43.50623" lon="6.6795">
        <ele>110.5</ele>
        <time>2025-10-26T13:05:14Z</time>
      </trkpt>
      <trkpt lat="43.50623" lon="6.6795">
        <ele>110.5</ele>
        <time>2025-10-26T13:05:15Z</time>
      </trkpt>
      <trkpt lat="43.50623" lon="6.6795">
        <ele>110.6</ele>
        <time>2025-10-26T13:05:16Z</time>
      </trkpt>
      <trkpt lat="43.50623" lon="6.6795">
        <ele>110.6</ele>
        <time>2025-10-26T13:05:17Z</time>
      </trkpt>
      <trkpt lat="43.50623" lon="6.6795">
        <ele>110.5</ele>
        <time>2025-10-26T13:05:18Z</time>
      </trkpt>
      <trkpt lat="43.50623" lon="6.67949">
        <ele>110.5</ele>
        <time>2025-10-26T13:05:19Z</time>
      </trkpt>
      <trkpt lat="43.50623" lon="6.67949">
        <ele>110.5</ele>
        <time>2025-10-26T13:05:20Z</time>
      </trkpt>
      <trkpt lat="43.50623" lon="6.67949">
        <ele>110.4</ele>
        <time>2025-10-26T13:05:21Z</time>
      </trkpt>
      <trkpt lat="43.50623" lon="6.67949">
        <ele>110.4</ele>
        <time>2025-10-26T13:05:22Z</time>
      </trkpt>
      <trkpt lat="43.50623" lon="6.67949">
        <ele>110.4</ele>
        <time>2025-10-26T13:05:23Z</time>
      </trkpt>
      <trkpt lat="43.50623" lon="6.67949">
        <ele>110.3</ele>
        <time>2025-10-26T13:05:24Z</time>
      </trkpt>
      <trkpt lat="43.50623" lon="6.67948">
        <ele>110.3</ele>
        <time>2025-10-26T13:05:25Z</time>
      </trkpt>
      <trkpt lat="43.50623" lon="6.67948">
        <ele>110.3</ele>
        <time>2025-10-26T13:05:26Z</time>
      </trkpt>
      <trkpt lat="43.50623" lon="6.67948">
        <ele>110.3</ele>
        <time>2025-10-26T13:05:27Z</time>
      </trkpt>
      <trkpt lat="43.50623" lon="6.67948">
        <ele>110.2</ele>
        <time>2025-10-26T13:05:28Z</time>
      </trkpt>
      <trkpt lat="43.50623" lon="6.67948">
        <ele>110.2</ele>
        <time>2025-10-26T13:05:29Z</time>
      </trkpt>
      <trkpt lat="43.50623" lon="6.67948">
        <ele>110.1</ele>
        <time>2025-10-26T13:05:30Z</time>
      </trkpt>
      <trkpt lat="43.50623" lon="6.67947">
        <ele>110.1</ele>
        <time>2025-10-26T13:05:31Z</time>
      </trkpt>
      <trkpt lat="43.50623" lon="6.67947">
        <ele>110.1</ele>
        <time>2025-10-26T13:05:32Z</time>
      </trkpt>
      <trkpt lat="43.50623" lon="6.67947">
        <ele>110.1</ele>
        <time>2025-10-26T13:05:33Z</time>
      </trkpt>
      <trkpt lat="43.50623" lon="6.67947">
        <ele>110.1</ele>
        <time>2025-10-26T13:05:34Z</time>
      </trkpt>
      <trkpt lat="43.50623" lon="6.67947">
        <ele>110</ele>
        <time>2025-10-26T13:05:35Z</time>
      </trkpt>
      <trkpt lat="43.50623" lon="6.67947">
        <ele>109.9</ele>
        <time>2025-10-26T13:05:36Z</time>
      </trkpt>
      <trkpt lat="43.50623" lon="6.67947">
        <ele>109.9</ele>
        <time>2025-10-26T13:05:37Z</time>
      </trkpt>
      <trkpt lat="43.50623" lon="6.67947">
        <ele>109.9</ele>
        <time>2025-10-26T13:05:38Z</time>
      </trkpt>
      <trkpt lat="43.50623" lon="6.67947">
        <ele>109.9</ele>
        <time>2025-10-26T13:05:39Z</time>
      </trkpt>
      <trkpt lat="43.50623" lon="6.67947">
        <ele>109.9</ele>
        <time>2025-10-26T13:05:40Z</time>
      </trkpt>
      <trkpt lat="43.50623" lon="6.67947">
        <ele>109.9</ele>
        <time>2025-10-26T13:05:41Z</time>
      </trkpt>
      <trkpt lat="43.50623" lon="6.67947">
        <ele>110</ele>
        <time>2025-10-26T13:05:42Z</time>
      </trkpt>
      <trkpt lat="43.50623" lon="6.67947">
        <ele>110.1</ele>
        <time>2025-10-26T13:05:43Z</time>
      </trkpt>
      <trkpt lat="43.50623" lon="6.67947">
        <ele>110.1</ele>
        <time>2025-10-26T13:05:44Z</time>
      </trkpt>
      <trkpt lat="43.50623" lon="6.67947">
        <ele>110.2</ele>
        <time>2025-10-26T13:05:45Z</time>
      </trkpt>
      <trkpt lat="43.50623" lon="6.67947">
        <ele>110.2</ele>
        <time>2025-10-26T13:05:46Z</time>
      </trkpt>
      <trkpt lat="43.50623" lon="6.67947">
        <ele>110.1</ele>
        <time>2025-10-26T13:05:47Z</time>
      </trkpt>
      <trkpt lat="43.50624" lon="6.67947">
        <ele>110.1</ele>
        <time>2025-10-26T13:05:48Z</time>
      </trkpt>
      <trkpt lat="43.50623" lon="6.67947">
        <ele>110.1</ele>
        <time>2025-10-26T13:05:49Z</time>
      </trkpt>
      <trkpt lat="43.50623" lon="6.67947">
        <ele>110.1</ele>
        <time>2025-10-26T13:05:50Z</time>
      </trkpt>
      <trkpt lat="43.50623" lon="6.67947">
        <ele>110.1</ele>
        <time>2025-10-26T13:05:51Z</time>
      </trkpt>
      <trkpt lat="43.50623" lon="6.67947">
        <ele>110</ele>
        <time>2025-10-26T13:05:52Z</time>
      </trkpt>
      <trkpt lat="43.50623" lon="6.67947">
        <ele>110</ele>
        <time>2025-10-26T13:05:53Z</time>
      </trkpt>
      <trkpt lat="43.50623" lon="6.67947">
        <ele>110</ele>
        <time>2025-10-26T13:05:54Z</time>
      </trkpt>
      <trkpt lat="43.50623" lon="6.67947">
        <ele>110</ele>
        <time>2025-10-26T13:05:55Z</time>
      </trkpt>
      <trkpt lat="43.50623" lon="6.67947">
        <ele>110</ele>
        <time>2025-10-26T13:05:56Z</time>
      </trkpt>
      <trkpt lat="43.50623" lon="6.67947">
        <ele>110</ele>
        <time>2025-10-26T13:05:57Z</time>
      </trkpt>
      <trkpt lat="43.50623" lon="6.67947">
        <ele>110</ele>
        <time>2025-10-26T13:05:58Z</time>
      </trkpt>
      <trkpt lat="43.50624" lon="6.67946">
        <ele>110</ele>
        <time>2025-10-26T13:05:59Z</time>
      </trkpt>
      <trkpt lat="43.50624" lon="6.67946">
        <ele>110</ele>
        <time>2025-10-26T13:06:00Z</time>
      </trkpt>
      <trkpt lat="43.50624" lon="6.67946">
        <ele>110.1</ele>
        <time>2025-10-26T13:06:01Z</time>
      </trkpt>
      <trkpt lat="43.50624" lon="6.67946">
        <ele>110</ele>
        <time>2025-10-26T13:06:02Z</time>
      </trkpt>
      <trkpt lat="43.50624" lon="6.67946">
        <ele>110</ele>
        <time>2025-10-26T13:06:03Z</time>
      </trkpt>
      <trkpt lat="43.50624" lon="6.67946">
        <ele>110</ele>
        <time>2025-10-26T13:06:04Z</time>
      </trkpt>
      <trkpt lat="43.50624" lon="6.67946">
        <ele>110</ele>
        <time>2025-10-26T13:06:05Z</time>
      </trkpt>
      <trkpt lat="43.50624" lon="6.67946">
        <ele>110.1</ele>
        <time>2025-10-26T13:06:06Z</time>
      </trkpt>
      <trkpt lat="43.50624" lon="6.67946">
        <ele>110.2</ele>
        <time>2025-10-26T13:06:07Z</time>
      </trkpt>
      <trkpt lat="43.50624" lon="6.67946">
        <ele>110.2</ele>
        <time>2025-10-26T13:06:08Z</time>
      </trkpt>
      <trkpt lat="43.50624" lon="6.67946">
        <ele>110.2</ele>
        <time>2025-10-26T13:06:09Z</time>
      </trkpt>
      <trkpt lat="43.50624" lon="6.67946">
        <ele>110.3</ele>
        <time>2025-10-26T13:06:10Z</time>
      </trkpt>
      <trkpt lat="43.50624" lon="6.67946">
        <ele>110.3</ele>
        <time>2025-10-26T13:06:11Z</time>
      </trkpt>
      <trkpt lat="43.50624" lon="6.67946">
        <ele>110.3</ele>
        <time>2025-10-26T13:06:12Z</time>
      </trkpt>
      <trkpt lat="43.50624" lon="6.67946">
        <ele>110.3</ele>
        <time>2025-10-26T13:06:13Z</time>
      </trkpt>
      <trkpt lat="43.50624" lon="6.67946">
        <ele>110.4</ele>
        <time>2025-10-26T13:06:14Z</time>
      </trkpt>
      <trkpt lat="43.50624" lon="6.67946">
        <ele>110.4</ele>
        <time>2025-10-26T13:06:15Z</time>
      </trkpt>
      <trkpt lat="43.50624" lon="6.67946">
        <ele>110.4</ele>
        <time>2025-10-26T13:06:16Z</time>
      </trkpt>
      <trkpt lat="43.50624" lon="6.67946">
        <ele>110.3</ele>
        <time>2025-10-26T13:06:17Z</time>
      </trkpt>
      <trkpt lat="43.50624" lon="6.67946">
        <ele>110.3</ele>
        <time>2025-10-26T13:06:18Z</time>
      </trkpt>
      <trkpt lat="43.50624" lon="6.67946">
        <ele>110.3</ele>
        <time>2025-10-26T13:06:19Z</time>
      </trkpt>
      <trkpt lat="43.50624" lon="6.67945">
        <ele>110.1</ele>
        <time>2025-10-26T13:06:20Z</time>
      </trkpt>
      <trkpt lat="43.50624" lon="6.67945">
        <ele>110</ele>
        <time>2025-10-26T13:06:21Z</time>
      </trkpt>
      <trkpt lat="43.50623" lon="6.67946">
        <ele>109.9</ele>
        <time>2025-10-26T13:06:22Z</time>
      </trkpt>
      <trkpt lat="43.50623" lon="6.67946">
        <ele>109.8</ele>
        <time>2025-10-26T13:06:23Z</time>
      </trkpt>
      <trkpt lat="43.50623" lon="6.67946">
        <ele>109.6</ele>
        <time>2025-10-26T13:06:24Z</time>
      </trkpt>
      <trkpt lat="43.50623" lon="6.67946">
        <ele>109.7</ele>
        <time>2025-10-26T13:06:25Z</time>
      </trkpt>
      <trkpt lat="43.50623" lon="6.67946">
        <ele>109.8</ele>
        <time>2025-10-26T13:06:26Z</time>
      </trkpt>
      <trkpt lat="43.50623" lon="6.67945">
        <ele>110</ele>
        <time>2025-10-26T13:06:27Z</time>
      </trkpt>
      <trkpt lat="43.50623" lon="6.67945">
        <ele>110.1</ele>
        <time>2025-10-26T13:06:28Z</time>
      </trkpt>
      <trkpt lat="43.50623" lon="6.67945">
        <ele>110.1</ele>
        <time>2025-10-26T13:06:29Z</time>
      </trkpt>
      <trkpt lat="43.50623" lon="6.67945">
        <ele>110.2</ele>
        <time>2025-10-26T13:06:30Z</time>
      </trkpt>
      <trkpt lat="43.50623" lon="6.67945">
        <ele>110.3</ele>
        <time>2025-10-26T13:06:31Z</time>
      </trkpt>
      <trkpt lat="43.50623" lon="6.67945">
        <ele>110.2</ele>
        <time>2025-10-26T13:06:32Z</time>
      </trkpt>
      <trkpt lat="43.50623" lon="6.67945">
        <ele>110.2</ele>
        <time>2025-10-26T13:06:33Z</time>
      </trkpt>
      <trkpt lat="43.50623" lon="6.67945">
        <ele>110.2</ele>
        <time>2025-10-26T13:06:34Z</time>
      </trkpt>
      <trkpt lat="43.50623" lon="6.67945">
        <ele>110.3</ele>
        <time>2025-10-26T13:06:35Z</time>
      </trkpt>
      <trkpt lat="43.50623" lon="6.67945">
        <ele>110.3</ele>
        <time>2025-10-26T13:06:36Z</time>
      </trkpt>
      <trkpt lat="43.50623" lon="6.67945">
        <ele>110.3</ele>
        <time>2025-10-26T13:06:37Z</time>
      </trkpt>
      <trkpt lat="43.50623" lon="6.67945">
        <ele>110.4</ele>
        <time>2025-10-26T13:06:38Z</time>
      </trkpt>
      <trkpt lat="43.50623" lon="6.67945">
        <ele>110.4</ele>
        <time>2025-10-26T13:06:39Z</time>
      </trkpt>
      <trkpt lat="43.50624" lon="6.67945">
        <ele>110.5</ele>
        <time>2025-10-26T13:06:40Z</time>
      </trkpt>
      <trkpt lat="43.50624" lon="6.67945">
        <ele>110.5</ele>
        <time>2025-10-26T13:06:41Z</time>
      </trkpt>
      <trkpt lat="43.50624" lon="6.67945">
        <ele>110.5</ele>
        <time>2025-10-26T13:06:42Z</time>
      </trkpt>
      <trkpt lat="43.50624" lon="6.67945">
        <ele>110.4</ele>
        <time>2025-10-26T13:06:43Z</time>
      </trkpt>
      <trkpt lat="43.50624" lon="6.67945">
        <ele>110.4</ele>
        <time>2025-10-26T13:06:44Z</time>
      </trkpt>
      <trkpt lat="43.50624" lon="6.67945">
        <ele>110.4</ele>
        <time>2025-10-26T13:06:45Z</time>
      </trkpt>
      <trkpt lat="43.50624" lon="6.67945">
        <ele>110.4</ele>
        <time>2025-10-26T13:06:46Z</time>
      </trkpt>
      <trkpt lat="43.50624" lon="6.67945">
        <ele>110.4</ele>
        <time>2025-10-26T13:06:47Z</time>
      </trkpt>
      <trkpt lat="43.50624" lon="6.67945">
        <ele>110.4</ele>
        <time>2025-10-26T13:06:48Z</time>
      </trkpt>
      <trkpt lat="43.50624" lon="6.67945">
        <ele>110.4</ele>
        <time>2025-10-26T13:06:49Z</time>
      </trkpt>
      <trkpt lat="43.50624" lon="6.67945">
        <ele>110.5</ele>
        <time>2025-10-26T13:06:50Z</time>
      </trkpt>
      <trkpt lat="43.50624" lon="6.67945">
        <ele>110.5</ele>
        <time>2025-10-26T13:06:51Z</time>
      </trkpt>
      <trkpt lat="43.50624" lon="6.67944">
        <ele>110.4</ele>
        <time>2025-10-26T13:06:52Z</time>
      </trkpt>
      <trkpt lat="43.50624" lon="6.67944">
        <ele>110.3</ele>
        <time>2025-10-26T13:06:53Z</time>
      </trkpt>
      <trkpt lat="43.50624" lon="6.67944">
        <ele>110.2</ele>
        <time>2025-10-26T13:06:54Z</time>
      </trkpt>
      <trkpt lat="43.50624" lon="6.67944">
        <ele>110</ele>
        <time>2025-10-26T13:06:55Z</time>
      </trkpt>
      <trkpt lat="43.50624" lon="6.67944">
        <ele>110</ele>
        <time>2025-10-26T13:06:56Z</time>
      </trkpt>
      <trkpt lat="43.50624" lon="6.67943">
        <ele>110</ele>
        <time>2025-10-26T13:06:57Z</time>
      </trkpt>
      <trkpt lat="43.50624" lon="6.67943">
        <ele>110.1</ele>
        <time>2025-10-26T13:06:58Z</time>
      </trkpt>
      <trkpt lat="43.50624" lon="6.67943">
        <ele>110.2</ele>
        <time>2025-10-26T13:06:59Z</time>
      </trkpt>
      <trkpt lat="43.50624" lon="6.67943">
        <ele>110.3</ele>
        <time>2025-10-26T13:07:00Z</time>
      </trkpt>
      <trkpt lat="43.50624" lon="6.67943">
        <ele>110.5</ele>
        <time>2025-10-26T13:07:01Z</time>
      </trkpt>
      <trkpt lat="43.50624" lon="6.67943">
        <ele>110.6</ele>
        <time>2025-10-26T13:07:02Z</time>
      </trkpt>
      <trkpt lat="43.50624" lon="6.67944">
        <ele>110.7</ele>
        <time>2025-10-26T13:07:03Z</time>
      </trkpt>
      <trkpt lat="43.50624" lon="6.67944">
        <ele>110.8</ele>
        <time>2025-10-26T13:07:04Z</time>
      </trkpt>
      <trkpt lat="43.50624" lon="6.67944">
        <ele>110.8</ele>
        <time>2025-10-26T13:07:05Z</time>
      </trkpt>
      <trkpt lat="43.50625" lon="6.67944">
        <ele>110.6</ele>
        <time>2025-10-26T13:07:06Z</time>
      </trkpt>
      <trkpt lat="43.50625" lon="6.67944">
        <ele>110.6</ele>
        <time>2025-10-26T13:07:07Z</time>
      </trkpt>
      <trkpt lat="43.50625" lon="6.67944">
        <ele>110.4</ele>
        <time>2025-10-26T13:07:08Z</time>
      </trkpt>
      <trkpt lat="43.50625" lon="6.67944">
        <ele>110.2</ele>
        <time>2025-10-26T13:07:09Z</time>
      </trkpt>
      <trkpt lat="43.50625" lon="6.67943">
        <ele>110.2</ele>
        <time>2025-10-26T13:07:10Z</time>
      </trkpt>
      <trkpt lat="43.50626" lon="6.67943">
        <ele>110.2</ele>
        <time>2025-10-26T13:07:11Z</time>
      </trkpt>
      <trkpt lat="43.50627" lon="6.67942">
        <ele>110.3</ele>
        <time>2025-10-26T13:07:12Z</time>
      </trkpt>
      <trkpt lat="43.50627" lon="6.67941">
        <ele>110.4</ele>
        <time>2025-10-26T13:07:13Z</time>
      </trkpt>
      <trkpt lat="43.50628" lon="6.67941">
        <ele>110.4</ele>
        <time>2025-10-26T13:07:14Z</time>
      </trkpt>
      <trkpt lat="43.50629" lon="6.6794">
        <ele>110.4</ele>
        <time>2025-10-26T13:07:15Z</time>
      </trkpt>
      <trkpt lat="43.50629" lon="6.67939">
        <ele>110.3</ele>
        <time>2025-10-26T13:07:16Z</time>
      </trkpt>
      <trkpt lat="43.50629" lon="6.67938">
        <ele>110.3</ele>
        <time>2025-10-26T13:07:17Z</time>
      </trkpt>
      <trkpt lat="43.5063" lon="6.67937">
        <ele>110.5</ele>
        <time>2025-10-26T13:07:18Z</time>
      </trkpt>
      <trkpt lat="43.5063" lon="6.67936">
        <ele>110.7</ele>
        <time>2025-10-26T13:07:19Z</time>
      </trkpt>
      <trkpt lat="43.50631" lon="6.67935">
        <ele>110.9</ele>
        <time>2025-10-26T13:07:20Z</time>
      </trkpt>
      <trkpt lat="43.50631" lon="6.67933">
        <ele>111</ele>
        <time>2025-10-26T13:07:21Z</time>
      </trkpt>
      <trkpt lat="43.50632" lon="6.67932">
        <ele>111.1</ele>
        <time>2025-10-26T13:07:22Z</time>
      </trkpt>
      <trkpt lat="43.50632" lon="6.67931">
        <ele>111.2</ele>
        <time>2025-10-26T13:07:23Z</time>
      </trkpt>
      <trkpt lat="43.50633" lon="6.6793">
        <ele>111.2</ele>
        <time>2025-10-26T13:07:24Z</time>
      </trkpt>
      <trkpt lat="43.50633" lon="6.67929">
        <ele>111.2</ele>
        <time>2025-10-26T13:07:25Z</time>
      </trkpt>
      <trkpt lat="43.50633" lon="6.67928">
        <ele>111.3</ele>
        <time>2025-10-26T13:07:26Z</time>
      </trkpt>
      <trkpt lat="43.50634" lon="6.67927">
        <ele>111.2</ele>
        <time>2025-10-26T13:07:27Z</time>
      </trkpt>
      <trkpt lat="43.50634" lon="6.67925">
        <ele>111.1</ele>
        <time>2025-10-26T13:07:28Z</time>
      </trkpt>
      <trkpt lat="43.50634" lon="6.67924">
        <ele>111.1</ele>
        <time>2025-10-26T13:07:29Z</time>
      </trkpt>
      <trkpt lat="43.50635" lon="6.67922">
        <ele>111.2</ele>
        <time>2025-10-26T13:07:30Z</time>
      </trkpt>
      <trkpt lat="43.50635" lon="6.67921">
        <ele>111.3</ele>
        <time>2025-10-26T13:07:31Z</time>
      </trkpt>
      <trkpt lat="43.50636" lon="6.67919">
        <ele>111.2</ele>
        <time>2025-10-26T13:07:32Z</time>
      </trkpt>
      <trkpt lat="43.50636" lon="6.67918">
        <ele>111.2</ele>
        <time>2025-10-26T13:07:33Z</time>
      </trkpt>
      <trkpt lat="43.50636" lon="6.67917">
        <ele>111</ele>
        <time>2025-10-26T13:07:34Z</time>
      </trkpt>
      <trkpt lat="43.50637" lon="6.67916">
        <ele>111</ele>
        <time>2025-10-26T13:07:35Z</time>
      </trkpt>
      <trkpt lat="43.50637" lon="6.67915">
        <ele>111</ele>
        <time>2025-10-26T13:07:36Z</time>
      </trkpt>
      <trkpt lat="43.50638" lon="6.67913">
        <ele>110.9</ele>
        <time>2025-10-26T13:07:37Z</time>
      </trkpt>
      <trkpt lat="43.50638" lon="6.67912">
        <ele>110.9</ele>
        <time>2025-10-26T13:07:38Z</time>
      </trkpt>
      <trkpt lat="43.50639" lon="6.67911">
        <ele>111.1</ele>
        <time>2025-10-26T13:07:39Z</time>
      </trkpt>
      <trkpt lat="43.50639" lon="6.6791">
        <ele>111.2</ele>
        <time>2025-10-26T13:07:40Z</time>
      </trkpt>
      <trkpt lat="43.5064" lon="6.67909">
        <ele>111.2</ele>
        <time>2025-10-26T13:07:41Z</time>
      </trkpt>
      <trkpt lat="43.50641" lon="6.67908">
        <ele>111.4</ele>
        <time>2025-10-26T13:07:42Z</time>
      </trkpt>
      <trkpt lat="43.50642" lon="6.67907">
        <ele>111.4</ele>
        <time>2025-10-26T13:07:43Z</time>
      </trkpt>
      <trkpt lat="43.50642" lon="6.67906">
        <ele>111.3</ele>
        <time>2025-10-26T13:07:44Z</time>
      </trkpt>
      <trkpt lat="43.50643" lon="6.67905">
        <ele>111.1</ele>
        <time>2025-10-26T13:07:45Z</time>
      </trkpt>
      <trkpt lat="43.50644" lon="6.67904">
        <ele>111.1</ele>
        <time>2025-10-26T13:07:46Z</time>
      </trkpt>
      <trkpt lat="43.50644" lon="6.67903">
        <ele>111.1</ele>
        <time>2025-10-26T13:07:47Z</time>
      </trkpt>
      <trkpt lat="43.50645" lon="6.67902">
        <ele>111.1</ele>
        <time>2025-10-26T13:07:48Z</time>
      </trkpt>
      <trkpt lat="43.50646" lon="6.67901">
        <ele>111.1</ele>
        <time>2025-10-26T13:07:49Z</time>
      </trkpt>
      <trkpt lat="43.50646" lon="6.679">
        <ele>111.1</ele>
        <time>2025-10-26T13:07:50Z</time>
      </trkpt>
      <trkpt lat="43.50646" lon="6.679">
        <ele>111.1</ele>
        <time>2025-10-26T13:07:51Z</time>
      </trkpt>
      <trkpt lat="43.50647" lon="6.67898">
        <ele>111.1</ele>
        <time>2025-10-26T13:07:52Z</time>
      </trkpt>
      <trkpt lat="43.50648" lon="6.67897">
        <ele>111</ele>
        <time>2025-10-26T13:07:53Z</time>
      </trkpt>
      <trkpt lat="43.50649" lon="6.67896">
        <ele>110.9</ele>
        <time>2025-10-26T13:07:54Z</time>
      </trkpt>
      <trkpt lat="43.50649" lon="6.67894">
        <ele>110.7</ele>
        <time>2025-10-26T13:07:55Z</time>
      </trkpt>
      <trkpt lat="43.5065" lon="6.67893">
        <ele>110.6</ele>
        <time>2025-10-26T13:07:56Z</time>
      </trkpt>
      <trkpt lat="43.50651" lon="6.67891">
        <ele>110.6</ele>
        <time>2025-10-26T13:07:57Z</time>
      </trkpt>
      <trkpt lat="43.50651" lon="6.6789">
        <ele>110.6</ele>
        <time>2025-10-26T13:07:58Z</time>
      </trkpt>
      <trkpt lat="43.50652" lon="6.67888">
        <ele>110.5</ele>
        <time>2025-10-26T13:07:59Z</time>
      </trkpt>
      <trkpt lat="43.50652" lon="6.67887">
        <ele>110.5</ele>
        <time>2025-10-26T13:08:00Z</time>
      </trkpt>
      <trkpt lat="43.50652" lon="6.67885">
        <ele>110.3</ele>
        <time>2025-10-26T13:08:01Z</time>
      </trkpt>
      <trkpt lat="43.50652" lon="6.67883">
        <ele>110.3</ele>
        <time>2025-10-26T13:08:02Z</time>
      </trkpt>
      <trkpt lat="43.50653" lon="6.67881">
        <ele>110.1</ele>
        <time>2025-10-26T13:08:03Z</time>
      </trkpt>
      <trkpt lat="43.50654" lon="6.6788">
        <ele>109.8</ele>
        <time>2025-10-26T13:08:04Z</time>
      </trkpt>
      <trkpt lat="43.50655" lon="6.67878">
        <ele>109.6</ele>
        <time>2025-10-26T13:08:05Z</time>
      </trkpt>
      <trkpt lat="43.50655" lon="6.67878">
        <ele>109.4</ele>
        <time>2025-10-26T13:08:06Z</time>
      </trkpt>
      <trkpt lat="43.50656" lon="6.67877">
        <ele>109.2</ele>
        <time>2025-10-26T13:08:07Z</time>
      </trkpt>
      <trkpt lat="43.50657" lon="6.67875">
        <ele>109.1</ele>
        <time>2025-10-26T13:08:08Z</time>
      </trkpt>
      <trkpt lat="43.50658" lon="6.67874">
        <ele>108.9</ele>
        <time>2025-10-26T13:08:09Z</time>
      </trkpt>
      <trkpt lat="43.50658" lon="6.67872">
        <ele>108.7</ele>
        <time>2025-10-26T13:08:10Z</time>
      </trkpt>
      <trkpt lat="43.50658" lon="6.67871">
        <ele>108.6</ele>
        <time>2025-10-26T13:08:11Z</time>
      </trkpt>
      <trkpt lat="43.50658" lon="6.67869">
        <ele>108.4</ele>
        <time>2025-10-26T13:08:12Z</time>
      </trkpt>
      <trkpt lat="43.50659" lon="6.67868">
        <ele>108.4</ele>
        <time>2025-10-26T13:08:13Z</time>
      </trkpt>
      <trkpt lat="43.50659" lon="6.67867">
        <ele>108.4</ele>
        <time>2025-10-26T13:08:14Z</time>
      </trkpt>
      <trkpt lat="43.5066" lon="6.67866">
        <ele>108.5</ele>
        <time>2025-10-26T13:08:15Z</time>
      </trkpt>
      <trkpt lat="43.5066" lon="6.67864">
        <ele>108.6</ele>
        <time>2025-10-26T13:08:16Z</time>
      </trkpt>
      <trkpt lat="43.50661" lon="6.67863">
        <ele>108.6</ele>
        <time>2025-10-26T13:08:17Z</time>
      </trkpt>
      <trkpt lat="43.50662" lon="6.67862">
        <ele>108.6</ele>
        <time>2025-10-26T13:08:18Z</time>
      </trkpt>
      <trkpt lat="43.50662" lon="6.67861">
        <ele>108.6</ele>
        <time>2025-10-26T13:08:19Z</time>
      </trkpt>
      <trkpt lat="43.50662" lon="6.67859">
        <ele>108.7</ele>
        <time>2025-10-26T13:08:20Z</time>
      </trkpt>
      <trkpt lat="43.50663" lon="6.67858">
        <ele>108.7</ele>
        <time>2025-10-26T13:08:21Z</time>
      </trkpt>
      <trkpt lat="43.50663" lon="6.67857">
        <ele>108.8</ele>
        <time>2025-10-26T13:08:22Z</time>
      </trkpt>
      <trkpt lat="43.50664" lon="6.67856">
        <ele>108.9</ele>
        <time>2025-10-26T13:08:23Z</time>
      </trkpt>
      <trkpt lat="43.50665" lon="6.67854">
        <ele>108.9</ele>
        <time>2025-10-26T13:08:24Z</time>
      </trkpt>
      <trkpt lat="43.50665" lon="6.67852">
        <ele>109</ele>
        <time>2025-10-26T13:08:25Z</time>
      </trkpt>
      <trkpt lat="43.50666" lon="6.67851">
        <ele>109</ele>
        <time>2025-10-26T13:08:26Z</time>
      </trkpt>
      <trkpt lat="43.50667" lon="6.67849">
        <ele>108.9</ele>
        <time>2025-10-26T13:08:27Z</time>
      </trkpt>
      <trkpt lat="43.50667" lon="6.67848">
        <ele>108.9</ele>
        <time>2025-10-26T13:08:28Z</time>
      </trkpt>
      <trkpt lat="43.50668" lon="6.67846">
        <ele>109</ele>
        <time>2025-10-26T13:08:29Z</time>
      </trkpt>
      <trkpt lat="43.50668" lon="6.67845">
        <ele>109.1</ele>
        <time>2025-10-26T13:08:30Z</time>
      </trkpt>
      <trkpt lat="43.50669" lon="6.67844">
        <ele>109.2</ele>
        <time>2025-10-26T13:08:31Z</time>
      </trkpt>
      <trkpt lat="43.50669" lon="6.67844">
        <ele>109.2</ele>
        <time>2025-10-26T13:08:32Z</time>
      </trkpt>
      <trkpt lat="43.5067" lon="6.67842">
        <ele>109.4</ele>
        <time>2025-10-26T13:08:33Z</time>
      </trkpt>
      <trkpt lat="43.50671" lon="6.67841">
        <ele>109.5</ele>
        <time>2025-10-26T13:08:34Z</time>
      </trkpt>
      <trkpt lat="43.50671" lon="6.6784">
        <ele>109.6</ele>
        <time>2025-10-26T13:08:35Z</time>
      </trkpt>
      <trkpt lat="43.50672" lon="6.67838">
        <ele>109.7</ele>
        <time>2025-10-26T13:08:36Z</time>
      </trkpt>
      <trkpt lat="43.50673" lon="6.67836">
        <ele>109.8</ele>
        <time>2025-10-26T13:08:37Z</time>
      </trkpt>
      <trkpt lat="43.50673" lon="6.67835">
        <ele>110.1</ele>
        <time>2025-10-26T13:08:38Z</time>
      </trkpt>
      <trkpt lat="43.50674" lon="6.67834">
        <ele>110.1</ele>
        <time>2025-10-26T13:08:39Z</time>
      </trkpt>
      <trkpt lat="43.50674" lon="6.67833">
        <ele>110.1</ele>
        <time>2025-10-26T13:08:40Z</time>
      </trkpt>
      <trkpt lat="43.50675" lon="6.67831">
        <ele>110</ele>
        <time>2025-10-26T13:08:41Z</time>
      </trkpt>
      <trkpt lat="43.50675" lon="6.6783">
        <ele>110</ele>
        <time>2025-10-26T13:08:42Z</time>
      </trkpt>
      <trkpt lat="43.50675" lon="6.67829">
        <ele>110.1</ele>
        <time>2025-10-26T13:08:43Z</time>
      </trkpt>
      <trkpt lat="43.50675" lon="6.67827">
        <ele>110</ele>
        <time>2025-10-26T13:08:44Z</time>
      </trkpt>
      <trkpt lat="43.50676" lon="6.67825">
        <ele>109.9</ele>
        <time>2025-10-26T13:08:45Z</time>
      </trkpt>
      <trkpt lat="43.50676" lon="6.67824">
        <ele>109.9</ele>
        <time>2025-10-26T13:08:46Z</time>
      </trkpt>
      <trkpt lat="43.50677" lon="6.67822">
        <ele>109.8</ele>
        <time>2025-10-26T13:08:47Z</time>
      </trkpt>
      <trkpt lat="43.50678" lon="6.67821">
        <ele>109.5</ele>
        <time>2025-10-26T13:08:48Z</time>
      </trkpt>
      <trkpt lat="43.50678" lon="6.67819">
        <ele>109.4</ele>
        <time>2025-10-26T13:08:49Z</time>
      </trkpt>
      <trkpt lat="43.50679" lon="6.67817">
        <ele>109.2</ele>
        <time>2025-10-26T13:08:50Z</time>
      </trkpt>
      <trkpt lat="43.50679" lon="6.67816">
        <ele>109.2</ele>
        <time>2025-10-26T13:08:51Z</time>
      </trkpt>
      <trkpt lat="43.5068" lon="6.67814">
        <ele>109.3</ele>
        <time>2025-10-26T13:08:52Z</time>
      </trkpt>
      <trkpt lat="43.5068" lon="6.67812">
        <ele>109.2</ele>
        <time>2025-10-26T13:08:53Z</time>
      </trkpt>
      <trkpt lat="43.50681" lon="6.6781">
        <ele>109.1</ele>
        <time>2025-10-26T13:08:54Z</time>
      </trkpt>
      <trkpt lat="43.50682" lon="6.67808">
        <ele>108.9</ele>
        <time>2025-10-26T13:08:55Z</time>
      </trkpt>
      <trkpt lat="43.50682" lon="6.67806">
        <ele>108.9</ele>
        <time>2025-10-26T13:08:56Z</time>
      </trkpt>
      <trkpt lat="43.50683" lon="6.67804">
        <ele>108.9</ele>
        <time>2025-10-26T13:08:57Z</time>
      </trkpt>
      <trkpt lat="43.50683" lon="6.67803">
        <ele>108.8</ele>
        <time>2025-10-26T13:08:58Z</time>
      </trkpt>
      <trkpt lat="43.50684" lon="6.67801">
        <ele>108.7</ele>
        <time>2025-10-26T13:08:59Z</time>
      </trkpt>
      <trkpt lat="43.50685" lon="6.678">
        <ele>108.6</ele>
        <time>2025-10-26T13:09:00Z</time>
      </trkpt>
      <trkpt lat="43.50685" lon="6.67799">
        <ele>108.4</ele>
        <time>2025-10-26T13:09:01Z</time>
      </trkpt>
      <trkpt lat="43.50686" lon="6.67797">
        <ele>108.2</ele>
        <time>2025-10-26T13:09:02Z</time>
      </trkpt>
      <trkpt lat="43.50686" lon="6.67795">
        <ele>107.8</ele>
        <time>2025-10-26T13:09:03Z</time>
      </trkpt>
      <trkpt lat="43.50686" lon="6.67794">
        <ele>107.5</ele>
        <time>2025-10-26T13:09:04Z</time>
      </trkpt>
      <trkpt lat="43.50686" lon="6.67792">
        <ele>107.3</ele>
        <time>2025-10-26T13:09:05Z</time>
      </trkpt>
      <trkpt lat="43.50686" lon="6.67791">
        <ele>107.2</ele>
        <time>2025-10-26T13:09:06Z</time>
      </trkpt>
      <trkpt lat="43.50687" lon="6.67789">
        <ele>107</ele>
        <time>2025-10-26T13:09:07Z</time>
      </trkpt>
      <trkpt lat="43.50688" lon="6.67787">
        <ele>106.9</ele>
        <time>2025-10-26T13:09:08Z</time>
      </trkpt>
      <trkpt lat="43.50689" lon="6.67786">
        <ele>106.9</ele>
        <time>2025-10-26T13:09:09Z</time>
      </trkpt>
      <trkpt lat="43.50689" lon="6.67784">
        <ele>106.9</ele>
        <time>2025-10-26T13:09:10Z</time>
      </trkpt>
      <trkpt lat="43.5069" lon="6.67783">
        <ele>106.8</ele>
        <time>2025-10-26T13:09:11Z</time>
      </trkpt>
      <trkpt lat="43.5069" lon="6.67781">
        <ele>106.8</ele>
        <time>2025-10-26T13:09:12Z</time>
      </trkpt>
      <trkpt lat="43.50691" lon="6.6778">
        <ele>106.7</ele>
        <time>2025-10-26T13:09:13Z</time>
      </trkpt>
      <trkpt lat="43.50692" lon="6.67779">
        <ele>106.6</ele>
        <time>2025-10-26T13:09:14Z</time>
      </trkpt>
      <trkpt lat="43.50693" lon="6.67777">
        <ele>106.5</ele>
        <time>2025-10-26T13:09:15Z</time>
      </trkpt>
      <trkpt lat="43.50694" lon="6.67776">
        <ele>106.4</ele>
        <time>2025-10-26T13:09:16Z</time>
      </trkpt>
      <trkpt lat="43.50694" lon="6.67775">
        <ele>106.3</ele>
        <time>2025-10-26T13:09:17Z</time>
      </trkpt>
      <trkpt lat="43.50694" lon="6.67773">
        <ele>106.2</ele>
        <time>2025-10-26T13:09:18Z</time>
      </trkpt>
      <trkpt lat="43.50695" lon="6.67772">
        <ele>106.3</ele>
        <time>2025-10-26T13:09:19Z</time>
      </trkpt>
      <trkpt lat="43.50695" lon="6.6777">
        <ele>106.3</ele>
        <time>2025-10-26T13:09:20Z</time>
      </trkpt>
      <trkpt lat="43.50696" lon="6.67768">
        <ele>106.3</ele>
        <time>2025-10-26T13:09:21Z</time>
      </trkpt>
      <trkpt lat="43.50697" lon="6.67766">
        <ele>106.3</ele>
        <time>2025-10-26T13:09:22Z</time>
      </trkpt>
      <trkpt lat="43.50698" lon="6.67765">
        <ele>106.1</ele>
        <time>2025-10-26T13:09:23Z</time>
      </trkpt>
      <trkpt lat="43.50698" lon="6.67763">
        <ele>106</ele>
        <time>2025-10-26T13:09:24Z</time>
      </trkpt>
      <trkpt lat="43.50699" lon="6.67762">
        <ele>105.9</ele>
        <time>2025-10-26T13:09:25Z</time>
      </trkpt>
      <trkpt lat="43.50699" lon="6.6776">
        <ele>105.6</ele>
        <time>2025-10-26T13:09:26Z</time>
      </trkpt>
      <trkpt lat="43.50699" lon="6.67759">
        <ele>105.5</ele>
        <time>2025-10-26T13:09:27Z</time>
      </trkpt>
      <trkpt lat="43.507" lon="6.67757">
        <ele>105.3</ele>
        <time>2025-10-26T13:09:28Z</time>
      </trkpt>
      <trkpt lat="43.507" lon="6.67756">
        <ele>105.2</ele>
        <time>2025-10-26T13:09:29Z</time>
      </trkpt>
      <trkpt lat="43.50701" lon="6.67754">
        <ele>105</ele>
        <time>2025-10-26T13:09:30Z</time>
      </trkpt>
      <trkpt lat="43.50701" lon="6.67753">
        <ele>104.6</ele>
        <time>2025-10-26T13:09:31Z</time>
      </trkpt>
      <trkpt lat="43.50702" lon="6.67751">
        <ele>104.2</ele>
        <time>2025-10-26T13:09:32Z</time>
      </trkpt>
      <trkpt lat="43.50702" lon="6.67749">
        <ele>104</ele>
        <time>2025-10-26T13:09:33Z</time>
      </trkpt>
      <trkpt lat="43.50702" lon="6.67748">
        <ele>103.5</ele>
        <time>2025-10-26T13:09:34Z</time>
      </trkpt>
      <trkpt lat="43.50703" lon="6.67746">
        <ele>103.3</ele>
        <time>2025-10-26T13:09:35Z</time>
      </trkpt>
      <trkpt lat="43.50703" lon="6.67745">
        <ele>103</ele>
        <time>2025-10-26T13:09:36Z</time>
      </trkpt>
      <trkpt lat="43.50704" lon="6.67743">
        <ele>102.7</ele>
        <time>2025-10-26T13:09:37Z</time>
      </trkpt>
      <trkpt lat="43.50704" lon="6.67742">
        <ele>102.5</ele>
        <time>2025-10-26T13:09:38Z</time>
      </trkpt>
      <trkpt lat="43.50705" lon="6.6774">
        <ele>102.1</ele>
        <time>2025-10-26T13:09:39Z</time>
      </trkpt>
      <trkpt lat="43.50706" lon="6.67739">
        <ele>102</ele>
        <time>2025-10-26T13:09:40Z</time>
      </trkpt>
      <trkpt lat="43.50706" lon="6.67738">
        <ele>102</ele>
        <time>2025-10-26T13:09:41Z</time>
      </trkpt>
      <trkpt lat="43.50707" lon="6.67736">
        <ele>101.9</ele>
        <time>2025-10-26T13:09:42Z</time>
      </trkpt>
      <trkpt lat="43.50708" lon="6.67735">
        <ele>101.9</ele>
        <time>2025-10-26T13:09:43Z</time>
      </trkpt>
      <trkpt lat="43.50708" lon="6.67733">
        <ele>102</ele>
        <time>2025-10-26T13:09:44Z</time>
      </trkpt>
      <trkpt lat="43.50709" lon="6.67732">
        <ele>101.8</ele>
        <time>2025-10-26T13:09:45Z</time>
      </trkpt>
      <trkpt lat="43.50709" lon="6.67731">
        <ele>101.8</ele>
        <time>2025-10-26T13:09:46Z</time>
      </trkpt>
      <trkpt lat="43.5071" lon="6.67729">
        <ele>101.7</ele>
        <time>2025-10-26T13:09:47Z</time>
      </trkpt>
      <trkpt lat="43.5071" lon="6.67728">
        <ele>101.5</ele>
        <time>2025-10-26T13:09:48Z</time>
      </trkpt>
      <trkpt lat="43.50711" lon="6.67726">
        <ele>101.4</ele>
        <time>2025-10-26T13:09:49Z</time>
      </trkpt>
      <trkpt lat="43.50711" lon="6.67724">
        <ele>101.1</ele>
        <time>2025-10-26T13:09:50Z</time>
      </trkpt>
      <trkpt lat="43.50712" lon="6.67723">
        <ele>101</ele>
        <time>2025-10-26T13:09:51Z</time>
      </trkpt>
      <trkpt lat="43.50713" lon="6.67721">
        <ele>100.9</ele>
        <time>2025-10-26T13:09:52Z</time>
      </trkpt>
      <trkpt lat="43.50713" lon="6.6772">
        <ele>101</ele>
        <time>2025-10-26T13:09:53Z</time>
      </trkpt>
      <trkpt lat="43.50713" lon="6.67718">
        <ele>101.1</ele>
        <time>2025-10-26T13:09:54Z</time>
      </trkpt>
      <trkpt lat="43.50714" lon="6.67716">
        <ele>101.3</ele>
        <time>2025-10-26T13:09:55Z</time>
      </trkpt>
      <trkpt lat="43.50715" lon="6.67715">
        <ele>101.5</ele>
        <time>2025-10-26T13:09:56Z</time>
      </trkpt>
      <trkpt lat="43.50716" lon="6.67714">
        <ele>101.6</ele>
        <time>2025-10-26T13:09:57Z</time>
      </trkpt>
      <trkpt lat="43.50716" lon="6.67713">
        <ele>101.8</ele>
        <time>2025-10-26T13:09:58Z</time>
      </trkpt>
      <trkpt lat="43.50717" lon="6.67712">
        <ele>101.9</ele>
        <time>2025-10-26T13:09:59Z</time>
      </trkpt>
      <trkpt lat="43.50718" lon="6.67711">
        <ele>102.1</ele>
        <time>2025-10-26T13:10:00Z</time>
      </trkpt>
      <trkpt lat="43.50718" lon="6.67709">
        <ele>102.3</ele>
        <time>2025-10-26T13:10:01Z</time>
      </trkpt>
      <trkpt lat="43.50718" lon="6.67708">
        <ele>102.5</ele>
        <time>2025-10-26T13:10:02Z</time>
      </trkpt>
      <trkpt lat="43.50719" lon="6.67706">
        <ele>102.6</ele>
        <time>2025-10-26T13:10:03Z</time>
      </trkpt>
      <trkpt lat="43.50719" lon="6.67704">
        <ele>102.7</ele>
        <time>2025-10-26T13:10:04Z</time>
      </trkpt>
      <trkpt lat="43.5072" lon="6.67703">
        <ele>103.2</ele>
        <time>2025-10-26T13:10:05Z</time>
      </trkpt>
      <trkpt lat="43.5072" lon="6.67702">
        <ele>103.5</ele>
        <time>2025-10-26T13:10:06Z</time>
      </trkpt>
      <trkpt lat="43.50721" lon="6.67701">
        <ele>103.6</ele>
        <time>2025-10-26T13:10:07Z</time>
      </trkpt>
      <trkpt lat="43.50721" lon="6.677">
        <ele>103.8</ele>
        <time>2025-10-26T13:10:08Z</time>
      </trkpt>
      <trkpt lat="43.50722" lon="6.67699">
        <ele>104.2</ele>
        <time>2025-10-26T13:10:09Z</time>
      </trkpt>
      <trkpt lat="43.50722" lon="6.67698">
        <ele>104.5</ele>
        <time>2025-10-26T13:10:10Z</time>
      </trkpt>
      <trkpt lat="43.50722" lon="6.67697">
        <ele>104.7</ele>
        <time>2025-10-26T13:10:11Z</time>
      </trkpt>
      <trkpt lat="43.50723" lon="6.67696">
        <ele>104.9</ele>
        <time>2025-10-26T13:10:12Z</time>
      </trkpt>
      <trkpt lat="43.50723" lon="6.67695">
        <ele>105.2</ele>
        <time>2025-10-26T13:10:13Z</time>
      </trkpt>
      <trkpt lat="43.50724" lon="6.67694">
        <ele>105.4</ele>
        <time>2025-10-26T13:10:14Z</time>
      </trkpt>
      <trkpt lat="43.50725" lon="6.67693">
        <ele>105.6</ele>
        <time>2025-10-26T13:10:15Z</time>
      </trkpt>
      <trkpt lat="43.50725" lon="6.67692">
        <ele>105.9</ele>
        <time>2025-10-26T13:10:16Z</time>
      </trkpt>
      <trkpt lat="43.50726" lon="6.6769">
        <ele>106.2</ele>
        <time>2025-10-26T13:10:17Z</time>
      </trkpt>
      <trkpt lat="43.50726" lon="6.67689">
        <ele>106.4</ele>
        <time>2025-10-26T13:10:18Z</time>
      </trkpt>
      <trkpt lat="43.50727" lon="6.67688">
        <ele>106.7</ele>
        <time>2025-10-26T13:10:19Z</time>
      </trkpt>
      <trkpt lat="43.50727" lon="6.67687">
        <ele>106.9</ele>
        <time>2025-10-26T13:10:20Z</time>
      </trkpt>
      <trkpt lat="43.50727" lon="6.67687">
        <ele>107.1</ele>
        <time>2025-10-26T13:10:21Z</time>
      </trkpt>
      <trkpt lat="43.50727" lon="6.67687">
        <ele>107.1</ele>
        <time>2025-10-26T13:10:22Z</time>
      </trkpt>
      <trkpt lat="43.50727" lon="6.67686">
        <ele>107.1</ele>
        <time>2025-10-26T13:10:23Z</time>
      </trkpt>
      <trkpt lat="43.50727" lon="6.67686">
        <ele>107.2</ele>
        <time>2025-10-26T13:10:24Z</time>
      </trkpt>
      <trkpt lat="43.50728" lon="6.67686">
        <ele>107.3</ele>
        <time>2025-10-26T13:10:25Z</time>
      </trkpt>
      <trkpt lat="43.50728" lon="6.67685">
        <ele>107.4</ele>
        <time>2025-10-26T13:10:26Z</time>
      </trkpt>
      <trkpt lat="43.50728" lon="6.67684">
        <ele>107.6</ele>
        <time>2025-10-26T13:10:27Z</time>
      </trkpt>
      <trkpt lat="43.50728" lon="6.67683">
        <ele>107.6</ele>
        <time>2025-10-26T13:10:28Z</time>
      </trkpt>
      <trkpt lat="43.50728" lon="6.67682">
        <ele>107.5</ele>
        <time>2025-10-26T13:10:29Z</time>
      </trkpt>
      <trkpt lat="43.50728" lon="6.6768">
        <ele>107.4</ele>
        <time>2025-10-26T13:10:30Z</time>
      </trkpt>
      <trkpt lat="43.50729" lon="6.67679">
        <ele>107.4</ele>
        <time>2025-10-26T13:10:31Z</time>
      </trkpt>
      <trkpt lat="43.50729" lon="6.67678">
        <ele>107.3</ele>
        <time>2025-10-26T13:10:32Z</time>
      </trkpt>
      <trkpt lat="43.5073" lon="6.67677">
        <ele>107.3</ele>
        <time>2025-10-26T13:10:33Z</time>
      </trkpt>
      <trkpt lat="43.50731" lon="6.67676">
        <ele>107.4</ele>
        <time>2025-10-26T13:10:34Z</time>
      </trkpt>
      <trkpt lat="43.50732" lon="6.67674">
        <ele>107.4</ele>
        <time>2025-10-26T13:10:35Z</time>
      </trkpt>
      <trkpt lat="43.50732" lon="6.67673">
        <ele>107.2</ele>
        <time>2025-10-26T13:10:36Z</time>
      </trkpt>
      <trkpt lat="43.50732" lon="6.67672">
        <ele>107.3</ele>
        <time>2025-10-26T13:10:37Z</time>
      </trkpt>
      <trkpt lat="43.50733" lon="6.6767">
        <ele>107.5</ele>
        <time>2025-10-26T13:10:38Z</time>
      </trkpt>
      <trkpt lat="43.50733" lon="6.67669">
        <ele>107.5</ele>
        <time>2025-10-26T13:10:39Z</time>
      </trkpt>
      <trkpt lat="43.50734" lon="6.67668">
        <ele>107.3</ele>
        <time>2025-10-26T13:10:40Z</time>
      </trkpt>
      <trkpt lat="43.50735" lon="6.67667">
        <ele>107.2</ele>
        <time>2025-10-26T13:10:41Z</time>
      </trkpt>
      <trkpt lat="43.50735" lon="6.67666">
        <ele>107.1</ele>
        <time>2025-10-26T13:10:42Z</time>
      </trkpt>
      <trkpt lat="43.50736" lon="6.67665">
        <ele>107</ele>
        <time>2025-10-26T13:10:43Z</time>
      </trkpt>
      <trkpt lat="43.50736" lon="6.67664">
        <ele>107</ele>
        <time>2025-10-26T13:10:44Z</time>
      </trkpt>
      <trkpt lat="43.50737" lon="6.67662">
        <ele>106.9</ele>
        <time>2025-10-26T13:10:45Z</time>
      </trkpt>
      <trkpt lat="43.50737" lon="6.67661">
        <ele>106.8</ele>
        <time>2025-10-26T13:10:46Z</time>
      </trkpt>
      <trkpt lat="43.50737" lon="6.6766">
        <ele>106.7</ele>
        <time>2025-10-26T13:10:47Z</time>
      </trkpt>
      <trkpt lat="43.50737" lon="6.67659">
        <ele>106.4</ele>
        <time>2025-10-26T13:10:48Z</time>
      </trkpt>
      <trkpt lat="43.50738" lon="6.67658">
        <ele>106.6</ele>
        <time>2025-10-26T13:10:49Z</time>
      </trkpt>
      <trkpt lat="43.50738" lon="6.67657">
        <ele>106.8</ele>
        <time>2025-10-26T13:10:50Z</time>
      </trkpt>
      <trkpt lat="43.50738" lon="6.67655">
        <ele>106.8</ele>
        <time>2025-10-26T13:10:51Z</time>
      </trkpt>
      <trkpt lat="43.50738" lon="6.67655">
        <ele>106.9</ele>
        <time>2025-10-26T13:10:52Z</time>
      </trkpt>
      <trkpt lat="43.50738" lon="6.67654">
        <ele>106.9</ele>
        <time>2025-10-26T13:10:53Z</time>
      </trkpt>
      <trkpt lat="43.50738" lon="6.67654">
        <ele>107</ele>
        <time>2025-10-26T13:10:54Z</time>
      </trkpt>
      <trkpt lat="43.50738" lon="6.67654">
        <ele>107.2</ele>
        <time>2025-10-26T13:10:55Z</time>
      </trkpt>
      <trkpt lat="43.50738" lon="6.67654">
        <ele>107.2</ele>
        <time>2025-10-26T13:10:56Z</time>
      </trkpt>
      <trkpt lat="43.50738" lon="6.67654">
        <ele>107.2</ele>
        <time>2025-10-26T13:10:57Z</time>
      </trkpt>
      <trkpt lat="43.50738" lon="6.67654">
        <ele>107.3</ele>
        <time>2025-10-26T13:10:58Z</time>
      </trkpt>
      <trkpt lat="43.50738" lon="6.67653">
        <ele>107.3</ele>
        <time>2025-10-26T13:10:59Z</time>
      </trkpt>
      <trkpt lat="43.50738" lon="6.67653">
        <ele>107.2</ele>
        <time>2025-10-26T13:11:00Z</time>
      </trkpt>
      <trkpt lat="43.50738" lon="6.67653">
        <ele>107.1</ele>
        <time>2025-10-26T13:11:01Z</time>
      </trkpt>
      <trkpt lat="43.50738" lon="6.67653">
        <ele>107</ele>
        <time>2025-10-26T13:11:02Z</time>
      </trkpt>
      <trkpt lat="43.50738" lon="6.67653">
        <ele>107</ele>
        <time>2025-10-26T13:11:03Z</time>
      </trkpt>
      <trkpt lat="43.50738" lon="6.67652">
        <ele>106.9</ele>
        <time>2025-10-26T13:11:04Z</time>
      </trkpt>
      <trkpt lat="43.50738" lon="6.67652">
        <ele>106.8</ele>
        <time>2025-10-26T13:11:05Z</time>
      </trkpt>
      <trkpt lat="43.50738" lon="6.67652">
        <ele>106.8</ele>
        <time>2025-10-26T13:11:06Z</time>
      </trkpt>
      <trkpt lat="43.50738" lon="6.67652">
        <ele>107</ele>
        <time>2025-10-26T13:11:07Z</time>
      </trkpt>
      <trkpt lat="43.50738" lon="6.67651">
        <ele>106.7</ele>
        <time>2025-10-26T13:11:08Z</time>
      </trkpt>
      <trkpt lat="43.50738" lon="6.67651">
        <ele>106.5</ele>
        <time>2025-10-26T13:11:09Z</time>
      </trkpt>
      <trkpt lat="43.50738" lon="6.67651">
        <ele>106.3</ele>
        <time>2025-10-26T13:11:10Z</time>
      </trkpt>
      <trkpt lat="43.50738" lon="6.67651">
        <ele>106.2</ele>
        <time>2025-10-26T13:11:11Z</time>
      </trkpt>
      <trkpt lat="43.50738" lon="6.67651">
        <ele>106</ele>
        <time>2025-10-26T13:11:12Z</time>
      </trkpt>
      <trkpt lat="43.50738" lon="6.67651">
        <ele>105.9</ele>
        <time>2025-10-26T13:11:13Z</time>
      </trkpt>
      <trkpt lat="43.50739" lon="6.67651">
        <ele>105.9</ele>
        <time>2025-10-26T13:11:14Z</time>
      </trkpt>
      <trkpt lat="43.50739" lon="6.67651">
        <ele>105.9</ele>
        <time>2025-10-26T13:11:15Z</time>
      </trkpt>
      <trkpt lat="43.50739" lon="6.67651">
        <ele>105.9</ele>
        <time>2025-10-26T13:11:16Z</time>
      </trkpt>
      <trkpt lat="43.50739" lon="6.6765">
        <ele>105.9</ele>
        <time>2025-10-26T13:11:17Z</time>
      </trkpt>
      <trkpt lat="43.50739" lon="6.67649">
        <ele>106</ele>
        <time>2025-10-26T13:11:18Z</time>
      </trkpt>
      <trkpt lat="43.50739" lon="6.67649">
        <ele>106.1</ele>
        <time>2025-10-26T13:11:19Z</time>
      </trkpt>
      <trkpt lat="43.50739" lon="6.67649">
        <ele>106</ele>
        <time>2025-10-26T13:11:20Z</time>
      </trkpt>
      <trkpt lat="43.50739" lon="6.67649">
        <ele>106</ele>
        <time>2025-10-26T13:11:21Z</time>
      </trkpt>
      <trkpt lat="43.50739" lon="6.67649">
        <ele>106</ele>
        <time>2025-10-26T13:11:22Z</time>
      </trkpt>
      <trkpt lat="43.50739" lon="6.67649">
        <ele>105.9</ele>
        <time>2025-10-26T13:11:23Z</time>
      </trkpt>
      <trkpt lat="43.50739" lon="6.67649">
        <ele>105.8</ele>
        <time>2025-10-26T13:11:24Z</time>
      </trkpt>
      <trkpt lat="43.50739" lon="6.67648">
        <ele>105.7</ele>
        <time>2025-10-26T13:11:25Z</time>
      </trkpt>
      <trkpt lat="43.50739" lon="6.67648">
        <ele>105.6</ele>
        <time>2025-10-26T13:11:26Z</time>
      </trkpt>
      <trkpt lat="43.50739" lon="6.67648">
        <ele>105.5</ele>
        <time>2025-10-26T13:11:27Z</time>
      </trkpt>
      <trkpt lat="43.50739" lon="6.67648">
        <ele>105.5</ele>
        <time>2025-10-26T13:11:28Z</time>
      </trkpt>
      <trkpt lat="43.50739" lon="6.67647">
        <ele>105.4</ele>
        <time>2025-10-26T13:11:29Z</time>
      </trkpt>
      <trkpt lat="43.50739" lon="6.67647">
        <ele>105.3</ele>
        <time>2025-10-26T13:11:30Z</time>
      </trkpt>
      <trkpt lat="43.50739" lon="6.67647">
        <ele>105.2</ele>
        <time>2025-10-26T13:11:31Z</time>
      </trkpt>
      <trkpt lat="43.50739" lon="6.67647">
        <ele>105.2</ele>
        <time>2025-10-26T13:11:32Z</time>
      </trkpt>
      <trkpt lat="43.50739" lon="6.67647">
        <ele>105.3</ele>
        <time>2025-10-26T13:11:33Z</time>
      </trkpt>
      <trkpt lat="43.50739" lon="6.67647">
        <ele>105.5</ele>
        <time>2025-10-26T13:11:34Z</time>
      </trkpt>
      <trkpt lat="43.50739" lon="6.67647">
        <ele>105.6</ele>
        <time>2025-10-26T13:11:35Z</time>
      </trkpt>
      <trkpt lat="43.5074" lon="6.67646">
        <ele>105.8</ele>
        <time>2025-10-26T13:11:36Z</time>
      </trkpt>
      <trkpt lat="43.5074" lon="6.67646">
        <ele>106</ele>
        <time>2025-10-26T13:11:37Z</time>
      </trkpt>
      <trkpt lat="43.5074" lon="6.67644">
        <ele>106.2</ele>
        <time>2025-10-26T13:11:38Z</time>
      </trkpt>
      <trkpt lat="43.5074" lon="6.67642">
        <ele>106.1</ele>
        <time>2025-10-26T13:11:39Z</time>
      </trkpt>
      <trkpt lat="43.50741" lon="6.67641">
        <ele>106.1</ele>
        <time>2025-10-26T13:11:40Z</time>
      </trkpt>
      <trkpt lat="43.50741" lon="6.6764">
        <ele>106.2</ele>
        <time>2025-10-26T13:11:41Z</time>
      </trkpt>
      <trkpt lat="43.50741" lon="6.67639">
        <ele>106.3</ele>
        <time>2025-10-26T13:11:42Z</time>
      </trkpt>
      <trkpt lat="43.50741" lon="6.67638">
        <ele>106.2</ele>
        <time>2025-10-26T13:11:43Z</time>
      </trkpt>
      <trkpt lat="43.50741" lon="6.67636">
        <ele>106.2</ele>
        <time>2025-10-26T13:11:44Z</time>
      </trkpt>
      <trkpt lat="43.50741" lon="6.67635">
        <ele>106.2</ele>
        <time>2025-10-26T13:11:45Z</time>
      </trkpt>
      <trkpt lat="43.50742" lon="6.67634">
        <ele>106.2</ele>
        <time>2025-10-26T13:11:46Z</time>
      </trkpt>
      <trkpt lat="43.50742" lon="6.67632">
        <ele>106.2</ele>
        <time>2025-10-26T13:11:47Z</time>
      </trkpt>
      <trkpt lat="43.50742" lon="6.6763">
        <ele>106.2</ele>
        <time>2025-10-26T13:11:48Z</time>
      </trkpt>
      <trkpt lat="43.50742" lon="6.67629">
        <ele>106.2</ele>
        <time>2025-10-26T13:11:49Z</time>
      </trkpt>
      <trkpt lat="43.50741" lon="6.67628">
        <ele>106.1</ele>
        <time>2025-10-26T13:11:50Z</time>
      </trkpt>
      <trkpt lat="43.50741" lon="6.67627">
        <ele>106.1</ele>
        <time>2025-10-26T13:11:51Z</time>
      </trkpt>
      <trkpt lat="43.5074" lon="6.67625">
        <ele>106.1</ele>
        <time>2025-10-26T13:11:52Z</time>
      </trkpt>
      <trkpt lat="43.5074" lon="6.67624">
        <ele>106.2</ele>
        <time>2025-10-26T13:11:53Z</time>
      </trkpt>
      <trkpt lat="43.5074" lon="6.67623">
        <ele>106.2</ele>
        <time>2025-10-26T13:11:54Z</time>
      </trkpt>
      <trkpt lat="43.5074" lon="6.67621">
        <ele>106.4</ele>
        <time>2025-10-26T13:11:55Z</time>
      </trkpt>
      <trkpt lat="43.5074" lon="6.6762">
        <ele>106.6</ele>
        <time>2025-10-26T13:11:56Z</time>
      </trkpt>
      <trkpt lat="43.5074" lon="6.67618">
        <ele>106.6</ele>
        <time>2025-10-26T13:11:57Z</time>
      </trkpt>
      <trkpt lat="43.5074" lon="6.67617">
        <ele>106.7</ele>
        <time>2025-10-26T13:11:58Z</time>
      </trkpt>
      <trkpt lat="43.5074" lon="6.67615">
        <ele>106.8</ele>
        <time>2025-10-26T13:11:59Z</time>
      </trkpt>
      <trkpt lat="43.5074" lon="6.67614">
        <ele>106.9</ele>
        <time>2025-10-26T13:12:00Z</time>
      </trkpt>
      <trkpt lat="43.50739" lon="6.67612">
        <ele>106.9</ele>
        <time>2025-10-26T13:12:01Z</time>
      </trkpt>
      <trkpt lat="43.50739" lon="6.67611">
        <ele>107</ele>
        <time>2025-10-26T13:12:02Z</time>
      </trkpt>
      <trkpt lat="43.50739" lon="6.67609">
        <ele>107</ele>
        <time>2025-10-26T13:12:03Z</time>
      </trkpt>
      <trkpt lat="43.50739" lon="6.67608">
        <ele>107</ele>
        <time>2025-10-26T13:12:04Z</time>
      </trkpt>
      <trkpt lat="43.50739" lon="6.67606">
        <ele>107</ele>
        <time>2025-10-26T13:12:05Z</time>
      </trkpt>
      <trkpt lat="43.50739" lon="6.67605">
        <ele>107</ele>
        <time>2025-10-26T13:12:06Z</time>
      </trkpt>
      <trkpt lat="43.50739" lon="6.67603">
        <ele>107</ele>
        <time>2025-10-26T13:12:07Z</time>
      </trkpt>
      <trkpt lat="43.5074" lon="6.67601">
        <ele>107</ele>
        <time>2025-10-26T13:12:08Z</time>
      </trkpt>
      <trkpt lat="43.5074" lon="6.676">
        <ele>107</ele>
        <time>2025-10-26T13:12:09Z</time>
      </trkpt>
      <trkpt lat="43.50741" lon="6.67599">
        <ele>107.1</ele>
        <time>2025-10-26T13:12:10Z</time>
      </trkpt>
      <trkpt lat="43.50742" lon="6.67598">
        <ele>107.1</ele>
        <time>2025-10-26T13:12:11Z</time>
      </trkpt>
      <trkpt lat="43.50743" lon="6.67596">
        <ele>106.8</ele>
        <time>2025-10-26T13:12:12Z</time>
      </trkpt>
      <trkpt lat="43.50744" lon="6.67595">
        <ele>106.7</ele>
        <time>2025-10-26T13:12:13Z</time>
      </trkpt>
      <trkpt lat="43.50744" lon="6.67594">
        <ele>106.6</ele>
        <time>2025-10-26T13:12:14Z</time>
      </trkpt>
      <trkpt lat="43.50744" lon="6.67592">
        <ele>106.6</ele>
        <time>2025-10-26T13:12:15Z</time>
      </trkpt>
      <trkpt lat="43.50744" lon="6.67591">
        <ele>106.5</ele>
        <time>2025-10-26T13:12:16Z</time>
      </trkpt>
      <trkpt lat="43.50745" lon="6.67589">
        <ele>106.4</ele>
        <time>2025-10-26T13:12:17Z</time>
      </trkpt>
      <trkpt lat="43.50745" lon="6.67588">
        <ele>106.4</ele>
        <time>2025-10-26T13:12:18Z</time>
      </trkpt>
      <trkpt lat="43.50745" lon="6.67586">
        <ele>106.5</ele>
        <time>2025-10-26T13:12:19Z</time>
      </trkpt>
      <trkpt lat="43.50746" lon="6.67585">
        <ele>106.6</ele>
        <time>2025-10-26T13:12:20Z</time>
      </trkpt>
      <trkpt lat="43.50746" lon="6.67583">
        <ele>106.7</ele>
        <time>2025-10-26T13:12:21Z</time>
      </trkpt>
      <trkpt lat="43.50747" lon="6.67582">
        <ele>106.8</ele>
        <time>2025-10-26T13:12:22Z</time>
      </trkpt>
      <trkpt lat="43.50747" lon="6.6758">
        <ele>107.1</ele>
        <time>2025-10-26T13:12:23Z</time>
      </trkpt>
      <trkpt lat="43.50748" lon="6.67579">
        <ele>107.1</ele>
        <time>2025-10-26T13:12:24Z</time>
      </trkpt>
      <trkpt lat="43.50748" lon="6.67577">
        <ele>107.1</ele>
        <time>2025-10-26T13:12:25Z</time>
      </trkpt>
      <trkpt lat="43.50749" lon="6.67576">
        <ele>107.1</ele>
        <time>2025-10-26T13:12:26Z</time>
      </trkpt>
      <trkpt lat="43.50749" lon="6.67574">
        <ele>107.1</ele>
        <time>2025-10-26T13:12:27Z</time>
      </trkpt>
      <trkpt lat="43.5075" lon="6.67573">
        <ele>106.9</ele>
        <time>2025-10-26T13:12:28Z</time>
      </trkpt>
      <trkpt lat="43.50751" lon="6.67571">
        <ele>106.7</ele>
        <time>2025-10-26T13:12:29Z</time>
      </trkpt>
      <trkpt lat="43.50751" lon="6.6757">
        <ele>106.5</ele>
        <time>2025-10-26T13:12:30Z</time>
      </trkpt>
      <trkpt lat="43.50752" lon="6.67568">
        <ele>106.3</ele>
        <time>2025-10-26T13:12:31Z</time>
      </trkpt>
      <trkpt lat="43.50752" lon="6.67567">
        <ele>106.1</ele>
        <time>2025-10-26T13:12:32Z</time>
      </trkpt>
      <trkpt lat="43.50753" lon="6.67565">
        <ele>105.9</ele>
        <time>2025-10-26T13:12:33Z</time>
      </trkpt>
      <trkpt lat="43.50753" lon="6.67564">
        <ele>105.8</ele>
        <time>2025-10-26T13:12:34Z</time>
      </trkpt>
      <trkpt lat="43.50753" lon="6.67562">
        <ele>105.7</ele>
        <time>2025-10-26T13:12:35Z</time>
      </trkpt>
      <trkpt lat="43.50753" lon="6.6756">
        <ele>105.6</ele>
        <time>2025-10-26T13:12:36Z</time>
      </trkpt>
      <trkpt lat="43.50753" lon="6.67559">
        <ele>105.5</ele>
        <time>2025-10-26T13:12:37Z</time>
      </trkpt>
      <trkpt lat="43.50754" lon="6.67557">
        <ele>105.4</ele>
        <time>2025-10-26T13:12:38Z</time>
      </trkpt>
      <trkpt lat="43.50754" lon="6.67555">
        <ele>105.3</ele>
        <time>2025-10-26T13:12:39Z</time>
      </trkpt>
      <trkpt lat="43.50754" lon="6.67554">
        <ele>105.2</ele>
        <time>2025-10-26T13:12:40Z</time>
      </trkpt>
      <trkpt lat="43.50754" lon="6.67552">
        <ele>105.1</ele>
        <time>2025-10-26T13:12:41Z</time>
      </trkpt>
      <trkpt lat="43.50754" lon="6.67551">
        <ele>105</ele>
        <time>2025-10-26T13:12:42Z</time>
      </trkpt>
      <trkpt lat="43.50754" lon="6.67549">
        <ele>105</ele>
        <time>2025-10-26T13:12:43Z</time>
      </trkpt>
      <trkpt lat="43.50755" lon="6.67547">
        <ele>104.9</ele>
        <time>2025-10-26T13:12:44Z</time>
      </trkpt>
      <trkpt lat="43.50755" lon="6.67545">
        <ele>104.9</ele>
        <time>2025-10-26T13:12:45Z</time>
      </trkpt>
      <trkpt lat="43.50755" lon="6.67544">
        <ele>104.9</ele>
        <time>2025-10-26T13:12:46Z</time>
      </trkpt>
      <trkpt lat="43.50755" lon="6.67542">
        <ele>104.9</ele>
        <time>2025-10-26T13:12:47Z</time>
      </trkpt>
      <trkpt lat="43.50756" lon="6.67541">
        <ele>104.7</ele>
        <time>2025-10-26T13:12:48Z</time>
      </trkpt>
      <trkpt lat="43.50756" lon="6.67539">
        <ele>104.5</ele>
        <time>2025-10-26T13:12:49Z</time>
      </trkpt>
      <trkpt lat="43.50757" lon="6.67538">
        <ele>104.4</ele>
        <time>2025-10-26T13:12:50Z</time>
      </trkpt>
      <trkpt lat="43.50758" lon="6.67537">
        <ele>104.3</ele>
        <time>2025-10-26T13:12:51Z</time>
      </trkpt>
      <trkpt lat="43.50758" lon="6.67535">
        <ele>104.1</ele>
        <time>2025-10-26T13:12:52Z</time>
      </trkpt>
      <trkpt lat="43.50759" lon="6.67534">
        <ele>104</ele>
        <time>2025-10-26T13:12:53Z</time>
      </trkpt>
      <trkpt lat="43.50759" lon="6.67533">
        <ele>104</ele>
        <time>2025-10-26T13:12:54Z</time>
      </trkpt>
      <trkpt lat="43.5076" lon="6.67531">
        <ele>103.9</ele>
        <time>2025-10-26T13:12:55Z</time>
      </trkpt>
      <trkpt lat="43.5076" lon="6.67529">
        <ele>103.9</ele>
        <time>2025-10-26T13:12:56Z</time>
      </trkpt>
      <trkpt lat="43.50761" lon="6.67528">
        <ele>103.9</ele>
        <time>2025-10-26T13:12:57Z</time>
      </trkpt>
      <trkpt lat="43.50761" lon="6.67526">
        <ele>103.8</ele>
        <time>2025-10-26T13:12:58Z</time>
      </trkpt>
      <trkpt lat="43.50761" lon="6.67524">
        <ele>103.7</ele>
        <time>2025-10-26T13:12:59Z</time>
      </trkpt>
      <trkpt lat="43.50761" lon="6.67523">
        <ele>103.5</ele>
        <time>2025-10-26T13:13:00Z</time>
      </trkpt>
      <trkpt lat="43.50762" lon="6.67521">
        <ele>103.3</ele>
        <time>2025-10-26T13:13:01Z</time>
      </trkpt>
      <trkpt lat="43.50762" lon="6.6752">
        <ele>103.2</ele>
        <time>2025-10-26T13:13:02Z</time>
      </trkpt>
      <trkpt lat="43.50763" lon="6.67518">
        <ele>103</ele>
        <time>2025-10-26T13:13:03Z</time>
      </trkpt>
      <trkpt lat="43.50763" lon="6.67517">
        <ele>102.8</ele>
        <time>2025-10-26T13:13:04Z</time>
      </trkpt>
      <trkpt lat="43.50763" lon="6.67515">
        <ele>102.6</ele>
        <time>2025-10-26T13:13:05Z</time>
      </trkpt>
      <trkpt lat="43.50763" lon="6.67514">
        <ele>102.4</ele>
        <time>2025-10-26T13:13:06Z</time>
      </trkpt>
      <trkpt lat="43.50763" lon="6.67513">
        <ele>102.2</ele>
        <time>2025-10-26T13:13:07Z</time>
      </trkpt>
      <trkpt lat="43.50764" lon="6.67511">
        <ele>102</ele>
        <time>2025-10-26T13:13:08Z</time>
      </trkpt>
      <trkpt lat="43.50764" lon="6.6751">
        <ele>101.9</ele>
        <time>2025-10-26T13:13:09Z</time>
      </trkpt>
      <trkpt lat="43.50765" lon="6.67509">
        <ele>101.8</ele>
        <time>2025-10-26T13:13:10Z</time>
      </trkpt>
      <trkpt lat="43.50765" lon="6.67508">
        <ele>101.8</ele>
        <time>2025-10-26T13:13:11Z</time>
      </trkpt>
      <trkpt lat="43.50766" lon="6.67507">
        <ele>101.8</ele>
        <time>2025-10-26T13:13:12Z</time>
      </trkpt>
      <trkpt lat="43.50766" lon="6.67505">
        <ele>101.9</ele>
        <time>2025-10-26T13:13:13Z</time>
      </trkpt>
      <trkpt lat="43.50766" lon="6.67504">
        <ele>101.9</ele>
        <time>2025-10-26T13:13:14Z</time>
      </trkpt>
      <trkpt lat="43.50767" lon="6.67503">
        <ele>101.9</ele>
        <time>2025-10-26T13:13:15Z</time>
      </trkpt>
      <trkpt lat="43.50768" lon="6.67501">
        <ele>101.8</ele>
        <time>2025-10-26T13:13:16Z</time>
      </trkpt>
      <trkpt lat="43.50768" lon="6.67499">
        <ele>101.6</ele>
        <time>2025-10-26T13:13:17Z</time>
      </trkpt>
      <trkpt lat="43.50767" lon="6.67498">
        <ele>101.6</ele>
        <time>2025-10-26T13:13:18Z</time>
      </trkpt>
      <trkpt lat="43.50767" lon="6.67496">
        <ele>101.6</ele>
        <time>2025-10-26T13:13:19Z</time>
      </trkpt>
      <trkpt lat="43.50767" lon="6.67495">
        <ele>101.5</ele>
        <time>2025-10-26T13:13:20Z</time>
      </trkpt>
      <trkpt lat="43.50767" lon="6.67494">
        <ele>101.3</ele>
        <time>2025-10-26T13:13:21Z</time>
      </trkpt>
      <trkpt lat="43.50767" lon="6.67493">
        <ele>100.9</ele>
        <time>2025-10-26T13:13:22Z</time>
      </trkpt>
      <trkpt lat="43.50767" lon="6.67492">
        <ele>100.4</ele>
        <time>2025-10-26T13:13:23Z</time>
      </trkpt>
      <trkpt lat="43.50767" lon="6.6749">
        <ele>100.2</ele>
        <time>2025-10-26T13:13:24Z</time>
      </trkpt>
      <trkpt lat="43.50766" lon="6.67489">
        <ele>100.1</ele>
        <time>2025-10-26T13:13:25Z</time>
      </trkpt>
      <trkpt lat="43.50766" lon="6.67488">
        <ele>100</ele>
        <time>2025-10-26T13:13:26Z</time>
      </trkpt>
      <trkpt lat="43.50766" lon="6.67487">
        <ele>99.8</ele>
        <time>2025-10-26T13:13:27Z</time>
      </trkpt>
      <trkpt lat="43.50766" lon="6.67485">
        <ele>99.7</ele>
        <time>2025-10-26T13:13:28Z</time>
      </trkpt>
      <trkpt lat="43.50766" lon="6.67484">
        <ele>99.5</ele>
        <time>2025-10-26T13:13:29Z</time>
      </trkpt>
      <trkpt lat="43.50766" lon="6.67482">
        <ele>99.3</ele>
        <time>2025-10-26T13:13:30Z</time>
      </trkpt>
      <trkpt lat="43.50766" lon="6.67481">
        <ele>99.2</ele>
        <time>2025-10-26T13:13:31Z</time>
      </trkpt>
      <trkpt lat="43.50766" lon="6.67479">
        <ele>99.2</ele>
        <time>2025-10-26T13:13:32Z</time>
      </trkpt>
      <trkpt lat="43.50766" lon="6.67477">
        <ele>99.2</ele>
        <time>2025-10-26T13:13:33Z</time>
      </trkpt>
      <trkpt lat="43.50766" lon="6.67476">
        <ele>99</ele>
        <time>2025-10-26T13:13:34Z</time>
      </trkpt>
      <trkpt lat="43.50765" lon="6.67474">
        <ele>98.8</ele>
        <time>2025-10-26T13:13:35Z</time>
      </trkpt>
      <trkpt lat="43.50765" lon="6.67472">
        <ele>98.5</ele>
        <time>2025-10-26T13:13:36Z</time>
      </trkpt>
      <trkpt lat="43.50765" lon="6.67471">
        <ele>98.3</ele>
        <time>2025-10-26T13:13:37Z</time>
      </trkpt>
      <trkpt lat="43.50765" lon="6.6747">
        <ele>98.1</ele>
        <time>2025-10-26T13:13:38Z</time>
      </trkpt>
      <trkpt lat="43.50764" lon="6.67468">
        <ele>97.9</ele>
        <time>2025-10-26T13:13:39Z</time>
      </trkpt>
      <trkpt lat="43.50764" lon="6.67467">
        <ele>97.8</ele>
        <time>2025-10-26T13:13:40Z</time>
      </trkpt>
      <trkpt lat="43.50764" lon="6.67465">
        <ele>97.6</ele>
        <time>2025-10-26T13:13:41Z</time>
      </trkpt>
      <trkpt lat="43.50764" lon="6.67464">
        <ele>97.6</ele>
        <time>2025-10-26T13:13:42Z</time>
      </trkpt>
      <trkpt lat="43.50763" lon="6.67463">
        <ele>97.5</ele>
        <time>2025-10-26T13:13:43Z</time>
      </trkpt>
      <trkpt lat="43.50763" lon="6.67462">
        <ele>97.2</ele>
        <time>2025-10-26T13:13:44Z</time>
      </trkpt>
      <trkpt lat="43.50762" lon="6.67461">
        <ele>97.1</ele>
        <time>2025-10-26T13:13:45Z</time>
      </trkpt>
      <trkpt lat="43.50762" lon="6.67459">
        <ele>97</ele>
        <time>2025-10-26T13:13:46Z</time>
      </trkpt>
      <trkpt lat="43.50763" lon="6.67458">
        <ele>96.9</ele>
        <time>2025-10-26T13:13:47Z</time>
      </trkpt>
      <trkpt lat="43.50762" lon="6.67457">
        <ele>96.9</ele>
        <time>2025-10-26T13:13:48Z</time>
      </trkpt>
      <trkpt lat="43.50762" lon="6.67457">
        <ele>96.7</ele>
        <time>2025-10-26T13:13:49Z</time>
      </trkpt>
      <trkpt lat="43.50762" lon="6.67457">
        <ele>96.5</ele>
        <time>2025-10-26T13:13:50Z</time>
      </trkpt>
      <trkpt lat="43.50762" lon="6.67457">
        <ele>96.4</ele>
        <time>2025-10-26T13:13:51Z</time>
      </trkpt>
      <trkpt lat="43.50762" lon="6.67456">
        <ele>96.2</ele>
        <time>2025-10-26T13:13:52Z</time>
      </trkpt>
      <trkpt lat="43.50762" lon="6.67456">
        <ele>96.1</ele>
        <time>2025-10-26T13:13:53Z</time>
      </trkpt>
      <trkpt lat="43.50761" lon="6.67456">
        <ele>96.2</ele>
        <time>2025-10-26T13:13:54Z</time>
      </trkpt>
      <trkpt lat="43.50761" lon="6.67456">
        <ele>96.2</ele>
        <time>2025-10-26T13:13:55Z</time>
      </trkpt>
      <trkpt lat="43.50761" lon="6.67456">
        <ele>96.2</ele>
        <time>2025-10-26T13:13:56Z</time>
      </trkpt>
      <trkpt lat="43.50761" lon="6.67456">
        <ele>96.2</ele>
        <time>2025-10-26T13:13:57Z</time>
      </trkpt>
      <trkpt lat="43.50761" lon="6.67456">
        <ele>96.2</ele>
        <time>2025-10-26T13:13:58Z</time>
      </trkpt>
      <trkpt lat="43.50761" lon="6.67455">
        <ele>96.3</ele>
        <time>2025-10-26T13:13:59Z</time>
      </trkpt>
      <trkpt lat="43.50761" lon="6.67455">
        <ele>96.4</ele>
        <time>2025-10-26T13:14:00Z</time>
      </trkpt>
      <trkpt lat="43.50761" lon="6.67455">
        <ele>96.4</ele>
        <time>2025-10-26T13:14:01Z</time>
      </trkpt>
      <trkpt lat="43.50761" lon="6.67455">
        <ele>96.4</ele>
        <time>2025-10-26T13:14:02Z</time>
      </trkpt>
      <trkpt lat="43.5076" lon="6.67455">
        <ele>96.5</ele>
        <time>2025-10-26T13:14:03Z</time>
      </trkpt>
      <trkpt lat="43.5076" lon="6.67455">
        <ele>96.4</ele>
        <time>2025-10-26T13:14:04Z</time>
      </trkpt>
      <trkpt lat="43.50761" lon="6.67455">
        <ele>96.4</ele>
        <time>2025-10-26T13:14:05Z</time>
      </trkpt>
      <trkpt lat="43.50762" lon="6.67455">
        <ele>96.5</ele>
        <time>2025-10-26T13:14:06Z</time>
      </trkpt>
      <trkpt lat="43.50762" lon="6.67455">
        <ele>96.6</ele>
        <time>2025-10-26T13:14:07Z</time>
      </trkpt>
      <trkpt lat="43.50763" lon="6.67455">
        <ele>96.7</ele>
        <time>2025-10-26T13:14:08Z</time>
      </trkpt>
      <trkpt lat="43.50764" lon="6.67454">
        <ele>96.7</ele>
        <time>2025-10-26T13:14:09Z</time>
      </trkpt>
      <trkpt lat="43.50765" lon="6.67454">
        <ele>96.7</ele>
        <time>2025-10-26T13:14:10Z</time>
      </trkpt>
      <trkpt lat="43.50765" lon="6.67454">
        <ele>96.8</ele>
        <time>2025-10-26T13:14:11Z</time>
      </trkpt>
      <trkpt lat="43.50766" lon="6.67454">
        <ele>96.8</ele>
        <time>2025-10-26T13:14:12Z</time>
      </trkpt>
      <trkpt lat="43.50767" lon="6.67454">
        <ele>96.7</ele>
        <time>2025-10-26T13:14:13Z</time>
      </trkpt>
      <trkpt lat="43.50768" lon="6.67454">
        <ele>96.6</ele>
        <time>2025-10-26T13:14:14Z</time>
      </trkpt>
      <trkpt lat="43.50769" lon="6.67454">
        <ele>96.5</ele>
        <time>2025-10-26T13:14:15Z</time>
      </trkpt>
      <trkpt lat="43.50771" lon="6.67453">
        <ele>96.5</ele>
        <time>2025-10-26T13:14:16Z</time>
      </trkpt>
      <trkpt lat="43.50771" lon="6.67452">
        <ele>96.6</ele>
        <time>2025-10-26T13:14:17Z</time>
      </trkpt>
      <trkpt lat="43.50772" lon="6.67451">
        <ele>96.6</ele>
        <time>2025-10-26T13:14:18Z</time>
      </trkpt>
      <trkpt lat="43.50773" lon="6.6745">
        <ele>96.7</ele>
        <time>2025-10-26T13:14:19Z</time>
      </trkpt>
      <trkpt lat="43.50774" lon="6.67449">
        <ele>96.7</ele>
        <time>2025-10-26T13:14:20Z</time>
      </trkpt>
      <trkpt lat="43.50775" lon="6.67448">
        <ele>96.6</ele>
        <time>2025-10-26T13:14:21Z</time>
      </trkpt>
      <trkpt lat="43.50775" lon="6.67447">
        <ele>96.6</ele>
        <time>2025-10-26T13:14:22Z</time>
      </trkpt>
      <trkpt lat="43.50776" lon="6.67446">
        <ele>96.6</ele>
        <time>2025-10-26T13:14:23Z</time>
      </trkpt>
      <trkpt lat="43.50776" lon="6.67445">
        <ele>96.6</ele>
        <time>2025-10-26T13:14:24Z</time>
      </trkpt>
      <trkpt lat="43.50777" lon="6.67443">
        <ele>96.7</ele>
        <time>2025-10-26T13:14:25Z</time>
      </trkpt>
      <trkpt lat="43.50778" lon="6.67442">
        <ele>96.8</ele>
        <time>2025-10-26T13:14:26Z</time>
      </trkpt>
      <trkpt lat="43.50778" lon="6.6744">
        <ele>96.8</ele>
        <time>2025-10-26T13:14:27Z</time>
      </trkpt>
      <trkpt lat="43.50779" lon="6.67439">
        <ele>96.9</ele>
        <time>2025-10-26T13:14:28Z</time>
      </trkpt>
      <trkpt lat="43.50779" lon="6.67437">
        <ele>97</ele>
        <time>2025-10-26T13:14:29Z</time>
      </trkpt>
      <trkpt lat="43.50779" lon="6.67435">
        <ele>97.2</ele>
        <time>2025-10-26T13:14:30Z</time>
      </trkpt>
      <trkpt lat="43.50779" lon="6.67434">
        <ele>97.4</ele>
        <time>2025-10-26T13:14:31Z</time>
      </trkpt>
      <trkpt lat="43.50779" lon="6.67432">
        <ele>97.5</ele>
        <time>2025-10-26T13:14:32Z</time>
      </trkpt>
      <trkpt lat="43.50779" lon="6.67431">
        <ele>97.7</ele>
        <time>2025-10-26T13:14:33Z</time>
      </trkpt>
      <trkpt lat="43.50779" lon="6.67429">
        <ele>97.8</ele>
        <time>2025-10-26T13:14:34Z</time>
      </trkpt>
      <trkpt lat="43.50778" lon="6.67428">
        <ele>97.9</ele>
        <time>2025-10-26T13:14:35Z</time>
      </trkpt>
      <trkpt lat="43.50778" lon="6.67426">
        <ele>98.1</ele>
        <time>2025-10-26T13:14:36Z</time>
      </trkpt>
      <trkpt lat="43.50778" lon="6.67425">
        <ele>98.2</ele>
        <time>2025-10-26T13:14:37Z</time>
      </trkpt>
      <trkpt lat="43.50778" lon="6.67423">
        <ele>98.2</ele>
        <time>2025-10-26T13:14:38Z</time>
      </trkpt>
      <trkpt lat="43.50777" lon="6.67422">
        <ele>98.3</ele>
        <time>2025-10-26T13:14:39Z</time>
      </trkpt>
      <trkpt lat="43.50777" lon="6.6742">
        <ele>98.3</ele>
        <time>2025-10-26T13:14:40Z</time>
      </trkpt>
      <trkpt lat="43.50777" lon="6.67419">
        <ele>98.4</ele>
        <time>2025-10-26T13:14:41Z</time>
      </trkpt>
      <trkpt lat="43.50777" lon="6.67417">
        <ele>98.4</ele>
        <time>2025-10-26T13:14:42Z</time>
      </trkpt>
      <trkpt lat="43.50778" lon="6.67416">
        <ele>98.3</ele>
        <time>2025-10-26T13:14:43Z</time>
      </trkpt>
      <trkpt lat="43.50778" lon="6.67414">
        <ele>98.3</ele>
        <time>2025-10-26T13:14:44Z</time>
      </trkpt>
      <trkpt lat="43.50778" lon="6.67413">
        <ele>98.3</ele>
        <time>2025-10-26T13:14:45Z</time>
      </trkpt>
      <trkpt lat="43.50778" lon="6.67411">
        <ele>98.3</ele>
        <time>2025-10-26T13:14:46Z</time>
      </trkpt>
      <trkpt lat="43.50778" lon="6.67409">
        <ele>98.3</ele>
        <time>2025-10-26T13:14:47Z</time>
      </trkpt>
      <trkpt lat="43.50778" lon="6.67408">
        <ele>98.3</ele>
        <time>2025-10-26T13:14:48Z</time>
      </trkpt>
      <trkpt lat="43.50778" lon="6.67406">
        <ele>98.1</ele>
        <time>2025-10-26T13:14:49Z</time>
      </trkpt>
      <trkpt lat="43.50778" lon="6.67404">
        <ele>98</ele>
        <time>2025-10-26T13:14:50Z</time>
      </trkpt>
      <trkpt lat="43.50778" lon="6.67403">
        <ele>98</ele>
        <time>2025-10-26T13:14:51Z</time>
      </trkpt>
      <trkpt lat="43.50778" lon="6.67401">
        <ele>98</ele>
        <time>2025-10-26T13:14:52Z</time>
      </trkpt>
      <trkpt lat="43.50778" lon="6.674">
        <ele>98</ele>
        <time>2025-10-26T13:14:53Z</time>
      </trkpt>
      <trkpt lat="43.50777" lon="6.67399">
        <ele>97.8</ele>
        <time>2025-10-26T13:14:54Z</time>
      </trkpt>
      <trkpt lat="43.50776" lon="6.67398">
        <ele>97.8</ele>
        <time>2025-10-26T13:14:55Z</time>
      </trkpt>
      <trkpt lat="43.50776" lon="6.67396">
        <ele>98</ele>
        <time>2025-10-26T13:14:56Z</time>
      </trkpt>
      <trkpt lat="43.50775" lon="6.67395">
        <ele>98.2</ele>
        <time>2025-10-26T13:14:57Z</time>
      </trkpt>
      <trkpt lat="43.50775" lon="6.67393">
        <ele>98.4</ele>
        <time>2025-10-26T13:14:58Z</time>
      </trkpt>
      <trkpt lat="43.50775" lon="6.67392">
        <ele>98.6</ele>
        <time>2025-10-26T13:14:59Z</time>
      </trkpt>
      <trkpt lat="43.50775" lon="6.6739">
        <ele>98.9</ele>
        <time>2025-10-26T13:15:00Z</time>
      </trkpt>
      <trkpt lat="43.50774" lon="6.67389">
        <ele>99.1</ele>
        <time>2025-10-26T13:15:01Z</time>
      </trkpt>
      <trkpt lat="43.50773" lon="6.67387">
        <ele>99.2</ele>
        <time>2025-10-26T13:15:02Z</time>
      </trkpt>
      <trkpt lat="43.50772" lon="6.67386">
        <ele>99.3</ele>
        <time>2025-10-26T13:15:03Z</time>
      </trkpt>
      <trkpt lat="43.50771" lon="6.67385">
        <ele>99.4</ele>
        <time>2025-10-26T13:15:04Z</time>
      </trkpt>
      <trkpt lat="43.50771" lon="6.67383">
        <ele>99.3</ele>
        <time>2025-10-26T13:15:05Z</time>
      </trkpt>
      <trkpt lat="43.5077" lon="6.67382">
        <ele>99.3</ele>
        <time>2025-10-26T13:15:06Z</time>
      </trkpt>
      <trkpt lat="43.5077" lon="6.6738">
        <ele>99.3</ele>
        <time>2025-10-26T13:15:07Z</time>
      </trkpt>
      <trkpt lat="43.5077" lon="6.67379">
        <ele>99.3</ele>
        <time>2025-10-26T13:15:08Z</time>
      </trkpt>
      <trkpt lat="43.5077" lon="6.67377">
        <ele>99.3</ele>
        <time>2025-10-26T13:15:09Z</time>
      </trkpt>
      <trkpt lat="43.50769" lon="6.67375">
        <ele>99.2</ele>
        <time>2025-10-26T13:15:10Z</time>
      </trkpt>
      <trkpt lat="43.50769" lon="6.67374">
        <ele>99.2</ele>
        <time>2025-10-26T13:15:11Z</time>
      </trkpt>
      <trkpt lat="43.50768" lon="6.67372">
        <ele>99.1</ele>
        <time>2025-10-26T13:15:12Z</time>
      </trkpt>
      <trkpt lat="43.50768" lon="6.67371">
        <ele>99</ele>
        <time>2025-10-26T13:15:13Z</time>
      </trkpt>
      <trkpt lat="43.50768" lon="6.67369">
        <ele>99.2</ele>
        <time>2025-10-26T13:15:14Z</time>
      </trkpt>
      <trkpt lat="43.50767" lon="6.67368">
        <ele>99.4</ele>
        <time>2025-10-26T13:15:15Z</time>
      </trkpt>
      <trkpt lat="43.50767" lon="6.67366">
        <ele>99.3</ele>
        <time>2025-10-26T13:15:16Z</time>
      </trkpt>
      <trkpt lat="43.50766" lon="6.67364">
        <ele>99.4</ele>
        <time>2025-10-26T13:15:17Z</time>
      </trkpt>
      <trkpt lat="43.50765" lon="6.67363">
        <ele>99.3</ele>
        <time>2025-10-26T13:15:18Z</time>
      </trkpt>
      <trkpt lat="43.50765" lon="6.67362">
        <ele>99.2</ele>
        <time>2025-10-26T13:15:19Z</time>
      </trkpt>
      <trkpt lat="43.50764" lon="6.6736">
        <ele>99.2</ele>
        <time>2025-10-26T13:15:20Z</time>
      </trkpt>
      <trkpt lat="43.50763" lon="6.67358">
        <ele>99.1</ele>
        <time>2025-10-26T13:15:21Z</time>
      </trkpt>
      <trkpt lat="43.50762" lon="6.67357">
        <ele>99.1</ele>
        <time>2025-10-26T13:15:22Z</time>
      </trkpt>
      <trkpt lat="43.50761" lon="6.67356">
        <ele>99.2</ele>
        <time>2025-10-26T13:15:23Z</time>
      </trkpt>
      <trkpt lat="43.5076" lon="6.67355">
        <ele>99.4</ele>
        <time>2025-10-26T13:15:24Z</time>
      </trkpt>
      <trkpt lat="43.50759" lon="6.67354">
        <ele>99.5</ele>
        <time>2025-10-26T13:15:25Z</time>
      </trkpt>
      <trkpt lat="43.50759" lon="6.67353">
        <ele>99.7</ele>
        <time>2025-10-26T13:15:26Z</time>
      </trkpt>
      <trkpt lat="43.50758" lon="6.67352">
        <ele>99.8</ele>
        <time>2025-10-26T13:15:27Z</time>
      </trkpt>
      <trkpt lat="43.50758" lon="6.67351">
        <ele>99.9</ele>
        <time>2025-10-26T13:15:28Z</time>
      </trkpt>
      <trkpt lat="43.50757" lon="6.6735">
        <ele>99.9</ele>
        <time>2025-10-26T13:15:29Z</time>
      </trkpt>
      <trkpt lat="43.50756" lon="6.67348">
        <ele>99.9</ele>
        <time>2025-10-26T13:15:30Z</time>
      </trkpt>
      <trkpt lat="43.50755" lon="6.67347">
        <ele>99.8</ele>
        <time>2025-10-26T13:15:31Z</time>
      </trkpt>
      <trkpt lat="43.50754" lon="6.67346">
        <ele>99.8</ele>
        <time>2025-10-26T13:15:32Z</time>
      </trkpt>
      <trkpt lat="43.50754" lon="6.67345">
        <ele>99.7</ele>
        <time>2025-10-26T13:15:33Z</time>
      </trkpt>
      <trkpt lat="43.50753" lon="6.67344">
        <ele>99.7</ele>
        <time>2025-10-26T13:15:34Z</time>
      </trkpt>
      <trkpt lat="43.50751" lon="6.67343">
        <ele>99.7</ele>
        <time>2025-10-26T13:15:35Z</time>
      </trkpt>
      <trkpt lat="43.5075" lon="6.67342">
        <ele>99.7</ele>
        <time>2025-10-26T13:15:36Z</time>
      </trkpt>
      <trkpt lat="43.50749" lon="6.6734">
        <ele>99.8</ele>
        <time>2025-10-26T13:15:37Z</time>
      </trkpt>
      <trkpt lat="43.50748" lon="6.67339">
        <ele>99.8</ele>
        <time>2025-10-26T13:15:38Z</time>
      </trkpt>
      <trkpt lat="43.50748" lon="6.67338">
        <ele>99.9</ele>
        <time>2025-10-26T13:15:39Z</time>
      </trkpt>
      <trkpt lat="43.50747" lon="6.67337">
        <ele>100</ele>
        <time>2025-10-26T13:15:40Z</time>
      </trkpt>
      <trkpt lat="43.50746" lon="6.67336">
        <ele>100</ele>
        <time>2025-10-26T13:15:41Z</time>
      </trkpt>
      <trkpt lat="43.50745" lon="6.67335">
        <ele>100</ele>
        <time>2025-10-26T13:15:42Z</time>
      </trkpt>
      <trkpt lat="43.50744" lon="6.67334">
        <ele>100</ele>
        <time>2025-10-26T13:15:43Z</time>
      </trkpt>
      <trkpt lat="43.50744" lon="6.67333">
        <ele>100.1</ele>
        <time>2025-10-26T13:15:44Z</time>
      </trkpt>
      <trkpt lat="43.50743" lon="6.67332">
        <ele>100.3</ele>
        <time>2025-10-26T13:15:45Z</time>
      </trkpt>
      <trkpt lat="43.50742" lon="6.67332">
        <ele>100.3</ele>
        <time>2025-10-26T13:15:46Z</time>
      </trkpt>
      <trkpt lat="43.50741" lon="6.67331">
        <ele>100.3</ele>
        <time>2025-10-26T13:15:47Z</time>
      </trkpt>
      <trkpt lat="43.5074" lon="6.67329">
        <ele>100.3</ele>
        <time>2025-10-26T13:15:48Z</time>
      </trkpt>
      <trkpt lat="43.50739" lon="6.67329">
        <ele>100.3</ele>
        <time>2025-10-26T13:15:49Z</time>
      </trkpt>
      <trkpt lat="43.50738" lon="6.67328">
        <ele>100.4</ele>
        <time>2025-10-26T13:15:50Z</time>
      </trkpt>
      <trkpt lat="43.50737" lon="6.67327">
        <ele>100.4</ele>
        <time>2025-10-26T13:15:51Z</time>
      </trkpt>
      <trkpt lat="43.50736" lon="6.67326">
        <ele>100.4</ele>
        <time>2025-10-26T13:15:52Z</time>
      </trkpt>
      <trkpt lat="43.50735" lon="6.67325">
        <ele>100.4</ele>
        <time>2025-10-26T13:15:53Z</time>
      </trkpt>
      <trkpt lat="43.50734" lon="6.67325">
        <ele>100.4</ele>
        <time>2025-10-26T13:15:54Z</time>
      </trkpt>
      <trkpt lat="43.50734" lon="6.67324">
        <ele>100.4</ele>
        <time>2025-10-26T13:15:55Z</time>
      </trkpt>
      <trkpt lat="43.50733" lon="6.67323">
        <ele>100.4</ele>
        <time>2025-10-26T13:15:56Z</time>
      </trkpt>
      <trkpt lat="43.50733" lon="6.67322">
        <ele>100.5</ele>
        <time>2025-10-26T13:15:57Z</time>
      </trkpt>
      <trkpt lat="43.50732" lon="6.67321">
        <ele>100.6</ele>
        <time>2025-10-26T13:15:58Z</time>
      </trkpt>
      <trkpt lat="43.50732" lon="6.67319">
        <ele>100.6</ele>
        <time>2025-10-26T13:15:59Z</time>
      </trkpt>
      <trkpt lat="43.50731" lon="6.67318">
        <ele>100.8</ele>
        <time>2025-10-26T13:16:00Z</time>
      </trkpt>
      <trkpt lat="43.5073" lon="6.67316">
        <ele>100.9</ele>
        <time>2025-10-26T13:16:01Z</time>
      </trkpt>
      <trkpt lat="43.50729" lon="6.67315">
        <ele>100.9</ele>
        <time>2025-10-26T13:16:02Z</time>
      </trkpt>
      <trkpt lat="43.50728" lon="6.67314">
        <ele>101</ele>
        <time>2025-10-26T13:16:03Z</time>
      </trkpt>
      <trkpt lat="43.50727" lon="6.67312">
        <ele>101</ele>
        <time>2025-10-26T13:16:04Z</time>
      </trkpt>
      <trkpt lat="43.50727" lon="6.67312">
        <ele>101</ele>
        <time>2025-10-26T13:16:05Z</time>
      </trkpt>
      <trkpt lat="43.50727" lon="6.67311">
        <ele>101</ele>
        <time>2025-10-26T13:16:06Z</time>
      </trkpt>
      <trkpt lat="43.50726" lon="6.6731">
        <ele>101</ele>
        <time>2025-10-26T13:16:07Z</time>
      </trkpt>
      <trkpt lat="43.50726" lon="6.67309">
        <ele>100.8</ele>
        <time>2025-10-26T13:16:08Z</time>
      </trkpt>
      <trkpt lat="43.50726" lon="6.67307">
        <ele>100.7</ele>
        <time>2025-10-26T13:16:09Z</time>
      </trkpt>
      <trkpt lat="43.50725" lon="6.67306">
        <ele>100.7</ele>
        <time>2025-10-26T13:16:10Z</time>
      </trkpt>
      <trkpt lat="43.50725" lon="6.67304">
        <ele>100.7</ele>
        <time>2025-10-26T13:16:11Z</time>
      </trkpt>
      <trkpt lat="43.50724" lon="6.67302">
        <ele>100.7</ele>
        <time>2025-10-26T13:16:12Z</time>
      </trkpt>
      <trkpt lat="43.50724" lon="6.67301">
        <ele>100.7</ele>
        <time>2025-10-26T13:16:13Z</time>
      </trkpt>
      <trkpt lat="43.50723" lon="6.673">
        <ele>100.8</ele>
        <time>2025-10-26T13:16:14Z</time>
      </trkpt>
      <trkpt lat="43.50722" lon="6.67299">
        <ele>100.7</ele>
        <time>2025-10-26T13:16:15Z</time>
      </trkpt>
      <trkpt lat="43.50721" lon="6.67298">
        <ele>100.7</ele>
        <time>2025-10-26T13:16:16Z</time>
      </trkpt>
      <trkpt lat="43.5072" lon="6.67297">
        <ele>100.7</ele>
        <time>2025-10-26T13:16:17Z</time>
      </trkpt>
      <trkpt lat="43.5072" lon="6.67296">
        <ele>100.8</ele>
        <time>2025-10-26T13:16:18Z</time>
      </trkpt>
      <trkpt lat="43.50719" lon="6.67295">
        <ele>100.7</ele>
        <time>2025-10-26T13:16:19Z</time>
      </trkpt>
      <trkpt lat="43.50719" lon="6.67293">
        <ele>100.6</ele>
        <time>2025-10-26T13:16:20Z</time>
      </trkpt>
      <trkpt lat="43.50717" lon="6.67292">
        <ele>100.6</ele>
        <time>2025-10-26T13:16:21Z</time>
      </trkpt>
      <trkpt lat="43.50717" lon="6.67291">
        <ele>100.6</ele>
        <time>2025-10-26T13:16:22Z</time>
      </trkpt>
      <trkpt lat="43.50716" lon="6.67291">
        <ele>100.6</ele>
        <time>2025-10-26T13:16:23Z</time>
      </trkpt>
      <trkpt lat="43.50715" lon="6.67289">
        <ele>100.6</ele>
        <time>2025-10-26T13:16:24Z</time>
      </trkpt>
      <trkpt lat="43.50714" lon="6.67288">
        <ele>100.6</ele>
        <time>2025-10-26T13:16:25Z</time>
      </trkpt>
      <trkpt lat="43.50713" lon="6.67287">
        <ele>100.7</ele>
        <time>2025-10-26T13:16:26Z</time>
      </trkpt>
      <trkpt lat="43.50712" lon="6.67286">
        <ele>100.7</ele>
        <time>2025-10-26T13:16:27Z</time>
      </trkpt>
      <trkpt lat="43.50711" lon="6.67284">
        <ele>100.6</ele>
        <time>2025-10-26T13:16:28Z</time>
      </trkpt>
      <trkpt lat="43.5071" lon="6.67283">
        <ele>100.4</ele>
        <time>2025-10-26T13:16:29Z</time>
      </trkpt>
      <trkpt lat="43.5071" lon="6.67281">
        <ele>100.3</ele>
        <time>2025-10-26T13:16:30Z</time>
      </trkpt>
      <trkpt lat="43.50709" lon="6.6728">
        <ele>100.2</ele>
        <time>2025-10-26T13:16:31Z</time>
      </trkpt>
      <trkpt lat="43.50708" lon="6.67279">
        <ele>100.1</ele>
        <time>2025-10-26T13:16:32Z</time>
      </trkpt>
      <trkpt lat="43.50707" lon="6.67278">
        <ele>100.2</ele>
        <time>2025-10-26T13:16:33Z</time>
      </trkpt>
      <trkpt lat="43.50706" lon="6.67277">
        <ele>100.2</ele>
        <time>2025-10-26T13:16:34Z</time>
      </trkpt>
      <trkpt lat="43.50705" lon="6.67276">
        <ele>100.3</ele>
        <time>2025-10-26T13:16:35Z</time>
      </trkpt>
      <trkpt lat="43.50705" lon="6.67275">
        <ele>100.2</ele>
        <time>2025-10-26T13:16:36Z</time>
      </trkpt>
      <trkpt lat="43.50703" lon="6.67274">
        <ele>100</ele>
        <time>2025-10-26T13:16:37Z</time>
      </trkpt>
      <trkpt lat="43.50702" lon="6.67273">
        <ele>99.9</ele>
        <time>2025-10-26T13:16:38Z</time>
      </trkpt>
      <trkpt lat="43.50702" lon="6.67272">
        <ele>100.1</ele>
        <time>2025-10-26T13:16:39Z</time>
      </trkpt>
      <trkpt lat="43.50701" lon="6.67272">
        <ele>100.2</ele>
        <time>2025-10-26T13:16:40Z</time>
      </trkpt>
      <trkpt lat="43.507" lon="6.67271">
        <ele>100.3</ele>
        <time>2025-10-26T13:16:41Z</time>
      </trkpt>
      <trkpt lat="43.50698" lon="6.6727">
        <ele>100.4</ele>
        <time>2025-10-26T13:16:42Z</time>
      </trkpt>
      <trkpt lat="43.50697" lon="6.67269">
        <ele>100.4</ele>
        <time>2025-10-26T13:16:43Z</time>
      </trkpt>
      <trkpt lat="43.50697" lon="6.67267">
        <ele>100.3</ele>
        <time>2025-10-26T13:16:44Z</time>
      </trkpt>
      <trkpt lat="43.50696" lon="6.67266">
        <ele>100.2</ele>
        <time>2025-10-26T13:16:45Z</time>
      </trkpt>
      <trkpt lat="43.50695" lon="6.67265">
        <ele>100</ele>
        <time>2025-10-26T13:16:46Z</time>
      </trkpt>
      <trkpt lat="43.50694" lon="6.67263">
        <ele>99.9</ele>
        <time>2025-10-26T13:16:47Z</time>
      </trkpt>
      <trkpt lat="43.50693" lon="6.67262">
        <ele>99.8</ele>
        <time>2025-10-26T13:16:48Z</time>
      </trkpt>
      <trkpt lat="43.50692" lon="6.67261">
        <ele>99.7</ele>
        <time>2025-10-26T13:16:49Z</time>
      </trkpt>
      <trkpt lat="43.50691" lon="6.6726">
        <ele>99.7</ele>
        <time>2025-10-26T13:16:50Z</time>
      </trkpt>
      <trkpt lat="43.5069" lon="6.67259">
        <ele>99.7</ele>
        <time>2025-10-26T13:16:51Z</time>
      </trkpt>
      <trkpt lat="43.50689" lon="6.67259">
        <ele>99.7</ele>
        <time>2025-10-26T13:16:52Z</time>
      </trkpt>
      <trkpt lat="43.50688" lon="6.67258">
        <ele>99.7</ele>
        <time>2025-10-26T13:16:53Z</time>
      </trkpt>
      <trkpt lat="43.50688" lon="6.67257">
        <ele>99.8</ele>
        <time>2025-10-26T13:16:54Z</time>
      </trkpt>
      <trkpt lat="43.50687" lon="6.67256">
        <ele>99.7</ele>
        <time>2025-10-26T13:16:55Z</time>
      </trkpt>
      <trkpt lat="43.50685" lon="6.67255">
        <ele>99.6</ele>
        <time>2025-10-26T13:16:56Z</time>
      </trkpt>
      <trkpt lat="43.50684" lon="6.67255">
        <ele>99.5</ele>
        <time>2025-10-26T13:16:57Z</time>
      </trkpt>
      <trkpt lat="43.50683" lon="6.67254">
        <ele>99.4</ele>
        <time>2025-10-26T13:16:58Z</time>
      </trkpt>
      <trkpt lat="43.50682" lon="6.67253">
        <ele>99.3</ele>
        <time>2025-10-26T13:16:59Z</time>
      </trkpt>
      <trkpt lat="43.50681" lon="6.67252">
        <ele>99.4</ele>
        <time>2025-10-26T13:17:00Z</time>
      </trkpt>
      <trkpt lat="43.50681" lon="6.67251">
        <ele>99.4</ele>
        <time>2025-10-26T13:17:01Z</time>
      </trkpt>
      <trkpt lat="43.5068" lon="6.6725">
        <ele>99.3</ele>
        <time>2025-10-26T13:17:02Z</time>
      </trkpt>
      <trkpt lat="43.50679" lon="6.67249">
        <ele>99.4</ele>
        <time>2025-10-26T13:17:03Z</time>
      </trkpt>
      <trkpt lat="43.50678" lon="6.67248">
        <ele>99.4</ele>
        <time>2025-10-26T13:17:04Z</time>
      </trkpt>
      <trkpt lat="43.50678" lon="6.67247">
        <ele>99.4</ele>
        <time>2025-10-26T13:17:05Z</time>
      </trkpt>
      <trkpt lat="43.50677" lon="6.67246">
        <ele>99.5</ele>
        <time>2025-10-26T13:17:06Z</time>
      </trkpt>
      <trkpt lat="43.50676" lon="6.67244">
        <ele>99.5</ele>
        <time>2025-10-26T13:17:07Z</time>
      </trkpt>
      <trkpt lat="43.50676" lon="6.67242">
        <ele>99.4</ele>
        <time>2025-10-26T13:17:08Z</time>
      </trkpt>
      <trkpt lat="43.50675" lon="6.67241">
        <ele>99.4</ele>
        <time>2025-10-26T13:17:09Z</time>
      </trkpt>
      <trkpt lat="43.50675" lon="6.6724">
        <ele>99.3</ele>
        <time>2025-10-26T13:17:10Z</time>
      </trkpt>
      <trkpt lat="43.50674" lon="6.67239">
        <ele>99.1</ele>
        <time>2025-10-26T13:17:11Z</time>
      </trkpt>
      <trkpt lat="43.50673" lon="6.67239">
        <ele>99</ele>
        <time>2025-10-26T13:17:12Z</time>
      </trkpt>
      <trkpt lat="43.50672" lon="6.67238">
        <ele>98.9</ele>
        <time>2025-10-26T13:17:13Z</time>
      </trkpt>
      <trkpt lat="43.50671" lon="6.67238">
        <ele>98.9</ele>
        <time>2025-10-26T13:17:14Z</time>
      </trkpt>
      <trkpt lat="43.5067" lon="6.67238">
        <ele>99</ele>
        <time>2025-10-26T13:17:15Z</time>
      </trkpt>
      <trkpt lat="43.50668" lon="6.67237">
        <ele>99</ele>
        <time>2025-10-26T13:17:16Z</time>
      </trkpt>
      <trkpt lat="43.50668" lon="6.67237">
        <ele>98.9</ele>
        <time>2025-10-26T13:17:17Z</time>
      </trkpt>
      <trkpt lat="43.50667" lon="6.67236">
        <ele>98.7</ele>
        <time>2025-10-26T13:17:18Z</time>
      </trkpt>
      <trkpt lat="43.50665" lon="6.67236">
        <ele>98.5</ele>
        <time>2025-10-26T13:17:19Z</time>
      </trkpt>
      <trkpt lat="43.50664" lon="6.67235">
        <ele>98.5</ele>
        <time>2025-10-26T13:17:20Z</time>
      </trkpt>
      <trkpt lat="43.50663" lon="6.67234">
        <ele>98.4</ele>
        <time>2025-10-26T13:17:21Z</time>
      </trkpt>
      <trkpt lat="43.50662" lon="6.67233">
        <ele>98.3</ele>
        <time>2025-10-26T13:17:22Z</time>
      </trkpt>
      <trkpt lat="43.50662" lon="6.67232">
        <ele>98.2</ele>
        <time>2025-10-26T13:17:23Z</time>
      </trkpt>
      <trkpt lat="43.50662" lon="6.67231">
        <ele>98.1</ele>
        <time>2025-10-26T13:17:24Z</time>
      </trkpt>
      <trkpt lat="43.50662" lon="6.67229">
        <ele>98.2</ele>
        <time>2025-10-26T13:17:25Z</time>
      </trkpt>
      <trkpt lat="43.50661" lon="6.67228">
        <ele>98.2</ele>
        <time>2025-10-26T13:17:26Z</time>
      </trkpt>
      <trkpt lat="43.50661" lon="6.67227">
        <ele>98.1</ele>
        <time>2025-10-26T13:17:27Z</time>
      </trkpt>
      <trkpt lat="43.50661" lon="6.67226">
        <ele>97.9</ele>
        <time>2025-10-26T13:17:28Z</time>
      </trkpt>
      <trkpt lat="43.5066" lon="6.67224">
        <ele>98</ele>
        <time>2025-10-26T13:17:29Z</time>
      </trkpt>
      <trkpt lat="43.5066" lon="6.67223">
        <ele>98</ele>
        <time>2025-10-26T13:17:30Z</time>
      </trkpt>
      <trkpt lat="43.50659" lon="6.67221">
        <ele>97.9</ele>
        <time>2025-10-26T13:17:31Z</time>
      </trkpt>
      <trkpt lat="43.50659" lon="6.67219">
        <ele>97.8</ele>
        <time>2025-10-26T13:17:32Z</time>
      </trkpt>
      <trkpt lat="43.50658" lon="6.67218">
        <ele>97.7</ele>
        <time>2025-10-26T13:17:33Z</time>
      </trkpt>
      <trkpt lat="43.50658" lon="6.67217">
        <ele>97.6</ele>
        <time>2025-10-26T13:17:34Z</time>
      </trkpt>
      <trkpt lat="43.50657" lon="6.67216">
        <ele>97.6</ele>
        <time>2025-10-26T13:17:35Z</time>
      </trkpt>
      <trkpt lat="43.50656" lon="6.67215">
        <ele>97.5</ele>
        <time>2025-10-26T13:17:36Z</time>
      </trkpt>
      <trkpt lat="43.50655" lon="6.67214">
        <ele>97.6</ele>
        <time>2025-10-26T13:17:37Z</time>
      </trkpt>
      <trkpt lat="43.50654" lon="6.67214">
        <ele>97.7</ele>
        <time>2025-10-26T13:17:38Z</time>
      </trkpt>
      <trkpt lat="43.50653" lon="6.67213">
        <ele>97.7</ele>
        <time>2025-10-26T13:17:39Z</time>
      </trkpt>
      <trkpt lat="43.50652" lon="6.67212">
        <ele>97.6</ele>
        <time>2025-10-26T13:17:40Z</time>
      </trkpt>
      <trkpt lat="43.50651" lon="6.6721">
        <ele>97.6</ele>
        <time>2025-10-26T13:17:41Z</time>
      </trkpt>
      <trkpt lat="43.50651" lon="6.67209">
        <ele>97.6</ele>
        <time>2025-10-26T13:17:42Z</time>
      </trkpt>
      <trkpt lat="43.50651" lon="6.67208">
        <ele>97.5</ele>
        <time>2025-10-26T13:17:43Z</time>
      </trkpt>
      <trkpt lat="43.5065" lon="6.67206">
        <ele>97.5</ele>
        <time>2025-10-26T13:17:44Z</time>
      </trkpt>
      <trkpt lat="43.5065" lon="6.67204">
        <ele>97.5</ele>
        <time>2025-10-26T13:17:45Z</time>
      </trkpt>
      <trkpt lat="43.50649" lon="6.67202">
        <ele>97.4</ele>
        <time>2025-10-26T13:17:46Z</time>
      </trkpt>
      <trkpt lat="43.50649" lon="6.67201">
        <ele>97.3</ele>
        <time>2025-10-26T13:17:47Z</time>
      </trkpt>
      <trkpt lat="43.50648" lon="6.672">
        <ele>97.3</ele>
        <time>2025-10-26T13:17:48Z</time>
      </trkpt>
      <trkpt lat="43.50648" lon="6.67199">
        <ele>97.3</ele>
        <time>2025-10-26T13:17:49Z</time>
      </trkpt>
      <trkpt lat="43.50648" lon="6.67197">
        <ele>97.3</ele>
        <time>2025-10-26T13:17:50Z</time>
      </trkpt>
      <trkpt lat="43.50648" lon="6.67196">
        <ele>97.3</ele>
        <time>2025-10-26T13:17:51Z</time>
      </trkpt>
      <trkpt lat="43.50647" lon="6.67194">
        <ele>97.2</ele>
        <time>2025-10-26T13:17:52Z</time>
      </trkpt>
      <trkpt lat="43.50646" lon="6.67193">
        <ele>97.1</ele>
        <time>2025-10-26T13:17:53Z</time>
      </trkpt>
      <trkpt lat="43.50645" lon="6.67192">
        <ele>97.1</ele>
        <time>2025-10-26T13:17:54Z</time>
      </trkpt>
      <trkpt lat="43.50644" lon="6.67191">
        <ele>97.1</ele>
        <time>2025-10-26T13:17:55Z</time>
      </trkpt>
      <trkpt lat="43.50643" lon="6.6719">
        <ele>97.1</ele>
        <time>2025-10-26T13:17:56Z</time>
      </trkpt>
      <trkpt lat="43.50643" lon="6.67189">
        <ele>97.1</ele>
        <time>2025-10-26T13:17:57Z</time>
      </trkpt>
      <trkpt lat="43.50642" lon="6.67188">
        <ele>97.2</ele>
        <time>2025-10-26T13:17:58Z</time>
      </trkpt>
      <trkpt lat="43.50641" lon="6.67187">
        <ele>97.3</ele>
        <time>2025-10-26T13:17:59Z</time>
      </trkpt>
      <trkpt lat="43.5064" lon="6.67186">
        <ele>97.2</ele>
        <time>2025-10-26T13:18:00Z</time>
      </trkpt>
      <trkpt lat="43.50639" lon="6.67185">
        <ele>97.1</ele>
        <time>2025-10-26T13:18:01Z</time>
      </trkpt>
      <trkpt lat="43.50639" lon="6.67184">
        <ele>97</ele>
        <time>2025-10-26T13:18:02Z</time>
      </trkpt>
      <trkpt lat="43.50638" lon="6.67183">
        <ele>96.9</ele>
        <time>2025-10-26T13:18:03Z</time>
      </trkpt>
      <trkpt lat="43.50637" lon="6.67182">
        <ele>96.9</ele>
        <time>2025-10-26T13:18:04Z</time>
      </trkpt>
      <trkpt lat="43.50636" lon="6.67181">
        <ele>96.7</ele>
        <time>2025-10-26T13:18:05Z</time>
      </trkpt>
      <trkpt lat="43.50635" lon="6.6718">
        <ele>96.6</ele>
        <time>2025-10-26T13:18:06Z</time>
      </trkpt>
      <trkpt lat="43.50635" lon="6.67179">
        <ele>96.5</ele>
        <time>2025-10-26T13:18:07Z</time>
      </trkpt>
      <trkpt lat="43.50634" lon="6.67177">
        <ele>96.5</ele>
        <time>2025-10-26T13:18:08Z</time>
      </trkpt>
      <trkpt lat="43.50634" lon="6.67176">
        <ele>96.5</ele>
        <time>2025-10-26T13:18:09Z</time>
      </trkpt>
      <trkpt lat="43.50633" lon="6.67174">
        <ele>96.6</ele>
        <time>2025-10-26T13:18:10Z</time>
      </trkpt>
      <trkpt lat="43.50633" lon="6.67173">
        <ele>96.6</ele>
        <time>2025-10-26T13:18:11Z</time>
      </trkpt>
      <trkpt lat="43.50632" lon="6.67172">
        <ele>96.6</ele>
        <time>2025-10-26T13:18:12Z</time>
      </trkpt>
      <trkpt lat="43.50631" lon="6.67171">
        <ele>96.6</ele>
        <time>2025-10-26T13:18:13Z</time>
      </trkpt>
      <trkpt lat="43.50631" lon="6.67169">
        <ele>96.7</ele>
        <time>2025-10-26T13:18:14Z</time>
      </trkpt>
      <trkpt lat="43.5063" lon="6.67168">
        <ele>96.7</ele>
        <time>2025-10-26T13:18:15Z</time>
      </trkpt>
      <trkpt lat="43.50629" lon="6.67167">
        <ele>96.6</ele>
        <time>2025-10-26T13:18:16Z</time>
      </trkpt>
      <trkpt lat="43.50629" lon="6.67166">
        <ele>96.4</ele>
        <time>2025-10-26T13:18:17Z</time>
      </trkpt>
      <trkpt lat="43.50628" lon="6.67165">
        <ele>96.3</ele>
        <time>2025-10-26T13:18:18Z</time>
      </trkpt>
      <trkpt lat="43.50627" lon="6.67164">
        <ele>96.2</ele>
        <time>2025-10-26T13:18:19Z</time>
      </trkpt>
      <trkpt lat="43.50627" lon="6.67163">
        <ele>96</ele>
        <time>2025-10-26T13:18:20Z</time>
      </trkpt>
      <trkpt lat="43.50626" lon="6.67161">
        <ele>95.8</ele>
        <time>2025-10-26T13:18:21Z</time>
      </trkpt>
      <trkpt lat="43.50625" lon="6.6716">
        <ele>95.6</ele>
        <time>2025-10-26T13:18:22Z</time>
      </trkpt>
      <trkpt lat="43.50625" lon="6.67159">
        <ele>95.5</ele>
        <time>2025-10-26T13:18:23Z</time>
      </trkpt>
      <trkpt lat="43.50625" lon="6.67158">
        <ele>95.5</ele>
        <time>2025-10-26T13:18:24Z</time>
      </trkpt>
      <trkpt lat="43.50624" lon="6.67157">
        <ele>95.4</ele>
        <time>2025-10-26T13:18:25Z</time>
      </trkpt>
      <trkpt lat="43.50623" lon="6.67156">
        <ele>95.4</ele>
        <time>2025-10-26T13:18:26Z</time>
      </trkpt>
      <trkpt lat="43.50623" lon="6.67155">
        <ele>95.3</ele>
        <time>2025-10-26T13:18:27Z</time>
      </trkpt>
      <trkpt lat="43.50622" lon="6.67153">
        <ele>95.1</ele>
        <time>2025-10-26T13:18:28Z</time>
      </trkpt>
      <trkpt lat="43.50622" lon="6.67152">
        <ele>94.8</ele>
        <time>2025-10-26T13:18:29Z</time>
      </trkpt>
      <trkpt lat="43.50622" lon="6.67151">
        <ele>94.9</ele>
        <time>2025-10-26T13:18:30Z</time>
      </trkpt>
      <trkpt lat="43.50622" lon="6.67151">
        <ele>94.9</ele>
        <time>2025-10-26T13:18:31Z</time>
      </trkpt>
      <trkpt lat="43.50621" lon="6.6715">
        <ele>95</ele>
        <time>2025-10-26T13:18:32Z</time>
      </trkpt>
      <trkpt lat="43.50621" lon="6.6715">
        <ele>95</ele>
        <time>2025-10-26T13:18:33Z</time>
      </trkpt>
      <trkpt lat="43.50621" lon="6.6715">
        <ele>94.7</ele>
        <time>2025-10-26T13:18:34Z</time>
      </trkpt>
      <trkpt lat="43.50621" lon="6.67149">
        <ele>94.8</ele>
        <time>2025-10-26T13:18:35Z</time>
      </trkpt>
      <trkpt lat="43.50621" lon="6.67148">
        <ele>94.9</ele>
        <time>2025-10-26T13:18:36Z</time>
      </trkpt>
      <trkpt lat="43.5062" lon="6.67147">
        <ele>94.7</ele>
        <time>2025-10-26T13:18:37Z</time>
      </trkpt>
      <trkpt lat="43.50619" lon="6.67147">
        <ele>94.6</ele>
        <time>2025-10-26T13:18:38Z</time>
      </trkpt>
      <trkpt lat="43.50619" lon="6.67146">
        <ele>94.4</ele>
        <time>2025-10-26T13:18:39Z</time>
      </trkpt>
      <trkpt lat="43.50618" lon="6.67145">
        <ele>94.1</ele>
        <time>2025-10-26T13:18:40Z</time>
      </trkpt>
      <trkpt lat="43.50617" lon="6.67145">
        <ele>93.7</ele>
        <time>2025-10-26T13:18:41Z</time>
      </trkpt>
      <trkpt lat="43.50617" lon="6.67145">
        <ele>93.4</ele>
        <time>2025-10-26T13:18:42Z</time>
      </trkpt>
      <trkpt lat="43.50616" lon="6.67145">
        <ele>93.2</ele>
        <time>2025-10-26T13:18:43Z</time>
      </trkpt>
      <trkpt lat="43.50616" lon="6.67146">
        <ele>93.1</ele>
        <time>2025-10-26T13:18:44Z</time>
      </trkpt>
      <trkpt lat="43.50615" lon="6.67146">
        <ele>93</ele>
        <time>2025-10-26T13:18:45Z</time>
      </trkpt>
      <trkpt lat="43.50614" lon="6.67146">
        <ele>92.8</ele>
        <time>2025-10-26T13:18:46Z</time>
      </trkpt>
      <trkpt lat="43.50613" lon="6.67147">
        <ele>92.6</ele>
        <time>2025-10-26T13:18:47Z</time>
      </trkpt>
      <trkpt lat="43.50612" lon="6.67147">
        <ele>92.6</ele>
        <time>2025-10-26T13:18:48Z</time>
      </trkpt>
      <trkpt lat="43.50612" lon="6.67147">
        <ele>92.3</ele>
        <time>2025-10-26T13:18:49Z</time>
      </trkpt>
      <trkpt lat="43.50611" lon="6.67147">
        <ele>91.9</ele>
        <time>2025-10-26T13:18:50Z</time>
      </trkpt>
      <trkpt lat="43.5061" lon="6.67146">
        <ele>91.9</ele>
        <time>2025-10-26T13:18:51Z</time>
      </trkpt>
      <trkpt lat="43.5061" lon="6.67145">
        <ele>91.7</ele>
        <time>2025-10-26T13:18:52Z</time>
      </trkpt>
      <trkpt lat="43.5061" lon="6.67143">
        <ele>91.8</ele>
        <time>2025-10-26T13:18:53Z</time>
      </trkpt>
      <trkpt lat="43.50609" lon="6.67142">
        <ele>91.7</ele>
        <time>2025-10-26T13:18:54Z</time>
      </trkpt>
      <trkpt lat="43.50609" lon="6.67142">
        <ele>91.6</ele>
        <time>2025-10-26T13:18:55Z</time>
      </trkpt>
      <trkpt lat="43.50609" lon="6.67141">
        <ele>91.5</ele>
        <time>2025-10-26T13:18:56Z</time>
      </trkpt>
      <trkpt lat="43.50609" lon="6.67139">
        <ele>91.3</ele>
        <time>2025-10-26T13:18:57Z</time>
      </trkpt>
      <trkpt lat="43.50609" lon="6.67138">
        <ele>91</ele>
        <time>2025-10-26T13:18:58Z</time>
      </trkpt>
      <trkpt lat="43.50609" lon="6.67137">
        <ele>90.6</ele>
        <time>2025-10-26T13:18:59Z</time>
      </trkpt>
      <trkpt lat="43.50609" lon="6.67136">
        <ele>90.3</ele>
        <time>2025-10-26T13:19:00Z</time>
      </trkpt>
      <trkpt lat="43.50608" lon="6.67135">
        <ele>89.9</ele>
        <time>2025-10-26T13:19:01Z</time>
      </trkpt>
      <trkpt lat="43.50608" lon="6.67134">
        <ele>89.5</ele>
        <time>2025-10-26T13:19:02Z</time>
      </trkpt>
      <trkpt lat="43.50608" lon="6.67133">
        <ele>89.2</ele>
        <time>2025-10-26T13:19:03Z</time>
      </trkpt>
      <trkpt lat="43.50607" lon="6.67131">
        <ele>88.8</ele>
        <time>2025-10-26T13:19:04Z</time>
      </trkpt>
      <trkpt lat="43.50607" lon="6.6713">
        <ele>88.8</ele>
        <time>2025-10-26T13:19:05Z</time>
      </trkpt>
      <trkpt lat="43.50606" lon="6.67129">
        <ele>88.4</ele>
        <time>2025-10-26T13:19:06Z</time>
      </trkpt>
      <trkpt lat="43.50606" lon="6.67128">
        <ele>88.1</ele>
        <time>2025-10-26T13:19:07Z</time>
      </trkpt>
      <trkpt lat="43.50605" lon="6.67127">
        <ele>86.6</ele>
        <time>2025-10-26T13:19:08Z</time>
      </trkpt>
      <trkpt lat="43.50605" lon="6.67126">
        <ele>86.6</ele>
        <time>2025-10-26T13:19:09Z</time>
      </trkpt>
      <trkpt lat="43.50605" lon="6.67125">
        <ele>86.5</ele>
        <time>2025-10-26T13:19:10Z</time>
      </trkpt>
      <trkpt lat="43.50604" lon="6.67123">
        <ele>86.3</ele>
        <time>2025-10-26T13:19:11Z</time>
      </trkpt>
      <trkpt lat="43.50604" lon="6.67121">
        <ele>86.2</ele>
        <time>2025-10-26T13:19:12Z</time>
      </trkpt>
      <trkpt lat="43.50603" lon="6.6712">
        <ele>86</ele>
        <time>2025-10-26T13:19:13Z</time>
      </trkpt>
      <trkpt lat="43.50603" lon="6.67118">
        <ele>86.5</ele>
        <time>2025-10-26T13:19:14Z</time>
      </trkpt>
      <trkpt lat="43.50603" lon="6.67117">
        <ele>86.5</ele>
        <time>2025-10-26T13:19:15Z</time>
      </trkpt>
      <trkpt lat="43.50602" lon="6.67115">
        <ele>86.4</ele>
        <time>2025-10-26T13:19:16Z</time>
      </trkpt>
      <trkpt lat="43.50601" lon="6.67114">
        <ele>86.4</ele>
        <time>2025-10-26T13:19:17Z</time>
      </trkpt>
      <trkpt lat="43.50601" lon="6.67113">
        <ele>86.2</ele>
        <time>2025-10-26T13:19:18Z</time>
      </trkpt>
      <trkpt lat="43.506" lon="6.67111">
        <ele>85.9</ele>
        <time>2025-10-26T13:19:19Z</time>
      </trkpt>
      <trkpt lat="43.50599" lon="6.6711">
        <ele>86.1</ele>
        <time>2025-10-26T13:19:20Z</time>
      </trkpt>
      <trkpt lat="43.50598" lon="6.67109">
        <ele>86.2</ele>
        <time>2025-10-26T13:19:21Z</time>
      </trkpt>
      <trkpt lat="43.50598" lon="6.67108">
        <ele>86.2</ele>
        <time>2025-10-26T13:19:22Z</time>
      </trkpt>
      <trkpt lat="43.50597" lon="6.67108">
        <ele>86</ele>
        <time>2025-10-26T13:19:23Z</time>
      </trkpt>
      <trkpt lat="43.50597" lon="6.67107">
        <ele>85.7</ele>
        <time>2025-10-26T13:19:24Z</time>
      </trkpt>
      <trkpt lat="43.50597" lon="6.67107">
        <ele>85.4</ele>
        <time>2025-10-26T13:19:25Z</time>
      </trkpt>
      <trkpt lat="43.50597" lon="6.67107">
        <ele>85.2</ele>
        <time>2025-10-26T13:19:26Z</time>
      </trkpt>
      <trkpt lat="43.50597" lon="6.67107">
        <ele>84.9</ele>
        <time>2025-10-26T13:19:27Z</time>
      </trkpt>
      <trkpt lat="43.50596" lon="6.67107">
        <ele>84.7</ele>
        <time>2025-10-26T13:19:28Z</time>
      </trkpt>
      <trkpt lat="43.50596" lon="6.67107">
        <ele>84.5</ele>
        <time>2025-10-26T13:19:29Z</time>
      </trkpt>
      <trkpt lat="43.50596" lon="6.67107">
        <ele>84.4</ele>
        <time>2025-10-26T13:19:30Z</time>
      </trkpt>
      <trkpt lat="43.50596" lon="6.67107">
        <ele>84.4</ele>
        <time>2025-10-26T13:19:31Z</time>
      </trkpt>
      <trkpt lat="43.50596" lon="6.67107">
        <ele>84.6</ele>
        <time>2025-10-26T13:19:32Z</time>
      </trkpt>
      <trkpt lat="43.50596" lon="6.67107">
        <ele>84.6</ele>
        <time>2025-10-26T13:19:33Z</time>
      </trkpt>
      <trkpt lat="43.50596" lon="6.67107">
        <ele>84.6</ele>
        <time>2025-10-26T13:19:34Z</time>
      </trkpt>
      <trkpt lat="43.50596" lon="6.67107">
        <ele>84.5</ele>
        <time>2025-10-26T13:19:35Z</time>
      </trkpt>
      <trkpt lat="43.50596" lon="6.67107">
        <ele>84.5</ele>
        <time>2025-10-26T13:19:36Z</time>
      </trkpt>
      <trkpt lat="43.50596" lon="6.67106">
        <ele>84.4</ele>
        <time>2025-10-26T13:19:37Z</time>
      </trkpt>
      <trkpt lat="43.50596" lon="6.67106">
        <ele>84.3</ele>
        <time>2025-10-26T13:19:38Z</time>
      </trkpt>
      <trkpt lat="43.50595" lon="6.67106">
        <ele>84.2</ele>
        <time>2025-10-26T13:19:39Z</time>
      </trkpt>
      <trkpt lat="43.50595" lon="6.67106">
        <ele>84.2</ele>
        <time>2025-10-26T13:19:40Z</time>
      </trkpt>
      <trkpt lat="43.50595" lon="6.67106">
        <ele>84.2</ele>
        <time>2025-10-26T13:19:41Z</time>
      </trkpt>
      <trkpt lat="43.50595" lon="6.67106">
        <ele>84.2</ele>
        <time>2025-10-26T13:19:42Z</time>
      </trkpt>
      <trkpt lat="43.50595" lon="6.67106">
        <ele>84.3</ele>
        <time>2025-10-26T13:19:43Z</time>
      </trkpt>
      <trkpt lat="43.50595" lon="6.67106">
        <ele>84.6</ele>
        <time>2025-10-26T13:19:44Z</time>
      </trkpt>
      <trkpt lat="43.50595" lon="6.67106">
        <ele>84.9</ele>
        <time>2025-10-26T13:19:45Z</time>
      </trkpt>
      <trkpt lat="43.50595" lon="6.67106">
        <ele>84.9</ele>
        <time>2025-10-26T13:19:46Z</time>
      </trkpt>
      <trkpt lat="43.50595" lon="6.67106">
        <ele>84.6</ele>
        <time>2025-10-26T13:19:47Z</time>
      </trkpt>
      <trkpt lat="43.50595" lon="6.67106">
        <ele>84.4</ele>
        <time>2025-10-26T13:19:48Z</time>
      </trkpt>
      <trkpt lat="43.50595" lon="6.67105">
        <ele>84.4</ele>
        <time>2025-10-26T13:19:49Z</time>
      </trkpt>
      <trkpt lat="43.50595" lon="6.67106">
        <ele>84.4</ele>
        <time>2025-10-26T13:19:50Z</time>
      </trkpt>
      <trkpt lat="43.50595" lon="6.67106">
        <ele>84.4</ele>
        <time>2025-10-26T13:19:51Z</time>
      </trkpt>
      <trkpt lat="43.50594" lon="6.67105">
        <ele>84.5</ele>
        <time>2025-10-26T13:19:52Z</time>
      </trkpt>
      <trkpt lat="43.50594" lon="6.67105">
        <ele>84.5</ele>
        <time>2025-10-26T13:19:53Z</time>
      </trkpt>
      <trkpt lat="43.50594" lon="6.67105">
        <ele>84.5</ele>
        <time>2025-10-26T13:19:54Z</time>
      </trkpt>
      <trkpt lat="43.50594" lon="6.67105">
        <ele>84.3</ele>
        <time>2025-10-26T13:19:55Z</time>
      </trkpt>
      <trkpt lat="43.50594" lon="6.67105">
        <ele>84.4</ele>
        <time>2025-10-26T13:19:56Z</time>
      </trkpt>
      <trkpt lat="43.50594" lon="6.67105">
        <ele>84.2</ele>
        <time>2025-10-26T13:19:57Z</time>
      </trkpt>
      <trkpt lat="43.50594" lon="6.67105">
        <ele>84.2</ele>
        <time>2025-10-26T13:19:58Z</time>
      </trkpt>
      <trkpt lat="43.50593" lon="6.67105">
        <ele>84.3</ele>
        <time>2025-10-26T13:19:59Z</time>
      </trkpt>
      <trkpt lat="43.50593" lon="6.67105">
        <ele>84.2</ele>
        <time>2025-10-26T13:20:00Z</time>
      </trkpt>
      <trkpt lat="43.50593" lon="6.67105">
        <ele>84.3</ele>
        <time>2025-10-26T13:20:01Z</time>
      </trkpt>
      <trkpt lat="43.50593" lon="6.67105">
        <ele>84.4</ele>
        <time>2025-10-26T13:20:02Z</time>
      </trkpt>
      <trkpt lat="43.50593" lon="6.67105">
        <ele>84.6</ele>
        <time>2025-10-26T13:20:03Z</time>
      </trkpt>
      <trkpt lat="43.50593" lon="6.67105">
        <ele>84.7</ele>
        <time>2025-10-26T13:20:04Z</time>
      </trkpt>
      <trkpt lat="43.50592" lon="6.67105">
        <ele>84.6</ele>
        <time>2025-10-26T13:20:05Z</time>
      </trkpt>
      <trkpt lat="43.50592" lon="6.67105">
        <ele>84.5</ele>
        <time>2025-10-26T13:20:06Z</time>
      </trkpt>
      <trkpt lat="43.50592" lon="6.67105">
        <ele>84.5</ele>
        <time>2025-10-26T13:20:07Z</time>
      </trkpt>
      <trkpt lat="43.50592" lon="6.67105">
        <ele>84.6</ele>
        <time>2025-10-26T13:20:08Z</time>
      </trkpt>
      <trkpt lat="43.50593" lon="6.67105">
        <ele>84.5</ele>
        <time>2025-10-26T13:20:09Z</time>
      </trkpt>
      <trkpt lat="43.50593" lon="6.67105">
        <ele>84.5</ele>
        <time>2025-10-26T13:20:10Z</time>
      </trkpt>
      <trkpt lat="43.50593" lon="6.67105">
        <ele>84.3</ele>
        <time>2025-10-26T13:20:11Z</time>
      </trkpt>
      <trkpt lat="43.50593" lon="6.67105">
        <ele>84.2</ele>
        <time>2025-10-26T13:20:12Z</time>
      </trkpt>
      <trkpt lat="43.50592" lon="6.67104">
        <ele>84.1</ele>
        <time>2025-10-26T13:20:13Z</time>
      </trkpt>
      <trkpt lat="43.50592" lon="6.67104">
        <ele>84.1</ele>
        <time>2025-10-26T13:20:14Z</time>
      </trkpt>
      <trkpt lat="43.50592" lon="6.67104">
        <ele>84.2</ele>
        <time>2025-10-26T13:20:15Z</time>
      </trkpt>
      <trkpt lat="43.50592" lon="6.67104">
        <ele>84.2</ele>
        <time>2025-10-26T13:20:16Z</time>
      </trkpt>
      <trkpt lat="43.50592" lon="6.67104">
        <ele>84.2</ele>
        <time>2025-10-26T13:20:17Z</time>
      </trkpt>
      <trkpt lat="43.50592" lon="6.67104">
        <ele>84.3</ele>
        <time>2025-10-26T13:20:18Z</time>
      </trkpt>
      <trkpt lat="43.50592" lon="6.67104">
        <ele>84.1</ele>
        <time>2025-10-26T13:20:19Z</time>
      </trkpt>
      <trkpt lat="43.50592" lon="6.67104">
        <ele>84</ele>
        <time>2025-10-26T13:20:20Z</time>
      </trkpt>
      <trkpt lat="43.50592" lon="6.67104">
        <ele>84</ele>
        <time>2025-10-26T13:20:21Z</time>
      </trkpt>
      <trkpt lat="43.50592" lon="6.67104">
        <ele>84</ele>
        <time>2025-10-26T13:20:22Z</time>
      </trkpt>
      <trkpt lat="43.50592" lon="6.67104">
        <ele>84.1</ele>
        <time>2025-10-26T13:20:23Z</time>
      </trkpt>
      <trkpt lat="43.50592" lon="6.67104">
        <ele>84.2</ele>
        <time>2025-10-26T13:20:24Z</time>
      </trkpt>
      <trkpt lat="43.50592" lon="6.67104">
        <ele>84.2</ele>
        <time>2025-10-26T13:20:25Z</time>
      </trkpt>
      <trkpt lat="43.50592" lon="6.67103">
        <ele>84.2</ele>
        <time>2025-10-26T13:20:26Z</time>
      </trkpt>
      <trkpt lat="43.50592" lon="6.67103">
        <ele>84.2</ele>
        <time>2025-10-26T13:20:27Z</time>
      </trkpt>
      <trkpt lat="43.50592" lon="6.67102">
        <ele>84.1</ele>
        <time>2025-10-26T13:20:28Z</time>
      </trkpt>
      <trkpt lat="43.50592" lon="6.67103">
        <ele>84.1</ele>
        <time>2025-10-26T13:20:29Z</time>
      </trkpt>
      <trkpt lat="43.50591" lon="6.67103">
        <ele>84.1</ele>
        <time>2025-10-26T13:20:30Z</time>
      </trkpt>
      <trkpt lat="43.50591" lon="6.67103">
        <ele>84.2</ele>
        <time>2025-10-26T13:20:31Z</time>
      </trkpt>
      <trkpt lat="43.50591" lon="6.67103">
        <ele>84.2</ele>
        <time>2025-10-26T13:20:32Z</time>
      </trkpt>
      <trkpt lat="43.50592" lon="6.67103">
        <ele>84.3</ele>
        <time>2025-10-26T13:20:33Z</time>
      </trkpt>
      <trkpt lat="43.50592" lon="6.67103">
        <ele>84.4</ele>
        <time>2025-10-26T13:20:34Z</time>
      </trkpt>
      <trkpt lat="43.50592" lon="6.67103">
        <ele>84.5</ele>
        <time>2025-10-26T13:20:35Z</time>
      </trkpt>
      <trkpt lat="43.50592" lon="6.67103">
        <ele>84.6</ele>
        <time>2025-10-26T13:20:36Z</time>
      </trkpt>
      <trkpt lat="43.50592" lon="6.67103">
        <ele>84.6</ele>
        <time>2025-10-26T13:20:37Z</time>
      </trkpt>
      <trkpt lat="43.50592" lon="6.67102">
        <ele>84.7</ele>
        <time>2025-10-26T13:20:38Z</time>
      </trkpt>
      <trkpt lat="43.50592" lon="6.67103">
        <ele>84.6</ele>
        <time>2025-10-26T13:20:39Z</time>
      </trkpt>
      <trkpt lat="43.50592" lon="6.67103">
        <ele>84.5</ele>
        <time>2025-10-26T13:20:40Z</time>
      </trkpt>
      <trkpt lat="43.50592" lon="6.67103">
        <ele>84.5</ele>
        <time>2025-10-26T13:20:41Z</time>
      </trkpt>
      <trkpt lat="43.50592" lon="6.67103">
        <ele>84.8</ele>
        <time>2025-10-26T13:20:42Z</time>
      </trkpt>
      <trkpt lat="43.50592" lon="6.67103">
        <ele>85.2</ele>
        <time>2025-10-26T13:20:43Z</time>
      </trkpt>
      <trkpt lat="43.50592" lon="6.67104">
        <ele>85.2</ele>
        <time>2025-10-26T13:20:44Z</time>
      </trkpt>
      <trkpt lat="43.50593" lon="6.67104">
        <ele>85</ele>
        <time>2025-10-26T13:20:45Z</time>
      </trkpt>
      <trkpt lat="43.50593" lon="6.67104">
        <ele>84.9</ele>
        <time>2025-10-26T13:20:46Z</time>
      </trkpt>
      <trkpt lat="43.50593" lon="6.67104">
        <ele>84.8</ele>
        <time>2025-10-26T13:20:47Z</time>
      </trkpt>
      <trkpt lat="43.50593" lon="6.67104">
        <ele>84.8</ele>
        <time>2025-10-26T13:20:48Z</time>
      </trkpt>
      <trkpt lat="43.50593" lon="6.67104">
        <ele>84.6</ele>
        <time>2025-10-26T13:20:49Z</time>
      </trkpt>
      <trkpt lat="43.50593" lon="6.67104">
        <ele>84.4</ele>
        <time>2025-10-26T13:20:50Z</time>
      </trkpt>
      <trkpt lat="43.50592" lon="6.67104">
        <ele>84.5</ele>
        <time>2025-10-26T13:20:51Z</time>
      </trkpt>
      <trkpt lat="43.50592" lon="6.67104">
        <ele>84.4</ele>
        <time>2025-10-26T13:20:52Z</time>
      </trkpt>
      <trkpt lat="43.50593" lon="6.67104">
        <ele>84.4</ele>
        <time>2025-10-26T13:20:53Z</time>
      </trkpt>
      <trkpt lat="43.50593" lon="6.67104">
        <ele>84.4</ele>
        <time>2025-10-26T13:20:54Z</time>
      </trkpt>
      <trkpt lat="43.50593" lon="6.67104">
        <ele>84.3</ele>
        <time>2025-10-26T13:20:55Z</time>
      </trkpt>
      <trkpt lat="43.50593" lon="6.67104">
        <ele>84.3</ele>
        <time>2025-10-26T13:20:56Z</time>
      </trkpt>
      <trkpt lat="43.50593" lon="6.67104">
        <ele>84.3</ele>
        <time>2025-10-26T13:20:57Z</time>
      </trkpt>
      <trkpt lat="43.50593" lon="6.67104">
        <ele>84.3</ele>
        <time>2025-10-26T13:20:58Z</time>
      </trkpt>
      <trkpt lat="43.50593" lon="6.67104">
        <ele>84.5</ele>
        <time>2025-10-26T13:20:59Z</time>
      </trkpt>
      <trkpt lat="43.50593" lon="6.67104">
        <ele>84.6</ele>
        <time>2025-10-26T13:21:00Z</time>
      </trkpt>
      <trkpt lat="43.50593" lon="6.67104">
        <ele>84.5</ele>
        <time>2025-10-26T13:21:01Z</time>
      </trkpt>
      <trkpt lat="43.50593" lon="6.67104">
        <ele>84.5</ele>
        <time>2025-10-26T13:21:02Z</time>
      </trkpt>
      <trkpt lat="43.50593" lon="6.67104">
        <ele>84.4</ele>
        <time>2025-10-26T13:21:03Z</time>
      </trkpt>
      <trkpt lat="43.50593" lon="6.67104">
        <ele>84.3</ele>
        <time>2025-10-26T13:21:04Z</time>
      </trkpt>
      <trkpt lat="43.50592" lon="6.67104">
        <ele>84.2</ele>
        <time>2025-10-26T13:21:05Z</time>
      </trkpt>
      <trkpt lat="43.50592" lon="6.67104">
        <ele>84.1</ele>
        <time>2025-10-26T13:21:06Z</time>
      </trkpt>
      <trkpt lat="43.50592" lon="6.67104">
        <ele>84.1</ele>
        <time>2025-10-26T13:21:07Z</time>
      </trkpt>
      <trkpt lat="43.50592" lon="6.67104">
        <ele>84</ele>
        <time>2025-10-26T13:21:08Z</time>
      </trkpt>
      <trkpt lat="43.50592" lon="6.67104">
        <ele>83.8</ele>
        <time>2025-10-26T13:21:09Z</time>
      </trkpt>
      <trkpt lat="43.50592" lon="6.67104">
        <ele>83.7</ele>
        <time>2025-10-26T13:21:10Z</time>
      </trkpt>
      <trkpt lat="43.50592" lon="6.67104">
        <ele>83.8</ele>
        <time>2025-10-26T13:21:11Z</time>
      </trkpt>
      <trkpt lat="43.50592" lon="6.67104">
        <ele>83.8</ele>
        <time>2025-10-26T13:21:12Z</time>
      </trkpt>
      <trkpt lat="43.50592" lon="6.67104">
        <ele>83.8</ele>
        <time>2025-10-26T13:21:13Z</time>
      </trkpt>
      <trkpt lat="43.50592" lon="6.67104">
        <ele>83.9</ele>
        <time>2025-10-26T13:21:14Z</time>
      </trkpt>
      <trkpt lat="43.50592" lon="6.67104">
        <ele>83.9</ele>
        <time>2025-10-26T13:21:15Z</time>
      </trkpt>
      <trkpt lat="43.50592" lon="6.67103">
        <ele>83.9</ele>
        <time>2025-10-26T13:21:16Z</time>
      </trkpt>
      <trkpt lat="43.50592" lon="6.67103">
        <ele>84</ele>
        <time>2025-10-26T13:21:17Z</time>
      </trkpt>
      <trkpt lat="43.50593" lon="6.67102">
        <ele>83.9</ele>
        <time>2025-10-26T13:21:18Z</time>
      </trkpt>
      <trkpt lat="43.50593" lon="6.67102">
        <ele>84</ele>
        <time>2025-10-26T13:21:19Z</time>
      </trkpt>
      <trkpt lat="43.50593" lon="6.67102">
        <ele>84</ele>
        <time>2025-10-26T13:21:20Z</time>
      </trkpt>
      <trkpt lat="43.50593" lon="6.67102">
        <ele>83.9</ele>
        <time>2025-10-26T13:21:21Z</time>
      </trkpt>
      <trkpt lat="43.50593" lon="6.67101">
        <ele>83.8</ele>
        <time>2025-10-26T13:21:22Z</time>
      </trkpt>
      <trkpt lat="43.50593" lon="6.67101">
        <ele>83.9</ele>
        <time>2025-10-26T13:21:23Z</time>
      </trkpt>
      <trkpt lat="43.50594" lon="6.67101">
        <ele>84</ele>
        <time>2025-10-26T13:21:24Z</time>
      </trkpt>
      <trkpt lat="43.50594" lon="6.67101">
        <ele>84</ele>
        <time>2025-10-26T13:21:25Z</time>
      </trkpt>
      <trkpt lat="43.50594" lon="6.67101">
        <ele>84.1</ele>
        <time>2025-10-26T13:21:26Z</time>
      </trkpt>
      <trkpt lat="43.50594" lon="6.671">
        <ele>84.1</ele>
        <time>2025-10-26T13:21:27Z</time>
      </trkpt>
      <trkpt lat="43.50594" lon="6.671">
        <ele>84.2</ele>
        <time>2025-10-26T13:21:28Z</time>
      </trkpt>
      <trkpt lat="43.50594" lon="6.671">
        <ele>84.2</ele>
        <time>2025-10-26T13:21:29Z</time>
      </trkpt>
      <trkpt lat="43.50594" lon="6.671">
        <ele>84.3</ele>
        <time>2025-10-26T13:21:30Z</time>
      </trkpt>
      <trkpt lat="43.50594" lon="6.671">
        <ele>84.4</ele>
        <time>2025-10-26T13:21:31Z</time>
      </trkpt>
      <trkpt lat="43.50594" lon="6.671">
        <ele>84.5</ele>
        <time>2025-10-26T13:21:32Z</time>
      </trkpt>
      <trkpt lat="43.50594" lon="6.671">
        <ele>84.5</ele>
        <time>2025-10-26T13:21:33Z</time>
      </trkpt>
      <trkpt lat="43.50594" lon="6.671">
        <ele>84.5</ele>
        <time>2025-10-26T13:21:34Z</time>
      </trkpt>
      <trkpt lat="43.50594" lon="6.67099">
        <ele>84.5</ele>
        <time>2025-10-26T13:21:35Z</time>
      </trkpt>
      <trkpt lat="43.50594" lon="6.67099">
        <ele>84.6</ele>
        <time>2025-10-26T13:21:36Z</time>
      </trkpt>
      <trkpt lat="43.50593" lon="6.67099">
        <ele>84.6</ele>
        <time>2025-10-26T13:21:37Z</time>
      </trkpt>
      <trkpt lat="43.50593" lon="6.67099">
        <ele>84.6</ele>
        <time>2025-10-26T13:21:38Z</time>
      </trkpt>
      <trkpt lat="43.50592" lon="6.67098">
        <ele>84.5</ele>
        <time>2025-10-26T13:21:39Z</time>
      </trkpt>
      <trkpt lat="43.50592" lon="6.67097">
        <ele>84.4</ele>
        <time>2025-10-26T13:21:40Z</time>
      </trkpt>
      <trkpt lat="43.50591" lon="6.67095">
        <ele>84.3</ele>
        <time>2025-10-26T13:21:41Z</time>
      </trkpt>
      <trkpt lat="43.50591" lon="6.67094">
        <ele>84.2</ele>
        <time>2025-10-26T13:21:42Z</time>
      </trkpt>
      <trkpt lat="43.50591" lon="6.67093">
        <ele>84</ele>
        <time>2025-10-26T13:21:43Z</time>
      </trkpt>
      <trkpt lat="43.50591" lon="6.67092">
        <ele>83.9</ele>
        <time>2025-10-26T13:21:44Z</time>
      </trkpt>
      <trkpt lat="43.50591" lon="6.67091">
        <ele>84</ele>
        <time>2025-10-26T13:21:45Z</time>
      </trkpt>
      <trkpt lat="43.5059" lon="6.6709">
        <ele>83.9</ele>
        <time>2025-10-26T13:21:46Z</time>
      </trkpt>
      <trkpt lat="43.5059" lon="6.67088">
        <ele>83.8</ele>
        <time>2025-10-26T13:21:47Z</time>
      </trkpt>
      <trkpt lat="43.5059" lon="6.67087">
        <ele>83.7</ele>
        <time>2025-10-26T13:21:48Z</time>
      </trkpt>
      <trkpt lat="43.5059" lon="6.67085">
        <ele>83.9</ele>
        <time>2025-10-26T13:21:49Z</time>
      </trkpt>
      <trkpt lat="43.5059" lon="6.67084">
        <ele>83.8</ele>
        <time>2025-10-26T13:21:50Z</time>
      </trkpt>
      <trkpt lat="43.5059" lon="6.67083">
        <ele>83.7</ele>
        <time>2025-10-26T13:21:51Z</time>
      </trkpt>
      <trkpt lat="43.5059" lon="6.67082">
        <ele>83.4</ele>
        <time>2025-10-26T13:21:52Z</time>
      </trkpt>
      <trkpt lat="43.5059" lon="6.6708">
        <ele>83.1</ele>
        <time>2025-10-26T13:21:53Z</time>
      </trkpt>
      <trkpt lat="43.50589" lon="6.67079">
        <ele>82.9</ele>
        <time>2025-10-26T13:21:54Z</time>
      </trkpt>
      <trkpt lat="43.50589" lon="6.67077">
        <ele>82.8</ele>
        <time>2025-10-26T13:21:55Z</time>
      </trkpt>
      <trkpt lat="43.50588" lon="6.67076">
        <ele>82.7</ele>
        <time>2025-10-26T13:21:56Z</time>
      </trkpt>
      <trkpt lat="43.50588" lon="6.67075">
        <ele>82.6</ele>
        <time>2025-10-26T13:21:57Z</time>
      </trkpt>
      <trkpt lat="43.50587" lon="6.67074">
        <ele>82.4</ele>
        <time>2025-10-26T13:21:58Z</time>
      </trkpt>
      <trkpt lat="43.50586" lon="6.67073">
        <ele>82.2</ele>
        <time>2025-10-26T13:21:59Z</time>
      </trkpt>
      <trkpt lat="43.50585" lon="6.67072">
        <ele>82.1</ele>
        <time>2025-10-26T13:22:00Z</time>
      </trkpt>
      <trkpt lat="43.50584" lon="6.67071">
        <ele>82</ele>
        <time>2025-10-26T13:22:01Z</time>
      </trkpt>
      <trkpt lat="43.50584" lon="6.67069">
        <ele>81.8</ele>
        <time>2025-10-26T13:22:02Z</time>
      </trkpt>
      <trkpt lat="43.50583" lon="6.67068">
        <ele>81.6</ele>
        <time>2025-10-26T13:22:03Z</time>
      </trkpt>
      <trkpt lat="43.50583" lon="6.67067">
        <ele>81.9</ele>
        <time>2025-10-26T13:22:04Z</time>
      </trkpt>
      <trkpt lat="43.50582" lon="6.67066">
        <ele>81.7</ele>
        <time>2025-10-26T13:22:05Z</time>
      </trkpt>
      <trkpt lat="43.50581" lon="6.67065">
        <ele>81.6</ele>
        <time>2025-10-26T13:22:06Z</time>
      </trkpt>
      <trkpt lat="43.5058" lon="6.67064">
        <ele>81.5</ele>
        <time>2025-10-26T13:22:07Z</time>
      </trkpt>
      <trkpt lat="43.50579" lon="6.67063">
        <ele>81.4</ele>
        <time>2025-10-26T13:22:08Z</time>
      </trkpt>
      <trkpt lat="43.50578" lon="6.67063">
        <ele>81.2</ele>
        <time>2025-10-26T13:22:09Z</time>
      </trkpt>
      <trkpt lat="43.50577" lon="6.67062">
        <ele>81.1</ele>
        <time>2025-10-26T13:22:10Z</time>
      </trkpt>
      <trkpt lat="43.50576" lon="6.67062">
        <ele>81</ele>
        <time>2025-10-26T13:22:11Z</time>
      </trkpt>
      <trkpt lat="43.50575" lon="6.67061">
        <ele>80.9</ele>
        <time>2025-10-26T13:22:12Z</time>
      </trkpt>
      <trkpt lat="43.50574" lon="6.67061">
        <ele>80.7</ele>
        <time>2025-10-26T13:22:13Z</time>
      </trkpt>
      <trkpt lat="43.50574" lon="6.67061">
        <ele>80.6</ele>
        <time>2025-10-26T13:22:14Z</time>
      </trkpt>
      <trkpt lat="43.50574" lon="6.67061">
        <ele>80.5</ele>
        <time>2025-10-26T13:22:15Z</time>
      </trkpt>
      <trkpt lat="43.50573" lon="6.6706">
        <ele>80.4</ele>
        <time>2025-10-26T13:22:16Z</time>
      </trkpt>
      <trkpt lat="43.50572" lon="6.6706">
        <ele>80.3</ele>
        <time>2025-10-26T13:22:17Z</time>
      </trkpt>
      <trkpt lat="43.50571" lon="6.6706">
        <ele>80.2</ele>
        <time>2025-10-26T13:22:18Z</time>
      </trkpt>
      <trkpt lat="43.5057" lon="6.6706">
        <ele>80.1</ele>
        <time>2025-10-26T13:22:19Z</time>
      </trkpt>
      <trkpt lat="43.50569" lon="6.67061">
        <ele>80.1</ele>
        <time>2025-10-26T13:22:20Z</time>
      </trkpt>
      <trkpt lat="43.50568" lon="6.67061">
        <ele>79.9</ele>
        <time>2025-10-26T13:22:21Z</time>
      </trkpt>
      <trkpt lat="43.50567" lon="6.67061">
        <ele>79.8</ele>
        <time>2025-10-26T13:22:22Z</time>
      </trkpt>
      <trkpt lat="43.50566" lon="6.67061">
        <ele>79.8</ele>
        <time>2025-10-26T13:22:23Z</time>
      </trkpt>
      <trkpt lat="43.50565" lon="6.6706">
        <ele>79.7</ele>
        <time>2025-10-26T13:22:24Z</time>
      </trkpt>
      <trkpt lat="43.50563" lon="6.6706">
        <ele>79.7</ele>
        <time>2025-10-26T13:22:25Z</time>
      </trkpt>
      <trkpt lat="43.50562" lon="6.6706">
        <ele>79.5</ele>
        <time>2025-10-26T13:22:26Z</time>
      </trkpt>
      <trkpt lat="43.50561" lon="6.67061">
        <ele>79.4</ele>
        <time>2025-10-26T13:22:27Z</time>
      </trkpt>
      <trkpt lat="43.5056" lon="6.67061">
        <ele>79.3</ele>
        <time>2025-10-26T13:22:28Z</time>
      </trkpt>
      <trkpt lat="43.50558" lon="6.67061">
        <ele>78.8</ele>
        <time>2025-10-26T13:22:29Z</time>
      </trkpt>
      <trkpt lat="43.50557" lon="6.67062">
        <ele>78.4</ele>
        <time>2025-10-26T13:22:30Z</time>
      </trkpt>
      <trkpt lat="43.50556" lon="6.67062">
        <ele>78.4</ele>
        <time>2025-10-26T13:22:31Z</time>
      </trkpt>
      <trkpt lat="43.50555" lon="6.67062">
        <ele>77.9</ele>
        <time>2025-10-26T13:22:32Z</time>
      </trkpt>
      <trkpt lat="43.50554" lon="6.67063">
        <ele>77.8</ele>
        <time>2025-10-26T13:22:33Z</time>
      </trkpt>
      <trkpt lat="43.50553" lon="6.67063">
        <ele>77.5</ele>
        <time>2025-10-26T13:22:34Z</time>
      </trkpt>
      <trkpt lat="43.50552" lon="6.67063">
        <ele>77.7</ele>
        <time>2025-10-26T13:22:35Z</time>
      </trkpt>
      <trkpt lat="43.5055" lon="6.67063">
        <ele>77.9</ele>
        <time>2025-10-26T13:22:36Z</time>
      </trkpt>
      <trkpt lat="43.50549" lon="6.67063">
        <ele>78.2</ele>
        <time>2025-10-26T13:22:37Z</time>
      </trkpt>
      <trkpt lat="43.50548" lon="6.67063">
        <ele>78.4</ele>
        <time>2025-10-26T13:22:38Z</time>
      </trkpt>
      <trkpt lat="43.50547" lon="6.67063">
        <ele>78.7</ele>
        <time>2025-10-26T13:22:39Z</time>
      </trkpt>
      <trkpt lat="43.50546" lon="6.67063">
        <ele>79</ele>
        <time>2025-10-26T13:22:40Z</time>
      </trkpt>
      <trkpt lat="43.50545" lon="6.67063">
        <ele>79.2</ele>
        <time>2025-10-26T13:22:41Z</time>
      </trkpt>
      <trkpt lat="43.50544" lon="6.67063">
        <ele>79.4</ele>
        <time>2025-10-26T13:22:42Z</time>
      </trkpt>
      <trkpt lat="43.50543" lon="6.67063">
        <ele>79.6</ele>
        <time>2025-10-26T13:22:43Z</time>
      </trkpt>
      <trkpt lat="43.50542" lon="6.67062">
        <ele>79.8</ele>
        <time>2025-10-26T13:22:44Z</time>
      </trkpt>
      <trkpt lat="43.50541" lon="6.67062">
        <ele>79.9</ele>
        <time>2025-10-26T13:22:45Z</time>
      </trkpt>
      <trkpt lat="43.5054" lon="6.67061">
        <ele>79.9</ele>
        <time>2025-10-26T13:22:46Z</time>
      </trkpt>
      <trkpt lat="43.50539" lon="6.67061">
        <ele>80</ele>
        <time>2025-10-26T13:22:47Z</time>
      </trkpt>
      <trkpt lat="43.50538" lon="6.67061">
        <ele>80.2</ele>
        <time>2025-10-26T13:22:48Z</time>
      </trkpt>
      <trkpt lat="43.50537" lon="6.67061">
        <ele>80.3</ele>
        <time>2025-10-26T13:22:49Z</time>
      </trkpt>
      <trkpt lat="43.50536" lon="6.67061">
        <ele>80.4</ele>
        <time>2025-10-26T13:22:50Z</time>
      </trkpt>
      <trkpt lat="43.50535" lon="6.6706">
        <ele>80.3</ele>
        <time>2025-10-26T13:22:51Z</time>
      </trkpt>
      <trkpt lat="43.50534" lon="6.6706">
        <ele>80.6</ele>
        <time>2025-10-26T13:22:52Z</time>
      </trkpt>
      <trkpt lat="43.50533" lon="6.6706">
        <ele>80.7</ele>
        <time>2025-10-26T13:22:53Z</time>
      </trkpt>
      <trkpt lat="43.50532" lon="6.6706">
        <ele>80.7</ele>
        <time>2025-10-26T13:22:54Z</time>
      </trkpt>
      <trkpt lat="43.50531" lon="6.6706">
        <ele>80.7</ele>
        <time>2025-10-26T13:22:55Z</time>
      </trkpt>
      <trkpt lat="43.5053" lon="6.6706">
        <ele>80.6</ele>
        <time>2025-10-26T13:22:56Z</time>
      </trkpt>
      <trkpt lat="43.50529" lon="6.67059">
        <ele>80.5</ele>
        <time>2025-10-26T13:22:57Z</time>
      </trkpt>
      <trkpt lat="43.50528" lon="6.67059">
        <ele>80.4</ele>
        <time>2025-10-26T13:22:58Z</time>
      </trkpt>
      <trkpt lat="43.50527" lon="6.67059">
        <ele>80.5</ele>
        <time>2025-10-26T13:22:59Z</time>
      </trkpt>
      <trkpt lat="43.50526" lon="6.67058">
        <ele>80.4</ele>
        <time>2025-10-26T13:23:00Z</time>
      </trkpt>
      <trkpt lat="43.50525" lon="6.67058">
        <ele>80.2</ele>
        <time>2025-10-26T13:23:01Z</time>
      </trkpt>
      <trkpt lat="43.50524" lon="6.67058">
        <ele>80.1</ele>
        <time>2025-10-26T13:23:02Z</time>
      </trkpt>
      <trkpt lat="43.50523" lon="6.67058">
        <ele>80</ele>
        <time>2025-10-26T13:23:03Z</time>
      </trkpt>
      <trkpt lat="43.50522" lon="6.67058">
        <ele>79.9</ele>
        <time>2025-10-26T13:23:04Z</time>
      </trkpt>
      <trkpt lat="43.5052" lon="6.67058">
        <ele>79.9</ele>
        <time>2025-10-26T13:23:05Z</time>
      </trkpt>
      <trkpt lat="43.50519" lon="6.67058">
        <ele>79.9</ele>
        <time>2025-10-26T13:23:06Z</time>
      </trkpt>
      <trkpt lat="43.50518" lon="6.67058">
        <ele>79.8</ele>
        <time>2025-10-26T13:23:07Z</time>
      </trkpt>
      <trkpt lat="43.50517" lon="6.67058">
        <ele>79.6</ele>
        <time>2025-10-26T13:23:08Z</time>
      </trkpt>
      <trkpt lat="43.50516" lon="6.67058">
        <ele>79.5</ele>
        <time>2025-10-26T13:23:09Z</time>
      </trkpt>
      <trkpt lat="43.50515" lon="6.67057">
        <ele>79.2</ele>
        <time>2025-10-26T13:23:10Z</time>
      </trkpt>
      <trkpt lat="43.50514" lon="6.67057">
        <ele>79.1</ele>
        <time>2025-10-26T13:23:11Z</time>
      </trkpt>
      <trkpt lat="43.50513" lon="6.67057">
        <ele>79</ele>
        <time>2025-10-26T13:23:12Z</time>
      </trkpt>
      <trkpt lat="43.50512" lon="6.67057">
        <ele>78.9</ele>
        <time>2025-10-26T13:23:13Z</time>
      </trkpt>
      <trkpt lat="43.50511" lon="6.67056">
        <ele>78.8</ele>
        <time>2025-10-26T13:23:14Z</time>
      </trkpt>
      <trkpt lat="43.50509" lon="6.67056">
        <ele>78.6</ele>
        <time>2025-10-26T13:23:15Z</time>
      </trkpt>
      <trkpt lat="43.50508" lon="6.67056">
        <ele>78.5</ele>
        <time>2025-10-26T13:23:16Z</time>
      </trkpt>
      <trkpt lat="43.50506" lon="6.67056">
        <ele>78.2</ele>
        <time>2025-10-26T13:23:17Z</time>
      </trkpt>
      <trkpt lat="43.50505" lon="6.67056">
        <ele>78</ele>
        <time>2025-10-26T13:23:18Z</time>
      </trkpt>
      <trkpt lat="43.50504" lon="6.67056">
        <ele>77.7</ele>
        <time>2025-10-26T13:23:19Z</time>
      </trkpt>
      <trkpt lat="43.50503" lon="6.67057">
        <ele>77.4</ele>
        <time>2025-10-26T13:23:20Z</time>
      </trkpt>
      <trkpt lat="43.50501" lon="6.67057">
        <ele>77.2</ele>
        <time>2025-10-26T13:23:21Z</time>
      </trkpt>
      <trkpt lat="43.505" lon="6.67058">
        <ele>76.9</ele>
        <time>2025-10-26T13:23:22Z</time>
      </trkpt>
      <trkpt lat="43.50499" lon="6.67058">
        <ele>76.8</ele>
        <time>2025-10-26T13:23:23Z</time>
      </trkpt>
      <trkpt lat="43.50498" lon="6.67058">
        <ele>76.7</ele>
        <time>2025-10-26T13:23:24Z</time>
      </trkpt>
      <trkpt lat="43.50497" lon="6.67058">
        <ele>76.5</ele>
        <time>2025-10-26T13:23:25Z</time>
      </trkpt>
      <trkpt lat="43.50496" lon="6.67059">
        <ele>76.4</ele>
        <time>2025-10-26T13:23:26Z</time>
      </trkpt>
      <trkpt lat="43.50495" lon="6.6706">
        <ele>76.5</ele>
        <time>2025-10-26T13:23:27Z</time>
      </trkpt>
      <trkpt lat="43.50494" lon="6.6706">
        <ele>76.5</ele>
        <time>2025-10-26T13:23:28Z</time>
      </trkpt>
      <trkpt lat="43.50492" lon="6.6706">
        <ele>76.1</ele>
        <time>2025-10-26T13:23:29Z</time>
      </trkpt>
      <trkpt lat="43.50491" lon="6.6706">
        <ele>75.9</ele>
        <time>2025-10-26T13:23:30Z</time>
      </trkpt>
      <trkpt lat="43.5049" lon="6.6706">
        <ele>75.6</ele>
        <time>2025-10-26T13:23:31Z</time>
      </trkpt>
      <trkpt lat="43.50489" lon="6.6706">
        <ele>75.6</ele>
        <time>2025-10-26T13:23:32Z</time>
      </trkpt>
      <trkpt lat="43.50488" lon="6.6706">
        <ele>75.4</ele>
        <time>2025-10-26T13:23:33Z</time>
      </trkpt>
      <trkpt lat="43.50487" lon="6.6706">
        <ele>75.3</ele>
        <time>2025-10-26T13:23:34Z</time>
      </trkpt>
      <trkpt lat="43.50486" lon="6.6706">
        <ele>75.2</ele>
        <time>2025-10-26T13:23:35Z</time>
      </trkpt>
      <trkpt lat="43.50485" lon="6.6706">
        <ele>75</ele>
        <time>2025-10-26T13:23:36Z</time>
      </trkpt>
      <trkpt lat="43.50485" lon="6.6706">
        <ele>74.9</ele>
        <time>2025-10-26T13:23:37Z</time>
      </trkpt>
      <trkpt lat="43.50485" lon="6.6706">
        <ele>74.9</ele>
        <time>2025-10-26T13:23:38Z</time>
      </trkpt>
      <trkpt lat="43.50485" lon="6.67061">
        <ele>74.9</ele>
        <time>2025-10-26T13:23:39Z</time>
      </trkpt>
      <trkpt lat="43.50485" lon="6.67061">
        <ele>75</ele>
        <time>2025-10-26T13:23:40Z</time>
      </trkpt>
      <trkpt lat="43.50485" lon="6.67061">
        <ele>75</ele>
        <time>2025-10-26T13:23:41Z</time>
      </trkpt>
      <trkpt lat="43.50484" lon="6.67061">
        <ele>75</ele>
        <time>2025-10-26T13:23:42Z</time>
      </trkpt>
      <trkpt lat="43.50484" lon="6.67061">
        <ele>75</ele>
        <time>2025-10-26T13:23:43Z</time>
      </trkpt>
      <trkpt lat="43.50484" lon="6.67061">
        <ele>75</ele>
        <time>2025-10-26T13:23:44Z</time>
      </trkpt>
      <trkpt lat="43.50484" lon="6.67061">
        <ele>75</ele>
        <time>2025-10-26T13:23:45Z</time>
      </trkpt>
      <trkpt lat="43.50483" lon="6.67061">
        <ele>75</ele>
        <time>2025-10-26T13:23:46Z</time>
      </trkpt>
      <trkpt lat="43.50483" lon="6.67061">
        <ele>75.1</ele>
        <time>2025-10-26T13:23:47Z</time>
      </trkpt>
      <trkpt lat="43.50483" lon="6.67061">
        <ele>75.3</ele>
        <time>2025-10-26T13:23:48Z</time>
      </trkpt>
      <trkpt lat="43.50483" lon="6.67061">
        <ele>75.4</ele>
        <time>2025-10-26T13:23:49Z</time>
      </trkpt>
      <trkpt lat="43.50482" lon="6.67061">
        <ele>75.5</ele>
        <time>2025-10-26T13:23:50Z</time>
      </trkpt>
      <trkpt lat="43.50482" lon="6.67061">
        <ele>75.7</ele>
        <time>2025-10-26T13:23:51Z</time>
      </trkpt>
      <trkpt lat="43.50482" lon="6.67061">
        <ele>75.8</ele>
        <time>2025-10-26T13:23:52Z</time>
      </trkpt>
      <trkpt lat="43.50482" lon="6.67061">
        <ele>75.8</ele>
        <time>2025-10-26T13:23:53Z</time>
      </trkpt>
      <trkpt lat="43.50482" lon="6.67061">
        <ele>75.7</ele>
        <time>2025-10-26T13:23:54Z</time>
      </trkpt>
      <trkpt lat="43.50482" lon="6.67061">
        <ele>75.6</ele>
        <time>2025-10-26T13:23:55Z</time>
      </trkpt>
      <trkpt lat="43.50481" lon="6.67061">
        <ele>75.6</ele>
        <time>2025-10-26T13:23:56Z</time>
      </trkpt>
      <trkpt lat="43.50481" lon="6.67061">
        <ele>75.5</ele>
        <time>2025-10-26T13:23:57Z</time>
      </trkpt>
      <trkpt lat="43.50481" lon="6.67061">
        <ele>75.4</ele>
        <time>2025-10-26T13:23:58Z</time>
      </trkpt>
      <trkpt lat="43.50481" lon="6.67061">
        <ele>75.4</ele>
        <time>2025-10-26T13:23:59Z</time>
      </trkpt>
      <trkpt lat="43.50481" lon="6.67061">
        <ele>75.3</ele>
        <time>2025-10-26T13:24:00Z</time>
      </trkpt>
      <trkpt lat="43.5048" lon="6.67061">
        <ele>75.4</ele>
        <time>2025-10-26T13:24:01Z</time>
      </trkpt>
      <trkpt lat="43.5048" lon="6.67061">
        <ele>75.4</ele>
        <time>2025-10-26T13:24:02Z</time>
      </trkpt>
      <trkpt lat="43.5048" lon="6.67061">
        <ele>75.3</ele>
        <time>2025-10-26T13:24:03Z</time>
      </trkpt>
      <trkpt lat="43.5048" lon="6.67062">
        <ele>75.3</ele>
        <time>2025-10-26T13:24:04Z</time>
      </trkpt>
      <trkpt lat="43.5048" lon="6.67061">
        <ele>75.3</ele>
        <time>2025-10-26T13:24:05Z</time>
      </trkpt>
      <trkpt lat="43.5048" lon="6.67061">
        <ele>75.4</ele>
        <time>2025-10-26T13:24:06Z</time>
      </trkpt>
      <trkpt lat="43.5048" lon="6.67061">
        <ele>75.3</ele>
        <time>2025-10-26T13:24:07Z</time>
      </trkpt>
      <trkpt lat="43.5048" lon="6.67061">
        <ele>75.3</ele>
        <time>2025-10-26T13:24:08Z</time>
      </trkpt>
      <trkpt lat="43.5048" lon="6.67061">
        <ele>75.3</ele>
        <time>2025-10-26T13:24:09Z</time>
      </trkpt>
      <trkpt lat="43.5048" lon="6.67061">
        <ele>75.3</ele>
        <time>2025-10-26T13:24:10Z</time>
      </trkpt>
      <trkpt lat="43.5048" lon="6.67061">
        <ele>75.3</ele>
        <time>2025-10-26T13:24:11Z</time>
      </trkpt>
      <trkpt lat="43.5048" lon="6.67062">
        <ele>75.3</ele>
        <time>2025-10-26T13:24:12Z</time>
      </trkpt>
      <trkpt lat="43.5048" lon="6.67062">
        <ele>75.3</ele>
        <time>2025-10-26T13:24:13Z</time>
      </trkpt>
      <trkpt lat="43.5048" lon="6.67062">
        <ele>75.3</ele>
        <time>2025-10-26T13:24:14Z</time>
      </trkpt>
      <trkpt lat="43.5048" lon="6.67062">
        <ele>75.3</ele>
        <time>2025-10-26T13:24:15Z</time>
      </trkpt>
      <trkpt lat="43.5048" lon="6.67061">
        <ele>75.3</ele>
        <time>2025-10-26T13:24:16Z</time>
      </trkpt>
      <trkpt lat="43.50479" lon="6.67061">
        <ele>75.3</ele>
        <time>2025-10-26T13:24:17Z</time>
      </trkpt>
      <trkpt lat="43.50479" lon="6.67061">
        <ele>75.3</ele>
        <time>2025-10-26T13:24:18Z</time>
      </trkpt>
      <trkpt lat="43.50479" lon="6.67061">
        <ele>75.3</ele>
        <time>2025-10-26T13:24:19Z</time>
      </trkpt>
      <trkpt lat="43.50479" lon="6.67061">
        <ele>75.3</ele>
        <time>2025-10-26T13:24:20Z</time>
      </trkpt>
      <trkpt lat="43.50479" lon="6.67061">
        <ele>75.1</ele>
        <time>2025-10-26T13:24:21Z</time>
      </trkpt>
      <trkpt lat="43.50479" lon="6.67061">
        <ele>75</ele>
        <time>2025-10-26T13:24:22Z</time>
      </trkpt>
      <trkpt lat="43.50479" lon="6.67062">
        <ele>75.1</ele>
        <time>2025-10-26T13:24:23Z</time>
      </trkpt>
      <trkpt lat="43.50479" lon="6.67062">
        <ele>75.2</ele>
        <time>2025-10-26T13:24:24Z</time>
      </trkpt>
      <trkpt lat="43.50479" lon="6.67061">
        <ele>75.2</ele>
        <time>2025-10-26T13:24:25Z</time>
      </trkpt>
      <trkpt lat="43.50479" lon="6.67061">
        <ele>75.3</ele>
        <time>2025-10-26T13:24:26Z</time>
      </trkpt>
      <trkpt lat="43.50479" lon="6.67061">
        <ele>75.3</ele>
        <time>2025-10-26T13:24:27Z</time>
      </trkpt>
      <trkpt lat="43.50479" lon="6.67061">
        <ele>75.3</ele>
        <time>2025-10-26T13:24:28Z</time>
      </trkpt>
      <trkpt lat="43.50478" lon="6.67061">
        <ele>75.2</ele>
        <time>2025-10-26T13:24:29Z</time>
      </trkpt>
      <trkpt lat="43.50478" lon="6.67061">
        <ele>75.1</ele>
        <time>2025-10-26T13:24:30Z</time>
      </trkpt>
      <trkpt lat="43.50477" lon="6.67061">
        <ele>75</ele>
        <time>2025-10-26T13:24:31Z</time>
      </trkpt>
      <trkpt lat="43.50477" lon="6.67061">
        <ele>75.2</ele>
        <time>2025-10-26T13:24:32Z</time>
      </trkpt>
      <trkpt lat="43.50476" lon="6.67061">
        <ele>75</ele>
        <time>2025-10-26T13:24:33Z</time>
      </trkpt>
      <trkpt lat="43.50476" lon="6.67061">
        <ele>74.9</ele>
        <time>2025-10-26T13:24:34Z</time>
      </trkpt>
      <trkpt lat="43.50475" lon="6.67061">
        <ele>74.7</ele>
        <time>2025-10-26T13:24:35Z</time>
      </trkpt>
      <trkpt lat="43.50474" lon="6.67061">
        <ele>74.6</ele>
        <time>2025-10-26T13:24:36Z</time>
      </trkpt>
      <trkpt lat="43.50473" lon="6.67062">
        <ele>74.5</ele>
        <time>2025-10-26T13:24:37Z</time>
      </trkpt>
      <trkpt lat="43.50473" lon="6.67062">
        <ele>74.4</ele>
        <time>2025-10-26T13:24:38Z</time>
      </trkpt>
      <trkpt lat="43.50472" lon="6.67063">
        <ele>74.3</ele>
        <time>2025-10-26T13:24:39Z</time>
      </trkpt>
      <trkpt lat="43.50471" lon="6.67063">
        <ele>74.2</ele>
        <time>2025-10-26T13:24:40Z</time>
      </trkpt>
      <trkpt lat="43.5047" lon="6.67064">
        <ele>74</ele>
        <time>2025-10-26T13:24:41Z</time>
      </trkpt>
      <trkpt lat="43.50469" lon="6.67064">
        <ele>73.8</ele>
        <time>2025-10-26T13:24:42Z</time>
      </trkpt>
      <trkpt lat="43.50468" lon="6.67065">
        <ele>73.6</ele>
        <time>2025-10-26T13:24:43Z</time>
      </trkpt>
      <trkpt lat="43.50467" lon="6.67065">
        <ele>73.5</ele>
        <time>2025-10-26T13:24:44Z</time>
      </trkpt>
      <trkpt lat="43.50467" lon="6.67066">
        <ele>73.5</ele>
        <time>2025-10-26T13:24:45Z</time>
      </trkpt>
      <trkpt lat="43.50466" lon="6.67067">
        <ele>73.5</ele>
        <time>2025-10-26T13:24:46Z</time>
      </trkpt>
      <trkpt lat="43.50466" lon="6.67068">
        <ele>73.3</ele>
        <time>2025-10-26T13:24:47Z</time>
      </trkpt>
      <trkpt lat="43.50465" lon="6.67068">
        <ele>73.2</ele>
        <time>2025-10-26T13:24:48Z</time>
      </trkpt>
      <trkpt lat="43.50464" lon="6.67069">
        <ele>73.1</ele>
        <time>2025-10-26T13:24:49Z</time>
      </trkpt>
      <trkpt lat="43.50463" lon="6.6707">
        <ele>73</ele>
        <time>2025-10-26T13:24:50Z</time>
      </trkpt>
      <trkpt lat="43.50462" lon="6.67071">
        <ele>73.1</ele>
        <time>2025-10-26T13:24:51Z</time>
      </trkpt>
      <trkpt lat="43.50462" lon="6.67072">
        <ele>73</ele>
        <time>2025-10-26T13:24:52Z</time>
      </trkpt>
      <trkpt lat="43.50461" lon="6.67073">
        <ele>73.2</ele>
        <time>2025-10-26T13:24:53Z</time>
      </trkpt>
      <trkpt lat="43.5046" lon="6.67074">
        <ele>73.5</ele>
        <time>2025-10-26T13:24:54Z</time>
      </trkpt>
      <trkpt lat="43.5046" lon="6.67074">
        <ele>73.7</ele>
        <time>2025-10-26T13:24:55Z</time>
      </trkpt>
      <trkpt lat="43.50459" lon="6.67075">
        <ele>73.7</ele>
        <time>2025-10-26T13:24:56Z</time>
      </trkpt>
      <trkpt lat="43.50458" lon="6.67076">
        <ele>73.8</ele>
        <time>2025-10-26T13:24:57Z</time>
      </trkpt>
      <trkpt lat="43.50457" lon="6.67076">
        <ele>73.7</ele>
        <time>2025-10-26T13:24:58Z</time>
      </trkpt>
      <trkpt lat="43.50456" lon="6.67077">
        <ele>73.6</ele>
        <time>2025-10-26T13:24:59Z</time>
      </trkpt>
      <trkpt lat="43.50456" lon="6.67078">
        <ele>73.6</ele>
        <time>2025-10-26T13:25:00Z</time>
      </trkpt>
      <trkpt lat="43.50455" lon="6.67079">
        <ele>73.5</ele>
        <time>2025-10-26T13:25:01Z</time>
      </trkpt>
      <trkpt lat="43.50454" lon="6.6708">
        <ele>73.6</ele>
        <time>2025-10-26T13:25:02Z</time>
      </trkpt>
      <trkpt lat="43.50454" lon="6.67081">
        <ele>73.6</ele>
        <time>2025-10-26T13:25:03Z</time>
      </trkpt>
      <trkpt lat="43.50453" lon="6.67081">
        <ele>73.6</ele>
        <time>2025-10-26T13:25:04Z</time>
      </trkpt>
      <trkpt lat="43.50452" lon="6.67082">
        <ele>73.5</ele>
        <time>2025-10-26T13:25:05Z</time>
      </trkpt>
      <trkpt lat="43.5045" lon="6.67083">
        <ele>73.5</ele>
        <time>2025-10-26T13:25:06Z</time>
      </trkpt>
      <trkpt lat="43.5045" lon="6.67084">
        <ele>73.4</ele>
        <time>2025-10-26T13:25:07Z</time>
      </trkpt>
      <trkpt lat="43.50449" lon="6.67085">
        <ele>73.3</ele>
        <time>2025-10-26T13:25:08Z</time>
      </trkpt>
      <trkpt lat="43.50448" lon="6.67086">
        <ele>73.1</ele>
        <time>2025-10-26T13:25:09Z</time>
      </trkpt>
      <trkpt lat="43.50448" lon="6.67087">
        <ele>73</ele>
        <time>2025-10-26T13:25:10Z</time>
      </trkpt>
      <trkpt lat="43.50447" lon="6.67088">
        <ele>72.8</ele>
        <time>2025-10-26T13:25:11Z</time>
      </trkpt>
      <trkpt lat="43.50446" lon="6.67088">
        <ele>72.8</ele>
        <time>2025-10-26T13:25:12Z</time>
      </trkpt>
      <trkpt lat="43.50445" lon="6.67089">
        <ele>72.7</ele>
        <time>2025-10-26T13:25:13Z</time>
      </trkpt>
      <trkpt lat="43.50444" lon="6.6709">
        <ele>72.5</ele>
        <time>2025-10-26T13:25:14Z</time>
      </trkpt>
      <trkpt lat="43.50442" lon="6.6709">
        <ele>72.4</ele>
        <time>2025-10-26T13:25:15Z</time>
      </trkpt>
      <trkpt lat="43.50441" lon="6.67091">
        <ele>72.3</ele>
        <time>2025-10-26T13:25:16Z</time>
      </trkpt>
      <trkpt lat="43.5044" lon="6.67092">
        <ele>72.2</ele>
        <time>2025-10-26T13:25:17Z</time>
      </trkpt>
      <trkpt lat="43.50439" lon="6.67092">
        <ele>72.2</ele>
        <time>2025-10-26T13:25:18Z</time>
      </trkpt>
      <trkpt lat="43.50438" lon="6.67093">
        <ele>72.3</ele>
        <time>2025-10-26T13:25:19Z</time>
      </trkpt>
      <trkpt lat="43.50437" lon="6.67094">
        <ele>72.5</ele>
        <time>2025-10-26T13:25:20Z</time>
      </trkpt>
      <trkpt lat="43.50436" lon="6.67095">
        <ele>72.5</ele>
        <time>2025-10-26T13:25:21Z</time>
      </trkpt>
      <trkpt lat="43.50435" lon="6.67095">
        <ele>72.5</ele>
        <time>2025-10-26T13:25:22Z</time>
      </trkpt>
      <trkpt lat="43.50434" lon="6.67095">
        <ele>72.5</ele>
        <time>2025-10-26T13:25:23Z</time>
      </trkpt>
      <trkpt lat="43.50433" lon="6.67096">
        <ele>72.5</ele>
        <time>2025-10-26T13:25:24Z</time>
      </trkpt>
      <trkpt lat="43.50431" lon="6.67096">
        <ele>72.4</ele>
        <time>2025-10-26T13:25:25Z</time>
      </trkpt>
      <trkpt lat="43.5043" lon="6.67097">
        <ele>72.3</ele>
        <time>2025-10-26T13:25:26Z</time>
      </trkpt>
      <trkpt lat="43.50429" lon="6.67097">
        <ele>72.4</ele>
        <time>2025-10-26T13:25:27Z</time>
      </trkpt>
      <trkpt lat="43.50428" lon="6.67097">
        <ele>72.4</ele>
        <time>2025-10-26T13:25:28Z</time>
      </trkpt>
      <trkpt lat="43.50427" lon="6.67098">
        <ele>72.5</ele>
        <time>2025-10-26T13:25:29Z</time>
      </trkpt>
      <trkpt lat="43.50427" lon="6.67098">
        <ele>72.5</ele>
        <time>2025-10-26T13:25:30Z</time>
      </trkpt>
      <trkpt lat="43.50426" lon="6.67098">
        <ele>72.5</ele>
        <time>2025-10-26T13:25:31Z</time>
      </trkpt>
      <trkpt lat="43.50425" lon="6.67098">
        <ele>72.5</ele>
        <time>2025-10-26T13:25:32Z</time>
      </trkpt>
      <trkpt lat="43.50423" lon="6.67099">
        <ele>72.5</ele>
        <time>2025-10-26T13:25:33Z</time>
      </trkpt>
      <trkpt lat="43.50422" lon="6.67099">
        <ele>72.5</ele>
        <time>2025-10-26T13:25:34Z</time>
      </trkpt>
      <trkpt lat="43.50421" lon="6.671">
        <ele>72.4</ele>
        <time>2025-10-26T13:25:35Z</time>
      </trkpt>
      <trkpt lat="43.5042" lon="6.67099">
        <ele>72.2</ele>
        <time>2025-10-26T13:25:36Z</time>
      </trkpt>
      <trkpt lat="43.50419" lon="6.671">
        <ele>72.1</ele>
        <time>2025-10-26T13:25:37Z</time>
      </trkpt>
      <trkpt lat="43.50418" lon="6.671">
        <ele>72.1</ele>
        <time>2025-10-26T13:25:38Z</time>
      </trkpt>
      <trkpt lat="43.50417" lon="6.671">
        <ele>72.1</ele>
        <time>2025-10-26T13:25:39Z</time>
      </trkpt>
      <trkpt lat="43.50416" lon="6.671">
        <ele>72.1</ele>
        <time>2025-10-26T13:25:40Z</time>
      </trkpt>
      <trkpt lat="43.50414" lon="6.67101">
        <ele>72.2</ele>
        <time>2025-10-26T13:25:41Z</time>
      </trkpt>
      <trkpt lat="43.50414" lon="6.67101">
        <ele>72.2</ele>
        <time>2025-10-26T13:25:42Z</time>
      </trkpt>
      <trkpt lat="43.50413" lon="6.67101">
        <ele>72.2</ele>
        <time>2025-10-26T13:25:43Z</time>
      </trkpt>
      <trkpt lat="43.50413" lon="6.67101">
        <ele>72.2</ele>
        <time>2025-10-26T13:25:44Z</time>
      </trkpt>
      <trkpt lat="43.50412" lon="6.67102">
        <ele>72.1</ele>
        <time>2025-10-26T13:25:45Z</time>
      </trkpt>
      <trkpt lat="43.50412" lon="6.67102">
        <ele>72.1</ele>
        <time>2025-10-26T13:25:46Z</time>
      </trkpt>
      <trkpt lat="43.50411" lon="6.67102">
        <ele>72.2</ele>
        <time>2025-10-26T13:25:47Z</time>
      </trkpt>
      <trkpt lat="43.50411" lon="6.67101">
        <ele>72.2</ele>
        <time>2025-10-26T13:25:48Z</time>
      </trkpt>
      <trkpt lat="43.5041" lon="6.67101">
        <ele>72.2</ele>
        <time>2025-10-26T13:25:49Z</time>
      </trkpt>
      <trkpt lat="43.50409" lon="6.67101">
        <ele>72.4</ele>
        <time>2025-10-26T13:25:50Z</time>
      </trkpt>
      <trkpt lat="43.50408" lon="6.67102">
        <ele>72.5</ele>
        <time>2025-10-26T13:25:51Z</time>
      </trkpt>
      <trkpt lat="43.50407" lon="6.67102">
        <ele>72.6</ele>
        <time>2025-10-26T13:25:52Z</time>
      </trkpt>
      <trkpt lat="43.50406" lon="6.67102">
        <ele>72.8</ele>
        <time>2025-10-26T13:25:53Z</time>
      </trkpt>
      <trkpt lat="43.50405" lon="6.67103">
        <ele>73</ele>
        <time>2025-10-26T13:25:54Z</time>
      </trkpt>
      <trkpt lat="43.50404" lon="6.67104">
        <ele>73.1</ele>
        <time>2025-10-26T13:25:55Z</time>
      </trkpt>
      <trkpt lat="43.50403" lon="6.67106">
        <ele>73.2</ele>
        <time>2025-10-26T13:25:56Z</time>
      </trkpt>
      <trkpt lat="43.50402" lon="6.67107">
        <ele>73.2</ele>
        <time>2025-10-26T13:25:57Z</time>
      </trkpt>
      <trkpt lat="43.50401" lon="6.67108">
        <ele>73.3</ele>
        <time>2025-10-26T13:25:58Z</time>
      </trkpt>
      <trkpt lat="43.504" lon="6.67109">
        <ele>73.4</ele>
        <time>2025-10-26T13:25:59Z</time>
      </trkpt>
      <trkpt lat="43.50399" lon="6.6711">
        <ele>73.4</ele>
        <time>2025-10-26T13:26:00Z</time>
      </trkpt>
      <trkpt lat="43.50398" lon="6.67112">
        <ele>73.3</ele>
        <time>2025-10-26T13:26:01Z</time>
      </trkpt>
      <trkpt lat="43.50397" lon="6.67113">
        <ele>73.1</ele>
        <time>2025-10-26T13:26:02Z</time>
      </trkpt>
      <trkpt lat="43.50396" lon="6.67114">
        <ele>73</ele>
        <time>2025-10-26T13:26:03Z</time>
      </trkpt>
      <trkpt lat="43.50396" lon="6.67116">
        <ele>73</ele>
        <time>2025-10-26T13:26:04Z</time>
      </trkpt>
      <trkpt lat="43.50395" lon="6.67117">
        <ele>72.9</ele>
        <time>2025-10-26T13:26:05Z</time>
      </trkpt>
      <trkpt lat="43.50394" lon="6.67118">
        <ele>72.8</ele>
        <time>2025-10-26T13:26:06Z</time>
      </trkpt>
      <trkpt lat="43.50394" lon="6.6712">
        <ele>72.8</ele>
        <time>2025-10-26T13:26:07Z</time>
      </trkpt>
      <trkpt lat="43.50393" lon="6.67122">
        <ele>72.7</ele>
        <time>2025-10-26T13:26:08Z</time>
      </trkpt>
      <trkpt lat="43.50393" lon="6.67124">
        <ele>72.8</ele>
        <time>2025-10-26T13:26:09Z</time>
      </trkpt>
      <trkpt lat="43.50392" lon="6.67125">
        <ele>72.8</ele>
        <time>2025-10-26T13:26:10Z</time>
      </trkpt>
      <trkpt lat="43.50392" lon="6.67127">
        <ele>72.9</ele>
        <time>2025-10-26T13:26:11Z</time>
      </trkpt>
      <trkpt lat="43.50391" lon="6.67129">
        <ele>73</ele>
        <time>2025-10-26T13:26:12Z</time>
      </trkpt>
      <trkpt lat="43.50391" lon="6.6713">
        <ele>73.1</ele>
        <time>2025-10-26T13:26:13Z</time>
      </trkpt>
      <trkpt lat="43.50391" lon="6.67132">
        <ele>73.1</ele>
        <time>2025-10-26T13:26:14Z</time>
      </trkpt>
      <trkpt lat="43.5039" lon="6.67133">
        <ele>73.1</ele>
        <time>2025-10-26T13:26:15Z</time>
      </trkpt>
      <trkpt lat="43.5039" lon="6.67135">
        <ele>73.1</ele>
        <time>2025-10-26T13:26:16Z</time>
      </trkpt>
      <trkpt lat="43.50389" lon="6.67137">
        <ele>73.2</ele>
        <time>2025-10-26T13:26:17Z</time>
      </trkpt>
      <trkpt lat="43.50389" lon="6.67138">
        <ele>73.4</ele>
        <time>2025-10-26T13:26:18Z</time>
      </trkpt>
      <trkpt lat="43.50389" lon="6.6714">
        <ele>73.5</ele>
        <time>2025-10-26T13:26:19Z</time>
      </trkpt>
      <trkpt lat="43.50389" lon="6.67142">
        <ele>73.6</ele>
        <time>2025-10-26T13:26:20Z</time>
      </trkpt>
      <trkpt lat="43.50388" lon="6.67143">
        <ele>73.6</ele>
        <time>2025-10-26T13:26:21Z</time>
      </trkpt>
      <trkpt lat="43.50388" lon="6.67145">
        <ele>73.6</ele>
        <time>2025-10-26T13:26:22Z</time>
      </trkpt>
      <trkpt lat="43.50387" lon="6.67146">
        <ele>73.7</ele>
        <time>2025-10-26T13:26:23Z</time>
      </trkpt>
      <trkpt lat="43.50387" lon="6.67148">
        <ele>73.6</ele>
        <time>2025-10-26T13:26:24Z</time>
      </trkpt>
      <trkpt lat="43.50387" lon="6.67149">
        <ele>73.6</ele>
        <time>2025-10-26T13:26:25Z</time>
      </trkpt>
      <trkpt lat="43.50386" lon="6.67151">
        <ele>73.5</ele>
        <time>2025-10-26T13:26:26Z</time>
      </trkpt>
      <trkpt lat="43.50386" lon="6.67153">
        <ele>73.5</ele>
        <time>2025-10-26T13:26:27Z</time>
      </trkpt>
      <trkpt lat="43.50386" lon="6.67155">
        <ele>73.5</ele>
        <time>2025-10-26T13:26:28Z</time>
      </trkpt>
      <trkpt lat="43.50385" lon="6.67156">
        <ele>73.5</ele>
        <time>2025-10-26T13:26:29Z</time>
      </trkpt>
      <trkpt lat="43.50385" lon="6.67157">
        <ele>73.6</ele>
        <time>2025-10-26T13:26:30Z</time>
      </trkpt>
      <trkpt lat="43.50384" lon="6.67159">
        <ele>73.6</ele>
        <time>2025-10-26T13:26:31Z</time>
      </trkpt>
      <trkpt lat="43.50384" lon="6.6716">
        <ele>73.6</ele>
        <time>2025-10-26T13:26:32Z</time>
      </trkpt>
      <trkpt lat="43.50383" lon="6.67161">
        <ele>73.7</ele>
        <time>2025-10-26T13:26:33Z</time>
      </trkpt>
      <trkpt lat="43.50381" lon="6.67162">
        <ele>73.7</ele>
        <time>2025-10-26T13:26:34Z</time>
      </trkpt>
      <trkpt lat="43.50381" lon="6.67164">
        <ele>73.7</ele>
        <time>2025-10-26T13:26:35Z</time>
      </trkpt>
      <trkpt lat="43.5038" lon="6.67166">
        <ele>73.7</ele>
        <time>2025-10-26T13:26:36Z</time>
      </trkpt>
      <trkpt lat="43.5038" lon="6.67167">
        <ele>73.9</ele>
        <time>2025-10-26T13:26:37Z</time>
      </trkpt>
      <trkpt lat="43.50379" lon="6.67169">
        <ele>74</ele>
        <time>2025-10-26T13:26:38Z</time>
      </trkpt>
      <trkpt lat="43.50379" lon="6.6717">
        <ele>74.1</ele>
        <time>2025-10-26T13:26:39Z</time>
      </trkpt>
      <trkpt lat="43.50378" lon="6.67172">
        <ele>74.1</ele>
        <time>2025-10-26T13:26:40Z</time>
      </trkpt>
      <trkpt lat="43.50378" lon="6.67173">
        <ele>74.2</ele>
        <time>2025-10-26T13:26:41Z</time>
      </trkpt>
      <trkpt lat="43.50377" lon="6.67174">
        <ele>74.2</ele>
        <time>2025-10-26T13:26:42Z</time>
      </trkpt>
      <trkpt lat="43.50377" lon="6.67176">
        <ele>74.2</ele>
        <time>2025-10-26T13:26:43Z</time>
      </trkpt>
      <trkpt lat="43.50376" lon="6.67177">
        <ele>74.1</ele>
        <time>2025-10-26T13:26:44Z</time>
      </trkpt>
      <trkpt lat="43.50375" lon="6.67179">
        <ele>74.1</ele>
        <time>2025-10-26T13:26:45Z</time>
      </trkpt>
      <trkpt lat="43.50375" lon="6.6718">
        <ele>74.1</ele>
        <time>2025-10-26T13:26:46Z</time>
      </trkpt>
      <trkpt lat="43.50374" lon="6.67181">
        <ele>74.2</ele>
        <time>2025-10-26T13:26:47Z</time>
      </trkpt>
      <trkpt lat="43.50374" lon="6.67183">
        <ele>74.2</ele>
        <time>2025-10-26T13:26:48Z</time>
      </trkpt>
      <trkpt lat="43.50373" lon="6.67184">
        <ele>74.3</ele>
        <time>2025-10-26T13:26:49Z</time>
      </trkpt>
      <trkpt lat="43.50373" lon="6.67186">
        <ele>74.2</ele>
        <time>2025-10-26T13:26:50Z</time>
      </trkpt>
      <trkpt lat="43.50373" lon="6.67187">
        <ele>74.2</ele>
        <time>2025-10-26T13:26:51Z</time>
      </trkpt>
      <trkpt lat="43.50372" lon="6.67188">
        <ele>74.1</ele>
        <time>2025-10-26T13:26:52Z</time>
      </trkpt>
      <trkpt lat="43.50372" lon="6.6719">
        <ele>74.1</ele>
        <time>2025-10-26T13:26:53Z</time>
      </trkpt>
      <trkpt lat="43.50371" lon="6.67191">
        <ele>74</ele>
        <time>2025-10-26T13:26:54Z</time>
      </trkpt>
      <trkpt lat="43.5037" lon="6.67193">
        <ele>74</ele>
        <time>2025-10-26T13:26:55Z</time>
      </trkpt>
      <trkpt lat="43.5037" lon="6.67194">
        <ele>74.1</ele>
        <time>2025-10-26T13:26:56Z</time>
      </trkpt>
      <trkpt lat="43.5037" lon="6.67195">
        <ele>74.3</ele>
        <time>2025-10-26T13:26:57Z</time>
      </trkpt>
      <trkpt lat="43.50369" lon="6.67197">
        <ele>74.3</ele>
        <time>2025-10-26T13:26:58Z</time>
      </trkpt>
      <trkpt lat="43.50368" lon="6.67198">
        <ele>74.4</ele>
        <time>2025-10-26T13:26:59Z</time>
      </trkpt>
      <trkpt lat="43.50368" lon="6.672">
        <ele>74.5</ele>
        <time>2025-10-26T13:27:00Z</time>
      </trkpt>
      <trkpt lat="43.50368" lon="6.67201">
        <ele>74.6</ele>
        <time>2025-10-26T13:27:01Z</time>
      </trkpt>
      <trkpt lat="43.50367" lon="6.67203">
        <ele>74.6</ele>
        <time>2025-10-26T13:27:02Z</time>
      </trkpt>
      <trkpt lat="43.50367" lon="6.67205">
        <ele>74.7</ele>
        <time>2025-10-26T13:27:03Z</time>
      </trkpt>
      <trkpt lat="43.50367" lon="6.67206">
        <ele>74.8</ele>
        <time>2025-10-26T13:27:04Z</time>
      </trkpt>
      <trkpt lat="43.50366" lon="6.67207">
        <ele>74.8</ele>
        <time>2025-10-26T13:27:05Z</time>
      </trkpt>
      <trkpt lat="43.50365" lon="6.67209">
        <ele>74.7</ele>
        <time>2025-10-26T13:27:06Z</time>
      </trkpt>
      <trkpt lat="43.50365" lon="6.67211">
        <ele>74.6</ele>
        <time>2025-10-26T13:27:07Z</time>
      </trkpt>
      <trkpt lat="43.50365" lon="6.67212">
        <ele>74.6</ele>
        <time>2025-10-26T13:27:08Z</time>
      </trkpt>
      <trkpt lat="43.50364" lon="6.67214">
        <ele>74.5</ele>
        <time>2025-10-26T13:27:09Z</time>
      </trkpt>
      <trkpt lat="43.50364" lon="6.67216">
        <ele>74.5</ele>
        <time>2025-10-26T13:27:10Z</time>
      </trkpt>
      <trkpt lat="43.50364" lon="6.67217">
        <ele>74.5</ele>
        <time>2025-10-26T13:27:11Z</time>
      </trkpt>
      <trkpt lat="43.50363" lon="6.67219">
        <ele>74.5</ele>
        <time>2025-10-26T13:27:12Z</time>
      </trkpt>
      <trkpt lat="43.50362" lon="6.6722">
        <ele>74.4</ele>
        <time>2025-10-26T13:27:13Z</time>
      </trkpt>
      <trkpt lat="43.50362" lon="6.67222">
        <ele>74.5</ele>
        <time>2025-10-26T13:27:14Z</time>
      </trkpt>
      <trkpt lat="43.50362" lon="6.67224">
        <ele>74.5</ele>
        <time>2025-10-26T13:27:15Z</time>
      </trkpt>
      <trkpt lat="43.50361" lon="6.67225">
        <ele>74.5</ele>
        <time>2025-10-26T13:27:16Z</time>
      </trkpt>
      <trkpt lat="43.50361" lon="6.67227">
        <ele>74.4</ele>
        <time>2025-10-26T13:27:17Z</time>
      </trkpt>
      <trkpt lat="43.5036" lon="6.67229">
        <ele>74.4</ele>
        <time>2025-10-26T13:27:18Z</time>
      </trkpt>
      <trkpt lat="43.5036" lon="6.6723">
        <ele>74.4</ele>
        <time>2025-10-26T13:27:19Z</time>
      </trkpt>
      <trkpt lat="43.50359" lon="6.67232">
        <ele>74.4</ele>
        <time>2025-10-26T13:27:20Z</time>
      </trkpt>
      <trkpt lat="43.50359" lon="6.67233">
        <ele>74.3</ele>
        <time>2025-10-26T13:27:21Z</time>
      </trkpt>
      <trkpt lat="43.50359" lon="6.67235">
        <ele>74.3</ele>
        <time>2025-10-26T13:27:22Z</time>
      </trkpt>
      <trkpt lat="43.50358" lon="6.67237">
        <ele>74.2</ele>
        <time>2025-10-26T13:27:23Z</time>
      </trkpt>
      <trkpt lat="43.50358" lon="6.67238">
        <ele>74.2</ele>
        <time>2025-10-26T13:27:24Z</time>
      </trkpt>
      <trkpt lat="43.50358" lon="6.6724">
        <ele>74.2</ele>
        <time>2025-10-26T13:27:25Z</time>
      </trkpt>
      <trkpt lat="43.50357" lon="6.67241">
        <ele>74.3</ele>
        <time>2025-10-26T13:27:26Z</time>
      </trkpt>
      <trkpt lat="43.50357" lon="6.67242">
        <ele>74.4</ele>
        <time>2025-10-26T13:27:27Z</time>
      </trkpt>
      <trkpt lat="43.50356" lon="6.67244">
        <ele>74.6</ele>
        <time>2025-10-26T13:27:28Z</time>
      </trkpt>
      <trkpt lat="43.50355" lon="6.67246">
        <ele>74.7</ele>
        <time>2025-10-26T13:27:29Z</time>
      </trkpt>
      <trkpt lat="43.50355" lon="6.67247">
        <ele>74.7</ele>
        <time>2025-10-26T13:27:30Z</time>
      </trkpt>
      <trkpt lat="43.50355" lon="6.67249">
        <ele>74.8</ele>
        <time>2025-10-26T13:27:31Z</time>
      </trkpt>
      <trkpt lat="43.50354" lon="6.6725">
        <ele>74.9</ele>
        <time>2025-10-26T13:27:32Z</time>
      </trkpt>
      <trkpt lat="43.50354" lon="6.67252">
        <ele>74.8</ele>
        <time>2025-10-26T13:27:33Z</time>
      </trkpt>
      <trkpt lat="43.50353" lon="6.67253">
        <ele>74.7</ele>
        <time>2025-10-26T13:27:34Z</time>
      </trkpt>
      <trkpt lat="43.50352" lon="6.67255">
        <ele>74.9</ele>
        <time>2025-10-26T13:27:35Z</time>
      </trkpt>
      <trkpt lat="43.50352" lon="6.67257">
        <ele>74.9</ele>
        <time>2025-10-26T13:27:36Z</time>
      </trkpt>
      <trkpt lat="43.50351" lon="6.67258">
        <ele>74.9</ele>
        <time>2025-10-26T13:27:37Z</time>
      </trkpt>
      <trkpt lat="43.50351" lon="6.67259">
        <ele>75</ele>
        <time>2025-10-26T13:27:38Z</time>
      </trkpt>
      <trkpt lat="43.5035" lon="6.67261">
        <ele>75</ele>
        <time>2025-10-26T13:27:39Z</time>
      </trkpt>
      <trkpt lat="43.5035" lon="6.67262">
        <ele>74.9</ele>
        <time>2025-10-26T13:27:40Z</time>
      </trkpt>
      <trkpt lat="43.50349" lon="6.67264">
        <ele>74.8</ele>
        <time>2025-10-26T13:27:41Z</time>
      </trkpt>
      <trkpt lat="43.50349" lon="6.67265">
        <ele>74.8</ele>
        <time>2025-10-26T13:27:42Z</time>
      </trkpt>
      <trkpt lat="43.50348" lon="6.67267">
        <ele>74.6</ele>
        <time>2025-10-26T13:27:43Z</time>
      </trkpt>
      <trkpt lat="43.50348" lon="6.67268">
        <ele>74.6</ele>
        <time>2025-10-26T13:27:44Z</time>
      </trkpt>
      <trkpt lat="43.50347" lon="6.6727">
        <ele>74.6</ele>
        <time>2025-10-26T13:27:45Z</time>
      </trkpt>
      <trkpt lat="43.50347" lon="6.67271">
        <ele>74.7</ele>
        <time>2025-10-26T13:27:46Z</time>
      </trkpt>
      <trkpt lat="43.50346" lon="6.67273">
        <ele>74.6</ele>
        <time>2025-10-26T13:27:47Z</time>
      </trkpt>
      <trkpt lat="43.50346" lon="6.67274">
        <ele>74.5</ele>
        <time>2025-10-26T13:27:48Z</time>
      </trkpt>
      <trkpt lat="43.50346" lon="6.67276">
        <ele>74.6</ele>
        <time>2025-10-26T13:27:49Z</time>
      </trkpt>
      <trkpt lat="43.50345" lon="6.67277">
        <ele>74.7</ele>
        <time>2025-10-26T13:27:50Z</time>
      </trkpt>
      <trkpt lat="43.50345" lon="6.67279">
        <ele>74.8</ele>
        <time>2025-10-26T13:27:51Z</time>
      </trkpt>
      <trkpt lat="43.50344" lon="6.6728">
        <ele>74.9</ele>
        <time>2025-10-26T13:27:52Z</time>
      </trkpt>
      <trkpt lat="43.50343" lon="6.67282">
        <ele>75</ele>
        <time>2025-10-26T13:27:53Z</time>
      </trkpt>
      <trkpt lat="43.50343" lon="6.67283">
        <ele>75.1</ele>
        <time>2025-10-26T13:27:54Z</time>
      </trkpt>
      <trkpt lat="43.50342" lon="6.67285">
        <ele>75.1</ele>
        <time>2025-10-26T13:27:55Z</time>
      </trkpt>
      <trkpt lat="43.50342" lon="6.67287">
        <ele>75.2</ele>
        <time>2025-10-26T13:27:56Z</time>
      </trkpt>
      <trkpt lat="43.50341" lon="6.67289">
        <ele>75.1</ele>
        <time>2025-10-26T13:27:57Z</time>
      </trkpt>
      <trkpt lat="43.50341" lon="6.6729">
        <ele>75.1</ele>
        <time>2025-10-26T13:27:58Z</time>
      </trkpt>
      <trkpt lat="43.5034" lon="6.67292">
        <ele>75</ele>
        <time>2025-10-26T13:27:59Z</time>
      </trkpt>
      <trkpt lat="43.50339" lon="6.67293">
        <ele>74.9</ele>
        <time>2025-10-26T13:28:00Z</time>
      </trkpt>
      <trkpt lat="43.50339" lon="6.67295">
        <ele>74.7</ele>
        <time>2025-10-26T13:28:01Z</time>
      </trkpt>
      <trkpt lat="43.50338" lon="6.67296">
        <ele>74.7</ele>
        <time>2025-10-26T13:28:02Z</time>
      </trkpt>
      <trkpt lat="43.50338" lon="6.67298">
        <ele>74.7</ele>
        <time>2025-10-26T13:28:03Z</time>
      </trkpt>
      <trkpt lat="43.50337" lon="6.67299">
        <ele>74.8</ele>
        <time>2025-10-26T13:28:04Z</time>
      </trkpt>
      <trkpt lat="43.50337" lon="6.67301">
        <ele>74.8</ele>
        <time>2025-10-26T13:28:05Z</time>
      </trkpt>
      <trkpt lat="43.50336" lon="6.67302">
        <ele>74.7</ele>
        <time>2025-10-26T13:28:06Z</time>
      </trkpt>
      <trkpt lat="43.50336" lon="6.67304">
        <ele>74.9</ele>
        <time>2025-10-26T13:28:07Z</time>
      </trkpt>
      <trkpt lat="43.50335" lon="6.67305">
        <ele>75.2</ele>
        <time>2025-10-26T13:28:08Z</time>
      </trkpt>
      <trkpt lat="43.50335" lon="6.67307">
        <ele>75.3</ele>
        <time>2025-10-26T13:28:09Z</time>
      </trkpt>
      <trkpt lat="43.50334" lon="6.67309">
        <ele>75.3</ele>
        <time>2025-10-26T13:28:10Z</time>
      </trkpt>
      <trkpt lat="43.50334" lon="6.6731">
        <ele>75.2</ele>
        <time>2025-10-26T13:28:11Z</time>
      </trkpt>
      <trkpt lat="43.50334" lon="6.67312">
        <ele>75.1</ele>
        <time>2025-10-26T13:28:12Z</time>
      </trkpt>
      <trkpt lat="43.50334" lon="6.67314">
        <ele>75.2</ele>
        <time>2025-10-26T13:28:13Z</time>
      </trkpt>
      <trkpt lat="43.50333" lon="6.67315">
        <ele>75.1</ele>
        <time>2025-10-26T13:28:14Z</time>
      </trkpt>
      <trkpt lat="43.50333" lon="6.67317">
        <ele>75</ele>
        <time>2025-10-26T13:28:15Z</time>
      </trkpt>
      <trkpt lat="43.50332" lon="6.67317">
        <ele>75.1</ele>
        <time>2025-10-26T13:28:16Z</time>
      </trkpt>
      <trkpt lat="43.50331" lon="6.67318">
        <ele>75.2</ele>
        <time>2025-10-26T13:28:17Z</time>
      </trkpt>
      <trkpt lat="43.50331" lon="6.6732">
        <ele>75.2</ele>
        <time>2025-10-26T13:28:18Z</time>
      </trkpt>
      <trkpt lat="43.5033" lon="6.67322">
        <ele>75.3</ele>
        <time>2025-10-26T13:28:19Z</time>
      </trkpt>
      <trkpt lat="43.5033" lon="6.67324">
        <ele>75.3</ele>
        <time>2025-10-26T13:28:20Z</time>
      </trkpt>
      <trkpt lat="43.50329" lon="6.67325">
        <ele>75.4</ele>
        <time>2025-10-26T13:28:21Z</time>
      </trkpt>
      <trkpt lat="43.50329" lon="6.67327">
        <ele>75.5</ele>
        <time>2025-10-26T13:28:22Z</time>
      </trkpt>
      <trkpt lat="43.50329" lon="6.67327">
        <ele>75.5</ele>
        <time>2025-10-26T13:28:23Z</time>
      </trkpt>
      <trkpt lat="43.50328" lon="6.67328">
        <ele>75.6</ele>
        <time>2025-10-26T13:28:24Z</time>
      </trkpt>
      <trkpt lat="43.50327" lon="6.67329">
        <ele>75.7</ele>
        <time>2025-10-26T13:28:25Z</time>
      </trkpt>
      <trkpt lat="43.50327" lon="6.67331">
        <ele>75.7</ele>
        <time>2025-10-26T13:28:26Z</time>
      </trkpt>
      <trkpt lat="43.50326" lon="6.67332">
        <ele>76</ele>
        <time>2025-10-26T13:28:27Z</time>
      </trkpt>
      <trkpt lat="43.50325" lon="6.67333">
        <ele>76.1</ele>
        <time>2025-10-26T13:28:28Z</time>
      </trkpt>
      <trkpt lat="43.50325" lon="6.67335">
        <ele>76.1</ele>
        <time>2025-10-26T13:28:29Z</time>
      </trkpt>
      <trkpt lat="43.50324" lon="6.67336">
        <ele>76.1</ele>
        <time>2025-10-26T13:28:30Z</time>
      </trkpt>
      <trkpt lat="43.50324" lon="6.67338">
        <ele>76.1</ele>
        <time>2025-10-26T13:28:31Z</time>
      </trkpt>
      <trkpt lat="43.50323" lon="6.6734">
        <ele>76.1</ele>
        <time>2025-10-26T13:28:32Z</time>
      </trkpt>
      <trkpt lat="43.50322" lon="6.67341">
        <ele>76.3</ele>
        <time>2025-10-26T13:28:33Z</time>
      </trkpt>
      <trkpt lat="43.50322" lon="6.67343">
        <ele>76.3</ele>
        <time>2025-10-26T13:28:34Z</time>
      </trkpt>
      <trkpt lat="43.50321" lon="6.67344">
        <ele>76.4</ele>
        <time>2025-10-26T13:28:35Z</time>
      </trkpt>
      <trkpt lat="43.5032" lon="6.67345">
        <ele>76.4</ele>
        <time>2025-10-26T13:28:36Z</time>
      </trkpt>
      <trkpt lat="43.50319" lon="6.67346">
        <ele>76.5</ele>
        <time>2025-10-26T13:28:37Z</time>
      </trkpt>
      <trkpt lat="43.50318" lon="6.67348">
        <ele>76.5</ele>
        <time>2025-10-26T13:28:38Z</time>
      </trkpt>
      <trkpt lat="43.50317" lon="6.67349">
        <ele>76.6</ele>
        <time>2025-10-26T13:28:39Z</time>
      </trkpt>
      <trkpt lat="43.50317" lon="6.67351">
        <ele>76.7</ele>
        <time>2025-10-26T13:28:40Z</time>
      </trkpt>
      <trkpt lat="43.50316" lon="6.67352">
        <ele>76.8</ele>
        <time>2025-10-26T13:28:41Z</time>
      </trkpt>
      <trkpt lat="43.50315" lon="6.67353">
        <ele>77</ele>
        <time>2025-10-26T13:28:42Z</time>
      </trkpt>
      <trkpt lat="43.50315" lon="6.67355">
        <ele>77.1</ele>
        <time>2025-10-26T13:28:43Z</time>
      </trkpt>
      <trkpt lat="43.50314" lon="6.67356">
        <ele>77.2</ele>
        <time>2025-10-26T13:28:44Z</time>
      </trkpt>
      <trkpt lat="43.50313" lon="6.67357">
        <ele>77.2</ele>
        <time>2025-10-26T13:28:45Z</time>
      </trkpt>
      <trkpt lat="43.50313" lon="6.67359">
        <ele>77.3</ele>
        <time>2025-10-26T13:28:46Z</time>
      </trkpt>
      <trkpt lat="43.50312" lon="6.6736">
        <ele>77.4</ele>
        <time>2025-10-26T13:28:47Z</time>
      </trkpt>
      <trkpt lat="43.50312" lon="6.67361">
        <ele>77.6</ele>
        <time>2025-10-26T13:28:48Z</time>
      </trkpt>
      <trkpt lat="43.50311" lon="6.67363">
        <ele>77.8</ele>
        <time>2025-10-26T13:28:49Z</time>
      </trkpt>
      <trkpt lat="43.5031" lon="6.67364">
        <ele>77.9</ele>
        <time>2025-10-26T13:28:50Z</time>
      </trkpt>
      <trkpt lat="43.50308" lon="6.67365">
        <ele>78</ele>
        <time>2025-10-26T13:28:51Z</time>
      </trkpt>
      <trkpt lat="43.50307" lon="6.67366">
        <ele>78.1</ele>
        <time>2025-10-26T13:28:52Z</time>
      </trkpt>
      <trkpt lat="43.50307" lon="6.67367">
        <ele>78.1</ele>
        <time>2025-10-26T13:28:53Z</time>
      </trkpt>
      <trkpt lat="43.50305" lon="6.67368">
        <ele>78</ele>
        <time>2025-10-26T13:28:54Z</time>
      </trkpt>
      <trkpt lat="43.50304" lon="6.67369">
        <ele>77.9</ele>
        <time>2025-10-26T13:28:55Z</time>
      </trkpt>
      <trkpt lat="43.50303" lon="6.6737">
        <ele>77.9</ele>
        <time>2025-10-26T13:28:56Z</time>
      </trkpt>
      <trkpt lat="43.50302" lon="6.67371">
        <ele>77.9</ele>
        <time>2025-10-26T13:28:57Z</time>
      </trkpt>
      <trkpt lat="43.50302" lon="6.67372">
        <ele>78</ele>
        <time>2025-10-26T13:28:58Z</time>
      </trkpt>
      <trkpt lat="43.50301" lon="6.67373">
        <ele>78.1</ele>
        <time>2025-10-26T13:28:59Z</time>
      </trkpt>
      <trkpt lat="43.503" lon="6.67374">
        <ele>78.4</ele>
        <time>2025-10-26T13:29:00Z</time>
      </trkpt>
      <trkpt lat="43.50299" lon="6.67375">
        <ele>78.6</ele>
        <time>2025-10-26T13:29:01Z</time>
      </trkpt>
      <trkpt lat="43.50299" lon="6.67376">
        <ele>78.9</ele>
        <time>2025-10-26T13:29:02Z</time>
      </trkpt>
      <trkpt lat="43.50298" lon="6.67376">
        <ele>79.2</ele>
        <time>2025-10-26T13:29:03Z</time>
      </trkpt>
      <trkpt lat="43.50297" lon="6.67377">
        <ele>79.3</ele>
        <time>2025-10-26T13:29:04Z</time>
      </trkpt>
      <trkpt lat="43.50296" lon="6.67378">
        <ele>79.3</ele>
        <time>2025-10-26T13:29:05Z</time>
      </trkpt>
      <trkpt lat="43.50296" lon="6.67379">
        <ele>79.5</ele>
        <time>2025-10-26T13:29:06Z</time>
      </trkpt>
      <trkpt lat="43.50295" lon="6.6738">
        <ele>79.6</ele>
        <time>2025-10-26T13:29:07Z</time>
      </trkpt>
      <trkpt lat="43.50294" lon="6.67381">
        <ele>79.6</ele>
        <time>2025-10-26T13:29:08Z</time>
      </trkpt>
      <trkpt lat="43.50293" lon="6.67382">
        <ele>79.7</ele>
        <time>2025-10-26T13:29:09Z</time>
      </trkpt>
      <trkpt lat="43.50292" lon="6.67382">
        <ele>79.7</ele>
        <time>2025-10-26T13:29:10Z</time>
      </trkpt>
      <trkpt lat="43.50291" lon="6.67383">
        <ele>79.7</ele>
        <time>2025-10-26T13:29:11Z</time>
      </trkpt>
      <trkpt lat="43.50291" lon="6.67384">
        <ele>79.7</ele>
        <time>2025-10-26T13:29:12Z</time>
      </trkpt>
      <trkpt lat="43.5029" lon="6.67385">
        <ele>79.9</ele>
        <time>2025-10-26T13:29:13Z</time>
      </trkpt>
      <trkpt lat="43.50289" lon="6.67386">
        <ele>80.1</ele>
        <time>2025-10-26T13:29:14Z</time>
      </trkpt>
      <trkpt lat="43.50288" lon="6.67387">
        <ele>80.2</ele>
        <time>2025-10-26T13:29:15Z</time>
      </trkpt>
      <trkpt lat="43.50287" lon="6.67388">
        <ele>80.4</ele>
        <time>2025-10-26T13:29:16Z</time>
      </trkpt>
      <trkpt lat="43.50286" lon="6.67388">
        <ele>80.5</ele>
        <time>2025-10-26T13:29:17Z</time>
      </trkpt>
      <trkpt lat="43.50286" lon="6.67389">
        <ele>80.7</ele>
        <time>2025-10-26T13:29:18Z</time>
      </trkpt>
      <trkpt lat="43.50285" lon="6.6739">
        <ele>80.9</ele>
        <time>2025-10-26T13:29:19Z</time>
      </trkpt>
      <trkpt lat="43.50283" lon="6.67391">
        <ele>81.1</ele>
        <time>2025-10-26T13:29:20Z</time>
      </trkpt>
      <trkpt lat="43.50282" lon="6.67392">
        <ele>81.3</ele>
        <time>2025-10-26T13:29:21Z</time>
      </trkpt>
      <trkpt lat="43.50282" lon="6.67393">
        <ele>81.4</ele>
        <time>2025-10-26T13:29:22Z</time>
      </trkpt>
      <trkpt lat="43.50281" lon="6.67393">
        <ele>81.5</ele>
        <time>2025-10-26T13:29:23Z</time>
      </trkpt>
      <trkpt lat="43.5028" lon="6.67394">
        <ele>81.6</ele>
        <time>2025-10-26T13:29:24Z</time>
      </trkpt>
      <trkpt lat="43.50278" lon="6.67395">
        <ele>81.5</ele>
        <time>2025-10-26T13:29:25Z</time>
      </trkpt>
      <trkpt lat="43.50277" lon="6.67395">
        <ele>81.5</ele>
        <time>2025-10-26T13:29:26Z</time>
      </trkpt>
      <trkpt lat="43.50276" lon="6.67396">
        <ele>81.4</ele>
        <time>2025-10-26T13:29:27Z</time>
      </trkpt>
      <trkpt lat="43.50276" lon="6.67397">
        <ele>81.2</ele>
        <time>2025-10-26T13:29:28Z</time>
      </trkpt>
      <trkpt lat="43.50274" lon="6.67398">
        <ele>81.1</ele>
        <time>2025-10-26T13:29:29Z</time>
      </trkpt>
      <trkpt lat="43.50273" lon="6.67399">
        <ele>81</ele>
        <time>2025-10-26T13:29:30Z</time>
      </trkpt>
      <trkpt lat="43.50273" lon="6.67399">
        <ele>81.1</ele>
        <time>2025-10-26T13:29:31Z</time>
      </trkpt>
      <trkpt lat="43.50272" lon="6.674">
        <ele>81.5</ele>
        <time>2025-10-26T13:29:32Z</time>
      </trkpt>
      <trkpt lat="43.50272" lon="6.67401">
        <ele>81.8</ele>
        <time>2025-10-26T13:29:33Z</time>
      </trkpt>
      <trkpt lat="43.50271" lon="6.67402">
        <ele>82.1</ele>
        <time>2025-10-26T13:29:34Z</time>
      </trkpt>
      <trkpt lat="43.5027" lon="6.67403">
        <ele>82.3</ele>
        <time>2025-10-26T13:29:35Z</time>
      </trkpt>
      <trkpt lat="43.50269" lon="6.67403">
        <ele>82.4</ele>
        <time>2025-10-26T13:29:36Z</time>
      </trkpt>
      <trkpt lat="43.50268" lon="6.67404">
        <ele>82.5</ele>
        <time>2025-10-26T13:29:37Z</time>
      </trkpt>
      <trkpt lat="43.50267" lon="6.67404">
        <ele>82.7</ele>
        <time>2025-10-26T13:29:38Z</time>
      </trkpt>
      <trkpt lat="43.50266" lon="6.67405">
        <ele>82.8</ele>
        <time>2025-10-26T13:29:39Z</time>
      </trkpt>
      <trkpt lat="43.50265" lon="6.67406">
        <ele>82.9</ele>
        <time>2025-10-26T13:29:40Z</time>
      </trkpt>
      <trkpt lat="43.50265" lon="6.67407">
        <ele>83.1</ele>
        <time>2025-10-26T13:29:41Z</time>
      </trkpt>
      <trkpt lat="43.50264" lon="6.67408">
        <ele>83.3</ele>
        <time>2025-10-26T13:29:42Z</time>
      </trkpt>
      <trkpt lat="43.50262" lon="6.67408">
        <ele>83.4</ele>
        <time>2025-10-26T13:29:43Z</time>
      </trkpt>
      <trkpt lat="43.50261" lon="6.67409">
        <ele>83.4</ele>
        <time>2025-10-26T13:29:44Z</time>
      </trkpt>
      <trkpt lat="43.5026" lon="6.67409">
        <ele>83.5</ele>
        <time>2025-10-26T13:29:45Z</time>
      </trkpt>
      <trkpt lat="43.50258" lon="6.6741">
        <ele>83.6</ele>
        <time>2025-10-26T13:29:46Z</time>
      </trkpt>
      <trkpt lat="43.50257" lon="6.67411">
        <ele>83.6</ele>
        <time>2025-10-26T13:29:47Z</time>
      </trkpt>
      <trkpt lat="43.50256" lon="6.67412">
        <ele>83.6</ele>
        <time>2025-10-26T13:29:48Z</time>
      </trkpt>
      <trkpt lat="43.50255" lon="6.67413">
        <ele>83.7</ele>
        <time>2025-10-26T13:29:49Z</time>
      </trkpt>
      <trkpt lat="43.50254" lon="6.67414">
        <ele>83.8</ele>
        <time>2025-10-26T13:29:50Z</time>
      </trkpt>
      <trkpt lat="43.50253" lon="6.67415">
        <ele>83.8</ele>
        <time>2025-10-26T13:29:51Z</time>
      </trkpt>
      <trkpt lat="43.50252" lon="6.67416">
        <ele>83.9</ele>
        <time>2025-10-26T13:29:52Z</time>
      </trkpt>
      <trkpt lat="43.50251" lon="6.67416">
        <ele>84</ele>
        <time>2025-10-26T13:29:53Z</time>
      </trkpt>
      <trkpt lat="43.50251" lon="6.67417">
        <ele>84.1</ele>
        <time>2025-10-26T13:29:54Z</time>
      </trkpt>
      <trkpt lat="43.5025" lon="6.67417">
        <ele>84.1</ele>
        <time>2025-10-26T13:29:55Z</time>
      </trkpt>
      <trkpt lat="43.5025" lon="6.67417">
        <ele>84.2</ele>
        <time>2025-10-26T13:29:56Z</time>
      </trkpt>
      <trkpt lat="43.50249" lon="6.67418">
        <ele>84.3</ele>
        <time>2025-10-26T13:29:57Z</time>
      </trkpt>
      <trkpt lat="43.50249" lon="6.67418">
        <ele>84.4</ele>
        <time>2025-10-26T13:29:58Z</time>
      </trkpt>
      <trkpt lat="43.50249" lon="6.67419">
        <ele>84.5</ele>
        <time>2025-10-26T13:29:59Z</time>
      </trkpt>
      <trkpt lat="43.50249" lon="6.67419">
        <ele>84.5</ele>
        <time>2025-10-26T13:30:00Z</time>
      </trkpt>
      <trkpt lat="43.50248" lon="6.67419">
        <ele>84.6</ele>
        <time>2025-10-26T13:30:01Z</time>
      </trkpt>
      <trkpt lat="43.50248" lon="6.6742">
        <ele>84.6</ele>
        <time>2025-10-26T13:30:02Z</time>
      </trkpt>
      <trkpt lat="43.50248" lon="6.6742">
        <ele>84.7</ele>
        <time>2025-10-26T13:30:03Z</time>
      </trkpt>
      <trkpt lat="43.50248" lon="6.6742">
        <ele>84.7</ele>
        <time>2025-10-26T13:30:04Z</time>
      </trkpt>
      <trkpt lat="43.50247" lon="6.6742">
        <ele>84.8</ele>
        <time>2025-10-26T13:30:05Z</time>
      </trkpt>
      <trkpt lat="43.50247" lon="6.67421">
        <ele>84.8</ele>
        <time>2025-10-26T13:30:06Z</time>
      </trkpt>
      <trkpt lat="43.50247" lon="6.67421">
        <ele>84.8</ele>
        <time>2025-10-26T13:30:07Z</time>
      </trkpt>
      <trkpt lat="43.50247" lon="6.67422">
        <ele>84.9</ele>
        <time>2025-10-26T13:30:08Z</time>
      </trkpt>
      <trkpt lat="43.50247" lon="6.67422">
        <ele>84.9</ele>
        <time>2025-10-26T13:30:09Z</time>
      </trkpt>
      <trkpt lat="43.50247" lon="6.67422">
        <ele>84.8</ele>
        <time>2025-10-26T13:30:10Z</time>
      </trkpt>
      <trkpt lat="43.50246" lon="6.67422">
        <ele>84.8</ele>
        <time>2025-10-26T13:30:11Z</time>
      </trkpt>
      <trkpt lat="43.50246" lon="6.67422">
        <ele>84.8</ele>
        <time>2025-10-26T13:30:12Z</time>
      </trkpt>
      <trkpt lat="43.50245" lon="6.67422">
        <ele>84.7</ele>
        <time>2025-10-26T13:30:13Z</time>
      </trkpt>
      <trkpt lat="43.50245" lon="6.67422">
        <ele>84.7</ele>
        <time>2025-10-26T13:30:14Z</time>
      </trkpt>
      <trkpt lat="43.50244" lon="6.67423">
        <ele>84.7</ele>
        <time>2025-10-26T13:30:15Z</time>
      </trkpt>
      <trkpt lat="43.50243" lon="6.67423">
        <ele>84.7</ele>
        <time>2025-10-26T13:30:16Z</time>
      </trkpt>
      <trkpt lat="43.50242" lon="6.67424">
        <ele>84.7</ele>
        <time>2025-10-26T13:30:17Z</time>
      </trkpt>
      <trkpt lat="43.50242" lon="6.67425">
        <ele>84.7</ele>
        <time>2025-10-26T13:30:18Z</time>
      </trkpt>
      <trkpt lat="43.50242" lon="6.67426">
        <ele>84.7</ele>
        <time>2025-10-26T13:30:19Z</time>
      </trkpt>
      <trkpt lat="43.50241" lon="6.67427">
        <ele>84.8</ele>
        <time>2025-10-26T13:30:20Z</time>
      </trkpt>
      <trkpt lat="43.5024" lon="6.67428">
        <ele>84.9</ele>
        <time>2025-10-26T13:30:21Z</time>
      </trkpt>
      <trkpt lat="43.5024" lon="6.67429">
        <ele>85</ele>
        <time>2025-10-26T13:30:22Z</time>
      </trkpt>
      <trkpt lat="43.50239" lon="6.6743">
        <ele>85.1</ele>
        <time>2025-10-26T13:30:23Z</time>
      </trkpt>
      <trkpt lat="43.50239" lon="6.6743">
        <ele>85.3</ele>
        <time>2025-10-26T13:30:24Z</time>
      </trkpt>
      <trkpt lat="43.50238" lon="6.67431">
        <ele>85.4</ele>
        <time>2025-10-26T13:30:25Z</time>
      </trkpt>
      <trkpt lat="43.50237" lon="6.67432">
        <ele>85.6</ele>
        <time>2025-10-26T13:30:26Z</time>
      </trkpt>
      <trkpt lat="43.50236" lon="6.67433">
        <ele>85.7</ele>
        <time>2025-10-26T13:30:27Z</time>
      </trkpt>
      <trkpt lat="43.50236" lon="6.67433">
        <ele>85.8</ele>
        <time>2025-10-26T13:30:28Z</time>
      </trkpt>
      <trkpt lat="43.50236" lon="6.67434">
        <ele>85.8</ele>
        <time>2025-10-26T13:30:29Z</time>
      </trkpt>
      <trkpt lat="43.50235" lon="6.67435">
        <ele>86</ele>
        <time>2025-10-26T13:30:30Z</time>
      </trkpt>
      <trkpt lat="43.50235" lon="6.67436">
        <ele>86.1</ele>
        <time>2025-10-26T13:30:31Z</time>
      </trkpt>
      <trkpt lat="43.50235" lon="6.67437">
        <ele>86.3</ele>
        <time>2025-10-26T13:30:32Z</time>
      </trkpt>
      <trkpt lat="43.50235" lon="6.67438">
        <ele>86.4</ele>
        <time>2025-10-26T13:30:33Z</time>
      </trkpt>
      <trkpt lat="43.50234" lon="6.67439">
        <ele>86.5</ele>
        <time>2025-10-26T13:30:34Z</time>
      </trkpt>
      <trkpt lat="43.50234" lon="6.6744">
        <ele>86.6</ele>
        <time>2025-10-26T13:30:35Z</time>
      </trkpt>
      <trkpt lat="43.50233" lon="6.67441">
        <ele>86.7</ele>
        <time>2025-10-26T13:30:36Z</time>
      </trkpt>
      <trkpt lat="43.50233" lon="6.67442">
        <ele>86.9</ele>
        <time>2025-10-26T13:30:37Z</time>
      </trkpt>
      <trkpt lat="43.50233" lon="6.67443">
        <ele>87.1</ele>
        <time>2025-10-26T13:30:38Z</time>
      </trkpt>
      <trkpt lat="43.50233" lon="6.67444">
        <ele>87.2</ele>
        <time>2025-10-26T13:30:39Z</time>
      </trkpt>
      <trkpt lat="43.50232" lon="6.67446">
        <ele>87.4</ele>
        <time>2025-10-26T13:30:40Z</time>
      </trkpt>
      <trkpt lat="43.50232" lon="6.67447">
        <ele>87.6</ele>
        <time>2025-10-26T13:30:41Z</time>
      </trkpt>
      <trkpt lat="43.50232" lon="6.67448">
        <ele>87.7</ele>
        <time>2025-10-26T13:30:42Z</time>
      </trkpt>
      <trkpt lat="43.50231" lon="6.67449">
        <ele>87.9</ele>
        <time>2025-10-26T13:30:43Z</time>
      </trkpt>
      <trkpt lat="43.5023" lon="6.67451">
        <ele>88.1</ele>
        <time>2025-10-26T13:30:44Z</time>
      </trkpt>
      <trkpt lat="43.5023" lon="6.67452">
        <ele>88.4</ele>
        <time>2025-10-26T13:30:45Z</time>
      </trkpt>
      <trkpt lat="43.5023" lon="6.67453">
        <ele>88.6</ele>
        <time>2025-10-26T13:30:46Z</time>
      </trkpt>
      <trkpt lat="43.50229" lon="6.67454">
        <ele>88.7</ele>
        <time>2025-10-26T13:30:47Z</time>
      </trkpt>
      <trkpt lat="43.50229" lon="6.67455">
        <ele>88.9</ele>
        <time>2025-10-26T13:30:48Z</time>
      </trkpt>
      <trkpt lat="43.50228" lon="6.67456">
        <ele>88.9</ele>
        <time>2025-10-26T13:30:49Z</time>
      </trkpt>
      <trkpt lat="43.50228" lon="6.67457">
        <ele>89</ele>
        <time>2025-10-26T13:30:50Z</time>
      </trkpt>
      <trkpt lat="43.50227" lon="6.67457">
        <ele>89.1</ele>
        <time>2025-10-26T13:30:51Z</time>
      </trkpt>
      <trkpt lat="43.50227" lon="6.67458">
        <ele>89.2</ele>
        <time>2025-10-26T13:30:52Z</time>
      </trkpt>
      <trkpt lat="43.50226" lon="6.67459">
        <ele>89.2</ele>
        <time>2025-10-26T13:30:53Z</time>
      </trkpt>
      <trkpt lat="43.50225" lon="6.67459">
        <ele>89.3</ele>
        <time>2025-10-26T13:30:54Z</time>
      </trkpt>
      <trkpt lat="43.50225" lon="6.6746">
        <ele>89.3</ele>
        <time>2025-10-26T13:30:55Z</time>
      </trkpt>
      <trkpt lat="43.50224" lon="6.6746">
        <ele>89.5</ele>
        <time>2025-10-26T13:30:56Z</time>
      </trkpt>
      <trkpt lat="43.50223" lon="6.6746">
        <ele>89.6</ele>
        <time>2025-10-26T13:30:57Z</time>
      </trkpt>
      <trkpt lat="43.50222" lon="6.67461">
        <ele>89.7</ele>
        <time>2025-10-26T13:30:58Z</time>
      </trkpt>
      <trkpt lat="43.50221" lon="6.67461">
        <ele>89.8</ele>
        <time>2025-10-26T13:30:59Z</time>
      </trkpt>
      <trkpt lat="43.5022" lon="6.67461">
        <ele>90.1</ele>
        <time>2025-10-26T13:31:00Z</time>
      </trkpt>
      <trkpt lat="43.50219" lon="6.67462">
        <ele>90.2</ele>
        <time>2025-10-26T13:31:01Z</time>
      </trkpt>
      <trkpt lat="43.50218" lon="6.67462">
        <ele>90.4</ele>
        <time>2025-10-26T13:31:02Z</time>
      </trkpt>
      <trkpt lat="43.50217" lon="6.67462">
        <ele>90.5</ele>
        <time>2025-10-26T13:31:03Z</time>
      </trkpt>
      <trkpt lat="43.50216" lon="6.67461">
        <ele>90.5</ele>
        <time>2025-10-26T13:31:04Z</time>
      </trkpt>
      <trkpt lat="43.50215" lon="6.67461">
        <ele>90.5</ele>
        <time>2025-10-26T13:31:05Z</time>
      </trkpt>
      <trkpt lat="43.50214" lon="6.67462">
        <ele>90.6</ele>
        <time>2025-10-26T13:31:06Z</time>
      </trkpt>
      <trkpt lat="43.50213" lon="6.67462">
        <ele>90.6</ele>
        <time>2025-10-26T13:31:07Z</time>
      </trkpt>
      <trkpt lat="43.50212" lon="6.67462">
        <ele>90.8</ele>
        <time>2025-10-26T13:31:08Z</time>
      </trkpt>
      <trkpt lat="43.50211" lon="6.67462">
        <ele>91</ele>
        <time>2025-10-26T13:31:09Z</time>
      </trkpt>
      <trkpt lat="43.50209" lon="6.67462">
        <ele>91.1</ele>
        <time>2025-10-26T13:31:10Z</time>
      </trkpt>
      <trkpt lat="43.50208" lon="6.67463">
        <ele>91.2</ele>
        <time>2025-10-26T13:31:11Z</time>
      </trkpt>
      <trkpt lat="43.50207" lon="6.67463">
        <ele>91.2</ele>
        <time>2025-10-26T13:31:12Z</time>
      </trkpt>
      <trkpt lat="43.50206" lon="6.67464">
        <ele>91.2</ele>
        <time>2025-10-26T13:31:13Z</time>
      </trkpt>
      <trkpt lat="43.50205" lon="6.67465">
        <ele>91.3</ele>
        <time>2025-10-26T13:31:14Z</time>
      </trkpt>
      <trkpt lat="43.50204" lon="6.67466">
        <ele>91.2</ele>
        <time>2025-10-26T13:31:15Z</time>
      </trkpt>
      <trkpt lat="43.50203" lon="6.67467">
        <ele>91.2</ele>
        <time>2025-10-26T13:31:16Z</time>
      </trkpt>
      <trkpt lat="43.50202" lon="6.67468">
        <ele>91.2</ele>
        <time>2025-10-26T13:31:17Z</time>
      </trkpt>
      <trkpt lat="43.50201" lon="6.67468">
        <ele>91.3</ele>
        <time>2025-10-26T13:31:18Z</time>
      </trkpt>
      <trkpt lat="43.502" lon="6.67469">
        <ele>91.3</ele>
        <time>2025-10-26T13:31:19Z</time>
      </trkpt>
      <trkpt lat="43.50199" lon="6.6747">
        <ele>91.4</ele>
        <time>2025-10-26T13:31:20Z</time>
      </trkpt>
      <trkpt lat="43.50198" lon="6.6747">
        <ele>91.5</ele>
        <time>2025-10-26T13:31:21Z</time>
      </trkpt>
      <trkpt lat="43.50197" lon="6.67471">
        <ele>91.6</ele>
        <time>2025-10-26T13:31:22Z</time>
      </trkpt>
      <trkpt lat="43.50196" lon="6.67471">
        <ele>91.7</ele>
        <time>2025-10-26T13:31:23Z</time>
      </trkpt>
      <trkpt lat="43.50195" lon="6.67472">
        <ele>91.8</ele>
        <time>2025-10-26T13:31:24Z</time>
      </trkpt>
      <trkpt lat="43.50194" lon="6.67473">
        <ele>92</ele>
        <time>2025-10-26T13:31:25Z</time>
      </trkpt>
      <trkpt lat="43.50193" lon="6.67473">
        <ele>92.1</ele>
        <time>2025-10-26T13:31:26Z</time>
      </trkpt>
      <trkpt lat="43.50192" lon="6.67474">
        <ele>92.2</ele>
        <time>2025-10-26T13:31:27Z</time>
      </trkpt>
      <trkpt lat="43.50191" lon="6.67474">
        <ele>92.3</ele>
        <time>2025-10-26T13:31:28Z</time>
      </trkpt>
      <trkpt lat="43.5019" lon="6.67474">
        <ele>92.4</ele>
        <time>2025-10-26T13:31:29Z</time>
      </trkpt>
      <trkpt lat="43.50189" lon="6.67475">
        <ele>92.5</ele>
        <time>2025-10-26T13:31:30Z</time>
      </trkpt>
      <trkpt lat="43.50188" lon="6.67476">
        <ele>92.7</ele>
        <time>2025-10-26T13:31:31Z</time>
      </trkpt>
      <trkpt lat="43.50187" lon="6.67476">
        <ele>92.7</ele>
        <time>2025-10-26T13:31:32Z</time>
      </trkpt>
      <trkpt lat="43.50187" lon="6.67477">
        <ele>92.7</ele>
        <time>2025-10-26T13:31:33Z</time>
      </trkpt>
      <trkpt lat="43.50186" lon="6.67477">
        <ele>92.8</ele>
        <time>2025-10-26T13:31:34Z</time>
      </trkpt>
      <trkpt lat="43.50185" lon="6.67477">
        <ele>92.9</ele>
        <time>2025-10-26T13:31:35Z</time>
      </trkpt>
      <trkpt lat="43.50184" lon="6.67478">
        <ele>92.9</ele>
        <time>2025-10-26T13:31:36Z</time>
      </trkpt>
      <trkpt lat="43.50183" lon="6.67478">
        <ele>93.1</ele>
        <time>2025-10-26T13:31:37Z</time>
      </trkpt>
      <trkpt lat="43.50182" lon="6.67479">
        <ele>93.3</ele>
        <time>2025-10-26T13:31:38Z</time>
      </trkpt>
      <trkpt lat="43.5018" lon="6.67479">
        <ele>93.4</ele>
        <time>2025-10-26T13:31:39Z</time>
      </trkpt>
      <trkpt lat="43.50179" lon="6.6748">
        <ele>93.6</ele>
        <time>2025-10-26T13:31:40Z</time>
      </trkpt>
      <trkpt lat="43.50178" lon="6.6748">
        <ele>93.8</ele>
        <time>2025-10-26T13:31:41Z</time>
      </trkpt>
      <trkpt lat="43.50177" lon="6.67481">
        <ele>93.9</ele>
        <time>2025-10-26T13:31:42Z</time>
      </trkpt>
      <trkpt lat="43.50176" lon="6.67481">
        <ele>94.1</ele>
        <time>2025-10-26T13:31:43Z</time>
      </trkpt>
      <trkpt lat="43.50175" lon="6.67481">
        <ele>94.3</ele>
        <time>2025-10-26T13:31:44Z</time>
      </trkpt>
      <trkpt lat="43.50174" lon="6.67482">
        <ele>94.5</ele>
        <time>2025-10-26T13:31:45Z</time>
      </trkpt>
      <trkpt lat="43.50173" lon="6.67482">
        <ele>94.7</ele>
        <time>2025-10-26T13:31:46Z</time>
      </trkpt>
      <trkpt lat="43.50172" lon="6.67483">
        <ele>94.8</ele>
        <time>2025-10-26T13:31:47Z</time>
      </trkpt>
      <trkpt lat="43.50171" lon="6.67483">
        <ele>95</ele>
        <time>2025-10-26T13:31:48Z</time>
      </trkpt>
      <trkpt lat="43.5017" lon="6.67483">
        <ele>95.1</ele>
        <time>2025-10-26T13:31:49Z</time>
      </trkpt>
      <trkpt lat="43.50168" lon="6.67484">
        <ele>95.3</ele>
        <time>2025-10-26T13:31:50Z</time>
      </trkpt>
      <trkpt lat="43.50167" lon="6.67484">
        <ele>95.5</ele>
        <time>2025-10-26T13:31:51Z</time>
      </trkpt>
      <trkpt lat="43.50166" lon="6.67485">
        <ele>95.6</ele>
        <time>2025-10-26T13:31:52Z</time>
      </trkpt>
      <trkpt lat="43.50165" lon="6.67486">
        <ele>95.8</ele>
        <time>2025-10-26T13:31:53Z</time>
      </trkpt>
      <trkpt lat="43.50164" lon="6.67486">
        <ele>95.7</ele>
        <time>2025-10-26T13:31:54Z</time>
      </trkpt>
      <trkpt lat="43.50163" lon="6.67487">
        <ele>95.7</ele>
        <time>2025-10-26T13:31:55Z</time>
      </trkpt>
      <trkpt lat="43.50163" lon="6.67488">
        <ele>95.8</ele>
        <time>2025-10-26T13:31:56Z</time>
      </trkpt>
      <trkpt lat="43.50162" lon="6.67489">
        <ele>95.8</ele>
        <time>2025-10-26T13:31:57Z</time>
      </trkpt>
      <trkpt lat="43.50161" lon="6.67489">
        <ele>95.8</ele>
        <time>2025-10-26T13:31:58Z</time>
      </trkpt>
      <trkpt lat="43.5016" lon="6.6749">
        <ele>95.7</ele>
        <time>2025-10-26T13:31:59Z</time>
      </trkpt>
      <trkpt lat="43.50158" lon="6.6749">
        <ele>95.7</ele>
        <time>2025-10-26T13:32:00Z</time>
      </trkpt>
      <trkpt lat="43.50158" lon="6.67491">
        <ele>95.6</ele>
        <time>2025-10-26T13:32:01Z</time>
      </trkpt>
      <trkpt lat="43.50157" lon="6.67492">
        <ele>95.7</ele>
        <time>2025-10-26T13:32:02Z</time>
      </trkpt>
      <trkpt lat="43.50156" lon="6.67493">
        <ele>95.7</ele>
        <time>2025-10-26T13:32:03Z</time>
      </trkpt>
      <trkpt lat="43.50155" lon="6.67493">
        <ele>95.6</ele>
        <time>2025-10-26T13:32:04Z</time>
      </trkpt>
      <trkpt lat="43.50153" lon="6.67494">
        <ele>95.8</ele>
        <time>2025-10-26T13:32:05Z</time>
      </trkpt>
      <trkpt lat="43.50152" lon="6.67494">
        <ele>95.8</ele>
        <time>2025-10-26T13:32:06Z</time>
      </trkpt>
      <trkpt lat="43.50151" lon="6.67494">
        <ele>95.8</ele>
        <time>2025-10-26T13:32:07Z</time>
      </trkpt>
      <trkpt lat="43.5015" lon="6.67495">
        <ele>95.8</ele>
        <time>2025-10-26T13:32:08Z</time>
      </trkpt>
      <trkpt lat="43.50149" lon="6.67495">
        <ele>95.8</ele>
        <time>2025-10-26T13:32:09Z</time>
      </trkpt>
      <trkpt lat="43.50148" lon="6.67496">
        <ele>95.9</ele>
        <time>2025-10-26T13:32:10Z</time>
      </trkpt>
      <trkpt lat="43.50147" lon="6.67497">
        <ele>96</ele>
        <time>2025-10-26T13:32:11Z</time>
      </trkpt>
      <trkpt lat="43.50146" lon="6.67497">
        <ele>96.1</ele>
        <time>2025-10-26T13:32:12Z</time>
      </trkpt>
      <trkpt lat="43.50145" lon="6.67498">
        <ele>96.2</ele>
        <time>2025-10-26T13:32:13Z</time>
      </trkpt>
      <trkpt lat="43.50144" lon="6.67498">
        <ele>96.3</ele>
        <time>2025-10-26T13:32:14Z</time>
      </trkpt>
      <trkpt lat="43.50143" lon="6.67499">
        <ele>96.4</ele>
        <time>2025-10-26T13:32:15Z</time>
      </trkpt>
      <trkpt lat="43.50142" lon="6.67499">
        <ele>96.4</ele>
        <time>2025-10-26T13:32:16Z</time>
      </trkpt>
      <trkpt lat="43.50141" lon="6.675">
        <ele>96.5</ele>
        <time>2025-10-26T13:32:17Z</time>
      </trkpt>
      <trkpt lat="43.5014" lon="6.675">
        <ele>96.4</ele>
        <time>2025-10-26T13:32:18Z</time>
      </trkpt>
      <trkpt lat="43.50139" lon="6.675">
        <ele>96.4</ele>
        <time>2025-10-26T13:32:19Z</time>
      </trkpt>
      <trkpt lat="43.50138" lon="6.675">
        <ele>96.5</ele>
        <time>2025-10-26T13:32:20Z</time>
      </trkpt>
      <trkpt lat="43.50137" lon="6.67501">
        <ele>96.6</ele>
        <time>2025-10-26T13:32:21Z</time>
      </trkpt>
      <trkpt lat="43.50136" lon="6.67501">
        <ele>96.7</ele>
        <time>2025-10-26T13:32:22Z</time>
      </trkpt>
      <trkpt lat="43.50135" lon="6.67501">
        <ele>96.8</ele>
        <time>2025-10-26T13:32:23Z</time>
      </trkpt>
      <trkpt lat="43.50135" lon="6.67501">
        <ele>96.9</ele>
        <time>2025-10-26T13:32:24Z</time>
      </trkpt>
      <trkpt lat="43.50134" lon="6.675">
        <ele>97</ele>
        <time>2025-10-26T13:32:25Z</time>
      </trkpt>
      <trkpt lat="43.50133" lon="6.675">
        <ele>97</ele>
        <time>2025-10-26T13:32:26Z</time>
      </trkpt>
      <trkpt lat="43.50133" lon="6.675">
        <ele>97</ele>
        <time>2025-10-26T13:32:27Z</time>
      </trkpt>
      <trkpt lat="43.50132" lon="6.675">
        <ele>97.1</ele>
        <time>2025-10-26T13:32:28Z</time>
      </trkpt>
      <trkpt lat="43.50131" lon="6.675">
        <ele>97</ele>
        <time>2025-10-26T13:32:29Z</time>
      </trkpt>
      <trkpt lat="43.50131" lon="6.675">
        <ele>97</ele>
        <time>2025-10-26T13:32:30Z</time>
      </trkpt>
      <trkpt lat="43.5013" lon="6.675">
        <ele>96.9</ele>
        <time>2025-10-26T13:32:31Z</time>
      </trkpt>
      <trkpt lat="43.50129" lon="6.675">
        <ele>96.9</ele>
        <time>2025-10-26T13:32:32Z</time>
      </trkpt>
      <trkpt lat="43.50129" lon="6.675">
        <ele>96.9</ele>
        <time>2025-10-26T13:32:33Z</time>
      </trkpt>
      <trkpt lat="43.50128" lon="6.67499">
        <ele>97</ele>
        <time>2025-10-26T13:32:34Z</time>
      </trkpt>
      <trkpt lat="43.50128" lon="6.67499">
        <ele>97</ele>
        <time>2025-10-26T13:32:35Z</time>
      </trkpt>
      <trkpt lat="43.50128" lon="6.675">
        <ele>96.9</ele>
        <time>2025-10-26T13:32:36Z</time>
      </trkpt>
      <trkpt lat="43.50127" lon="6.67501">
        <ele>97</ele>
        <time>2025-10-26T13:32:37Z</time>
      </trkpt>
      <trkpt lat="43.50127" lon="6.67501">
        <ele>97</ele>
        <time>2025-10-26T13:32:38Z</time>
      </trkpt>
      <trkpt lat="43.50127" lon="6.67502">
        <ele>97</ele>
        <time>2025-10-26T13:32:39Z</time>
      </trkpt>
      <trkpt lat="43.50127" lon="6.67502">
        <ele>97.1</ele>
        <time>2025-10-26T13:32:40Z</time>
      </trkpt>
      <trkpt lat="43.50126" lon="6.67502">
        <ele>97.1</ele>
        <time>2025-10-26T13:32:41Z</time>
      </trkpt>
      <trkpt lat="43.50126" lon="6.67503">
        <ele>97.2</ele>
        <time>2025-10-26T13:32:42Z</time>
      </trkpt>
      <trkpt lat="43.50126" lon="6.67503">
        <ele>97.2</ele>
        <time>2025-10-26T13:32:43Z</time>
      </trkpt>
      <trkpt lat="43.50125" lon="6.67503">
        <ele>97.2</ele>
        <time>2025-10-26T13:32:44Z</time>
      </trkpt>
      <trkpt lat="43.50125" lon="6.67503">
        <ele>97.3</ele>
        <time>2025-10-26T13:32:45Z</time>
      </trkpt>
      <trkpt lat="43.50125" lon="6.67503">
        <ele>97.3</ele>
        <time>2025-10-26T13:32:46Z</time>
      </trkpt>
      <trkpt lat="43.50125" lon="6.67503">
        <ele>97.3</ele>
        <time>2025-10-26T13:32:47Z</time>
      </trkpt>
      <trkpt lat="43.50124" lon="6.67503">
        <ele>97.3</ele>
        <time>2025-10-26T13:32:48Z</time>
      </trkpt>
      <trkpt lat="43.50124" lon="6.67503">
        <ele>97.3</ele>
        <time>2025-10-26T13:32:49Z</time>
      </trkpt>
      <trkpt lat="43.50124" lon="6.67504">
        <ele>97.3</ele>
        <time>2025-10-26T13:32:50Z</time>
      </trkpt>
      <trkpt lat="43.50124" lon="6.67504">
        <ele>97.2</ele>
        <time>2025-10-26T13:32:51Z</time>
      </trkpt>
      <trkpt lat="43.50124" lon="6.67504">
        <ele>97.2</ele>
        <time>2025-10-26T13:32:52Z</time>
      </trkpt>
      <trkpt lat="43.50124" lon="6.67504">
        <ele>97.2</ele>
        <time>2025-10-26T13:32:53Z</time>
      </trkpt>
      <trkpt lat="43.50124" lon="6.67504">
        <ele>97.1</ele>
        <time>2025-10-26T13:32:54Z</time>
      </trkpt>
      <trkpt lat="43.50124" lon="6.67505">
        <ele>97.1</ele>
        <time>2025-10-26T13:32:55Z</time>
      </trkpt>
      <trkpt lat="43.50124" lon="6.67505">
        <ele>97.1</ele>
        <time>2025-10-26T13:32:56Z</time>
      </trkpt>
      <trkpt lat="43.50124" lon="6.67504">
        <ele>97</ele>
        <time>2025-10-26T13:32:57Z</time>
      </trkpt>
      <trkpt lat="43.50124" lon="6.67504">
        <ele>97</ele>
        <time>2025-10-26T13:32:58Z</time>
      </trkpt>
      <trkpt lat="43.50124" lon="6.67505">
        <ele>97</ele>
        <time>2025-10-26T13:32:59Z</time>
      </trkpt>
      <trkpt lat="43.50123" lon="6.67505">
        <ele>97</ele>
        <time>2025-10-26T13:33:00Z</time>
      </trkpt>
      <trkpt lat="43.50123" lon="6.67505">
        <ele>97</ele>
        <time>2025-10-26T13:33:01Z</time>
      </trkpt>
      <trkpt lat="43.50123" lon="6.67505">
        <ele>97</ele>
        <time>2025-10-26T13:33:02Z</time>
      </trkpt>
      <trkpt lat="43.50123" lon="6.67505">
        <ele>97</ele>
        <time>2025-10-26T13:33:03Z</time>
      </trkpt>
      <trkpt lat="43.50123" lon="6.67505">
        <ele>97</ele>
        <time>2025-10-26T13:33:04Z</time>
      </trkpt>
      <trkpt lat="43.50123" lon="6.67505">
        <ele>97</ele>
        <time>2025-10-26T13:33:05Z</time>
      </trkpt>
      <trkpt lat="43.50123" lon="6.67505">
        <ele>97.1</ele>
        <time>2025-10-26T13:33:06Z</time>
      </trkpt>
      <trkpt lat="43.50123" lon="6.67505">
        <ele>97.1</ele>
        <time>2025-10-26T13:33:07Z</time>
      </trkpt>
      <trkpt lat="43.50123" lon="6.67505">
        <ele>97.1</ele>
        <time>2025-10-26T13:33:08Z</time>
      </trkpt>
      <trkpt lat="43.50123" lon="6.67505">
        <ele>97.1</ele>
        <time>2025-10-26T13:33:09Z</time>
      </trkpt>
      <trkpt lat="43.50124" lon="6.67506">
        <ele>97.1</ele>
        <time>2025-10-26T13:33:10Z</time>
      </trkpt>
      <trkpt lat="43.50124" lon="6.67506">
        <ele>97.2</ele>
        <time>2025-10-26T13:33:11Z</time>
      </trkpt>
      <trkpt lat="43.50124" lon="6.67506">
        <ele>97.2</ele>
        <time>2025-10-26T13:33:12Z</time>
      </trkpt>
      <trkpt lat="43.50124" lon="6.67506">
        <ele>97.3</ele>
        <time>2025-10-26T13:33:13Z</time>
      </trkpt>
      <trkpt lat="43.50124" lon="6.67506">
        <ele>97.4</ele>
        <time>2025-10-26T13:33:14Z</time>
      </trkpt>
      <trkpt lat="43.50124" lon="6.67506">
        <ele>97.4</ele>
        <time>2025-10-26T13:33:15Z</time>
      </trkpt>
      <trkpt lat="43.50123" lon="6.67506">
        <ele>97.4</ele>
        <time>2025-10-26T13:33:16Z</time>
      </trkpt>
      <trkpt lat="43.50123" lon="6.67506">
        <ele>97.5</ele>
        <time>2025-10-26T13:33:17Z</time>
      </trkpt>
      <trkpt lat="43.50123" lon="6.67506">
        <ele>97.5</ele>
        <time>2025-10-26T13:33:18Z</time>
      </trkpt>
      <trkpt lat="43.50123" lon="6.67506">
        <ele>97.5</ele>
        <time>2025-10-26T13:33:19Z</time>
      </trkpt>
      <trkpt lat="43.50123" lon="6.67506">
        <ele>97.6</ele>
        <time>2025-10-26T13:33:20Z</time>
      </trkpt>
      <trkpt lat="43.50123" lon="6.67506">
        <ele>97.6</ele>
        <time>2025-10-26T13:33:21Z</time>
      </trkpt>
      <trkpt lat="43.50123" lon="6.67506">
        <ele>97.6</ele>
        <time>2025-10-26T13:33:22Z</time>
      </trkpt>
      <trkpt lat="43.50123" lon="6.67506">
        <ele>97.6</ele>
        <time>2025-10-26T13:33:23Z</time>
      </trkpt>
      <trkpt lat="43.50123" lon="6.67506">
        <ele>97.6</ele>
        <time>2025-10-26T13:33:24Z</time>
      </trkpt>
      <trkpt lat="43.50123" lon="6.67506">
        <ele>97.6</ele>
        <time>2025-10-26T13:33:25Z</time>
      </trkpt>
      <trkpt lat="43.50123" lon="6.67506">
        <ele>97.6</ele>
        <time>2025-10-26T13:33:26Z</time>
      </trkpt>
      <trkpt lat="43.50123" lon="6.67506">
        <ele>97.5</ele>
        <time>2025-10-26T13:33:27Z</time>
      </trkpt>
      <trkpt lat="43.50123" lon="6.67506">
        <ele>97.4</ele>
        <time>2025-10-26T13:33:28Z</time>
      </trkpt>
      <trkpt lat="43.50123" lon="6.67506">
        <ele>97.4</ele>
        <time>2025-10-26T13:33:29Z</time>
      </trkpt>
      <trkpt lat="43.50123" lon="6.67506">
        <ele>97.4</ele>
        <time>2025-10-26T13:33:30Z</time>
      </trkpt>
      <trkpt lat="43.50123" lon="6.67506">
        <ele>97.3</ele>
        <time>2025-10-26T13:33:31Z</time>
      </trkpt>
      <trkpt lat="43.50123" lon="6.67506">
        <ele>97.3</ele>
        <time>2025-10-26T13:33:32Z</time>
      </trkpt>
      <trkpt lat="43.50123" lon="6.67506">
        <ele>97.3</ele>
        <time>2025-10-26T13:33:33Z</time>
      </trkpt>
      <trkpt lat="43.50123" lon="6.67506">
        <ele>97.3</ele>
        <time>2025-10-26T13:33:34Z</time>
      </trkpt>
      <trkpt lat="43.50123" lon="6.67506">
        <ele>97.3</ele>
        <time>2025-10-26T13:33:35Z</time>
      </trkpt>
      <trkpt lat="43.50123" lon="6.67506">
        <ele>97.3</ele>
        <time>2025-10-26T13:33:36Z</time>
      </trkpt>
      <trkpt lat="43.50123" lon="6.67506">
        <ele>97.4</ele>
        <time>2025-10-26T13:33:37Z</time>
      </trkpt>
      <trkpt lat="43.50123" lon="6.67506">
        <ele>97.3</ele>
        <time>2025-10-26T13:33:38Z</time>
      </trkpt>
      <trkpt lat="43.50123" lon="6.67506">
        <ele>97.4</ele>
        <time>2025-10-26T13:33:39Z</time>
      </trkpt>
      <trkpt lat="43.50123" lon="6.67506">
        <ele>97.4</ele>
        <time>2025-10-26T13:33:40Z</time>
      </trkpt>
      <trkpt lat="43.50123" lon="6.67506">
        <ele>97.4</ele>
        <time>2025-10-26T13:33:41Z</time>
      </trkpt>
      <trkpt lat="43.50123" lon="6.67505">
        <ele>97.5</ele>
        <time>2025-10-26T13:33:42Z</time>
      </trkpt>
      <trkpt lat="43.50123" lon="6.67505">
        <ele>97.5</ele>
        <time>2025-10-26T13:33:43Z</time>
      </trkpt>
      <trkpt lat="43.50123" lon="6.67505">
        <ele>97.5</ele>
        <time>2025-10-26T13:33:44Z</time>
      </trkpt>
      <trkpt lat="43.50123" lon="6.67505">
        <ele>97.5</ele>
        <time>2025-10-26T13:33:45Z</time>
      </trkpt>
      <trkpt lat="43.50123" lon="6.67505">
        <ele>97.6</ele>
        <time>2025-10-26T13:33:46Z</time>
      </trkpt>
      <trkpt lat="43.50123" lon="6.67505">
        <ele>97.7</ele>
        <time>2025-10-26T13:33:47Z</time>
      </trkpt>
      <trkpt lat="43.50123" lon="6.67505">
        <ele>97.7</ele>
        <time>2025-10-26T13:33:48Z</time>
      </trkpt>
      <trkpt lat="43.50123" lon="6.67505">
        <ele>97.8</ele>
        <time>2025-10-26T13:33:49Z</time>
      </trkpt>
      <trkpt lat="43.50123" lon="6.67505">
        <ele>97.9</ele>
        <time>2025-10-26T13:33:50Z</time>
      </trkpt>
      <trkpt lat="43.50123" lon="6.67505">
        <ele>97.9</ele>
        <time>2025-10-26T13:33:51Z</time>
      </trkpt>
      <trkpt lat="43.50123" lon="6.67505">
        <ele>97.9</ele>
        <time>2025-10-26T13:33:52Z</time>
      </trkpt>
      <trkpt lat="43.50123" lon="6.67505">
        <ele>97.9</ele>
        <time>2025-10-26T13:33:53Z</time>
      </trkpt>
      <trkpt lat="43.50123" lon="6.67505">
        <ele>97.8</ele>
        <time>2025-10-26T13:33:54Z</time>
      </trkpt>
      <trkpt lat="43.50123" lon="6.67505">
        <ele>97.7</ele>
        <time>2025-10-26T13:33:55Z</time>
      </trkpt>
      <trkpt lat="43.50123" lon="6.67505">
        <ele>97.6</ele>
        <time>2025-10-26T13:33:56Z</time>
      </trkpt>
      <trkpt lat="43.50123" lon="6.67505">
        <ele>97.6</ele>
        <time>2025-10-26T13:33:57Z</time>
      </trkpt>
      <trkpt lat="43.50123" lon="6.67505">
        <ele>97.6</ele>
        <time>2025-10-26T13:33:58Z</time>
      </trkpt>
      <trkpt lat="43.50122" lon="6.67505">
        <ele>97.6</ele>
        <time>2025-10-26T13:33:59Z</time>
      </trkpt>
      <trkpt lat="43.50122" lon="6.67505">
        <ele>97.6</ele>
        <time>2025-10-26T13:34:00Z</time>
      </trkpt>
      <trkpt lat="43.50122" lon="6.67505">
        <ele>97.6</ele>
        <time>2025-10-26T13:34:01Z</time>
      </trkpt>
      <trkpt lat="43.50122" lon="6.67505">
        <ele>97.6</ele>
        <time>2025-10-26T13:34:02Z</time>
      </trkpt>
      <trkpt lat="43.50122" lon="6.67505">
        <ele>97.5</ele>
        <time>2025-10-26T13:34:03Z</time>
      </trkpt>
      <trkpt lat="43.50122" lon="6.67505">
        <ele>97.5</ele>
        <time>2025-10-26T13:34:04Z</time>
      </trkpt>
      <trkpt lat="43.50122" lon="6.67505">
        <ele>97.5</ele>
        <time>2025-10-26T13:34:05Z</time>
      </trkpt>
      <trkpt lat="43.50122" lon="6.67505">
        <ele>97.5</ele>
        <time>2025-10-26T13:34:06Z</time>
      </trkpt>
      <trkpt lat="43.50122" lon="6.67505">
        <ele>97.5</ele>
        <time>2025-10-26T13:34:07Z</time>
      </trkpt>
      <trkpt lat="43.50122" lon="6.67505">
        <ele>97.6</ele>
        <time>2025-10-26T13:34:08Z</time>
      </trkpt>
      <trkpt lat="43.50122" lon="6.67505">
        <ele>97.6</ele>
        <time>2025-10-26T13:34:09Z</time>
      </trkpt>
      <trkpt lat="43.50122" lon="6.67505">
        <ele>97.6</ele>
        <time>2025-10-26T13:34:10Z</time>
      </trkpt>
      <trkpt lat="43.50122" lon="6.67505">
        <ele>97.6</ele>
        <time>2025-10-26T13:34:11Z</time>
      </trkpt>
      <trkpt lat="43.50122" lon="6.67505">
        <ele>97.6</ele>
        <time>2025-10-26T13:34:12Z</time>
      </trkpt>
      <trkpt lat="43.50122" lon="6.67505">
        <ele>97.6</ele>
        <time>2025-10-26T13:34:13Z</time>
      </trkpt>
      <trkpt lat="43.50122" lon="6.67505">
        <ele>97.6</ele>
        <time>2025-10-26T13:34:14Z</time>
      </trkpt>
      <trkpt lat="43.50122" lon="6.67505">
        <ele>97.5</ele>
        <time>2025-10-26T13:34:15Z</time>
      </trkpt>
      <trkpt lat="43.50122" lon="6.67505">
        <ele>97.4</ele>
        <time>2025-10-26T13:34:16Z</time>
      </trkpt>
      <trkpt lat="43.50122" lon="6.67505">
        <ele>97.4</ele>
        <time>2025-10-26T13:34:17Z</time>
      </trkpt>
      <trkpt lat="43.50122" lon="6.67506">
        <ele>97.7</ele>
        <time>2025-10-26T13:34:18Z</time>
      </trkpt>
      <trkpt lat="43.50122" lon="6.67506">
        <ele>97.9</ele>
        <time>2025-10-26T13:34:19Z</time>
      </trkpt>
      <trkpt lat="43.50122" lon="6.67506">
        <ele>98.1</ele>
        <time>2025-10-26T13:34:20Z</time>
      </trkpt>
      <trkpt lat="43.50122" lon="6.67506">
        <ele>98.1</ele>
        <time>2025-10-26T13:34:21Z</time>
      </trkpt>
      <trkpt lat="43.50122" lon="6.67506">
        <ele>98.2</ele>
        <time>2025-10-26T13:34:22Z</time>
      </trkpt>
      <trkpt lat="43.50122" lon="6.67506">
        <ele>98.1</ele>
        <time>2025-10-26T13:34:23Z</time>
      </trkpt>
      <trkpt lat="43.50122" lon="6.67506">
        <ele>98.2</ele>
        <time>2025-10-26T13:34:24Z</time>
      </trkpt>
      <trkpt lat="43.50122" lon="6.67506">
        <ele>98.2</ele>
        <time>2025-10-26T13:34:25Z</time>
      </trkpt>
      <trkpt lat="43.50122" lon="6.67506">
        <ele>98.2</ele>
        <time>2025-10-26T13:34:26Z</time>
      </trkpt>
      <trkpt lat="43.50122" lon="6.67506">
        <ele>98.2</ele>
        <time>2025-10-26T13:34:27Z</time>
      </trkpt>
      <trkpt lat="43.50122" lon="6.67506">
        <ele>98.5</ele>
        <time>2025-10-26T13:34:28Z</time>
      </trkpt>
      <trkpt lat="43.50122" lon="6.67506">
        <ele>98.6</ele>
        <time>2025-10-26T13:34:29Z</time>
      </trkpt>
      <trkpt lat="43.50122" lon="6.67506">
        <ele>98.6</ele>
        <time>2025-10-26T13:34:30Z</time>
      </trkpt>
      <trkpt lat="43.50122" lon="6.67507">
        <ele>98.7</ele>
        <time>2025-10-26T13:34:31Z</time>
      </trkpt>
      <trkpt lat="43.50122" lon="6.67507">
        <ele>98.5</ele>
        <time>2025-10-26T13:34:32Z</time>
      </trkpt>
      <trkpt lat="43.50121" lon="6.67507">
        <ele>98.4</ele>
        <time>2025-10-26T13:34:33Z</time>
      </trkpt>
      <trkpt lat="43.50121" lon="6.67507">
        <ele>98.2</ele>
        <time>2025-10-26T13:34:34Z</time>
      </trkpt>
      <trkpt lat="43.50121" lon="6.67507">
        <ele>98</ele>
        <time>2025-10-26T13:34:35Z</time>
      </trkpt>
      <trkpt lat="43.50121" lon="6.67507">
        <ele>98.2</ele>
        <time>2025-10-26T13:34:36Z</time>
      </trkpt>
      <trkpt lat="43.50121" lon="6.67507">
        <ele>98.4</ele>
        <time>2025-10-26T13:34:37Z</time>
      </trkpt>
      <trkpt lat="43.50121" lon="6.67507">
        <ele>98.4</ele>
        <time>2025-10-26T13:34:38Z</time>
      </trkpt>
      <trkpt lat="43.50121" lon="6.67507">
        <ele>98.2</ele>
        <time>2025-10-26T13:34:39Z</time>
      </trkpt>
      <trkpt lat="43.50121" lon="6.67507">
        <ele>98</ele>
        <time>2025-10-26T13:34:40Z</time>
      </trkpt>
      <trkpt lat="43.50121" lon="6.67507">
        <ele>98.1</ele>
        <time>2025-10-26T13:34:41Z</time>
      </trkpt>
      <trkpt lat="43.50121" lon="6.67507">
        <ele>98.1</ele>
        <time>2025-10-26T13:34:42Z</time>
      </trkpt>
      <trkpt lat="43.50121" lon="6.67508">
        <ele>98</ele>
        <time>2025-10-26T13:34:43Z</time>
      </trkpt>
      <trkpt lat="43.50121" lon="6.67508">
        <ele>97.9</ele>
        <time>2025-10-26T13:34:44Z</time>
      </trkpt>
      <trkpt lat="43.50121" lon="6.67508">
        <ele>97.9</ele>
        <time>2025-10-26T13:34:45Z</time>
      </trkpt>
      <trkpt lat="43.50121" lon="6.67508">
        <ele>97.9</ele>
        <time>2025-10-26T13:34:46Z</time>
      </trkpt>
      <trkpt lat="43.50121" lon="6.67508">
        <ele>98.2</ele>
        <time>2025-10-26T13:34:47Z</time>
      </trkpt>
      <trkpt lat="43.50121" lon="6.67507">
        <ele>98.2</ele>
        <time>2025-10-26T13:34:48Z</time>
      </trkpt>
      <trkpt lat="43.50122" lon="6.67507">
        <ele>98.2</ele>
        <time>2025-10-26T13:34:49Z</time>
      </trkpt>
      <trkpt lat="43.50121" lon="6.67508">
        <ele>98.1</ele>
        <time>2025-10-26T13:34:50Z</time>
      </trkpt>
      <trkpt lat="43.50121" lon="6.67508">
        <ele>97.9</ele>
        <time>2025-10-26T13:34:51Z</time>
      </trkpt>
      <trkpt lat="43.50122" lon="6.67509">
        <ele>97.8</ele>
        <time>2025-10-26T13:34:52Z</time>
      </trkpt>
      <trkpt lat="43.50122" lon="6.67509">
        <ele>97.7</ele>
        <time>2025-10-26T13:34:53Z</time>
      </trkpt>
      <trkpt lat="43.50122" lon="6.67509">
        <ele>97.7</ele>
        <time>2025-10-26T13:34:54Z</time>
      </trkpt>
      <trkpt lat="43.50122" lon="6.67509">
        <ele>97.6</ele>
        <time>2025-10-26T13:34:55Z</time>
      </trkpt>
      <trkpt lat="43.50121" lon="6.67508">
        <ele>97.6</ele>
        <time>2025-10-26T13:34:56Z</time>
      </trkpt>
      <trkpt lat="43.50121" lon="6.67508">
        <ele>97.5</ele>
        <time>2025-10-26T13:34:57Z</time>
      </trkpt>
      <trkpt lat="43.50121" lon="6.67508">
        <ele>97.5</ele>
        <time>2025-10-26T13:34:58Z</time>
      </trkpt>
      <trkpt lat="43.50121" lon="6.67508">
        <ele>97.5</ele>
        <time>2025-10-26T13:34:59Z</time>
      </trkpt>
      <trkpt lat="43.50121" lon="6.67508">
        <ele>97.5</ele>
        <time>2025-10-26T13:35:00Z</time>
      </trkpt>
      <trkpt lat="43.50121" lon="6.67508">
        <ele>97.5</ele>
        <time>2025-10-26T13:35:01Z</time>
      </trkpt>
      <trkpt lat="43.50122" lon="6.67508">
        <ele>97.5</ele>
        <time>2025-10-26T13:35:02Z</time>
      </trkpt>
      <trkpt lat="43.50122" lon="6.67508">
        <ele>97.6</ele>
        <time>2025-10-26T13:35:03Z</time>
      </trkpt>
      <trkpt lat="43.50122" lon="6.67508">
        <ele>97.8</ele>
        <time>2025-10-26T13:35:04Z</time>
      </trkpt>
      <trkpt lat="43.50122" lon="6.67508">
        <ele>97.9</ele>
        <time>2025-10-26T13:35:05Z</time>
      </trkpt>
      <trkpt lat="43.50122" lon="6.67508">
        <ele>97.9</ele>
        <time>2025-10-26T13:35:06Z</time>
      </trkpt>
      <trkpt lat="43.50122" lon="6.67508">
        <ele>98</ele>
        <time>2025-10-26T13:35:07Z</time>
      </trkpt>
      <trkpt lat="43.50122" lon="6.67508">
        <ele>97.9</ele>
        <time>2025-10-26T13:35:08Z</time>
      </trkpt>
      <trkpt lat="43.50122" lon="6.67508">
        <ele>97.7</ele>
        <time>2025-10-26T13:35:09Z</time>
      </trkpt>
      <trkpt lat="43.50122" lon="6.67508">
        <ele>97.8</ele>
        <time>2025-10-26T13:35:10Z</time>
      </trkpt>
      <trkpt lat="43.50122" lon="6.67508">
        <ele>97.7</ele>
        <time>2025-10-26T13:35:11Z</time>
      </trkpt>
      <trkpt lat="43.50122" lon="6.67508">
        <ele>97.4</ele>
        <time>2025-10-26T13:35:12Z</time>
      </trkpt>
      <trkpt lat="43.50122" lon="6.67508">
        <ele>97.2</ele>
        <time>2025-10-26T13:35:13Z</time>
      </trkpt>
      <trkpt lat="43.50122" lon="6.67508">
        <ele>97</ele>
        <time>2025-10-26T13:35:14Z</time>
      </trkpt>
      <trkpt lat="43.50122" lon="6.67508">
        <ele>96.9</ele>
        <time>2025-10-26T13:35:15Z</time>
      </trkpt>
      <trkpt lat="43.50122" lon="6.67508">
        <ele>96.9</ele>
        <time>2025-10-26T13:35:16Z</time>
      </trkpt>
      <trkpt lat="43.50122" lon="6.67508">
        <ele>97</ele>
        <time>2025-10-26T13:35:17Z</time>
      </trkpt>
      <trkpt lat="43.50122" lon="6.67508">
        <ele>97.1</ele>
        <time>2025-10-26T13:35:18Z</time>
      </trkpt>
      <trkpt lat="43.50122" lon="6.67509">
        <ele>97.1</ele>
        <time>2025-10-26T13:35:19Z</time>
      </trkpt>
      <trkpt lat="43.50122" lon="6.67509">
        <ele>97.2</ele>
        <time>2025-10-26T13:35:20Z</time>
      </trkpt>
      <trkpt lat="43.50122" lon="6.67509">
        <ele>97.3</ele>
        <time>2025-10-26T13:35:21Z</time>
      </trkpt>
      <trkpt lat="43.50122" lon="6.67509">
        <ele>97.4</ele>
        <time>2025-10-26T13:35:22Z</time>
      </trkpt>
      <trkpt lat="43.50122" lon="6.67508">
        <ele>97.4</ele>
        <time>2025-10-26T13:35:23Z</time>
      </trkpt>
      <trkpt lat="43.50122" lon="6.67508">
        <ele>97.4</ele>
        <time>2025-10-26T13:35:24Z</time>
      </trkpt>
      <trkpt lat="43.50122" lon="6.67509">
        <ele>97.4</ele>
        <time>2025-10-26T13:35:25Z</time>
      </trkpt>
      <trkpt lat="43.50122" lon="6.67509">
        <ele>97.3</ele>
        <time>2025-10-26T13:35:26Z</time>
      </trkpt>
      <trkpt lat="43.50122" lon="6.67509">
        <ele>97.3</ele>
        <time>2025-10-26T13:35:27Z</time>
      </trkpt>
      <trkpt lat="43.50122" lon="6.67509">
        <ele>97.5</ele>
        <time>2025-10-26T13:35:28Z</time>
      </trkpt>
      <trkpt lat="43.50122" lon="6.67509">
        <ele>97.6</ele>
        <time>2025-10-26T13:35:29Z</time>
      </trkpt>
      <trkpt lat="43.50122" lon="6.67509">
        <ele>97.6</ele>
        <time>2025-10-26T13:35:30Z</time>
      </trkpt>
      <trkpt lat="43.50122" lon="6.67509">
        <ele>97.6</ele>
        <time>2025-10-26T13:35:31Z</time>
      </trkpt>
      <trkpt lat="43.50122" lon="6.67509">
        <ele>97.6</ele>
        <time>2025-10-26T13:35:32Z</time>
      </trkpt>
      <trkpt lat="43.50122" lon="6.67509">
        <ele>97.5</ele>
        <time>2025-10-26T13:35:33Z</time>
      </trkpt>
      <trkpt lat="43.50122" lon="6.67509">
        <ele>97.4</ele>
        <time>2025-10-26T13:35:34Z</time>
      </trkpt>
      <trkpt lat="43.50122" lon="6.67509">
        <ele>97.4</ele>
        <time>2025-10-26T13:35:35Z</time>
      </trkpt>
      <trkpt lat="43.50122" lon="6.67509">
        <ele>97.5</ele>
        <time>2025-10-26T13:35:36Z</time>
      </trkpt>
      <trkpt lat="43.50122" lon="6.67509">
        <ele>97.5</ele>
        <time>2025-10-26T13:35:37Z</time>
      </trkpt>
      <trkpt lat="43.50122" lon="6.67509">
        <ele>97.6</ele>
        <time>2025-10-26T13:35:38Z</time>
      </trkpt>
      <trkpt lat="43.50122" lon="6.67509">
        <ele>97.6</ele>
        <time>2025-10-26T13:35:39Z</time>
      </trkpt>
      <trkpt lat="43.50122" lon="6.67509">
        <ele>97.8</ele>
        <time>2025-10-26T13:35:40Z</time>
      </trkpt>
      <trkpt lat="43.50123" lon="6.67508">
        <ele>97.9</ele>
        <time>2025-10-26T13:35:41Z</time>
      </trkpt>
      <trkpt lat="43.50123" lon="6.67508">
        <ele>97.9</ele>
        <time>2025-10-26T13:35:42Z</time>
      </trkpt>
      <trkpt lat="43.50123" lon="6.67508">
        <ele>97.9</ele>
        <time>2025-10-26T13:35:43Z</time>
      </trkpt>
      <trkpt lat="43.50123" lon="6.67508">
        <ele>97.8</ele>
        <time>2025-10-26T13:35:44Z</time>
      </trkpt>
      <trkpt lat="43.50123" lon="6.67508">
        <ele>97.8</ele>
        <time>2025-10-26T13:35:45Z</time>
      </trkpt>
      <trkpt lat="43.50123" lon="6.67508">
        <ele>97.7</ele>
        <time>2025-10-26T13:35:46Z</time>
      </trkpt>
      <trkpt lat="43.50123" lon="6.67508">
        <ele>97.7</ele>
        <time>2025-10-26T13:35:47Z</time>
      </trkpt>
      <trkpt lat="43.50124" lon="6.67508">
        <ele>97.6</ele>
        <time>2025-10-26T13:35:48Z</time>
      </trkpt>
      <trkpt lat="43.50124" lon="6.67508">
        <ele>97.6</ele>
        <time>2025-10-26T13:35:49Z</time>
      </trkpt>
      <trkpt lat="43.50124" lon="6.67508">
        <ele>97.6</ele>
        <time>2025-10-26T13:35:50Z</time>
      </trkpt>
      <trkpt lat="43.50124" lon="6.67508">
        <ele>97.5</ele>
        <time>2025-10-26T13:35:51Z</time>
      </trkpt>
      <trkpt lat="43.50124" lon="6.67508">
        <ele>97.5</ele>
        <time>2025-10-26T13:35:52Z</time>
      </trkpt>
      <trkpt lat="43.50124" lon="6.67508">
        <ele>97.4</ele>
        <time>2025-10-26T13:35:53Z</time>
      </trkpt>
      <trkpt lat="43.50124" lon="6.67508">
        <ele>97.3</ele>
        <time>2025-10-26T13:35:54Z</time>
      </trkpt>
      <trkpt lat="43.50124" lon="6.67508">
        <ele>97.4</ele>
        <time>2025-10-26T13:35:55Z</time>
      </trkpt>
      <trkpt lat="43.50124" lon="6.67508">
        <ele>97.4</ele>
        <time>2025-10-26T13:35:56Z</time>
      </trkpt>
      <trkpt lat="43.50124" lon="6.67508">
        <ele>97.3</ele>
        <time>2025-10-26T13:35:57Z</time>
      </trkpt>
      <trkpt lat="43.50124" lon="6.67508">
        <ele>97.3</ele>
        <time>2025-10-26T13:35:58Z</time>
      </trkpt>
      <trkpt lat="43.50124" lon="6.67508">
        <ele>97.3</ele>
        <time>2025-10-26T13:35:59Z</time>
      </trkpt>
      <trkpt lat="43.50124" lon="6.67508">
        <ele>97.4</ele>
        <time>2025-10-26T13:36:00Z</time>
      </trkpt>
      <trkpt lat="43.50124" lon="6.67508">
        <ele>97.4</ele>
        <time>2025-10-26T13:36:01Z</time>
      </trkpt>
      <trkpt lat="43.50124" lon="6.67508">
        <ele>97.5</ele>
        <time>2025-10-26T13:36:02Z</time>
      </trkpt>
      <trkpt lat="43.50124" lon="6.67508">
        <ele>97.5</ele>
        <time>2025-10-26T13:36:03Z</time>
      </trkpt>
      <trkpt lat="43.50124" lon="6.67508">
        <ele>97.6</ele>
        <time>2025-10-26T13:36:04Z</time>
      </trkpt>
      <trkpt lat="43.50124" lon="6.67508">
        <ele>97.6</ele>
        <time>2025-10-26T13:36:05Z</time>
      </trkpt>
      <trkpt lat="43.50124" lon="6.67508">
        <ele>97.7</ele>
        <time>2025-10-26T13:36:06Z</time>
      </trkpt>
      <trkpt lat="43.50124" lon="6.67508">
        <ele>97.7</ele>
        <time>2025-10-26T13:36:07Z</time>
      </trkpt>
      <trkpt lat="43.50124" lon="6.67508">
        <ele>98</ele>
        <time>2025-10-26T13:36:08Z</time>
      </trkpt>
      <trkpt lat="43.50124" lon="6.67507">
        <ele>98.2</ele>
        <time>2025-10-26T13:36:09Z</time>
      </trkpt>
      <trkpt lat="43.50124" lon="6.67507">
        <ele>98</ele>
        <time>2025-10-26T13:36:10Z</time>
      </trkpt>
      <trkpt lat="43.50124" lon="6.67507">
        <ele>97.9</ele>
        <time>2025-10-26T13:36:11Z</time>
      </trkpt>
      <trkpt lat="43.50124" lon="6.67506">
        <ele>97.8</ele>
        <time>2025-10-26T13:36:12Z</time>
      </trkpt>
      <trkpt lat="43.50124" lon="6.67506">
        <ele>97.7</ele>
        <time>2025-10-26T13:36:13Z</time>
      </trkpt>
      <trkpt lat="43.50124" lon="6.67506">
        <ele>97.6</ele>
        <time>2025-10-26T13:36:14Z</time>
      </trkpt>
      <trkpt lat="43.50124" lon="6.67506">
        <ele>97.6</ele>
        <time>2025-10-26T13:36:15Z</time>
      </trkpt>
      <trkpt lat="43.50124" lon="6.67505">
        <ele>97.5</ele>
        <time>2025-10-26T13:36:16Z</time>
      </trkpt>
      <trkpt lat="43.50124" lon="6.67505">
        <ele>97.4</ele>
        <time>2025-10-26T13:36:17Z</time>
      </trkpt>
      <trkpt lat="43.50124" lon="6.67505">
        <ele>97.5</ele>
        <time>2025-10-26T13:36:18Z</time>
      </trkpt>
      <trkpt lat="43.50124" lon="6.67505">
        <ele>97.4</ele>
        <time>2025-10-26T13:36:19Z</time>
      </trkpt>
      <trkpt lat="43.50124" lon="6.67505">
        <ele>97.3</ele>
        <time>2025-10-26T13:36:20Z</time>
      </trkpt>
      <trkpt lat="43.50123" lon="6.67505">
        <ele>97.2</ele>
        <time>2025-10-26T13:36:21Z</time>
      </trkpt>
      <trkpt lat="43.50123" lon="6.67505">
        <ele>97.1</ele>
        <time>2025-10-26T13:36:22Z</time>
      </trkpt>
      <trkpt lat="43.50123" lon="6.67505">
        <ele>97</ele>
        <time>2025-10-26T13:36:23Z</time>
      </trkpt>
      <trkpt lat="43.50123" lon="6.67505">
        <ele>97.1</ele>
        <time>2025-10-26T13:36:24Z</time>
      </trkpt>
      <trkpt lat="43.50123" lon="6.67505">
        <ele>97.2</ele>
        <time>2025-10-26T13:36:25Z</time>
      </trkpt>
      <trkpt lat="43.50123" lon="6.67504">
        <ele>97.2</ele>
        <time>2025-10-26T13:36:26Z</time>
      </trkpt>
      <trkpt lat="43.50123" lon="6.67504">
        <ele>97.3</ele>
        <time>2025-10-26T13:36:27Z</time>
      </trkpt>
      <trkpt lat="43.50124" lon="6.67504">
        <ele>97.1</ele>
        <time>2025-10-26T13:36:28Z</time>
      </trkpt>
      <trkpt lat="43.50124" lon="6.67504">
        <ele>97</ele>
        <time>2025-10-26T13:36:29Z</time>
      </trkpt>
      <trkpt lat="43.50124" lon="6.67504">
        <ele>97</ele>
        <time>2025-10-26T13:36:30Z</time>
      </trkpt>
      <trkpt lat="43.50124" lon="6.67503">
        <ele>97.1</ele>
        <time>2025-10-26T13:36:31Z</time>
      </trkpt>
      <trkpt lat="43.50124" lon="6.67503">
        <ele>97</ele>
        <time>2025-10-26T13:36:32Z</time>
      </trkpt>
      <trkpt lat="43.50125" lon="6.67503">
        <ele>97</ele>
        <time>2025-10-26T13:36:33Z</time>
      </trkpt>
      <trkpt lat="43.50125" lon="6.67503">
        <ele>97</ele>
        <time>2025-10-26T13:36:34Z</time>
      </trkpt>
      <trkpt lat="43.50125" lon="6.67503">
        <ele>97.2</ele>
        <time>2025-10-26T13:36:35Z</time>
      </trkpt>
      <trkpt lat="43.50125" lon="6.67503">
        <ele>97.4</ele>
        <time>2025-10-26T13:36:36Z</time>
      </trkpt>
      <trkpt lat="43.50125" lon="6.67503">
        <ele>97.5</ele>
        <time>2025-10-26T13:36:37Z</time>
      </trkpt>
      <trkpt lat="43.50125" lon="6.67503">
        <ele>97.6</ele>
        <time>2025-10-26T13:36:38Z</time>
      </trkpt>
      <trkpt lat="43.50125" lon="6.67503">
        <ele>97.7</ele>
        <time>2025-10-26T13:36:39Z</time>
      </trkpt>
      <trkpt lat="43.50125" lon="6.67502">
        <ele>97.7</ele>
        <time>2025-10-26T13:36:40Z</time>
      </trkpt>
      <trkpt lat="43.50125" lon="6.67502">
        <ele>97.7</ele>
        <time>2025-10-26T13:36:41Z</time>
      </trkpt>
      <trkpt lat="43.50125" lon="6.67502">
        <ele>97.6</ele>
        <time>2025-10-26T13:36:42Z</time>
      </trkpt>
      <trkpt lat="43.50125" lon="6.67502">
        <ele>97.5</ele>
        <time>2025-10-26T13:36:43Z</time>
      </trkpt>
      <trkpt lat="43.50126" lon="6.67502">
        <ele>97.5</ele>
        <time>2025-10-26T13:36:44Z</time>
      </trkpt>
      <trkpt lat="43.50126" lon="6.67502">
        <ele>97.5</ele>
        <time>2025-10-26T13:36:45Z</time>
      </trkpt>
      <trkpt lat="43.50126" lon="6.67502">
        <ele>97.5</ele>
        <time>2025-10-26T13:36:46Z</time>
      </trkpt>
      <trkpt lat="43.50126" lon="6.67502">
        <ele>97.5</ele>
        <time>2025-10-26T13:36:47Z</time>
      </trkpt>
      <trkpt lat="43.50126" lon="6.67502">
        <ele>97.4</ele>
        <time>2025-10-26T13:36:48Z</time>
      </trkpt>
      <trkpt lat="43.50126" lon="6.67502">
        <ele>97.4</ele>
        <time>2025-10-26T13:36:49Z</time>
      </trkpt>
      <trkpt lat="43.50126" lon="6.67502">
        <ele>97.3</ele>
        <time>2025-10-26T13:36:50Z</time>
      </trkpt>
      <trkpt lat="43.50126" lon="6.67502">
        <ele>97.2</ele>
        <time>2025-10-26T13:36:51Z</time>
      </trkpt>
      <trkpt lat="43.50126" lon="6.67502">
        <ele>97.1</ele>
        <time>2025-10-26T13:36:52Z</time>
      </trkpt>
      <trkpt lat="43.50126" lon="6.67502">
        <ele>97</ele>
        <time>2025-10-26T13:36:53Z</time>
      </trkpt>
      <trkpt lat="43.50126" lon="6.67502">
        <ele>96.9</ele>
        <time>2025-10-26T13:36:54Z</time>
      </trkpt>
      <trkpt lat="43.50126" lon="6.67502">
        <ele>96.9</ele>
        <time>2025-10-26T13:36:55Z</time>
      </trkpt>
      <trkpt lat="43.50126" lon="6.67502">
        <ele>96.9</ele>
        <time>2025-10-26T13:36:56Z</time>
      </trkpt>
      <trkpt lat="43.50126" lon="6.67502">
        <ele>97.1</ele>
        <time>2025-10-26T13:36:57Z</time>
      </trkpt>
      <trkpt lat="43.50126" lon="6.67502">
        <ele>97.1</ele>
        <time>2025-10-26T13:36:58Z</time>
      </trkpt>
      <trkpt lat="43.50125" lon="6.67502">
        <ele>97.1</ele>
        <time>2025-10-26T13:36:59Z</time>
      </trkpt>
      <trkpt lat="43.50125" lon="6.67502">
        <ele>97.2</ele>
        <time>2025-10-26T13:37:00Z</time>
      </trkpt>
      <trkpt lat="43.50125" lon="6.67502">
        <ele>97.1</ele>
        <time>2025-10-26T13:37:01Z</time>
      </trkpt>
      <trkpt lat="43.50125" lon="6.67502">
        <ele>97</ele>
        <time>2025-10-26T13:37:02Z</time>
      </trkpt>
      <trkpt lat="43.50125" lon="6.67502">
        <ele>97.1</ele>
        <time>2025-10-26T13:37:03Z</time>
      </trkpt>
      <trkpt lat="43.50125" lon="6.67502">
        <ele>97.1</ele>
        <time>2025-10-26T13:37:04Z</time>
      </trkpt>
      <trkpt lat="43.50125" lon="6.67502">
        <ele>97.1</ele>
        <time>2025-10-26T13:37:05Z</time>
      </trkpt>
      <trkpt lat="43.50125" lon="6.67502">
        <ele>97.1</ele>
        <time>2025-10-26T13:37:06Z</time>
      </trkpt>
      <trkpt lat="43.50125" lon="6.67502">
        <ele>97.1</ele>
        <time>2025-10-26T13:37:07Z</time>
      </trkpt>
      <trkpt lat="43.50125" lon="6.67502">
        <ele>97.2</ele>
        <time>2025-10-26T13:37:08Z</time>
      </trkpt>
      <trkpt lat="43.50125" lon="6.67502">
        <ele>97.3</ele>
        <time>2025-10-26T13:37:09Z</time>
      </trkpt>
      <trkpt lat="43.50125" lon="6.67502">
        <ele>97.3</ele>
        <time>2025-10-26T13:37:10Z</time>
      </trkpt>
      <trkpt lat="43.50125" lon="6.67502">
        <ele>97.2</ele>
        <time>2025-10-26T13:37:11Z</time>
      </trkpt>
      <trkpt lat="43.50125" lon="6.67502">
        <ele>97.2</ele>
        <time>2025-10-26T13:37:12Z</time>
      </trkpt>
      <trkpt lat="43.50125" lon="6.67502">
        <ele>97.2</ele>
        <time>2025-10-26T13:37:13Z</time>
      </trkpt>
      <trkpt lat="43.50125" lon="6.67502">
        <ele>97.1</ele>
        <time>2025-10-26T13:37:14Z</time>
      </trkpt>
      <trkpt lat="43.50125" lon="6.67502">
        <ele>97</ele>
        <time>2025-10-26T13:37:15Z</time>
      </trkpt>
      <trkpt lat="43.50125" lon="6.67502">
        <ele>96.9</ele>
        <time>2025-10-26T13:37:16Z</time>
      </trkpt>
      <trkpt lat="43.50125" lon="6.67502">
        <ele>97</ele>
        <time>2025-10-26T13:37:17Z</time>
      </trkpt>
      <trkpt lat="43.50125" lon="6.67502">
        <ele>97</ele>
        <time>2025-10-26T13:37:18Z</time>
      </trkpt>
      <trkpt lat="43.50125" lon="6.67502">
        <ele>97</ele>
        <time>2025-10-26T13:37:19Z</time>
      </trkpt>
      <trkpt lat="43.50124" lon="6.67502">
        <ele>97</ele>
        <time>2025-10-26T13:37:20Z</time>
      </trkpt>
      <trkpt lat="43.50124" lon="6.67502">
        <ele>97</ele>
        <time>2025-10-26T13:37:21Z</time>
      </trkpt>
      <trkpt lat="43.50125" lon="6.67502">
        <ele>97</ele>
        <time>2025-10-26T13:37:22Z</time>
      </trkpt>
      <trkpt lat="43.50125" lon="6.67502">
        <ele>96.8</ele>
        <time>2025-10-26T13:37:23Z</time>
      </trkpt>
      <trkpt lat="43.50125" lon="6.67502">
        <ele>96.7</ele>
        <time>2025-10-26T13:37:24Z</time>
      </trkpt>
      <trkpt lat="43.50125" lon="6.67502">
        <ele>96.7</ele>
        <time>2025-10-26T13:37:25Z</time>
      </trkpt>
      <trkpt lat="43.50125" lon="6.67502">
        <ele>96.7</ele>
        <time>2025-10-26T13:37:26Z</time>
      </trkpt>
      <trkpt lat="43.50125" lon="6.67502">
        <ele>96.8</ele>
        <time>2025-10-26T13:37:27Z</time>
      </trkpt>
      <trkpt lat="43.50125" lon="6.67502">
        <ele>96.8</ele>
        <time>2025-10-26T13:37:28Z</time>
      </trkpt>
      <trkpt lat="43.50124" lon="6.67502">
        <ele>96.8</ele>
        <time>2025-10-26T13:37:29Z</time>
      </trkpt>
      <trkpt lat="43.50125" lon="6.67502">
        <ele>96.7</ele>
        <time>2025-10-26T13:37:30Z</time>
      </trkpt>
      <trkpt lat="43.50125" lon="6.67502">
        <ele>96.5</ele>
        <time>2025-10-26T13:37:31Z</time>
      </trkpt>
      <trkpt lat="43.50125" lon="6.67502">
        <ele>96.3</ele>
        <time>2025-10-26T13:37:32Z</time>
      </trkpt>
      <trkpt lat="43.50125" lon="6.67502">
        <ele>96.1</ele>
        <time>2025-10-26T13:37:33Z</time>
      </trkpt>
      <trkpt lat="43.50125" lon="6.67502">
        <ele>96.1</ele>
        <time>2025-10-26T13:37:34Z</time>
      </trkpt>
      <trkpt lat="43.50125" lon="6.67502">
        <ele>96.2</ele>
        <time>2025-10-26T13:37:35Z</time>
      </trkpt>
      <trkpt lat="43.50125" lon="6.67502">
        <ele>96.2</ele>
        <time>2025-10-26T13:37:36Z</time>
      </trkpt>
      <trkpt lat="43.50124" lon="6.67501">
        <ele>96.2</ele>
        <time>2025-10-26T13:37:37Z</time>
      </trkpt>
      <trkpt lat="43.50124" lon="6.67501">
        <ele>96.2</ele>
        <time>2025-10-26T13:37:38Z</time>
      </trkpt>
      <trkpt lat="43.50125" lon="6.67501">
        <ele>96.3</ele>
        <time>2025-10-26T13:37:39Z</time>
      </trkpt>
      <trkpt lat="43.50125" lon="6.67501">
        <ele>96.3</ele>
        <time>2025-10-26T13:37:40Z</time>
      </trkpt>
      <trkpt lat="43.50125" lon="6.67501">
        <ele>96.4</ele>
        <time>2025-10-26T13:37:41Z</time>
      </trkpt>
      <trkpt lat="43.50125" lon="6.67501">
        <ele>96.4</ele>
        <time>2025-10-26T13:37:42Z</time>
      </trkpt>
      <trkpt lat="43.50125" lon="6.67501">
        <ele>96.4</ele>
        <time>2025-10-26T13:37:43Z</time>
      </trkpt>
      <trkpt lat="43.50125" lon="6.67501">
        <ele>96.4</ele>
        <time>2025-10-26T13:37:44Z</time>
      </trkpt>
      <trkpt lat="43.50125" lon="6.67501">
        <ele>96.4</ele>
        <time>2025-10-26T13:37:45Z</time>
      </trkpt>
      <trkpt lat="43.50125" lon="6.67501">
        <ele>96.6</ele>
        <time>2025-10-26T13:37:46Z</time>
      </trkpt>
      <trkpt lat="43.50125" lon="6.67501">
        <ele>96.7</ele>
        <time>2025-10-26T13:37:47Z</time>
      </trkpt>
      <trkpt lat="43.50125" lon="6.67501">
        <ele>96.8</ele>
        <time>2025-10-26T13:37:48Z</time>
      </trkpt>
      <trkpt lat="43.50125" lon="6.67501">
        <ele>96.8</ele>
        <time>2025-10-26T13:37:49Z</time>
      </trkpt>
      <trkpt lat="43.50125" lon="6.67501">
        <ele>96.9</ele>
        <time>2025-10-26T13:37:50Z</time>
      </trkpt>
      <trkpt lat="43.50125" lon="6.67502">
        <ele>96.9</ele>
        <time>2025-10-26T13:37:51Z</time>
      </trkpt>
      <trkpt lat="43.50125" lon="6.67502">
        <ele>96.9</ele>
        <time>2025-10-26T13:37:52Z</time>
      </trkpt>
      <trkpt lat="43.50125" lon="6.67502">
        <ele>97</ele>
        <time>2025-10-26T13:37:53Z</time>
      </trkpt>
      <trkpt lat="43.50125" lon="6.67502">
        <ele>97</ele>
        <time>2025-10-26T13:37:54Z</time>
      </trkpt>
      <trkpt lat="43.50125" lon="6.67502">
        <ele>97</ele>
        <time>2025-10-26T13:37:55Z</time>
      </trkpt>
      <trkpt lat="43.50125" lon="6.67502">
        <ele>97</ele>
        <time>2025-10-26T13:37:56Z</time>
      </trkpt>
      <trkpt lat="43.50125" lon="6.67502">
        <ele>97</ele>
        <time>2025-10-26T13:37:57Z</time>
      </trkpt>
      <trkpt lat="43.50125" lon="6.67502">
        <ele>97</ele>
        <time>2025-10-26T13:37:58Z</time>
      </trkpt>
      <trkpt lat="43.50125" lon="6.67502">
        <ele>97</ele>
        <time>2025-10-26T13:37:59Z</time>
      </trkpt>
      <trkpt lat="43.50125" lon="6.67502">
        <ele>97.1</ele>
        <time>2025-10-26T13:38:00Z</time>
      </trkpt>
      <trkpt lat="43.50125" lon="6.67502">
        <ele>97.1</ele>
        <time>2025-10-26T13:38:01Z</time>
      </trkpt>
      <trkpt lat="43.50125" lon="6.67502">
        <ele>97.2</ele>
        <time>2025-10-26T13:38:02Z</time>
      </trkpt>
      <trkpt lat="43.50125" lon="6.67502">
        <ele>97.3</ele>
        <time>2025-10-26T13:38:03Z</time>
      </trkpt>
      <trkpt lat="43.50125" lon="6.67502">
        <ele>97.3</ele>
        <time>2025-10-26T13:38:04Z</time>
      </trkpt>
      <trkpt lat="43.50125" lon="6.67502">
        <ele>97.4</ele>
        <time>2025-10-26T13:38:05Z</time>
      </trkpt>
      <trkpt lat="43.50125" lon="6.67502">
        <ele>97.4</ele>
        <time>2025-10-26T13:38:06Z</time>
      </trkpt>
      <trkpt lat="43.50125" lon="6.67502">
        <ele>97.6</ele>
        <time>2025-10-26T13:38:07Z</time>
      </trkpt>
      <trkpt lat="43.50125" lon="6.67502">
        <ele>97.6</ele>
        <time>2025-10-26T13:38:08Z</time>
      </trkpt>
      <trkpt lat="43.50125" lon="6.67502">
        <ele>97.6</ele>
        <time>2025-10-26T13:38:09Z</time>
      </trkpt>
      <trkpt lat="43.50125" lon="6.67502">
        <ele>97.6</ele>
        <time>2025-10-26T13:38:10Z</time>
      </trkpt>
      <trkpt lat="43.50125" lon="6.67502">
        <ele>97.6</ele>
        <time>2025-10-26T13:38:11Z</time>
      </trkpt>
      <trkpt lat="43.50125" lon="6.67502">
        <ele>97.7</ele>
        <time>2025-10-26T13:38:12Z</time>
      </trkpt>
      <trkpt lat="43.50124" lon="6.67502">
        <ele>97.6</ele>
        <time>2025-10-26T13:38:13Z</time>
      </trkpt>
      <trkpt lat="43.50124" lon="6.67502">
        <ele>97.6</ele>
        <time>2025-10-26T13:38:14Z</time>
      </trkpt>
      <trkpt lat="43.50124" lon="6.67502">
        <ele>97.6</ele>
        <time>2025-10-26T13:38:15Z</time>
      </trkpt>
      <trkpt lat="43.50124" lon="6.67501">
        <ele>97.6</ele>
        <time>2025-10-26T13:38:16Z</time>
      </trkpt>
      <trkpt lat="43.50124" lon="6.67501">
        <ele>97.6</ele>
        <time>2025-10-26T13:38:17Z</time>
      </trkpt>
      <trkpt lat="43.50125" lon="6.67501">
        <ele>97.5</ele>
        <time>2025-10-26T13:38:18Z</time>
      </trkpt>
      <trkpt lat="43.50124" lon="6.67501">
        <ele>97.4</ele>
        <time>2025-10-26T13:38:19Z</time>
      </trkpt>
      <trkpt lat="43.50124" lon="6.67501">
        <ele>97.4</ele>
        <time>2025-10-26T13:38:20Z</time>
      </trkpt>
      <trkpt lat="43.50124" lon="6.67501">
        <ele>97.4</ele>
        <time>2025-10-26T13:38:21Z</time>
      </trkpt>
      <trkpt lat="43.50124" lon="6.67502">
        <ele>97.4</ele>
        <time>2025-10-26T13:38:22Z</time>
      </trkpt>
      <trkpt lat="43.50124" lon="6.67502">
        <ele>97.4</ele>
        <time>2025-10-26T13:38:23Z</time>
      </trkpt>
      <trkpt lat="43.50124" lon="6.67502">
        <ele>97.4</ele>
        <time>2025-10-26T13:38:24Z</time>
      </trkpt>
      <trkpt lat="43.50124" lon="6.67502">
        <ele>97.4</ele>
        <time>2025-10-26T13:38:25Z</time>
      </trkpt>
      <trkpt lat="43.50124" lon="6.67502">
        <ele>97.4</ele>
        <time>2025-10-26T13:38:26Z</time>
      </trkpt>
      <trkpt lat="43.50124" lon="6.67502">
        <ele>97.4</ele>
        <time>2025-10-26T13:38:27Z</time>
      </trkpt>
      <trkpt lat="43.50124" lon="6.67502">
        <ele>97.5</ele>
        <time>2025-10-26T13:38:28Z</time>
      </trkpt>
      <trkpt lat="43.50124" lon="6.67502">
        <ele>97.6</ele>
        <time>2025-10-26T13:38:29Z</time>
      </trkpt>
      <trkpt lat="43.50124" lon="6.67502">
        <ele>97.7</ele>
        <time>2025-10-26T13:38:30Z</time>
      </trkpt>
      <trkpt lat="43.50124" lon="6.67502">
        <ele>97.7</ele>
        <time>2025-10-26T13:38:31Z</time>
      </trkpt>
      <trkpt lat="43.50124" lon="6.67502">
        <ele>97.7</ele>
        <time>2025-10-26T13:38:32Z</time>
      </trkpt>
      <trkpt lat="43.50124" lon="6.67502">
        <ele>97.7</ele>
        <time>2025-10-26T13:38:33Z</time>
      </trkpt>
      <trkpt lat="43.50124" lon="6.67502">
        <ele>97.7</ele>
        <time>2025-10-26T13:38:34Z</time>
      </trkpt>
      <trkpt lat="43.50124" lon="6.67502">
        <ele>97.7</ele>
        <time>2025-10-26T13:38:35Z</time>
      </trkpt>
      <trkpt lat="43.50124" lon="6.67502">
        <ele>97.7</ele>
        <time>2025-10-26T13:38:36Z</time>
      </trkpt>
      <trkpt lat="43.50124" lon="6.67502">
        <ele>97.7</ele>
        <time>2025-10-26T13:38:37Z</time>
      </trkpt>
      <trkpt lat="43.50124" lon="6.67502">
        <ele>97.6</ele>
        <time>2025-10-26T13:38:38Z</time>
      </trkpt>
      <trkpt lat="43.50124" lon="6.67502">
        <ele>97.5</ele>
        <time>2025-10-26T13:38:39Z</time>
      </trkpt>
      <trkpt lat="43.50124" lon="6.67502">
        <ele>97.6</ele>
        <time>2025-10-26T13:38:40Z</time>
      </trkpt>
      <trkpt lat="43.50125" lon="6.67502">
        <ele>97.7</ele>
        <time>2025-10-26T13:38:41Z</time>
      </trkpt>
      <trkpt lat="43.50125" lon="6.67502">
        <ele>97.7</ele>
        <time>2025-10-26T13:38:42Z</time>
      </trkpt>
      <trkpt lat="43.50125" lon="6.67502">
        <ele>97.7</ele>
        <time>2025-10-26T13:38:43Z</time>
      </trkpt>
      <trkpt lat="43.50125" lon="6.67502">
        <ele>97.5</ele>
        <time>2025-10-26T13:38:44Z</time>
      </trkpt>
      <trkpt lat="43.50125" lon="6.67502">
        <ele>97.5</ele>
        <time>2025-10-26T13:38:45Z</time>
      </trkpt>
      <trkpt lat="43.50125" lon="6.67502">
        <ele>97.4</ele>
        <time>2025-10-26T13:38:46Z</time>
      </trkpt>
      <trkpt lat="43.50125" lon="6.67502">
        <ele>97.3</ele>
        <time>2025-10-26T13:38:47Z</time>
      </trkpt>
      <trkpt lat="43.50125" lon="6.67502">
        <ele>97.3</ele>
        <time>2025-10-26T13:38:48Z</time>
      </trkpt>
      <trkpt lat="43.50125" lon="6.67502">
        <ele>97.2</ele>
        <time>2025-10-26T13:38:49Z</time>
      </trkpt>
      <trkpt lat="43.50124" lon="6.67502">
        <ele>97.2</ele>
        <time>2025-10-26T13:38:50Z</time>
      </trkpt>
      <trkpt lat="43.50124" lon="6.67502">
        <ele>97.2</ele>
        <time>2025-10-26T13:38:51Z</time>
      </trkpt>
      <trkpt lat="43.50123" lon="6.67503">
        <ele>97.1</ele>
        <time>2025-10-26T13:38:52Z</time>
      </trkpt>
      <trkpt lat="43.50123" lon="6.67504">
        <ele>97.1</ele>
        <time>2025-10-26T13:38:53Z</time>
      </trkpt>
      <trkpt lat="43.50123" lon="6.67505">
        <ele>97.1</ele>
        <time>2025-10-26T13:38:54Z</time>
      </trkpt>
      <trkpt lat="43.50122" lon="6.67505">
        <ele>97.1</ele>
        <time>2025-10-26T13:38:55Z</time>
      </trkpt>
      <trkpt lat="43.50122" lon="6.67507">
        <ele>97.1</ele>
        <time>2025-10-26T13:38:56Z</time>
      </trkpt>
      <trkpt lat="43.50122" lon="6.67508">
        <ele>97.1</ele>
        <time>2025-10-26T13:38:57Z</time>
      </trkpt>
      <trkpt lat="43.50121" lon="6.67509">
        <ele>97.1</ele>
        <time>2025-10-26T13:38:58Z</time>
      </trkpt>
      <trkpt lat="43.50121" lon="6.6751">
        <ele>97.1</ele>
        <time>2025-10-26T13:38:59Z</time>
      </trkpt>
      <trkpt lat="43.5012" lon="6.67511">
        <ele>97.1</ele>
        <time>2025-10-26T13:39:00Z</time>
      </trkpt>
      <trkpt lat="43.5012" lon="6.67512">
        <ele>97.3</ele>
        <time>2025-10-26T13:39:01Z</time>
      </trkpt>
      <trkpt lat="43.50119" lon="6.67513">
        <ele>96.9</ele>
        <time>2025-10-26T13:39:02Z</time>
      </trkpt>
      <trkpt lat="43.50118" lon="6.67514">
        <ele>97.1</ele>
        <time>2025-10-26T13:39:03Z</time>
      </trkpt>
      <trkpt lat="43.50117" lon="6.67515">
        <ele>97</ele>
        <time>2025-10-26T13:39:04Z</time>
      </trkpt>
      <trkpt lat="43.50117" lon="6.67516">
        <ele>97</ele>
        <time>2025-10-26T13:39:05Z</time>
      </trkpt>
      <trkpt lat="43.50116" lon="6.67517">
        <ele>97</ele>
        <time>2025-10-26T13:39:06Z</time>
      </trkpt>
      <trkpt lat="43.50115" lon="6.67518">
        <ele>96.9</ele>
        <time>2025-10-26T13:39:07Z</time>
      </trkpt>
      <trkpt lat="43.50114" lon="6.67519">
        <ele>96.8</ele>
        <time>2025-10-26T13:39:08Z</time>
      </trkpt>
      <trkpt lat="43.50114" lon="6.67519">
        <ele>97.1</ele>
        <time>2025-10-26T13:39:09Z</time>
      </trkpt>
      <trkpt lat="43.50113" lon="6.6752">
        <ele>97.1</ele>
        <time>2025-10-26T13:39:10Z</time>
      </trkpt>
      <trkpt lat="43.50112" lon="6.6752">
        <ele>97.3</ele>
        <time>2025-10-26T13:39:11Z</time>
      </trkpt>
      <trkpt lat="43.50111" lon="6.6752">
        <ele>97.2</ele>
        <time>2025-10-26T13:39:12Z</time>
      </trkpt>
      <trkpt lat="43.5011" lon="6.6752">
        <ele>97.3</ele>
        <time>2025-10-26T13:39:13Z</time>
      </trkpt>
      <trkpt lat="43.5011" lon="6.67521">
        <ele>97.4</ele>
        <time>2025-10-26T13:39:14Z</time>
      </trkpt>
      <trkpt lat="43.50109" lon="6.67521">
        <ele>97.6</ele>
        <time>2025-10-26T13:39:15Z</time>
      </trkpt>
      <trkpt lat="43.50108" lon="6.67521">
        <ele>97.7</ele>
        <time>2025-10-26T13:39:16Z</time>
      </trkpt>
      <trkpt lat="43.50107" lon="6.67521">
        <ele>97.8</ele>
        <time>2025-10-26T13:39:17Z</time>
      </trkpt>
      <trkpt lat="43.50106" lon="6.67521">
        <ele>97.7</ele>
        <time>2025-10-26T13:39:18Z</time>
      </trkpt>
      <trkpt lat="43.50106" lon="6.6752">
        <ele>97.6</ele>
        <time>2025-10-26T13:39:19Z</time>
      </trkpt>
      <trkpt lat="43.50105" lon="6.6752">
        <ele>97.3</ele>
        <time>2025-10-26T13:39:20Z</time>
      </trkpt>
      <trkpt lat="43.50104" lon="6.6752">
        <ele>97</ele>
        <time>2025-10-26T13:39:21Z</time>
      </trkpt>
      <trkpt lat="43.50102" lon="6.67519">
        <ele>96.7</ele>
        <time>2025-10-26T13:39:22Z</time>
      </trkpt>
      <trkpt lat="43.50101" lon="6.67519">
        <ele>96.6</ele>
        <time>2025-10-26T13:39:23Z</time>
      </trkpt>
      <trkpt lat="43.501" lon="6.67519">
        <ele>96.5</ele>
        <time>2025-10-26T13:39:24Z</time>
      </trkpt>
      <trkpt lat="43.50099" lon="6.67519">
        <ele>96.5</ele>
        <time>2025-10-26T13:39:25Z</time>
      </trkpt>
      <trkpt lat="43.50098" lon="6.67519">
        <ele>96.7</ele>
        <time>2025-10-26T13:39:26Z</time>
      </trkpt>
      <trkpt lat="43.50098" lon="6.67518">
        <ele>96.7</ele>
        <time>2025-10-26T13:39:27Z</time>
      </trkpt>
      <trkpt lat="43.50097" lon="6.67518">
        <ele>97</ele>
        <time>2025-10-26T13:39:28Z</time>
      </trkpt>
      <trkpt lat="43.50096" lon="6.67518">
        <ele>97.2</ele>
        <time>2025-10-26T13:39:29Z</time>
      </trkpt>
      <trkpt lat="43.50095" lon="6.67517">
        <ele>97.2</ele>
        <time>2025-10-26T13:39:30Z</time>
      </trkpt>
      <trkpt lat="43.50094" lon="6.67517">
        <ele>97.2</ele>
        <time>2025-10-26T13:39:31Z</time>
      </trkpt>
      <trkpt lat="43.50093" lon="6.67516">
        <ele>97.2</ele>
        <time>2025-10-26T13:39:32Z</time>
      </trkpt>
      <trkpt lat="43.50092" lon="6.67516">
        <ele>97.2</ele>
        <time>2025-10-26T13:39:33Z</time>
      </trkpt>
      <trkpt lat="43.50091" lon="6.67516">
        <ele>97.1</ele>
        <time>2025-10-26T13:39:34Z</time>
      </trkpt>
      <trkpt lat="43.5009" lon="6.67515">
        <ele>97</ele>
        <time>2025-10-26T13:39:35Z</time>
      </trkpt>
      <trkpt lat="43.5009" lon="6.67515">
        <ele>96.7</ele>
        <time>2025-10-26T13:39:36Z</time>
      </trkpt>
      <trkpt lat="43.50089" lon="6.67514">
        <ele>96.5</ele>
        <time>2025-10-26T13:39:37Z</time>
      </trkpt>
      <trkpt lat="43.50088" lon="6.67514">
        <ele>96.4</ele>
        <time>2025-10-26T13:39:38Z</time>
      </trkpt>
      <trkpt lat="43.50087" lon="6.67513">
        <ele>96.3</ele>
        <time>2025-10-26T13:39:39Z</time>
      </trkpt>
      <trkpt lat="43.50086" lon="6.67513">
        <ele>96.4</ele>
        <time>2025-10-26T13:39:40Z</time>
      </trkpt>
      <trkpt lat="43.50085" lon="6.67512">
        <ele>96.5</ele>
        <time>2025-10-26T13:39:41Z</time>
      </trkpt>
      <trkpt lat="43.50084" lon="6.67512">
        <ele>96.5</ele>
        <time>2025-10-26T13:39:42Z</time>
      </trkpt>
      <trkpt lat="43.50083" lon="6.67512">
        <ele>96.5</ele>
        <time>2025-10-26T13:39:43Z</time>
      </trkpt>
      <trkpt lat="43.50082" lon="6.67511">
        <ele>96.6</ele>
        <time>2025-10-26T13:39:44Z</time>
      </trkpt>
      <trkpt lat="43.50081" lon="6.67511">
        <ele>96.6</ele>
        <time>2025-10-26T13:39:45Z</time>
      </trkpt>
      <trkpt lat="43.5008" lon="6.6751">
        <ele>96.5</ele>
        <time>2025-10-26T13:39:46Z</time>
      </trkpt>
      <trkpt lat="43.5008" lon="6.6751">
        <ele>96.4</ele>
        <time>2025-10-26T13:39:47Z</time>
      </trkpt>
      <trkpt lat="43.50078" lon="6.67509">
        <ele>96.4</ele>
        <time>2025-10-26T13:39:48Z</time>
      </trkpt>
      <trkpt lat="43.50077" lon="6.67509">
        <ele>96.1</ele>
        <time>2025-10-26T13:39:49Z</time>
      </trkpt>
      <trkpt lat="43.50076" lon="6.67508">
        <ele>96.1</ele>
        <time>2025-10-26T13:39:50Z</time>
      </trkpt>
      <trkpt lat="43.50076" lon="6.67508">
        <ele>96.5</ele>
        <time>2025-10-26T13:39:51Z</time>
      </trkpt>
      <trkpt lat="43.50075" lon="6.67507">
        <ele>96.7</ele>
        <time>2025-10-26T13:39:52Z</time>
      </trkpt>
      <trkpt lat="43.50074" lon="6.67507">
        <ele>96.6</ele>
        <time>2025-10-26T13:39:53Z</time>
      </trkpt>
      <trkpt lat="43.50073" lon="6.67506">
        <ele>96.5</ele>
        <time>2025-10-26T13:39:54Z</time>
      </trkpt>
      <trkpt lat="43.50072" lon="6.67505">
        <ele>96.5</ele>
        <time>2025-10-26T13:39:55Z</time>
      </trkpt>
      <trkpt lat="43.50071" lon="6.67504">
        <ele>96.4</ele>
        <time>2025-10-26T13:39:56Z</time>
      </trkpt>
      <trkpt lat="43.50071" lon="6.67503">
        <ele>96.2</ele>
        <time>2025-10-26T13:39:57Z</time>
      </trkpt>
      <trkpt lat="43.50069" lon="6.67503">
        <ele>96.2</ele>
        <time>2025-10-26T13:39:58Z</time>
      </trkpt>
      <trkpt lat="43.50068" lon="6.67502">
        <ele>96.2</ele>
        <time>2025-10-26T13:39:59Z</time>
      </trkpt>
      <trkpt lat="43.50068" lon="6.67502">
        <ele>96.3</ele>
        <time>2025-10-26T13:40:00Z</time>
      </trkpt>
      <trkpt lat="43.50067" lon="6.67501">
        <ele>96.4</ele>
        <time>2025-10-26T13:40:01Z</time>
      </trkpt>
      <trkpt lat="43.50067" lon="6.67501">
        <ele>96.5</ele>
        <time>2025-10-26T13:40:02Z</time>
      </trkpt>
      <trkpt lat="43.50066" lon="6.675">
        <ele>96.4</ele>
        <time>2025-10-26T13:40:03Z</time>
      </trkpt>
      <trkpt lat="43.50065" lon="6.67499">
        <ele>96.4</ele>
        <time>2025-10-26T13:40:04Z</time>
      </trkpt>
      <trkpt lat="43.50064" lon="6.67499">
        <ele>96.3</ele>
        <time>2025-10-26T13:40:05Z</time>
      </trkpt>
      <trkpt lat="43.50064" lon="6.67498">
        <ele>96.2</ele>
        <time>2025-10-26T13:40:06Z</time>
      </trkpt>
      <trkpt lat="43.50063" lon="6.67497">
        <ele>96.1</ele>
        <time>2025-10-26T13:40:07Z</time>
      </trkpt>
      <trkpt lat="43.50063" lon="6.67496">
        <ele>96.3</ele>
        <time>2025-10-26T13:40:08Z</time>
      </trkpt>
      <trkpt lat="43.50062" lon="6.67496">
        <ele>96.3</ele>
        <time>2025-10-26T13:40:09Z</time>
      </trkpt>
      <trkpt lat="43.50061" lon="6.67495">
        <ele>96.3</ele>
        <time>2025-10-26T13:40:10Z</time>
      </trkpt>
      <trkpt lat="43.5006" lon="6.67495">
        <ele>96.2</ele>
        <time>2025-10-26T13:40:11Z</time>
      </trkpt>
      <trkpt lat="43.50059" lon="6.67494">
        <ele>96.1</ele>
        <time>2025-10-26T13:40:12Z</time>
      </trkpt>
      <trkpt lat="43.50059" lon="6.67493">
        <ele>96</ele>
        <time>2025-10-26T13:40:13Z</time>
      </trkpt>
      <trkpt lat="43.50058" lon="6.67493">
        <ele>96</ele>
        <time>2025-10-26T13:40:14Z</time>
      </trkpt>
      <trkpt lat="43.50058" lon="6.67492">
        <ele>96.1</ele>
        <time>2025-10-26T13:40:15Z</time>
      </trkpt>
      <trkpt lat="43.50057" lon="6.67492">
        <ele>96.1</ele>
        <time>2025-10-26T13:40:16Z</time>
      </trkpt>
      <trkpt lat="43.50056" lon="6.67491">
        <ele>96</ele>
        <time>2025-10-26T13:40:17Z</time>
      </trkpt>
      <trkpt lat="43.50054" lon="6.67491">
        <ele>95.9</ele>
        <time>2025-10-26T13:40:18Z</time>
      </trkpt>
      <trkpt lat="43.50053" lon="6.6749">
        <ele>95.9</ele>
        <time>2025-10-26T13:40:19Z</time>
      </trkpt>
      <trkpt lat="43.50052" lon="6.6749">
        <ele>95.7</ele>
        <time>2025-10-26T13:40:20Z</time>
      </trkpt>
      <trkpt lat="43.50051" lon="6.6749">
        <ele>95.6</ele>
        <time>2025-10-26T13:40:21Z</time>
      </trkpt>
      <trkpt lat="43.5005" lon="6.67489">
        <ele>95.6</ele>
        <time>2025-10-26T13:40:22Z</time>
      </trkpt>
      <trkpt lat="43.50048" lon="6.67488">
        <ele>95.6</ele>
        <time>2025-10-26T13:40:23Z</time>
      </trkpt>
      <trkpt lat="43.50048" lon="6.67488">
        <ele>95.6</ele>
        <time>2025-10-26T13:40:24Z</time>
      </trkpt>
      <trkpt lat="43.50047" lon="6.67487">
        <ele>95.5</ele>
        <time>2025-10-26T13:40:25Z</time>
      </trkpt>
      <trkpt lat="43.50046" lon="6.67486">
        <ele>95.4</ele>
        <time>2025-10-26T13:40:26Z</time>
      </trkpt>
      <trkpt lat="43.50045" lon="6.67486">
        <ele>95.3</ele>
        <time>2025-10-26T13:40:27Z</time>
      </trkpt>
      <trkpt lat="43.50044" lon="6.67485">
        <ele>95.2</ele>
        <time>2025-10-26T13:40:28Z</time>
      </trkpt>
      <trkpt lat="43.50043" lon="6.67485">
        <ele>95</ele>
        <time>2025-10-26T13:40:29Z</time>
      </trkpt>
      <trkpt lat="43.50042" lon="6.67485">
        <ele>94.8</ele>
        <time>2025-10-26T13:40:30Z</time>
      </trkpt>
      <trkpt lat="43.5004" lon="6.67485">
        <ele>94.6</ele>
        <time>2025-10-26T13:40:31Z</time>
      </trkpt>
      <trkpt lat="43.50039" lon="6.67485">
        <ele>94.5</ele>
        <time>2025-10-26T13:40:32Z</time>
      </trkpt>
      <trkpt lat="43.50037" lon="6.67484">
        <ele>94.5</ele>
        <time>2025-10-26T13:40:33Z</time>
      </trkpt>
      <trkpt lat="43.50036" lon="6.67483">
        <ele>94.4</ele>
        <time>2025-10-26T13:40:34Z</time>
      </trkpt>
      <trkpt lat="43.50035" lon="6.67483">
        <ele>94.3</ele>
        <time>2025-10-26T13:40:35Z</time>
      </trkpt>
      <trkpt lat="43.50034" lon="6.67483">
        <ele>94.3</ele>
        <time>2025-10-26T13:40:36Z</time>
      </trkpt>
      <trkpt lat="43.50033" lon="6.67482">
        <ele>94.3</ele>
        <time>2025-10-26T13:40:37Z</time>
      </trkpt>
      <trkpt lat="43.50032" lon="6.67482">
        <ele>94.3</ele>
        <time>2025-10-26T13:40:38Z</time>
      </trkpt>
      <trkpt lat="43.50031" lon="6.67481">
        <ele>94.3</ele>
        <time>2025-10-26T13:40:39Z</time>
      </trkpt>
      <trkpt lat="43.5003" lon="6.67479">
        <ele>94.3</ele>
        <time>2025-10-26T13:40:40Z</time>
      </trkpt>
      <trkpt lat="43.5003" lon="6.67478">
        <ele>94.3</ele>
        <time>2025-10-26T13:40:41Z</time>
      </trkpt>
      <trkpt lat="43.50029" lon="6.67477">
        <ele>94.3</ele>
        <time>2025-10-26T13:40:42Z</time>
      </trkpt>
      <trkpt lat="43.50028" lon="6.67477">
        <ele>94.3</ele>
        <time>2025-10-26T13:40:43Z</time>
      </trkpt>
      <trkpt lat="43.50026" lon="6.67476">
        <ele>94.3</ele>
        <time>2025-10-26T13:40:44Z</time>
      </trkpt>
      <trkpt lat="43.50025" lon="6.67476">
        <ele>94.2</ele>
        <time>2025-10-26T13:40:45Z</time>
      </trkpt>
      <trkpt lat="43.50023" lon="6.67476">
        <ele>94.1</ele>
        <time>2025-10-26T13:40:46Z</time>
      </trkpt>
      <trkpt lat="43.50022" lon="6.67477">
        <ele>93.9</ele>
        <time>2025-10-26T13:40:47Z</time>
      </trkpt>
      <trkpt lat="43.50021" lon="6.67477">
        <ele>93.8</ele>
        <time>2025-10-26T13:40:48Z</time>
      </trkpt>
      <trkpt lat="43.50019" lon="6.67478">
        <ele>93.7</ele>
        <time>2025-10-26T13:40:49Z</time>
      </trkpt>
      <trkpt lat="43.50018" lon="6.67478">
        <ele>93.6</ele>
        <time>2025-10-26T13:40:50Z</time>
      </trkpt>
      <trkpt lat="43.50017" lon="6.67479">
        <ele>93.5</ele>
        <time>2025-10-26T13:40:51Z</time>
      </trkpt>
      <trkpt lat="43.50016" lon="6.67479">
        <ele>93.5</ele>
        <time>2025-10-26T13:40:52Z</time>
      </trkpt>
      <trkpt lat="43.50015" lon="6.6748">
        <ele>93.5</ele>
        <time>2025-10-26T13:40:53Z</time>
      </trkpt>
      <trkpt lat="43.50014" lon="6.6748">
        <ele>93.4</ele>
        <time>2025-10-26T13:40:54Z</time>
      </trkpt>
      <trkpt lat="43.50013" lon="6.6748">
        <ele>93.4</ele>
        <time>2025-10-26T13:40:55Z</time>
      </trkpt>
      <trkpt lat="43.50012" lon="6.67479">
        <ele>93.4</ele>
        <time>2025-10-26T13:40:56Z</time>
      </trkpt>
      <trkpt lat="43.5001" lon="6.67479">
        <ele>93.4</ele>
        <time>2025-10-26T13:40:57Z</time>
      </trkpt>
      <trkpt lat="43.50009" lon="6.67479">
        <ele>93.3</ele>
        <time>2025-10-26T13:40:58Z</time>
      </trkpt>
      <trkpt lat="43.50007" lon="6.67479">
        <ele>93.3</ele>
        <time>2025-10-26T13:40:59Z</time>
      </trkpt>
      <trkpt lat="43.50006" lon="6.67479">
        <ele>93.2</ele>
        <time>2025-10-26T13:41:00Z</time>
      </trkpt>
      <trkpt lat="43.50005" lon="6.67479">
        <ele>93.1</ele>
        <time>2025-10-26T13:41:01Z</time>
      </trkpt>
      <trkpt lat="43.50003" lon="6.6748">
        <ele>92.9</ele>
        <time>2025-10-26T13:41:02Z</time>
      </trkpt>
      <trkpt lat="43.50002" lon="6.6748">
        <ele>92.7</ele>
        <time>2025-10-26T13:41:03Z</time>
      </trkpt>
      <trkpt lat="43.5" lon="6.6748">
        <ele>92.6</ele>
        <time>2025-10-26T13:41:04Z</time>
      </trkpt>
      <trkpt lat="43.49999" lon="6.6748">
        <ele>92.5</ele>
        <time>2025-10-26T13:41:05Z</time>
      </trkpt>
      <trkpt lat="43.49998" lon="6.6748">
        <ele>92.4</ele>
        <time>2025-10-26T13:41:06Z</time>
      </trkpt>
      <trkpt lat="43.49998" lon="6.67479">
        <ele>92.3</ele>
        <time>2025-10-26T13:41:07Z</time>
      </trkpt>
      <trkpt lat="43.49998" lon="6.67479">
        <ele>92.3</ele>
        <time>2025-10-26T13:41:08Z</time>
      </trkpt>
      <trkpt lat="43.49997" lon="6.67478">
        <ele>92.3</ele>
        <time>2025-10-26T13:41:09Z</time>
      </trkpt>
      <trkpt lat="43.49996" lon="6.67477">
        <ele>92.4</ele>
        <time>2025-10-26T13:41:10Z</time>
      </trkpt>
      <trkpt lat="43.49995" lon="6.67475">
        <ele>92.6</ele>
        <time>2025-10-26T13:41:11Z</time>
      </trkpt>
      <trkpt lat="43.49994" lon="6.67475">
        <ele>92.7</ele>
        <time>2025-10-26T13:41:12Z</time>
      </trkpt>
      <trkpt lat="43.49993" lon="6.67473">
        <ele>92.8</ele>
        <time>2025-10-26T13:41:13Z</time>
      </trkpt>
      <trkpt lat="43.49992" lon="6.67472">
        <ele>92.6</ele>
        <time>2025-10-26T13:41:14Z</time>
      </trkpt>
      <trkpt lat="43.49991" lon="6.67472">
        <ele>92.6</ele>
        <time>2025-10-26T13:41:15Z</time>
      </trkpt>
      <trkpt lat="43.4999" lon="6.67471">
        <ele>92.6</ele>
        <time>2025-10-26T13:41:16Z</time>
      </trkpt>
      <trkpt lat="43.4999" lon="6.6747">
        <ele>92.7</ele>
        <time>2025-10-26T13:41:17Z</time>
      </trkpt>
      <trkpt lat="43.49989" lon="6.67469">
        <ele>92.5</ele>
        <time>2025-10-26T13:41:18Z</time>
      </trkpt>
      <trkpt lat="43.49988" lon="6.67468">
        <ele>92.4</ele>
        <time>2025-10-26T13:41:19Z</time>
      </trkpt>
      <trkpt lat="43.49987" lon="6.67468">
        <ele>92.4</ele>
        <time>2025-10-26T13:41:20Z</time>
      </trkpt>
      <trkpt lat="43.49987" lon="6.67467">
        <ele>92.5</ele>
        <time>2025-10-26T13:41:21Z</time>
      </trkpt>
      <trkpt lat="43.49986" lon="6.67466">
        <ele>92.6</ele>
        <time>2025-10-26T13:41:22Z</time>
      </trkpt>
      <trkpt lat="43.49985" lon="6.67465">
        <ele>92.6</ele>
        <time>2025-10-26T13:41:23Z</time>
      </trkpt>
      <trkpt lat="43.49984" lon="6.67465">
        <ele>92.7</ele>
        <time>2025-10-26T13:41:24Z</time>
      </trkpt>
      <trkpt lat="43.49983" lon="6.67464">
        <ele>92.7</ele>
        <time>2025-10-26T13:41:25Z</time>
      </trkpt>
      <trkpt lat="43.49982" lon="6.67463">
        <ele>92.7</ele>
        <time>2025-10-26T13:41:26Z</time>
      </trkpt>
      <trkpt lat="43.49981" lon="6.67462">
        <ele>92.7</ele>
        <time>2025-10-26T13:41:27Z</time>
      </trkpt>
      <trkpt lat="43.4998" lon="6.67462">
        <ele>92.8</ele>
        <time>2025-10-26T13:41:28Z</time>
      </trkpt>
      <trkpt lat="43.49979" lon="6.67461">
        <ele>92.7</ele>
        <time>2025-10-26T13:41:29Z</time>
      </trkpt>
      <trkpt lat="43.49977" lon="6.67461">
        <ele>92.7</ele>
        <time>2025-10-26T13:41:30Z</time>
      </trkpt>
      <trkpt lat="43.49976" lon="6.6746">
        <ele>92.7</ele>
        <time>2025-10-26T13:41:31Z</time>
      </trkpt>
      <trkpt lat="43.49974" lon="6.6746">
        <ele>92.6</ele>
        <time>2025-10-26T13:41:32Z</time>
      </trkpt>
      <trkpt lat="43.49973" lon="6.6746">
        <ele>92.6</ele>
        <time>2025-10-26T13:41:33Z</time>
      </trkpt>
      <trkpt lat="43.49971" lon="6.67459">
        <ele>92.5</ele>
        <time>2025-10-26T13:41:34Z</time>
      </trkpt>
      <trkpt lat="43.4997" lon="6.67459">
        <ele>92.4</ele>
        <time>2025-10-26T13:41:35Z</time>
      </trkpt>
      <trkpt lat="43.4997" lon="6.67459">
        <ele>92.3</ele>
        <time>2025-10-26T13:41:36Z</time>
      </trkpt>
      <trkpt lat="43.49969" lon="6.67459">
        <ele>92.3</ele>
        <time>2025-10-26T13:41:37Z</time>
      </trkpt>
      <trkpt lat="43.49968" lon="6.67459">
        <ele>92.2</ele>
        <time>2025-10-26T13:41:38Z</time>
      </trkpt>
      <trkpt lat="43.49967" lon="6.67458">
        <ele>92.2</ele>
        <time>2025-10-26T13:41:39Z</time>
      </trkpt>
      <trkpt lat="43.49966" lon="6.67458">
        <ele>92.1</ele>
        <time>2025-10-26T13:41:40Z</time>
      </trkpt>
      <trkpt lat="43.49965" lon="6.67457">
        <ele>92.1</ele>
        <time>2025-10-26T13:41:41Z</time>
      </trkpt>
      <trkpt lat="43.49963" lon="6.67456">
        <ele>92</ele>
        <time>2025-10-26T13:41:42Z</time>
      </trkpt>
      <trkpt lat="43.49962" lon="6.67456">
        <ele>91.9</ele>
        <time>2025-10-26T13:41:43Z</time>
      </trkpt>
      <trkpt lat="43.49961" lon="6.67455">
        <ele>91.8</ele>
        <time>2025-10-26T13:41:44Z</time>
      </trkpt>
      <trkpt lat="43.4996" lon="6.67455">
        <ele>91.7</ele>
        <time>2025-10-26T13:41:45Z</time>
      </trkpt>
      <trkpt lat="43.49959" lon="6.67454">
        <ele>91.7</ele>
        <time>2025-10-26T13:41:46Z</time>
      </trkpt>
      <trkpt lat="43.49958" lon="6.67453">
        <ele>91.7</ele>
        <time>2025-10-26T13:41:47Z</time>
      </trkpt>
      <trkpt lat="43.49957" lon="6.67453">
        <ele>91.6</ele>
        <time>2025-10-26T13:41:48Z</time>
      </trkpt>
      <trkpt lat="43.49956" lon="6.67452">
        <ele>91.6</ele>
        <time>2025-10-26T13:41:49Z</time>
      </trkpt>
      <trkpt lat="43.49955" lon="6.67451">
        <ele>91.6</ele>
        <time>2025-10-26T13:41:50Z</time>
      </trkpt>
      <trkpt lat="43.49955" lon="6.6745">
        <ele>91.5</ele>
        <time>2025-10-26T13:41:51Z</time>
      </trkpt>
      <trkpt lat="43.49954" lon="6.67449">
        <ele>91.4</ele>
        <time>2025-10-26T13:41:52Z</time>
      </trkpt>
      <trkpt lat="43.49954" lon="6.67447">
        <ele>91.3</ele>
        <time>2025-10-26T13:41:53Z</time>
      </trkpt>
      <trkpt lat="43.49953" lon="6.67446">
        <ele>91.4</ele>
        <time>2025-10-26T13:41:54Z</time>
      </trkpt>
      <trkpt lat="43.49952" lon="6.67446">
        <ele>91.5</ele>
        <time>2025-10-26T13:41:55Z</time>
      </trkpt>
      <trkpt lat="43.49952" lon="6.67446">
        <ele>91.6</ele>
        <time>2025-10-26T13:41:56Z</time>
      </trkpt>
      <trkpt lat="43.49951" lon="6.67445">
        <ele>91.5</ele>
        <time>2025-10-26T13:41:57Z</time>
      </trkpt>
      <trkpt lat="43.4995" lon="6.67445">
        <ele>91.5</ele>
        <time>2025-10-26T13:41:58Z</time>
      </trkpt>
      <trkpt lat="43.4995" lon="6.67445">
        <ele>91.3</ele>
        <time>2025-10-26T13:41:59Z</time>
      </trkpt>
      <trkpt lat="43.49949" lon="6.67445">
        <ele>91.2</ele>
        <time>2025-10-26T13:42:00Z</time>
      </trkpt>
      <trkpt lat="43.49948" lon="6.67445">
        <ele>91</ele>
        <time>2025-10-26T13:42:01Z</time>
      </trkpt>
      <trkpt lat="43.49947" lon="6.67444">
        <ele>90.9</ele>
        <time>2025-10-26T13:42:02Z</time>
      </trkpt>
      <trkpt lat="43.49946" lon="6.67444">
        <ele>90.7</ele>
        <time>2025-10-26T13:42:03Z</time>
      </trkpt>
      <trkpt lat="43.49945" lon="6.67443">
        <ele>90.6</ele>
        <time>2025-10-26T13:42:04Z</time>
      </trkpt>
      <trkpt lat="43.49943" lon="6.67443">
        <ele>90.4</ele>
        <time>2025-10-26T13:42:05Z</time>
      </trkpt>
      <trkpt lat="43.49942" lon="6.67443">
        <ele>90.5</ele>
        <time>2025-10-26T13:42:06Z</time>
      </trkpt>
      <trkpt lat="43.49941" lon="6.67442">
        <ele>90.5</ele>
        <time>2025-10-26T13:42:07Z</time>
      </trkpt>
      <trkpt lat="43.4994" lon="6.67442">
        <ele>90.4</ele>
        <time>2025-10-26T13:42:08Z</time>
      </trkpt>
      <trkpt lat="43.49939" lon="6.67442">
        <ele>90.3</ele>
        <time>2025-10-26T13:42:09Z</time>
      </trkpt>
      <trkpt lat="43.49938" lon="6.67442">
        <ele>90</ele>
        <time>2025-10-26T13:42:10Z</time>
      </trkpt>
      <trkpt lat="43.49938" lon="6.67442">
        <ele>89.9</ele>
        <time>2025-10-26T13:42:11Z</time>
      </trkpt>
      <trkpt lat="43.49936" lon="6.67442">
        <ele>89.8</ele>
        <time>2025-10-26T13:42:12Z</time>
      </trkpt>
      <trkpt lat="43.49935" lon="6.67442">
        <ele>89.7</ele>
        <time>2025-10-26T13:42:13Z</time>
      </trkpt>
      <trkpt lat="43.49934" lon="6.67442">
        <ele>89.5</ele>
        <time>2025-10-26T13:42:14Z</time>
      </trkpt>
      <trkpt lat="43.49933" lon="6.67443">
        <ele>89.4</ele>
        <time>2025-10-26T13:42:15Z</time>
      </trkpt>
      <trkpt lat="43.49932" lon="6.67443">
        <ele>89.1</ele>
        <time>2025-10-26T13:42:16Z</time>
      </trkpt>
      <trkpt lat="43.49931" lon="6.67442">
        <ele>88.8</ele>
        <time>2025-10-26T13:42:17Z</time>
      </trkpt>
      <trkpt lat="43.4993" lon="6.67442">
        <ele>88.7</ele>
        <time>2025-10-26T13:42:18Z</time>
      </trkpt>
      <trkpt lat="43.49928" lon="6.67442">
        <ele>88.6</ele>
        <time>2025-10-26T13:42:19Z</time>
      </trkpt>
      <trkpt lat="43.49927" lon="6.67442">
        <ele>88.7</ele>
        <time>2025-10-26T13:42:20Z</time>
      </trkpt>
      <trkpt lat="43.49926" lon="6.67441">
        <ele>88.8</ele>
        <time>2025-10-26T13:42:21Z</time>
      </trkpt>
      <trkpt lat="43.49925" lon="6.6744">
        <ele>89.1</ele>
        <time>2025-10-26T13:42:22Z</time>
      </trkpt>
      <trkpt lat="43.49925" lon="6.6744">
        <ele>89.6</ele>
        <time>2025-10-26T13:42:23Z</time>
      </trkpt>
      <trkpt lat="43.49924" lon="6.6744">
        <ele>90</ele>
        <time>2025-10-26T13:42:24Z</time>
      </trkpt>
      <trkpt lat="43.49923" lon="6.67439">
        <ele>90</ele>
        <time>2025-10-26T13:42:25Z</time>
      </trkpt>
      <trkpt lat="43.49921" lon="6.67439">
        <ele>89.9</ele>
        <time>2025-10-26T13:42:26Z</time>
      </trkpt>
      <trkpt lat="43.4992" lon="6.67438">
        <ele>89.7</ele>
        <time>2025-10-26T13:42:27Z</time>
      </trkpt>
      <trkpt lat="43.49919" lon="6.67438">
        <ele>89.5</ele>
        <time>2025-10-26T13:42:28Z</time>
      </trkpt>
      <trkpt lat="43.49918" lon="6.67438">
        <ele>89.6</ele>
        <time>2025-10-26T13:42:29Z</time>
      </trkpt>
      <trkpt lat="43.49916" lon="6.67438">
        <ele>89.4</ele>
        <time>2025-10-26T13:42:30Z</time>
      </trkpt>
      <trkpt lat="43.49915" lon="6.67438">
        <ele>89.1</ele>
        <time>2025-10-26T13:42:31Z</time>
      </trkpt>
      <trkpt lat="43.49914" lon="6.67438">
        <ele>88.9</ele>
        <time>2025-10-26T13:42:32Z</time>
      </trkpt>
      <trkpt lat="43.49913" lon="6.67437">
        <ele>89</ele>
        <time>2025-10-26T13:42:33Z</time>
      </trkpt>
      <trkpt lat="43.49911" lon="6.67437">
        <ele>89.2</ele>
        <time>2025-10-26T13:42:34Z</time>
      </trkpt>
      <trkpt lat="43.4991" lon="6.67437">
        <ele>89.3</ele>
        <time>2025-10-26T13:42:35Z</time>
      </trkpt>
      <trkpt lat="43.49909" lon="6.67437">
        <ele>89.4</ele>
        <time>2025-10-26T13:42:36Z</time>
      </trkpt>
      <trkpt lat="43.49908" lon="6.67437">
        <ele>89.3</ele>
        <time>2025-10-26T13:42:37Z</time>
      </trkpt>
      <trkpt lat="43.49907" lon="6.67436">
        <ele>89.2</ele>
        <time>2025-10-26T13:42:38Z</time>
      </trkpt>
      <trkpt lat="43.49907" lon="6.67436">
        <ele>89.1</ele>
        <time>2025-10-26T13:42:39Z</time>
      </trkpt>
      <trkpt lat="43.49906" lon="6.67436">
        <ele>89</ele>
        <time>2025-10-26T13:42:40Z</time>
      </trkpt>
      <trkpt lat="43.49906" lon="6.67436">
        <ele>88.9</ele>
        <time>2025-10-26T13:42:41Z</time>
      </trkpt>
      <trkpt lat="43.49906" lon="6.67436">
        <ele>88.9</ele>
        <time>2025-10-26T13:42:42Z</time>
      </trkpt>
      <trkpt lat="43.49905" lon="6.67436">
        <ele>88.8</ele>
        <time>2025-10-26T13:42:43Z</time>
      </trkpt>
      <trkpt lat="43.49905" lon="6.67436">
        <ele>88.8</ele>
        <time>2025-10-26T13:42:44Z</time>
      </trkpt>
      <trkpt lat="43.49904" lon="6.67435">
        <ele>88.7</ele>
        <time>2025-10-26T13:42:45Z</time>
      </trkpt>
      <trkpt lat="43.49904" lon="6.67435">
        <ele>88.6</ele>
        <time>2025-10-26T13:42:46Z</time>
      </trkpt>
      <trkpt lat="43.49904" lon="6.67435">
        <ele>88.5</ele>
        <time>2025-10-26T13:42:47Z</time>
      </trkpt>
      <trkpt lat="43.49903" lon="6.67435">
        <ele>88.5</ele>
        <time>2025-10-26T13:42:48Z</time>
      </trkpt>
      <trkpt lat="43.49902" lon="6.67435">
        <ele>88.6</ele>
        <time>2025-10-26T13:42:49Z</time>
      </trkpt>
      <trkpt lat="43.499" lon="6.67435">
        <ele>88.8</ele>
        <time>2025-10-26T13:42:50Z</time>
      </trkpt>
      <trkpt lat="43.49899" lon="6.67435">
        <ele>89.2</ele>
        <time>2025-10-26T13:42:51Z</time>
      </trkpt>
      <trkpt lat="43.49898" lon="6.67435">
        <ele>89.5</ele>
        <time>2025-10-26T13:42:52Z</time>
      </trkpt>
      <trkpt lat="43.49897" lon="6.67434">
        <ele>89.5</ele>
        <time>2025-10-26T13:42:53Z</time>
      </trkpt>
      <trkpt lat="43.49896" lon="6.67433">
        <ele>89.3</ele>
        <time>2025-10-26T13:42:54Z</time>
      </trkpt>
      <trkpt lat="43.49895" lon="6.67432">
        <ele>89.2</ele>
        <time>2025-10-26T13:42:55Z</time>
      </trkpt>
      <trkpt lat="43.49895" lon="6.67432">
        <ele>88.9</ele>
        <time>2025-10-26T13:42:56Z</time>
      </trkpt>
      <trkpt lat="43.49894" lon="6.67431">
        <ele>88.8</ele>
        <time>2025-10-26T13:42:57Z</time>
      </trkpt>
      <trkpt lat="43.49893" lon="6.6743">
        <ele>88.8</ele>
        <time>2025-10-26T13:42:58Z</time>
      </trkpt>
      <trkpt lat="43.49892" lon="6.67429">
        <ele>88.8</ele>
        <time>2025-10-26T13:42:59Z</time>
      </trkpt>
      <trkpt lat="43.49891" lon="6.67428">
        <ele>88.9</ele>
        <time>2025-10-26T13:43:00Z</time>
      </trkpt>
      <trkpt lat="43.4989" lon="6.67427">
        <ele>89</ele>
        <time>2025-10-26T13:43:01Z</time>
      </trkpt>
      <trkpt lat="43.4989" lon="6.67426">
        <ele>89.3</ele>
        <time>2025-10-26T13:43:02Z</time>
      </trkpt>
      <trkpt lat="43.4989" lon="6.67424">
        <ele>89.2</ele>
        <time>2025-10-26T13:43:03Z</time>
      </trkpt>
      <trkpt lat="43.49889" lon="6.67423">
        <ele>89.2</ele>
        <time>2025-10-26T13:43:04Z</time>
      </trkpt>
      <trkpt lat="43.49888" lon="6.67422">
        <ele>89.1</ele>
        <time>2025-10-26T13:43:05Z</time>
      </trkpt>
      <trkpt lat="43.49888" lon="6.67421">
        <ele>89</ele>
        <time>2025-10-26T13:43:06Z</time>
      </trkpt>
      <trkpt lat="43.49887" lon="6.67419">
        <ele>89</ele>
        <time>2025-10-26T13:43:07Z</time>
      </trkpt>
      <trkpt lat="43.49886" lon="6.67418">
        <ele>89</ele>
        <time>2025-10-26T13:43:08Z</time>
      </trkpt>
      <trkpt lat="43.49885" lon="6.67416">
        <ele>89.1</ele>
        <time>2025-10-26T13:43:09Z</time>
      </trkpt>
      <trkpt lat="43.49884" lon="6.67415">
        <ele>89.1</ele>
        <time>2025-10-26T13:43:10Z</time>
      </trkpt>
      <trkpt lat="43.49883" lon="6.67414">
        <ele>88.9</ele>
        <time>2025-10-26T13:43:11Z</time>
      </trkpt>
      <trkpt lat="43.49882" lon="6.67413">
        <ele>88.9</ele>
        <time>2025-10-26T13:43:12Z</time>
      </trkpt>
      <trkpt lat="43.49881" lon="6.67412">
        <ele>89</ele>
        <time>2025-10-26T13:43:13Z</time>
      </trkpt>
      <trkpt lat="43.4988" lon="6.6741">
        <ele>89</ele>
        <time>2025-10-26T13:43:14Z</time>
      </trkpt>
      <trkpt lat="43.49879" lon="6.67409">
        <ele>89</ele>
        <time>2025-10-26T13:43:15Z</time>
      </trkpt>
      <trkpt lat="43.49878" lon="6.67408">
        <ele>88.8</ele>
        <time>2025-10-26T13:43:16Z</time>
      </trkpt>
      <trkpt lat="43.49878" lon="6.67406">
        <ele>88.7</ele>
        <time>2025-10-26T13:43:17Z</time>
      </trkpt>
      <trkpt lat="43.49877" lon="6.67405">
        <ele>88.6</ele>
        <time>2025-10-26T13:43:18Z</time>
      </trkpt>
      <trkpt lat="43.49876" lon="6.67403">
        <ele>88.5</ele>
        <time>2025-10-26T13:43:19Z</time>
      </trkpt>
      <trkpt lat="43.49875" lon="6.67402">
        <ele>88.5</ele>
        <time>2025-10-26T13:43:20Z</time>
      </trkpt>
      <trkpt lat="43.49874" lon="6.67401">
        <ele>88.6</ele>
        <time>2025-10-26T13:43:21Z</time>
      </trkpt>
      <trkpt lat="43.49874" lon="6.67399">
        <ele>88.7</ele>
        <time>2025-10-26T13:43:22Z</time>
      </trkpt>
      <trkpt lat="43.49873" lon="6.67398">
        <ele>88.8</ele>
        <time>2025-10-26T13:43:23Z</time>
      </trkpt>
      <trkpt lat="43.49872" lon="6.67396">
        <ele>88.8</ele>
        <time>2025-10-26T13:43:24Z</time>
      </trkpt>
      <trkpt lat="43.49871" lon="6.67395">
        <ele>88.7</ele>
        <time>2025-10-26T13:43:25Z</time>
      </trkpt>
      <trkpt lat="43.49871" lon="6.67394">
        <ele>88.7</ele>
        <time>2025-10-26T13:43:26Z</time>
      </trkpt>
      <trkpt lat="43.4987" lon="6.67392">
        <ele>88.7</ele>
        <time>2025-10-26T13:43:27Z</time>
      </trkpt>
      <trkpt lat="43.49869" lon="6.6739">
        <ele>88.6</ele>
        <time>2025-10-26T13:43:28Z</time>
      </trkpt>
      <trkpt lat="43.49868" lon="6.67389">
        <ele>88.7</ele>
        <time>2025-10-26T13:43:29Z</time>
      </trkpt>
      <trkpt lat="43.49868" lon="6.67387">
        <ele>88.8</ele>
        <time>2025-10-26T13:43:30Z</time>
      </trkpt>
      <trkpt lat="43.49867" lon="6.67386">
        <ele>88.8</ele>
        <time>2025-10-26T13:43:31Z</time>
      </trkpt>
      <trkpt lat="43.49866" lon="6.67384">
        <ele>89.2</ele>
        <time>2025-10-26T13:43:32Z</time>
      </trkpt>
      <trkpt lat="43.49865" lon="6.67383">
        <ele>89.1</ele>
        <time>2025-10-26T13:43:33Z</time>
      </trkpt>
      <trkpt lat="43.49865" lon="6.67382">
        <ele>89.1</ele>
        <time>2025-10-26T13:43:34Z</time>
      </trkpt>
      <trkpt lat="43.49864" lon="6.67381">
        <ele>89</ele>
        <time>2025-10-26T13:43:35Z</time>
      </trkpt>
      <trkpt lat="43.49863" lon="6.67379">
        <ele>89.1</ele>
        <time>2025-10-26T13:43:36Z</time>
      </trkpt>
      <trkpt lat="43.49862" lon="6.67378">
        <ele>89.1</ele>
        <time>2025-10-26T13:43:37Z</time>
      </trkpt>
      <trkpt lat="43.49861" lon="6.67377">
        <ele>89.1</ele>
        <time>2025-10-26T13:43:38Z</time>
      </trkpt>
      <trkpt lat="43.4986" lon="6.67375">
        <ele>89.1</ele>
        <time>2025-10-26T13:43:39Z</time>
      </trkpt>
      <trkpt lat="43.49859" lon="6.67374">
        <ele>89.1</ele>
        <time>2025-10-26T13:43:40Z</time>
      </trkpt>
      <trkpt lat="43.49858" lon="6.67372">
        <ele>88.9</ele>
        <time>2025-10-26T13:43:41Z</time>
      </trkpt>
      <trkpt lat="43.49858" lon="6.67371">
        <ele>88.5</ele>
        <time>2025-10-26T13:43:42Z</time>
      </trkpt>
      <trkpt lat="43.49857" lon="6.67369">
        <ele>88.4</ele>
        <time>2025-10-26T13:43:43Z</time>
      </trkpt>
      <trkpt lat="43.49856" lon="6.67368">
        <ele>88.3</ele>
        <time>2025-10-26T13:43:44Z</time>
      </trkpt>
      <trkpt lat="43.49855" lon="6.67366">
        <ele>88.2</ele>
        <time>2025-10-26T13:43:45Z</time>
      </trkpt>
      <trkpt lat="43.49855" lon="6.67364">
        <ele>88.3</ele>
        <time>2025-10-26T13:43:46Z</time>
      </trkpt>
      <trkpt lat="43.49855" lon="6.67363">
        <ele>88.4</ele>
        <time>2025-10-26T13:43:47Z</time>
      </trkpt>
      <trkpt lat="43.49854" lon="6.67361">
        <ele>88.5</ele>
        <time>2025-10-26T13:43:48Z</time>
      </trkpt>
      <trkpt lat="43.49853" lon="6.67359">
        <ele>88.5</ele>
        <time>2025-10-26T13:43:49Z</time>
      </trkpt>
      <trkpt lat="43.49853" lon="6.67358">
        <ele>88.6</ele>
        <time>2025-10-26T13:43:50Z</time>
      </trkpt>
      <trkpt lat="43.49852" lon="6.67356">
        <ele>88.6</ele>
        <time>2025-10-26T13:43:51Z</time>
      </trkpt>
      <trkpt lat="43.49851" lon="6.67355">
        <ele>88.6</ele>
        <time>2025-10-26T13:43:52Z</time>
      </trkpt>
      <trkpt lat="43.4985" lon="6.67354">
        <ele>88.7</ele>
        <time>2025-10-26T13:43:53Z</time>
      </trkpt>
      <trkpt lat="43.49849" lon="6.67353">
        <ele>88.7</ele>
        <time>2025-10-26T13:43:54Z</time>
      </trkpt>
      <trkpt lat="43.49848" lon="6.67352">
        <ele>88.9</ele>
        <time>2025-10-26T13:43:55Z</time>
      </trkpt>
      <trkpt lat="43.49846" lon="6.6735">
        <ele>89.1</ele>
        <time>2025-10-26T13:43:56Z</time>
      </trkpt>
      <trkpt lat="43.49846" lon="6.67349">
        <ele>89.2</ele>
        <time>2025-10-26T13:43:57Z</time>
      </trkpt>
      <trkpt lat="43.49845" lon="6.67348">
        <ele>89.3</ele>
        <time>2025-10-26T13:43:58Z</time>
      </trkpt>
      <trkpt lat="43.49844" lon="6.67346">
        <ele>89.5</ele>
        <time>2025-10-26T13:43:59Z</time>
      </trkpt>
      <trkpt lat="43.49843" lon="6.67345">
        <ele>89.5</ele>
        <time>2025-10-26T13:44:00Z</time>
      </trkpt>
      <trkpt lat="43.49842" lon="6.67343">
        <ele>89.4</ele>
        <time>2025-10-26T13:44:01Z</time>
      </trkpt>
      <trkpt lat="43.49841" lon="6.67342">
        <ele>89.4</ele>
        <time>2025-10-26T13:44:02Z</time>
      </trkpt>
      <trkpt lat="43.4984" lon="6.6734">
        <ele>89.4</ele>
        <time>2025-10-26T13:44:03Z</time>
      </trkpt>
      <trkpt lat="43.49839" lon="6.67339">
        <ele>89.4</ele>
        <time>2025-10-26T13:44:04Z</time>
      </trkpt>
      <trkpt lat="43.49838" lon="6.67337">
        <ele>89.4</ele>
        <time>2025-10-26T13:44:05Z</time>
      </trkpt>
      <trkpt lat="43.49837" lon="6.67336">
        <ele>89.5</ele>
        <time>2025-10-26T13:44:06Z</time>
      </trkpt>
      <trkpt lat="43.49836" lon="6.67335">
        <ele>89.5</ele>
        <time>2025-10-26T13:44:07Z</time>
      </trkpt>
      <trkpt lat="43.49836" lon="6.67333">
        <ele>89.6</ele>
        <time>2025-10-26T13:44:08Z</time>
      </trkpt>
      <trkpt lat="43.49835" lon="6.67332">
        <ele>89.5</ele>
        <time>2025-10-26T13:44:09Z</time>
      </trkpt>
      <trkpt lat="43.49834" lon="6.6733">
        <ele>89.4</ele>
        <time>2025-10-26T13:44:10Z</time>
      </trkpt>
      <trkpt lat="43.49834" lon="6.67329">
        <ele>89.2</ele>
        <time>2025-10-26T13:44:11Z</time>
      </trkpt>
      <trkpt lat="43.49833" lon="6.67327">
        <ele>89.1</ele>
        <time>2025-10-26T13:44:12Z</time>
      </trkpt>
      <trkpt lat="43.49833" lon="6.67326">
        <ele>89</ele>
        <time>2025-10-26T13:44:13Z</time>
      </trkpt>
      <trkpt lat="43.49832" lon="6.67325">
        <ele>89</ele>
        <time>2025-10-26T13:44:14Z</time>
      </trkpt>
      <trkpt lat="43.49831" lon="6.67323">
        <ele>88.9</ele>
        <time>2025-10-26T13:44:15Z</time>
      </trkpt>
      <trkpt lat="43.4983" lon="6.67322">
        <ele>88.9</ele>
        <time>2025-10-26T13:44:16Z</time>
      </trkpt>
      <trkpt lat="43.49829" lon="6.6732">
        <ele>88.8</ele>
        <time>2025-10-26T13:44:17Z</time>
      </trkpt>
      <trkpt lat="43.49829" lon="6.67319">
        <ele>88.7</ele>
        <time>2025-10-26T13:44:18Z</time>
      </trkpt>
      <trkpt lat="43.49828" lon="6.67317">
        <ele>88.7</ele>
        <time>2025-10-26T13:44:19Z</time>
      </trkpt>
      <trkpt lat="43.49827" lon="6.67316">
        <ele>88.7</ele>
        <time>2025-10-26T13:44:20Z</time>
      </trkpt>
      <trkpt lat="43.49827" lon="6.67314">
        <ele>88.7</ele>
        <time>2025-10-26T13:44:21Z</time>
      </trkpt>
      <trkpt lat="43.49826" lon="6.67313">
        <ele>88.8</ele>
        <time>2025-10-26T13:44:22Z</time>
      </trkpt>
      <trkpt lat="43.49825" lon="6.67311">
        <ele>88.9</ele>
        <time>2025-10-26T13:44:23Z</time>
      </trkpt>
      <trkpt lat="43.49825" lon="6.67309">
        <ele>89</ele>
        <time>2025-10-26T13:44:24Z</time>
      </trkpt>
      <trkpt lat="43.49824" lon="6.67308">
        <ele>89</ele>
        <time>2025-10-26T13:44:25Z</time>
      </trkpt>
      <trkpt lat="43.49824" lon="6.67306">
        <ele>88.9</ele>
        <time>2025-10-26T13:44:26Z</time>
      </trkpt>
      <trkpt lat="43.49823" lon="6.67305">
        <ele>88.8</ele>
        <time>2025-10-26T13:44:27Z</time>
      </trkpt>
      <trkpt lat="43.49823" lon="6.67303">
        <ele>88.7</ele>
        <time>2025-10-26T13:44:28Z</time>
      </trkpt>
      <trkpt lat="43.49822" lon="6.67302">
        <ele>88.7</ele>
        <time>2025-10-26T13:44:29Z</time>
      </trkpt>
      <trkpt lat="43.49822" lon="6.673">
        <ele>88.6</ele>
        <time>2025-10-26T13:44:30Z</time>
      </trkpt>
      <trkpt lat="43.49822" lon="6.67299">
        <ele>88.6</ele>
        <time>2025-10-26T13:44:31Z</time>
      </trkpt>
      <trkpt lat="43.49821" lon="6.67297">
        <ele>88.6</ele>
        <time>2025-10-26T13:44:32Z</time>
      </trkpt>
      <trkpt lat="43.49821" lon="6.67295">
        <ele>88.7</ele>
        <time>2025-10-26T13:44:33Z</time>
      </trkpt>
      <trkpt lat="43.4982" lon="6.67293">
        <ele>88.8</ele>
        <time>2025-10-26T13:44:34Z</time>
      </trkpt>
      <trkpt lat="43.49819" lon="6.67292">
        <ele>88.9</ele>
        <time>2025-10-26T13:44:35Z</time>
      </trkpt>
      <trkpt lat="43.49818" lon="6.67291">
        <ele>88.9</ele>
        <time>2025-10-26T13:44:36Z</time>
      </trkpt>
      <trkpt lat="43.49817" lon="6.67289">
        <ele>88.9</ele>
        <time>2025-10-26T13:44:37Z</time>
      </trkpt>
      <trkpt lat="43.49816" lon="6.67288">
        <ele>88.9</ele>
        <time>2025-10-26T13:44:38Z</time>
      </trkpt>
      <trkpt lat="43.49815" lon="6.67287">
        <ele>89</ele>
        <time>2025-10-26T13:44:39Z</time>
      </trkpt>
      <trkpt lat="43.49814" lon="6.67285">
        <ele>88.8</ele>
        <time>2025-10-26T13:44:40Z</time>
      </trkpt>
      <trkpt lat="43.49813" lon="6.67284">
        <ele>88.8</ele>
        <time>2025-10-26T13:44:41Z</time>
      </trkpt>
      <trkpt lat="43.49813" lon="6.67283">
        <ele>89</ele>
        <time>2025-10-26T13:44:42Z</time>
      </trkpt>
      <trkpt lat="43.49811" lon="6.67282">
        <ele>89</ele>
        <time>2025-10-26T13:44:43Z</time>
      </trkpt>
      <trkpt lat="43.4981" lon="6.67281">
        <ele>89.2</ele>
        <time>2025-10-26T13:44:44Z</time>
      </trkpt>
      <trkpt lat="43.49809" lon="6.67279">
        <ele>89.3</ele>
        <time>2025-10-26T13:44:45Z</time>
      </trkpt>
      <trkpt lat="43.49808" lon="6.67278">
        <ele>89.3</ele>
        <time>2025-10-26T13:44:46Z</time>
      </trkpt>
      <trkpt lat="43.49807" lon="6.67277">
        <ele>89.3</ele>
        <time>2025-10-26T13:44:47Z</time>
      </trkpt>
      <trkpt lat="43.49806" lon="6.67276">
        <ele>89.3</ele>
        <time>2025-10-26T13:44:48Z</time>
      </trkpt>
      <trkpt lat="43.49805" lon="6.67275">
        <ele>89.4</ele>
        <time>2025-10-26T13:44:49Z</time>
      </trkpt>
      <trkpt lat="43.49804" lon="6.67274">
        <ele>89.6</ele>
        <time>2025-10-26T13:44:50Z</time>
      </trkpt>
      <trkpt lat="43.49803" lon="6.67273">
        <ele>89.7</ele>
        <time>2025-10-26T13:44:51Z</time>
      </trkpt>
      <trkpt lat="43.49802" lon="6.67272">
        <ele>90.4</ele>
        <time>2025-10-26T13:44:52Z</time>
      </trkpt>
      <trkpt lat="43.49801" lon="6.67271">
        <ele>90.4</ele>
        <time>2025-10-26T13:44:53Z</time>
      </trkpt>
      <trkpt lat="43.498" lon="6.6727">
        <ele>90.2</ele>
        <time>2025-10-26T13:44:54Z</time>
      </trkpt>
      <trkpt lat="43.498" lon="6.67268">
        <ele>90.2</ele>
        <time>2025-10-26T13:44:55Z</time>
      </trkpt>
      <trkpt lat="43.49799" lon="6.67267">
        <ele>89.9</ele>
        <time>2025-10-26T13:44:56Z</time>
      </trkpt>
      <trkpt lat="43.49799" lon="6.67266">
        <ele>89.8</ele>
        <time>2025-10-26T13:44:57Z</time>
      </trkpt>
      <trkpt lat="43.49798" lon="6.67265">
        <ele>89.6</ele>
        <time>2025-10-26T13:44:58Z</time>
      </trkpt>
      <trkpt lat="43.49798" lon="6.67263">
        <ele>89.5</ele>
        <time>2025-10-26T13:44:59Z</time>
      </trkpt>
      <trkpt lat="43.49797" lon="6.67262">
        <ele>89.1</ele>
        <time>2025-10-26T13:45:00Z</time>
      </trkpt>
      <trkpt lat="43.49796" lon="6.6726">
        <ele>89.1</ele>
        <time>2025-10-26T13:45:01Z</time>
      </trkpt>
      <trkpt lat="43.49795" lon="6.67259">
        <ele>89</ele>
        <time>2025-10-26T13:45:02Z</time>
      </trkpt>
      <trkpt lat="43.49794" lon="6.67257">
        <ele>88.9</ele>
        <time>2025-10-26T13:45:03Z</time>
      </trkpt>
      <trkpt lat="43.49793" lon="6.67256">
        <ele>88.7</ele>
        <time>2025-10-26T13:45:04Z</time>
      </trkpt>
      <trkpt lat="43.49793" lon="6.67254">
        <ele>88.7</ele>
        <time>2025-10-26T13:45:05Z</time>
      </trkpt>
      <trkpt lat="43.49792" lon="6.67253">
        <ele>88.5</ele>
        <time>2025-10-26T13:45:06Z</time>
      </trkpt>
      <trkpt lat="43.49791" lon="6.67251">
        <ele>88.4</ele>
        <time>2025-10-26T13:45:07Z</time>
      </trkpt>
      <trkpt lat="43.4979" lon="6.6725">
        <ele>88.3</ele>
        <time>2025-10-26T13:45:08Z</time>
      </trkpt>
      <trkpt lat="43.4979" lon="6.67248">
        <ele>88.2</ele>
        <time>2025-10-26T13:45:09Z</time>
      </trkpt>
      <trkpt lat="43.49789" lon="6.67247">
        <ele>88.1</ele>
        <time>2025-10-26T13:45:10Z</time>
      </trkpt>
      <trkpt lat="43.49788" lon="6.67245">
        <ele>88.1</ele>
        <time>2025-10-26T13:45:11Z</time>
      </trkpt>
      <trkpt lat="43.49788" lon="6.67244">
        <ele>88.3</ele>
        <time>2025-10-26T13:45:12Z</time>
      </trkpt>
      <trkpt lat="43.49787" lon="6.67242">
        <ele>88.3</ele>
        <time>2025-10-26T13:45:13Z</time>
      </trkpt>
      <trkpt lat="43.49787" lon="6.67241">
        <ele>88.3</ele>
        <time>2025-10-26T13:45:14Z</time>
      </trkpt>
      <trkpt lat="43.49787" lon="6.67239">
        <ele>88.4</ele>
        <time>2025-10-26T13:45:15Z</time>
      </trkpt>
      <trkpt lat="43.49787" lon="6.67238">
        <ele>88.4</ele>
        <time>2025-10-26T13:45:16Z</time>
      </trkpt>
      <trkpt lat="43.49786" lon="6.67236">
        <ele>88.4</ele>
        <time>2025-10-26T13:45:17Z</time>
      </trkpt>
      <trkpt lat="43.49786" lon="6.67235">
        <ele>88.4</ele>
        <time>2025-10-26T13:45:18Z</time>
      </trkpt>
      <trkpt lat="43.49785" lon="6.67233">
        <ele>88.2</ele>
        <time>2025-10-26T13:45:19Z</time>
      </trkpt>
      <trkpt lat="43.49784" lon="6.67232">
        <ele>88.2</ele>
        <time>2025-10-26T13:45:20Z</time>
      </trkpt>
      <trkpt lat="43.49784" lon="6.6723">
        <ele>88.1</ele>
        <time>2025-10-26T13:45:21Z</time>
      </trkpt>
      <trkpt lat="43.49783" lon="6.67229">
        <ele>87.9</ele>
        <time>2025-10-26T13:45:22Z</time>
      </trkpt>
      <trkpt lat="43.49783" lon="6.67227">
        <ele>87.8</ele>
        <time>2025-10-26T13:45:23Z</time>
      </trkpt>
      <trkpt lat="43.49782" lon="6.67226">
        <ele>87.8</ele>
        <time>2025-10-26T13:45:24Z</time>
      </trkpt>
      <trkpt lat="43.49781" lon="6.67225">
        <ele>87.9</ele>
        <time>2025-10-26T13:45:25Z</time>
      </trkpt>
      <trkpt lat="43.49781" lon="6.67224">
        <ele>87.9</ele>
        <time>2025-10-26T13:45:26Z</time>
      </trkpt>
      <trkpt lat="43.49781" lon="6.67222">
        <ele>87.9</ele>
        <time>2025-10-26T13:45:27Z</time>
      </trkpt>
      <trkpt lat="43.4978" lon="6.67221">
        <ele>88.1</ele>
        <time>2025-10-26T13:45:28Z</time>
      </trkpt>
      <trkpt lat="43.4978" lon="6.67219">
        <ele>88.1</ele>
        <time>2025-10-26T13:45:29Z</time>
      </trkpt>
      <trkpt lat="43.49779" lon="6.67218">
        <ele>88.1</ele>
        <time>2025-10-26T13:45:30Z</time>
      </trkpt>
      <trkpt lat="43.49778" lon="6.67217">
        <ele>88</ele>
        <time>2025-10-26T13:45:31Z</time>
      </trkpt>
      <trkpt lat="43.49777" lon="6.67215">
        <ele>88.1</ele>
        <time>2025-10-26T13:45:32Z</time>
      </trkpt>
      <trkpt lat="43.49777" lon="6.67214">
        <ele>88</ele>
        <time>2025-10-26T13:45:33Z</time>
      </trkpt>
      <trkpt lat="43.49776" lon="6.67213">
        <ele>88</ele>
        <time>2025-10-26T13:45:34Z</time>
      </trkpt>
      <trkpt lat="43.49775" lon="6.67211">
        <ele>88</ele>
        <time>2025-10-26T13:45:35Z</time>
      </trkpt>
      <trkpt lat="43.49775" lon="6.6721">
        <ele>88.1</ele>
        <time>2025-10-26T13:45:36Z</time>
      </trkpt>
      <trkpt lat="43.49774" lon="6.67209">
        <ele>88.2</ele>
        <time>2025-10-26T13:45:37Z</time>
      </trkpt>
      <trkpt lat="43.49773" lon="6.67207">
        <ele>88.3</ele>
        <time>2025-10-26T13:45:38Z</time>
      </trkpt>
      <trkpt lat="43.49772" lon="6.67206">
        <ele>88.5</ele>
        <time>2025-10-26T13:45:39Z</time>
      </trkpt>
      <trkpt lat="43.49772" lon="6.67205">
        <ele>88.5</ele>
        <time>2025-10-26T13:45:40Z</time>
      </trkpt>
      <trkpt lat="43.49771" lon="6.67204">
        <ele>88.5</ele>
        <time>2025-10-26T13:45:41Z</time>
      </trkpt>
      <trkpt lat="43.49771" lon="6.67202">
        <ele>88.4</ele>
        <time>2025-10-26T13:45:42Z</time>
      </trkpt>
      <trkpt lat="43.4977" lon="6.67201">
        <ele>88.1</ele>
        <time>2025-10-26T13:45:43Z</time>
      </trkpt>
      <trkpt lat="43.49769" lon="6.672">
        <ele>87.8</ele>
        <time>2025-10-26T13:45:44Z</time>
      </trkpt>
      <trkpt lat="43.49769" lon="6.67199">
        <ele>87.6</ele>
        <time>2025-10-26T13:45:45Z</time>
      </trkpt>
      <trkpt lat="43.49768" lon="6.67197">
        <ele>87.4</ele>
        <time>2025-10-26T13:45:46Z</time>
      </trkpt>
      <trkpt lat="43.49768" lon="6.67196">
        <ele>87.7</ele>
        <time>2025-10-26T13:45:47Z</time>
      </trkpt>
      <trkpt lat="43.49767" lon="6.67195">
        <ele>87.7</ele>
        <time>2025-10-26T13:45:48Z</time>
      </trkpt>
      <trkpt lat="43.49767" lon="6.67193">
        <ele>87.7</ele>
        <time>2025-10-26T13:45:49Z</time>
      </trkpt>
      <trkpt lat="43.49766" lon="6.67192">
        <ele>88</ele>
        <time>2025-10-26T13:45:50Z</time>
      </trkpt>
      <trkpt lat="43.49766" lon="6.6719">
        <ele>88.4</ele>
        <time>2025-10-26T13:45:51Z</time>
      </trkpt>
      <trkpt lat="43.49765" lon="6.67188">
        <ele>88.7</ele>
        <time>2025-10-26T13:45:52Z</time>
      </trkpt>
      <trkpt lat="43.49765" lon="6.67187">
        <ele>88.8</ele>
        <time>2025-10-26T13:45:53Z</time>
      </trkpt>
      <trkpt lat="43.49764" lon="6.67185">
        <ele>88.9</ele>
        <time>2025-10-26T13:45:54Z</time>
      </trkpt>
      <trkpt lat="43.49763" lon="6.67184">
        <ele>88.9</ele>
        <time>2025-10-26T13:45:55Z</time>
      </trkpt>
      <trkpt lat="43.49763" lon="6.67183">
        <ele>88.9</ele>
        <time>2025-10-26T13:45:56Z</time>
      </trkpt>
      <trkpt lat="43.49763" lon="6.67181">
        <ele>88.9</ele>
        <time>2025-10-26T13:45:57Z</time>
      </trkpt>
      <trkpt lat="43.49763" lon="6.6718">
        <ele>88.8</ele>
        <time>2025-10-26T13:45:58Z</time>
      </trkpt>
      <trkpt lat="43.49763" lon="6.67178">
        <ele>88.7</ele>
        <time>2025-10-26T13:45:59Z</time>
      </trkpt>
      <trkpt lat="43.49762" lon="6.67177">
        <ele>88.6</ele>
        <time>2025-10-26T13:46:00Z</time>
      </trkpt>
      <trkpt lat="43.49762" lon="6.67175">
        <ele>88.5</ele>
        <time>2025-10-26T13:46:01Z</time>
      </trkpt>
      <trkpt lat="43.49762" lon="6.67174">
        <ele>88.4</ele>
        <time>2025-10-26T13:46:02Z</time>
      </trkpt>
      <trkpt lat="43.49761" lon="6.67172">
        <ele>88.3</ele>
        <time>2025-10-26T13:46:03Z</time>
      </trkpt>
      <trkpt lat="43.49761" lon="6.67171">
        <ele>88.3</ele>
        <time>2025-10-26T13:46:04Z</time>
      </trkpt>
      <trkpt lat="43.4976" lon="6.67169">
        <ele>88.3</ele>
        <time>2025-10-26T13:46:05Z</time>
      </trkpt>
      <trkpt lat="43.49759" lon="6.67168">
        <ele>88.2</ele>
        <time>2025-10-26T13:46:06Z</time>
      </trkpt>
      <trkpt lat="43.49759" lon="6.67166">
        <ele>88.2</ele>
        <time>2025-10-26T13:46:07Z</time>
      </trkpt>
      <trkpt lat="43.49758" lon="6.67164">
        <ele>88.2</ele>
        <time>2025-10-26T13:46:08Z</time>
      </trkpt>
      <trkpt lat="43.49758" lon="6.67163">
        <ele>88.2</ele>
        <time>2025-10-26T13:46:09Z</time>
      </trkpt>
      <trkpt lat="43.49757" lon="6.67161">
        <ele>88.2</ele>
        <time>2025-10-26T13:46:10Z</time>
      </trkpt>
      <trkpt lat="43.49757" lon="6.6716">
        <ele>88.3</ele>
        <time>2025-10-26T13:46:11Z</time>
      </trkpt>
      <trkpt lat="43.49757" lon="6.67159">
        <ele>88.4</ele>
        <time>2025-10-26T13:46:12Z</time>
      </trkpt>
      <trkpt lat="43.49756" lon="6.67157">
        <ele>88.5</ele>
        <time>2025-10-26T13:46:13Z</time>
      </trkpt>
      <trkpt lat="43.49756" lon="6.67156">
        <ele>88.7</ele>
        <time>2025-10-26T13:46:14Z</time>
      </trkpt>
      <trkpt lat="43.49755" lon="6.67154">
        <ele>88.4</ele>
        <time>2025-10-26T13:46:15Z</time>
      </trkpt>
      <trkpt lat="43.49755" lon="6.67153">
        <ele>88.4</ele>
        <time>2025-10-26T13:46:16Z</time>
      </trkpt>
      <trkpt lat="43.49754" lon="6.67151">
        <ele>88.1</ele>
        <time>2025-10-26T13:46:17Z</time>
      </trkpt>
      <trkpt lat="43.49754" lon="6.67149">
        <ele>88</ele>
        <time>2025-10-26T13:46:18Z</time>
      </trkpt>
      <trkpt lat="43.49753" lon="6.67147">
        <ele>87.8</ele>
        <time>2025-10-26T13:46:19Z</time>
      </trkpt>
      <trkpt lat="43.49753" lon="6.67146">
        <ele>87.7</ele>
        <time>2025-10-26T13:46:20Z</time>
      </trkpt>
      <trkpt lat="43.49753" lon="6.67144">
        <ele>87.8</ele>
        <time>2025-10-26T13:46:21Z</time>
      </trkpt>
      <trkpt lat="43.49752" lon="6.67143">
        <ele>88.1</ele>
        <time>2025-10-26T13:46:22Z</time>
      </trkpt>
      <trkpt lat="43.49752" lon="6.67141">
        <ele>88.4</ele>
        <time>2025-10-26T13:46:23Z</time>
      </trkpt>
      <trkpt lat="43.49752" lon="6.67139">
        <ele>88.6</ele>
        <time>2025-10-26T13:46:24Z</time>
      </trkpt>
      <trkpt lat="43.49751" lon="6.67138">
        <ele>88.8</ele>
        <time>2025-10-26T13:46:25Z</time>
      </trkpt>
      <trkpt lat="43.49751" lon="6.67136">
        <ele>88.8</ele>
        <time>2025-10-26T13:46:26Z</time>
      </trkpt>
      <trkpt lat="43.49751" lon="6.67134">
        <ele>88.8</ele>
        <time>2025-10-26T13:46:27Z</time>
      </trkpt>
      <trkpt lat="43.4975" lon="6.67132">
        <ele>88.8</ele>
        <time>2025-10-26T13:46:28Z</time>
      </trkpt>
      <trkpt lat="43.4975" lon="6.6713">
        <ele>88.8</ele>
        <time>2025-10-26T13:46:29Z</time>
      </trkpt>
      <trkpt lat="43.4975" lon="6.67129">
        <ele>88.9</ele>
        <time>2025-10-26T13:46:30Z</time>
      </trkpt>
      <trkpt lat="43.49749" lon="6.67127">
        <ele>88.9</ele>
        <time>2025-10-26T13:46:31Z</time>
      </trkpt>
      <trkpt lat="43.49749" lon="6.67125">
        <ele>88.9</ele>
        <time>2025-10-26T13:46:32Z</time>
      </trkpt>
      <trkpt lat="43.49748" lon="6.67124">
        <ele>88.8</ele>
        <time>2025-10-26T13:46:33Z</time>
      </trkpt>
      <trkpt lat="43.49748" lon="6.67122">
        <ele>88.8</ele>
        <time>2025-10-26T13:46:34Z</time>
      </trkpt>
      <trkpt lat="43.49748" lon="6.67121">
        <ele>88.9</ele>
        <time>2025-10-26T13:46:35Z</time>
      </trkpt>
      <trkpt lat="43.49747" lon="6.67119">
        <ele>88.9</ele>
        <time>2025-10-26T13:46:36Z</time>
      </trkpt>
      <trkpt lat="43.49747" lon="6.67117">
        <ele>89</ele>
        <time>2025-10-26T13:46:37Z</time>
      </trkpt>
      <trkpt lat="43.49747" lon="6.67115">
        <ele>89</ele>
        <time>2025-10-26T13:46:38Z</time>
      </trkpt>
      <trkpt lat="43.49746" lon="6.67113">
        <ele>89.2</ele>
        <time>2025-10-26T13:46:39Z</time>
      </trkpt>
      <trkpt lat="43.49746" lon="6.67112">
        <ele>89.5</ele>
        <time>2025-10-26T13:46:40Z</time>
      </trkpt>
      <trkpt lat="43.49746" lon="6.6711">
        <ele>89.7</ele>
        <time>2025-10-26T13:46:41Z</time>
      </trkpt>
      <trkpt lat="43.49745" lon="6.67108">
        <ele>90</ele>
        <time>2025-10-26T13:46:42Z</time>
      </trkpt>
      <trkpt lat="43.49745" lon="6.67107">
        <ele>90.1</ele>
        <time>2025-10-26T13:46:43Z</time>
      </trkpt>
      <trkpt lat="43.49744" lon="6.67105">
        <ele>90</ele>
        <time>2025-10-26T13:46:44Z</time>
      </trkpt>
      <trkpt lat="43.49744" lon="6.67104">
        <ele>90</ele>
        <time>2025-10-26T13:46:45Z</time>
      </trkpt>
      <trkpt lat="43.49743" lon="6.67102">
        <ele>90</ele>
        <time>2025-10-26T13:46:46Z</time>
      </trkpt>
      <trkpt lat="43.49743" lon="6.671">
        <ele>89.8</ele>
        <time>2025-10-26T13:46:47Z</time>
      </trkpt>
      <trkpt lat="43.49742" lon="6.67099">
        <ele>89.9</ele>
        <time>2025-10-26T13:46:48Z</time>
      </trkpt>
      <trkpt lat="43.49742" lon="6.67098">
        <ele>89.9</ele>
        <time>2025-10-26T13:46:49Z</time>
      </trkpt>
      <trkpt lat="43.49741" lon="6.67096">
        <ele>90</ele>
        <time>2025-10-26T13:46:50Z</time>
      </trkpt>
      <trkpt lat="43.49741" lon="6.67094">
        <ele>90.1</ele>
        <time>2025-10-26T13:46:51Z</time>
      </trkpt>
      <trkpt lat="43.4974" lon="6.67093">
        <ele>90.2</ele>
        <time>2025-10-26T13:46:52Z</time>
      </trkpt>
      <trkpt lat="43.49739" lon="6.67091">
        <ele>90.3</ele>
        <time>2025-10-26T13:46:53Z</time>
      </trkpt>
      <trkpt lat="43.49739" lon="6.67089">
        <ele>90.2</ele>
        <time>2025-10-26T13:46:54Z</time>
      </trkpt>
      <trkpt lat="43.49738" lon="6.67088">
        <ele>90.2</ele>
        <time>2025-10-26T13:46:55Z</time>
      </trkpt>
      <trkpt lat="43.49738" lon="6.67086">
        <ele>90.2</ele>
        <time>2025-10-26T13:46:56Z</time>
      </trkpt>
      <trkpt lat="43.49737" lon="6.67084">
        <ele>90</ele>
        <time>2025-10-26T13:46:57Z</time>
      </trkpt>
      <trkpt lat="43.49737" lon="6.67083">
        <ele>89.9</ele>
        <time>2025-10-26T13:46:58Z</time>
      </trkpt>
      <trkpt lat="43.49736" lon="6.67081">
        <ele>89.9</ele>
        <time>2025-10-26T13:46:59Z</time>
      </trkpt>
      <trkpt lat="43.49735" lon="6.67079">
        <ele>89.8</ele>
        <time>2025-10-26T13:47:00Z</time>
      </trkpt>
      <trkpt lat="43.49735" lon="6.67078">
        <ele>89.7</ele>
        <time>2025-10-26T13:47:01Z</time>
      </trkpt>
      <trkpt lat="43.49734" lon="6.67076">
        <ele>89.7</ele>
        <time>2025-10-26T13:47:02Z</time>
      </trkpt>
      <trkpt lat="43.49734" lon="6.67075">
        <ele>89.8</ele>
        <time>2025-10-26T13:47:03Z</time>
      </trkpt>
      <trkpt lat="43.49733" lon="6.67073">
        <ele>89.8</ele>
        <time>2025-10-26T13:47:04Z</time>
      </trkpt>
      <trkpt lat="43.49732" lon="6.67072">
        <ele>89.8</ele>
        <time>2025-10-26T13:47:05Z</time>
      </trkpt>
      <trkpt lat="43.49731" lon="6.67071">
        <ele>89.9</ele>
        <time>2025-10-26T13:47:06Z</time>
      </trkpt>
      <trkpt lat="43.49731" lon="6.67069">
        <ele>89.9</ele>
        <time>2025-10-26T13:47:07Z</time>
      </trkpt>
      <trkpt lat="43.4973" lon="6.67068">
        <ele>89.8</ele>
        <time>2025-10-26T13:47:08Z</time>
      </trkpt>
      <trkpt lat="43.4973" lon="6.67066">
        <ele>89.8</ele>
        <time>2025-10-26T13:47:09Z</time>
      </trkpt>
      <trkpt lat="43.4973" lon="6.67065">
        <ele>89.8</ele>
        <time>2025-10-26T13:47:10Z</time>
      </trkpt>
      <trkpt lat="43.49731" lon="6.67063">
        <ele>89.8</ele>
        <time>2025-10-26T13:47:11Z</time>
      </trkpt>
      <trkpt lat="43.49731" lon="6.67061">
        <ele>89.8</ele>
        <time>2025-10-26T13:47:12Z</time>
      </trkpt>
      <trkpt lat="43.49731" lon="6.6706">
        <ele>89.8</ele>
        <time>2025-10-26T13:47:13Z</time>
      </trkpt>
      <trkpt lat="43.49731" lon="6.67058">
        <ele>89.7</ele>
        <time>2025-10-26T13:47:14Z</time>
      </trkpt>
      <trkpt lat="43.49731" lon="6.67057">
        <ele>89.7</ele>
        <time>2025-10-26T13:47:15Z</time>
      </trkpt>
      <trkpt lat="43.49731" lon="6.67055">
        <ele>89.8</ele>
        <time>2025-10-26T13:47:16Z</time>
      </trkpt>
      <trkpt lat="43.49731" lon="6.67053">
        <ele>89.8</ele>
        <time>2025-10-26T13:47:17Z</time>
      </trkpt>
      <trkpt lat="43.49731" lon="6.67052">
        <ele>89.9</ele>
        <time>2025-10-26T13:47:18Z</time>
      </trkpt>
      <trkpt lat="43.49731" lon="6.6705">
        <ele>89.9</ele>
        <time>2025-10-26T13:47:19Z</time>
      </trkpt>
      <trkpt lat="43.4973" lon="6.67049">
        <ele>89.8</ele>
        <time>2025-10-26T13:47:20Z</time>
      </trkpt>
      <trkpt lat="43.4973" lon="6.67047">
        <ele>89.9</ele>
        <time>2025-10-26T13:47:21Z</time>
      </trkpt>
      <trkpt lat="43.49729" lon="6.67046">
        <ele>90</ele>
        <time>2025-10-26T13:47:22Z</time>
      </trkpt>
      <trkpt lat="43.49728" lon="6.67045">
        <ele>90</ele>
        <time>2025-10-26T13:47:23Z</time>
      </trkpt>
      <trkpt lat="43.49727" lon="6.67043">
        <ele>89.8</ele>
        <time>2025-10-26T13:47:24Z</time>
      </trkpt>
      <trkpt lat="43.49726" lon="6.67042">
        <ele>89.8</ele>
        <time>2025-10-26T13:47:25Z</time>
      </trkpt>
      <trkpt lat="43.49724" lon="6.67041">
        <ele>89.8</ele>
        <time>2025-10-26T13:47:26Z</time>
      </trkpt>
      <trkpt lat="43.49723" lon="6.6704">
        <ele>89.8</ele>
        <time>2025-10-26T13:47:27Z</time>
      </trkpt>
      <trkpt lat="43.49722" lon="6.67038">
        <ele>89.7</ele>
        <time>2025-10-26T13:47:28Z</time>
      </trkpt>
      <trkpt lat="43.49721" lon="6.67037">
        <ele>89.7</ele>
        <time>2025-10-26T13:47:29Z</time>
      </trkpt>
      <trkpt lat="43.4972" lon="6.67037">
        <ele>89.6</ele>
        <time>2025-10-26T13:47:30Z</time>
      </trkpt>
      <trkpt lat="43.49718" lon="6.67036">
        <ele>89.7</ele>
        <time>2025-10-26T13:47:31Z</time>
      </trkpt>
      <trkpt lat="43.49718" lon="6.67035">
        <ele>89.8</ele>
        <time>2025-10-26T13:47:32Z</time>
      </trkpt>
      <trkpt lat="43.49717" lon="6.67034">
        <ele>90.1</ele>
        <time>2025-10-26T13:47:33Z</time>
      </trkpt>
      <trkpt lat="43.49716" lon="6.67033">
        <ele>90.2</ele>
        <time>2025-10-26T13:47:34Z</time>
      </trkpt>
      <trkpt lat="43.49716" lon="6.67032">
        <ele>90.4</ele>
        <time>2025-10-26T13:47:35Z</time>
      </trkpt>
      <trkpt lat="43.49715" lon="6.67031">
        <ele>90.4</ele>
        <time>2025-10-26T13:47:36Z</time>
      </trkpt>
      <trkpt lat="43.49714" lon="6.67029">
        <ele>90.4</ele>
        <time>2025-10-26T13:47:37Z</time>
      </trkpt>
      <trkpt lat="43.49713" lon="6.67029">
        <ele>90.4</ele>
        <time>2025-10-26T13:47:38Z</time>
      </trkpt>
      <trkpt lat="43.49712" lon="6.67028">
        <ele>90.4</ele>
        <time>2025-10-26T13:47:39Z</time>
      </trkpt>
      <trkpt lat="43.49712" lon="6.67027">
        <ele>90.3</ele>
        <time>2025-10-26T13:47:40Z</time>
      </trkpt>
      <trkpt lat="43.49711" lon="6.67026">
        <ele>90.3</ele>
        <time>2025-10-26T13:47:41Z</time>
      </trkpt>
      <trkpt lat="43.4971" lon="6.67025">
        <ele>90.2</ele>
        <time>2025-10-26T13:47:42Z</time>
      </trkpt>
      <trkpt lat="43.49708" lon="6.67024">
        <ele>90.2</ele>
        <time>2025-10-26T13:47:43Z</time>
      </trkpt>
      <trkpt lat="43.49707" lon="6.67023">
        <ele>90.1</ele>
        <time>2025-10-26T13:47:44Z</time>
      </trkpt>
      <trkpt lat="43.49706" lon="6.67022">
        <ele>90.1</ele>
        <time>2025-10-26T13:47:45Z</time>
      </trkpt>
      <trkpt lat="43.49705" lon="6.67021">
        <ele>90</ele>
        <time>2025-10-26T13:47:46Z</time>
      </trkpt>
      <trkpt lat="43.49703" lon="6.6702">
        <ele>90</ele>
        <time>2025-10-26T13:47:47Z</time>
      </trkpt>
      <trkpt lat="43.49703" lon="6.67019">
        <ele>89.9</ele>
        <time>2025-10-26T13:47:48Z</time>
      </trkpt>
      <trkpt lat="43.49702" lon="6.67019">
        <ele>89.8</ele>
        <time>2025-10-26T13:47:49Z</time>
      </trkpt>
      <trkpt lat="43.49701" lon="6.67018">
        <ele>89.7</ele>
        <time>2025-10-26T13:47:50Z</time>
      </trkpt>
      <trkpt lat="43.497" lon="6.67017">
        <ele>89.6</ele>
        <time>2025-10-26T13:47:51Z</time>
      </trkpt>
      <trkpt lat="43.49699" lon="6.67016">
        <ele>89.7</ele>
        <time>2025-10-26T13:47:52Z</time>
      </trkpt>
      <trkpt lat="43.49698" lon="6.67014">
        <ele>89.7</ele>
        <time>2025-10-26T13:47:53Z</time>
      </trkpt>
      <trkpt lat="43.49697" lon="6.67013">
        <ele>89.8</ele>
        <time>2025-10-26T13:47:54Z</time>
      </trkpt>
      <trkpt lat="43.49696" lon="6.67012">
        <ele>89.7</ele>
        <time>2025-10-26T13:47:55Z</time>
      </trkpt>
      <trkpt lat="43.49695" lon="6.67011">
        <ele>89.8</ele>
        <time>2025-10-26T13:47:56Z</time>
      </trkpt>
      <trkpt lat="43.49694" lon="6.67009">
        <ele>89.8</ele>
        <time>2025-10-26T13:47:57Z</time>
      </trkpt>
      <trkpt lat="43.49693" lon="6.67008">
        <ele>89.9</ele>
        <time>2025-10-26T13:47:58Z</time>
      </trkpt>
      <trkpt lat="43.49692" lon="6.67007">
        <ele>90</ele>
        <time>2025-10-26T13:47:59Z</time>
      </trkpt>
      <trkpt lat="43.49691" lon="6.67006">
        <ele>90.1</ele>
        <time>2025-10-26T13:48:00Z</time>
      </trkpt>
      <trkpt lat="43.4969" lon="6.67005">
        <ele>90.3</ele>
        <time>2025-10-26T13:48:01Z</time>
      </trkpt>
      <trkpt lat="43.4969" lon="6.67004">
        <ele>90.2</ele>
        <time>2025-10-26T13:48:02Z</time>
      </trkpt>
      <trkpt lat="43.49689" lon="6.67003">
        <ele>90.2</ele>
        <time>2025-10-26T13:48:03Z</time>
      </trkpt>
      <trkpt lat="43.49688" lon="6.67002">
        <ele>90.1</ele>
        <time>2025-10-26T13:48:04Z</time>
      </trkpt>
      <trkpt lat="43.49687" lon="6.67">
        <ele>90</ele>
        <time>2025-10-26T13:48:05Z</time>
      </trkpt>
      <trkpt lat="43.49687" lon="6.66999">
        <ele>90</ele>
        <time>2025-10-26T13:48:06Z</time>
      </trkpt>
      <trkpt lat="43.49686" lon="6.66998">
        <ele>90</ele>
        <time>2025-10-26T13:48:07Z</time>
      </trkpt>
      <trkpt lat="43.49685" lon="6.66997">
        <ele>90.1</ele>
        <time>2025-10-26T13:48:08Z</time>
      </trkpt>
      <trkpt lat="43.49684" lon="6.66996">
        <ele>90.1</ele>
        <time>2025-10-26T13:48:09Z</time>
      </trkpt>
      <trkpt lat="43.49683" lon="6.66995">
        <ele>90.1</ele>
        <time>2025-10-26T13:48:10Z</time>
      </trkpt>
      <trkpt lat="43.49682" lon="6.66994">
        <ele>90.1</ele>
        <time>2025-10-26T13:48:11Z</time>
      </trkpt>
      <trkpt lat="43.49681" lon="6.66993">
        <ele>90.2</ele>
        <time>2025-10-26T13:48:12Z</time>
      </trkpt>
      <trkpt lat="43.49681" lon="6.66992">
        <ele>90.4</ele>
        <time>2025-10-26T13:48:13Z</time>
      </trkpt>
      <trkpt lat="43.4968" lon="6.66991">
        <ele>90.5</ele>
        <time>2025-10-26T13:48:14Z</time>
      </trkpt>
      <trkpt lat="43.49679" lon="6.66989">
        <ele>90.6</ele>
        <time>2025-10-26T13:48:15Z</time>
      </trkpt>
      <trkpt lat="43.49678" lon="6.66988">
        <ele>90.7</ele>
        <time>2025-10-26T13:48:16Z</time>
      </trkpt>
      <trkpt lat="43.49677" lon="6.66987">
        <ele>90.7</ele>
        <time>2025-10-26T13:48:17Z</time>
      </trkpt>
      <trkpt lat="43.49676" lon="6.66986">
        <ele>90.7</ele>
        <time>2025-10-26T13:48:18Z</time>
      </trkpt>
      <trkpt lat="43.49675" lon="6.66985">
        <ele>90.8</ele>
        <time>2025-10-26T13:48:19Z</time>
      </trkpt>
      <trkpt lat="43.49674" lon="6.66984">
        <ele>90.8</ele>
        <time>2025-10-26T13:48:20Z</time>
      </trkpt>
      <trkpt lat="43.49673" lon="6.66983">
        <ele>90.7</ele>
        <time>2025-10-26T13:48:21Z</time>
      </trkpt>
      <trkpt lat="43.49672" lon="6.66982">
        <ele>90.6</ele>
        <time>2025-10-26T13:48:22Z</time>
      </trkpt>
      <trkpt lat="43.49671" lon="6.6698">
        <ele>90.4</ele>
        <time>2025-10-26T13:48:23Z</time>
      </trkpt>
      <trkpt lat="43.49671" lon="6.66979">
        <ele>90.2</ele>
        <time>2025-10-26T13:48:24Z</time>
      </trkpt>
      <trkpt lat="43.4967" lon="6.66978">
        <ele>90</ele>
        <time>2025-10-26T13:48:25Z</time>
      </trkpt>
      <trkpt lat="43.49669" lon="6.66977">
        <ele>89.9</ele>
        <time>2025-10-26T13:48:26Z</time>
      </trkpt>
      <trkpt lat="43.49668" lon="6.66976">
        <ele>89.7</ele>
        <time>2025-10-26T13:48:27Z</time>
      </trkpt>
      <trkpt lat="43.49667" lon="6.66975">
        <ele>89.6</ele>
        <time>2025-10-26T13:48:28Z</time>
      </trkpt>
      <trkpt lat="43.49666" lon="6.66974">
        <ele>89.6</ele>
        <time>2025-10-26T13:48:29Z</time>
      </trkpt>
      <trkpt lat="43.49665" lon="6.66973">
        <ele>89.7</ele>
        <time>2025-10-26T13:48:30Z</time>
      </trkpt>
      <trkpt lat="43.49664" lon="6.66972">
        <ele>89.8</ele>
        <time>2025-10-26T13:48:31Z</time>
      </trkpt>
      <trkpt lat="43.49663" lon="6.66971">
        <ele>89.9</ele>
        <time>2025-10-26T13:48:32Z</time>
      </trkpt>
      <trkpt lat="43.49662" lon="6.66969">
        <ele>90</ele>
        <time>2025-10-26T13:48:33Z</time>
      </trkpt>
      <trkpt lat="43.49661" lon="6.66969">
        <ele>90.1</ele>
        <time>2025-10-26T13:48:34Z</time>
      </trkpt>
      <trkpt lat="43.4966" lon="6.66968">
        <ele>90.2</ele>
        <time>2025-10-26T13:48:35Z</time>
      </trkpt>
      <trkpt lat="43.49659" lon="6.66967">
        <ele>90.3</ele>
        <time>2025-10-26T13:48:36Z</time>
      </trkpt>
      <trkpt lat="43.49658" lon="6.66966">
        <ele>90.4</ele>
        <time>2025-10-26T13:48:37Z</time>
      </trkpt>
      <trkpt lat="43.49657" lon="6.66965">
        <ele>90.4</ele>
        <time>2025-10-26T13:48:38Z</time>
      </trkpt>
      <trkpt lat="43.49656" lon="6.66964">
        <ele>90.3</ele>
        <time>2025-10-26T13:48:39Z</time>
      </trkpt>
      <trkpt lat="43.49655" lon="6.66963">
        <ele>90.2</ele>
        <time>2025-10-26T13:48:40Z</time>
      </trkpt>
      <trkpt lat="43.49654" lon="6.66962">
        <ele>90.4</ele>
        <time>2025-10-26T13:48:41Z</time>
      </trkpt>
      <trkpt lat="43.49653" lon="6.6696">
        <ele>90.5</ele>
        <time>2025-10-26T13:48:42Z</time>
      </trkpt>
      <trkpt lat="43.49652" lon="6.6696">
        <ele>91</ele>
        <time>2025-10-26T13:48:43Z</time>
      </trkpt>
      <trkpt lat="43.49651" lon="6.66959">
        <ele>91.2</ele>
        <time>2025-10-26T13:48:44Z</time>
      </trkpt>
      <trkpt lat="43.4965" lon="6.66958">
        <ele>91.1</ele>
        <time>2025-10-26T13:48:45Z</time>
      </trkpt>
      <trkpt lat="43.49649" lon="6.66957">
        <ele>91.3</ele>
        <time>2025-10-26T13:48:46Z</time>
      </trkpt>
      <trkpt lat="43.49648" lon="6.66956">
        <ele>91.2</ele>
        <time>2025-10-26T13:48:47Z</time>
      </trkpt>
      <trkpt lat="43.49647" lon="6.66954">
        <ele>91</ele>
        <time>2025-10-26T13:48:48Z</time>
      </trkpt>
      <trkpt lat="43.49647" lon="6.66953">
        <ele>90.8</ele>
        <time>2025-10-26T13:48:49Z</time>
      </trkpt>
      <trkpt lat="43.49646" lon="6.66952">
        <ele>90.5</ele>
        <time>2025-10-26T13:48:50Z</time>
      </trkpt>
      <trkpt lat="43.49645" lon="6.66951">
        <ele>90.4</ele>
        <time>2025-10-26T13:48:51Z</time>
      </trkpt>
      <trkpt lat="43.49644" lon="6.6695">
        <ele>90.4</ele>
        <time>2025-10-26T13:48:52Z</time>
      </trkpt>
      <trkpt lat="43.49643" lon="6.66949">
        <ele>90.6</ele>
        <time>2025-10-26T13:48:53Z</time>
      </trkpt>
      <trkpt lat="43.49642" lon="6.66948">
        <ele>90.6</ele>
        <time>2025-10-26T13:48:54Z</time>
      </trkpt>
      <trkpt lat="43.49641" lon="6.66947">
        <ele>90.7</ele>
        <time>2025-10-26T13:48:55Z</time>
      </trkpt>
      <trkpt lat="43.4964" lon="6.66946">
        <ele>90.8</ele>
        <time>2025-10-26T13:48:56Z</time>
      </trkpt>
      <trkpt lat="43.4964" lon="6.66945">
        <ele>90.9</ele>
        <time>2025-10-26T13:48:57Z</time>
      </trkpt>
      <trkpt lat="43.49639" lon="6.66944">
        <ele>90.9</ele>
        <time>2025-10-26T13:48:58Z</time>
      </trkpt>
      <trkpt lat="43.49638" lon="6.66943">
        <ele>90.9</ele>
        <time>2025-10-26T13:48:59Z</time>
      </trkpt>
      <trkpt lat="43.49637" lon="6.66942">
        <ele>90.8</ele>
        <time>2025-10-26T13:49:00Z</time>
      </trkpt>
      <trkpt lat="43.49636" lon="6.66941">
        <ele>90.9</ele>
        <time>2025-10-26T13:49:01Z</time>
      </trkpt>
      <trkpt lat="43.49635" lon="6.6694">
        <ele>90.9</ele>
        <time>2025-10-26T13:49:02Z</time>
      </trkpt>
      <trkpt lat="43.49634" lon="6.66939">
        <ele>90.9</ele>
        <time>2025-10-26T13:49:03Z</time>
      </trkpt>
      <trkpt lat="43.49633" lon="6.66938">
        <ele>90.9</ele>
        <time>2025-10-26T13:49:04Z</time>
      </trkpt>
      <trkpt lat="43.49632" lon="6.66937">
        <ele>90.9</ele>
        <time>2025-10-26T13:49:05Z</time>
      </trkpt>
      <trkpt lat="43.49631" lon="6.66935">
        <ele>90.9</ele>
        <time>2025-10-26T13:49:06Z</time>
      </trkpt>
      <trkpt lat="43.49631" lon="6.66934">
        <ele>91</ele>
        <time>2025-10-26T13:49:07Z</time>
      </trkpt>
      <trkpt lat="43.4963" lon="6.66933">
        <ele>91</ele>
        <time>2025-10-26T13:49:08Z</time>
      </trkpt>
      <trkpt lat="43.49629" lon="6.66932">
        <ele>91</ele>
        <time>2025-10-26T13:49:09Z</time>
      </trkpt>
      <trkpt lat="43.49628" lon="6.66931">
        <ele>90.8</ele>
        <time>2025-10-26T13:49:10Z</time>
      </trkpt>
      <trkpt lat="43.49627" lon="6.6693">
        <ele>90.9</ele>
        <time>2025-10-26T13:49:11Z</time>
      </trkpt>
      <trkpt lat="43.49626" lon="6.66929">
        <ele>91.1</ele>
        <time>2025-10-26T13:49:12Z</time>
      </trkpt>
      <trkpt lat="43.49626" lon="6.66928">
        <ele>91.1</ele>
        <time>2025-10-26T13:49:13Z</time>
      </trkpt>
      <trkpt lat="43.49625" lon="6.66926">
        <ele>91.2</ele>
        <time>2025-10-26T13:49:14Z</time>
      </trkpt>
      <trkpt lat="43.49624" lon="6.66925">
        <ele>91.3</ele>
        <time>2025-10-26T13:49:15Z</time>
      </trkpt>
      <trkpt lat="43.49624" lon="6.66924">
        <ele>91.3</ele>
        <time>2025-10-26T13:49:16Z</time>
      </trkpt>
      <trkpt lat="43.49623" lon="6.66922">
        <ele>91.3</ele>
        <time>2025-10-26T13:49:17Z</time>
      </trkpt>
      <trkpt lat="43.49622" lon="6.66921">
        <ele>91.2</ele>
        <time>2025-10-26T13:49:18Z</time>
      </trkpt>
      <trkpt lat="43.49621" lon="6.6692">
        <ele>91.1</ele>
        <time>2025-10-26T13:49:19Z</time>
      </trkpt>
      <trkpt lat="43.4962" lon="6.66919">
        <ele>91.1</ele>
        <time>2025-10-26T13:49:20Z</time>
      </trkpt>
      <trkpt lat="43.49619" lon="6.66918">
        <ele>91</ele>
        <time>2025-10-26T13:49:21Z</time>
      </trkpt>
      <trkpt lat="43.49618" lon="6.66917">
        <ele>90.8</ele>
        <time>2025-10-26T13:49:22Z</time>
      </trkpt>
      <trkpt lat="43.49617" lon="6.66916">
        <ele>90.6</ele>
        <time>2025-10-26T13:49:23Z</time>
      </trkpt>
      <trkpt lat="43.49616" lon="6.66915">
        <ele>90.6</ele>
        <time>2025-10-26T13:49:24Z</time>
      </trkpt>
      <trkpt lat="43.49615" lon="6.66915">
        <ele>90.6</ele>
        <time>2025-10-26T13:49:25Z</time>
      </trkpt>
      <trkpt lat="43.49614" lon="6.66914">
        <ele>90.6</ele>
        <time>2025-10-26T13:49:26Z</time>
      </trkpt>
      <trkpt lat="43.49613" lon="6.66913">
        <ele>90.6</ele>
        <time>2025-10-26T13:49:27Z</time>
      </trkpt>
      <trkpt lat="43.49612" lon="6.66911">
        <ele>90.7</ele>
        <time>2025-10-26T13:49:28Z</time>
      </trkpt>
      <trkpt lat="43.49611" lon="6.6691">
        <ele>90.7</ele>
        <time>2025-10-26T13:49:29Z</time>
      </trkpt>
      <trkpt lat="43.4961" lon="6.66909">
        <ele>90.6</ele>
        <time>2025-10-26T13:49:30Z</time>
      </trkpt>
      <trkpt lat="43.4961" lon="6.66908">
        <ele>90.6</ele>
        <time>2025-10-26T13:49:31Z</time>
      </trkpt>
      <trkpt lat="43.49609" lon="6.66907">
        <ele>90.5</ele>
        <time>2025-10-26T13:49:32Z</time>
      </trkpt>
      <trkpt lat="43.49608" lon="6.66905">
        <ele>90.5</ele>
        <time>2025-10-26T13:49:33Z</time>
      </trkpt>
      <trkpt lat="43.49607" lon="6.66904">
        <ele>90.4</ele>
        <time>2025-10-26T13:49:34Z</time>
      </trkpt>
      <trkpt lat="43.49606" lon="6.66903">
        <ele>90.8</ele>
        <time>2025-10-26T13:49:35Z</time>
      </trkpt>
      <trkpt lat="43.49605" lon="6.66902">
        <ele>91.3</ele>
        <time>2025-10-26T13:49:36Z</time>
      </trkpt>
      <trkpt lat="43.49604" lon="6.669">
        <ele>91.6</ele>
        <time>2025-10-26T13:49:37Z</time>
      </trkpt>
      <trkpt lat="43.49603" lon="6.66899">
        <ele>91.9</ele>
        <time>2025-10-26T13:49:38Z</time>
      </trkpt>
      <trkpt lat="43.49602" lon="6.66898">
        <ele>92</ele>
        <time>2025-10-26T13:49:39Z</time>
      </trkpt>
      <trkpt lat="43.49602" lon="6.66897">
        <ele>92</ele>
        <time>2025-10-26T13:49:40Z</time>
      </trkpt>
      <trkpt lat="43.49601" lon="6.66896">
        <ele>91.8</ele>
        <time>2025-10-26T13:49:41Z</time>
      </trkpt>
      <trkpt lat="43.496" lon="6.66894">
        <ele>91.6</ele>
        <time>2025-10-26T13:49:42Z</time>
      </trkpt>
      <trkpt lat="43.49599" lon="6.66893">
        <ele>91.5</ele>
        <time>2025-10-26T13:49:43Z</time>
      </trkpt>
      <trkpt lat="43.49598" lon="6.66892">
        <ele>91.5</ele>
        <time>2025-10-26T13:49:44Z</time>
      </trkpt>
      <trkpt lat="43.49597" lon="6.6689">
        <ele>91.4</ele>
        <time>2025-10-26T13:49:45Z</time>
      </trkpt>
      <trkpt lat="43.49596" lon="6.66889">
        <ele>91.4</ele>
        <time>2025-10-26T13:49:46Z</time>
      </trkpt>
      <trkpt lat="43.49596" lon="6.66888">
        <ele>91.1</ele>
        <time>2025-10-26T13:49:47Z</time>
      </trkpt>
      <trkpt lat="43.49595" lon="6.66887">
        <ele>91</ele>
        <time>2025-10-26T13:49:48Z</time>
      </trkpt>
      <trkpt lat="43.49594" lon="6.66885">
        <ele>90.8</ele>
        <time>2025-10-26T13:49:49Z</time>
      </trkpt>
      <trkpt lat="43.49593" lon="6.66884">
        <ele>90.7</ele>
        <time>2025-10-26T13:49:50Z</time>
      </trkpt>
      <trkpt lat="43.49592" lon="6.66883">
        <ele>90.6</ele>
        <time>2025-10-26T13:49:51Z</time>
      </trkpt>
      <trkpt lat="43.49591" lon="6.66882">
        <ele>90.4</ele>
        <time>2025-10-26T13:49:52Z</time>
      </trkpt>
      <trkpt lat="43.49591" lon="6.66881">
        <ele>90.3</ele>
        <time>2025-10-26T13:49:53Z</time>
      </trkpt>
      <trkpt lat="43.4959" lon="6.6688">
        <ele>90.4</ele>
        <time>2025-10-26T13:49:54Z</time>
      </trkpt>
      <trkpt lat="43.4959" lon="6.66878">
        <ele>90.5</ele>
        <time>2025-10-26T13:49:55Z</time>
      </trkpt>
      <trkpt lat="43.49589" lon="6.66877">
        <ele>90.6</ele>
        <time>2025-10-26T13:49:56Z</time>
      </trkpt>
      <trkpt lat="43.49588" lon="6.66875">
        <ele>90.7</ele>
        <time>2025-10-26T13:49:57Z</time>
      </trkpt>
      <trkpt lat="43.49587" lon="6.66874">
        <ele>90.8</ele>
        <time>2025-10-26T13:49:58Z</time>
      </trkpt>
      <trkpt lat="43.49586" lon="6.66873">
        <ele>90.9</ele>
        <time>2025-10-26T13:49:59Z</time>
      </trkpt>
      <trkpt lat="43.49586" lon="6.66872">
        <ele>91</ele>
        <time>2025-10-26T13:50:00Z</time>
      </trkpt>
      <trkpt lat="43.49585" lon="6.66871">
        <ele>91.1</ele>
        <time>2025-10-26T13:50:01Z</time>
      </trkpt>
      <trkpt lat="43.49585" lon="6.66869">
        <ele>91.1</ele>
        <time>2025-10-26T13:50:02Z</time>
      </trkpt>
      <trkpt lat="43.49584" lon="6.66868">
        <ele>91.1</ele>
        <time>2025-10-26T13:50:03Z</time>
      </trkpt>
      <trkpt lat="43.49583" lon="6.66867">
        <ele>91</ele>
        <time>2025-10-26T13:50:04Z</time>
      </trkpt>
      <trkpt lat="43.49582" lon="6.66865">
        <ele>91</ele>
        <time>2025-10-26T13:50:05Z</time>
      </trkpt>
      <trkpt lat="43.49581" lon="6.66864">
        <ele>91.1</ele>
        <time>2025-10-26T13:50:06Z</time>
      </trkpt>
      <trkpt lat="43.4958" lon="6.66863">
        <ele>91.1</ele>
        <time>2025-10-26T13:50:07Z</time>
      </trkpt>
      <trkpt lat="43.4958" lon="6.66862">
        <ele>91.2</ele>
        <time>2025-10-26T13:50:08Z</time>
      </trkpt>
      <trkpt lat="43.49579" lon="6.6686">
        <ele>91.3</ele>
        <time>2025-10-26T13:50:09Z</time>
      </trkpt>
      <trkpt lat="43.49578" lon="6.66859">
        <ele>91.3</ele>
        <time>2025-10-26T13:50:10Z</time>
      </trkpt>
      <trkpt lat="43.49577" lon="6.66858">
        <ele>91.3</ele>
        <time>2025-10-26T13:50:11Z</time>
      </trkpt>
      <trkpt lat="43.49576" lon="6.66856">
        <ele>91.2</ele>
        <time>2025-10-26T13:50:12Z</time>
      </trkpt>
      <trkpt lat="43.49575" lon="6.66855">
        <ele>91</ele>
        <time>2025-10-26T13:50:13Z</time>
      </trkpt>
      <trkpt lat="43.49574" lon="6.66854">
        <ele>90.9</ele>
        <time>2025-10-26T13:50:14Z</time>
      </trkpt>
      <trkpt lat="43.49573" lon="6.66852">
        <ele>90.8</ele>
        <time>2025-10-26T13:50:15Z</time>
      </trkpt>
      <trkpt lat="43.49572" lon="6.66851">
        <ele>90.6</ele>
        <time>2025-10-26T13:50:16Z</time>
      </trkpt>
      <trkpt lat="43.49571" lon="6.6685">
        <ele>90.6</ele>
        <time>2025-10-26T13:50:17Z</time>
      </trkpt>
      <trkpt lat="43.4957" lon="6.66849">
        <ele>90.5</ele>
        <time>2025-10-26T13:50:18Z</time>
      </trkpt>
      <trkpt lat="43.49569" lon="6.66848">
        <ele>90.4</ele>
        <time>2025-10-26T13:50:19Z</time>
      </trkpt>
      <trkpt lat="43.49568" lon="6.66847">
        <ele>90.4</ele>
        <time>2025-10-26T13:50:20Z</time>
      </trkpt>
      <trkpt lat="43.49567" lon="6.66846">
        <ele>90.3</ele>
        <time>2025-10-26T13:50:21Z</time>
      </trkpt>
      <trkpt lat="43.49566" lon="6.66845">
        <ele>90.2</ele>
        <time>2025-10-26T13:50:22Z</time>
      </trkpt>
      <trkpt lat="43.49565" lon="6.66844">
        <ele>90</ele>
        <time>2025-10-26T13:50:23Z</time>
      </trkpt>
      <trkpt lat="43.49564" lon="6.66842">
        <ele>89.8</ele>
        <time>2025-10-26T13:50:24Z</time>
      </trkpt>
      <trkpt lat="43.49563" lon="6.66842">
        <ele>89.6</ele>
        <time>2025-10-26T13:50:25Z</time>
      </trkpt>
      <trkpt lat="43.49562" lon="6.66841">
        <ele>89.5</ele>
        <time>2025-10-26T13:50:26Z</time>
      </trkpt>
      <trkpt lat="43.49562" lon="6.66839">
        <ele>89.6</ele>
        <time>2025-10-26T13:50:27Z</time>
      </trkpt>
      <trkpt lat="43.49561" lon="6.66838">
        <ele>89.6</ele>
        <time>2025-10-26T13:50:28Z</time>
      </trkpt>
      <trkpt lat="43.4956" lon="6.66837">
        <ele>89.6</ele>
        <time>2025-10-26T13:50:29Z</time>
      </trkpt>
      <trkpt lat="43.49558" lon="6.66836">
        <ele>89.6</ele>
        <time>2025-10-26T13:50:30Z</time>
      </trkpt>
      <trkpt lat="43.49557" lon="6.66834">
        <ele>89.5</ele>
        <time>2025-10-26T13:50:31Z</time>
      </trkpt>
      <trkpt lat="43.49556" lon="6.66833">
        <ele>89.5</ele>
        <time>2025-10-26T13:50:32Z</time>
      </trkpt>
      <trkpt lat="43.49555" lon="6.66832">
        <ele>89.4</ele>
        <time>2025-10-26T13:50:33Z</time>
      </trkpt>
      <trkpt lat="43.49554" lon="6.66832">
        <ele>89.5</ele>
        <time>2025-10-26T13:50:34Z</time>
      </trkpt>
      <trkpt lat="43.49554" lon="6.66831">
        <ele>89.6</ele>
        <time>2025-10-26T13:50:35Z</time>
      </trkpt>
      <trkpt lat="43.49552" lon="6.6683">
        <ele>89.5</ele>
        <time>2025-10-26T13:50:36Z</time>
      </trkpt>
      <trkpt lat="43.49551" lon="6.66829">
        <ele>89.4</ele>
        <time>2025-10-26T13:50:37Z</time>
      </trkpt>
      <trkpt lat="43.4955" lon="6.66828">
        <ele>89.4</ele>
        <time>2025-10-26T13:50:38Z</time>
      </trkpt>
      <trkpt lat="43.49549" lon="6.66827">
        <ele>89.3</ele>
        <time>2025-10-26T13:50:39Z</time>
      </trkpt>
      <trkpt lat="43.49548" lon="6.66826">
        <ele>89.1</ele>
        <time>2025-10-26T13:50:40Z</time>
      </trkpt>
      <trkpt lat="43.49547" lon="6.66825">
        <ele>89.2</ele>
        <time>2025-10-26T13:50:41Z</time>
      </trkpt>
      <trkpt lat="43.49546" lon="6.66824">
        <ele>89.1</ele>
        <time>2025-10-26T13:50:42Z</time>
      </trkpt>
      <trkpt lat="43.49545" lon="6.66823">
        <ele>89</ele>
        <time>2025-10-26T13:50:43Z</time>
      </trkpt>
      <trkpt lat="43.49544" lon="6.66822">
        <ele>89</ele>
        <time>2025-10-26T13:50:44Z</time>
      </trkpt>
      <trkpt lat="43.49543" lon="6.66821">
        <ele>89</ele>
        <time>2025-10-26T13:50:45Z</time>
      </trkpt>
      <trkpt lat="43.49542" lon="6.6682">
        <ele>89</ele>
        <time>2025-10-26T13:50:46Z</time>
      </trkpt>
      <trkpt lat="43.49541" lon="6.6682">
        <ele>89.1</ele>
        <time>2025-10-26T13:50:47Z</time>
      </trkpt>
      <trkpt lat="43.4954" lon="6.66819">
        <ele>89.2</ele>
        <time>2025-10-26T13:50:48Z</time>
      </trkpt>
      <trkpt lat="43.49539" lon="6.66818">
        <ele>89.2</ele>
        <time>2025-10-26T13:50:49Z</time>
      </trkpt>
      <trkpt lat="43.49538" lon="6.66817">
        <ele>89.2</ele>
        <time>2025-10-26T13:50:50Z</time>
      </trkpt>
      <trkpt lat="43.49537" lon="6.66817">
        <ele>89.2</ele>
        <time>2025-10-26T13:50:51Z</time>
      </trkpt>
      <trkpt lat="43.49536" lon="6.66816">
        <ele>89.2</ele>
        <time>2025-10-26T13:50:52Z</time>
      </trkpt>
      <trkpt lat="43.49534" lon="6.66816">
        <ele>89.1</ele>
        <time>2025-10-26T13:50:53Z</time>
      </trkpt>
      <trkpt lat="43.49533" lon="6.66815">
        <ele>89</ele>
        <time>2025-10-26T13:50:54Z</time>
      </trkpt>
      <trkpt lat="43.49532" lon="6.66815">
        <ele>88.9</ele>
        <time>2025-10-26T13:50:55Z</time>
      </trkpt>
      <trkpt lat="43.49531" lon="6.66814">
        <ele>88.7</ele>
        <time>2025-10-26T13:50:56Z</time>
      </trkpt>
      <trkpt lat="43.4953" lon="6.66814">
        <ele>88.6</ele>
        <time>2025-10-26T13:50:57Z</time>
      </trkpt>
      <trkpt lat="43.49529" lon="6.66813">
        <ele>88.6</ele>
        <time>2025-10-26T13:50:58Z</time>
      </trkpt>
      <trkpt lat="43.49527" lon="6.66813">
        <ele>88.5</ele>
        <time>2025-10-26T13:50:59Z</time>
      </trkpt>
      <trkpt lat="43.49527" lon="6.66812">
        <ele>88.5</ele>
        <time>2025-10-26T13:51:00Z</time>
      </trkpt>
      <trkpt lat="43.49525" lon="6.66811">
        <ele>88.6</ele>
        <time>2025-10-26T13:51:01Z</time>
      </trkpt>
      <trkpt lat="43.49524" lon="6.66811">
        <ele>88.8</ele>
        <time>2025-10-26T13:51:02Z</time>
      </trkpt>
      <trkpt lat="43.49523" lon="6.6681">
        <ele>88.9</ele>
        <time>2025-10-26T13:51:03Z</time>
      </trkpt>
      <trkpt lat="43.49522" lon="6.66809">
        <ele>89</ele>
        <time>2025-10-26T13:51:04Z</time>
      </trkpt>
      <trkpt lat="43.49521" lon="6.66809">
        <ele>88.8</ele>
        <time>2025-10-26T13:51:05Z</time>
      </trkpt>
      <trkpt lat="43.4952" lon="6.66808">
        <ele>88.6</ele>
        <time>2025-10-26T13:51:06Z</time>
      </trkpt>
      <trkpt lat="43.49519" lon="6.66808">
        <ele>88.5</ele>
        <time>2025-10-26T13:51:07Z</time>
      </trkpt>
      <trkpt lat="43.49518" lon="6.66808">
        <ele>88.4</ele>
        <time>2025-10-26T13:51:08Z</time>
      </trkpt>
      <trkpt lat="43.49517" lon="6.66807">
        <ele>88.4</ele>
        <time>2025-10-26T13:51:09Z</time>
      </trkpt>
      <trkpt lat="43.49516" lon="6.66807">
        <ele>88.4</ele>
        <time>2025-10-26T13:51:10Z</time>
      </trkpt>
      <trkpt lat="43.49515" lon="6.66807">
        <ele>88.4</ele>
        <time>2025-10-26T13:51:11Z</time>
      </trkpt>
      <trkpt lat="43.49513" lon="6.66806">
        <ele>88.4</ele>
        <time>2025-10-26T13:51:12Z</time>
      </trkpt>
      <trkpt lat="43.49512" lon="6.66806">
        <ele>88.4</ele>
        <time>2025-10-26T13:51:13Z</time>
      </trkpt>
      <trkpt lat="43.49511" lon="6.66805">
        <ele>88.4</ele>
        <time>2025-10-26T13:51:14Z</time>
      </trkpt>
      <trkpt lat="43.49509" lon="6.66805">
        <ele>88.5</ele>
        <time>2025-10-26T13:51:15Z</time>
      </trkpt>
      <trkpt lat="43.49508" lon="6.66805">
        <ele>88.4</ele>
        <time>2025-10-26T13:51:16Z</time>
      </trkpt>
      <trkpt lat="43.49506" lon="6.66805">
        <ele>88.4</ele>
        <time>2025-10-26T13:51:17Z</time>
      </trkpt>
      <trkpt lat="43.49505" lon="6.66804">
        <ele>88.4</ele>
        <time>2025-10-26T13:51:18Z</time>
      </trkpt>
      <trkpt lat="43.49504" lon="6.66804">
        <ele>88.3</ele>
        <time>2025-10-26T13:51:19Z</time>
      </trkpt>
      <trkpt lat="43.49503" lon="6.66804">
        <ele>88.4</ele>
        <time>2025-10-26T13:51:20Z</time>
      </trkpt>
      <trkpt lat="43.49501" lon="6.66803">
        <ele>88.3</ele>
        <time>2025-10-26T13:51:21Z</time>
      </trkpt>
      <trkpt lat="43.49499" lon="6.66802">
        <ele>88.2</ele>
        <time>2025-10-26T13:51:22Z</time>
      </trkpt>
      <trkpt lat="43.49498" lon="6.66802">
        <ele>88.3</ele>
        <time>2025-10-26T13:51:23Z</time>
      </trkpt>
      <trkpt lat="43.49497" lon="6.66801">
        <ele>88.5</ele>
        <time>2025-10-26T13:51:24Z</time>
      </trkpt>
      <trkpt lat="43.49495" lon="6.66801">
        <ele>88.7</ele>
        <time>2025-10-26T13:51:25Z</time>
      </trkpt>
      <trkpt lat="43.49494" lon="6.66801">
        <ele>88.8</ele>
        <time>2025-10-26T13:51:26Z</time>
      </trkpt>
      <trkpt lat="43.49492" lon="6.668">
        <ele>89</ele>
        <time>2025-10-26T13:51:27Z</time>
      </trkpt>
      <trkpt lat="43.49491" lon="6.668">
        <ele>89.1</ele>
        <time>2025-10-26T13:51:28Z</time>
      </trkpt>
      <trkpt lat="43.4949" lon="6.66799">
        <ele>89.2</ele>
        <time>2025-10-26T13:51:29Z</time>
      </trkpt>
      <trkpt lat="43.49489" lon="6.66798">
        <ele>89.1</ele>
        <time>2025-10-26T13:51:30Z</time>
      </trkpt>
      <trkpt lat="43.49487" lon="6.66797">
        <ele>89.1</ele>
        <time>2025-10-26T13:51:31Z</time>
      </trkpt>
      <trkpt lat="43.49486" lon="6.66797">
        <ele>89</ele>
        <time>2025-10-26T13:51:32Z</time>
      </trkpt>
      <trkpt lat="43.49485" lon="6.66797">
        <ele>89.1</ele>
        <time>2025-10-26T13:51:33Z</time>
      </trkpt>
      <trkpt lat="43.49484" lon="6.66796">
        <ele>88.8</ele>
        <time>2025-10-26T13:51:34Z</time>
      </trkpt>
      <trkpt lat="43.49483" lon="6.66796">
        <ele>88.8</ele>
        <time>2025-10-26T13:51:35Z</time>
      </trkpt>
      <trkpt lat="43.49482" lon="6.66797">
        <ele>88.8</ele>
        <time>2025-10-26T13:51:36Z</time>
      </trkpt>
      <trkpt lat="43.4948" lon="6.66797">
        <ele>88.8</ele>
        <time>2025-10-26T13:51:37Z</time>
      </trkpt>
      <trkpt lat="43.49479" lon="6.66797">
        <ele>88.9</ele>
        <time>2025-10-26T13:51:38Z</time>
      </trkpt>
      <trkpt lat="43.49478" lon="6.66798">
        <ele>88.9</ele>
        <time>2025-10-26T13:51:39Z</time>
      </trkpt>
      <trkpt lat="43.49477" lon="6.66798">
        <ele>88.9</ele>
        <time>2025-10-26T13:51:40Z</time>
      </trkpt>
      <trkpt lat="43.49475" lon="6.66798">
        <ele>89</ele>
        <time>2025-10-26T13:51:41Z</time>
      </trkpt>
      <trkpt lat="43.49474" lon="6.66798">
        <ele>88.9</ele>
        <time>2025-10-26T13:51:42Z</time>
      </trkpt>
      <trkpt lat="43.49474" lon="6.66798">
        <ele>88.8</ele>
        <time>2025-10-26T13:51:43Z</time>
      </trkpt>
      <trkpt lat="43.49472" lon="6.66798">
        <ele>88.7</ele>
        <time>2025-10-26T13:51:44Z</time>
      </trkpt>
      <trkpt lat="43.49471" lon="6.66797">
        <ele>88.7</ele>
        <time>2025-10-26T13:51:45Z</time>
      </trkpt>
      <trkpt lat="43.49471" lon="6.66796">
        <ele>88.7</ele>
        <time>2025-10-26T13:51:46Z</time>
      </trkpt>
      <trkpt lat="43.4947" lon="6.66796">
        <ele>88.6</ele>
        <time>2025-10-26T13:51:47Z</time>
      </trkpt>
      <trkpt lat="43.49469" lon="6.66796">
        <ele>88.6</ele>
        <time>2025-10-26T13:51:48Z</time>
      </trkpt>
      <trkpt lat="43.49468" lon="6.66796">
        <ele>88.5</ele>
        <time>2025-10-26T13:51:49Z</time>
      </trkpt>
      <trkpt lat="43.49467" lon="6.66795">
        <ele>88.4</ele>
        <time>2025-10-26T13:51:50Z</time>
      </trkpt>
      <trkpt lat="43.49466" lon="6.66795">
        <ele>88.5</ele>
        <time>2025-10-26T13:51:51Z</time>
      </trkpt>
      <trkpt lat="43.49466" lon="6.66794">
        <ele>88.5</ele>
        <time>2025-10-26T13:51:52Z</time>
      </trkpt>
      <trkpt lat="43.49465" lon="6.66793">
        <ele>88.6</ele>
        <time>2025-10-26T13:51:53Z</time>
      </trkpt>
      <trkpt lat="43.49465" lon="6.66793">
        <ele>88.9</ele>
        <time>2025-10-26T13:51:54Z</time>
      </trkpt>
      <trkpt lat="43.49464" lon="6.66793">
        <ele>89.1</ele>
        <time>2025-10-26T13:51:55Z</time>
      </trkpt>
      <trkpt lat="43.49464" lon="6.66792">
        <ele>89.3</ele>
        <time>2025-10-26T13:51:56Z</time>
      </trkpt>
      <trkpt lat="43.49464" lon="6.66791">
        <ele>89.4</ele>
        <time>2025-10-26T13:51:57Z</time>
      </trkpt>
      <trkpt lat="43.49464" lon="6.66791">
        <ele>89.5</ele>
        <time>2025-10-26T13:51:58Z</time>
      </trkpt>
      <trkpt lat="43.49464" lon="6.66791">
        <ele>89.5</ele>
        <time>2025-10-26T13:51:59Z</time>
      </trkpt>
      <trkpt lat="43.49464" lon="6.6679">
        <ele>89.6</ele>
        <time>2025-10-26T13:52:00Z</time>
      </trkpt>
      <trkpt lat="43.49464" lon="6.66791">
        <ele>89.6</ele>
        <time>2025-10-26T13:52:01Z</time>
      </trkpt>
      <trkpt lat="43.49464" lon="6.6679">
        <ele>89.5</ele>
        <time>2025-10-26T13:52:02Z</time>
      </trkpt>
      <trkpt lat="43.49464" lon="6.6679">
        <ele>89.4</ele>
        <time>2025-10-26T13:52:03Z</time>
      </trkpt>
      <trkpt lat="43.49464" lon="6.6679">
        <ele>89.4</ele>
        <time>2025-10-26T13:52:04Z</time>
      </trkpt>
      <trkpt lat="43.49464" lon="6.6679">
        <ele>89.4</ele>
        <time>2025-10-26T13:52:05Z</time>
      </trkpt>
      <trkpt lat="43.49464" lon="6.6679">
        <ele>89.4</ele>
        <time>2025-10-26T13:52:06Z</time>
      </trkpt>
      <trkpt lat="43.49463" lon="6.6679">
        <ele>89.5</ele>
        <time>2025-10-26T13:52:07Z</time>
      </trkpt>
      <trkpt lat="43.49463" lon="6.6679">
        <ele>89.6</ele>
        <time>2025-10-26T13:52:08Z</time>
      </trkpt>
      <trkpt lat="43.49463" lon="6.6679">
        <ele>89.3</ele>
        <time>2025-10-26T13:52:09Z</time>
      </trkpt>
      <trkpt lat="43.49463" lon="6.6679">
        <ele>89.1</ele>
        <time>2025-10-26T13:52:10Z</time>
      </trkpt>
      <trkpt lat="43.49463" lon="6.66789">
        <ele>89.1</ele>
        <time>2025-10-26T13:52:11Z</time>
      </trkpt>
      <trkpt lat="43.49463" lon="6.66789">
        <ele>89</ele>
        <time>2025-10-26T13:52:12Z</time>
      </trkpt>
      <trkpt lat="43.49463" lon="6.66789">
        <ele>89</ele>
        <time>2025-10-26T13:52:13Z</time>
      </trkpt>
      <trkpt lat="43.49463" lon="6.66789">
        <ele>89</ele>
        <time>2025-10-26T13:52:14Z</time>
      </trkpt>
      <trkpt lat="43.49462" lon="6.66789">
        <ele>89</ele>
        <time>2025-10-26T13:52:15Z</time>
      </trkpt>
      <trkpt lat="43.49462" lon="6.66789">
        <ele>89</ele>
        <time>2025-10-26T13:52:16Z</time>
      </trkpt>
      <trkpt lat="43.49462" lon="6.66789">
        <ele>89</ele>
        <time>2025-10-26T13:52:17Z</time>
      </trkpt>
      <trkpt lat="43.49462" lon="6.66789">
        <ele>89.1</ele>
        <time>2025-10-26T13:52:18Z</time>
      </trkpt>
      <trkpt lat="43.49462" lon="6.66789">
        <ele>89.1</ele>
        <time>2025-10-26T13:52:19Z</time>
      </trkpt>
      <trkpt lat="43.49461" lon="6.66789">
        <ele>89.2</ele>
        <time>2025-10-26T13:52:20Z</time>
      </trkpt>
      <trkpt lat="43.49461" lon="6.66789">
        <ele>89.2</ele>
        <time>2025-10-26T13:52:21Z</time>
      </trkpt>
      <trkpt lat="43.49461" lon="6.6679">
        <ele>89.2</ele>
        <time>2025-10-26T13:52:22Z</time>
      </trkpt>
      <trkpt lat="43.49461" lon="6.6679">
        <ele>89.3</ele>
        <time>2025-10-26T13:52:23Z</time>
      </trkpt>
      <trkpt lat="43.49461" lon="6.6679">
        <ele>89.4</ele>
        <time>2025-10-26T13:52:24Z</time>
      </trkpt>
      <trkpt lat="43.49461" lon="6.6679">
        <ele>89.4</ele>
        <time>2025-10-26T13:52:25Z</time>
      </trkpt>
      <trkpt lat="43.49461" lon="6.6679">
        <ele>89.5</ele>
        <time>2025-10-26T13:52:26Z</time>
      </trkpt>
      <trkpt lat="43.49461" lon="6.6679">
        <ele>89.5</ele>
        <time>2025-10-26T13:52:27Z</time>
      </trkpt>
      <trkpt lat="43.49461" lon="6.6679">
        <ele>89.4</ele>
        <time>2025-10-26T13:52:28Z</time>
      </trkpt>
      <trkpt lat="43.49461" lon="6.6679">
        <ele>89.3</ele>
        <time>2025-10-26T13:52:29Z</time>
      </trkpt>
      <trkpt lat="43.49461" lon="6.6679">
        <ele>89.2</ele>
        <time>2025-10-26T13:52:30Z</time>
      </trkpt>
      <trkpt lat="43.49461" lon="6.6679">
        <ele>89.2</ele>
        <time>2025-10-26T13:52:31Z</time>
      </trkpt>
      <trkpt lat="43.4946" lon="6.6679">
        <ele>89.1</ele>
        <time>2025-10-26T13:52:32Z</time>
      </trkpt>
      <trkpt lat="43.4946" lon="6.6679">
        <ele>89.1</ele>
        <time>2025-10-26T13:52:33Z</time>
      </trkpt>
      <trkpt lat="43.4946" lon="6.6679">
        <ele>89.2</ele>
        <time>2025-10-26T13:52:34Z</time>
      </trkpt>
      <trkpt lat="43.4946" lon="6.6679">
        <ele>89.2</ele>
        <time>2025-10-26T13:52:35Z</time>
      </trkpt>
      <trkpt lat="43.4946" lon="6.6679">
        <ele>89.3</ele>
        <time>2025-10-26T13:52:36Z</time>
      </trkpt>
      <trkpt lat="43.4946" lon="6.6679">
        <ele>89.3</ele>
        <time>2025-10-26T13:52:37Z</time>
      </trkpt>
      <trkpt lat="43.49459" lon="6.66789">
        <ele>89.3</ele>
        <time>2025-10-26T13:52:38Z</time>
      </trkpt>
      <trkpt lat="43.49459" lon="6.66789">
        <ele>89.4</ele>
        <time>2025-10-26T13:52:39Z</time>
      </trkpt>
      <trkpt lat="43.49459" lon="6.66789">
        <ele>89.5</ele>
        <time>2025-10-26T13:52:40Z</time>
      </trkpt>
      <trkpt lat="43.49459" lon="6.66789">
        <ele>89.5</ele>
        <time>2025-10-26T13:52:41Z</time>
      </trkpt>
      <trkpt lat="43.49459" lon="6.66789">
        <ele>89.6</ele>
        <time>2025-10-26T13:52:42Z</time>
      </trkpt>
      <trkpt lat="43.49459" lon="6.66789">
        <ele>89.7</ele>
        <time>2025-10-26T13:52:43Z</time>
      </trkpt>
      <trkpt lat="43.49459" lon="6.66789">
        <ele>89.7</ele>
        <time>2025-10-26T13:52:44Z</time>
      </trkpt>
      <trkpt lat="43.49459" lon="6.66789">
        <ele>89.7</ele>
        <time>2025-10-26T13:52:45Z</time>
      </trkpt>
      <trkpt lat="43.49459" lon="6.66789">
        <ele>89.7</ele>
        <time>2025-10-26T13:52:46Z</time>
      </trkpt>
      <trkpt lat="43.49458" lon="6.66789">
        <ele>89.6</ele>
        <time>2025-10-26T13:52:47Z</time>
      </trkpt>
      <trkpt lat="43.49458" lon="6.66789">
        <ele>89.6</ele>
        <time>2025-10-26T13:52:48Z</time>
      </trkpt>
      <trkpt lat="43.49458" lon="6.66789">
        <ele>89.5</ele>
        <time>2025-10-26T13:52:49Z</time>
      </trkpt>
      <trkpt lat="43.49458" lon="6.66789">
        <ele>89.6</ele>
        <time>2025-10-26T13:52:50Z</time>
      </trkpt>
      <trkpt lat="43.49458" lon="6.66789">
        <ele>89.6</ele>
        <time>2025-10-26T13:52:51Z</time>
      </trkpt>
      <trkpt lat="43.49458" lon="6.66789">
        <ele>89.6</ele>
        <time>2025-10-26T13:52:52Z</time>
      </trkpt>
      <trkpt lat="43.49458" lon="6.66789">
        <ele>89.6</ele>
        <time>2025-10-26T13:52:53Z</time>
      </trkpt>
      <trkpt lat="43.49457" lon="6.66789">
        <ele>89.6</ele>
        <time>2025-10-26T13:52:54Z</time>
      </trkpt>
      <trkpt lat="43.49457" lon="6.66789">
        <ele>89.6</ele>
        <time>2025-10-26T13:52:55Z</time>
      </trkpt>
      <trkpt lat="43.49457" lon="6.66789">
        <ele>89.6</ele>
        <time>2025-10-26T13:52:56Z</time>
      </trkpt>
      <trkpt lat="43.49457" lon="6.66789">
        <ele>89.6</ele>
        <time>2025-10-26T13:52:57Z</time>
      </trkpt>
      <trkpt lat="43.49457" lon="6.6679">
        <ele>89.5</ele>
        <time>2025-10-26T13:52:58Z</time>
      </trkpt>
      <trkpt lat="43.49457" lon="6.6679">
        <ele>89.5</ele>
        <time>2025-10-26T13:52:59Z</time>
      </trkpt>
      <trkpt lat="43.49456" lon="6.6679">
        <ele>89.5</ele>
        <time>2025-10-26T13:53:00Z</time>
      </trkpt>
      <trkpt lat="43.49456" lon="6.6679">
        <ele>89.5</ele>
        <time>2025-10-26T13:53:01Z</time>
      </trkpt>
      <trkpt lat="43.49456" lon="6.6679">
        <ele>89.5</ele>
        <time>2025-10-26T13:53:02Z</time>
      </trkpt>
      <trkpt lat="43.49456" lon="6.6679">
        <ele>89.4</ele>
        <time>2025-10-26T13:53:03Z</time>
      </trkpt>
      <trkpt lat="43.49456" lon="6.6679">
        <ele>89.4</ele>
        <time>2025-10-26T13:53:04Z</time>
      </trkpt>
      <trkpt lat="43.49456" lon="6.6679">
        <ele>89.3</ele>
        <time>2025-10-26T13:53:05Z</time>
      </trkpt>
      <trkpt lat="43.49455" lon="6.6679">
        <ele>89.3</ele>
        <time>2025-10-26T13:53:06Z</time>
      </trkpt>
      <trkpt lat="43.49455" lon="6.6679">
        <ele>89.3</ele>
        <time>2025-10-26T13:53:07Z</time>
      </trkpt>
      <trkpt lat="43.49455" lon="6.6679">
        <ele>89.3</ele>
        <time>2025-10-26T13:53:08Z</time>
      </trkpt>
      <trkpt lat="43.49455" lon="6.6679">
        <ele>89.2</ele>
        <time>2025-10-26T13:53:09Z</time>
      </trkpt>
      <trkpt lat="43.49455" lon="6.6679">
        <ele>89.3</ele>
        <time>2025-10-26T13:53:10Z</time>
      </trkpt>
      <trkpt lat="43.49455" lon="6.6679">
        <ele>89.3</ele>
        <time>2025-10-26T13:53:11Z</time>
      </trkpt>
      <trkpt lat="43.49455" lon="6.6679">
        <ele>89.4</ele>
        <time>2025-10-26T13:53:12Z</time>
      </trkpt>
      <trkpt lat="43.49455" lon="6.66789">
        <ele>89.5</ele>
        <time>2025-10-26T13:53:13Z</time>
      </trkpt>
      <trkpt lat="43.49455" lon="6.66789">
        <ele>89.5</ele>
        <time>2025-10-26T13:53:14Z</time>
      </trkpt>
      <trkpt lat="43.49455" lon="6.66789">
        <ele>89.4</ele>
        <time>2025-10-26T13:53:15Z</time>
      </trkpt>
      <trkpt lat="43.49455" lon="6.66789">
        <ele>89.4</ele>
        <time>2025-10-26T13:53:16Z</time>
      </trkpt>
      <trkpt lat="43.49455" lon="6.66789">
        <ele>89.4</ele>
        <time>2025-10-26T13:53:17Z</time>
      </trkpt>
      <trkpt lat="43.49455" lon="6.66789">
        <ele>89.3</ele>
        <time>2025-10-26T13:53:18Z</time>
      </trkpt>
      <trkpt lat="43.49455" lon="6.66789">
        <ele>89.3</ele>
        <time>2025-10-26T13:53:19Z</time>
      </trkpt>
      <trkpt lat="43.49455" lon="6.66789">
        <ele>89.2</ele>
        <time>2025-10-26T13:53:20Z</time>
      </trkpt>
      <trkpt lat="43.49455" lon="6.66789">
        <ele>89.1</ele>
        <time>2025-10-26T13:53:21Z</time>
      </trkpt>
      <trkpt lat="43.49455" lon="6.66789">
        <ele>89.1</ele>
        <time>2025-10-26T13:53:22Z</time>
      </trkpt>
      <trkpt lat="43.49455" lon="6.66789">
        <ele>89.1</ele>
        <time>2025-10-26T13:53:23Z</time>
      </trkpt>
      <trkpt lat="43.49454" lon="6.66789">
        <ele>89.1</ele>
        <time>2025-10-26T13:53:24Z</time>
      </trkpt>
      <trkpt lat="43.49454" lon="6.66789">
        <ele>89.1</ele>
        <time>2025-10-26T13:53:25Z</time>
      </trkpt>
      <trkpt lat="43.49454" lon="6.66789">
        <ele>89.1</ele>
        <time>2025-10-26T13:53:26Z</time>
      </trkpt>
      <trkpt lat="43.49454" lon="6.66789">
        <ele>89.2</ele>
        <time>2025-10-26T13:53:27Z</time>
      </trkpt>
      <trkpt lat="43.49454" lon="6.66789">
        <ele>89.2</ele>
        <time>2025-10-26T13:53:28Z</time>
      </trkpt>
      <trkpt lat="43.49454" lon="6.66789">
        <ele>89.3</ele>
        <time>2025-10-26T13:53:29Z</time>
      </trkpt>
      <trkpt lat="43.49454" lon="6.66789">
        <ele>89.2</ele>
        <time>2025-10-26T13:53:30Z</time>
      </trkpt>
      <trkpt lat="43.49454" lon="6.6679">
        <ele>89.2</ele>
        <time>2025-10-26T13:53:31Z</time>
      </trkpt>
      <trkpt lat="43.49454" lon="6.6679">
        <ele>89.2</ele>
        <time>2025-10-26T13:53:32Z</time>
      </trkpt>
      <trkpt lat="43.49454" lon="6.6679">
        <ele>89.1</ele>
        <time>2025-10-26T13:53:33Z</time>
      </trkpt>
      <trkpt lat="43.49454" lon="6.6679">
        <ele>89.1</ele>
        <time>2025-10-26T13:53:34Z</time>
      </trkpt>
      <trkpt lat="43.49454" lon="6.6679">
        <ele>89.1</ele>
        <time>2025-10-26T13:53:35Z</time>
      </trkpt>
      <trkpt lat="43.49454" lon="6.6679">
        <ele>89.2</ele>
        <time>2025-10-26T13:53:36Z</time>
      </trkpt>
      <trkpt lat="43.49454" lon="6.6679">
        <ele>89.3</ele>
        <time>2025-10-26T13:53:37Z</time>
      </trkpt>
      <trkpt lat="43.49454" lon="6.66789">
        <ele>89.3</ele>
        <time>2025-10-26T13:53:38Z</time>
      </trkpt>
      <trkpt lat="43.49454" lon="6.6679">
        <ele>89.3</ele>
        <time>2025-10-26T13:53:39Z</time>
      </trkpt>
      <trkpt lat="43.49454" lon="6.6679">
        <ele>89.2</ele>
        <time>2025-10-26T13:53:40Z</time>
      </trkpt>
      <trkpt lat="43.49454" lon="6.66789">
        <ele>89.2</ele>
        <time>2025-10-26T13:53:41Z</time>
      </trkpt>
      <trkpt lat="43.49454" lon="6.66789">
        <ele>89.2</ele>
        <time>2025-10-26T13:53:42Z</time>
      </trkpt>
      <trkpt lat="43.49454" lon="6.66789">
        <ele>89.3</ele>
        <time>2025-10-26T13:53:43Z</time>
      </trkpt>
      <trkpt lat="43.49454" lon="6.66789">
        <ele>89.4</ele>
        <time>2025-10-26T13:53:44Z</time>
      </trkpt>
      <trkpt lat="43.49454" lon="6.66789">
        <ele>89.4</ele>
        <time>2025-10-26T13:53:45Z</time>
      </trkpt>
      <trkpt lat="43.49454" lon="6.66789">
        <ele>89.3</ele>
        <time>2025-10-26T13:53:46Z</time>
      </trkpt>
      <trkpt lat="43.49454" lon="6.66789">
        <ele>89.3</ele>
        <time>2025-10-26T13:53:47Z</time>
      </trkpt>
      <trkpt lat="43.49454" lon="6.66789">
        <ele>89.2</ele>
        <time>2025-10-26T13:53:48Z</time>
      </trkpt>
      <trkpt lat="43.49454" lon="6.66789">
        <ele>89.2</ele>
        <time>2025-10-26T13:53:49Z</time>
      </trkpt>
      <trkpt lat="43.49454" lon="6.6679">
        <ele>89.2</ele>
        <time>2025-10-26T13:53:50Z</time>
      </trkpt>
      <trkpt lat="43.49454" lon="6.6679">
        <ele>89.3</ele>
        <time>2025-10-26T13:53:51Z</time>
      </trkpt>
      <trkpt lat="43.49454" lon="6.6679">
        <ele>89.4</ele>
        <time>2025-10-26T13:53:52Z</time>
      </trkpt>
      <trkpt lat="43.49454" lon="6.66789">
        <ele>89.5</ele>
        <time>2025-10-26T13:53:53Z</time>
      </trkpt>
      <trkpt lat="43.49454" lon="6.66789">
        <ele>89.5</ele>
        <time>2025-10-26T13:53:54Z</time>
      </trkpt>
      <trkpt lat="43.49454" lon="6.66789">
        <ele>89.6</ele>
        <time>2025-10-26T13:53:55Z</time>
      </trkpt>
      <trkpt lat="43.49454" lon="6.66789">
        <ele>89.6</ele>
        <time>2025-10-26T13:53:56Z</time>
      </trkpt>
      <trkpt lat="43.49454" lon="6.66789">
        <ele>89.5</ele>
        <time>2025-10-26T13:53:57Z</time>
      </trkpt>
      <trkpt lat="43.49454" lon="6.66789">
        <ele>89.5</ele>
        <time>2025-10-26T13:53:58Z</time>
      </trkpt>
      <trkpt lat="43.49454" lon="6.66789">
        <ele>89.5</ele>
        <time>2025-10-26T13:53:59Z</time>
      </trkpt>
      <trkpt lat="43.49454" lon="6.66789">
        <ele>89.6</ele>
        <time>2025-10-26T13:54:00Z</time>
      </trkpt>
      <trkpt lat="43.49454" lon="6.66789">
        <ele>89.7</ele>
        <time>2025-10-26T13:54:01Z</time>
      </trkpt>
      <trkpt lat="43.49454" lon="6.66788">
        <ele>89.7</ele>
        <time>2025-10-26T13:54:02Z</time>
      </trkpt>
      <trkpt lat="43.49454" lon="6.66788">
        <ele>89.8</ele>
        <time>2025-10-26T13:54:03Z</time>
      </trkpt>
      <trkpt lat="43.49454" lon="6.66788">
        <ele>89.8</ele>
        <time>2025-10-26T13:54:04Z</time>
      </trkpt>
      <trkpt lat="43.49454" lon="6.66788">
        <ele>89.9</ele>
        <time>2025-10-26T13:54:05Z</time>
      </trkpt>
      <trkpt lat="43.49454" lon="6.66788">
        <ele>90.1</ele>
        <time>2025-10-26T13:54:06Z</time>
      </trkpt>
      <trkpt lat="43.49454" lon="6.66788">
        <ele>90.2</ele>
        <time>2025-10-26T13:54:07Z</time>
      </trkpt>
      <trkpt lat="43.49453" lon="6.66788">
        <ele>90.1</ele>
        <time>2025-10-26T13:54:08Z</time>
      </trkpt>
      <trkpt lat="43.49453" lon="6.66788">
        <ele>90</ele>
        <time>2025-10-26T13:54:09Z</time>
      </trkpt>
      <trkpt lat="43.49453" lon="6.66788">
        <ele>89.8</ele>
        <time>2025-10-26T13:54:10Z</time>
      </trkpt>
      <trkpt lat="43.49453" lon="6.66788">
        <ele>89.8</ele>
        <time>2025-10-26T13:54:11Z</time>
      </trkpt>
      <trkpt lat="43.49453" lon="6.66788">
        <ele>89.7</ele>
        <time>2025-10-26T13:54:12Z</time>
      </trkpt>
      <trkpt lat="43.49453" lon="6.66787">
        <ele>89.6</ele>
        <time>2025-10-26T13:54:13Z</time>
      </trkpt>
      <trkpt lat="43.49453" lon="6.66787">
        <ele>89.5</ele>
        <time>2025-10-26T13:54:14Z</time>
      </trkpt>
      <trkpt lat="43.49454" lon="6.66787">
        <ele>89.4</ele>
        <time>2025-10-26T13:54:15Z</time>
      </trkpt>
      <trkpt lat="43.49454" lon="6.66787">
        <ele>89.4</ele>
        <time>2025-10-26T13:54:16Z</time>
      </trkpt>
      <trkpt lat="43.49455" lon="6.66786">
        <ele>89.5</ele>
        <time>2025-10-26T13:54:17Z</time>
      </trkpt>
      <trkpt lat="43.49455" lon="6.66785">
        <ele>89.5</ele>
        <time>2025-10-26T13:54:18Z</time>
      </trkpt>
      <trkpt lat="43.49455" lon="6.66785">
        <ele>89.5</ele>
        <time>2025-10-26T13:54:19Z</time>
      </trkpt>
      <trkpt lat="43.49454" lon="6.66784">
        <ele>89.5</ele>
        <time>2025-10-26T13:54:20Z</time>
      </trkpt>
      <trkpt lat="43.49455" lon="6.66783">
        <ele>89.4</ele>
        <time>2025-10-26T13:54:21Z</time>
      </trkpt>
      <trkpt lat="43.49455" lon="6.66783">
        <ele>89.4</ele>
        <time>2025-10-26T13:54:22Z</time>
      </trkpt>
      <trkpt lat="43.49455" lon="6.66783">
        <ele>89.3</ele>
        <time>2025-10-26T13:54:23Z</time>
      </trkpt>
      <trkpt lat="43.49455" lon="6.66783">
        <ele>89.3</ele>
        <time>2025-10-26T13:54:24Z</time>
      </trkpt>
      <trkpt lat="43.49455" lon="6.66782">
        <ele>89.2</ele>
        <time>2025-10-26T13:54:25Z</time>
      </trkpt>
      <trkpt lat="43.49456" lon="6.66782">
        <ele>89.1</ele>
        <time>2025-10-26T13:54:26Z</time>
      </trkpt>
      <trkpt lat="43.49456" lon="6.66782">
        <ele>89.1</ele>
        <time>2025-10-26T13:54:27Z</time>
      </trkpt>
      <trkpt lat="43.49456" lon="6.66781">
        <ele>89.1</ele>
        <time>2025-10-26T13:54:28Z</time>
      </trkpt>
      <trkpt lat="43.49456" lon="6.66781">
        <ele>89.1</ele>
        <time>2025-10-26T13:54:29Z</time>
      </trkpt>
      <trkpt lat="43.49456" lon="6.66781">
        <ele>89.2</ele>
        <time>2025-10-26T13:54:30Z</time>
      </trkpt>
      <trkpt lat="43.49457" lon="6.66781">
        <ele>89.3</ele>
        <time>2025-10-26T13:54:31Z</time>
      </trkpt>
      <trkpt lat="43.49456" lon="6.66781">
        <ele>89.3</ele>
        <time>2025-10-26T13:54:32Z</time>
      </trkpt>
      <trkpt lat="43.49456" lon="6.66781">
        <ele>89.4</ele>
        <time>2025-10-26T13:54:33Z</time>
      </trkpt>
      <trkpt lat="43.49456" lon="6.66781">
        <ele>89.5</ele>
        <time>2025-10-26T13:54:34Z</time>
      </trkpt>
      <trkpt lat="43.49455" lon="6.66781">
        <ele>89.5</ele>
        <time>2025-10-26T13:54:35Z</time>
      </trkpt>
      <trkpt lat="43.49455" lon="6.6678">
        <ele>89.6</ele>
        <time>2025-10-26T13:54:36Z</time>
      </trkpt>
      <trkpt lat="43.49455" lon="6.66779">
        <ele>89.6</ele>
        <time>2025-10-26T13:54:37Z</time>
      </trkpt>
      <trkpt lat="43.49454" lon="6.66779">
        <ele>89.6</ele>
        <time>2025-10-26T13:54:38Z</time>
      </trkpt>
      <trkpt lat="43.49453" lon="6.66779">
        <ele>89.6</ele>
        <time>2025-10-26T13:54:39Z</time>
      </trkpt>
      <trkpt lat="43.49453" lon="6.66779">
        <ele>89.6</ele>
        <time>2025-10-26T13:54:40Z</time>
      </trkpt>
      <trkpt lat="43.49452" lon="6.66778">
        <ele>89.5</ele>
        <time>2025-10-26T13:54:41Z</time>
      </trkpt>
      <trkpt lat="43.49452" lon="6.66778">
        <ele>89.4</ele>
        <time>2025-10-26T13:54:42Z</time>
      </trkpt>
      <trkpt lat="43.49451" lon="6.66777">
        <ele>89.4</ele>
        <time>2025-10-26T13:54:43Z</time>
      </trkpt>
      <trkpt lat="43.4945" lon="6.66777">
        <ele>89.3</ele>
        <time>2025-10-26T13:54:44Z</time>
      </trkpt>
      <trkpt lat="43.49449" lon="6.66777">
        <ele>89.2</ele>
        <time>2025-10-26T13:54:45Z</time>
      </trkpt>
      <trkpt lat="43.49448" lon="6.66776">
        <ele>89.1</ele>
        <time>2025-10-26T13:54:46Z</time>
      </trkpt>
      <trkpt lat="43.49448" lon="6.66776">
        <ele>89</ele>
        <time>2025-10-26T13:54:47Z</time>
      </trkpt>
      <trkpt lat="43.49447" lon="6.66776">
        <ele>89</ele>
        <time>2025-10-26T13:54:48Z</time>
      </trkpt>
      <trkpt lat="43.49446" lon="6.66776">
        <ele>89</ele>
        <time>2025-10-26T13:54:49Z</time>
      </trkpt>
      <trkpt lat="43.49445" lon="6.66776">
        <ele>89.1</ele>
        <time>2025-10-26T13:54:50Z</time>
      </trkpt>
      <trkpt lat="43.49444" lon="6.66775">
        <ele>89.3</ele>
        <time>2025-10-26T13:54:51Z</time>
      </trkpt>
      <trkpt lat="43.49444" lon="6.66775">
        <ele>89.4</ele>
        <time>2025-10-26T13:54:52Z</time>
      </trkpt>
      <trkpt lat="43.49443" lon="6.66775">
        <ele>89.4</ele>
        <time>2025-10-26T13:54:53Z</time>
      </trkpt>
      <trkpt lat="43.49442" lon="6.66775">
        <ele>89.4</ele>
        <time>2025-10-26T13:54:54Z</time>
      </trkpt>
      <trkpt lat="43.49442" lon="6.66774">
        <ele>89.4</ele>
        <time>2025-10-26T13:54:55Z</time>
      </trkpt>
      <trkpt lat="43.49441" lon="6.66775">
        <ele>89.4</ele>
        <time>2025-10-26T13:54:56Z</time>
      </trkpt>
      <trkpt lat="43.4944" lon="6.66774">
        <ele>89.4</ele>
        <time>2025-10-26T13:54:57Z</time>
      </trkpt>
      <trkpt lat="43.4944" lon="6.66774">
        <ele>89.4</ele>
        <time>2025-10-26T13:54:58Z</time>
      </trkpt>
      <trkpt lat="43.49439" lon="6.66774">
        <ele>89.4</ele>
        <time>2025-10-26T13:54:59Z</time>
      </trkpt>
      <trkpt lat="43.49439" lon="6.66774">
        <ele>89.5</ele>
        <time>2025-10-26T13:55:00Z</time>
      </trkpt>
      <trkpt lat="43.49438" lon="6.66774">
        <ele>89.6</ele>
        <time>2025-10-26T13:55:01Z</time>
      </trkpt>
      <trkpt lat="43.49437" lon="6.66773">
        <ele>89.6</ele>
        <time>2025-10-26T13:55:02Z</time>
      </trkpt>
      <trkpt lat="43.49436" lon="6.66773">
        <ele>89.7</ele>
        <time>2025-10-26T13:55:03Z</time>
      </trkpt>
      <trkpt lat="43.49435" lon="6.66773">
        <ele>89.7</ele>
        <time>2025-10-26T13:55:04Z</time>
      </trkpt>
      <trkpt lat="43.49435" lon="6.66773">
        <ele>89.7</ele>
        <time>2025-10-26T13:55:05Z</time>
      </trkpt>
      <trkpt lat="43.49434" lon="6.66773">
        <ele>89.7</ele>
        <time>2025-10-26T13:55:06Z</time>
      </trkpt>
      <trkpt lat="43.49434" lon="6.66772">
        <ele>89.8</ele>
        <time>2025-10-26T13:55:07Z</time>
      </trkpt>
      <trkpt lat="43.49433" lon="6.66772">
        <ele>89.8</ele>
        <time>2025-10-26T13:55:08Z</time>
      </trkpt>
      <trkpt lat="43.49432" lon="6.66771">
        <ele>89.8</ele>
        <time>2025-10-26T13:55:09Z</time>
      </trkpt>
      <trkpt lat="43.49432" lon="6.66771">
        <ele>89.8</ele>
        <time>2025-10-26T13:55:10Z</time>
      </trkpt>
      <trkpt lat="43.49431" lon="6.6677">
        <ele>89.9</ele>
        <time>2025-10-26T13:55:11Z</time>
      </trkpt>
      <trkpt lat="43.4943" lon="6.66769">
        <ele>89.9</ele>
        <time>2025-10-26T13:55:12Z</time>
      </trkpt>
      <trkpt lat="43.49429" lon="6.66769">
        <ele>89.9</ele>
        <time>2025-10-26T13:55:13Z</time>
      </trkpt>
      <trkpt lat="43.49428" lon="6.66768">
        <ele>89.8</ele>
        <time>2025-10-26T13:55:14Z</time>
      </trkpt>
      <trkpt lat="43.49427" lon="6.66768">
        <ele>89.8</ele>
        <time>2025-10-26T13:55:15Z</time>
      </trkpt>
      <trkpt lat="43.49427" lon="6.66767">
        <ele>89.9</ele>
        <time>2025-10-26T13:55:16Z</time>
      </trkpt>
      <trkpt lat="43.49426" lon="6.66767">
        <ele>90</ele>
        <time>2025-10-26T13:55:17Z</time>
      </trkpt>
      <trkpt lat="43.49425" lon="6.66766">
        <ele>90</ele>
        <time>2025-10-26T13:55:18Z</time>
      </trkpt>
      <trkpt lat="43.49424" lon="6.66765">
        <ele>90</ele>
        <time>2025-10-26T13:55:19Z</time>
      </trkpt>
      <trkpt lat="43.49423" lon="6.66764">
        <ele>90.1</ele>
        <time>2025-10-26T13:55:20Z</time>
      </trkpt>
      <trkpt lat="43.49422" lon="6.66763">
        <ele>90.1</ele>
        <time>2025-10-26T13:55:21Z</time>
      </trkpt>
      <trkpt lat="43.49421" lon="6.66762">
        <ele>90.1</ele>
        <time>2025-10-26T13:55:22Z</time>
      </trkpt>
      <trkpt lat="43.49421" lon="6.66761">
        <ele>90.1</ele>
        <time>2025-10-26T13:55:23Z</time>
      </trkpt>
      <trkpt lat="43.4942" lon="6.6676">
        <ele>90</ele>
        <time>2025-10-26T13:55:24Z</time>
      </trkpt>
      <trkpt lat="43.49419" lon="6.66759">
        <ele>90</ele>
        <time>2025-10-26T13:55:25Z</time>
      </trkpt>
      <trkpt lat="43.49418" lon="6.66758">
        <ele>89.9</ele>
        <time>2025-10-26T13:55:26Z</time>
      </trkpt>
      <trkpt lat="43.49417" lon="6.66757">
        <ele>89.9</ele>
        <time>2025-10-26T13:55:27Z</time>
      </trkpt>
      <trkpt lat="43.49416" lon="6.66756">
        <ele>89.9</ele>
        <time>2025-10-26T13:55:28Z</time>
      </trkpt>
      <trkpt lat="43.49416" lon="6.66754">
        <ele>89.8</ele>
        <time>2025-10-26T13:55:29Z</time>
      </trkpt>
      <trkpt lat="43.49415" lon="6.66753">
        <ele>89.9</ele>
        <time>2025-10-26T13:55:30Z</time>
      </trkpt>
      <trkpt lat="43.49415" lon="6.66752">
        <ele>90</ele>
        <time>2025-10-26T13:55:31Z</time>
      </trkpt>
      <trkpt lat="43.49414" lon="6.66751">
        <ele>90</ele>
        <time>2025-10-26T13:55:32Z</time>
      </trkpt>
      <trkpt lat="43.49414" lon="6.6675">
        <ele>90.1</ele>
        <time>2025-10-26T13:55:33Z</time>
      </trkpt>
      <trkpt lat="43.49413" lon="6.66749">
        <ele>90.1</ele>
        <time>2025-10-26T13:55:34Z</time>
      </trkpt>
      <trkpt lat="43.49413" lon="6.66747">
        <ele>90.1</ele>
        <time>2025-10-26T13:55:35Z</time>
      </trkpt>
      <trkpt lat="43.49413" lon="6.66746">
        <ele>90.1</ele>
        <time>2025-10-26T13:55:36Z</time>
      </trkpt>
      <trkpt lat="43.49412" lon="6.66745">
        <ele>90.1</ele>
        <time>2025-10-26T13:55:37Z</time>
      </trkpt>
      <trkpt lat="43.49412" lon="6.66744">
        <ele>90.1</ele>
        <time>2025-10-26T13:55:38Z</time>
      </trkpt>
      <trkpt lat="43.49411" lon="6.66742">
        <ele>90</ele>
        <time>2025-10-26T13:55:39Z</time>
      </trkpt>
      <trkpt lat="43.4941" lon="6.66741">
        <ele>89.9</ele>
        <time>2025-10-26T13:55:40Z</time>
      </trkpt>
      <trkpt lat="43.49409" lon="6.66741">
        <ele>89.8</ele>
        <time>2025-10-26T13:55:41Z</time>
      </trkpt>
      <trkpt lat="43.49408" lon="6.6674">
        <ele>89.8</ele>
        <time>2025-10-26T13:55:42Z</time>
      </trkpt>
      <trkpt lat="43.49407" lon="6.66739">
        <ele>89.9</ele>
        <time>2025-10-26T13:55:43Z</time>
      </trkpt>
      <trkpt lat="43.49406" lon="6.66738">
        <ele>89.8</ele>
        <time>2025-10-26T13:55:44Z</time>
      </trkpt>
      <trkpt lat="43.49404" lon="6.66737">
        <ele>89.9</ele>
        <time>2025-10-26T13:55:45Z</time>
      </trkpt>
      <trkpt lat="43.49404" lon="6.66736">
        <ele>89.9</ele>
        <time>2025-10-26T13:55:46Z</time>
      </trkpt>
      <trkpt lat="43.49403" lon="6.66735">
        <ele>89.9</ele>
        <time>2025-10-26T13:55:47Z</time>
      </trkpt>
      <trkpt lat="43.49402" lon="6.66735">
        <ele>89.9</ele>
        <time>2025-10-26T13:55:48Z</time>
      </trkpt>
      <trkpt lat="43.49401" lon="6.66734">
        <ele>89.9</ele>
        <time>2025-10-26T13:55:49Z</time>
      </trkpt>
      <trkpt lat="43.494" lon="6.66732">
        <ele>89.7</ele>
        <time>2025-10-26T13:55:50Z</time>
      </trkpt>
      <trkpt lat="43.49399" lon="6.66731">
        <ele>89.6</ele>
        <time>2025-10-26T13:55:51Z</time>
      </trkpt>
      <trkpt lat="43.49398" lon="6.6673">
        <ele>89.5</ele>
        <time>2025-10-26T13:55:52Z</time>
      </trkpt>
      <trkpt lat="43.49397" lon="6.66729">
        <ele>89.3</ele>
        <time>2025-10-26T13:55:53Z</time>
      </trkpt>
      <trkpt lat="43.49396" lon="6.66728">
        <ele>89.3</ele>
        <time>2025-10-26T13:55:54Z</time>
      </trkpt>
      <trkpt lat="43.49395" lon="6.66726">
        <ele>89.3</ele>
        <time>2025-10-26T13:55:55Z</time>
      </trkpt>
      <trkpt lat="43.49393" lon="6.66725">
        <ele>89.3</ele>
        <time>2025-10-26T13:55:56Z</time>
      </trkpt>
      <trkpt lat="43.49392" lon="6.66724">
        <ele>89.5</ele>
        <time>2025-10-26T13:55:57Z</time>
      </trkpt>
      <trkpt lat="43.49392" lon="6.66723">
        <ele>89.5</ele>
        <time>2025-10-26T13:55:58Z</time>
      </trkpt>
      <trkpt lat="43.49391" lon="6.66721">
        <ele>89.5</ele>
        <time>2025-10-26T13:55:59Z</time>
      </trkpt>
      <trkpt lat="43.4939" lon="6.6672">
        <ele>89.6</ele>
        <time>2025-10-26T13:56:00Z</time>
      </trkpt>
      <trkpt lat="43.49389" lon="6.66718">
        <ele>89.7</ele>
        <time>2025-10-26T13:56:01Z</time>
      </trkpt>
      <trkpt lat="43.49388" lon="6.66717">
        <ele>89.7</ele>
        <time>2025-10-26T13:56:02Z</time>
      </trkpt>
      <trkpt lat="43.49388" lon="6.66716">
        <ele>89.6</ele>
        <time>2025-10-26T13:56:03Z</time>
      </trkpt>
      <trkpt lat="43.49387" lon="6.66715">
        <ele>89.7</ele>
        <time>2025-10-26T13:56:04Z</time>
      </trkpt>
      <trkpt lat="43.49386" lon="6.66714">
        <ele>89.8</ele>
        <time>2025-10-26T13:56:05Z</time>
      </trkpt>
      <trkpt lat="43.49385" lon="6.66713">
        <ele>89.8</ele>
        <time>2025-10-26T13:56:06Z</time>
      </trkpt>
      <trkpt lat="43.49383" lon="6.66712">
        <ele>89.8</ele>
        <time>2025-10-26T13:56:07Z</time>
      </trkpt>
      <trkpt lat="43.49382" lon="6.66711">
        <ele>89.8</ele>
        <time>2025-10-26T13:56:08Z</time>
      </trkpt>
      <trkpt lat="43.49381" lon="6.66711">
        <ele>89.9</ele>
        <time>2025-10-26T13:56:09Z</time>
      </trkpt>
      <trkpt lat="43.4938" lon="6.66711">
        <ele>89.8</ele>
        <time>2025-10-26T13:56:10Z</time>
      </trkpt>
      <trkpt lat="43.49378" lon="6.6671">
        <ele>89.7</ele>
        <time>2025-10-26T13:56:11Z</time>
      </trkpt>
      <trkpt lat="43.49377" lon="6.6671">
        <ele>89.6</ele>
        <time>2025-10-26T13:56:12Z</time>
      </trkpt>
      <trkpt lat="43.49376" lon="6.66709">
        <ele>89.4</ele>
        <time>2025-10-26T13:56:13Z</time>
      </trkpt>
      <trkpt lat="43.49374" lon="6.66708">
        <ele>89.2</ele>
        <time>2025-10-26T13:56:14Z</time>
      </trkpt>
      <trkpt lat="43.49373" lon="6.66708">
        <ele>89.2</ele>
        <time>2025-10-26T13:56:15Z</time>
      </trkpt>
      <trkpt lat="43.49372" lon="6.66707">
        <ele>88.9</ele>
        <time>2025-10-26T13:56:16Z</time>
      </trkpt>
      <trkpt lat="43.49372" lon="6.66706">
        <ele>88.8</ele>
        <time>2025-10-26T13:56:17Z</time>
      </trkpt>
      <trkpt lat="43.49371" lon="6.66705">
        <ele>88.6</ele>
        <time>2025-10-26T13:56:18Z</time>
      </trkpt>
      <trkpt lat="43.4937" lon="6.66705">
        <ele>88.5</ele>
        <time>2025-10-26T13:56:19Z</time>
      </trkpt>
      <trkpt lat="43.49369" lon="6.66704">
        <ele>88.4</ele>
        <time>2025-10-26T13:56:20Z</time>
      </trkpt>
      <trkpt lat="43.49367" lon="6.66703">
        <ele>88.4</ele>
        <time>2025-10-26T13:56:21Z</time>
      </trkpt>
      <trkpt lat="43.49367" lon="6.66703">
        <ele>88.4</ele>
        <time>2025-10-26T13:56:22Z</time>
      </trkpt>
      <trkpt lat="43.49365" lon="6.66703">
        <ele>88.4</ele>
        <time>2025-10-26T13:56:23Z</time>
      </trkpt>
      <trkpt lat="43.49364" lon="6.66702">
        <ele>88.3</ele>
        <time>2025-10-26T13:56:24Z</time>
      </trkpt>
      <trkpt lat="43.49362" lon="6.66701">
        <ele>88.2</ele>
        <time>2025-10-26T13:56:25Z</time>
      </trkpt>
      <trkpt lat="43.49361" lon="6.66701">
        <ele>88.1</ele>
        <time>2025-10-26T13:56:26Z</time>
      </trkpt>
      <trkpt lat="43.4936" lon="6.66701">
        <ele>88.1</ele>
        <time>2025-10-26T13:56:27Z</time>
      </trkpt>
      <trkpt lat="43.49358" lon="6.667">
        <ele>87.9</ele>
        <time>2025-10-26T13:56:28Z</time>
      </trkpt>
      <trkpt lat="43.49357" lon="6.667">
        <ele>87.8</ele>
        <time>2025-10-26T13:56:29Z</time>
      </trkpt>
      <trkpt lat="43.49356" lon="6.66699">
        <ele>87.7</ele>
        <time>2025-10-26T13:56:30Z</time>
      </trkpt>
      <trkpt lat="43.49355" lon="6.66698">
        <ele>87.5</ele>
        <time>2025-10-26T13:56:31Z</time>
      </trkpt>
      <trkpt lat="43.49354" lon="6.66697">
        <ele>87.4</ele>
        <time>2025-10-26T13:56:32Z</time>
      </trkpt>
      <trkpt lat="43.49352" lon="6.66696">
        <ele>87.2</ele>
        <time>2025-10-26T13:56:33Z</time>
      </trkpt>
      <trkpt lat="43.4935" lon="6.66696">
        <ele>87.1</ele>
        <time>2025-10-26T13:56:34Z</time>
      </trkpt>
      <trkpt lat="43.49349" lon="6.66695">
        <ele>87.1</ele>
        <time>2025-10-26T13:56:35Z</time>
      </trkpt>
      <trkpt lat="43.49348" lon="6.66695">
        <ele>87</ele>
        <time>2025-10-26T13:56:36Z</time>
      </trkpt>
      <trkpt lat="43.49347" lon="6.66694">
        <ele>87</ele>
        <time>2025-10-26T13:56:37Z</time>
      </trkpt>
      <trkpt lat="43.49346" lon="6.66694">
        <ele>86.9</ele>
        <time>2025-10-26T13:56:38Z</time>
      </trkpt>
      <trkpt lat="43.49344" lon="6.66693">
        <ele>86.8</ele>
        <time>2025-10-26T13:56:39Z</time>
      </trkpt>
      <trkpt lat="43.49343" lon="6.66693">
        <ele>86.8</ele>
        <time>2025-10-26T13:56:40Z</time>
      </trkpt>
      <trkpt lat="43.49342" lon="6.66692">
        <ele>86.7</ele>
        <time>2025-10-26T13:56:41Z</time>
      </trkpt>
      <trkpt lat="43.49341" lon="6.66691">
        <ele>86.8</ele>
        <time>2025-10-26T13:56:42Z</time>
      </trkpt>
      <trkpt lat="43.4934" lon="6.6669">
        <ele>86.8</ele>
        <time>2025-10-26T13:56:43Z</time>
      </trkpt>
      <trkpt lat="43.49338" lon="6.6669">
        <ele>86.8</ele>
        <time>2025-10-26T13:56:44Z</time>
      </trkpt>
      <trkpt lat="43.49337" lon="6.66689">
        <ele>86.7</ele>
        <time>2025-10-26T13:56:45Z</time>
      </trkpt>
      <trkpt lat="43.49336" lon="6.66689">
        <ele>86.7</ele>
        <time>2025-10-26T13:56:46Z</time>
      </trkpt>
      <trkpt lat="43.49335" lon="6.66688">
        <ele>86.5</ele>
        <time>2025-10-26T13:56:47Z</time>
      </trkpt>
      <trkpt lat="43.49334" lon="6.66687">
        <ele>86.4</ele>
        <time>2025-10-26T13:56:48Z</time>
      </trkpt>
      <trkpt lat="43.49333" lon="6.66686">
        <ele>86.4</ele>
        <time>2025-10-26T13:56:49Z</time>
      </trkpt>
      <trkpt lat="43.49332" lon="6.66685">
        <ele>86.3</ele>
        <time>2025-10-26T13:56:50Z</time>
      </trkpt>
      <trkpt lat="43.4933" lon="6.66685">
        <ele>86.3</ele>
        <time>2025-10-26T13:56:51Z</time>
      </trkpt>
      <trkpt lat="43.49329" lon="6.66684">
        <ele>86.3</ele>
        <time>2025-10-26T13:56:52Z</time>
      </trkpt>
      <trkpt lat="43.49328" lon="6.66684">
        <ele>86.2</ele>
        <time>2025-10-26T13:56:53Z</time>
      </trkpt>
      <trkpt lat="43.49326" lon="6.66684">
        <ele>86.1</ele>
        <time>2025-10-26T13:56:54Z</time>
      </trkpt>
      <trkpt lat="43.49325" lon="6.66683">
        <ele>86.1</ele>
        <time>2025-10-26T13:56:55Z</time>
      </trkpt>
      <trkpt lat="43.49324" lon="6.66684">
        <ele>86.1</ele>
        <time>2025-10-26T13:56:56Z</time>
      </trkpt>
      <trkpt lat="43.49324" lon="6.66683">
        <ele>86</ele>
        <time>2025-10-26T13:56:57Z</time>
      </trkpt>
      <trkpt lat="43.49322" lon="6.66684">
        <ele>85.9</ele>
        <time>2025-10-26T13:56:58Z</time>
      </trkpt>
      <trkpt lat="43.49321" lon="6.66684">
        <ele>85.7</ele>
        <time>2025-10-26T13:56:59Z</time>
      </trkpt>
      <trkpt lat="43.4932" lon="6.66684">
        <ele>85.6</ele>
        <time>2025-10-26T13:57:00Z</time>
      </trkpt>
      <trkpt lat="43.49318" lon="6.66684">
        <ele>85.4</ele>
        <time>2025-10-26T13:57:01Z</time>
      </trkpt>
      <trkpt lat="43.49317" lon="6.66684">
        <ele>85.3</ele>
        <time>2025-10-26T13:57:02Z</time>
      </trkpt>
      <trkpt lat="43.49316" lon="6.66685">
        <ele>85.3</ele>
        <time>2025-10-26T13:57:03Z</time>
      </trkpt>
      <trkpt lat="43.49314" lon="6.66685">
        <ele>85.2</ele>
        <time>2025-10-26T13:57:04Z</time>
      </trkpt>
      <trkpt lat="43.49313" lon="6.66685">
        <ele>85.1</ele>
        <time>2025-10-26T13:57:05Z</time>
      </trkpt>
      <trkpt lat="43.49312" lon="6.66686">
        <ele>85</ele>
        <time>2025-10-26T13:57:06Z</time>
      </trkpt>
      <trkpt lat="43.4931" lon="6.66686">
        <ele>84.9</ele>
        <time>2025-10-26T13:57:07Z</time>
      </trkpt>
      <trkpt lat="43.49309" lon="6.66686">
        <ele>84.9</ele>
        <time>2025-10-26T13:57:08Z</time>
      </trkpt>
      <trkpt lat="43.49307" lon="6.66687">
        <ele>84.7</ele>
        <time>2025-10-26T13:57:09Z</time>
      </trkpt>
      <trkpt lat="43.49306" lon="6.66687">
        <ele>84.6</ele>
        <time>2025-10-26T13:57:10Z</time>
      </trkpt>
      <trkpt lat="43.49305" lon="6.66688">
        <ele>84.5</ele>
        <time>2025-10-26T13:57:11Z</time>
      </trkpt>
      <trkpt lat="43.49304" lon="6.66688">
        <ele>84.4</ele>
        <time>2025-10-26T13:57:12Z</time>
      </trkpt>
      <trkpt lat="43.49303" lon="6.66688">
        <ele>84.4</ele>
        <time>2025-10-26T13:57:13Z</time>
      </trkpt>
      <trkpt lat="43.49302" lon="6.66689">
        <ele>84.4</ele>
        <time>2025-10-26T13:57:14Z</time>
      </trkpt>
      <trkpt lat="43.49301" lon="6.66691">
        <ele>84.3</ele>
        <time>2025-10-26T13:57:15Z</time>
      </trkpt>
      <trkpt lat="43.49299" lon="6.66692">
        <ele>84.3</ele>
        <time>2025-10-26T13:57:16Z</time>
      </trkpt>
      <trkpt lat="43.49297" lon="6.66693">
        <ele>84.3</ele>
        <time>2025-10-26T13:57:17Z</time>
      </trkpt>
      <trkpt lat="43.49296" lon="6.66694">
        <ele>84.2</ele>
        <time>2025-10-26T13:57:18Z</time>
      </trkpt>
      <trkpt lat="43.49295" lon="6.66695">
        <ele>84.2</ele>
        <time>2025-10-26T13:57:19Z</time>
      </trkpt>
      <trkpt lat="43.49293" lon="6.66696">
        <ele>84.2</ele>
        <time>2025-10-26T13:57:20Z</time>
      </trkpt>
      <trkpt lat="43.49292" lon="6.66696">
        <ele>84.2</ele>
        <time>2025-10-26T13:57:21Z</time>
      </trkpt>
      <trkpt lat="43.49291" lon="6.66697">
        <ele>84.1</ele>
        <time>2025-10-26T13:57:22Z</time>
      </trkpt>
      <trkpt lat="43.49289" lon="6.66698">
        <ele>84</ele>
        <time>2025-10-26T13:57:23Z</time>
      </trkpt>
      <trkpt lat="43.49288" lon="6.66699">
        <ele>83.9</ele>
        <time>2025-10-26T13:57:24Z</time>
      </trkpt>
      <trkpt lat="43.49287" lon="6.66699">
        <ele>83.8</ele>
        <time>2025-10-26T13:57:25Z</time>
      </trkpt>
      <trkpt lat="43.49286" lon="6.667">
        <ele>83.7</ele>
        <time>2025-10-26T13:57:26Z</time>
      </trkpt>
      <trkpt lat="43.49285" lon="6.667">
        <ele>83.7</ele>
        <time>2025-10-26T13:57:27Z</time>
      </trkpt>
      <trkpt lat="43.49284" lon="6.66701">
        <ele>83.7</ele>
        <time>2025-10-26T13:57:28Z</time>
      </trkpt>
      <trkpt lat="43.49283" lon="6.66702">
        <ele>83.6</ele>
        <time>2025-10-26T13:57:29Z</time>
      </trkpt>
      <trkpt lat="43.49283" lon="6.66703">
        <ele>83.5</ele>
        <time>2025-10-26T13:57:30Z</time>
      </trkpt>
      <trkpt lat="43.49282" lon="6.66703">
        <ele>83.5</ele>
        <time>2025-10-26T13:57:31Z</time>
      </trkpt>
      <trkpt lat="43.49281" lon="6.66704">
        <ele>83.5</ele>
        <time>2025-10-26T13:57:32Z</time>
      </trkpt>
      <trkpt lat="43.4928" lon="6.66704">
        <ele>83.5</ele>
        <time>2025-10-26T13:57:33Z</time>
      </trkpt>
      <trkpt lat="43.49278" lon="6.66705">
        <ele>83.4</ele>
        <time>2025-10-26T13:57:34Z</time>
      </trkpt>
      <trkpt lat="43.49277" lon="6.66705">
        <ele>83.3</ele>
        <time>2025-10-26T13:57:35Z</time>
      </trkpt>
      <trkpt lat="43.49276" lon="6.66705">
        <ele>83.2</ele>
        <time>2025-10-26T13:57:36Z</time>
      </trkpt>
      <trkpt lat="43.49275" lon="6.66705">
        <ele>83.1</ele>
        <time>2025-10-26T13:57:37Z</time>
      </trkpt>
      <trkpt lat="43.49273" lon="6.66705">
        <ele>83</ele>
        <time>2025-10-26T13:57:38Z</time>
      </trkpt>
      <trkpt lat="43.49272" lon="6.66705">
        <ele>82.9</ele>
        <time>2025-10-26T13:57:39Z</time>
      </trkpt>
      <trkpt lat="43.49271" lon="6.66705">
        <ele>82.6</ele>
        <time>2025-10-26T13:57:40Z</time>
      </trkpt>
      <trkpt lat="43.4927" lon="6.66704">
        <ele>82.5</ele>
        <time>2025-10-26T13:57:41Z</time>
      </trkpt>
      <trkpt lat="43.49268" lon="6.66704">
        <ele>82.4</ele>
        <time>2025-10-26T13:57:42Z</time>
      </trkpt>
      <trkpt lat="43.49267" lon="6.66703">
        <ele>82.3</ele>
        <time>2025-10-26T13:57:43Z</time>
      </trkpt>
      <trkpt lat="43.49266" lon="6.66703">
        <ele>82.2</ele>
        <time>2025-10-26T13:57:44Z</time>
      </trkpt>
      <trkpt lat="43.49265" lon="6.66702">
        <ele>82.2</ele>
        <time>2025-10-26T13:57:45Z</time>
      </trkpt>
      <trkpt lat="43.49264" lon="6.66702">
        <ele>82.2</ele>
        <time>2025-10-26T13:57:46Z</time>
      </trkpt>
      <trkpt lat="43.49262" lon="6.66701">
        <ele>82.2</ele>
        <time>2025-10-26T13:57:47Z</time>
      </trkpt>
      <trkpt lat="43.49261" lon="6.66701">
        <ele>82</ele>
        <time>2025-10-26T13:57:48Z</time>
      </trkpt>
      <trkpt lat="43.49259" lon="6.66701">
        <ele>81.9</ele>
        <time>2025-10-26T13:57:49Z</time>
      </trkpt>
      <trkpt lat="43.49258" lon="6.66701">
        <ele>81.8</ele>
        <time>2025-10-26T13:57:50Z</time>
      </trkpt>
      <trkpt lat="43.49257" lon="6.667">
        <ele>81.8</ele>
        <time>2025-10-26T13:57:51Z</time>
      </trkpt>
      <trkpt lat="43.49255" lon="6.667">
        <ele>81.7</ele>
        <time>2025-10-26T13:57:52Z</time>
      </trkpt>
      <trkpt lat="43.49254" lon="6.66699">
        <ele>81.7</ele>
        <time>2025-10-26T13:57:53Z</time>
      </trkpt>
      <trkpt lat="43.49253" lon="6.66699">
        <ele>81.6</ele>
        <time>2025-10-26T13:57:54Z</time>
      </trkpt>
      <trkpt lat="43.49252" lon="6.66698">
        <ele>81.6</ele>
        <time>2025-10-26T13:57:55Z</time>
      </trkpt>
      <trkpt lat="43.4925" lon="6.66698">
        <ele>81.6</ele>
        <time>2025-10-26T13:57:56Z</time>
      </trkpt>
      <trkpt lat="43.49249" lon="6.66697">
        <ele>81.5</ele>
        <time>2025-10-26T13:57:57Z</time>
      </trkpt>
      <trkpt lat="43.49248" lon="6.66696">
        <ele>81.4</ele>
        <time>2025-10-26T13:57:58Z</time>
      </trkpt>
      <trkpt lat="43.49247" lon="6.66695">
        <ele>81.4</ele>
        <time>2025-10-26T13:57:59Z</time>
      </trkpt>
      <trkpt lat="43.49246" lon="6.66694">
        <ele>81.2</ele>
        <time>2025-10-26T13:58:00Z</time>
      </trkpt>
      <trkpt lat="43.49244" lon="6.66693">
        <ele>81.1</ele>
        <time>2025-10-26T13:58:01Z</time>
      </trkpt>
      <trkpt lat="43.49243" lon="6.66693">
        <ele>81</ele>
        <time>2025-10-26T13:58:02Z</time>
      </trkpt>
      <trkpt lat="43.49242" lon="6.66692">
        <ele>80.9</ele>
        <time>2025-10-26T13:58:03Z</time>
      </trkpt>
      <trkpt lat="43.49241" lon="6.66691">
        <ele>80.8</ele>
        <time>2025-10-26T13:58:04Z</time>
      </trkpt>
      <trkpt lat="43.4924" lon="6.6669">
        <ele>80.7</ele>
        <time>2025-10-26T13:58:05Z</time>
      </trkpt>
      <trkpt lat="43.49239" lon="6.66689">
        <ele>80.7</ele>
        <time>2025-10-26T13:58:06Z</time>
      </trkpt>
      <trkpt lat="43.49237" lon="6.66688">
        <ele>80.6</ele>
        <time>2025-10-26T13:58:07Z</time>
      </trkpt>
      <trkpt lat="43.49236" lon="6.66687">
        <ele>80.5</ele>
        <time>2025-10-26T13:58:08Z</time>
      </trkpt>
      <trkpt lat="43.49235" lon="6.66686">
        <ele>80.4</ele>
        <time>2025-10-26T13:58:09Z</time>
      </trkpt>
      <trkpt lat="43.49234" lon="6.66685">
        <ele>80.3</ele>
        <time>2025-10-26T13:58:10Z</time>
      </trkpt>
      <trkpt lat="43.49233" lon="6.66684">
        <ele>80.2</ele>
        <time>2025-10-26T13:58:11Z</time>
      </trkpt>
      <trkpt lat="43.49232" lon="6.66684">
        <ele>80.1</ele>
        <time>2025-10-26T13:58:12Z</time>
      </trkpt>
      <trkpt lat="43.49231" lon="6.66683">
        <ele>80.1</ele>
        <time>2025-10-26T13:58:13Z</time>
      </trkpt>
      <trkpt lat="43.4923" lon="6.66682">
        <ele>80.2</ele>
        <time>2025-10-26T13:58:14Z</time>
      </trkpt>
      <trkpt lat="43.49229" lon="6.66681">
        <ele>80.5</ele>
        <time>2025-10-26T13:58:15Z</time>
      </trkpt>
      <trkpt lat="43.49227" lon="6.6668">
        <ele>80.7</ele>
        <time>2025-10-26T13:58:16Z</time>
      </trkpt>
      <trkpt lat="43.49227" lon="6.66679">
        <ele>80.7</ele>
        <time>2025-10-26T13:58:17Z</time>
      </trkpt>
      <trkpt lat="43.49226" lon="6.66678">
        <ele>80.6</ele>
        <time>2025-10-26T13:58:18Z</time>
      </trkpt>
      <trkpt lat="43.49225" lon="6.66678">
        <ele>80.5</ele>
        <time>2025-10-26T13:58:19Z</time>
      </trkpt>
      <trkpt lat="43.49223" lon="6.66677">
        <ele>80.6</ele>
        <time>2025-10-26T13:58:20Z</time>
      </trkpt>
      <trkpt lat="43.49222" lon="6.66676">
        <ele>80.7</ele>
        <time>2025-10-26T13:58:21Z</time>
      </trkpt>
      <trkpt lat="43.49221" lon="6.66676">
        <ele>80.8</ele>
        <time>2025-10-26T13:58:22Z</time>
      </trkpt>
      <trkpt lat="43.4922" lon="6.66675">
        <ele>80.8</ele>
        <time>2025-10-26T13:58:23Z</time>
      </trkpt>
      <trkpt lat="43.49218" lon="6.66675">
        <ele>80.8</ele>
        <time>2025-10-26T13:58:24Z</time>
      </trkpt>
      <trkpt lat="43.49217" lon="6.66675">
        <ele>80.7</ele>
        <time>2025-10-26T13:58:25Z</time>
      </trkpt>
      <trkpt lat="43.49215" lon="6.66675">
        <ele>80.7</ele>
        <time>2025-10-26T13:58:26Z</time>
      </trkpt>
      <trkpt lat="43.49214" lon="6.66674">
        <ele>80.6</ele>
        <time>2025-10-26T13:58:27Z</time>
      </trkpt>
      <trkpt lat="43.49213" lon="6.66674">
        <ele>80.5</ele>
        <time>2025-10-26T13:58:28Z</time>
      </trkpt>
      <trkpt lat="43.49212" lon="6.66673">
        <ele>80.5</ele>
        <time>2025-10-26T13:58:29Z</time>
      </trkpt>
      <trkpt lat="43.4921" lon="6.66673">
        <ele>80.4</ele>
        <time>2025-10-26T13:58:30Z</time>
      </trkpt>
      <trkpt lat="43.49209" lon="6.66673">
        <ele>80.3</ele>
        <time>2025-10-26T13:58:31Z</time>
      </trkpt>
      <trkpt lat="43.49208" lon="6.66672">
        <ele>80.1</ele>
        <time>2025-10-26T13:58:32Z</time>
      </trkpt>
      <trkpt lat="43.49207" lon="6.66671">
        <ele>79.9</ele>
        <time>2025-10-26T13:58:33Z</time>
      </trkpt>
      <trkpt lat="43.49206" lon="6.66671">
        <ele>79.8</ele>
        <time>2025-10-26T13:58:34Z</time>
      </trkpt>
      <trkpt lat="43.49205" lon="6.6667">
        <ele>79.7</ele>
        <time>2025-10-26T13:58:35Z</time>
      </trkpt>
      <trkpt lat="43.49204" lon="6.6667">
        <ele>79.6</ele>
        <time>2025-10-26T13:58:36Z</time>
      </trkpt>
      <trkpt lat="43.49202" lon="6.6667">
        <ele>79.5</ele>
        <time>2025-10-26T13:58:37Z</time>
      </trkpt>
      <trkpt lat="43.49201" lon="6.66669">
        <ele>79.4</ele>
        <time>2025-10-26T13:58:38Z</time>
      </trkpt>
      <trkpt lat="43.492" lon="6.66669">
        <ele>79.4</ele>
        <time>2025-10-26T13:58:39Z</time>
      </trkpt>
      <trkpt lat="43.49198" lon="6.66668">
        <ele>79.3</ele>
        <time>2025-10-26T13:58:40Z</time>
      </trkpt>
      <trkpt lat="43.49197" lon="6.66669">
        <ele>79.3</ele>
        <time>2025-10-26T13:58:41Z</time>
      </trkpt>
      <trkpt lat="43.49196" lon="6.66668">
        <ele>79.2</ele>
        <time>2025-10-26T13:58:42Z</time>
      </trkpt>
      <trkpt lat="43.49194" lon="6.66668">
        <ele>79.1</ele>
        <time>2025-10-26T13:58:43Z</time>
      </trkpt>
      <trkpt lat="43.49193" lon="6.66668">
        <ele>79.1</ele>
        <time>2025-10-26T13:58:44Z</time>
      </trkpt>
      <trkpt lat="43.49193" lon="6.66668">
        <ele>79</ele>
        <time>2025-10-26T13:58:45Z</time>
      </trkpt>
      <trkpt lat="43.49192" lon="6.66668">
        <ele>79.1</ele>
        <time>2025-10-26T13:58:46Z</time>
      </trkpt>
      <trkpt lat="43.49191" lon="6.66669">
        <ele>79.1</ele>
        <time>2025-10-26T13:58:47Z</time>
      </trkpt>
      <trkpt lat="43.4919" lon="6.66669">
        <ele>79.2</ele>
        <time>2025-10-26T13:58:48Z</time>
      </trkpt>
      <trkpt lat="43.49189" lon="6.66669">
        <ele>79.1</ele>
        <time>2025-10-26T13:58:49Z</time>
      </trkpt>
      <trkpt lat="43.49188" lon="6.66669">
        <ele>79</ele>
        <time>2025-10-26T13:58:50Z</time>
      </trkpt>
      <trkpt lat="43.49186" lon="6.6667">
        <ele>79</ele>
        <time>2025-10-26T13:58:51Z</time>
      </trkpt>
      <trkpt lat="43.49185" lon="6.6667">
        <ele>78.9</ele>
        <time>2025-10-26T13:58:52Z</time>
      </trkpt>
      <trkpt lat="43.49184" lon="6.66671">
        <ele>78.9</ele>
        <time>2025-10-26T13:58:53Z</time>
      </trkpt>
      <trkpt lat="43.49182" lon="6.66671">
        <ele>78.9</ele>
        <time>2025-10-26T13:58:54Z</time>
      </trkpt>
      <trkpt lat="43.49181" lon="6.66672">
        <ele>78.6</ele>
        <time>2025-10-26T13:58:55Z</time>
      </trkpt>
      <trkpt lat="43.4918" lon="6.66672">
        <ele>78.4</ele>
        <time>2025-10-26T13:58:56Z</time>
      </trkpt>
      <trkpt lat="43.49179" lon="6.66672">
        <ele>78.3</ele>
        <time>2025-10-26T13:58:57Z</time>
      </trkpt>
      <trkpt lat="43.49178" lon="6.66672">
        <ele>78.1</ele>
        <time>2025-10-26T13:58:58Z</time>
      </trkpt>
      <trkpt lat="43.49177" lon="6.66672">
        <ele>77.8</ele>
        <time>2025-10-26T13:58:59Z</time>
      </trkpt>
      <trkpt lat="43.49176" lon="6.66672">
        <ele>77.7</ele>
        <time>2025-10-26T13:59:00Z</time>
      </trkpt>
      <trkpt lat="43.49175" lon="6.66672">
        <ele>77.6</ele>
        <time>2025-10-26T13:59:01Z</time>
      </trkpt>
      <trkpt lat="43.49173" lon="6.66672">
        <ele>77.4</ele>
        <time>2025-10-26T13:59:02Z</time>
      </trkpt>
      <trkpt lat="43.49172" lon="6.66672">
        <ele>77.3</ele>
        <time>2025-10-26T13:59:03Z</time>
      </trkpt>
      <trkpt lat="43.49171" lon="6.66672">
        <ele>77.3</ele>
        <time>2025-10-26T13:59:04Z</time>
      </trkpt>
      <trkpt lat="43.49169" lon="6.66672">
        <ele>77.1</ele>
        <time>2025-10-26T13:59:05Z</time>
      </trkpt>
      <trkpt lat="43.49168" lon="6.66671">
        <ele>77.3</ele>
        <time>2025-10-26T13:59:06Z</time>
      </trkpt>
      <trkpt lat="43.49167" lon="6.66671">
        <ele>77.4</ele>
        <time>2025-10-26T13:59:07Z</time>
      </trkpt>
      <trkpt lat="43.49166" lon="6.6667">
        <ele>77.5</ele>
        <time>2025-10-26T13:59:08Z</time>
      </trkpt>
      <trkpt lat="43.49165" lon="6.6667">
        <ele>77.6</ele>
        <time>2025-10-26T13:59:09Z</time>
      </trkpt>
      <trkpt lat="43.49164" lon="6.66669">
        <ele>77.7</ele>
        <time>2025-10-26T13:59:10Z</time>
      </trkpt>
      <trkpt lat="43.49163" lon="6.66669">
        <ele>77.7</ele>
        <time>2025-10-26T13:59:11Z</time>
      </trkpt>
      <trkpt lat="43.49162" lon="6.66668">
        <ele>77.7</ele>
        <time>2025-10-26T13:59:12Z</time>
      </trkpt>
      <trkpt lat="43.49161" lon="6.66668">
        <ele>77.7</ele>
        <time>2025-10-26T13:59:13Z</time>
      </trkpt>
      <trkpt lat="43.4916" lon="6.66667">
        <ele>77.7</ele>
        <time>2025-10-26T13:59:14Z</time>
      </trkpt>
      <trkpt lat="43.49159" lon="6.66666">
        <ele>77.7</ele>
        <time>2025-10-26T13:59:15Z</time>
      </trkpt>
      <trkpt lat="43.49158" lon="6.66665">
        <ele>77.6</ele>
        <time>2025-10-26T13:59:16Z</time>
      </trkpt>
      <trkpt lat="43.49157" lon="6.66664">
        <ele>77.6</ele>
        <time>2025-10-26T13:59:17Z</time>
      </trkpt>
      <trkpt lat="43.49156" lon="6.66663">
        <ele>77.5</ele>
        <time>2025-10-26T13:59:18Z</time>
      </trkpt>
      <trkpt lat="43.49155" lon="6.66662">
        <ele>77.4</ele>
        <time>2025-10-26T13:59:19Z</time>
      </trkpt>
      <trkpt lat="43.49154" lon="6.66661">
        <ele>77.3</ele>
        <time>2025-10-26T13:59:20Z</time>
      </trkpt>
      <trkpt lat="43.49153" lon="6.6666">
        <ele>77.3</ele>
        <time>2025-10-26T13:59:21Z</time>
      </trkpt>
      <trkpt lat="43.49152" lon="6.66659">
        <ele>77.3</ele>
        <time>2025-10-26T13:59:22Z</time>
      </trkpt>
      <trkpt lat="43.49151" lon="6.66658">
        <ele>77.3</ele>
        <time>2025-10-26T13:59:23Z</time>
      </trkpt>
      <trkpt lat="43.4915" lon="6.66657">
        <ele>77.3</ele>
        <time>2025-10-26T13:59:24Z</time>
      </trkpt>
      <trkpt lat="43.49149" lon="6.66655">
        <ele>77.3</ele>
        <time>2025-10-26T13:59:25Z</time>
      </trkpt>
      <trkpt lat="43.49148" lon="6.66654">
        <ele>77.2</ele>
        <time>2025-10-26T13:59:26Z</time>
      </trkpt>
      <trkpt lat="43.49147" lon="6.66652">
        <ele>77.1</ele>
        <time>2025-10-26T13:59:27Z</time>
      </trkpt>
      <trkpt lat="43.49146" lon="6.66651">
        <ele>76.9</ele>
        <time>2025-10-26T13:59:28Z</time>
      </trkpt>
      <trkpt lat="43.49145" lon="6.6665">
        <ele>76.8</ele>
        <time>2025-10-26T13:59:29Z</time>
      </trkpt>
      <trkpt lat="43.49145" lon="6.66649">
        <ele>76.7</ele>
        <time>2025-10-26T13:59:30Z</time>
      </trkpt>
      <trkpt lat="43.49144" lon="6.66648">
        <ele>76.7</ele>
        <time>2025-10-26T13:59:31Z</time>
      </trkpt>
      <trkpt lat="43.49142" lon="6.66647">
        <ele>76.8</ele>
        <time>2025-10-26T13:59:32Z</time>
      </trkpt>
      <trkpt lat="43.49142" lon="6.66646">
        <ele>76.8</ele>
        <time>2025-10-26T13:59:33Z</time>
      </trkpt>
      <trkpt lat="43.49141" lon="6.66645">
        <ele>76.8</ele>
        <time>2025-10-26T13:59:34Z</time>
      </trkpt>
      <trkpt lat="43.4914" lon="6.66644">
        <ele>76.8</ele>
        <time>2025-10-26T13:59:35Z</time>
      </trkpt>
      <trkpt lat="43.49139" lon="6.66643">
        <ele>76.9</ele>
        <time>2025-10-26T13:59:36Z</time>
      </trkpt>
      <trkpt lat="43.49138" lon="6.66642">
        <ele>76.9</ele>
        <time>2025-10-26T13:59:37Z</time>
      </trkpt>
      <trkpt lat="43.49138" lon="6.66642">
        <ele>76.8</ele>
        <time>2025-10-26T13:59:38Z</time>
      </trkpt>
      <trkpt lat="43.49137" lon="6.66641">
        <ele>76.7</ele>
        <time>2025-10-26T13:59:39Z</time>
      </trkpt>
      <trkpt lat="43.49136" lon="6.66639">
        <ele>76.6</ele>
        <time>2025-10-26T13:59:40Z</time>
      </trkpt>
      <trkpt lat="43.49136" lon="6.66638">
        <ele>76.5</ele>
        <time>2025-10-26T13:59:41Z</time>
      </trkpt>
      <trkpt lat="43.49135" lon="6.66637">
        <ele>76.3</ele>
        <time>2025-10-26T13:59:42Z</time>
      </trkpt>
      <trkpt lat="43.49134" lon="6.66635">
        <ele>76.1</ele>
        <time>2025-10-26T13:59:43Z</time>
      </trkpt>
      <trkpt lat="43.49133" lon="6.66634">
        <ele>76</ele>
        <time>2025-10-26T13:59:44Z</time>
      </trkpt>
      <trkpt lat="43.49132" lon="6.66633">
        <ele>76</ele>
        <time>2025-10-26T13:59:45Z</time>
      </trkpt>
      <trkpt lat="43.49132" lon="6.66632">
        <ele>76</ele>
        <time>2025-10-26T13:59:46Z</time>
      </trkpt>
      <trkpt lat="43.49131" lon="6.6663">
        <ele>76</ele>
        <time>2025-10-26T13:59:47Z</time>
      </trkpt>
      <trkpt lat="43.4913" lon="6.66629">
        <ele>76.1</ele>
        <time>2025-10-26T13:59:48Z</time>
      </trkpt>
      <trkpt lat="43.49129" lon="6.66628">
        <ele>76.1</ele>
        <time>2025-10-26T13:59:49Z</time>
      </trkpt>
      <trkpt lat="43.49129" lon="6.66627">
        <ele>76.1</ele>
        <time>2025-10-26T13:59:50Z</time>
      </trkpt>
      <trkpt lat="43.49128" lon="6.66625">
        <ele>76.1</ele>
        <time>2025-10-26T13:59:51Z</time>
      </trkpt>
      <trkpt lat="43.49127" lon="6.66624">
        <ele>76.2</ele>
        <time>2025-10-26T13:59:52Z</time>
      </trkpt>
      <trkpt lat="43.49127" lon="6.66624">
        <ele>76.2</ele>
        <time>2025-10-26T13:59:53Z</time>
      </trkpt>
      <trkpt lat="43.49127" lon="6.66623">
        <ele>76.1</ele>
        <time>2025-10-26T13:59:54Z</time>
      </trkpt>
      <trkpt lat="43.49126" lon="6.66622">
        <ele>76.1</ele>
        <time>2025-10-26T13:59:55Z</time>
      </trkpt>
      <trkpt lat="43.49126" lon="6.66621">
        <ele>76</ele>
        <time>2025-10-26T13:59:56Z</time>
      </trkpt>
      <trkpt lat="43.49125" lon="6.6662">
        <ele>76</ele>
        <time>2025-10-26T13:59:57Z</time>
      </trkpt>
      <trkpt lat="43.49125" lon="6.66619">
        <ele>75.9</ele>
        <time>2025-10-26T13:59:58Z</time>
      </trkpt>
      <trkpt lat="43.49124" lon="6.66618">
        <ele>76</ele>
        <time>2025-10-26T13:59:59Z</time>
      </trkpt>
      <trkpt lat="43.49123" lon="6.66617">
        <ele>76.1</ele>
        <time>2025-10-26T14:00:00Z</time>
      </trkpt>
      <trkpt lat="43.49122" lon="6.66616">
        <ele>76.2</ele>
        <time>2025-10-26T14:00:01Z</time>
      </trkpt>
      <trkpt lat="43.49122" lon="6.66615">
        <ele>76.3</ele>
        <time>2025-10-26T14:00:02Z</time>
      </trkpt>
      <trkpt lat="43.49121" lon="6.66615">
        <ele>76.2</ele>
        <time>2025-10-26T14:00:03Z</time>
      </trkpt>
      <trkpt lat="43.4912" lon="6.66614">
        <ele>76.1</ele>
        <time>2025-10-26T14:00:04Z</time>
      </trkpt>
      <trkpt lat="43.49119" lon="6.66613">
        <ele>76.1</ele>
        <time>2025-10-26T14:00:05Z</time>
      </trkpt>
      <trkpt lat="43.49118" lon="6.66612">
        <ele>76.2</ele>
        <time>2025-10-26T14:00:06Z</time>
      </trkpt>
      <trkpt lat="43.49118" lon="6.66611">
        <ele>76</ele>
        <time>2025-10-26T14:00:07Z</time>
      </trkpt>
      <trkpt lat="43.49117" lon="6.6661">
        <ele>75.9</ele>
        <time>2025-10-26T14:00:08Z</time>
      </trkpt>
      <trkpt lat="43.49117" lon="6.66608">
        <ele>75.6</ele>
        <time>2025-10-26T14:00:09Z</time>
      </trkpt>
      <trkpt lat="43.49116" lon="6.66607">
        <ele>75.5</ele>
        <time>2025-10-26T14:00:10Z</time>
      </trkpt>
      <trkpt lat="43.49115" lon="6.66606">
        <ele>75.3</ele>
        <time>2025-10-26T14:00:11Z</time>
      </trkpt>
      <trkpt lat="43.49115" lon="6.66605">
        <ele>75.1</ele>
        <time>2025-10-26T14:00:12Z</time>
      </trkpt>
      <trkpt lat="43.49115" lon="6.66604">
        <ele>75</ele>
        <time>2025-10-26T14:00:13Z</time>
      </trkpt>
      <trkpt lat="43.49114" lon="6.66602">
        <ele>74.8</ele>
        <time>2025-10-26T14:00:14Z</time>
      </trkpt>
      <trkpt lat="43.49114" lon="6.66601">
        <ele>74.7</ele>
        <time>2025-10-26T14:00:15Z</time>
      </trkpt>
      <trkpt lat="43.49114" lon="6.666">
        <ele>74.5</ele>
        <time>2025-10-26T14:00:16Z</time>
      </trkpt>
      <trkpt lat="43.49113" lon="6.66598">
        <ele>74.4</ele>
        <time>2025-10-26T14:00:17Z</time>
      </trkpt>
      <trkpt lat="43.49112" lon="6.66596">
        <ele>74.4</ele>
        <time>2025-10-26T14:00:18Z</time>
      </trkpt>
      <trkpt lat="43.49111" lon="6.66595">
        <ele>74.3</ele>
        <time>2025-10-26T14:00:19Z</time>
      </trkpt>
      <trkpt lat="43.4911" lon="6.66593">
        <ele>74.2</ele>
        <time>2025-10-26T14:00:20Z</time>
      </trkpt>
      <trkpt lat="43.4911" lon="6.66592">
        <ele>74</ele>
        <time>2025-10-26T14:00:21Z</time>
      </trkpt>
      <trkpt lat="43.49109" lon="6.6659">
        <ele>73.8</ele>
        <time>2025-10-26T14:00:22Z</time>
      </trkpt>
      <trkpt lat="43.49108" lon="6.66589">
        <ele>73.6</ele>
        <time>2025-10-26T14:00:23Z</time>
      </trkpt>
      <trkpt lat="43.49108" lon="6.66588">
        <ele>73.2</ele>
        <time>2025-10-26T14:00:24Z</time>
      </trkpt>
      <trkpt lat="43.49107" lon="6.66587">
        <ele>73.1</ele>
        <time>2025-10-26T14:00:25Z</time>
      </trkpt>
      <trkpt lat="43.49107" lon="6.66586">
        <ele>73.2</ele>
        <time>2025-10-26T14:00:26Z</time>
      </trkpt>
      <trkpt lat="43.49106" lon="6.66584">
        <ele>73.2</ele>
        <time>2025-10-26T14:00:27Z</time>
      </trkpt>
      <trkpt lat="43.49106" lon="6.66582">
        <ele>73.2</ele>
        <time>2025-10-26T14:00:28Z</time>
      </trkpt>
      <trkpt lat="43.49105" lon="6.66581">
        <ele>73.2</ele>
        <time>2025-10-26T14:00:29Z</time>
      </trkpt>
      <trkpt lat="43.49105" lon="6.6658">
        <ele>73</ele>
        <time>2025-10-26T14:00:30Z</time>
      </trkpt>
      <trkpt lat="43.49104" lon="6.66578">
        <ele>72.9</ele>
        <time>2025-10-26T14:00:31Z</time>
      </trkpt>
      <trkpt lat="43.49104" lon="6.66577">
        <ele>72.7</ele>
        <time>2025-10-26T14:00:32Z</time>
      </trkpt>
      <trkpt lat="43.49103" lon="6.66576">
        <ele>72.5</ele>
        <time>2025-10-26T14:00:33Z</time>
      </trkpt>
      <trkpt lat="43.49103" lon="6.66574">
        <ele>72.4</ele>
        <time>2025-10-26T14:00:34Z</time>
      </trkpt>
      <trkpt lat="43.49102" lon="6.66573">
        <ele>72.2</ele>
        <time>2025-10-26T14:00:35Z</time>
      </trkpt>
      <trkpt lat="43.49102" lon="6.66571">
        <ele>72</ele>
        <time>2025-10-26T14:00:36Z</time>
      </trkpt>
      <trkpt lat="43.49101" lon="6.6657">
        <ele>71.8</ele>
        <time>2025-10-26T14:00:37Z</time>
      </trkpt>
      <trkpt lat="43.49101" lon="6.66569">
        <ele>71.6</ele>
        <time>2025-10-26T14:00:38Z</time>
      </trkpt>
      <trkpt lat="43.49101" lon="6.66568">
        <ele>71.4</ele>
        <time>2025-10-26T14:00:39Z</time>
      </trkpt>
      <trkpt lat="43.49101" lon="6.66566">
        <ele>71.3</ele>
        <time>2025-10-26T14:00:40Z</time>
      </trkpt>
      <trkpt lat="43.49101" lon="6.66565">
        <ele>71.3</ele>
        <time>2025-10-26T14:00:41Z</time>
      </trkpt>
      <trkpt lat="43.49101" lon="6.66563">
        <ele>71.1</ele>
        <time>2025-10-26T14:00:42Z</time>
      </trkpt>
      <trkpt lat="43.491" lon="6.66562">
        <ele>70.9</ele>
        <time>2025-10-26T14:00:43Z</time>
      </trkpt>
      <trkpt lat="43.491" lon="6.66561">
        <ele>70.8</ele>
        <time>2025-10-26T14:00:44Z</time>
      </trkpt>
      <trkpt lat="43.49099" lon="6.6656">
        <ele>70.7</ele>
        <time>2025-10-26T14:00:45Z</time>
      </trkpt>
      <trkpt lat="43.49099" lon="6.66559">
        <ele>70.5</ele>
        <time>2025-10-26T14:00:46Z</time>
      </trkpt>
      <trkpt lat="43.49098" lon="6.66558">
        <ele>70.4</ele>
        <time>2025-10-26T14:00:47Z</time>
      </trkpt>
      <trkpt lat="43.49098" lon="6.66557">
        <ele>70.3</ele>
        <time>2025-10-26T14:00:48Z</time>
      </trkpt>
      <trkpt lat="43.49097" lon="6.66555">
        <ele>70.2</ele>
        <time>2025-10-26T14:00:49Z</time>
      </trkpt>
      <trkpt lat="43.49097" lon="6.66554">
        <ele>70.1</ele>
        <time>2025-10-26T14:00:50Z</time>
      </trkpt>
      <trkpt lat="43.49096" lon="6.66553">
        <ele>69.9</ele>
        <time>2025-10-26T14:00:51Z</time>
      </trkpt>
      <trkpt lat="43.49096" lon="6.66551">
        <ele>69.8</ele>
        <time>2025-10-26T14:00:52Z</time>
      </trkpt>
      <trkpt lat="43.49095" lon="6.6655">
        <ele>69.8</ele>
        <time>2025-10-26T14:00:53Z</time>
      </trkpt>
      <trkpt lat="43.49095" lon="6.66548">
        <ele>69.7</ele>
        <time>2025-10-26T14:00:54Z</time>
      </trkpt>
      <trkpt lat="43.49095" lon="6.66547">
        <ele>69.7</ele>
        <time>2025-10-26T14:00:55Z</time>
      </trkpt>
      <trkpt lat="43.49095" lon="6.66545">
        <ele>69.6</ele>
        <time>2025-10-26T14:00:56Z</time>
      </trkpt>
      <trkpt lat="43.49095" lon="6.66543">
        <ele>69.6</ele>
        <time>2025-10-26T14:00:57Z</time>
      </trkpt>
      <trkpt lat="43.49095" lon="6.66542">
        <ele>69.6</ele>
        <time>2025-10-26T14:00:58Z</time>
      </trkpt>
      <trkpt lat="43.49095" lon="6.6654">
        <ele>69.6</ele>
        <time>2025-10-26T14:00:59Z</time>
      </trkpt>
      <trkpt lat="43.49095" lon="6.66539">
        <ele>69.5</ele>
        <time>2025-10-26T14:01:00Z</time>
      </trkpt>
      <trkpt lat="43.49095" lon="6.66537">
        <ele>69.5</ele>
        <time>2025-10-26T14:01:01Z</time>
      </trkpt>
      <trkpt lat="43.49094" lon="6.66535">
        <ele>69.7</ele>
        <time>2025-10-26T14:01:02Z</time>
      </trkpt>
      <trkpt lat="43.49094" lon="6.66534">
        <ele>69.7</ele>
        <time>2025-10-26T14:01:03Z</time>
      </trkpt>
      <trkpt lat="43.49094" lon="6.66532">
        <ele>69.7</ele>
        <time>2025-10-26T14:01:04Z</time>
      </trkpt>
      <trkpt lat="43.49094" lon="6.66531">
        <ele>69.8</ele>
        <time>2025-10-26T14:01:05Z</time>
      </trkpt>
      <trkpt lat="43.49094" lon="6.66529">
        <ele>69.8</ele>
        <time>2025-10-26T14:01:06Z</time>
      </trkpt>
      <trkpt lat="43.49093" lon="6.66527">
        <ele>69.8</ele>
        <time>2025-10-26T14:01:07Z</time>
      </trkpt>
      <trkpt lat="43.49093" lon="6.66525">
        <ele>69.9</ele>
        <time>2025-10-26T14:01:08Z</time>
      </trkpt>
      <trkpt lat="43.49093" lon="6.66524">
        <ele>69.9</ele>
        <time>2025-10-26T14:01:09Z</time>
      </trkpt>
      <trkpt lat="43.49093" lon="6.66522">
        <ele>70</ele>
        <time>2025-10-26T14:01:10Z</time>
      </trkpt>
      <trkpt lat="43.49093" lon="6.66521">
        <ele>70.1</ele>
        <time>2025-10-26T14:01:11Z</time>
      </trkpt>
      <trkpt lat="43.49093" lon="6.66519">
        <ele>70.2</ele>
        <time>2025-10-26T14:01:12Z</time>
      </trkpt>
      <trkpt lat="43.49092" lon="6.66517">
        <ele>70.2</ele>
        <time>2025-10-26T14:01:13Z</time>
      </trkpt>
      <trkpt lat="43.49092" lon="6.66515">
        <ele>70.4</ele>
        <time>2025-10-26T14:01:14Z</time>
      </trkpt>
      <trkpt lat="43.49092" lon="6.66514">
        <ele>70.4</ele>
        <time>2025-10-26T14:01:15Z</time>
      </trkpt>
      <trkpt lat="43.49092" lon="6.66512">
        <ele>70.5</ele>
        <time>2025-10-26T14:01:16Z</time>
      </trkpt>
      <trkpt lat="43.49092" lon="6.66511">
        <ele>70.5</ele>
        <time>2025-10-26T14:01:17Z</time>
      </trkpt>
      <trkpt lat="43.49091" lon="6.66509">
        <ele>70.4</ele>
        <time>2025-10-26T14:01:18Z</time>
      </trkpt>
      <trkpt lat="43.49091" lon="6.66508">
        <ele>70.4</ele>
        <time>2025-10-26T14:01:19Z</time>
      </trkpt>
      <trkpt lat="43.49091" lon="6.66506">
        <ele>70.3</ele>
        <time>2025-10-26T14:01:20Z</time>
      </trkpt>
      <trkpt lat="43.49091" lon="6.66505">
        <ele>70.3</ele>
        <time>2025-10-26T14:01:21Z</time>
      </trkpt>
      <trkpt lat="43.49091" lon="6.66503">
        <ele>70.3</ele>
        <time>2025-10-26T14:01:22Z</time>
      </trkpt>
      <trkpt lat="43.4909" lon="6.66501">
        <ele>70.2</ele>
        <time>2025-10-26T14:01:23Z</time>
      </trkpt>
      <trkpt lat="43.4909" lon="6.665">
        <ele>70.2</ele>
        <time>2025-10-26T14:01:24Z</time>
      </trkpt>
      <trkpt lat="43.49089" lon="6.66498">
        <ele>70.3</ele>
        <time>2025-10-26T14:01:25Z</time>
      </trkpt>
      <trkpt lat="43.49089" lon="6.66497">
        <ele>70.3</ele>
        <time>2025-10-26T14:01:26Z</time>
      </trkpt>
      <trkpt lat="43.49088" lon="6.66495">
        <ele>70.3</ele>
        <time>2025-10-26T14:01:27Z</time>
      </trkpt>
      <trkpt lat="43.49088" lon="6.66494">
        <ele>70.4</ele>
        <time>2025-10-26T14:01:28Z</time>
      </trkpt>
      <trkpt lat="43.49087" lon="6.66492">
        <ele>70.5</ele>
        <time>2025-10-26T14:01:29Z</time>
      </trkpt>
      <trkpt lat="43.49087" lon="6.6649">
        <ele>70.6</ele>
        <time>2025-10-26T14:01:30Z</time>
      </trkpt>
      <trkpt lat="43.49086" lon="6.66489">
        <ele>70.7</ele>
        <time>2025-10-26T14:01:31Z</time>
      </trkpt>
      <trkpt lat="43.49085" lon="6.66487">
        <ele>70.7</ele>
        <time>2025-10-26T14:01:32Z</time>
      </trkpt>
      <trkpt lat="43.49085" lon="6.66485">
        <ele>70.6</ele>
        <time>2025-10-26T14:01:33Z</time>
      </trkpt>
      <trkpt lat="43.49084" lon="6.66483">
        <ele>70.4</ele>
        <time>2025-10-26T14:01:34Z</time>
      </trkpt>
      <trkpt lat="43.49083" lon="6.66482">
        <ele>70.3</ele>
        <time>2025-10-26T14:01:35Z</time>
      </trkpt>
      <trkpt lat="43.49083" lon="6.6648">
        <ele>70.3</ele>
        <time>2025-10-26T14:01:36Z</time>
      </trkpt>
      <trkpt lat="43.49082" lon="6.66479">
        <ele>70.2</ele>
        <time>2025-10-26T14:01:37Z</time>
      </trkpt>
      <trkpt lat="43.49082" lon="6.66477">
        <ele>70.2</ele>
        <time>2025-10-26T14:01:38Z</time>
      </trkpt>
      <trkpt lat="43.49081" lon="6.66476">
        <ele>70.1</ele>
        <time>2025-10-26T14:01:39Z</time>
      </trkpt>
      <trkpt lat="43.4908" lon="6.66474">
        <ele>70.1</ele>
        <time>2025-10-26T14:01:40Z</time>
      </trkpt>
      <trkpt lat="43.4908" lon="6.66472">
        <ele>70.3</ele>
        <time>2025-10-26T14:01:41Z</time>
      </trkpt>
      <trkpt lat="43.4908" lon="6.66471">
        <ele>70.2</ele>
        <time>2025-10-26T14:01:42Z</time>
      </trkpt>
      <trkpt lat="43.49079" lon="6.66469">
        <ele>70</ele>
        <time>2025-10-26T14:01:43Z</time>
      </trkpt>
      <trkpt lat="43.49079" lon="6.66468">
        <ele>69.9</ele>
        <time>2025-10-26T14:01:44Z</time>
      </trkpt>
      <trkpt lat="43.49078" lon="6.66466">
        <ele>69.6</ele>
        <time>2025-10-26T14:01:45Z</time>
      </trkpt>
      <trkpt lat="43.49077" lon="6.66465">
        <ele>69.5</ele>
        <time>2025-10-26T14:01:46Z</time>
      </trkpt>
      <trkpt lat="43.49077" lon="6.66463">
        <ele>69.4</ele>
        <time>2025-10-26T14:01:47Z</time>
      </trkpt>
      <trkpt lat="43.49076" lon="6.66462">
        <ele>69.3</ele>
        <time>2025-10-26T14:01:48Z</time>
      </trkpt>
      <trkpt lat="43.49075" lon="6.66461">
        <ele>69.2</ele>
        <time>2025-10-26T14:01:49Z</time>
      </trkpt>
      <trkpt lat="43.49074" lon="6.6646">
        <ele>69.1</ele>
        <time>2025-10-26T14:01:50Z</time>
      </trkpt>
      <trkpt lat="43.49074" lon="6.66458">
        <ele>68.9</ele>
        <time>2025-10-26T14:01:51Z</time>
      </trkpt>
      <trkpt lat="43.49073" lon="6.66457">
        <ele>68.7</ele>
        <time>2025-10-26T14:01:52Z</time>
      </trkpt>
      <trkpt lat="43.49073" lon="6.66455">
        <ele>68.5</ele>
        <time>2025-10-26T14:01:53Z</time>
      </trkpt>
      <trkpt lat="43.49072" lon="6.66454">
        <ele>68.5</ele>
        <time>2025-10-26T14:01:54Z</time>
      </trkpt>
      <trkpt lat="43.49072" lon="6.66452">
        <ele>68.3</ele>
        <time>2025-10-26T14:01:55Z</time>
      </trkpt>
      <trkpt lat="43.49072" lon="6.66451">
        <ele>68.2</ele>
        <time>2025-10-26T14:01:56Z</time>
      </trkpt>
      <trkpt lat="43.49072" lon="6.66449">
        <ele>68</ele>
        <time>2025-10-26T14:01:57Z</time>
      </trkpt>
      <trkpt lat="43.49072" lon="6.66448">
        <ele>67.7</ele>
        <time>2025-10-26T14:01:58Z</time>
      </trkpt>
      <trkpt lat="43.49071" lon="6.66446">
        <ele>67.6</ele>
        <time>2025-10-26T14:01:59Z</time>
      </trkpt>
      <trkpt lat="43.49072" lon="6.66444">
        <ele>67.4</ele>
        <time>2025-10-26T14:02:00Z</time>
      </trkpt>
      <trkpt lat="43.49072" lon="6.66443">
        <ele>67.1</ele>
        <time>2025-10-26T14:02:01Z</time>
      </trkpt>
      <trkpt lat="43.49071" lon="6.66441">
        <ele>66.9</ele>
        <time>2025-10-26T14:02:02Z</time>
      </trkpt>
      <trkpt lat="43.49071" lon="6.6644">
        <ele>66.8</ele>
        <time>2025-10-26T14:02:03Z</time>
      </trkpt>
      <trkpt lat="43.49072" lon="6.66439">
        <ele>66.7</ele>
        <time>2025-10-26T14:02:04Z</time>
      </trkpt>
      <trkpt lat="43.49071" lon="6.66437">
        <ele>66.6</ele>
        <time>2025-10-26T14:02:05Z</time>
      </trkpt>
      <trkpt lat="43.49071" lon="6.66436">
        <ele>66.5</ele>
        <time>2025-10-26T14:02:06Z</time>
      </trkpt>
      <trkpt lat="43.49071" lon="6.66434">
        <ele>66.4</ele>
        <time>2025-10-26T14:02:07Z</time>
      </trkpt>
      <trkpt lat="43.4907" lon="6.66433">
        <ele>66.3</ele>
        <time>2025-10-26T14:02:08Z</time>
      </trkpt>
      <trkpt lat="43.49069" lon="6.66431">
        <ele>66.1</ele>
        <time>2025-10-26T14:02:09Z</time>
      </trkpt>
      <trkpt lat="43.49068" lon="6.66429">
        <ele>66.1</ele>
        <time>2025-10-26T14:02:10Z</time>
      </trkpt>
      <trkpt lat="43.49067" lon="6.66428">
        <ele>66.1</ele>
        <time>2025-10-26T14:02:11Z</time>
      </trkpt>
      <trkpt lat="43.49066" lon="6.66427">
        <ele>66</ele>
        <time>2025-10-26T14:02:12Z</time>
      </trkpt>
      <trkpt lat="43.49064" lon="6.66426">
        <ele>66</ele>
        <time>2025-10-26T14:02:13Z</time>
      </trkpt>
      <trkpt lat="43.49063" lon="6.66424">
        <ele>66.1</ele>
        <time>2025-10-26T14:02:14Z</time>
      </trkpt>
      <trkpt lat="43.49061" lon="6.66423">
        <ele>66.1</ele>
        <time>2025-10-26T14:02:15Z</time>
      </trkpt>
      <trkpt lat="43.4906" lon="6.66422">
        <ele>66</ele>
        <time>2025-10-26T14:02:16Z</time>
      </trkpt>
      <trkpt lat="43.49059" lon="6.66421">
        <ele>66</ele>
        <time>2025-10-26T14:02:17Z</time>
      </trkpt>
      <trkpt lat="43.49057" lon="6.6642">
        <ele>65.9</ele>
        <time>2025-10-26T14:02:18Z</time>
      </trkpt>
      <trkpt lat="43.49056" lon="6.6642">
        <ele>65.9</ele>
        <time>2025-10-26T14:02:19Z</time>
      </trkpt>
      <trkpt lat="43.49055" lon="6.66419">
        <ele>65.8</ele>
        <time>2025-10-26T14:02:20Z</time>
      </trkpt>
      <trkpt lat="43.49053" lon="6.66418">
        <ele>65.7</ele>
        <time>2025-10-26T14:02:21Z</time>
      </trkpt>
      <trkpt lat="43.49052" lon="6.66417">
        <ele>65.6</ele>
        <time>2025-10-26T14:02:22Z</time>
      </trkpt>
      <trkpt lat="43.49051" lon="6.66417">
        <ele>65.6</ele>
        <time>2025-10-26T14:02:23Z</time>
      </trkpt>
      <trkpt lat="43.4905" lon="6.66416">
        <ele>65.4</ele>
        <time>2025-10-26T14:02:24Z</time>
      </trkpt>
      <trkpt lat="43.49048" lon="6.66416">
        <ele>65.2</ele>
        <time>2025-10-26T14:02:25Z</time>
      </trkpt>
      <trkpt lat="43.49048" lon="6.66416">
        <ele>65.1</ele>
        <time>2025-10-26T14:02:26Z</time>
      </trkpt>
      <trkpt lat="43.49047" lon="6.66417">
        <ele>65</ele>
        <time>2025-10-26T14:02:27Z</time>
      </trkpt>
      <trkpt lat="43.49046" lon="6.66417">
        <ele>64.9</ele>
        <time>2025-10-26T14:02:28Z</time>
      </trkpt>
      <trkpt lat="43.49046" lon="6.66418">
        <ele>64.8</ele>
        <time>2025-10-26T14:02:29Z</time>
      </trkpt>
      <trkpt lat="43.49046" lon="6.66418">
        <ele>64.8</ele>
        <time>2025-10-26T14:02:30Z</time>
      </trkpt>
      <trkpt lat="43.49046" lon="6.66418">
        <ele>64.7</ele>
        <time>2025-10-26T14:02:31Z</time>
      </trkpt>
      <trkpt lat="43.49046" lon="6.66419">
        <ele>64.7</ele>
        <time>2025-10-26T14:02:32Z</time>
      </trkpt>
      <trkpt lat="43.49046" lon="6.66419">
        <ele>64.7</ele>
        <time>2025-10-26T14:02:33Z</time>
      </trkpt>
      <trkpt lat="43.49046" lon="6.66419">
        <ele>64.7</ele>
        <time>2025-10-26T14:02:34Z</time>
      </trkpt>
      <trkpt lat="43.49046" lon="6.66419">
        <ele>64.8</ele>
        <time>2025-10-26T14:02:35Z</time>
      </trkpt>
      <trkpt lat="43.49046" lon="6.66419">
        <ele>64.9</ele>
        <time>2025-10-26T14:02:36Z</time>
      </trkpt>
      <trkpt lat="43.49046" lon="6.66419">
        <ele>64.9</ele>
        <time>2025-10-26T14:02:37Z</time>
      </trkpt>
      <trkpt lat="43.49046" lon="6.66419">
        <ele>64.9</ele>
        <time>2025-10-26T14:02:38Z</time>
      </trkpt>
      <trkpt lat="43.49046" lon="6.66419">
        <ele>64.8</ele>
        <time>2025-10-26T14:02:39Z</time>
      </trkpt>
      <trkpt lat="43.49046" lon="6.66419">
        <ele>64.7</ele>
        <time>2025-10-26T14:02:40Z</time>
      </trkpt>
      <trkpt lat="43.49046" lon="6.66419">
        <ele>64.8</ele>
        <time>2025-10-26T14:02:41Z</time>
      </trkpt>
      <trkpt lat="43.49045" lon="6.6642">
        <ele>64.9</ele>
        <time>2025-10-26T14:02:42Z</time>
      </trkpt>
      <trkpt lat="43.49045" lon="6.6642">
        <ele>64.9</ele>
        <time>2025-10-26T14:02:43Z</time>
      </trkpt>
      <trkpt lat="43.49045" lon="6.6642">
        <ele>65</ele>
        <time>2025-10-26T14:02:44Z</time>
      </trkpt>
      <trkpt lat="43.49045" lon="6.6642">
        <ele>65</ele>
        <time>2025-10-26T14:02:45Z</time>
      </trkpt>
      <trkpt lat="43.49045" lon="6.6642">
        <ele>65</ele>
        <time>2025-10-26T14:02:46Z</time>
      </trkpt>
      <trkpt lat="43.49045" lon="6.6642">
        <ele>65</ele>
        <time>2025-10-26T14:02:47Z</time>
      </trkpt>
      <trkpt lat="43.49045" lon="6.6642">
        <ele>64.9</ele>
        <time>2025-10-26T14:02:48Z</time>
      </trkpt>
      <trkpt lat="43.49045" lon="6.6642">
        <ele>64.8</ele>
        <time>2025-10-26T14:02:49Z</time>
      </trkpt>
      <trkpt lat="43.49045" lon="6.6642">
        <ele>64.7</ele>
        <time>2025-10-26T14:02:50Z</time>
      </trkpt>
      <trkpt lat="43.49045" lon="6.6642">
        <ele>64.7</ele>
        <time>2025-10-26T14:02:51Z</time>
      </trkpt>
      <trkpt lat="43.49045" lon="6.6642">
        <ele>64.6</ele>
        <time>2025-10-26T14:02:52Z</time>
      </trkpt>
      <trkpt lat="43.49045" lon="6.6642">
        <ele>64.6</ele>
        <time>2025-10-26T14:02:53Z</time>
      </trkpt>
      <trkpt lat="43.49045" lon="6.6642">
        <ele>64.6</ele>
        <time>2025-10-26T14:02:54Z</time>
      </trkpt>
      <trkpt lat="43.49045" lon="6.6642">
        <ele>64.6</ele>
        <time>2025-10-26T14:02:55Z</time>
      </trkpt>
      <trkpt lat="43.49045" lon="6.6642">
        <ele>64.6</ele>
        <time>2025-10-26T14:02:56Z</time>
      </trkpt>
      <trkpt lat="43.49045" lon="6.6642">
        <ele>64.7</ele>
        <time>2025-10-26T14:02:57Z</time>
      </trkpt>
      <trkpt lat="43.49045" lon="6.6642">
        <ele>64.9</ele>
        <time>2025-10-26T14:02:58Z</time>
      </trkpt>
      <trkpt lat="43.49045" lon="6.6642">
        <ele>64.9</ele>
        <time>2025-10-26T14:02:59Z</time>
      </trkpt>
      <trkpt lat="43.49045" lon="6.6642">
        <ele>65</ele>
        <time>2025-10-26T14:03:00Z</time>
      </trkpt>
      <trkpt lat="43.49045" lon="6.6642">
        <ele>65</ele>
        <time>2025-10-26T14:03:01Z</time>
      </trkpt>
      <trkpt lat="43.49045" lon="6.6642">
        <ele>65.1</ele>
        <time>2025-10-26T14:03:02Z</time>
      </trkpt>
      <trkpt lat="43.49045" lon="6.6642">
        <ele>65.1</ele>
        <time>2025-10-26T14:03:03Z</time>
      </trkpt>
      <trkpt lat="43.49045" lon="6.6642">
        <ele>65.1</ele>
        <time>2025-10-26T14:03:04Z</time>
      </trkpt>
      <trkpt lat="43.49045" lon="6.66419">
        <ele>65.1</ele>
        <time>2025-10-26T14:03:05Z</time>
      </trkpt>
      <trkpt lat="43.49045" lon="6.66419">
        <ele>65.2</ele>
        <time>2025-10-26T14:03:06Z</time>
      </trkpt>
      <trkpt lat="43.49045" lon="6.66419">
        <ele>65</ele>
        <time>2025-10-26T14:03:07Z</time>
      </trkpt>
      <trkpt lat="43.49045" lon="6.66419">
        <ele>65</ele>
        <time>2025-10-26T14:03:08Z</time>
      </trkpt>
      <trkpt lat="43.49045" lon="6.66419">
        <ele>64.9</ele>
        <time>2025-10-26T14:03:09Z</time>
      </trkpt>
      <trkpt lat="43.49046" lon="6.66419">
        <ele>64.9</ele>
        <time>2025-10-26T14:03:10Z</time>
      </trkpt>
      <trkpt lat="43.49046" lon="6.66419">
        <ele>65</ele>
        <time>2025-10-26T14:03:11Z</time>
      </trkpt>
      <trkpt lat="43.49046" lon="6.66419">
        <ele>65</ele>
        <time>2025-10-26T14:03:12Z</time>
      </trkpt>
      <trkpt lat="43.49046" lon="6.66419">
        <ele>65</ele>
        <time>2025-10-26T14:03:13Z</time>
      </trkpt>
      <trkpt lat="43.49046" lon="6.66419">
        <ele>64.9</ele>
        <time>2025-10-26T14:03:14Z</time>
      </trkpt>
      <trkpt lat="43.49046" lon="6.66419">
        <ele>64.8</ele>
        <time>2025-10-26T14:03:15Z</time>
      </trkpt>
      <trkpt lat="43.49046" lon="6.66419">
        <ele>64.8</ele>
        <time>2025-10-26T14:03:16Z</time>
      </trkpt>
      <trkpt lat="43.49046" lon="6.66419">
        <ele>64.9</ele>
        <time>2025-10-26T14:03:17Z</time>
      </trkpt>
      <trkpt lat="43.49046" lon="6.6642">
        <ele>65</ele>
        <time>2025-10-26T14:03:18Z</time>
      </trkpt>
      <trkpt lat="43.49046" lon="6.6642">
        <ele>65.2</ele>
        <time>2025-10-26T14:03:19Z</time>
      </trkpt>
      <trkpt lat="43.49047" lon="6.6642">
        <ele>65.3</ele>
        <time>2025-10-26T14:03:20Z</time>
      </trkpt>
      <trkpt lat="43.49047" lon="6.66421">
        <ele>65.4</ele>
        <time>2025-10-26T14:03:21Z</time>
      </trkpt>
      <trkpt lat="43.49047" lon="6.66422">
        <ele>65.4</ele>
        <time>2025-10-26T14:03:22Z</time>
      </trkpt>
      <trkpt lat="43.49047" lon="6.66422">
        <ele>65.4</ele>
        <time>2025-10-26T14:03:23Z</time>
      </trkpt>
      <trkpt lat="43.49047" lon="6.66422">
        <ele>65.8</ele>
        <time>2025-10-26T14:03:24Z</time>
      </trkpt>
      <trkpt lat="43.49047" lon="6.66422">
        <ele>65.9</ele>
        <time>2025-10-26T14:03:25Z</time>
      </trkpt>
      <trkpt lat="43.49047" lon="6.66422">
        <ele>66</ele>
        <time>2025-10-26T14:03:26Z</time>
      </trkpt>
      <trkpt lat="43.49047" lon="6.66423">
        <ele>66</ele>
        <time>2025-10-26T14:03:27Z</time>
      </trkpt>
      <trkpt lat="43.49047" lon="6.66423">
        <ele>66</ele>
        <time>2025-10-26T14:03:28Z</time>
      </trkpt>
      <trkpt lat="43.49047" lon="6.66422">
        <ele>66</ele>
        <time>2025-10-26T14:03:29Z</time>
      </trkpt>
      <trkpt lat="43.49046" lon="6.66422">
        <ele>66.1</ele>
        <time>2025-10-26T14:03:30Z</time>
      </trkpt>
      <trkpt lat="43.49046" lon="6.66422">
        <ele>66.2</ele>
        <time>2025-10-26T14:03:31Z</time>
      </trkpt>
      <trkpt lat="43.49046" lon="6.66422">
        <ele>66.1</ele>
        <time>2025-10-26T14:03:32Z</time>
      </trkpt>
      <trkpt lat="43.49046" lon="6.66422">
        <ele>66.1</ele>
        <time>2025-10-26T14:03:33Z</time>
      </trkpt>
      <trkpt lat="43.49046" lon="6.66421">
        <ele>66.1</ele>
        <time>2025-10-26T14:03:34Z</time>
      </trkpt>
      <trkpt lat="43.49047" lon="6.6642">
        <ele>66.1</ele>
        <time>2025-10-26T14:03:35Z</time>
      </trkpt>
      <trkpt lat="43.49047" lon="6.6642">
        <ele>66</ele>
        <time>2025-10-26T14:03:36Z</time>
      </trkpt>
      <trkpt lat="43.49047" lon="6.66419">
        <ele>65.9</ele>
        <time>2025-10-26T14:03:37Z</time>
      </trkpt>
      <trkpt lat="43.49047" lon="6.66419">
        <ele>65.9</ele>
        <time>2025-10-26T14:03:38Z</time>
      </trkpt>
      <trkpt lat="43.49047" lon="6.66418">
        <ele>65.9</ele>
        <time>2025-10-26T14:03:39Z</time>
      </trkpt>
      <trkpt lat="43.49047" lon="6.66417">
        <ele>65.8</ele>
        <time>2025-10-26T14:03:40Z</time>
      </trkpt>
      <trkpt lat="43.49047" lon="6.66417">
        <ele>65.8</ele>
        <time>2025-10-26T14:03:41Z</time>
      </trkpt>
      <trkpt lat="43.49047" lon="6.66417">
        <ele>65.7</ele>
        <time>2025-10-26T14:03:42Z</time>
      </trkpt>
      <trkpt lat="43.49047" lon="6.66416">
        <ele>65.7</ele>
        <time>2025-10-26T14:03:43Z</time>
      </trkpt>
      <trkpt lat="43.49047" lon="6.66417">
        <ele>65.7</ele>
        <time>2025-10-26T14:03:44Z</time>
      </trkpt>
      <trkpt lat="43.49047" lon="6.66417">
        <ele>65.6</ele>
        <time>2025-10-26T14:03:45Z</time>
      </trkpt>
      <trkpt lat="43.49047" lon="6.66417">
        <ele>65.5</ele>
        <time>2025-10-26T14:03:46Z</time>
      </trkpt>
      <trkpt lat="43.49047" lon="6.66416">
        <ele>65.5</ele>
        <time>2025-10-26T14:03:47Z</time>
      </trkpt>
      <trkpt lat="43.49047" lon="6.66416">
        <ele>65.4</ele>
        <time>2025-10-26T14:03:48Z</time>
      </trkpt>
      <trkpt lat="43.49047" lon="6.66416">
        <ele>65.4</ele>
        <time>2025-10-26T14:03:49Z</time>
      </trkpt>
      <trkpt lat="43.49048" lon="6.66416">
        <ele>65.3</ele>
        <time>2025-10-26T14:03:50Z</time>
      </trkpt>
      <trkpt lat="43.49048" lon="6.66416">
        <ele>65.3</ele>
        <time>2025-10-26T14:03:51Z</time>
      </trkpt>
      <trkpt lat="43.49048" lon="6.66416">
        <ele>65.3</ele>
        <time>2025-10-26T14:03:52Z</time>
      </trkpt>
      <trkpt lat="43.49048" lon="6.66417">
        <ele>65.2</ele>
        <time>2025-10-26T14:03:53Z</time>
      </trkpt>
      <trkpt lat="43.49048" lon="6.66417">
        <ele>65.2</ele>
        <time>2025-10-26T14:03:54Z</time>
      </trkpt>
      <trkpt lat="43.49048" lon="6.66417">
        <ele>65.1</ele>
        <time>2025-10-26T14:03:55Z</time>
      </trkpt>
      <trkpt lat="43.49048" lon="6.66417">
        <ele>65</ele>
        <time>2025-10-26T14:03:56Z</time>
      </trkpt>
      <trkpt lat="43.49048" lon="6.66417">
        <ele>65</ele>
        <time>2025-10-26T14:03:57Z</time>
      </trkpt>
      <trkpt lat="43.49048" lon="6.66417">
        <ele>65</ele>
        <time>2025-10-26T14:03:58Z</time>
      </trkpt>
      <trkpt lat="43.49049" lon="6.66417">
        <ele>65</ele>
        <time>2025-10-26T14:03:59Z</time>
      </trkpt>
      <trkpt lat="43.49049" lon="6.66417">
        <ele>64.9</ele>
        <time>2025-10-26T14:04:00Z</time>
      </trkpt>
      <trkpt lat="43.49049" lon="6.66416">
        <ele>64.9</ele>
        <time>2025-10-26T14:04:01Z</time>
      </trkpt>
      <trkpt lat="43.49049" lon="6.66416">
        <ele>64.9</ele>
        <time>2025-10-26T14:04:02Z</time>
      </trkpt>
      <trkpt lat="43.49049" lon="6.66416">
        <ele>64.9</ele>
        <time>2025-10-26T14:04:03Z</time>
      </trkpt>
      <trkpt lat="43.49049" lon="6.66416">
        <ele>65</ele>
        <time>2025-10-26T14:04:04Z</time>
      </trkpt>
      <trkpt lat="43.49049" lon="6.66416">
        <ele>65</ele>
        <time>2025-10-26T14:04:05Z</time>
      </trkpt>
      <trkpt lat="43.49049" lon="6.66416">
        <ele>65</ele>
        <time>2025-10-26T14:04:06Z</time>
      </trkpt>
      <trkpt lat="43.49049" lon="6.66416">
        <ele>65</ele>
        <time>2025-10-26T14:04:07Z</time>
      </trkpt>
      <trkpt lat="43.49049" lon="6.66416">
        <ele>64.9</ele>
        <time>2025-10-26T14:04:08Z</time>
      </trkpt>
      <trkpt lat="43.49049" lon="6.66416">
        <ele>64.9</ele>
        <time>2025-10-26T14:04:09Z</time>
      </trkpt>
      <trkpt lat="43.4905" lon="6.66416">
        <ele>64.8</ele>
        <time>2025-10-26T14:04:10Z</time>
      </trkpt>
      <trkpt lat="43.49049" lon="6.66416">
        <ele>64.8</ele>
        <time>2025-10-26T14:04:11Z</time>
      </trkpt>
      <trkpt lat="43.49049" lon="6.66415">
        <ele>64.7</ele>
        <time>2025-10-26T14:04:12Z</time>
      </trkpt>
      <trkpt lat="43.4905" lon="6.66415">
        <ele>64.5</ele>
        <time>2025-10-26T14:04:13Z</time>
      </trkpt>
      <trkpt lat="43.49049" lon="6.66415">
        <ele>64.5</ele>
        <time>2025-10-26T14:04:14Z</time>
      </trkpt>
      <trkpt lat="43.49049" lon="6.66415">
        <ele>64.4</ele>
        <time>2025-10-26T14:04:15Z</time>
      </trkpt>
      <trkpt lat="43.49049" lon="6.66414">
        <ele>64.3</ele>
        <time>2025-10-26T14:04:16Z</time>
      </trkpt>
      <trkpt lat="43.49049" lon="6.66413">
        <ele>64.3</ele>
        <time>2025-10-26T14:04:17Z</time>
      </trkpt>
      <trkpt lat="43.49048" lon="6.66412">
        <ele>64.3</ele>
        <time>2025-10-26T14:04:18Z</time>
      </trkpt>
      <trkpt lat="43.49047" lon="6.66411">
        <ele>64.3</ele>
        <time>2025-10-26T14:04:19Z</time>
      </trkpt>
      <trkpt lat="43.49047" lon="6.6641">
        <ele>64.4</ele>
        <time>2025-10-26T14:04:20Z</time>
      </trkpt>
      <trkpt lat="43.49046" lon="6.6641">
        <ele>64.6</ele>
        <time>2025-10-26T14:04:21Z</time>
      </trkpt>
      <trkpt lat="43.49045" lon="6.66409">
        <ele>64.6</ele>
        <time>2025-10-26T14:04:22Z</time>
      </trkpt>
      <trkpt lat="43.49045" lon="6.66409">
        <ele>64.6</ele>
        <time>2025-10-26T14:04:23Z</time>
      </trkpt>
      <trkpt lat="43.49044" lon="6.66408">
        <ele>64.6</ele>
        <time>2025-10-26T14:04:24Z</time>
      </trkpt>
      <trkpt lat="43.49044" lon="6.66408">
        <ele>64.6</ele>
        <time>2025-10-26T14:04:25Z</time>
      </trkpt>
      <trkpt lat="43.49044" lon="6.66408">
        <ele>64.6</ele>
        <time>2025-10-26T14:04:26Z</time>
      </trkpt>
      <trkpt lat="43.49044" lon="6.66407">
        <ele>64.6</ele>
        <time>2025-10-26T14:04:27Z</time>
      </trkpt>
      <trkpt lat="43.49043" lon="6.66407">
        <ele>64.5</ele>
        <time>2025-10-26T14:04:28Z</time>
      </trkpt>
      <trkpt lat="43.49043" lon="6.66407">
        <ele>64.4</ele>
        <time>2025-10-26T14:04:29Z</time>
      </trkpt>
      <trkpt lat="43.49043" lon="6.66407">
        <ele>64.4</ele>
        <time>2025-10-26T14:04:30Z</time>
      </trkpt>
      <trkpt lat="43.49043" lon="6.66407">
        <ele>64.3</ele>
        <time>2025-10-26T14:04:31Z</time>
      </trkpt>
      <trkpt lat="43.49043" lon="6.66407">
        <ele>64.1</ele>
        <time>2025-10-26T14:04:32Z</time>
      </trkpt>
      <trkpt lat="43.49043" lon="6.66406">
        <ele>64</ele>
        <time>2025-10-26T14:04:33Z</time>
      </trkpt>
      <trkpt lat="43.49043" lon="6.66406">
        <ele>64.1</ele>
        <time>2025-10-26T14:04:34Z</time>
      </trkpt>
      <trkpt lat="43.49043" lon="6.66406">
        <ele>64.2</ele>
        <time>2025-10-26T14:04:35Z</time>
      </trkpt>
      <trkpt lat="43.49043" lon="6.66406">
        <ele>64.3</ele>
        <time>2025-10-26T14:04:36Z</time>
      </trkpt>
      <trkpt lat="43.49043" lon="6.66406">
        <ele>64.3</ele>
        <time>2025-10-26T14:04:37Z</time>
      </trkpt>
      <trkpt lat="43.49043" lon="6.66406">
        <ele>64.3</ele>
        <time>2025-10-26T14:04:38Z</time>
      </trkpt>
      <trkpt lat="43.49043" lon="6.66405">
        <ele>64.4</ele>
        <time>2025-10-26T14:04:39Z</time>
      </trkpt>
      <trkpt lat="43.49043" lon="6.66405">
        <ele>64.5</ele>
        <time>2025-10-26T14:04:40Z</time>
      </trkpt>
      <trkpt lat="43.49043" lon="6.66405">
        <ele>64.5</ele>
        <time>2025-10-26T14:04:41Z</time>
      </trkpt>
      <trkpt lat="43.49043" lon="6.66405">
        <ele>64.5</ele>
        <time>2025-10-26T14:04:42Z</time>
      </trkpt>
      <trkpt lat="43.49043" lon="6.66405">
        <ele>64.5</ele>
        <time>2025-10-26T14:04:43Z</time>
      </trkpt>
      <trkpt lat="43.49043" lon="6.66405">
        <ele>64.6</ele>
        <time>2025-10-26T14:04:44Z</time>
      </trkpt>
      <trkpt lat="43.49043" lon="6.66404">
        <ele>64.6</ele>
        <time>2025-10-26T14:04:45Z</time>
      </trkpt>
      <trkpt lat="43.49043" lon="6.66404">
        <ele>64.6</ele>
        <time>2025-10-26T14:04:46Z</time>
      </trkpt>
      <trkpt lat="43.49043" lon="6.66404">
        <ele>64.5</ele>
        <time>2025-10-26T14:04:47Z</time>
      </trkpt>
      <trkpt lat="43.49043" lon="6.66404">
        <ele>64.4</ele>
        <time>2025-10-26T14:04:48Z</time>
      </trkpt>
      <trkpt lat="43.49042" lon="6.66404">
        <ele>64.3</ele>
        <time>2025-10-26T14:04:49Z</time>
      </trkpt>
      <trkpt lat="43.49042" lon="6.66404">
        <ele>64.2</ele>
        <time>2025-10-26T14:04:50Z</time>
      </trkpt>
      <trkpt lat="43.49043" lon="6.66404">
        <ele>64</ele>
        <time>2025-10-26T14:04:51Z</time>
      </trkpt>
      <trkpt lat="43.49043" lon="6.66404">
        <ele>64</ele>
        <time>2025-10-26T14:04:52Z</time>
      </trkpt>
      <trkpt lat="43.49043" lon="6.66404">
        <ele>63.9</ele>
        <time>2025-10-26T14:04:53Z</time>
      </trkpt>
      <trkpt lat="43.49043" lon="6.66403">
        <ele>64</ele>
        <time>2025-10-26T14:04:54Z</time>
      </trkpt>
      <trkpt lat="43.49043" lon="6.66403">
        <ele>63.9</ele>
        <time>2025-10-26T14:04:55Z</time>
      </trkpt>
      <trkpt lat="43.49043" lon="6.66403">
        <ele>63.9</ele>
        <time>2025-10-26T14:04:56Z</time>
      </trkpt>
      <trkpt lat="43.49043" lon="6.66403">
        <ele>63.9</ele>
        <time>2025-10-26T14:04:57Z</time>
      </trkpt>
      <trkpt lat="43.49043" lon="6.66403">
        <ele>64</ele>
        <time>2025-10-26T14:04:58Z</time>
      </trkpt>
      <trkpt lat="43.49043" lon="6.66403">
        <ele>64.1</ele>
        <time>2025-10-26T14:04:59Z</time>
      </trkpt>
      <trkpt lat="43.49042" lon="6.66403">
        <ele>64.2</ele>
        <time>2025-10-26T14:05:00Z</time>
      </trkpt>
      <trkpt lat="43.49042" lon="6.66403">
        <ele>64.2</ele>
        <time>2025-10-26T14:05:01Z</time>
      </trkpt>
      <trkpt lat="43.49042" lon="6.66403">
        <ele>64.1</ele>
        <time>2025-10-26T14:05:02Z</time>
      </trkpt>
      <trkpt lat="43.49042" lon="6.66403">
        <ele>64</ele>
        <time>2025-10-26T14:05:03Z</time>
      </trkpt>
      <trkpt lat="43.49042" lon="6.66402">
        <ele>63.9</ele>
        <time>2025-10-26T14:05:04Z</time>
      </trkpt>
      <trkpt lat="43.49042" lon="6.66403">
        <ele>63.8</ele>
        <time>2025-10-26T14:05:05Z</time>
      </trkpt>
      <trkpt lat="43.49042" lon="6.66403">
        <ele>63.8</ele>
        <time>2025-10-26T14:05:06Z</time>
      </trkpt>
      <trkpt lat="43.49042" lon="6.66403">
        <ele>63.7</ele>
        <time>2025-10-26T14:05:07Z</time>
      </trkpt>
      <trkpt lat="43.49042" lon="6.66403">
        <ele>63.7</ele>
        <time>2025-10-26T14:05:08Z</time>
      </trkpt>
      <trkpt lat="43.49042" lon="6.66403">
        <ele>63.7</ele>
        <time>2025-10-26T14:05:09Z</time>
      </trkpt>
      <trkpt lat="43.49042" lon="6.66403">
        <ele>63.7</ele>
        <time>2025-10-26T14:05:10Z</time>
      </trkpt>
      <trkpt lat="43.49041" lon="6.66403">
        <ele>63.8</ele>
        <time>2025-10-26T14:05:11Z</time>
      </trkpt>
      <trkpt lat="43.49041" lon="6.66403">
        <ele>63.7</ele>
        <time>2025-10-26T14:05:12Z</time>
      </trkpt>
      <trkpt lat="43.49041" lon="6.66403">
        <ele>63.6</ele>
        <time>2025-10-26T14:05:13Z</time>
      </trkpt>
      <trkpt lat="43.49041" lon="6.66402">
        <ele>63.5</ele>
        <time>2025-10-26T14:05:14Z</time>
      </trkpt>
      <trkpt lat="43.49041" lon="6.66402">
        <ele>63.5</ele>
        <time>2025-10-26T14:05:15Z</time>
      </trkpt>
      <trkpt lat="43.49041" lon="6.66402">
        <ele>63.4</ele>
        <time>2025-10-26T14:05:16Z</time>
      </trkpt>
      <trkpt lat="43.49041" lon="6.66402">
        <ele>63.4</ele>
        <time>2025-10-26T14:05:17Z</time>
      </trkpt>
      <trkpt lat="43.49041" lon="6.66402">
        <ele>63.5</ele>
        <time>2025-10-26T14:05:18Z</time>
      </trkpt>
      <trkpt lat="43.49041" lon="6.66402">
        <ele>63.5</ele>
        <time>2025-10-26T14:05:19Z</time>
      </trkpt>
      <trkpt lat="43.49041" lon="6.66402">
        <ele>63.6</ele>
        <time>2025-10-26T14:05:20Z</time>
      </trkpt>
      <trkpt lat="43.49041" lon="6.66402">
        <ele>63.6</ele>
        <time>2025-10-26T14:05:21Z</time>
      </trkpt>
      <trkpt lat="43.49041" lon="6.66402">
        <ele>63.6</ele>
        <time>2025-10-26T14:05:22Z</time>
      </trkpt>
      <trkpt lat="43.49041" lon="6.66402">
        <ele>63.7</ele>
        <time>2025-10-26T14:05:23Z</time>
      </trkpt>
      <trkpt lat="43.49041" lon="6.66402">
        <ele>63.8</ele>
        <time>2025-10-26T14:05:24Z</time>
      </trkpt>
      <trkpt lat="43.49041" lon="6.66402">
        <ele>64</ele>
        <time>2025-10-26T14:05:25Z</time>
      </trkpt>
      <trkpt lat="43.49041" lon="6.66402">
        <ele>64.1</ele>
        <time>2025-10-26T14:05:26Z</time>
      </trkpt>
      <trkpt lat="43.49041" lon="6.66402">
        <ele>64.2</ele>
        <time>2025-10-26T14:05:27Z</time>
      </trkpt>
      <trkpt lat="43.49041" lon="6.66402">
        <ele>64.1</ele>
        <time>2025-10-26T14:05:28Z</time>
      </trkpt>
      <trkpt lat="43.49041" lon="6.66402">
        <ele>64</ele>
        <time>2025-10-26T14:05:29Z</time>
      </trkpt>
      <trkpt lat="43.49041" lon="6.66402">
        <ele>64.2</ele>
        <time>2025-10-26T14:05:30Z</time>
      </trkpt>
      <trkpt lat="43.49041" lon="6.66402">
        <ele>64.4</ele>
        <time>2025-10-26T14:05:31Z</time>
      </trkpt>
      <trkpt lat="43.49041" lon="6.66401">
        <ele>64.6</ele>
        <time>2025-10-26T14:05:32Z</time>
      </trkpt>
      <trkpt lat="43.49041" lon="6.66401">
        <ele>64.7</ele>
        <time>2025-10-26T14:05:33Z</time>
      </trkpt>
      <trkpt lat="43.49041" lon="6.66401">
        <ele>64.6</ele>
        <time>2025-10-26T14:05:34Z</time>
      </trkpt>
      <trkpt lat="43.49041" lon="6.66401">
        <ele>64.3</ele>
        <time>2025-10-26T14:05:35Z</time>
      </trkpt>
      <trkpt lat="43.49041" lon="6.66401">
        <ele>64.2</ele>
        <time>2025-10-26T14:05:36Z</time>
      </trkpt>
      <trkpt lat="43.49041" lon="6.66401">
        <ele>64.4</ele>
        <time>2025-10-26T14:05:37Z</time>
      </trkpt>
      <trkpt lat="43.49041" lon="6.66401">
        <ele>64.5</ele>
        <time>2025-10-26T14:05:38Z</time>
      </trkpt>
      <trkpt lat="43.4904" lon="6.66401">
        <ele>64.6</ele>
        <time>2025-10-26T14:05:39Z</time>
      </trkpt>
      <trkpt lat="43.4904" lon="6.66401">
        <ele>64.8</ele>
        <time>2025-10-26T14:05:40Z</time>
      </trkpt>
      <trkpt lat="43.4904" lon="6.66401">
        <ele>64.8</ele>
        <time>2025-10-26T14:05:41Z</time>
      </trkpt>
      <trkpt lat="43.4904" lon="6.66401">
        <ele>65</ele>
        <time>2025-10-26T14:05:42Z</time>
      </trkpt>
      <trkpt lat="43.4904" lon="6.66401">
        <ele>65.2</ele>
        <time>2025-10-26T14:05:43Z</time>
      </trkpt>
      <trkpt lat="43.4904" lon="6.66401">
        <ele>65.3</ele>
        <time>2025-10-26T14:05:44Z</time>
      </trkpt>
      <trkpt lat="43.4904" lon="6.66401">
        <ele>65.4</ele>
        <time>2025-10-26T14:05:45Z</time>
      </trkpt>
      <trkpt lat="43.4904" lon="6.664">
        <ele>65.5</ele>
        <time>2025-10-26T14:05:46Z</time>
      </trkpt>
      <trkpt lat="43.4904" lon="6.664">
        <ele>65.5</ele>
        <time>2025-10-26T14:05:47Z</time>
      </trkpt>
      <trkpt lat="43.49041" lon="6.664">
        <ele>65.5</ele>
        <time>2025-10-26T14:05:48Z</time>
      </trkpt>
      <trkpt lat="43.49041" lon="6.664">
        <ele>65.5</ele>
        <time>2025-10-26T14:05:49Z</time>
      </trkpt>
      <trkpt lat="43.4904" lon="6.66401">
        <ele>65.4</ele>
        <time>2025-10-26T14:05:50Z</time>
      </trkpt>
      <trkpt lat="43.4904" lon="6.66401">
        <ele>65.3</ele>
        <time>2025-10-26T14:05:51Z</time>
      </trkpt>
      <trkpt lat="43.4904" lon="6.66402">
        <ele>65.1</ele>
        <time>2025-10-26T14:05:52Z</time>
      </trkpt>
      <trkpt lat="43.49041" lon="6.66403">
        <ele>65.1</ele>
        <time>2025-10-26T14:05:53Z</time>
      </trkpt>
      <trkpt lat="43.49041" lon="6.66403">
        <ele>65.1</ele>
        <time>2025-10-26T14:05:54Z</time>
      </trkpt>
      <trkpt lat="43.49041" lon="6.66404">
        <ele>65</ele>
        <time>2025-10-26T14:05:55Z</time>
      </trkpt>
      <trkpt lat="43.49042" lon="6.66404">
        <ele>64.9</ele>
        <time>2025-10-26T14:05:56Z</time>
      </trkpt>
      <trkpt lat="43.49042" lon="6.66404">
        <ele>64.8</ele>
        <time>2025-10-26T14:05:57Z</time>
      </trkpt>
      <trkpt lat="43.49043" lon="6.66404">
        <ele>64.7</ele>
        <time>2025-10-26T14:05:58Z</time>
      </trkpt>
      <trkpt lat="43.49043" lon="6.66404">
        <ele>64.7</ele>
        <time>2025-10-26T14:05:59Z</time>
      </trkpt>
      <trkpt lat="43.49043" lon="6.66404">
        <ele>64.7</ele>
        <time>2025-10-26T14:06:00Z</time>
      </trkpt>
      <trkpt lat="43.49044" lon="6.66404">
        <ele>64.6</ele>
        <time>2025-10-26T14:06:01Z</time>
      </trkpt>
      <trkpt lat="43.49044" lon="6.66404">
        <ele>64.6</ele>
        <time>2025-10-26T14:06:02Z</time>
      </trkpt>
      <trkpt lat="43.49045" lon="6.66404">
        <ele>64.6</ele>
        <time>2025-10-26T14:06:03Z</time>
      </trkpt>
      <trkpt lat="43.49045" lon="6.66404">
        <ele>64.6</ele>
        <time>2025-10-26T14:06:04Z</time>
      </trkpt>
      <trkpt lat="43.49045" lon="6.66404">
        <ele>64.5</ele>
        <time>2025-10-26T14:06:05Z</time>
      </trkpt>
      <trkpt lat="43.49045" lon="6.66404">
        <ele>64.5</ele>
        <time>2025-10-26T14:06:06Z</time>
      </trkpt>
      <trkpt lat="43.49045" lon="6.66405">
        <ele>64.5</ele>
        <time>2025-10-26T14:06:07Z</time>
      </trkpt>
      <trkpt lat="43.49045" lon="6.66405">
        <ele>64.4</ele>
        <time>2025-10-26T14:06:08Z</time>
      </trkpt>
      <trkpt lat="43.49045" lon="6.66405">
        <ele>64.4</ele>
        <time>2025-10-26T14:06:09Z</time>
      </trkpt>
      <trkpt lat="43.49045" lon="6.66405">
        <ele>64.4</ele>
        <time>2025-10-26T14:06:10Z</time>
      </trkpt>
      <trkpt lat="43.49045" lon="6.66406">
        <ele>64.4</ele>
        <time>2025-10-26T14:06:11Z</time>
      </trkpt>
      <trkpt lat="43.49045" lon="6.66406">
        <ele>64.4</ele>
        <time>2025-10-26T14:06:12Z</time>
      </trkpt>
      <trkpt lat="43.49045" lon="6.66406">
        <ele>64.5</ele>
        <time>2025-10-26T14:06:13Z</time>
      </trkpt>
      <trkpt lat="43.49045" lon="6.66406">
        <ele>64.4</ele>
        <time>2025-10-26T14:06:14Z</time>
      </trkpt>
      <trkpt lat="43.49045" lon="6.66406">
        <ele>64.4</ele>
        <time>2025-10-26T14:06:15Z</time>
      </trkpt>
      <trkpt lat="43.49045" lon="6.66406">
        <ele>64.5</ele>
        <time>2025-10-26T14:06:16Z</time>
      </trkpt>
      <trkpt lat="43.49045" lon="6.66406">
        <ele>64.5</ele>
        <time>2025-10-26T14:06:17Z</time>
      </trkpt>
      <trkpt lat="43.49045" lon="6.66406">
        <ele>64.3</ele>
        <time>2025-10-26T14:06:18Z</time>
      </trkpt>
      <trkpt lat="43.49045" lon="6.66407">
        <ele>64.3</ele>
        <time>2025-10-26T14:06:19Z</time>
      </trkpt>
      <trkpt lat="43.49045" lon="6.66407">
        <ele>64.3</ele>
        <time>2025-10-26T14:06:20Z</time>
      </trkpt>
      <trkpt lat="43.49046" lon="6.66407">
        <ele>64.3</ele>
        <time>2025-10-26T14:06:21Z</time>
      </trkpt>
      <trkpt lat="43.49046" lon="6.66406">
        <ele>64.4</ele>
        <time>2025-10-26T14:06:22Z</time>
      </trkpt>
      <trkpt lat="43.49046" lon="6.66406">
        <ele>64.4</ele>
        <time>2025-10-26T14:06:23Z</time>
      </trkpt>
      <trkpt lat="43.49046" lon="6.66406">
        <ele>64.5</ele>
        <time>2025-10-26T14:06:24Z</time>
      </trkpt>
      <trkpt lat="43.49046" lon="6.66406">
        <ele>64.6</ele>
        <time>2025-10-26T14:06:25Z</time>
      </trkpt>
      <trkpt lat="43.49046" lon="6.66406">
        <ele>64.7</ele>
        <time>2025-10-26T14:06:26Z</time>
      </trkpt>
      <trkpt lat="43.49046" lon="6.66406">
        <ele>64.7</ele>
        <time>2025-10-26T14:06:27Z</time>
      </trkpt>
      <trkpt lat="43.49046" lon="6.66406">
        <ele>64.7</ele>
        <time>2025-10-26T14:06:28Z</time>
      </trkpt>
      <trkpt lat="43.49047" lon="6.66406">
        <ele>64.6</ele>
        <time>2025-10-26T14:06:29Z</time>
      </trkpt>
      <trkpt lat="43.49047" lon="6.66406">
        <ele>64.5</ele>
        <time>2025-10-26T14:06:30Z</time>
      </trkpt>
      <trkpt lat="43.49047" lon="6.66405">
        <ele>64.5</ele>
        <time>2025-10-26T14:06:31Z</time>
      </trkpt>
      <trkpt lat="43.49047" lon="6.66405">
        <ele>64.4</ele>
        <time>2025-10-26T14:06:32Z</time>
      </trkpt>
      <trkpt lat="43.49047" lon="6.66405">
        <ele>64.4</ele>
        <time>2025-10-26T14:06:33Z</time>
      </trkpt>
      <trkpt lat="43.49047" lon="6.66405">
        <ele>64.4</ele>
        <time>2025-10-26T14:06:34Z</time>
      </trkpt>
      <trkpt lat="43.49047" lon="6.66405">
        <ele>64.4</ele>
        <time>2025-10-26T14:06:35Z</time>
      </trkpt>
      <trkpt lat="43.49047" lon="6.66405">
        <ele>64.4</ele>
        <time>2025-10-26T14:06:36Z</time>
      </trkpt>
      <trkpt lat="43.49047" lon="6.66406">
        <ele>64.4</ele>
        <time>2025-10-26T14:06:37Z</time>
      </trkpt>
      <trkpt lat="43.49048" lon="6.66406">
        <ele>64.4</ele>
        <time>2025-10-26T14:06:38Z</time>
      </trkpt>
      <trkpt lat="43.49048" lon="6.66406">
        <ele>64.2</ele>
        <time>2025-10-26T14:06:39Z</time>
      </trkpt>
      <trkpt lat="43.49048" lon="6.66406">
        <ele>64.1</ele>
        <time>2025-10-26T14:06:40Z</time>
      </trkpt>
      <trkpt lat="43.49048" lon="6.66406">
        <ele>64.1</ele>
        <time>2025-10-26T14:06:41Z</time>
      </trkpt>
      <trkpt lat="43.49048" lon="6.66406">
        <ele>64.1</ele>
        <time>2025-10-26T14:06:42Z</time>
      </trkpt>
      <trkpt lat="43.49048" lon="6.66406">
        <ele>64</ele>
        <time>2025-10-26T14:06:43Z</time>
      </trkpt>
      <trkpt lat="43.49048" lon="6.66406">
        <ele>64</ele>
        <time>2025-10-26T14:06:44Z</time>
      </trkpt>
      <trkpt lat="43.49048" lon="6.66406">
        <ele>64</ele>
        <time>2025-10-26T14:06:45Z</time>
      </trkpt>
      <trkpt lat="43.49048" lon="6.66406">
        <ele>64</ele>
        <time>2025-10-26T14:06:46Z</time>
      </trkpt>
      <trkpt lat="43.49048" lon="6.66406">
        <ele>63.9</ele>
        <time>2025-10-26T14:06:47Z</time>
      </trkpt>
      <trkpt lat="43.49048" lon="6.66406">
        <ele>64</ele>
        <time>2025-10-26T14:06:48Z</time>
      </trkpt>
      <trkpt lat="43.49048" lon="6.66406">
        <ele>64.1</ele>
        <time>2025-10-26T14:06:49Z</time>
      </trkpt>
      <trkpt lat="43.49048" lon="6.66406">
        <ele>64.1</ele>
        <time>2025-10-26T14:06:50Z</time>
      </trkpt>
      <trkpt lat="43.49048" lon="6.66406">
        <ele>64.2</ele>
        <time>2025-10-26T14:06:51Z</time>
      </trkpt>
      <trkpt lat="43.49048" lon="6.66406">
        <ele>64.2</ele>
        <time>2025-10-26T14:06:52Z</time>
      </trkpt>
      <trkpt lat="43.49048" lon="6.66406">
        <ele>64.2</ele>
        <time>2025-10-26T14:06:53Z</time>
      </trkpt>
      <trkpt lat="43.49048" lon="6.66406">
        <ele>64.3</ele>
        <time>2025-10-26T14:06:54Z</time>
      </trkpt>
      <trkpt lat="43.49048" lon="6.66406">
        <ele>64.3</ele>
        <time>2025-10-26T14:06:55Z</time>
      </trkpt>
      <trkpt lat="43.49048" lon="6.66406">
        <ele>64.3</ele>
        <time>2025-10-26T14:06:56Z</time>
      </trkpt>
      <trkpt lat="43.49048" lon="6.66406">
        <ele>64.4</ele>
        <time>2025-10-26T14:06:57Z</time>
      </trkpt>
      <trkpt lat="43.49048" lon="6.66406">
        <ele>64.4</ele>
        <time>2025-10-26T14:06:58Z</time>
      </trkpt>
      <trkpt lat="43.49048" lon="6.66406">
        <ele>64.4</ele>
        <time>2025-10-26T14:06:59Z</time>
      </trkpt>
      <trkpt lat="43.49048" lon="6.66406">
        <ele>64.4</ele>
        <time>2025-10-26T14:07:00Z</time>
      </trkpt>
      <trkpt lat="43.49048" lon="6.66406">
        <ele>64.4</ele>
        <time>2025-10-26T14:07:01Z</time>
      </trkpt>
      <trkpt lat="43.49047" lon="6.66406">
        <ele>64.4</ele>
        <time>2025-10-26T14:07:02Z</time>
      </trkpt>
      <trkpt lat="43.49047" lon="6.66406">
        <ele>64.4</ele>
        <time>2025-10-26T14:07:03Z</time>
      </trkpt>
      <trkpt lat="43.49046" lon="6.66406">
        <ele>64.4</ele>
        <time>2025-10-26T14:07:04Z</time>
      </trkpt>
      <trkpt lat="43.49046" lon="6.66407">
        <ele>64.5</ele>
        <time>2025-10-26T14:07:05Z</time>
      </trkpt>
      <trkpt lat="43.49046" lon="6.66407">
        <ele>64.5</ele>
        <time>2025-10-26T14:07:06Z</time>
      </trkpt>
      <trkpt lat="43.49046" lon="6.66407">
        <ele>64.5</ele>
        <time>2025-10-26T14:07:07Z</time>
      </trkpt>
      <trkpt lat="43.49046" lon="6.66406">
        <ele>64.4</ele>
        <time>2025-10-26T14:07:08Z</time>
      </trkpt>
      <trkpt lat="43.49046" lon="6.66406">
        <ele>64.3</ele>
        <time>2025-10-26T14:07:09Z</time>
      </trkpt>
      <trkpt lat="43.49046" lon="6.66406">
        <ele>64.3</ele>
        <time>2025-10-26T14:07:10Z</time>
      </trkpt>
      <trkpt lat="43.49046" lon="6.66406">
        <ele>64.4</ele>
        <time>2025-10-26T14:07:11Z</time>
      </trkpt>
      <trkpt lat="43.49046" lon="6.66406">
        <ele>64.4</ele>
        <time>2025-10-26T14:07:12Z</time>
      </trkpt>
      <trkpt lat="43.49045" lon="6.66406">
        <ele>64.5</ele>
        <time>2025-10-26T14:07:13Z</time>
      </trkpt>
      <trkpt lat="43.49045" lon="6.66406">
        <ele>64.5</ele>
        <time>2025-10-26T14:07:14Z</time>
      </trkpt>
      <trkpt lat="43.49045" lon="6.66406">
        <ele>64.5</ele>
        <time>2025-10-26T14:07:15Z</time>
      </trkpt>
      <trkpt lat="43.49045" lon="6.66406">
        <ele>64.5</ele>
        <time>2025-10-26T14:07:16Z</time>
      </trkpt>
      <trkpt lat="43.49045" lon="6.66406">
        <ele>64.5</ele>
        <time>2025-10-26T14:07:17Z</time>
      </trkpt>
      <trkpt lat="43.49045" lon="6.66406">
        <ele>64.5</ele>
        <time>2025-10-26T14:07:18Z</time>
      </trkpt>
      <trkpt lat="43.49045" lon="6.66406">
        <ele>64.5</ele>
        <time>2025-10-26T14:07:19Z</time>
      </trkpt>
      <trkpt lat="43.49045" lon="6.66406">
        <ele>64.6</ele>
        <time>2025-10-26T14:07:20Z</time>
      </trkpt>
      <trkpt lat="43.49045" lon="6.66406">
        <ele>64.6</ele>
        <time>2025-10-26T14:07:21Z</time>
      </trkpt>
      <trkpt lat="43.49045" lon="6.66406">
        <ele>64.6</ele>
        <time>2025-10-26T14:07:22Z</time>
      </trkpt>
      <trkpt lat="43.49045" lon="6.66406">
        <ele>64.6</ele>
        <time>2025-10-26T14:07:23Z</time>
      </trkpt>
      <trkpt lat="43.49045" lon="6.66406">
        <ele>64.6</ele>
        <time>2025-10-26T14:07:24Z</time>
      </trkpt>
      <trkpt lat="43.49045" lon="6.66407">
        <ele>64.6</ele>
        <time>2025-10-26T14:07:25Z</time>
      </trkpt>
      <trkpt lat="43.49045" lon="6.66407">
        <ele>64.6</ele>
        <time>2025-10-26T14:07:26Z</time>
      </trkpt>
      <trkpt lat="43.49045" lon="6.66407">
        <ele>64.5</ele>
        <time>2025-10-26T14:07:27Z</time>
      </trkpt>
      <trkpt lat="43.49045" lon="6.66407">
        <ele>64.4</ele>
        <time>2025-10-26T14:07:28Z</time>
      </trkpt>
      <trkpt lat="43.49044" lon="6.66407">
        <ele>64.4</ele>
        <time>2025-10-26T14:07:29Z</time>
      </trkpt>
      <trkpt lat="43.49044" lon="6.66407">
        <ele>64.3</ele>
        <time>2025-10-26T14:07:30Z</time>
      </trkpt>
      <trkpt lat="43.49044" lon="6.66407">
        <ele>64.2</ele>
        <time>2025-10-26T14:07:31Z</time>
      </trkpt>
      <trkpt lat="43.49044" lon="6.66407">
        <ele>64.1</ele>
        <time>2025-10-26T14:07:32Z</time>
      </trkpt>
      <trkpt lat="43.49044" lon="6.66407">
        <ele>64.2</ele>
        <time>2025-10-26T14:07:33Z</time>
      </trkpt>
      <trkpt lat="43.49044" lon="6.66407">
        <ele>64.1</ele>
        <time>2025-10-26T14:07:34Z</time>
      </trkpt>
      <trkpt lat="43.49044" lon="6.66407">
        <ele>64.1</ele>
        <time>2025-10-26T14:07:35Z</time>
      </trkpt>
      <trkpt lat="43.49044" lon="6.66407">
        <ele>64.1</ele>
        <time>2025-10-26T14:07:36Z</time>
      </trkpt>
      <trkpt lat="43.49044" lon="6.66407">
        <ele>64.1</ele>
        <time>2025-10-26T14:07:37Z</time>
      </trkpt>
      <trkpt lat="43.49044" lon="6.66408">
        <ele>64.2</ele>
        <time>2025-10-26T14:07:38Z</time>
      </trkpt>
      <trkpt lat="43.49044" lon="6.66408">
        <ele>64.2</ele>
        <time>2025-10-26T14:07:39Z</time>
      </trkpt>
      <trkpt lat="43.49044" lon="6.66408">
        <ele>64.3</ele>
        <time>2025-10-26T14:07:40Z</time>
      </trkpt>
      <trkpt lat="43.49043" lon="6.66408">
        <ele>64.4</ele>
        <time>2025-10-26T14:07:41Z</time>
      </trkpt>
      <trkpt lat="43.49043" lon="6.66408">
        <ele>64.6</ele>
        <time>2025-10-26T14:07:42Z</time>
      </trkpt>
      <trkpt lat="43.49043" lon="6.66408">
        <ele>64.6</ele>
        <time>2025-10-26T14:07:43Z</time>
      </trkpt>
      <trkpt lat="43.49043" lon="6.66408">
        <ele>64.6</ele>
        <time>2025-10-26T14:07:44Z</time>
      </trkpt>
      <trkpt lat="43.49043" lon="6.66408">
        <ele>64.6</ele>
        <time>2025-10-26T14:07:45Z</time>
      </trkpt>
      <trkpt lat="43.49043" lon="6.66408">
        <ele>64.5</ele>
        <time>2025-10-26T14:07:46Z</time>
      </trkpt>
      <trkpt lat="43.49043" lon="6.66408">
        <ele>64.4</ele>
        <time>2025-10-26T14:07:47Z</time>
      </trkpt>
      <trkpt lat="43.49043" lon="6.66408">
        <ele>64.4</ele>
        <time>2025-10-26T14:07:48Z</time>
      </trkpt>
      <trkpt lat="43.49043" lon="6.66408">
        <ele>64.5</ele>
        <time>2025-10-26T14:07:49Z</time>
      </trkpt>
      <trkpt lat="43.49043" lon="6.66408">
        <ele>64.5</ele>
        <time>2025-10-26T14:07:50Z</time>
      </trkpt>
      <trkpt lat="43.49043" lon="6.66408">
        <ele>64.4</ele>
        <time>2025-10-26T14:07:51Z</time>
      </trkpt>
      <trkpt lat="43.49043" lon="6.66408">
        <ele>64.4</ele>
        <time>2025-10-26T14:07:52Z</time>
      </trkpt>
      <trkpt lat="43.49042" lon="6.66408">
        <ele>64.4</ele>
        <time>2025-10-26T14:07:53Z</time>
      </trkpt>
      <trkpt lat="43.49043" lon="6.66408">
        <ele>64.4</ele>
        <time>2025-10-26T14:07:54Z</time>
      </trkpt>
      <trkpt lat="43.49043" lon="6.66409">
        <ele>64.4</ele>
        <time>2025-10-26T14:07:55Z</time>
      </trkpt>
      <trkpt lat="43.49043" lon="6.66409">
        <ele>64.4</ele>
        <time>2025-10-26T14:07:56Z</time>
      </trkpt>
      <trkpt lat="43.49043" lon="6.66409">
        <ele>64.4</ele>
        <time>2025-10-26T14:07:57Z</time>
      </trkpt>
      <trkpt lat="43.49043" lon="6.66409">
        <ele>64.5</ele>
        <time>2025-10-26T14:07:58Z</time>
      </trkpt>
      <trkpt lat="43.49043" lon="6.66409">
        <ele>64.5</ele>
        <time>2025-10-26T14:07:59Z</time>
      </trkpt>
      <trkpt lat="43.49043" lon="6.66409">
        <ele>64.5</ele>
        <time>2025-10-26T14:08:00Z</time>
      </trkpt>
      <trkpt lat="43.49043" lon="6.66409">
        <ele>64.6</ele>
        <time>2025-10-26T14:08:01Z</time>
      </trkpt>
      <trkpt lat="43.49043" lon="6.66409">
        <ele>64.5</ele>
        <time>2025-10-26T14:08:02Z</time>
      </trkpt>
      <trkpt lat="43.49043" lon="6.66409">
        <ele>64.5</ele>
        <time>2025-10-26T14:08:03Z</time>
      </trkpt>
      <trkpt lat="43.49043" lon="6.66409">
        <ele>64.5</ele>
        <time>2025-10-26T14:08:04Z</time>
      </trkpt>
      <trkpt lat="43.49043" lon="6.66409">
        <ele>64.5</ele>
        <time>2025-10-26T14:08:05Z</time>
      </trkpt>
      <trkpt lat="43.49043" lon="6.66409">
        <ele>64.5</ele>
        <time>2025-10-26T14:08:06Z</time>
      </trkpt>
      <trkpt lat="43.49043" lon="6.66409">
        <ele>64.5</ele>
        <time>2025-10-26T14:08:07Z</time>
      </trkpt>
      <trkpt lat="43.49043" lon="6.66409">
        <ele>64.4</ele>
        <time>2025-10-26T14:08:08Z</time>
      </trkpt>
      <trkpt lat="43.49043" lon="6.66408">
        <ele>64.4</ele>
        <time>2025-10-26T14:08:09Z</time>
      </trkpt>
      <trkpt lat="43.49043" lon="6.66408">
        <ele>64.3</ele>
        <time>2025-10-26T14:08:10Z</time>
      </trkpt>
      <trkpt lat="43.49043" lon="6.66408">
        <ele>64.3</ele>
        <time>2025-10-26T14:08:11Z</time>
      </trkpt>
      <trkpt lat="43.49043" lon="6.66408">
        <ele>64.4</ele>
        <time>2025-10-26T14:08:12Z</time>
      </trkpt>
      <trkpt lat="43.49043" lon="6.66408">
        <ele>64.3</ele>
        <time>2025-10-26T14:08:13Z</time>
      </trkpt>
      <trkpt lat="43.49043" lon="6.66408">
        <ele>64.3</ele>
        <time>2025-10-26T14:08:14Z</time>
      </trkpt>
      <trkpt lat="43.49043" lon="6.66408">
        <ele>64.3</ele>
        <time>2025-10-26T14:08:15Z</time>
      </trkpt>
      <trkpt lat="43.49043" lon="6.66408">
        <ele>64.3</ele>
        <time>2025-10-26T14:08:16Z</time>
      </trkpt>
      <trkpt lat="43.49043" lon="6.66408">
        <ele>64.3</ele>
        <time>2025-10-26T14:08:17Z</time>
      </trkpt>
      <trkpt lat="43.49043" lon="6.66408">
        <ele>64.4</ele>
        <time>2025-10-26T14:08:18Z</time>
      </trkpt>
      <trkpt lat="43.49043" lon="6.66408">
        <ele>64.4</ele>
        <time>2025-10-26T14:08:19Z</time>
      </trkpt>
      <trkpt lat="43.49043" lon="6.66409">
        <ele>64.4</ele>
        <time>2025-10-26T14:08:20Z</time>
      </trkpt>
      <trkpt lat="43.49043" lon="6.66409">
        <ele>64.3</ele>
        <time>2025-10-26T14:08:21Z</time>
      </trkpt>
      <trkpt lat="43.49043" lon="6.66409">
        <ele>64.3</ele>
        <time>2025-10-26T14:08:22Z</time>
      </trkpt>
      <trkpt lat="43.49043" lon="6.66409">
        <ele>64.3</ele>
        <time>2025-10-26T14:08:23Z</time>
      </trkpt>
      <trkpt lat="43.49043" lon="6.66409">
        <ele>64.3</ele>
        <time>2025-10-26T14:08:24Z</time>
      </trkpt>
      <trkpt lat="43.49043" lon="6.66409">
        <ele>64.3</ele>
        <time>2025-10-26T14:08:25Z</time>
      </trkpt>
      <trkpt lat="43.49043" lon="6.66408">
        <ele>64.2</ele>
        <time>2025-10-26T14:08:26Z</time>
      </trkpt>
      <trkpt lat="43.49043" lon="6.66409">
        <ele>64.1</ele>
        <time>2025-10-26T14:08:27Z</time>
      </trkpt>
      <trkpt lat="43.49043" lon="6.66409">
        <ele>64.2</ele>
        <time>2025-10-26T14:08:28Z</time>
      </trkpt>
      <trkpt lat="43.49043" lon="6.66409">
        <ele>64.1</ele>
        <time>2025-10-26T14:08:29Z</time>
      </trkpt>
      <trkpt lat="43.49043" lon="6.66409">
        <ele>64</ele>
        <time>2025-10-26T14:08:30Z</time>
      </trkpt>
      <trkpt lat="43.49043" lon="6.66409">
        <ele>64</ele>
        <time>2025-10-26T14:08:31Z</time>
      </trkpt>
      <trkpt lat="43.49043" lon="6.66409">
        <ele>64.2</ele>
        <time>2025-10-26T14:08:32Z</time>
      </trkpt>
      <trkpt lat="43.49043" lon="6.66409">
        <ele>64.4</ele>
        <time>2025-10-26T14:08:33Z</time>
      </trkpt>
      <trkpt lat="43.49043" lon="6.66409">
        <ele>64.5</ele>
        <time>2025-10-26T14:08:34Z</time>
      </trkpt>
      <trkpt lat="43.49043" lon="6.66409">
        <ele>64.7</ele>
        <time>2025-10-26T14:08:35Z</time>
      </trkpt>
      <trkpt lat="43.49043" lon="6.66408">
        <ele>64.8</ele>
        <time>2025-10-26T14:08:36Z</time>
      </trkpt>
      <trkpt lat="43.49043" lon="6.66408">
        <ele>64.8</ele>
        <time>2025-10-26T14:08:37Z</time>
      </trkpt>
      <trkpt lat="43.49043" lon="6.66408">
        <ele>64.8</ele>
        <time>2025-10-26T14:08:38Z</time>
      </trkpt>
      <trkpt lat="43.49043" lon="6.66408">
        <ele>64.8</ele>
        <time>2025-10-26T14:08:39Z</time>
      </trkpt>
      <trkpt lat="43.49044" lon="6.66408">
        <ele>64.8</ele>
        <time>2025-10-26T14:08:40Z</time>
      </trkpt>
      <trkpt lat="43.49044" lon="6.66407">
        <ele>64.7</ele>
        <time>2025-10-26T14:08:41Z</time>
      </trkpt>
      <trkpt lat="43.49044" lon="6.66407">
        <ele>64.6</ele>
        <time>2025-10-26T14:08:42Z</time>
      </trkpt>
      <trkpt lat="43.49043" lon="6.66408">
        <ele>64.6</ele>
        <time>2025-10-26T14:08:43Z</time>
      </trkpt>
      <trkpt lat="43.49043" lon="6.66408">
        <ele>64.6</ele>
        <time>2025-10-26T14:08:44Z</time>
      </trkpt>
      <trkpt lat="43.49043" lon="6.66408">
        <ele>64.7</ele>
        <time>2025-10-26T14:08:45Z</time>
      </trkpt>
      <trkpt lat="43.49043" lon="6.66408">
        <ele>64.7</ele>
        <time>2025-10-26T14:08:46Z</time>
      </trkpt>
      <trkpt lat="43.49043" lon="6.66408">
        <ele>64.8</ele>
        <time>2025-10-26T14:08:47Z</time>
      </trkpt>
      <trkpt lat="43.49043" lon="6.66408">
        <ele>64.9</ele>
        <time>2025-10-26T14:08:48Z</time>
      </trkpt>
      <trkpt lat="43.49043" lon="6.66408">
        <ele>65</ele>
        <time>2025-10-26T14:08:49Z</time>
      </trkpt>
      <trkpt lat="43.49043" lon="6.66409">
        <ele>65.3</ele>
        <time>2025-10-26T14:08:50Z</time>
      </trkpt>
      <trkpt lat="43.49043" lon="6.66408">
        <ele>65.4</ele>
        <time>2025-10-26T14:08:51Z</time>
      </trkpt>
      <trkpt lat="43.49042" lon="6.66408">
        <ele>65.6</ele>
        <time>2025-10-26T14:08:52Z</time>
      </trkpt>
      <trkpt lat="43.49043" lon="6.66408">
        <ele>65.7</ele>
        <time>2025-10-26T14:08:53Z</time>
      </trkpt>
      <trkpt lat="43.49042" lon="6.66408">
        <ele>65.7</ele>
        <time>2025-10-26T14:08:54Z</time>
      </trkpt>
      <trkpt lat="43.49042" lon="6.66408">
        <ele>65.7</ele>
        <time>2025-10-26T14:08:55Z</time>
      </trkpt>
      <trkpt lat="43.49043" lon="6.66409">
        <ele>65.7</ele>
        <time>2025-10-26T14:08:56Z</time>
      </trkpt>
      <trkpt lat="43.49043" lon="6.66409">
        <ele>65.8</ele>
        <time>2025-10-26T14:08:57Z</time>
      </trkpt>
      <trkpt lat="43.49044" lon="6.66409">
        <ele>65.9</ele>
        <time>2025-10-26T14:08:58Z</time>
      </trkpt>
      <trkpt lat="43.49044" lon="6.66409">
        <ele>65.9</ele>
        <time>2025-10-26T14:08:59Z</time>
      </trkpt>
      <trkpt lat="43.49045" lon="6.6641">
        <ele>65.9</ele>
        <time>2025-10-26T14:09:00Z</time>
      </trkpt>
      <trkpt lat="43.49045" lon="6.6641">
        <ele>66</ele>
        <time>2025-10-26T14:09:01Z</time>
      </trkpt>
      <trkpt lat="43.49046" lon="6.66411">
        <ele>66</ele>
        <time>2025-10-26T14:09:02Z</time>
      </trkpt>
      <trkpt lat="43.49047" lon="6.66411">
        <ele>66</ele>
        <time>2025-10-26T14:09:03Z</time>
      </trkpt>
      <trkpt lat="43.49048" lon="6.66412">
        <ele>66.1</ele>
        <time>2025-10-26T14:09:04Z</time>
      </trkpt>
      <trkpt lat="43.49049" lon="6.66412">
        <ele>66.1</ele>
        <time>2025-10-26T14:09:05Z</time>
      </trkpt>
      <trkpt lat="43.49049" lon="6.66413">
        <ele>66.1</ele>
        <time>2025-10-26T14:09:06Z</time>
      </trkpt>
      <trkpt lat="43.4905" lon="6.66414">
        <ele>66</ele>
        <time>2025-10-26T14:09:07Z</time>
      </trkpt>
      <trkpt lat="43.49051" lon="6.66415">
        <ele>66</ele>
        <time>2025-10-26T14:09:08Z</time>
      </trkpt>
      <trkpt lat="43.49051" lon="6.66416">
        <ele>65.9</ele>
        <time>2025-10-26T14:09:09Z</time>
      </trkpt>
      <trkpt lat="43.49052" lon="6.66416">
        <ele>65.9</ele>
        <time>2025-10-26T14:09:10Z</time>
      </trkpt>
      <trkpt lat="43.49053" lon="6.66417">
        <ele>65.7</ele>
        <time>2025-10-26T14:09:11Z</time>
      </trkpt>
      <trkpt lat="43.49054" lon="6.66418">
        <ele>65.6</ele>
        <time>2025-10-26T14:09:12Z</time>
      </trkpt>
      <trkpt lat="43.49055" lon="6.66418">
        <ele>65.5</ele>
        <time>2025-10-26T14:09:13Z</time>
      </trkpt>
      <trkpt lat="43.49056" lon="6.66419">
        <ele>65.5</ele>
        <time>2025-10-26T14:09:14Z</time>
      </trkpt>
      <trkpt lat="43.49057" lon="6.6642">
        <ele>65.5</ele>
        <time>2025-10-26T14:09:15Z</time>
      </trkpt>
      <trkpt lat="43.49058" lon="6.66421">
        <ele>65.4</ele>
        <time>2025-10-26T14:09:16Z</time>
      </trkpt>
      <trkpt lat="43.49059" lon="6.66422">
        <ele>65.2</ele>
        <time>2025-10-26T14:09:17Z</time>
      </trkpt>
      <trkpt lat="43.4906" lon="6.66423">
        <ele>65.2</ele>
        <time>2025-10-26T14:09:18Z</time>
      </trkpt>
      <trkpt lat="43.49061" lon="6.66423">
        <ele>65.2</ele>
        <time>2025-10-26T14:09:19Z</time>
      </trkpt>
      <trkpt lat="43.49062" lon="6.66424">
        <ele>65.2</ele>
        <time>2025-10-26T14:09:20Z</time>
      </trkpt>
      <trkpt lat="43.49063" lon="6.66424">
        <ele>65.2</ele>
        <time>2025-10-26T14:09:21Z</time>
      </trkpt>
      <trkpt lat="43.49065" lon="6.66423">
        <ele>65.3</ele>
        <time>2025-10-26T14:09:22Z</time>
      </trkpt>
      <trkpt lat="43.49066" lon="6.66423">
        <ele>65.3</ele>
        <time>2025-10-26T14:09:23Z</time>
      </trkpt>
      <trkpt lat="43.49067" lon="6.66423">
        <ele>65.5</ele>
        <time>2025-10-26T14:09:24Z</time>
      </trkpt>
      <trkpt lat="43.49067" lon="6.66422">
        <ele>65.6</ele>
        <time>2025-10-26T14:09:25Z</time>
      </trkpt>
      <trkpt lat="43.49068" lon="6.66422">
        <ele>65.7</ele>
        <time>2025-10-26T14:09:26Z</time>
      </trkpt>
      <trkpt lat="43.49069" lon="6.66422">
        <ele>65.8</ele>
        <time>2025-10-26T14:09:27Z</time>
      </trkpt>
      <trkpt lat="43.49071" lon="6.66422">
        <ele>65.9</ele>
        <time>2025-10-26T14:09:28Z</time>
      </trkpt>
      <trkpt lat="43.49072" lon="6.66422">
        <ele>65.9</ele>
        <time>2025-10-26T14:09:29Z</time>
      </trkpt>
      <trkpt lat="43.49073" lon="6.66422">
        <ele>65.9</ele>
        <time>2025-10-26T14:09:30Z</time>
      </trkpt>
      <trkpt lat="43.49074" lon="6.66421">
        <ele>65.9</ele>
        <time>2025-10-26T14:09:31Z</time>
      </trkpt>
      <trkpt lat="43.49075" lon="6.66421">
        <ele>65.9</ele>
        <time>2025-10-26T14:09:32Z</time>
      </trkpt>
      <trkpt lat="43.49076" lon="6.66421">
        <ele>65.9</ele>
        <time>2025-10-26T14:09:33Z</time>
      </trkpt>
      <trkpt lat="43.49077" lon="6.66421">
        <ele>65.8</ele>
        <time>2025-10-26T14:09:34Z</time>
      </trkpt>
      <trkpt lat="43.49079" lon="6.66421">
        <ele>65.7</ele>
        <time>2025-10-26T14:09:35Z</time>
      </trkpt>
      <trkpt lat="43.4908" lon="6.66421">
        <ele>65.6</ele>
        <time>2025-10-26T14:09:36Z</time>
      </trkpt>
      <trkpt lat="43.49081" lon="6.6642">
        <ele>65.4</ele>
        <time>2025-10-26T14:09:37Z</time>
      </trkpt>
      <trkpt lat="43.49082" lon="6.6642">
        <ele>65.4</ele>
        <time>2025-10-26T14:09:38Z</time>
      </trkpt>
      <trkpt lat="43.49083" lon="6.66419">
        <ele>65.5</ele>
        <time>2025-10-26T14:09:39Z</time>
      </trkpt>
      <trkpt lat="43.49084" lon="6.66418">
        <ele>65.5</ele>
        <time>2025-10-26T14:09:40Z</time>
      </trkpt>
      <trkpt lat="43.49085" lon="6.66417">
        <ele>65.5</ele>
        <time>2025-10-26T14:09:41Z</time>
      </trkpt>
      <trkpt lat="43.49086" lon="6.66416">
        <ele>65.5</ele>
        <time>2025-10-26T14:09:42Z</time>
      </trkpt>
      <trkpt lat="43.49087" lon="6.66415">
        <ele>65.6</ele>
        <time>2025-10-26T14:09:43Z</time>
      </trkpt>
      <trkpt lat="43.49087" lon="6.66413">
        <ele>65.7</ele>
        <time>2025-10-26T14:09:44Z</time>
      </trkpt>
      <trkpt lat="43.49088" lon="6.66413">
        <ele>65.8</ele>
        <time>2025-10-26T14:09:45Z</time>
      </trkpt>
      <trkpt lat="43.49089" lon="6.66412">
        <ele>65.9</ele>
        <time>2025-10-26T14:09:46Z</time>
      </trkpt>
      <trkpt lat="43.4909" lon="6.6641">
        <ele>66.1</ele>
        <time>2025-10-26T14:09:47Z</time>
      </trkpt>
      <trkpt lat="43.49091" lon="6.66409">
        <ele>66.2</ele>
        <time>2025-10-26T14:09:48Z</time>
      </trkpt>
      <trkpt lat="43.49091" lon="6.66408">
        <ele>66.3</ele>
        <time>2025-10-26T14:09:49Z</time>
      </trkpt>
      <trkpt lat="43.49092" lon="6.66407">
        <ele>66.4</ele>
        <time>2025-10-26T14:09:50Z</time>
      </trkpt>
      <trkpt lat="43.49093" lon="6.66406">
        <ele>66.4</ele>
        <time>2025-10-26T14:09:51Z</time>
      </trkpt>
      <trkpt lat="43.49094" lon="6.66405">
        <ele>66.4</ele>
        <time>2025-10-26T14:09:52Z</time>
      </trkpt>
      <trkpt lat="43.49094" lon="6.66404">
        <ele>66.4</ele>
        <time>2025-10-26T14:09:53Z</time>
      </trkpt>
      <trkpt lat="43.49095" lon="6.66403">
        <ele>66.4</ele>
        <time>2025-10-26T14:09:54Z</time>
      </trkpt>
      <trkpt lat="43.49096" lon="6.66402">
        <ele>66.4</ele>
        <time>2025-10-26T14:09:55Z</time>
      </trkpt>
      <trkpt lat="43.49097" lon="6.66401">
        <ele>66.4</ele>
        <time>2025-10-26T14:09:56Z</time>
      </trkpt>
      <trkpt lat="43.49098" lon="6.664">
        <ele>66.4</ele>
        <time>2025-10-26T14:09:57Z</time>
      </trkpt>
      <trkpt lat="43.49099" lon="6.66398">
        <ele>66.5</ele>
        <time>2025-10-26T14:09:58Z</time>
      </trkpt>
      <trkpt lat="43.491" lon="6.66397">
        <ele>66.5</ele>
        <time>2025-10-26T14:09:59Z</time>
      </trkpt>
      <trkpt lat="43.49101" lon="6.66396">
        <ele>66.5</ele>
        <time>2025-10-26T14:10:00Z</time>
      </trkpt>
      <trkpt lat="43.49101" lon="6.66394">
        <ele>66.5</ele>
        <time>2025-10-26T14:10:01Z</time>
      </trkpt>
      <trkpt lat="43.49102" lon="6.66393">
        <ele>66.4</ele>
        <time>2025-10-26T14:10:02Z</time>
      </trkpt>
      <trkpt lat="43.49103" lon="6.66392">
        <ele>66.3</ele>
        <time>2025-10-26T14:10:03Z</time>
      </trkpt>
      <trkpt lat="43.49103" lon="6.66391">
        <ele>66.2</ele>
        <time>2025-10-26T14:10:04Z</time>
      </trkpt>
      <trkpt lat="43.49104" lon="6.6639">
        <ele>66.1</ele>
        <time>2025-10-26T14:10:05Z</time>
      </trkpt>
      <trkpt lat="43.49104" lon="6.66389">
        <ele>66</ele>
        <time>2025-10-26T14:10:06Z</time>
      </trkpt>
      <trkpt lat="43.49105" lon="6.66387">
        <ele>66</ele>
        <time>2025-10-26T14:10:07Z</time>
      </trkpt>
      <trkpt lat="43.49105" lon="6.66385">
        <ele>66</ele>
        <time>2025-10-26T14:10:08Z</time>
      </trkpt>
      <trkpt lat="43.49105" lon="6.66383">
        <ele>66.1</ele>
        <time>2025-10-26T14:10:09Z</time>
      </trkpt>
      <trkpt lat="43.49105" lon="6.66381">
        <ele>66.2</ele>
        <time>2025-10-26T14:10:10Z</time>
      </trkpt>
      <trkpt lat="43.49106" lon="6.66379">
        <ele>66.4</ele>
        <time>2025-10-26T14:10:11Z</time>
      </trkpt>
      <trkpt lat="43.49106" lon="6.66378">
        <ele>66.4</ele>
        <time>2025-10-26T14:10:12Z</time>
      </trkpt>
      <trkpt lat="43.49106" lon="6.66376">
        <ele>66.5</ele>
        <time>2025-10-26T14:10:13Z</time>
      </trkpt>
      <trkpt lat="43.49106" lon="6.66375">
        <ele>66.5</ele>
        <time>2025-10-26T14:10:14Z</time>
      </trkpt>
      <trkpt lat="43.49105" lon="6.66373">
        <ele>66.6</ele>
        <time>2025-10-26T14:10:15Z</time>
      </trkpt>
      <trkpt lat="43.49105" lon="6.66371">
        <ele>66.8</ele>
        <time>2025-10-26T14:10:16Z</time>
      </trkpt>
      <trkpt lat="43.49104" lon="6.6637">
        <ele>67</ele>
        <time>2025-10-26T14:10:17Z</time>
      </trkpt>
      <trkpt lat="43.49104" lon="6.66369">
        <ele>67.1</ele>
        <time>2025-10-26T14:10:18Z</time>
      </trkpt>
      <trkpt lat="43.49103" lon="6.66367">
        <ele>67</ele>
        <time>2025-10-26T14:10:19Z</time>
      </trkpt>
      <trkpt lat="43.49103" lon="6.66366">
        <ele>66.8</ele>
        <time>2025-10-26T14:10:20Z</time>
      </trkpt>
      <trkpt lat="43.49102" lon="6.66365">
        <ele>66.6</ele>
        <time>2025-10-26T14:10:21Z</time>
      </trkpt>
      <trkpt lat="43.49102" lon="6.66364">
        <ele>66.4</ele>
        <time>2025-10-26T14:10:22Z</time>
      </trkpt>
      <trkpt lat="43.49101" lon="6.66362">
        <ele>66.3</ele>
        <time>2025-10-26T14:10:23Z</time>
      </trkpt>
      <trkpt lat="43.491" lon="6.66361">
        <ele>66.1</ele>
        <time>2025-10-26T14:10:24Z</time>
      </trkpt>
      <trkpt lat="43.49099" lon="6.6636">
        <ele>66</ele>
        <time>2025-10-26T14:10:25Z</time>
      </trkpt>
      <trkpt lat="43.49098" lon="6.66359">
        <ele>65.7</ele>
        <time>2025-10-26T14:10:26Z</time>
      </trkpt>
      <trkpt lat="43.49097" lon="6.66358">
        <ele>65.5</ele>
        <time>2025-10-26T14:10:27Z</time>
      </trkpt>
      <trkpt lat="43.49097" lon="6.66357">
        <ele>65.6</ele>
        <time>2025-10-26T14:10:28Z</time>
      </trkpt>
      <trkpt lat="43.49096" lon="6.66355">
        <ele>65.7</ele>
        <time>2025-10-26T14:10:29Z</time>
      </trkpt>
      <trkpt lat="43.49095" lon="6.66354">
        <ele>65.7</ele>
        <time>2025-10-26T14:10:30Z</time>
      </trkpt>
      <trkpt lat="43.49095" lon="6.66353">
        <ele>65.8</ele>
        <time>2025-10-26T14:10:31Z</time>
      </trkpt>
      <trkpt lat="43.49095" lon="6.66351">
        <ele>65.9</ele>
        <time>2025-10-26T14:10:32Z</time>
      </trkpt>
      <trkpt lat="43.49094" lon="6.6635">
        <ele>66</ele>
        <time>2025-10-26T14:10:33Z</time>
      </trkpt>
      <trkpt lat="43.49093" lon="6.66349">
        <ele>66.1</ele>
        <time>2025-10-26T14:10:34Z</time>
      </trkpt>
      <trkpt lat="43.49092" lon="6.66348">
        <ele>66.2</ele>
        <time>2025-10-26T14:10:35Z</time>
      </trkpt>
      <trkpt lat="43.49092" lon="6.66346">
        <ele>66.3</ele>
        <time>2025-10-26T14:10:36Z</time>
      </trkpt>
      <trkpt lat="43.49091" lon="6.66345">
        <ele>66.3</ele>
        <time>2025-10-26T14:10:37Z</time>
      </trkpt>
      <trkpt lat="43.49091" lon="6.66344">
        <ele>66.2</ele>
        <time>2025-10-26T14:10:38Z</time>
      </trkpt>
      <trkpt lat="43.4909" lon="6.66343">
        <ele>66.1</ele>
        <time>2025-10-26T14:10:39Z</time>
      </trkpt>
      <trkpt lat="43.49089" lon="6.66341">
        <ele>66.1</ele>
        <time>2025-10-26T14:10:40Z</time>
      </trkpt>
      <trkpt lat="43.49089" lon="6.6634">
        <ele>66.1</ele>
        <time>2025-10-26T14:10:41Z</time>
      </trkpt>
      <trkpt lat="43.49088" lon="6.66339">
        <ele>66.2</ele>
        <time>2025-10-26T14:10:42Z</time>
      </trkpt>
      <trkpt lat="43.49087" lon="6.66337">
        <ele>66.3</ele>
        <time>2025-10-26T14:10:43Z</time>
      </trkpt>
      <trkpt lat="43.49086" lon="6.66336">
        <ele>66.3</ele>
        <time>2025-10-26T14:10:44Z</time>
      </trkpt>
      <trkpt lat="43.49085" lon="6.66335">
        <ele>66.3</ele>
        <time>2025-10-26T14:10:45Z</time>
      </trkpt>
      <trkpt lat="43.49084" lon="6.66334">
        <ele>66.3</ele>
        <time>2025-10-26T14:10:46Z</time>
      </trkpt>
      <trkpt lat="43.49083" lon="6.66333">
        <ele>66.3</ele>
        <time>2025-10-26T14:10:47Z</time>
      </trkpt>
      <trkpt lat="43.49082" lon="6.66332">
        <ele>66.3</ele>
        <time>2025-10-26T14:10:48Z</time>
      </trkpt>
      <trkpt lat="43.49082" lon="6.66331">
        <ele>66.3</ele>
        <time>2025-10-26T14:10:49Z</time>
      </trkpt>
      <trkpt lat="43.49081" lon="6.66329">
        <ele>66.2</ele>
        <time>2025-10-26T14:10:50Z</time>
      </trkpt>
      <trkpt lat="43.4908" lon="6.66328">
        <ele>66.2</ele>
        <time>2025-10-26T14:10:51Z</time>
      </trkpt>
      <trkpt lat="43.4908" lon="6.66327">
        <ele>66.2</ele>
        <time>2025-10-26T14:10:52Z</time>
      </trkpt>
      <trkpt lat="43.49079" lon="6.66326">
        <ele>65.9</ele>
        <time>2025-10-26T14:10:53Z</time>
      </trkpt>
      <trkpt lat="43.49078" lon="6.66325">
        <ele>65.8</ele>
        <time>2025-10-26T14:10:54Z</time>
      </trkpt>
      <trkpt lat="43.49077" lon="6.66324">
        <ele>65.6</ele>
        <time>2025-10-26T14:10:55Z</time>
      </trkpt>
      <trkpt lat="43.49077" lon="6.66323">
        <ele>65.5</ele>
        <time>2025-10-26T14:10:56Z</time>
      </trkpt>
      <trkpt lat="43.49076" lon="6.66322">
        <ele>65.5</ele>
        <time>2025-10-26T14:10:57Z</time>
      </trkpt>
      <trkpt lat="43.49076" lon="6.6632">
        <ele>65.7</ele>
        <time>2025-10-26T14:10:58Z</time>
      </trkpt>
      <trkpt lat="43.49075" lon="6.66319">
        <ele>65.8</ele>
        <time>2025-10-26T14:10:59Z</time>
      </trkpt>
      <trkpt lat="43.49074" lon="6.66318">
        <ele>65.9</ele>
        <time>2025-10-26T14:11:00Z</time>
      </trkpt>
      <trkpt lat="43.49073" lon="6.66317">
        <ele>65.9</ele>
        <time>2025-10-26T14:11:01Z</time>
      </trkpt>
      <trkpt lat="43.49073" lon="6.66315">
        <ele>66</ele>
        <time>2025-10-26T14:11:02Z</time>
      </trkpt>
      <trkpt lat="43.49072" lon="6.66314">
        <ele>65.9</ele>
        <time>2025-10-26T14:11:03Z</time>
      </trkpt>
      <trkpt lat="43.49071" lon="6.66313">
        <ele>65.9</ele>
        <time>2025-10-26T14:11:04Z</time>
      </trkpt>
      <trkpt lat="43.49071" lon="6.66312">
        <ele>65.7</ele>
        <time>2025-10-26T14:11:05Z</time>
      </trkpt>
      <trkpt lat="43.4907" lon="6.66311">
        <ele>65.6</ele>
        <time>2025-10-26T14:11:06Z</time>
      </trkpt>
      <trkpt lat="43.49069" lon="6.6631">
        <ele>65.5</ele>
        <time>2025-10-26T14:11:07Z</time>
      </trkpt>
      <trkpt lat="43.49068" lon="6.66309">
        <ele>65.4</ele>
        <time>2025-10-26T14:11:08Z</time>
      </trkpt>
      <trkpt lat="43.49067" lon="6.66308">
        <ele>65.3</ele>
        <time>2025-10-26T14:11:09Z</time>
      </trkpt>
      <trkpt lat="43.49066" lon="6.66307">
        <ele>65.2</ele>
        <time>2025-10-26T14:11:10Z</time>
      </trkpt>
      <trkpt lat="43.49065" lon="6.66306">
        <ele>65.1</ele>
        <time>2025-10-26T14:11:11Z</time>
      </trkpt>
      <trkpt lat="43.49064" lon="6.66305">
        <ele>65</ele>
        <time>2025-10-26T14:11:12Z</time>
      </trkpt>
      <trkpt lat="43.49063" lon="6.66304">
        <ele>65</ele>
        <time>2025-10-26T14:11:13Z</time>
      </trkpt>
      <trkpt lat="43.49062" lon="6.66302">
        <ele>65.1</ele>
        <time>2025-10-26T14:11:14Z</time>
      </trkpt>
      <trkpt lat="43.49061" lon="6.66301">
        <ele>65.2</ele>
        <time>2025-10-26T14:11:15Z</time>
      </trkpt>
      <trkpt lat="43.49061" lon="6.663">
        <ele>65.3</ele>
        <time>2025-10-26T14:11:16Z</time>
      </trkpt>
      <trkpt lat="43.4906" lon="6.663">
        <ele>65.3</ele>
        <time>2025-10-26T14:11:17Z</time>
      </trkpt>
      <trkpt lat="43.49058" lon="6.66299">
        <ele>65.4</ele>
        <time>2025-10-26T14:11:18Z</time>
      </trkpt>
      <trkpt lat="43.49057" lon="6.66298">
        <ele>65.5</ele>
        <time>2025-10-26T14:11:19Z</time>
      </trkpt>
      <trkpt lat="43.49056" lon="6.66297">
        <ele>65.5</ele>
        <time>2025-10-26T14:11:20Z</time>
      </trkpt>
      <trkpt lat="43.49055" lon="6.66297">
        <ele>65.6</ele>
        <time>2025-10-26T14:11:21Z</time>
      </trkpt>
      <trkpt lat="43.49054" lon="6.66296">
        <ele>65.8</ele>
        <time>2025-10-26T14:11:22Z</time>
      </trkpt>
      <trkpt lat="43.49053" lon="6.66295">
        <ele>65.8</ele>
        <time>2025-10-26T14:11:23Z</time>
      </trkpt>
      <trkpt lat="43.49052" lon="6.66294">
        <ele>65.8</ele>
        <time>2025-10-26T14:11:24Z</time>
      </trkpt>
      <trkpt lat="43.49051" lon="6.66292">
        <ele>65.8</ele>
        <time>2025-10-26T14:11:25Z</time>
      </trkpt>
      <trkpt lat="43.4905" lon="6.66292">
        <ele>65.6</ele>
        <time>2025-10-26T14:11:26Z</time>
      </trkpt>
      <trkpt lat="43.49048" lon="6.66291">
        <ele>65.6</ele>
        <time>2025-10-26T14:11:27Z</time>
      </trkpt>
      <trkpt lat="43.49047" lon="6.66291">
        <ele>65.6</ele>
        <time>2025-10-26T14:11:28Z</time>
      </trkpt>
      <trkpt lat="43.49046" lon="6.6629">
        <ele>65.4</ele>
        <time>2025-10-26T14:11:29Z</time>
      </trkpt>
      <trkpt lat="43.49045" lon="6.66289">
        <ele>65.3</ele>
        <time>2025-10-26T14:11:30Z</time>
      </trkpt>
      <trkpt lat="43.49044" lon="6.66289">
        <ele>65.2</ele>
        <time>2025-10-26T14:11:31Z</time>
      </trkpt>
      <trkpt lat="43.49042" lon="6.66288">
        <ele>65.1</ele>
        <time>2025-10-26T14:11:32Z</time>
      </trkpt>
      <trkpt lat="43.49041" lon="6.66288">
        <ele>65</ele>
        <time>2025-10-26T14:11:33Z</time>
      </trkpt>
      <trkpt lat="43.4904" lon="6.66287">
        <ele>64.7</ele>
        <time>2025-10-26T14:11:34Z</time>
      </trkpt>
      <trkpt lat="43.49039" lon="6.66286">
        <ele>64.6</ele>
        <time>2025-10-26T14:11:35Z</time>
      </trkpt>
      <trkpt lat="43.49038" lon="6.66285">
        <ele>64.5</ele>
        <time>2025-10-26T14:11:36Z</time>
      </trkpt>
      <trkpt lat="43.49037" lon="6.66284">
        <ele>64.3</ele>
        <time>2025-10-26T14:11:37Z</time>
      </trkpt>
      <trkpt lat="43.49036" lon="6.66283">
        <ele>64.3</ele>
        <time>2025-10-26T14:11:38Z</time>
      </trkpt>
      <trkpt lat="43.49035" lon="6.66282">
        <ele>64.3</ele>
        <time>2025-10-26T14:11:39Z</time>
      </trkpt>
      <trkpt lat="43.49034" lon="6.66281">
        <ele>64.3</ele>
        <time>2025-10-26T14:11:40Z</time>
      </trkpt>
      <trkpt lat="43.49033" lon="6.6628">
        <ele>64.2</ele>
        <time>2025-10-26T14:11:41Z</time>
      </trkpt>
      <trkpt lat="43.49032" lon="6.66279">
        <ele>64.1</ele>
        <time>2025-10-26T14:11:42Z</time>
      </trkpt>
      <trkpt lat="43.49031" lon="6.66278">
        <ele>64</ele>
        <time>2025-10-26T14:11:43Z</time>
      </trkpt>
      <trkpt lat="43.4903" lon="6.66276">
        <ele>63.9</ele>
        <time>2025-10-26T14:11:44Z</time>
      </trkpt>
      <trkpt lat="43.49029" lon="6.66275">
        <ele>63.9</ele>
        <time>2025-10-26T14:11:45Z</time>
      </trkpt>
      <trkpt lat="43.49029" lon="6.66274">
        <ele>63.9</ele>
        <time>2025-10-26T14:11:46Z</time>
      </trkpt>
      <trkpt lat="43.49028" lon="6.66272">
        <ele>64</ele>
        <time>2025-10-26T14:11:47Z</time>
      </trkpt>
      <trkpt lat="43.49027" lon="6.66271">
        <ele>64.1</ele>
        <time>2025-10-26T14:11:48Z</time>
      </trkpt>
      <trkpt lat="43.49026" lon="6.6627">
        <ele>64.1</ele>
        <time>2025-10-26T14:11:49Z</time>
      </trkpt>
      <trkpt lat="43.49026" lon="6.66268">
        <ele>64.2</ele>
        <time>2025-10-26T14:11:50Z</time>
      </trkpt>
      <trkpt lat="43.49025" lon="6.66267">
        <ele>64.3</ele>
        <time>2025-10-26T14:11:51Z</time>
      </trkpt>
      <trkpt lat="43.49025" lon="6.66266">
        <ele>64.5</ele>
        <time>2025-10-26T14:11:52Z</time>
      </trkpt>
      <trkpt lat="43.49024" lon="6.66265">
        <ele>64.6</ele>
        <time>2025-10-26T14:11:53Z</time>
      </trkpt>
      <trkpt lat="43.49023" lon="6.66263">
        <ele>64.8</ele>
        <time>2025-10-26T14:11:54Z</time>
      </trkpt>
      <trkpt lat="43.49023" lon="6.66262">
        <ele>64.9</ele>
        <time>2025-10-26T14:11:55Z</time>
      </trkpt>
      <trkpt lat="43.49022" lon="6.6626">
        <ele>65.1</ele>
        <time>2025-10-26T14:11:56Z</time>
      </trkpt>
      <trkpt lat="43.49022" lon="6.66259">
        <ele>65.2</ele>
        <time>2025-10-26T14:11:57Z</time>
      </trkpt>
      <trkpt lat="43.49021" lon="6.66257">
        <ele>65.3</ele>
        <time>2025-10-26T14:11:58Z</time>
      </trkpt>
      <trkpt lat="43.49021" lon="6.66256">
        <ele>65.3</ele>
        <time>2025-10-26T14:11:59Z</time>
      </trkpt>
      <trkpt lat="43.4902" lon="6.66254">
        <ele>65.3</ele>
        <time>2025-10-26T14:12:00Z</time>
      </trkpt>
      <trkpt lat="43.4902" lon="6.66253">
        <ele>65.3</ele>
        <time>2025-10-26T14:12:01Z</time>
      </trkpt>
      <trkpt lat="43.49019" lon="6.66252">
        <ele>65.3</ele>
        <time>2025-10-26T14:12:02Z</time>
      </trkpt>
      <trkpt lat="43.49019" lon="6.6625">
        <ele>65.3</ele>
        <time>2025-10-26T14:12:03Z</time>
      </trkpt>
      <trkpt lat="43.49018" lon="6.66249">
        <ele>65.3</ele>
        <time>2025-10-26T14:12:04Z</time>
      </trkpt>
      <trkpt lat="43.49017" lon="6.66247">
        <ele>65.3</ele>
        <time>2025-10-26T14:12:05Z</time>
      </trkpt>
      <trkpt lat="43.49017" lon="6.66246">
        <ele>65.4</ele>
        <time>2025-10-26T14:12:06Z</time>
      </trkpt>
      <trkpt lat="43.49017" lon="6.66245">
        <ele>65.4</ele>
        <time>2025-10-26T14:12:07Z</time>
      </trkpt>
      <trkpt lat="43.49016" lon="6.66243">
        <ele>65.4</ele>
        <time>2025-10-26T14:12:08Z</time>
      </trkpt>
      <trkpt lat="43.49016" lon="6.66241">
        <ele>65.3</ele>
        <time>2025-10-26T14:12:09Z</time>
      </trkpt>
      <trkpt lat="43.49016" lon="6.6624">
        <ele>65.2</ele>
        <time>2025-10-26T14:12:10Z</time>
      </trkpt>
      <trkpt lat="43.49016" lon="6.66238">
        <ele>65.1</ele>
        <time>2025-10-26T14:12:11Z</time>
      </trkpt>
      <trkpt lat="43.49016" lon="6.66236">
        <ele>65</ele>
        <time>2025-10-26T14:12:12Z</time>
      </trkpt>
      <trkpt lat="43.49016" lon="6.66234">
        <ele>64.8</ele>
        <time>2025-10-26T14:12:13Z</time>
      </trkpt>
      <trkpt lat="43.49016" lon="6.66233">
        <ele>64.6</ele>
        <time>2025-10-26T14:12:14Z</time>
      </trkpt>
      <trkpt lat="43.49016" lon="6.66231">
        <ele>64.5</ele>
        <time>2025-10-26T14:12:15Z</time>
      </trkpt>
      <trkpt lat="43.49016" lon="6.66229">
        <ele>64.5</ele>
        <time>2025-10-26T14:12:16Z</time>
      </trkpt>
      <trkpt lat="43.49016" lon="6.66228">
        <ele>64.5</ele>
        <time>2025-10-26T14:12:17Z</time>
      </trkpt>
      <trkpt lat="43.49016" lon="6.66226">
        <ele>64.5</ele>
        <time>2025-10-26T14:12:18Z</time>
      </trkpt>
      <trkpt lat="43.49016" lon="6.66225">
        <ele>64.5</ele>
        <time>2025-10-26T14:12:19Z</time>
      </trkpt>
      <trkpt lat="43.49016" lon="6.66223">
        <ele>64.5</ele>
        <time>2025-10-26T14:12:20Z</time>
      </trkpt>
      <trkpt lat="43.49016" lon="6.66221">
        <ele>64.5</ele>
        <time>2025-10-26T14:12:21Z</time>
      </trkpt>
      <trkpt lat="43.49016" lon="6.66219">
        <ele>64.5</ele>
        <time>2025-10-26T14:12:22Z</time>
      </trkpt>
      <trkpt lat="43.49016" lon="6.66218">
        <ele>64.4</ele>
        <time>2025-10-26T14:12:23Z</time>
      </trkpt>
      <trkpt lat="43.49016" lon="6.66216">
        <ele>64.4</ele>
        <time>2025-10-26T14:12:24Z</time>
      </trkpt>
      <trkpt lat="43.49017" lon="6.66215">
        <ele>64.4</ele>
        <time>2025-10-26T14:12:25Z</time>
      </trkpt>
      <trkpt lat="43.49017" lon="6.66213">
        <ele>64.5</ele>
        <time>2025-10-26T14:12:26Z</time>
      </trkpt>
      <trkpt lat="43.49018" lon="6.66211">
        <ele>64.5</ele>
        <time>2025-10-26T14:12:27Z</time>
      </trkpt>
      <trkpt lat="43.49018" lon="6.6621">
        <ele>64.4</ele>
        <time>2025-10-26T14:12:28Z</time>
      </trkpt>
      <trkpt lat="43.49019" lon="6.66208">
        <ele>64.3</ele>
        <time>2025-10-26T14:12:29Z</time>
      </trkpt>
      <trkpt lat="43.49019" lon="6.66207">
        <ele>64.3</ele>
        <time>2025-10-26T14:12:30Z</time>
      </trkpt>
      <trkpt lat="43.49019" lon="6.66206">
        <ele>64.2</ele>
        <time>2025-10-26T14:12:31Z</time>
      </trkpt>
      <trkpt lat="43.4902" lon="6.66204">
        <ele>64.3</ele>
        <time>2025-10-26T14:12:32Z</time>
      </trkpt>
      <trkpt lat="43.4902" lon="6.66203">
        <ele>64.3</ele>
        <time>2025-10-26T14:12:33Z</time>
      </trkpt>
      <trkpt lat="43.49021" lon="6.66201">
        <ele>64.3</ele>
        <time>2025-10-26T14:12:34Z</time>
      </trkpt>
      <trkpt lat="43.49021" lon="6.662">
        <ele>64.3</ele>
        <time>2025-10-26T14:12:35Z</time>
      </trkpt>
      <trkpt lat="43.49022" lon="6.66199">
        <ele>64.3</ele>
        <time>2025-10-26T14:12:36Z</time>
      </trkpt>
      <trkpt lat="43.49023" lon="6.66198">
        <ele>64.2</ele>
        <time>2025-10-26T14:12:37Z</time>
      </trkpt>
      <trkpt lat="43.49024" lon="6.66197">
        <ele>64</ele>
        <time>2025-10-26T14:12:38Z</time>
      </trkpt>
      <trkpt lat="43.49025" lon="6.66196">
        <ele>64.1</ele>
        <time>2025-10-26T14:12:39Z</time>
      </trkpt>
      <trkpt lat="43.49025" lon="6.66196">
        <ele>64.2</ele>
        <time>2025-10-26T14:12:40Z</time>
      </trkpt>
      <trkpt lat="43.49026" lon="6.66194">
        <ele>64.3</ele>
        <time>2025-10-26T14:12:41Z</time>
      </trkpt>
      <trkpt lat="43.49027" lon="6.66193">
        <ele>64.3</ele>
        <time>2025-10-26T14:12:42Z</time>
      </trkpt>
      <trkpt lat="43.49028" lon="6.66192">
        <ele>64.3</ele>
        <time>2025-10-26T14:12:43Z</time>
      </trkpt>
      <trkpt lat="43.49029" lon="6.66191">
        <ele>64.4</ele>
        <time>2025-10-26T14:12:44Z</time>
      </trkpt>
      <trkpt lat="43.4903" lon="6.6619">
        <ele>64.4</ele>
        <time>2025-10-26T14:12:45Z</time>
      </trkpt>
      <trkpt lat="43.49031" lon="6.66189">
        <ele>64.4</ele>
        <time>2025-10-26T14:12:46Z</time>
      </trkpt>
      <trkpt lat="43.49031" lon="6.66188">
        <ele>64.4</ele>
        <time>2025-10-26T14:12:47Z</time>
      </trkpt>
      <trkpt lat="43.49032" lon="6.66188">
        <ele>64.4</ele>
        <time>2025-10-26T14:12:48Z</time>
      </trkpt>
      <trkpt lat="43.49033" lon="6.66187">
        <ele>64.3</ele>
        <time>2025-10-26T14:12:49Z</time>
      </trkpt>
      <trkpt lat="43.49034" lon="6.66186">
        <ele>64.3</ele>
        <time>2025-10-26T14:12:50Z</time>
      </trkpt>
      <trkpt lat="43.49035" lon="6.66185">
        <ele>64.3</ele>
        <time>2025-10-26T14:12:51Z</time>
      </trkpt>
      <trkpt lat="43.49036" lon="6.66184">
        <ele>64.3</ele>
        <time>2025-10-26T14:12:52Z</time>
      </trkpt>
      <trkpt lat="43.49038" lon="6.66183">
        <ele>64.2</ele>
        <time>2025-10-26T14:12:53Z</time>
      </trkpt>
      <trkpt lat="43.49039" lon="6.66182">
        <ele>64.2</ele>
        <time>2025-10-26T14:12:54Z</time>
      </trkpt>
      <trkpt lat="43.4904" lon="6.66181">
        <ele>64.1</ele>
        <time>2025-10-26T14:12:55Z</time>
      </trkpt>
      <trkpt lat="43.49041" lon="6.6618">
        <ele>64.1</ele>
        <time>2025-10-26T14:12:56Z</time>
      </trkpt>
      <trkpt lat="43.49042" lon="6.66179">
        <ele>64</ele>
        <time>2025-10-26T14:12:57Z</time>
      </trkpt>
      <trkpt lat="43.49043" lon="6.66177">
        <ele>63.9</ele>
        <time>2025-10-26T14:12:58Z</time>
      </trkpt>
      <trkpt lat="43.49044" lon="6.66176">
        <ele>63.8</ele>
        <time>2025-10-26T14:12:59Z</time>
      </trkpt>
      <trkpt lat="43.49044" lon="6.66175">
        <ele>63.6</ele>
        <time>2025-10-26T14:13:00Z</time>
      </trkpt>
      <trkpt lat="43.49045" lon="6.66174">
        <ele>63.5</ele>
        <time>2025-10-26T14:13:01Z</time>
      </trkpt>
      <trkpt lat="43.49046" lon="6.66172">
        <ele>63.3</ele>
        <time>2025-10-26T14:13:02Z</time>
      </trkpt>
      <trkpt lat="43.49046" lon="6.66171">
        <ele>63.4</ele>
        <time>2025-10-26T14:13:03Z</time>
      </trkpt>
      <trkpt lat="43.49046" lon="6.66169">
        <ele>63.4</ele>
        <time>2025-10-26T14:13:04Z</time>
      </trkpt>
      <trkpt lat="43.49047" lon="6.66167">
        <ele>63.4</ele>
        <time>2025-10-26T14:13:05Z</time>
      </trkpt>
      <trkpt lat="43.49047" lon="6.66166">
        <ele>63.4</ele>
        <time>2025-10-26T14:13:06Z</time>
      </trkpt>
      <trkpt lat="43.49048" lon="6.66165">
        <ele>63.5</ele>
        <time>2025-10-26T14:13:07Z</time>
      </trkpt>
      <trkpt lat="43.49049" lon="6.66163">
        <ele>63.6</ele>
        <time>2025-10-26T14:13:08Z</time>
      </trkpt>
      <trkpt lat="43.49049" lon="6.66162">
        <ele>63.6</ele>
        <time>2025-10-26T14:13:09Z</time>
      </trkpt>
      <trkpt lat="43.4905" lon="6.6616">
        <ele>63.7</ele>
        <time>2025-10-26T14:13:10Z</time>
      </trkpt>
      <trkpt lat="43.49051" lon="6.66159">
        <ele>63.7</ele>
        <time>2025-10-26T14:13:11Z</time>
      </trkpt>
      <trkpt lat="43.49051" lon="6.66157">
        <ele>63.7</ele>
        <time>2025-10-26T14:13:12Z</time>
      </trkpt>
      <trkpt lat="43.49051" lon="6.66155">
        <ele>63.8</ele>
        <time>2025-10-26T14:13:13Z</time>
      </trkpt>
      <trkpt lat="43.49052" lon="6.66154">
        <ele>63.9</ele>
        <time>2025-10-26T14:13:14Z</time>
      </trkpt>
      <trkpt lat="43.49053" lon="6.66153">
        <ele>64</ele>
        <time>2025-10-26T14:13:15Z</time>
      </trkpt>
      <trkpt lat="43.49053" lon="6.66151">
        <ele>64.1</ele>
        <time>2025-10-26T14:13:16Z</time>
      </trkpt>
      <trkpt lat="43.49054" lon="6.6615">
        <ele>64.2</ele>
        <time>2025-10-26T14:13:17Z</time>
      </trkpt>
      <trkpt lat="43.49054" lon="6.66148">
        <ele>64.3</ele>
        <time>2025-10-26T14:13:18Z</time>
      </trkpt>
      <trkpt lat="43.49054" lon="6.66147">
        <ele>64.5</ele>
        <time>2025-10-26T14:13:19Z</time>
      </trkpt>
      <trkpt lat="43.49054" lon="6.66145">
        <ele>64.6</ele>
        <time>2025-10-26T14:13:20Z</time>
      </trkpt>
      <trkpt lat="43.49055" lon="6.66144">
        <ele>64.7</ele>
        <time>2025-10-26T14:13:21Z</time>
      </trkpt>
      <trkpt lat="43.49055" lon="6.66142">
        <ele>64.7</ele>
        <time>2025-10-26T14:13:22Z</time>
      </trkpt>
      <trkpt lat="43.49056" lon="6.66141">
        <ele>64.9</ele>
        <time>2025-10-26T14:13:23Z</time>
      </trkpt>
      <trkpt lat="43.49057" lon="6.66139">
        <ele>65</ele>
        <time>2025-10-26T14:13:24Z</time>
      </trkpt>
      <trkpt lat="43.49058" lon="6.66138">
        <ele>65.1</ele>
        <time>2025-10-26T14:13:25Z</time>
      </trkpt>
      <trkpt lat="43.49058" lon="6.66136">
        <ele>65.2</ele>
        <time>2025-10-26T14:13:26Z</time>
      </trkpt>
      <trkpt lat="43.49059" lon="6.66135">
        <ele>65.3</ele>
        <time>2025-10-26T14:13:27Z</time>
      </trkpt>
      <trkpt lat="43.49059" lon="6.66134">
        <ele>65.4</ele>
        <time>2025-10-26T14:13:28Z</time>
      </trkpt>
      <trkpt lat="43.4906" lon="6.66132">
        <ele>65.4</ele>
        <time>2025-10-26T14:13:29Z</time>
      </trkpt>
      <trkpt lat="43.4906" lon="6.66131">
        <ele>65.5</ele>
        <time>2025-10-26T14:13:30Z</time>
      </trkpt>
      <trkpt lat="43.49061" lon="6.66129">
        <ele>65.6</ele>
        <time>2025-10-26T14:13:31Z</time>
      </trkpt>
      <trkpt lat="43.49062" lon="6.66128">
        <ele>65.7</ele>
        <time>2025-10-26T14:13:32Z</time>
      </trkpt>
      <trkpt lat="43.49062" lon="6.66127">
        <ele>65.8</ele>
        <time>2025-10-26T14:13:33Z</time>
      </trkpt>
      <trkpt lat="43.49063" lon="6.66125">
        <ele>65.9</ele>
        <time>2025-10-26T14:13:34Z</time>
      </trkpt>
      <trkpt lat="43.49063" lon="6.66124">
        <ele>65.9</ele>
        <time>2025-10-26T14:13:35Z</time>
      </trkpt>
      <trkpt lat="43.49064" lon="6.66123">
        <ele>66</ele>
        <time>2025-10-26T14:13:36Z</time>
      </trkpt>
      <trkpt lat="43.49065" lon="6.66121">
        <ele>66</ele>
        <time>2025-10-26T14:13:37Z</time>
      </trkpt>
      <trkpt lat="43.49066" lon="6.6612">
        <ele>66.2</ele>
        <time>2025-10-26T14:13:38Z</time>
      </trkpt>
      <trkpt lat="43.49066" lon="6.66118">
        <ele>66.2</ele>
        <time>2025-10-26T14:13:39Z</time>
      </trkpt>
      <trkpt lat="43.49067" lon="6.66116">
        <ele>66.2</ele>
        <time>2025-10-26T14:13:40Z</time>
      </trkpt>
      <trkpt lat="43.49068" lon="6.66114">
        <ele>66.3</ele>
        <time>2025-10-26T14:13:41Z</time>
      </trkpt>
      <trkpt lat="43.49068" lon="6.66112">
        <ele>66.2</ele>
        <time>2025-10-26T14:13:42Z</time>
      </trkpt>
      <trkpt lat="43.49069" lon="6.66111">
        <ele>66.2</ele>
        <time>2025-10-26T14:13:43Z</time>
      </trkpt>
      <trkpt lat="43.4907" lon="6.6611">
        <ele>66.1</ele>
        <time>2025-10-26T14:13:44Z</time>
      </trkpt>
      <trkpt lat="43.4907" lon="6.66108">
        <ele>66</ele>
        <time>2025-10-26T14:13:45Z</time>
      </trkpt>
      <trkpt lat="43.49071" lon="6.66107">
        <ele>66</ele>
        <time>2025-10-26T14:13:46Z</time>
      </trkpt>
      <trkpt lat="43.49071" lon="6.66105">
        <ele>65.8</ele>
        <time>2025-10-26T14:13:47Z</time>
      </trkpt>
      <trkpt lat="43.49072" lon="6.66104">
        <ele>65.7</ele>
        <time>2025-10-26T14:13:48Z</time>
      </trkpt>
      <trkpt lat="43.49073" lon="6.66102">
        <ele>65.5</ele>
        <time>2025-10-26T14:13:49Z</time>
      </trkpt>
      <trkpt lat="43.49073" lon="6.66101">
        <ele>65.3</ele>
        <time>2025-10-26T14:13:50Z</time>
      </trkpt>
      <trkpt lat="43.49074" lon="6.661">
        <ele>65.2</ele>
        <time>2025-10-26T14:13:51Z</time>
      </trkpt>
      <trkpt lat="43.49074" lon="6.66099">
        <ele>65.1</ele>
        <time>2025-10-26T14:13:52Z</time>
      </trkpt>
      <trkpt lat="43.49075" lon="6.66098">
        <ele>64.9</ele>
        <time>2025-10-26T14:13:53Z</time>
      </trkpt>
      <trkpt lat="43.49076" lon="6.66096">
        <ele>64.8</ele>
        <time>2025-10-26T14:13:54Z</time>
      </trkpt>
      <trkpt lat="43.49077" lon="6.66095">
        <ele>64.8</ele>
        <time>2025-10-26T14:13:55Z</time>
      </trkpt>
      <trkpt lat="43.49078" lon="6.66094">
        <ele>64.8</ele>
        <time>2025-10-26T14:13:56Z</time>
      </trkpt>
      <trkpt lat="43.49079" lon="6.66092">
        <ele>64.7</ele>
        <time>2025-10-26T14:13:57Z</time>
      </trkpt>
      <trkpt lat="43.4908" lon="6.66091">
        <ele>64.7</ele>
        <time>2025-10-26T14:13:58Z</time>
      </trkpt>
      <trkpt lat="43.49081" lon="6.6609">
        <ele>64.7</ele>
        <time>2025-10-26T14:13:59Z</time>
      </trkpt>
      <trkpt lat="43.49081" lon="6.66088">
        <ele>64.6</ele>
        <time>2025-10-26T14:14:00Z</time>
      </trkpt>
      <trkpt lat="43.49082" lon="6.66087">
        <ele>64.5</ele>
        <time>2025-10-26T14:14:01Z</time>
      </trkpt>
      <trkpt lat="43.49083" lon="6.66086">
        <ele>64.4</ele>
        <time>2025-10-26T14:14:02Z</time>
      </trkpt>
      <trkpt lat="43.49084" lon="6.66084">
        <ele>64.3</ele>
        <time>2025-10-26T14:14:03Z</time>
      </trkpt>
      <trkpt lat="43.49084" lon="6.66083">
        <ele>64.1</ele>
        <time>2025-10-26T14:14:04Z</time>
      </trkpt>
      <trkpt lat="43.49085" lon="6.66081">
        <ele>63.9</ele>
        <time>2025-10-26T14:14:05Z</time>
      </trkpt>
      <trkpt lat="43.49086" lon="6.6608">
        <ele>63.7</ele>
        <time>2025-10-26T14:14:06Z</time>
      </trkpt>
      <trkpt lat="43.49087" lon="6.66079">
        <ele>63.6</ele>
        <time>2025-10-26T14:14:07Z</time>
      </trkpt>
      <trkpt lat="43.49087" lon="6.66077">
        <ele>63.5</ele>
        <time>2025-10-26T14:14:08Z</time>
      </trkpt>
      <trkpt lat="43.49088" lon="6.66076">
        <ele>63.4</ele>
        <time>2025-10-26T14:14:09Z</time>
      </trkpt>
      <trkpt lat="43.49089" lon="6.66075">
        <ele>63.4</ele>
        <time>2025-10-26T14:14:10Z</time>
      </trkpt>
      <trkpt lat="43.4909" lon="6.66073">
        <ele>63.4</ele>
        <time>2025-10-26T14:14:11Z</time>
      </trkpt>
      <trkpt lat="43.4909" lon="6.66072">
        <ele>63.2</ele>
        <time>2025-10-26T14:14:12Z</time>
      </trkpt>
      <trkpt lat="43.49091" lon="6.6607">
        <ele>63.2</ele>
        <time>2025-10-26T14:14:13Z</time>
      </trkpt>
      <trkpt lat="43.49091" lon="6.66068">
        <ele>63.1</ele>
        <time>2025-10-26T14:14:14Z</time>
      </trkpt>
      <trkpt lat="43.49092" lon="6.66067">
        <ele>63</ele>
        <time>2025-10-26T14:14:15Z</time>
      </trkpt>
      <trkpt lat="43.49092" lon="6.66066">
        <ele>63</ele>
        <time>2025-10-26T14:14:16Z</time>
      </trkpt>
      <trkpt lat="43.49093" lon="6.66064">
        <ele>62.9</ele>
        <time>2025-10-26T14:14:17Z</time>
      </trkpt>
      <trkpt lat="43.49093" lon="6.66063">
        <ele>62.7</ele>
        <time>2025-10-26T14:14:18Z</time>
      </trkpt>
      <trkpt lat="43.49094" lon="6.66062">
        <ele>62.6</ele>
        <time>2025-10-26T14:14:19Z</time>
      </trkpt>
      <trkpt lat="43.49094" lon="6.6606">
        <ele>62.5</ele>
        <time>2025-10-26T14:14:20Z</time>
      </trkpt>
      <trkpt lat="43.49094" lon="6.66058">
        <ele>62.4</ele>
        <time>2025-10-26T14:14:21Z</time>
      </trkpt>
      <trkpt lat="43.49094" lon="6.66057">
        <ele>62.2</ele>
        <time>2025-10-26T14:14:22Z</time>
      </trkpt>
      <trkpt lat="43.49094" lon="6.66055">
        <ele>62.2</ele>
        <time>2025-10-26T14:14:23Z</time>
      </trkpt>
      <trkpt lat="43.49094" lon="6.66054">
        <ele>62.1</ele>
        <time>2025-10-26T14:14:24Z</time>
      </trkpt>
      <trkpt lat="43.49095" lon="6.66052">
        <ele>62.1</ele>
        <time>2025-10-26T14:14:25Z</time>
      </trkpt>
      <trkpt lat="43.49095" lon="6.66051">
        <ele>62.1</ele>
        <time>2025-10-26T14:14:26Z</time>
      </trkpt>
      <trkpt lat="43.49094" lon="6.6605">
        <ele>62.1</ele>
        <time>2025-10-26T14:14:27Z</time>
      </trkpt>
      <trkpt lat="43.49094" lon="6.66048">
        <ele>62.3</ele>
        <time>2025-10-26T14:14:28Z</time>
      </trkpt>
      <trkpt lat="43.49094" lon="6.66046">
        <ele>62.4</ele>
        <time>2025-10-26T14:14:29Z</time>
      </trkpt>
      <trkpt lat="43.49094" lon="6.66045">
        <ele>62.5</ele>
        <time>2025-10-26T14:14:30Z</time>
      </trkpt>
      <trkpt lat="43.49094" lon="6.66044">
        <ele>62.7</ele>
        <time>2025-10-26T14:14:31Z</time>
      </trkpt>
      <trkpt lat="43.49094" lon="6.66043">
        <ele>63.1</ele>
        <time>2025-10-26T14:14:32Z</time>
      </trkpt>
      <trkpt lat="43.49094" lon="6.66042">
        <ele>63.4</ele>
        <time>2025-10-26T14:14:33Z</time>
      </trkpt>
      <trkpt lat="43.49093" lon="6.66041">
        <ele>63.6</ele>
        <time>2025-10-26T14:14:34Z</time>
      </trkpt>
      <trkpt lat="43.49093" lon="6.66039">
        <ele>63.7</ele>
        <time>2025-10-26T14:14:35Z</time>
      </trkpt>
      <trkpt lat="43.49094" lon="6.66038">
        <ele>63.9</ele>
        <time>2025-10-26T14:14:36Z</time>
      </trkpt>
      <trkpt lat="43.49094" lon="6.66036">
        <ele>64</ele>
        <time>2025-10-26T14:14:37Z</time>
      </trkpt>
      <trkpt lat="43.49094" lon="6.66035">
        <ele>64.1</ele>
        <time>2025-10-26T14:14:38Z</time>
      </trkpt>
      <trkpt lat="43.49093" lon="6.66034">
        <ele>64.2</ele>
        <time>2025-10-26T14:14:39Z</time>
      </trkpt>
      <trkpt lat="43.49093" lon="6.66032">
        <ele>64.2</ele>
        <time>2025-10-26T14:14:40Z</time>
      </trkpt>
      <trkpt lat="43.49093" lon="6.66031">
        <ele>64.2</ele>
        <time>2025-10-26T14:14:41Z</time>
      </trkpt>
      <trkpt lat="43.49093" lon="6.6603">
        <ele>64.4</ele>
        <time>2025-10-26T14:14:42Z</time>
      </trkpt>
      <trkpt lat="43.49092" lon="6.66028">
        <ele>64.5</ele>
        <time>2025-10-26T14:14:43Z</time>
      </trkpt>
      <trkpt lat="43.49092" lon="6.66027">
        <ele>64.7</ele>
        <time>2025-10-26T14:14:44Z</time>
      </trkpt>
      <trkpt lat="43.49091" lon="6.66026">
        <ele>64.8</ele>
        <time>2025-10-26T14:14:45Z</time>
      </trkpt>
      <trkpt lat="43.4909" lon="6.66024">
        <ele>64.9</ele>
        <time>2025-10-26T14:14:46Z</time>
      </trkpt>
      <trkpt lat="43.4909" lon="6.66023">
        <ele>65</ele>
        <time>2025-10-26T14:14:47Z</time>
      </trkpt>
      <trkpt lat="43.49089" lon="6.66022">
        <ele>65</ele>
        <time>2025-10-26T14:14:48Z</time>
      </trkpt>
      <trkpt lat="43.49088" lon="6.66021">
        <ele>65.1</ele>
        <time>2025-10-26T14:14:49Z</time>
      </trkpt>
      <trkpt lat="43.49087" lon="6.66021">
        <ele>65.1</ele>
        <time>2025-10-26T14:14:50Z</time>
      </trkpt>
      <trkpt lat="43.49087" lon="6.66019">
        <ele>65.3</ele>
        <time>2025-10-26T14:14:51Z</time>
      </trkpt>
      <trkpt lat="43.49086" lon="6.66019">
        <ele>65.3</ele>
        <time>2025-10-26T14:14:52Z</time>
      </trkpt>
      <trkpt lat="43.49085" lon="6.66018">
        <ele>65.4</ele>
        <time>2025-10-26T14:14:53Z</time>
      </trkpt>
      <trkpt lat="43.49085" lon="6.66017">
        <ele>65.5</ele>
        <time>2025-10-26T14:14:54Z</time>
      </trkpt>
      <trkpt lat="43.49085" lon="6.66016">
        <ele>65.6</ele>
        <time>2025-10-26T14:14:55Z</time>
      </trkpt>
      <trkpt lat="43.49084" lon="6.66015">
        <ele>65.6</ele>
        <time>2025-10-26T14:14:56Z</time>
      </trkpt>
      <trkpt lat="43.49084" lon="6.66014">
        <ele>65.7</ele>
        <time>2025-10-26T14:14:57Z</time>
      </trkpt>
      <trkpt lat="43.49083" lon="6.66013">
        <ele>65.7</ele>
        <time>2025-10-26T14:14:58Z</time>
      </trkpt>
      <trkpt lat="43.49083" lon="6.66012">
        <ele>65.8</ele>
        <time>2025-10-26T14:14:59Z</time>
      </trkpt>
      <trkpt lat="43.49082" lon="6.66011">
        <ele>65.8</ele>
        <time>2025-10-26T14:15:00Z</time>
      </trkpt>
      <trkpt lat="43.49082" lon="6.6601">
        <ele>65.8</ele>
        <time>2025-10-26T14:15:01Z</time>
      </trkpt>
      <trkpt lat="43.49081" lon="6.66009">
        <ele>65.9</ele>
        <time>2025-10-26T14:15:02Z</time>
      </trkpt>
      <trkpt lat="43.49081" lon="6.66008">
        <ele>65.9</ele>
        <time>2025-10-26T14:15:03Z</time>
      </trkpt>
      <trkpt lat="43.4908" lon="6.66007">
        <ele>65.9</ele>
        <time>2025-10-26T14:15:04Z</time>
      </trkpt>
      <trkpt lat="43.49079" lon="6.66006">
        <ele>65.9</ele>
        <time>2025-10-26T14:15:05Z</time>
      </trkpt>
      <trkpt lat="43.49079" lon="6.66004">
        <ele>66</ele>
        <time>2025-10-26T14:15:06Z</time>
      </trkpt>
      <trkpt lat="43.49078" lon="6.66003">
        <ele>66</ele>
        <time>2025-10-26T14:15:07Z</time>
      </trkpt>
      <trkpt lat="43.49076" lon="6.66003">
        <ele>66.1</ele>
        <time>2025-10-26T14:15:08Z</time>
      </trkpt>
      <trkpt lat="43.49076" lon="6.66002">
        <ele>66.1</ele>
        <time>2025-10-26T14:15:09Z</time>
      </trkpt>
      <trkpt lat="43.49075" lon="6.66001">
        <ele>66.1</ele>
        <time>2025-10-26T14:15:10Z</time>
      </trkpt>
      <trkpt lat="43.49075" lon="6.66">
        <ele>66.2</ele>
        <time>2025-10-26T14:15:11Z</time>
      </trkpt>
      <trkpt lat="43.49074" lon="6.65999">
        <ele>66.2</ele>
        <time>2025-10-26T14:15:12Z</time>
      </trkpt>
      <trkpt lat="43.49073" lon="6.65998">
        <ele>66.2</ele>
        <time>2025-10-26T14:15:13Z</time>
      </trkpt>
      <trkpt lat="43.49072" lon="6.65997">
        <ele>66.2</ele>
        <time>2025-10-26T14:15:14Z</time>
      </trkpt>
      <trkpt lat="43.49071" lon="6.65996">
        <ele>66.2</ele>
        <time>2025-10-26T14:15:15Z</time>
      </trkpt>
      <trkpt lat="43.49071" lon="6.65995">
        <ele>66.2</ele>
        <time>2025-10-26T14:15:16Z</time>
      </trkpt>
      <trkpt lat="43.49071" lon="6.65994">
        <ele>66.2</ele>
        <time>2025-10-26T14:15:17Z</time>
      </trkpt>
      <trkpt lat="43.4907" lon="6.65993">
        <ele>66.3</ele>
        <time>2025-10-26T14:15:18Z</time>
      </trkpt>
      <trkpt lat="43.49069" lon="6.65991">
        <ele>66.3</ele>
        <time>2025-10-26T14:15:19Z</time>
      </trkpt>
      <trkpt lat="43.49069" lon="6.6599">
        <ele>66.3</ele>
        <time>2025-10-26T14:15:20Z</time>
      </trkpt>
      <trkpt lat="43.49068" lon="6.65989">
        <ele>66.4</ele>
        <time>2025-10-26T14:15:21Z</time>
      </trkpt>
      <trkpt lat="43.49067" lon="6.65987">
        <ele>66.4</ele>
        <time>2025-10-26T14:15:22Z</time>
      </trkpt>
      <trkpt lat="43.49066" lon="6.65986">
        <ele>66.4</ele>
        <time>2025-10-26T14:15:23Z</time>
      </trkpt>
      <trkpt lat="43.49066" lon="6.65984">
        <ele>66.6</ele>
        <time>2025-10-26T14:15:24Z</time>
      </trkpt>
      <trkpt lat="43.49065" lon="6.65982">
        <ele>66.5</ele>
        <time>2025-10-26T14:15:25Z</time>
      </trkpt>
      <trkpt lat="43.49065" lon="6.65981">
        <ele>66.6</ele>
        <time>2025-10-26T14:15:26Z</time>
      </trkpt>
      <trkpt lat="43.49064" lon="6.6598">
        <ele>66.5</ele>
        <time>2025-10-26T14:15:27Z</time>
      </trkpt>
      <trkpt lat="43.49064" lon="6.65978">
        <ele>66.5</ele>
        <time>2025-10-26T14:15:28Z</time>
      </trkpt>
      <trkpt lat="43.49063" lon="6.65977">
        <ele>66.5</ele>
        <time>2025-10-26T14:15:29Z</time>
      </trkpt>
      <trkpt lat="43.49063" lon="6.65975">
        <ele>66.5</ele>
        <time>2025-10-26T14:15:30Z</time>
      </trkpt>
      <trkpt lat="43.49063" lon="6.65974">
        <ele>66.5</ele>
        <time>2025-10-26T14:15:31Z</time>
      </trkpt>
      <trkpt lat="43.49063" lon="6.65972">
        <ele>66.6</ele>
        <time>2025-10-26T14:15:32Z</time>
      </trkpt>
      <trkpt lat="43.49063" lon="6.6597">
        <ele>66.6</ele>
        <time>2025-10-26T14:15:33Z</time>
      </trkpt>
      <trkpt lat="43.49062" lon="6.65968">
        <ele>66.8</ele>
        <time>2025-10-26T14:15:34Z</time>
      </trkpt>
      <trkpt lat="43.49062" lon="6.65967">
        <ele>67.1</ele>
        <time>2025-10-26T14:15:35Z</time>
      </trkpt>
      <trkpt lat="43.49062" lon="6.65965">
        <ele>67.3</ele>
        <time>2025-10-26T14:15:36Z</time>
      </trkpt>
      <trkpt lat="43.49061" lon="6.65963">
        <ele>67.3</ele>
        <time>2025-10-26T14:15:37Z</time>
      </trkpt>
      <trkpt lat="43.49061" lon="6.65962">
        <ele>67.3</ele>
        <time>2025-10-26T14:15:38Z</time>
      </trkpt>
      <trkpt lat="43.49061" lon="6.65961">
        <ele>67.1</ele>
        <time>2025-10-26T14:15:39Z</time>
      </trkpt>
      <trkpt lat="43.4906" lon="6.65959">
        <ele>67</ele>
        <time>2025-10-26T14:15:40Z</time>
      </trkpt>
      <trkpt lat="43.4906" lon="6.65958">
        <ele>67</ele>
        <time>2025-10-26T14:15:41Z</time>
      </trkpt>
      <trkpt lat="43.4906" lon="6.65956">
        <ele>67.1</ele>
        <time>2025-10-26T14:15:42Z</time>
      </trkpt>
      <trkpt lat="43.49059" lon="6.65955">
        <ele>67.1</ele>
        <time>2025-10-26T14:15:43Z</time>
      </trkpt>
      <trkpt lat="43.49059" lon="6.65953">
        <ele>67</ele>
        <time>2025-10-26T14:15:44Z</time>
      </trkpt>
      <trkpt lat="43.49058" lon="6.65951">
        <ele>67</ele>
        <time>2025-10-26T14:15:45Z</time>
      </trkpt>
      <trkpt lat="43.49058" lon="6.65949">
        <ele>66.8</ele>
        <time>2025-10-26T14:15:46Z</time>
      </trkpt>
      <trkpt lat="43.49057" lon="6.65948">
        <ele>66.7</ele>
        <time>2025-10-26T14:15:47Z</time>
      </trkpt>
      <trkpt lat="43.49057" lon="6.65947">
        <ele>66.5</ele>
        <time>2025-10-26T14:15:48Z</time>
      </trkpt>
      <trkpt lat="43.49056" lon="6.65946">
        <ele>66.4</ele>
        <time>2025-10-26T14:15:49Z</time>
      </trkpt>
      <trkpt lat="43.49055" lon="6.65944">
        <ele>66.3</ele>
        <time>2025-10-26T14:15:50Z</time>
      </trkpt>
      <trkpt lat="43.49055" lon="6.65943">
        <ele>66.2</ele>
        <time>2025-10-26T14:15:51Z</time>
      </trkpt>
      <trkpt lat="43.49054" lon="6.65942">
        <ele>66</ele>
        <time>2025-10-26T14:15:52Z</time>
      </trkpt>
      <trkpt lat="43.49053" lon="6.65941">
        <ele>65.9</ele>
        <time>2025-10-26T14:15:53Z</time>
      </trkpt>
      <trkpt lat="43.49053" lon="6.6594">
        <ele>65.8</ele>
        <time>2025-10-26T14:15:54Z</time>
      </trkpt>
      <trkpt lat="43.49052" lon="6.65938">
        <ele>65.7</ele>
        <time>2025-10-26T14:15:55Z</time>
      </trkpt>
      <trkpt lat="43.49051" lon="6.65937">
        <ele>65.6</ele>
        <time>2025-10-26T14:15:56Z</time>
      </trkpt>
      <trkpt lat="43.49051" lon="6.65936">
        <ele>65.5</ele>
        <time>2025-10-26T14:15:57Z</time>
      </trkpt>
      <trkpt lat="43.4905" lon="6.65935">
        <ele>65.4</ele>
        <time>2025-10-26T14:15:58Z</time>
      </trkpt>
      <trkpt lat="43.4905" lon="6.65934">
        <ele>65.3</ele>
        <time>2025-10-26T14:15:59Z</time>
      </trkpt>
      <trkpt lat="43.49049" lon="6.65933">
        <ele>65.1</ele>
        <time>2025-10-26T14:16:00Z</time>
      </trkpt>
      <trkpt lat="43.49049" lon="6.65932">
        <ele>65</ele>
        <time>2025-10-26T14:16:01Z</time>
      </trkpt>
      <trkpt lat="43.49048" lon="6.65931">
        <ele>64.9</ele>
        <time>2025-10-26T14:16:02Z</time>
      </trkpt>
      <trkpt lat="43.49048" lon="6.65929">
        <ele>64.7</ele>
        <time>2025-10-26T14:16:03Z</time>
      </trkpt>
      <trkpt lat="43.49047" lon="6.65928">
        <ele>64.6</ele>
        <time>2025-10-26T14:16:04Z</time>
      </trkpt>
      <trkpt lat="43.49047" lon="6.65927">
        <ele>64.5</ele>
        <time>2025-10-26T14:16:05Z</time>
      </trkpt>
      <trkpt lat="43.49046" lon="6.65926">
        <ele>64.4</ele>
        <time>2025-10-26T14:16:06Z</time>
      </trkpt>
      <trkpt lat="43.49046" lon="6.65924">
        <ele>64.2</ele>
        <time>2025-10-26T14:16:07Z</time>
      </trkpt>
      <trkpt lat="43.49046" lon="6.65923">
        <ele>64.1</ele>
        <time>2025-10-26T14:16:08Z</time>
      </trkpt>
      <trkpt lat="43.49046" lon="6.65921">
        <ele>63.9</ele>
        <time>2025-10-26T14:16:09Z</time>
      </trkpt>
      <trkpt lat="43.49045" lon="6.6592">
        <ele>63.7</ele>
        <time>2025-10-26T14:16:10Z</time>
      </trkpt>
      <trkpt lat="43.49045" lon="6.65918">
        <ele>63.5</ele>
        <time>2025-10-26T14:16:11Z</time>
      </trkpt>
      <trkpt lat="43.49044" lon="6.65917">
        <ele>63.4</ele>
        <time>2025-10-26T14:16:12Z</time>
      </trkpt>
      <trkpt lat="43.49044" lon="6.65916">
        <ele>63.2</ele>
        <time>2025-10-26T14:16:13Z</time>
      </trkpt>
      <trkpt lat="43.49043" lon="6.65915">
        <ele>63</ele>
        <time>2025-10-26T14:16:14Z</time>
      </trkpt>
      <trkpt lat="43.49043" lon="6.65913">
        <ele>62.9</ele>
        <time>2025-10-26T14:16:15Z</time>
      </trkpt>
      <trkpt lat="43.49043" lon="6.65911">
        <ele>62.8</ele>
        <time>2025-10-26T14:16:16Z</time>
      </trkpt>
      <trkpt lat="43.49042" lon="6.6591">
        <ele>62.8</ele>
        <time>2025-10-26T14:16:17Z</time>
      </trkpt>
      <trkpt lat="43.49042" lon="6.65909">
        <ele>62.7</ele>
        <time>2025-10-26T14:16:18Z</time>
      </trkpt>
      <trkpt lat="43.49041" lon="6.65908">
        <ele>62.6</ele>
        <time>2025-10-26T14:16:19Z</time>
      </trkpt>
      <trkpt lat="43.4904" lon="6.65906">
        <ele>62.5</ele>
        <time>2025-10-26T14:16:20Z</time>
      </trkpt>
      <trkpt lat="43.4904" lon="6.65905">
        <ele>62.4</ele>
        <time>2025-10-26T14:16:21Z</time>
      </trkpt>
      <trkpt lat="43.49039" lon="6.65904">
        <ele>62.2</ele>
        <time>2025-10-26T14:16:22Z</time>
      </trkpt>
      <trkpt lat="43.49039" lon="6.65902">
        <ele>62.2</ele>
        <time>2025-10-26T14:16:23Z</time>
      </trkpt>
      <trkpt lat="43.49038" lon="6.65901">
        <ele>62.1</ele>
        <time>2025-10-26T14:16:24Z</time>
      </trkpt>
      <trkpt lat="43.49037" lon="6.65899">
        <ele>62.1</ele>
        <time>2025-10-26T14:16:25Z</time>
      </trkpt>
      <trkpt lat="43.49037" lon="6.65898">
        <ele>62</ele>
        <time>2025-10-26T14:16:26Z</time>
      </trkpt>
      <trkpt lat="43.49036" lon="6.65897">
        <ele>62</ele>
        <time>2025-10-26T14:16:27Z</time>
      </trkpt>
      <trkpt lat="43.49035" lon="6.65895">
        <ele>61.8</ele>
        <time>2025-10-26T14:16:28Z</time>
      </trkpt>
      <trkpt lat="43.49034" lon="6.65894">
        <ele>61.6</ele>
        <time>2025-10-26T14:16:29Z</time>
      </trkpt>
      <trkpt lat="43.49033" lon="6.65892">
        <ele>61.6</ele>
        <time>2025-10-26T14:16:30Z</time>
      </trkpt>
      <trkpt lat="43.49032" lon="6.65892">
        <ele>61.6</ele>
        <time>2025-10-26T14:16:31Z</time>
      </trkpt>
      <trkpt lat="43.49032" lon="6.65891">
        <ele>61.6</ele>
        <time>2025-10-26T14:16:32Z</time>
      </trkpt>
      <trkpt lat="43.49031" lon="6.6589">
        <ele>61.5</ele>
        <time>2025-10-26T14:16:33Z</time>
      </trkpt>
      <trkpt lat="43.4903" lon="6.65889">
        <ele>61.4</ele>
        <time>2025-10-26T14:16:34Z</time>
      </trkpt>
      <trkpt lat="43.49029" lon="6.65888">
        <ele>61.4</ele>
        <time>2025-10-26T14:16:35Z</time>
      </trkpt>
      <trkpt lat="43.49028" lon="6.65887">
        <ele>61.4</ele>
        <time>2025-10-26T14:16:36Z</time>
      </trkpt>
      <trkpt lat="43.49027" lon="6.65886">
        <ele>61.4</ele>
        <time>2025-10-26T14:16:37Z</time>
      </trkpt>
      <trkpt lat="43.49026" lon="6.65884">
        <ele>61.4</ele>
        <time>2025-10-26T14:16:38Z</time>
      </trkpt>
      <trkpt lat="43.49025" lon="6.65883">
        <ele>61.3</ele>
        <time>2025-10-26T14:16:39Z</time>
      </trkpt>
      <trkpt lat="43.49024" lon="6.65882">
        <ele>61.3</ele>
        <time>2025-10-26T14:16:40Z</time>
      </trkpt>
      <trkpt lat="43.49023" lon="6.65881">
        <ele>61.2</ele>
        <time>2025-10-26T14:16:41Z</time>
      </trkpt>
      <trkpt lat="43.49022" lon="6.6588">
        <ele>61.1</ele>
        <time>2025-10-26T14:16:42Z</time>
      </trkpt>
      <trkpt lat="43.49022" lon="6.65879">
        <ele>61.1</ele>
        <time>2025-10-26T14:16:43Z</time>
      </trkpt>
      <trkpt lat="43.49021" lon="6.65878">
        <ele>61</ele>
        <time>2025-10-26T14:16:44Z</time>
      </trkpt>
      <trkpt lat="43.4902" lon="6.65877">
        <ele>61</ele>
        <time>2025-10-26T14:16:45Z</time>
      </trkpt>
      <trkpt lat="43.49019" lon="6.65876">
        <ele>61</ele>
        <time>2025-10-26T14:16:46Z</time>
      </trkpt>
      <trkpt lat="43.49018" lon="6.65875">
        <ele>61.1</ele>
        <time>2025-10-26T14:16:47Z</time>
      </trkpt>
      <trkpt lat="43.49018" lon="6.65874">
        <ele>61.1</ele>
        <time>2025-10-26T14:16:48Z</time>
      </trkpt>
      <trkpt lat="43.49018" lon="6.65873">
        <ele>61.1</ele>
        <time>2025-10-26T14:16:49Z</time>
      </trkpt>
      <trkpt lat="43.49017" lon="6.65872">
        <ele>61.2</ele>
        <time>2025-10-26T14:16:50Z</time>
      </trkpt>
      <trkpt lat="43.49016" lon="6.6587">
        <ele>61.2</ele>
        <time>2025-10-26T14:16:51Z</time>
      </trkpt>
      <trkpt lat="43.49015" lon="6.65869">
        <ele>61.1</ele>
        <time>2025-10-26T14:16:52Z</time>
      </trkpt>
      <trkpt lat="43.49014" lon="6.65868">
        <ele>61</ele>
        <time>2025-10-26T14:16:53Z</time>
      </trkpt>
      <trkpt lat="43.49013" lon="6.65866">
        <ele>61</ele>
        <time>2025-10-26T14:16:54Z</time>
      </trkpt>
      <trkpt lat="43.49012" lon="6.65866">
        <ele>60.9</ele>
        <time>2025-10-26T14:16:55Z</time>
      </trkpt>
      <trkpt lat="43.49012" lon="6.65865">
        <ele>60.8</ele>
        <time>2025-10-26T14:16:56Z</time>
      </trkpt>
      <trkpt lat="43.49011" lon="6.65864">
        <ele>60.7</ele>
        <time>2025-10-26T14:16:57Z</time>
      </trkpt>
      <trkpt lat="43.4901" lon="6.65862">
        <ele>60.6</ele>
        <time>2025-10-26T14:16:58Z</time>
      </trkpt>
      <trkpt lat="43.49009" lon="6.65861">
        <ele>60.6</ele>
        <time>2025-10-26T14:16:59Z</time>
      </trkpt>
      <trkpt lat="43.49009" lon="6.6586">
        <ele>60.6</ele>
        <time>2025-10-26T14:17:00Z</time>
      </trkpt>
      <trkpt lat="43.49008" lon="6.65859">
        <ele>60.6</ele>
        <time>2025-10-26T14:17:01Z</time>
      </trkpt>
      <trkpt lat="43.49007" lon="6.65858">
        <ele>60.6</ele>
        <time>2025-10-26T14:17:02Z</time>
      </trkpt>
      <trkpt lat="43.49006" lon="6.65857">
        <ele>60.6</ele>
        <time>2025-10-26T14:17:03Z</time>
      </trkpt>
      <trkpt lat="43.49006" lon="6.65856">
        <ele>60.6</ele>
        <time>2025-10-26T14:17:04Z</time>
      </trkpt>
      <trkpt lat="43.49005" lon="6.65854">
        <ele>60.6</ele>
        <time>2025-10-26T14:17:05Z</time>
      </trkpt>
      <trkpt lat="43.49004" lon="6.65853">
        <ele>60.5</ele>
        <time>2025-10-26T14:17:06Z</time>
      </trkpt>
      <trkpt lat="43.49004" lon="6.65851">
        <ele>60.6</ele>
        <time>2025-10-26T14:17:07Z</time>
      </trkpt>
      <trkpt lat="43.49003" lon="6.6585">
        <ele>60.6</ele>
        <time>2025-10-26T14:17:08Z</time>
      </trkpt>
      <trkpt lat="43.49002" lon="6.65849">
        <ele>60.6</ele>
        <time>2025-10-26T14:17:09Z</time>
      </trkpt>
      <trkpt lat="43.49002" lon="6.65848">
        <ele>60.6</ele>
        <time>2025-10-26T14:17:10Z</time>
      </trkpt>
      <trkpt lat="43.49001" lon="6.65846">
        <ele>60.6</ele>
        <time>2025-10-26T14:17:11Z</time>
      </trkpt>
      <trkpt lat="43.49001" lon="6.65845">
        <ele>60.7</ele>
        <time>2025-10-26T14:17:12Z</time>
      </trkpt>
      <trkpt lat="43.49001" lon="6.65844">
        <ele>60.7</ele>
        <time>2025-10-26T14:17:13Z</time>
      </trkpt>
      <trkpt lat="43.49" lon="6.65842">
        <ele>60.6</ele>
        <time>2025-10-26T14:17:14Z</time>
      </trkpt>
      <trkpt lat="43.49" lon="6.65842">
        <ele>60.7</ele>
        <time>2025-10-26T14:17:15Z</time>
      </trkpt>
      <trkpt lat="43.48999" lon="6.6584">
        <ele>60.7</ele>
        <time>2025-10-26T14:17:16Z</time>
      </trkpt>
      <trkpt lat="43.48999" lon="6.65839">
        <ele>60.6</ele>
        <time>2025-10-26T14:17:17Z</time>
      </trkpt>
      <trkpt lat="43.48999" lon="6.65838">
        <ele>60.6</ele>
        <time>2025-10-26T14:17:18Z</time>
      </trkpt>
      <trkpt lat="43.48999" lon="6.65836">
        <ele>60.5</ele>
        <time>2025-10-26T14:17:19Z</time>
      </trkpt>
      <trkpt lat="43.48999" lon="6.65835">
        <ele>60.4</ele>
        <time>2025-10-26T14:17:20Z</time>
      </trkpt>
      <trkpt lat="43.48999" lon="6.65833">
        <ele>60.2</ele>
        <time>2025-10-26T14:17:21Z</time>
      </trkpt>
      <trkpt lat="43.48999" lon="6.65832">
        <ele>60.1</ele>
        <time>2025-10-26T14:17:22Z</time>
      </trkpt>
      <trkpt lat="43.48998" lon="6.65831">
        <ele>60</ele>
        <time>2025-10-26T14:17:23Z</time>
      </trkpt>
      <trkpt lat="43.48998" lon="6.6583">
        <ele>59.9</ele>
        <time>2025-10-26T14:17:24Z</time>
      </trkpt>
      <trkpt lat="43.48998" lon="6.65829">
        <ele>59.9</ele>
        <time>2025-10-26T14:17:25Z</time>
      </trkpt>
      <trkpt lat="43.48997" lon="6.65827">
        <ele>59.8</ele>
        <time>2025-10-26T14:17:26Z</time>
      </trkpt>
      <trkpt lat="43.48997" lon="6.65826">
        <ele>59.7</ele>
        <time>2025-10-26T14:17:27Z</time>
      </trkpt>
      <trkpt lat="43.48997" lon="6.65825">
        <ele>59.7</ele>
        <time>2025-10-26T14:17:28Z</time>
      </trkpt>
      <trkpt lat="43.48997" lon="6.65823">
        <ele>59.5</ele>
        <time>2025-10-26T14:17:29Z</time>
      </trkpt>
      <trkpt lat="43.48997" lon="6.65822">
        <ele>59.4</ele>
        <time>2025-10-26T14:17:30Z</time>
      </trkpt>
      <trkpt lat="43.48997" lon="6.65821">
        <ele>59.3</ele>
        <time>2025-10-26T14:17:31Z</time>
      </trkpt>
      <trkpt lat="43.48996" lon="6.6582">
        <ele>59.2</ele>
        <time>2025-10-26T14:17:32Z</time>
      </trkpt>
      <trkpt lat="43.48996" lon="6.65818">
        <ele>59.2</ele>
        <time>2025-10-26T14:17:33Z</time>
      </trkpt>
      <trkpt lat="43.48996" lon="6.65817">
        <ele>59</ele>
        <time>2025-10-26T14:17:34Z</time>
      </trkpt>
      <trkpt lat="43.48996" lon="6.65816">
        <ele>58.9</ele>
        <time>2025-10-26T14:17:35Z</time>
      </trkpt>
      <trkpt lat="43.48997" lon="6.65815">
        <ele>58.7</ele>
        <time>2025-10-26T14:17:36Z</time>
      </trkpt>
      <trkpt lat="43.48997" lon="6.65813">
        <ele>58.6</ele>
        <time>2025-10-26T14:17:37Z</time>
      </trkpt>
      <trkpt lat="43.48997" lon="6.65812">
        <ele>58.5</ele>
        <time>2025-10-26T14:17:38Z</time>
      </trkpt>
      <trkpt lat="43.48997" lon="6.65811">
        <ele>58.4</ele>
        <time>2025-10-26T14:17:39Z</time>
      </trkpt>
      <trkpt lat="43.48996" lon="6.65809">
        <ele>58.3</ele>
        <time>2025-10-26T14:17:40Z</time>
      </trkpt>
      <trkpt lat="43.48996" lon="6.65808">
        <ele>58.2</ele>
        <time>2025-10-26T14:17:41Z</time>
      </trkpt>
      <trkpt lat="43.48996" lon="6.65806">
        <ele>58.1</ele>
        <time>2025-10-26T14:17:42Z</time>
      </trkpt>
      <trkpt lat="43.48996" lon="6.65805">
        <ele>57.9</ele>
        <time>2025-10-26T14:17:43Z</time>
      </trkpt>
      <trkpt lat="43.48996" lon="6.65803">
        <ele>57.7</ele>
        <time>2025-10-26T14:17:44Z</time>
      </trkpt>
      <trkpt lat="43.48997" lon="6.65802">
        <ele>57.5</ele>
        <time>2025-10-26T14:17:45Z</time>
      </trkpt>
      <trkpt lat="43.48997" lon="6.658">
        <ele>57.4</ele>
        <time>2025-10-26T14:17:46Z</time>
      </trkpt>
      <trkpt lat="43.48997" lon="6.65798">
        <ele>57.2</ele>
        <time>2025-10-26T14:17:47Z</time>
      </trkpt>
      <trkpt lat="43.48996" lon="6.65797">
        <ele>57</ele>
        <time>2025-10-26T14:17:48Z</time>
      </trkpt>
      <trkpt lat="43.48996" lon="6.65797">
        <ele>56.9</ele>
        <time>2025-10-26T14:17:49Z</time>
      </trkpt>
      <trkpt lat="43.48996" lon="6.65796">
        <ele>56.9</ele>
        <time>2025-10-26T14:17:50Z</time>
      </trkpt>
      <trkpt lat="43.48996" lon="6.65795">
        <ele>56.8</ele>
        <time>2025-10-26T14:17:51Z</time>
      </trkpt>
      <trkpt lat="43.48995" lon="6.65794">
        <ele>56.7</ele>
        <time>2025-10-26T14:17:52Z</time>
      </trkpt>
      <trkpt lat="43.48994" lon="6.65793">
        <ele>56.6</ele>
        <time>2025-10-26T14:17:53Z</time>
      </trkpt>
      <trkpt lat="43.48994" lon="6.65793">
        <ele>56.5</ele>
        <time>2025-10-26T14:17:54Z</time>
      </trkpt>
      <trkpt lat="43.48994" lon="6.65792">
        <ele>56.4</ele>
        <time>2025-10-26T14:17:55Z</time>
      </trkpt>
      <trkpt lat="43.48993" lon="6.65791">
        <ele>56.4</ele>
        <time>2025-10-26T14:17:56Z</time>
      </trkpt>
      <trkpt lat="43.48994" lon="6.6579">
        <ele>56.3</ele>
        <time>2025-10-26T14:17:57Z</time>
      </trkpt>
      <trkpt lat="43.48994" lon="6.65789">
        <ele>56.2</ele>
        <time>2025-10-26T14:17:58Z</time>
      </trkpt>
      <trkpt lat="43.48995" lon="6.65788">
        <ele>56.2</ele>
        <time>2025-10-26T14:17:59Z</time>
      </trkpt>
      <trkpt lat="43.48995" lon="6.65787">
        <ele>56.1</ele>
        <time>2025-10-26T14:18:00Z</time>
      </trkpt>
      <trkpt lat="43.48995" lon="6.65787">
        <ele>56.1</ele>
        <time>2025-10-26T14:18:01Z</time>
      </trkpt>
      <trkpt lat="43.48995" lon="6.65786">
        <ele>56</ele>
        <time>2025-10-26T14:18:02Z</time>
      </trkpt>
      <trkpt lat="43.48995" lon="6.65785">
        <ele>55.9</ele>
        <time>2025-10-26T14:18:03Z</time>
      </trkpt>
      <trkpt lat="43.48996" lon="6.65784">
        <ele>55.9</ele>
        <time>2025-10-26T14:18:04Z</time>
      </trkpt>
      <trkpt lat="43.48996" lon="6.65784">
        <ele>55.8</ele>
        <time>2025-10-26T14:18:05Z</time>
      </trkpt>
      <trkpt lat="43.48996" lon="6.65783">
        <ele>55.7</ele>
        <time>2025-10-26T14:18:06Z</time>
      </trkpt>
      <trkpt lat="43.48996" lon="6.65782">
        <ele>55.7</ele>
        <time>2025-10-26T14:18:07Z</time>
      </trkpt>
      <trkpt lat="43.48997" lon="6.65781">
        <ele>55.6</ele>
        <time>2025-10-26T14:18:08Z</time>
      </trkpt>
      <trkpt lat="43.48997" lon="6.6578">
        <ele>55.4</ele>
        <time>2025-10-26T14:18:09Z</time>
      </trkpt>
      <trkpt lat="43.48997" lon="6.65779">
        <ele>55.3</ele>
        <time>2025-10-26T14:18:10Z</time>
      </trkpt>
      <trkpt lat="43.48998" lon="6.65778">
        <ele>55.2</ele>
        <time>2025-10-26T14:18:11Z</time>
      </trkpt>
      <trkpt lat="43.48998" lon="6.65777">
        <ele>55</ele>
        <time>2025-10-26T14:18:12Z</time>
      </trkpt>
      <trkpt lat="43.48998" lon="6.65776">
        <ele>54.9</ele>
        <time>2025-10-26T14:18:13Z</time>
      </trkpt>
      <trkpt lat="43.48998" lon="6.65776">
        <ele>54.8</ele>
        <time>2025-10-26T14:18:14Z</time>
      </trkpt>
      <trkpt lat="43.48997" lon="6.65774">
        <ele>54.7</ele>
        <time>2025-10-26T14:18:15Z</time>
      </trkpt>
      <trkpt lat="43.48997" lon="6.65773">
        <ele>54.5</ele>
        <time>2025-10-26T14:18:16Z</time>
      </trkpt>
      <trkpt lat="43.48997" lon="6.65772">
        <ele>54.2</ele>
        <time>2025-10-26T14:18:17Z</time>
      </trkpt>
      <trkpt lat="43.48997" lon="6.65771">
        <ele>54.1</ele>
        <time>2025-10-26T14:18:18Z</time>
      </trkpt>
      <trkpt lat="43.48996" lon="6.6577">
        <ele>54</ele>
        <time>2025-10-26T14:18:19Z</time>
      </trkpt>
      <trkpt lat="43.48996" lon="6.65769">
        <ele>53.8</ele>
        <time>2025-10-26T14:18:20Z</time>
      </trkpt>
      <trkpt lat="43.48995" lon="6.65768">
        <ele>53.7</ele>
        <time>2025-10-26T14:18:21Z</time>
      </trkpt>
      <trkpt lat="43.48995" lon="6.65767">
        <ele>53.6</ele>
        <time>2025-10-26T14:18:22Z</time>
      </trkpt>
      <trkpt lat="43.48995" lon="6.65766">
        <ele>53.4</ele>
        <time>2025-10-26T14:18:23Z</time>
      </trkpt>
      <trkpt lat="43.48995" lon="6.65765">
        <ele>53.3</ele>
        <time>2025-10-26T14:18:24Z</time>
      </trkpt>
      <trkpt lat="43.48995" lon="6.65764">
        <ele>53.2</ele>
        <time>2025-10-26T14:18:25Z</time>
      </trkpt>
      <trkpt lat="43.48995" lon="6.65763">
        <ele>53.2</ele>
        <time>2025-10-26T14:18:26Z</time>
      </trkpt>
      <trkpt lat="43.48995" lon="6.65762">
        <ele>53.1</ele>
        <time>2025-10-26T14:18:27Z</time>
      </trkpt>
      <trkpt lat="43.48995" lon="6.65762">
        <ele>53.1</ele>
        <time>2025-10-26T14:18:28Z</time>
      </trkpt>
      <trkpt lat="43.48995" lon="6.65761">
        <ele>53</ele>
        <time>2025-10-26T14:18:29Z</time>
      </trkpt>
      <trkpt lat="43.48994" lon="6.6576">
        <ele>53</ele>
        <time>2025-10-26T14:18:30Z</time>
      </trkpt>
      <trkpt lat="43.48995" lon="6.65759">
        <ele>52.9</ele>
        <time>2025-10-26T14:18:31Z</time>
      </trkpt>
      <trkpt lat="43.48995" lon="6.65757">
        <ele>52.8</ele>
        <time>2025-10-26T14:18:32Z</time>
      </trkpt>
      <trkpt lat="43.48995" lon="6.65756">
        <ele>52.7</ele>
        <time>2025-10-26T14:18:33Z</time>
      </trkpt>
      <trkpt lat="43.48995" lon="6.65755">
        <ele>52.6</ele>
        <time>2025-10-26T14:18:34Z</time>
      </trkpt>
      <trkpt lat="43.48994" lon="6.65754">
        <ele>52.5</ele>
        <time>2025-10-26T14:18:35Z</time>
      </trkpt>
      <trkpt lat="43.48994" lon="6.65753">
        <ele>52.4</ele>
        <time>2025-10-26T14:18:36Z</time>
      </trkpt>
      <trkpt lat="43.48994" lon="6.65751">
        <ele>52.4</ele>
        <time>2025-10-26T14:18:37Z</time>
      </trkpt>
      <trkpt lat="43.48993" lon="6.6575">
        <ele>52.4</ele>
        <time>2025-10-26T14:18:38Z</time>
      </trkpt>
      <trkpt lat="43.48993" lon="6.65749">
        <ele>52.2</ele>
        <time>2025-10-26T14:18:39Z</time>
      </trkpt>
      <trkpt lat="43.48992" lon="6.65749">
        <ele>52.1</ele>
        <time>2025-10-26T14:18:40Z</time>
      </trkpt>
      <trkpt lat="43.48991" lon="6.65749">
        <ele>52.1</ele>
        <time>2025-10-26T14:18:41Z</time>
      </trkpt>
      <trkpt lat="43.48991" lon="6.65749">
        <ele>52.1</ele>
        <time>2025-10-26T14:18:42Z</time>
      </trkpt>
      <trkpt lat="43.4899" lon="6.65749">
        <ele>52.1</ele>
        <time>2025-10-26T14:18:43Z</time>
      </trkpt>
      <trkpt lat="43.48989" lon="6.65749">
        <ele>52</ele>
        <time>2025-10-26T14:18:44Z</time>
      </trkpt>
      <trkpt lat="43.48989" lon="6.65748">
        <ele>52</ele>
        <time>2025-10-26T14:18:45Z</time>
      </trkpt>
      <trkpt lat="43.48988" lon="6.65747">
        <ele>52.1</ele>
        <time>2025-10-26T14:18:46Z</time>
      </trkpt>
      <trkpt lat="43.48987" lon="6.65746">
        <ele>52.1</ele>
        <time>2025-10-26T14:18:47Z</time>
      </trkpt>
      <trkpt lat="43.48986" lon="6.65746">
        <ele>52.1</ele>
        <time>2025-10-26T14:18:48Z</time>
      </trkpt>
      <trkpt lat="43.48985" lon="6.65746">
        <ele>52.1</ele>
        <time>2025-10-26T14:18:49Z</time>
      </trkpt>
      <trkpt lat="43.48985" lon="6.65745">
        <ele>52.2</ele>
        <time>2025-10-26T14:18:50Z</time>
      </trkpt>
      <trkpt lat="43.48984" lon="6.65745">
        <ele>52.3</ele>
        <time>2025-10-26T14:18:51Z</time>
      </trkpt>
      <trkpt lat="43.48984" lon="6.65744">
        <ele>52.3</ele>
        <time>2025-10-26T14:18:52Z</time>
      </trkpt>
      <trkpt lat="43.48984" lon="6.65743">
        <ele>52.5</ele>
        <time>2025-10-26T14:18:53Z</time>
      </trkpt>
      <trkpt lat="43.48984" lon="6.65742">
        <ele>52.5</ele>
        <time>2025-10-26T14:18:54Z</time>
      </trkpt>
      <trkpt lat="43.48984" lon="6.65741">
        <ele>52.6</ele>
        <time>2025-10-26T14:18:55Z</time>
      </trkpt>
      <trkpt lat="43.48984" lon="6.6574">
        <ele>52.7</ele>
        <time>2025-10-26T14:18:56Z</time>
      </trkpt>
      <trkpt lat="43.48984" lon="6.65738">
        <ele>52.7</ele>
        <time>2025-10-26T14:18:57Z</time>
      </trkpt>
      <trkpt lat="43.48985" lon="6.65737">
        <ele>52.8</ele>
        <time>2025-10-26T14:18:58Z</time>
      </trkpt>
      <trkpt lat="43.48985" lon="6.65736">
        <ele>52.8</ele>
        <time>2025-10-26T14:18:59Z</time>
      </trkpt>
      <trkpt lat="43.48985" lon="6.65734">
        <ele>52.8</ele>
        <time>2025-10-26T14:19:00Z</time>
      </trkpt>
      <trkpt lat="43.48985" lon="6.65733">
        <ele>52.8</ele>
        <time>2025-10-26T14:19:01Z</time>
      </trkpt>
      <trkpt lat="43.48985" lon="6.65732">
        <ele>52.8</ele>
        <time>2025-10-26T14:19:02Z</time>
      </trkpt>
      <trkpt lat="43.48985" lon="6.65731">
        <ele>52.8</ele>
        <time>2025-10-26T14:19:03Z</time>
      </trkpt>
      <trkpt lat="43.48985" lon="6.65729">
        <ele>52.5</ele>
        <time>2025-10-26T14:19:04Z</time>
      </trkpt>
      <trkpt lat="43.48986" lon="6.65728">
        <ele>52.6</ele>
        <time>2025-10-26T14:19:05Z</time>
      </trkpt>
      <trkpt lat="43.48986" lon="6.65727">
        <ele>52.4</ele>
        <time>2025-10-26T14:19:06Z</time>
      </trkpt>
      <trkpt lat="43.48987" lon="6.65727">
        <ele>52.3</ele>
        <time>2025-10-26T14:19:07Z</time>
      </trkpt>
      <trkpt lat="43.48988" lon="6.65726">
        <ele>52.3</ele>
        <time>2025-10-26T14:19:08Z</time>
      </trkpt>
      <trkpt lat="43.48989" lon="6.65726">
        <ele>52.3</ele>
        <time>2025-10-26T14:19:09Z</time>
      </trkpt>
      <trkpt lat="43.4899" lon="6.65724">
        <ele>52.3</ele>
        <time>2025-10-26T14:19:10Z</time>
      </trkpt>
      <trkpt lat="43.4899" lon="6.65723">
        <ele>52.2</ele>
        <time>2025-10-26T14:19:11Z</time>
      </trkpt>
      <trkpt lat="43.48991" lon="6.65722">
        <ele>52.2</ele>
        <time>2025-10-26T14:19:12Z</time>
      </trkpt>
      <trkpt lat="43.48991" lon="6.65721">
        <ele>52.2</ele>
        <time>2025-10-26T14:19:13Z</time>
      </trkpt>
      <trkpt lat="43.48991" lon="6.6572">
        <ele>52</ele>
        <time>2025-10-26T14:19:14Z</time>
      </trkpt>
      <trkpt lat="43.48992" lon="6.65719">
        <ele>51.9</ele>
        <time>2025-10-26T14:19:15Z</time>
      </trkpt>
      <trkpt lat="43.48993" lon="6.65718">
        <ele>51.8</ele>
        <time>2025-10-26T14:19:16Z</time>
      </trkpt>
      <trkpt lat="43.48993" lon="6.65717">
        <ele>51.7</ele>
        <time>2025-10-26T14:19:17Z</time>
      </trkpt>
      <trkpt lat="43.48994" lon="6.65716">
        <ele>51.7</ele>
        <time>2025-10-26T14:19:18Z</time>
      </trkpt>
      <trkpt lat="43.48995" lon="6.65715">
        <ele>51.7</ele>
        <time>2025-10-26T14:19:19Z</time>
      </trkpt>
      <trkpt lat="43.48995" lon="6.65714">
        <ele>51.7</ele>
        <time>2025-10-26T14:19:20Z</time>
      </trkpt>
      <trkpt lat="43.48996" lon="6.65713">
        <ele>51.7</ele>
        <time>2025-10-26T14:19:21Z</time>
      </trkpt>
      <trkpt lat="43.48995" lon="6.65712">
        <ele>51.7</ele>
        <time>2025-10-26T14:19:22Z</time>
      </trkpt>
      <trkpt lat="43.48995" lon="6.65711">
        <ele>51.6</ele>
        <time>2025-10-26T14:19:23Z</time>
      </trkpt>
      <trkpt lat="43.48995" lon="6.65711">
        <ele>51.6</ele>
        <time>2025-10-26T14:19:24Z</time>
      </trkpt>
      <trkpt lat="43.48995" lon="6.6571">
        <ele>51.6</ele>
        <time>2025-10-26T14:19:25Z</time>
      </trkpt>
      <trkpt lat="43.48995" lon="6.65709">
        <ele>51.6</ele>
        <time>2025-10-26T14:19:26Z</time>
      </trkpt>
      <trkpt lat="43.48995" lon="6.65708">
        <ele>51.6</ele>
        <time>2025-10-26T14:19:27Z</time>
      </trkpt>
      <trkpt lat="43.48995" lon="6.65708">
        <ele>51.6</ele>
        <time>2025-10-26T14:19:28Z</time>
      </trkpt>
      <trkpt lat="43.48995" lon="6.65707">
        <ele>51.6</ele>
        <time>2025-10-26T14:19:29Z</time>
      </trkpt>
      <trkpt lat="43.48995" lon="6.65705">
        <ele>51.5</ele>
        <time>2025-10-26T14:19:30Z</time>
      </trkpt>
      <trkpt lat="43.48995" lon="6.65704">
        <ele>51.3</ele>
        <time>2025-10-26T14:19:31Z</time>
      </trkpt>
      <trkpt lat="43.48995" lon="6.65704">
        <ele>51.1</ele>
        <time>2025-10-26T14:19:32Z</time>
      </trkpt>
      <trkpt lat="43.48996" lon="6.65703">
        <ele>51</ele>
        <time>2025-10-26T14:19:33Z</time>
      </trkpt>
      <trkpt lat="43.48996" lon="6.65702">
        <ele>50.9</ele>
        <time>2025-10-26T14:19:34Z</time>
      </trkpt>
      <trkpt lat="43.48996" lon="6.65701">
        <ele>50.8</ele>
        <time>2025-10-26T14:19:35Z</time>
      </trkpt>
      <trkpt lat="43.48995" lon="6.65699">
        <ele>50.7</ele>
        <time>2025-10-26T14:19:36Z</time>
      </trkpt>
      <trkpt lat="43.48995" lon="6.65698">
        <ele>50.5</ele>
        <time>2025-10-26T14:19:37Z</time>
      </trkpt>
      <trkpt lat="43.48995" lon="6.65697">
        <ele>50.4</ele>
        <time>2025-10-26T14:19:38Z</time>
      </trkpt>
      <trkpt lat="43.48995" lon="6.65696">
        <ele>50.1</ele>
        <time>2025-10-26T14:19:39Z</time>
      </trkpt>
      <trkpt lat="43.48994" lon="6.65695">
        <ele>50.1</ele>
        <time>2025-10-26T14:19:40Z</time>
      </trkpt>
      <trkpt lat="43.48994" lon="6.65694">
        <ele>50</ele>
        <time>2025-10-26T14:19:41Z</time>
      </trkpt>
      <trkpt lat="43.48994" lon="6.65693">
        <ele>49.9</ele>
        <time>2025-10-26T14:19:42Z</time>
      </trkpt>
      <trkpt lat="43.48994" lon="6.65692">
        <ele>49.7</ele>
        <time>2025-10-26T14:19:43Z</time>
      </trkpt>
      <trkpt lat="43.48993" lon="6.65691">
        <ele>49.6</ele>
        <time>2025-10-26T14:19:44Z</time>
      </trkpt>
      <trkpt lat="43.48993" lon="6.65691">
        <ele>49.5</ele>
        <time>2025-10-26T14:19:45Z</time>
      </trkpt>
      <trkpt lat="43.48993" lon="6.6569">
        <ele>49.4</ele>
        <time>2025-10-26T14:19:46Z</time>
      </trkpt>
      <trkpt lat="43.48993" lon="6.65689">
        <ele>49.2</ele>
        <time>2025-10-26T14:19:47Z</time>
      </trkpt>
      <trkpt lat="43.48992" lon="6.65689">
        <ele>49.1</ele>
        <time>2025-10-26T14:19:48Z</time>
      </trkpt>
      <trkpt lat="43.48992" lon="6.65688">
        <ele>49</ele>
        <time>2025-10-26T14:19:49Z</time>
      </trkpt>
      <trkpt lat="43.48992" lon="6.65688">
        <ele>48.9</ele>
        <time>2025-10-26T14:19:50Z</time>
      </trkpt>
      <trkpt lat="43.48992" lon="6.65687">
        <ele>48.8</ele>
        <time>2025-10-26T14:19:51Z</time>
      </trkpt>
      <trkpt lat="43.48992" lon="6.65686">
        <ele>48.7</ele>
        <time>2025-10-26T14:19:52Z</time>
      </trkpt>
      <trkpt lat="43.48992" lon="6.65686">
        <ele>48.5</ele>
        <time>2025-10-26T14:19:53Z</time>
      </trkpt>
      <trkpt lat="43.48992" lon="6.65685">
        <ele>48.3</ele>
        <time>2025-10-26T14:19:54Z</time>
      </trkpt>
      <trkpt lat="43.48991" lon="6.65685">
        <ele>48</ele>
        <time>2025-10-26T14:19:55Z</time>
      </trkpt>
      <trkpt lat="43.48991" lon="6.65684">
        <ele>47.7</ele>
        <time>2025-10-26T14:19:56Z</time>
      </trkpt>
      <trkpt lat="43.48991" lon="6.65684">
        <ele>47.5</ele>
        <time>2025-10-26T14:19:57Z</time>
      </trkpt>
      <trkpt lat="43.48991" lon="6.65684">
        <ele>47.3</ele>
        <time>2025-10-26T14:19:58Z</time>
      </trkpt>
      <trkpt lat="43.48991" lon="6.65684">
        <ele>47.1</ele>
        <time>2025-10-26T14:19:59Z</time>
      </trkpt>
      <trkpt lat="43.48992" lon="6.65683">
        <ele>47</ele>
        <time>2025-10-26T14:20:00Z</time>
      </trkpt>
      <trkpt lat="43.48992" lon="6.65683">
        <ele>46.9</ele>
        <time>2025-10-26T14:20:01Z</time>
      </trkpt>
      <trkpt lat="43.48992" lon="6.65684">
        <ele>46.8</ele>
        <time>2025-10-26T14:20:02Z</time>
      </trkpt>
      <trkpt lat="43.48992" lon="6.65684">
        <ele>46.7</ele>
        <time>2025-10-26T14:20:03Z</time>
      </trkpt>
      <trkpt lat="43.48991" lon="6.65683">
        <ele>46.6</ele>
        <time>2025-10-26T14:20:04Z</time>
      </trkpt>
      <trkpt lat="43.48992" lon="6.65683">
        <ele>46.5</ele>
        <time>2025-10-26T14:20:05Z</time>
      </trkpt>
      <trkpt lat="43.48992" lon="6.65683">
        <ele>46.5</ele>
        <time>2025-10-26T14:20:06Z</time>
      </trkpt>
      <trkpt lat="43.48991" lon="6.65682">
        <ele>46.3</ele>
        <time>2025-10-26T14:20:07Z</time>
      </trkpt>
      <trkpt lat="43.48991" lon="6.65681">
        <ele>46.3</ele>
        <time>2025-10-26T14:20:08Z</time>
      </trkpt>
      <trkpt lat="43.4899" lon="6.6568">
        <ele>46.2</ele>
        <time>2025-10-26T14:20:09Z</time>
      </trkpt>
      <trkpt lat="43.4899" lon="6.65679">
        <ele>46</ele>
        <time>2025-10-26T14:20:10Z</time>
      </trkpt>
      <trkpt lat="43.4899" lon="6.65679">
        <ele>45.9</ele>
        <time>2025-10-26T14:20:11Z</time>
      </trkpt>
      <trkpt lat="43.4899" lon="6.65678">
        <ele>45.7</ele>
        <time>2025-10-26T14:20:12Z</time>
      </trkpt>
      <trkpt lat="43.4899" lon="6.65678">
        <ele>45.5</ele>
        <time>2025-10-26T14:20:13Z</time>
      </trkpt>
      <trkpt lat="43.48991" lon="6.65678">
        <ele>45.3</ele>
        <time>2025-10-26T14:20:14Z</time>
      </trkpt>
      <trkpt lat="43.48991" lon="6.65677">
        <ele>45.2</ele>
        <time>2025-10-26T14:20:15Z</time>
      </trkpt>
      <trkpt lat="43.48992" lon="6.65675">
        <ele>44.9</ele>
        <time>2025-10-26T14:20:16Z</time>
      </trkpt>
      <trkpt lat="43.48992" lon="6.65674">
        <ele>44.6</ele>
        <time>2025-10-26T14:20:17Z</time>
      </trkpt>
      <trkpt lat="43.48991" lon="6.65673">
        <ele>44.4</ele>
        <time>2025-10-26T14:20:18Z</time>
      </trkpt>
      <trkpt lat="43.48991" lon="6.65671">
        <ele>44.1</ele>
        <time>2025-10-26T14:20:19Z</time>
      </trkpt>
      <trkpt lat="43.48991" lon="6.6567">
        <ele>43.9</ele>
        <time>2025-10-26T14:20:20Z</time>
      </trkpt>
      <trkpt lat="43.48991" lon="6.65669">
        <ele>43.7</ele>
        <time>2025-10-26T14:20:21Z</time>
      </trkpt>
      <trkpt lat="43.48991" lon="6.65668">
        <ele>43.5</ele>
        <time>2025-10-26T14:20:22Z</time>
      </trkpt>
      <trkpt lat="43.48991" lon="6.65666">
        <ele>43.4</ele>
        <time>2025-10-26T14:20:23Z</time>
      </trkpt>
      <trkpt lat="43.48991" lon="6.65665">
        <ele>43.2</ele>
        <time>2025-10-26T14:20:24Z</time>
      </trkpt>
      <trkpt lat="43.48991" lon="6.65664">
        <ele>43</ele>
        <time>2025-10-26T14:20:25Z</time>
      </trkpt>
      <trkpt lat="43.48991" lon="6.65663">
        <ele>42.8</ele>
        <time>2025-10-26T14:20:26Z</time>
      </trkpt>
      <trkpt lat="43.48991" lon="6.65662">
        <ele>42.6</ele>
        <time>2025-10-26T14:20:27Z</time>
      </trkpt>
      <trkpt lat="43.48991" lon="6.65661">
        <ele>42.5</ele>
        <time>2025-10-26T14:20:28Z</time>
      </trkpt>
      <trkpt lat="43.48991" lon="6.6566">
        <ele>42.2</ele>
        <time>2025-10-26T14:20:29Z</time>
      </trkpt>
      <trkpt lat="43.48991" lon="6.65659">
        <ele>42</ele>
        <time>2025-10-26T14:20:30Z</time>
      </trkpt>
      <trkpt lat="43.48991" lon="6.65658">
        <ele>41.8</ele>
        <time>2025-10-26T14:20:31Z</time>
      </trkpt>
      <trkpt lat="43.48991" lon="6.65657">
        <ele>41.6</ele>
        <time>2025-10-26T14:20:32Z</time>
      </trkpt>
      <trkpt lat="43.48991" lon="6.65656">
        <ele>41.4</ele>
        <time>2025-10-26T14:20:33Z</time>
      </trkpt>
      <trkpt lat="43.48991" lon="6.65655">
        <ele>41.2</ele>
        <time>2025-10-26T14:20:34Z</time>
      </trkpt>
      <trkpt lat="43.48991" lon="6.65653">
        <ele>41.1</ele>
        <time>2025-10-26T14:20:35Z</time>
      </trkpt>
      <trkpt lat="43.48991" lon="6.65652">
        <ele>41.1</ele>
        <time>2025-10-26T14:20:36Z</time>
      </trkpt>
      <trkpt lat="43.48992" lon="6.65651">
        <ele>40.9</ele>
        <time>2025-10-26T14:20:37Z</time>
      </trkpt>
      <trkpt lat="43.48992" lon="6.65649">
        <ele>40.7</ele>
        <time>2025-10-26T14:20:38Z</time>
      </trkpt>
      <trkpt lat="43.48992" lon="6.65648">
        <ele>40.6</ele>
        <time>2025-10-26T14:20:39Z</time>
      </trkpt>
      <trkpt lat="43.48993" lon="6.65647">
        <ele>40.5</ele>
        <time>2025-10-26T14:20:40Z</time>
      </trkpt>
      <trkpt lat="43.48993" lon="6.65647">
        <ele>40.5</ele>
        <time>2025-10-26T14:20:41Z</time>
      </trkpt>
      <trkpt lat="43.48993" lon="6.65646">
        <ele>40.5</ele>
        <time>2025-10-26T14:20:42Z</time>
      </trkpt>
      <trkpt lat="43.48993" lon="6.65645">
        <ele>40.4</ele>
        <time>2025-10-26T14:20:43Z</time>
      </trkpt>
      <trkpt lat="43.48993" lon="6.65644">
        <ele>40.4</ele>
        <time>2025-10-26T14:20:44Z</time>
      </trkpt>
      <trkpt lat="43.48993" lon="6.65644">
        <ele>40.4</ele>
        <time>2025-10-26T14:20:45Z</time>
      </trkpt>
      <trkpt lat="43.48993" lon="6.65644">
        <ele>40.3</ele>
        <time>2025-10-26T14:20:46Z</time>
      </trkpt>
      <trkpt lat="43.48994" lon="6.65644">
        <ele>40.3</ele>
        <time>2025-10-26T14:20:47Z</time>
      </trkpt>
      <trkpt lat="43.48994" lon="6.65644">
        <ele>40.2</ele>
        <time>2025-10-26T14:20:48Z</time>
      </trkpt>
      <trkpt lat="43.48993" lon="6.65644">
        <ele>40.2</ele>
        <time>2025-10-26T14:20:49Z</time>
      </trkpt>
      <trkpt lat="43.48993" lon="6.65644">
        <ele>40.2</ele>
        <time>2025-10-26T14:20:50Z</time>
      </trkpt>
      <trkpt lat="43.48993" lon="6.65644">
        <ele>40.2</ele>
        <time>2025-10-26T14:20:51Z</time>
      </trkpt>
      <trkpt lat="43.48993" lon="6.65643">
        <ele>40.2</ele>
        <time>2025-10-26T14:20:52Z</time>
      </trkpt>
      <trkpt lat="43.48993" lon="6.65643">
        <ele>40.1</ele>
        <time>2025-10-26T14:20:53Z</time>
      </trkpt>
      <trkpt lat="43.48993" lon="6.65643">
        <ele>40.1</ele>
        <time>2025-10-26T14:20:54Z</time>
      </trkpt>
      <trkpt lat="43.48993" lon="6.65643">
        <ele>40.1</ele>
        <time>2025-10-26T14:20:55Z</time>
      </trkpt>
      <trkpt lat="43.48993" lon="6.65643">
        <ele>40</ele>
        <time>2025-10-26T14:20:56Z</time>
      </trkpt>
      <trkpt lat="43.48993" lon="6.65643">
        <ele>39.9</ele>
        <time>2025-10-26T14:20:57Z</time>
      </trkpt>
      <trkpt lat="43.48993" lon="6.65643">
        <ele>39.9</ele>
        <time>2025-10-26T14:20:58Z</time>
      </trkpt>
      <trkpt lat="43.48993" lon="6.65643">
        <ele>39.9</ele>
        <time>2025-10-26T14:20:59Z</time>
      </trkpt>
      <trkpt lat="43.48993" lon="6.65643">
        <ele>39.9</ele>
        <time>2025-10-26T14:21:00Z</time>
      </trkpt>
      <trkpt lat="43.48993" lon="6.65643">
        <ele>39.9</ele>
        <time>2025-10-26T14:21:01Z</time>
      </trkpt>
      <trkpt lat="43.48993" lon="6.65643">
        <ele>40</ele>
        <time>2025-10-26T14:21:02Z</time>
      </trkpt>
      <trkpt lat="43.48993" lon="6.65643">
        <ele>40</ele>
        <time>2025-10-26T14:21:03Z</time>
      </trkpt>
      <trkpt lat="43.48993" lon="6.65643">
        <ele>40.1</ele>
        <time>2025-10-26T14:21:04Z</time>
      </trkpt>
      <trkpt lat="43.48993" lon="6.65643">
        <ele>40.1</ele>
        <time>2025-10-26T14:21:05Z</time>
      </trkpt>
      <trkpt lat="43.48993" lon="6.65643">
        <ele>40.2</ele>
        <time>2025-10-26T14:21:06Z</time>
      </trkpt>
      <trkpt lat="43.48993" lon="6.65643">
        <ele>40.3</ele>
        <time>2025-10-26T14:21:07Z</time>
      </trkpt>
      <trkpt lat="43.48993" lon="6.65643">
        <ele>40.3</ele>
        <time>2025-10-26T14:21:08Z</time>
      </trkpt>
      <trkpt lat="43.48993" lon="6.65643">
        <ele>40.4</ele>
        <time>2025-10-26T14:21:09Z</time>
      </trkpt>
      <trkpt lat="43.48993" lon="6.65643">
        <ele>40.4</ele>
        <time>2025-10-26T14:21:10Z</time>
      </trkpt>
      <trkpt lat="43.48993" lon="6.65643">
        <ele>40.5</ele>
        <time>2025-10-26T14:21:11Z</time>
      </trkpt>
      <trkpt lat="43.48993" lon="6.65643">
        <ele>40.6</ele>
        <time>2025-10-26T14:21:12Z</time>
      </trkpt>
      <trkpt lat="43.48993" lon="6.65643">
        <ele>40.6</ele>
        <time>2025-10-26T14:21:13Z</time>
      </trkpt>
      <trkpt lat="43.48994" lon="6.65643">
        <ele>40.6</ele>
        <time>2025-10-26T14:21:14Z</time>
      </trkpt>
      <trkpt lat="43.48994" lon="6.65642">
        <ele>40.6</ele>
        <time>2025-10-26T14:21:15Z</time>
      </trkpt>
      <trkpt lat="43.48994" lon="6.65642">
        <ele>40.6</ele>
        <time>2025-10-26T14:21:16Z</time>
      </trkpt>
      <trkpt lat="43.48994" lon="6.65641">
        <ele>40.6</ele>
        <time>2025-10-26T14:21:17Z</time>
      </trkpt>
      <trkpt lat="43.48995" lon="6.6564">
        <ele>40.6</ele>
        <time>2025-10-26T14:21:18Z</time>
      </trkpt>
      <trkpt lat="43.48995" lon="6.65639">
        <ele>40.3</ele>
        <time>2025-10-26T14:21:19Z</time>
      </trkpt>
      <trkpt lat="43.48996" lon="6.65639">
        <ele>40.3</ele>
        <time>2025-10-26T14:21:20Z</time>
      </trkpt>
      <trkpt lat="43.48997" lon="6.65638">
        <ele>40.2</ele>
        <time>2025-10-26T14:21:21Z</time>
      </trkpt>
      <trkpt lat="43.48997" lon="6.65637">
        <ele>40</ele>
        <time>2025-10-26T14:21:22Z</time>
      </trkpt>
      <trkpt lat="43.48998" lon="6.65636">
        <ele>40</ele>
        <time>2025-10-26T14:21:23Z</time>
      </trkpt>
      <trkpt lat="43.48999" lon="6.65635">
        <ele>40</ele>
        <time>2025-10-26T14:21:24Z</time>
      </trkpt>
      <trkpt lat="43.49" lon="6.65635">
        <ele>40.1</ele>
        <time>2025-10-26T14:21:25Z</time>
      </trkpt>
      <trkpt lat="43.49" lon="6.65634">
        <ele>40.2</ele>
        <time>2025-10-26T14:21:26Z</time>
      </trkpt>
      <trkpt lat="43.49001" lon="6.65634">
        <ele>40.4</ele>
        <time>2025-10-26T14:21:27Z</time>
      </trkpt>
      <trkpt lat="43.49001" lon="6.65634">
        <ele>40.7</ele>
        <time>2025-10-26T14:21:28Z</time>
      </trkpt>
      <trkpt lat="43.49002" lon="6.65633">
        <ele>40.9</ele>
        <time>2025-10-26T14:21:29Z</time>
      </trkpt>
      <trkpt lat="43.49003" lon="6.65633">
        <ele>41.2</ele>
        <time>2025-10-26T14:21:30Z</time>
      </trkpt>
      <trkpt lat="43.49004" lon="6.65633">
        <ele>41.3</ele>
        <time>2025-10-26T14:21:31Z</time>
      </trkpt>
      <trkpt lat="43.49004" lon="6.65632">
        <ele>41.5</ele>
        <time>2025-10-26T14:21:32Z</time>
      </trkpt>
      <trkpt lat="43.49005" lon="6.65631">
        <ele>41.7</ele>
        <time>2025-10-26T14:21:33Z</time>
      </trkpt>
      <trkpt lat="43.49006" lon="6.65631">
        <ele>41.9</ele>
        <time>2025-10-26T14:21:34Z</time>
      </trkpt>
      <trkpt lat="43.49007" lon="6.65631">
        <ele>41.9</ele>
        <time>2025-10-26T14:21:35Z</time>
      </trkpt>
      <trkpt lat="43.49008" lon="6.65632">
        <ele>42</ele>
        <time>2025-10-26T14:21:36Z</time>
      </trkpt>
      <trkpt lat="43.49009" lon="6.65632">
        <ele>42.1</ele>
        <time>2025-10-26T14:21:37Z</time>
      </trkpt>
      <trkpt lat="43.4901" lon="6.65632">
        <ele>42.1</ele>
        <time>2025-10-26T14:21:38Z</time>
      </trkpt>
      <trkpt lat="43.49011" lon="6.65631">
        <ele>42.2</ele>
        <time>2025-10-26T14:21:39Z</time>
      </trkpt>
      <trkpt lat="43.49012" lon="6.6563">
        <ele>42.2</ele>
        <time>2025-10-26T14:21:40Z</time>
      </trkpt>
      <trkpt lat="43.49013" lon="6.65629">
        <ele>42.3</ele>
        <time>2025-10-26T14:21:41Z</time>
      </trkpt>
      <trkpt lat="43.49013" lon="6.65628">
        <ele>42.3</ele>
        <time>2025-10-26T14:21:42Z</time>
      </trkpt>
      <trkpt lat="43.49014" lon="6.65626">
        <ele>42.4</ele>
        <time>2025-10-26T14:21:43Z</time>
      </trkpt>
      <trkpt lat="43.49014" lon="6.65625">
        <ele>42.5</ele>
        <time>2025-10-26T14:21:44Z</time>
      </trkpt>
      <trkpt lat="43.49015" lon="6.65624">
        <ele>42.7</ele>
        <time>2025-10-26T14:21:45Z</time>
      </trkpt>
      <trkpt lat="43.49015" lon="6.65623">
        <ele>42.9</ele>
        <time>2025-10-26T14:21:46Z</time>
      </trkpt>
      <trkpt lat="43.49016" lon="6.65622">
        <ele>43.1</ele>
        <time>2025-10-26T14:21:47Z</time>
      </trkpt>
      <trkpt lat="43.49016" lon="6.65621">
        <ele>43.5</ele>
        <time>2025-10-26T14:21:48Z</time>
      </trkpt>
      <trkpt lat="43.49016" lon="6.6562">
        <ele>43.7</ele>
        <time>2025-10-26T14:21:49Z</time>
      </trkpt>
      <trkpt lat="43.49016" lon="6.65619">
        <ele>44</ele>
        <time>2025-10-26T14:21:50Z</time>
      </trkpt>
      <trkpt lat="43.49017" lon="6.65618">
        <ele>44.1</ele>
        <time>2025-10-26T14:21:51Z</time>
      </trkpt>
      <trkpt lat="43.49017" lon="6.65617">
        <ele>44.3</ele>
        <time>2025-10-26T14:21:52Z</time>
      </trkpt>
      <trkpt lat="43.49017" lon="6.65616">
        <ele>44.5</ele>
        <time>2025-10-26T14:21:53Z</time>
      </trkpt>
      <trkpt lat="43.49017" lon="6.65615">
        <ele>44.8</ele>
        <time>2025-10-26T14:21:54Z</time>
      </trkpt>
      <trkpt lat="43.49018" lon="6.65614">
        <ele>44.9</ele>
        <time>2025-10-26T14:21:55Z</time>
      </trkpt>
      <trkpt lat="43.49018" lon="6.65613">
        <ele>44.8</ele>
        <time>2025-10-26T14:21:56Z</time>
      </trkpt>
      <trkpt lat="43.49018" lon="6.65612">
        <ele>44.8</ele>
        <time>2025-10-26T14:21:57Z</time>
      </trkpt>
      <trkpt lat="43.49018" lon="6.65611">
        <ele>44.8</ele>
        <time>2025-10-26T14:21:58Z</time>
      </trkpt>
      <trkpt lat="43.49018" lon="6.65611">
        <ele>44.8</ele>
        <time>2025-10-26T14:21:59Z</time>
      </trkpt>
      <trkpt lat="43.49018" lon="6.6561">
        <ele>44.8</ele>
        <time>2025-10-26T14:22:00Z</time>
      </trkpt>
      <trkpt lat="43.49019" lon="6.65609">
        <ele>45.1</ele>
        <time>2025-10-26T14:22:01Z</time>
      </trkpt>
      <trkpt lat="43.49018" lon="6.65608">
        <ele>45.2</ele>
        <time>2025-10-26T14:22:02Z</time>
      </trkpt>
      <trkpt lat="43.49019" lon="6.65607">
        <ele>45.4</ele>
        <time>2025-10-26T14:22:03Z</time>
      </trkpt>
      <trkpt lat="43.49019" lon="6.65606">
        <ele>45.6</ele>
        <time>2025-10-26T14:22:04Z</time>
      </trkpt>
      <trkpt lat="43.49019" lon="6.65605">
        <ele>45.6</ele>
        <time>2025-10-26T14:22:05Z</time>
      </trkpt>
      <trkpt lat="43.49019" lon="6.65604">
        <ele>45.6</ele>
        <time>2025-10-26T14:22:06Z</time>
      </trkpt>
      <trkpt lat="43.49019" lon="6.65603">
        <ele>45.7</ele>
        <time>2025-10-26T14:22:07Z</time>
      </trkpt>
      <trkpt lat="43.49019" lon="6.65602">
        <ele>45.6</ele>
        <time>2025-10-26T14:22:08Z</time>
      </trkpt>
      <trkpt lat="43.49019" lon="6.65601">
        <ele>45.6</ele>
        <time>2025-10-26T14:22:09Z</time>
      </trkpt>
      <trkpt lat="43.49018" lon="6.656">
        <ele>45.7</ele>
        <time>2025-10-26T14:22:10Z</time>
      </trkpt>
      <trkpt lat="43.49019" lon="6.65599">
        <ele>45.7</ele>
        <time>2025-10-26T14:22:11Z</time>
      </trkpt>
      <trkpt lat="43.49019" lon="6.65598">
        <ele>45.8</ele>
        <time>2025-10-26T14:22:12Z</time>
      </trkpt>
      <trkpt lat="43.49019" lon="6.65597">
        <ele>45.9</ele>
        <time>2025-10-26T14:22:13Z</time>
      </trkpt>
      <trkpt lat="43.49019" lon="6.65596">
        <ele>45.9</ele>
        <time>2025-10-26T14:22:14Z</time>
      </trkpt>
      <trkpt lat="43.49018" lon="6.65595">
        <ele>46.1</ele>
        <time>2025-10-26T14:22:15Z</time>
      </trkpt>
      <trkpt lat="43.49018" lon="6.65594">
        <ele>46.3</ele>
        <time>2025-10-26T14:22:16Z</time>
      </trkpt>
      <trkpt lat="43.49018" lon="6.65593">
        <ele>46.5</ele>
        <time>2025-10-26T14:22:17Z</time>
      </trkpt>
      <trkpt lat="43.49017" lon="6.65591">
        <ele>46.5</ele>
        <time>2025-10-26T14:22:18Z</time>
      </trkpt>
      <trkpt lat="43.49017" lon="6.6559">
        <ele>46.6</ele>
        <time>2025-10-26T14:22:19Z</time>
      </trkpt>
      <trkpt lat="43.49016" lon="6.65589">
        <ele>46.6</ele>
        <time>2025-10-26T14:22:20Z</time>
      </trkpt>
      <trkpt lat="43.49016" lon="6.65588">
        <ele>46.7</ele>
        <time>2025-10-26T14:22:21Z</time>
      </trkpt>
      <trkpt lat="43.49015" lon="6.65587">
        <ele>46.7</ele>
        <time>2025-10-26T14:22:22Z</time>
      </trkpt>
      <trkpt lat="43.49015" lon="6.65585">
        <ele>46.7</ele>
        <time>2025-10-26T14:22:23Z</time>
      </trkpt>
      <trkpt lat="43.49014" lon="6.65584">
        <ele>46.6</ele>
        <time>2025-10-26T14:22:24Z</time>
      </trkpt>
      <trkpt lat="43.49014" lon="6.65583">
        <ele>46.5</ele>
        <time>2025-10-26T14:22:25Z</time>
      </trkpt>
      <trkpt lat="43.49013" lon="6.65582">
        <ele>46.6</ele>
        <time>2025-10-26T14:22:26Z</time>
      </trkpt>
      <trkpt lat="43.49012" lon="6.65581">
        <ele>46.5</ele>
        <time>2025-10-26T14:22:27Z</time>
      </trkpt>
      <trkpt lat="43.49011" lon="6.6558">
        <ele>46.3</ele>
        <time>2025-10-26T14:22:28Z</time>
      </trkpt>
      <trkpt lat="43.49011" lon="6.65579">
        <ele>46.1</ele>
        <time>2025-10-26T14:22:29Z</time>
      </trkpt>
      <trkpt lat="43.4901" lon="6.65579">
        <ele>46</ele>
        <time>2025-10-26T14:22:30Z</time>
      </trkpt>
      <trkpt lat="43.49009" lon="6.65578">
        <ele>45.9</ele>
        <time>2025-10-26T14:22:31Z</time>
      </trkpt>
      <trkpt lat="43.49008" lon="6.65578">
        <ele>45.9</ele>
        <time>2025-10-26T14:22:32Z</time>
      </trkpt>
      <trkpt lat="43.49007" lon="6.65577">
        <ele>45.8</ele>
        <time>2025-10-26T14:22:33Z</time>
      </trkpt>
      <trkpt lat="43.49006" lon="6.65576">
        <ele>45.7</ele>
        <time>2025-10-26T14:22:34Z</time>
      </trkpt>
      <trkpt lat="43.49006" lon="6.65576">
        <ele>45.7</ele>
        <time>2025-10-26T14:22:35Z</time>
      </trkpt>
      <trkpt lat="43.49005" lon="6.65574">
        <ele>45.7</ele>
        <time>2025-10-26T14:22:36Z</time>
      </trkpt>
      <trkpt lat="43.49004" lon="6.65573">
        <ele>45.7</ele>
        <time>2025-10-26T14:22:37Z</time>
      </trkpt>
      <trkpt lat="43.49003" lon="6.65573">
        <ele>45.8</ele>
        <time>2025-10-26T14:22:38Z</time>
      </trkpt>
      <trkpt lat="43.49003" lon="6.65572">
        <ele>46</ele>
        <time>2025-10-26T14:22:39Z</time>
      </trkpt>
      <trkpt lat="43.49002" lon="6.65571">
        <ele>46.1</ele>
        <time>2025-10-26T14:22:40Z</time>
      </trkpt>
      <trkpt lat="43.49001" lon="6.6557">
        <ele>46.2</ele>
        <time>2025-10-26T14:22:41Z</time>
      </trkpt>
      <trkpt lat="43.49001" lon="6.65569">
        <ele>46.2</ele>
        <time>2025-10-26T14:22:42Z</time>
      </trkpt>
      <trkpt lat="43.49" lon="6.65568">
        <ele>46.3</ele>
        <time>2025-10-26T14:22:43Z</time>
      </trkpt>
      <trkpt lat="43.48999" lon="6.65567">
        <ele>46.4</ele>
        <time>2025-10-26T14:22:44Z</time>
      </trkpt>
      <trkpt lat="43.48999" lon="6.65567">
        <ele>46.5</ele>
        <time>2025-10-26T14:22:45Z</time>
      </trkpt>
      <trkpt lat="43.48998" lon="6.65567">
        <ele>46.7</ele>
        <time>2025-10-26T14:22:46Z</time>
      </trkpt>
      <trkpt lat="43.48998" lon="6.65566">
        <ele>46.9</ele>
        <time>2025-10-26T14:22:47Z</time>
      </trkpt>
      <trkpt lat="43.48998" lon="6.65565">
        <ele>47</ele>
        <time>2025-10-26T14:22:48Z</time>
      </trkpt>
      <trkpt lat="43.48997" lon="6.65564">
        <ele>47.2</ele>
        <time>2025-10-26T14:22:49Z</time>
      </trkpt>
      <trkpt lat="43.48996" lon="6.65564">
        <ele>47.4</ele>
        <time>2025-10-26T14:22:50Z</time>
      </trkpt>
      <trkpt lat="43.48995" lon="6.65563">
        <ele>47.6</ele>
        <time>2025-10-26T14:22:51Z</time>
      </trkpt>
      <trkpt lat="43.48994" lon="6.65562">
        <ele>47.6</ele>
        <time>2025-10-26T14:22:52Z</time>
      </trkpt>
      <trkpt lat="43.48993" lon="6.65562">
        <ele>47.5</ele>
        <time>2025-10-26T14:22:53Z</time>
      </trkpt>
      <trkpt lat="43.48992" lon="6.65561">
        <ele>47.5</ele>
        <time>2025-10-26T14:22:54Z</time>
      </trkpt>
      <trkpt lat="43.48991" lon="6.6556">
        <ele>47.5</ele>
        <time>2025-10-26T14:22:55Z</time>
      </trkpt>
      <trkpt lat="43.4899" lon="6.65559">
        <ele>47.4</ele>
        <time>2025-10-26T14:22:56Z</time>
      </trkpt>
      <trkpt lat="43.48989" lon="6.65558">
        <ele>47.4</ele>
        <time>2025-10-26T14:22:57Z</time>
      </trkpt>
      <trkpt lat="43.48988" lon="6.65557">
        <ele>47.4</ele>
        <time>2025-10-26T14:22:58Z</time>
      </trkpt>
      <trkpt lat="43.48987" lon="6.65556">
        <ele>47.4</ele>
        <time>2025-10-26T14:22:59Z</time>
      </trkpt>
      <trkpt lat="43.48986" lon="6.65555">
        <ele>47.4</ele>
        <time>2025-10-26T14:23:00Z</time>
      </trkpt>
      <trkpt lat="43.48986" lon="6.65554">
        <ele>47.4</ele>
        <time>2025-10-26T14:23:01Z</time>
      </trkpt>
      <trkpt lat="43.48985" lon="6.65553">
        <ele>47.5</ele>
        <time>2025-10-26T14:23:02Z</time>
      </trkpt>
      <trkpt lat="43.48984" lon="6.65551">
        <ele>47.6</ele>
        <time>2025-10-26T14:23:03Z</time>
      </trkpt>
      <trkpt lat="43.48983" lon="6.6555">
        <ele>47.6</ele>
        <time>2025-10-26T14:23:04Z</time>
      </trkpt>
      <trkpt lat="43.48983" lon="6.65549">
        <ele>47.5</ele>
        <time>2025-10-26T14:23:05Z</time>
      </trkpt>
      <trkpt lat="43.48982" lon="6.65548">
        <ele>47.6</ele>
        <time>2025-10-26T14:23:06Z</time>
      </trkpt>
      <trkpt lat="43.48982" lon="6.65547">
        <ele>47.7</ele>
        <time>2025-10-26T14:23:07Z</time>
      </trkpt>
      <trkpt lat="43.48981" lon="6.65546">
        <ele>47.8</ele>
        <time>2025-10-26T14:23:08Z</time>
      </trkpt>
      <trkpt lat="43.48981" lon="6.65544">
        <ele>47.8</ele>
        <time>2025-10-26T14:23:09Z</time>
      </trkpt>
      <trkpt lat="43.48981" lon="6.65543">
        <ele>47.9</ele>
        <time>2025-10-26T14:23:10Z</time>
      </trkpt>
      <trkpt lat="43.4898" lon="6.65542">
        <ele>48</ele>
        <time>2025-10-26T14:23:11Z</time>
      </trkpt>
      <trkpt lat="43.48979" lon="6.65541">
        <ele>48</ele>
        <time>2025-10-26T14:23:12Z</time>
      </trkpt>
      <trkpt lat="43.48979" lon="6.6554">
        <ele>48.1</ele>
        <time>2025-10-26T14:23:13Z</time>
      </trkpt>
      <trkpt lat="43.48978" lon="6.6554">
        <ele>48.2</ele>
        <time>2025-10-26T14:23:14Z</time>
      </trkpt>
      <trkpt lat="43.48978" lon="6.65539">
        <ele>48.2</ele>
        <time>2025-10-26T14:23:15Z</time>
      </trkpt>
      <trkpt lat="43.48978" lon="6.65538">
        <ele>48.2</ele>
        <time>2025-10-26T14:23:16Z</time>
      </trkpt>
      <trkpt lat="43.48977" lon="6.65537">
        <ele>48.2</ele>
        <time>2025-10-26T14:23:17Z</time>
      </trkpt>
      <trkpt lat="43.48976" lon="6.65537">
        <ele>48.4</ele>
        <time>2025-10-26T14:23:18Z</time>
      </trkpt>
      <trkpt lat="43.48976" lon="6.65536">
        <ele>48.3</ele>
        <time>2025-10-26T14:23:19Z</time>
      </trkpt>
      <trkpt lat="43.48975" lon="6.65536">
        <ele>48.3</ele>
        <time>2025-10-26T14:23:20Z</time>
      </trkpt>
      <trkpt lat="43.48975" lon="6.65535">
        <ele>48.3</ele>
        <time>2025-10-26T14:23:21Z</time>
      </trkpt>
      <trkpt lat="43.48975" lon="6.65535">
        <ele>48.3</ele>
        <time>2025-10-26T14:23:22Z</time>
      </trkpt>
      <trkpt lat="43.48975" lon="6.65534">
        <ele>48.4</ele>
        <time>2025-10-26T14:23:23Z</time>
      </trkpt>
      <trkpt lat="43.48975" lon="6.65534">
        <ele>48.4</ele>
        <time>2025-10-26T14:23:24Z</time>
      </trkpt>
      <trkpt lat="43.48975" lon="6.65534">
        <ele>48.4</ele>
        <time>2025-10-26T14:23:25Z</time>
      </trkpt>
      <trkpt lat="43.48975" lon="6.65534">
        <ele>48.4</ele>
        <time>2025-10-26T14:23:26Z</time>
      </trkpt>
      <trkpt lat="43.48975" lon="6.65533">
        <ele>48.4</ele>
        <time>2025-10-26T14:23:27Z</time>
      </trkpt>
      <trkpt lat="43.48975" lon="6.65532">
        <ele>48.6</ele>
        <time>2025-10-26T14:23:28Z</time>
      </trkpt>
      <trkpt lat="43.48976" lon="6.65531">
        <ele>48.6</ele>
        <time>2025-10-26T14:23:29Z</time>
      </trkpt>
      <trkpt lat="43.48976" lon="6.65531">
        <ele>48.6</ele>
        <time>2025-10-26T14:23:30Z</time>
      </trkpt>
      <trkpt lat="43.48976" lon="6.6553">
        <ele>48.7</ele>
        <time>2025-10-26T14:23:31Z</time>
      </trkpt>
      <trkpt lat="43.48977" lon="6.65529">
        <ele>48.8</ele>
        <time>2025-10-26T14:23:32Z</time>
      </trkpt>
      <trkpt lat="43.48977" lon="6.65528">
        <ele>48.9</ele>
        <time>2025-10-26T14:23:33Z</time>
      </trkpt>
      <trkpt lat="43.48977" lon="6.65527">
        <ele>49</ele>
        <time>2025-10-26T14:23:34Z</time>
      </trkpt>
      <trkpt lat="43.48977" lon="6.65527">
        <ele>49.1</ele>
        <time>2025-10-26T14:23:35Z</time>
      </trkpt>
      <trkpt lat="43.48976" lon="6.65527">
        <ele>49.4</ele>
        <time>2025-10-26T14:23:36Z</time>
      </trkpt>
      <trkpt lat="43.48976" lon="6.65527">
        <ele>49.6</ele>
        <time>2025-10-26T14:23:37Z</time>
      </trkpt>
      <trkpt lat="43.48976" lon="6.65526">
        <ele>49.7</ele>
        <time>2025-10-26T14:23:38Z</time>
      </trkpt>
      <trkpt lat="43.48976" lon="6.65526">
        <ele>49.8</ele>
        <time>2025-10-26T14:23:39Z</time>
      </trkpt>
      <trkpt lat="43.48976" lon="6.65526">
        <ele>49.8</ele>
        <time>2025-10-26T14:23:40Z</time>
      </trkpt>
      <trkpt lat="43.48976" lon="6.65526">
        <ele>49.8</ele>
        <time>2025-10-26T14:23:41Z</time>
      </trkpt>
      <trkpt lat="43.48976" lon="6.65526">
        <ele>49.8</ele>
        <time>2025-10-26T14:23:42Z</time>
      </trkpt>
      <trkpt lat="43.48976" lon="6.65526">
        <ele>49.7</ele>
        <time>2025-10-26T14:23:43Z</time>
      </trkpt>
      <trkpt lat="43.48976" lon="6.65526">
        <ele>49.6</ele>
        <time>2025-10-26T14:23:44Z</time>
      </trkpt>
      <trkpt lat="43.48976" lon="6.65525">
        <ele>49.6</ele>
        <time>2025-10-26T14:23:45Z</time>
      </trkpt>
      <trkpt lat="43.48976" lon="6.65525">
        <ele>49.8</ele>
        <time>2025-10-26T14:23:46Z</time>
      </trkpt>
      <trkpt lat="43.48977" lon="6.65525">
        <ele>49.8</ele>
        <time>2025-10-26T14:23:47Z</time>
      </trkpt>
      <trkpt lat="43.48977" lon="6.65525">
        <ele>49.9</ele>
        <time>2025-10-26T14:23:48Z</time>
      </trkpt>
      <trkpt lat="43.48978" lon="6.65525">
        <ele>50</ele>
        <time>2025-10-26T14:23:49Z</time>
      </trkpt>
      <trkpt lat="43.48978" lon="6.65525">
        <ele>50.1</ele>
        <time>2025-10-26T14:23:50Z</time>
      </trkpt>
      <trkpt lat="43.48978" lon="6.65525">
        <ele>50.2</ele>
        <time>2025-10-26T14:23:51Z</time>
      </trkpt>
      <trkpt lat="43.48978" lon="6.65525">
        <ele>50.2</ele>
        <time>2025-10-26T14:23:52Z</time>
      </trkpt>
      <trkpt lat="43.48978" lon="6.65524">
        <ele>50.4</ele>
        <time>2025-10-26T14:23:53Z</time>
      </trkpt>
      <trkpt lat="43.48978" lon="6.65524">
        <ele>50.4</ele>
        <time>2025-10-26T14:23:54Z</time>
      </trkpt>
      <trkpt lat="43.48977" lon="6.65524">
        <ele>50.5</ele>
        <time>2025-10-26T14:23:55Z</time>
      </trkpt>
      <trkpt lat="43.48977" lon="6.65524">
        <ele>50.6</ele>
        <time>2025-10-26T14:23:56Z</time>
      </trkpt>
      <trkpt lat="43.48977" lon="6.65524">
        <ele>50.6</ele>
        <time>2025-10-26T14:23:57Z</time>
      </trkpt>
      <trkpt lat="43.48977" lon="6.65524">
        <ele>50.6</ele>
        <time>2025-10-26T14:23:58Z</time>
      </trkpt>
      <trkpt lat="43.48977" lon="6.65524">
        <ele>50.5</ele>
        <time>2025-10-26T14:23:59Z</time>
      </trkpt>
      <trkpt lat="43.48977" lon="6.65524">
        <ele>50.6</ele>
        <time>2025-10-26T14:24:00Z</time>
      </trkpt>
      <trkpt lat="43.48977" lon="6.65524">
        <ele>50.4</ele>
        <time>2025-10-26T14:24:01Z</time>
      </trkpt>
      <trkpt lat="43.48977" lon="6.65524">
        <ele>50.2</ele>
        <time>2025-10-26T14:24:02Z</time>
      </trkpt>
      <trkpt lat="43.48977" lon="6.65524">
        <ele>50.1</ele>
        <time>2025-10-26T14:24:03Z</time>
      </trkpt>
      <trkpt lat="43.48977" lon="6.65524">
        <ele>50</ele>
        <time>2025-10-26T14:24:04Z</time>
      </trkpt>
      <trkpt lat="43.48977" lon="6.65524">
        <ele>49.9</ele>
        <time>2025-10-26T14:24:05Z</time>
      </trkpt>
      <trkpt lat="43.48977" lon="6.65524">
        <ele>49.8</ele>
        <time>2025-10-26T14:24:06Z</time>
      </trkpt>
      <trkpt lat="43.48976" lon="6.65524">
        <ele>49.7</ele>
        <time>2025-10-26T14:24:07Z</time>
      </trkpt>
      <trkpt lat="43.48976" lon="6.65524">
        <ele>49.7</ele>
        <time>2025-10-26T14:24:08Z</time>
      </trkpt>
      <trkpt lat="43.48976" lon="6.65524">
        <ele>49.8</ele>
        <time>2025-10-26T14:24:09Z</time>
      </trkpt>
      <trkpt lat="43.48976" lon="6.65524">
        <ele>49.9</ele>
        <time>2025-10-26T14:24:10Z</time>
      </trkpt>
      <trkpt lat="43.48977" lon="6.65524">
        <ele>49.9</ele>
        <time>2025-10-26T14:24:11Z</time>
      </trkpt>
      <trkpt lat="43.48977" lon="6.65524">
        <ele>49.9</ele>
        <time>2025-10-26T14:24:12Z</time>
      </trkpt>
      <trkpt lat="43.48977" lon="6.65524">
        <ele>49.9</ele>
        <time>2025-10-26T14:24:13Z</time>
      </trkpt>
      <trkpt lat="43.48976" lon="6.65524">
        <ele>49.9</ele>
        <time>2025-10-26T14:24:14Z</time>
      </trkpt>
      <trkpt lat="43.48976" lon="6.65524">
        <ele>49.8</ele>
        <time>2025-10-26T14:24:15Z</time>
      </trkpt>
      <trkpt lat="43.48977" lon="6.65524">
        <ele>49.8</ele>
        <time>2025-10-26T14:24:16Z</time>
      </trkpt>
      <trkpt lat="43.48977" lon="6.65524">
        <ele>49.8</ele>
        <time>2025-10-26T14:24:17Z</time>
      </trkpt>
      <trkpt lat="43.48977" lon="6.65524">
        <ele>49.8</ele>
        <time>2025-10-26T14:24:18Z</time>
      </trkpt>
      <trkpt lat="43.48977" lon="6.65524">
        <ele>49.8</ele>
        <time>2025-10-26T14:24:19Z</time>
      </trkpt>
      <trkpt lat="43.48977" lon="6.65524">
        <ele>49.9</ele>
        <time>2025-10-26T14:24:20Z</time>
      </trkpt>
      <trkpt lat="43.48977" lon="6.65524">
        <ele>49.9</ele>
        <time>2025-10-26T14:24:21Z</time>
      </trkpt>
      <trkpt lat="43.48977" lon="6.65524">
        <ele>50.1</ele>
        <time>2025-10-26T14:24:22Z</time>
      </trkpt>
      <trkpt lat="43.48977" lon="6.65524">
        <ele>50.2</ele>
        <time>2025-10-26T14:24:23Z</time>
      </trkpt>
      <trkpt lat="43.48977" lon="6.65524">
        <ele>50.2</ele>
        <time>2025-10-26T14:24:24Z</time>
      </trkpt>
      <trkpt lat="43.48976" lon="6.65524">
        <ele>50.3</ele>
        <time>2025-10-26T14:24:25Z</time>
      </trkpt>
      <trkpt lat="43.48976" lon="6.65524">
        <ele>50.4</ele>
        <time>2025-10-26T14:24:26Z</time>
      </trkpt>
      <trkpt lat="43.48977" lon="6.65523">
        <ele>50.6</ele>
        <time>2025-10-26T14:24:27Z</time>
      </trkpt>
      <trkpt lat="43.48977" lon="6.65524">
        <ele>50.6</ele>
        <time>2025-10-26T14:24:28Z</time>
      </trkpt>
      <trkpt lat="43.48977" lon="6.65523">
        <ele>50.7</ele>
        <time>2025-10-26T14:24:29Z</time>
      </trkpt>
      <trkpt lat="43.48977" lon="6.65523">
        <ele>50.7</ele>
        <time>2025-10-26T14:24:30Z</time>
      </trkpt>
      <trkpt lat="43.48977" lon="6.65524">
        <ele>50.8</ele>
        <time>2025-10-26T14:24:31Z</time>
      </trkpt>
      <trkpt lat="43.48977" lon="6.65524">
        <ele>50.8</ele>
        <time>2025-10-26T14:24:32Z</time>
      </trkpt>
      <trkpt lat="43.48977" lon="6.65524">
        <ele>50.9</ele>
        <time>2025-10-26T14:24:33Z</time>
      </trkpt>
      <trkpt lat="43.48977" lon="6.65524">
        <ele>50.9</ele>
        <time>2025-10-26T14:24:34Z</time>
      </trkpt>
      <trkpt lat="43.48977" lon="6.65524">
        <ele>50.9</ele>
        <time>2025-10-26T14:24:35Z</time>
      </trkpt>
      <trkpt lat="43.48977" lon="6.65523">
        <ele>51</ele>
        <time>2025-10-26T14:24:36Z</time>
      </trkpt>
      <trkpt lat="43.48977" lon="6.65523">
        <ele>50.9</ele>
        <time>2025-10-26T14:24:37Z</time>
      </trkpt>
      <trkpt lat="43.48977" lon="6.65523">
        <ele>50.9</ele>
        <time>2025-10-26T14:24:38Z</time>
      </trkpt>
      <trkpt lat="43.48977" lon="6.65523">
        <ele>50.8</ele>
        <time>2025-10-26T14:24:39Z</time>
      </trkpt>
      <trkpt lat="43.48976" lon="6.65523">
        <ele>50.8</ele>
        <time>2025-10-26T14:24:40Z</time>
      </trkpt>
      <trkpt lat="43.48977" lon="6.65523">
        <ele>50.8</ele>
        <time>2025-10-26T14:24:41Z</time>
      </trkpt>
      <trkpt lat="43.48977" lon="6.65523">
        <ele>50.9</ele>
        <time>2025-10-26T14:24:42Z</time>
      </trkpt>
      <trkpt lat="43.48977" lon="6.65523">
        <ele>50.8</ele>
        <time>2025-10-26T14:24:43Z</time>
      </trkpt>
      <trkpt lat="43.48976" lon="6.65523">
        <ele>50.7</ele>
        <time>2025-10-26T14:24:44Z</time>
      </trkpt>
      <trkpt lat="43.48976" lon="6.65523">
        <ele>50.7</ele>
        <time>2025-10-26T14:24:45Z</time>
      </trkpt>
      <trkpt lat="43.48977" lon="6.65523">
        <ele>50.8</ele>
        <time>2025-10-26T14:24:46Z</time>
      </trkpt>
      <trkpt lat="43.48977" lon="6.65523">
        <ele>50.8</ele>
        <time>2025-10-26T14:24:47Z</time>
      </trkpt>
      <trkpt lat="43.48977" lon="6.65523">
        <ele>50.8</ele>
        <time>2025-10-26T14:24:48Z</time>
      </trkpt>
      <trkpt lat="43.48977" lon="6.65524">
        <ele>50.8</ele>
        <time>2025-10-26T14:24:49Z</time>
      </trkpt>
      <trkpt lat="43.48977" lon="6.65524">
        <ele>50.9</ele>
        <time>2025-10-26T14:24:50Z</time>
      </trkpt>
      <trkpt lat="43.48977" lon="6.65524">
        <ele>50.8</ele>
        <time>2025-10-26T14:24:50Z</time>
      </trkpt>
      <trkpt lat="43.48977" lon="6.65524">
        <ele>50.8</ele>
        <time>2025-10-26T14:24:51Z</time>
      </trkpt>
      <trkpt lat="43.48977" lon="6.65524">
        <ele>50.8</ele>
        <time>2025-10-26T14:24:51Z</time>
      </trkpt>
    </trkseg>
  </trk>
</gpx>